<?xml version="1.0" encoding="UTF-8" standalone="no" ?>
<gpx xmlns="http://www.topografix.com/GPX/1/1" xmlns:xsi="http://www.w3.org/2001/XMLSchema-instance" xsi:schemaLocation="http://www.topografix.com/GPX/1/1 http://www.topografix.com/GPX/1/1/gpx.xsd" version="1.1" creator="VisuGPX - https://www.visugpx.com">
  <metadata>
    <name>THIERS</name>
  </metadata>
  <trk>
    <name><![CDATA[THIERS_1]]></name>
    <trkseg>
      <trkpt lat="45.85562" lon="3.55199">
        <ele>367</ele>
        <time>2021-02-14T10:28:53Z</time>
        <extensions>
          <visugpx:TrkExtension xmlns:visugpx="https://www.visugpx.com/editgpx/">
            <visugpx:node>8</visugpx:node>
            </visugpx:TrkExtension>
        </extensions>
      </trkpt>
      <trkpt lat="45.85563" lon="3.55203">
        <ele>368</ele>
        <time>2021-02-14T10:28:55Z</time>
      </trkpt>
      <trkpt lat="45.85563" lon="3.55207">
        <ele>369</ele>
        <time>2021-02-14T10:28:57Z</time>
      </trkpt>
      <trkpt lat="45.85563" lon="3.55211">
        <ele>370</ele>
        <time>2021-02-14T10:28:59Z</time>
      </trkpt>
      <trkpt lat="45.85564" lon="3.55215">
        <ele>371</ele>
        <time>2021-02-14T10:29:01Z</time>
      </trkpt>
      <trkpt lat="45.85564" lon="3.55218">
        <ele>372</ele>
        <time>2021-02-14T10:29:03Z</time>
      </trkpt>
      <trkpt lat="45.85564" lon="3.55222">
        <ele>372</ele>
        <time>2021-02-14T10:29:05Z</time>
      </trkpt>
      <trkpt lat="45.85565" lon="3.55226">
        <ele>373</ele>
        <time>2021-02-14T10:29:07Z</time>
      </trkpt>
      <trkpt lat="45.85565" lon="3.55229">
        <ele>374</ele>
        <time>2021-02-14T10:29:09Z</time>
      </trkpt>
      <trkpt lat="45.85566" lon="3.55233">
        <ele>375</ele>
        <time>2021-02-14T10:29:11Z</time>
      </trkpt>
      <trkpt lat="45.85566" lon="3.55236">
        <ele>376</ele>
        <time>2021-02-14T10:29:13Z</time>
      </trkpt>
      <trkpt lat="45.85566" lon="3.5524">
        <ele>377</ele>
        <time>2021-02-14T10:29:15Z</time>
      </trkpt>
      <trkpt lat="45.85566" lon="3.55243">
        <ele>377</ele>
        <time>2021-02-14T10:29:17Z</time>
      </trkpt>
      <trkpt lat="45.85566" lon="3.55246">
        <ele>378</ele>
        <time>2021-02-14T10:29:19Z</time>
      </trkpt>
      <trkpt lat="45.85564" lon="3.5525">
        <ele>379</ele>
        <time>2021-02-14T10:29:21Z</time>
      </trkpt>
      <trkpt lat="45.85564" lon="3.55252">
        <ele>379</ele>
        <time>2021-02-14T10:29:23Z</time>
      </trkpt>
      <trkpt lat="45.85562" lon="3.55257">
        <ele>379</ele>
        <time>2021-02-14T10:29:26Z</time>
      </trkpt>
      <trkpt lat="45.8556" lon="3.55261">
        <ele>380</ele>
        <time>2021-02-14T10:29:28Z</time>
      </trkpt>
      <trkpt lat="45.85556" lon="3.55273">
        <ele>382</ele>
        <time>2021-02-14T10:29:37Z</time>
      </trkpt>
      <trkpt lat="45.85553" lon="3.55286">
        <ele>385</ele>
        <time>2021-02-14T10:29:46Z</time>
      </trkpt>
      <trkpt lat="45.85553" lon="3.553">
        <ele>388</ele>
        <time>2021-02-14T10:29:56Z</time>
      </trkpt>
      <trkpt lat="45.85556" lon="3.55313">
        <ele>390</ele>
        <time>2021-02-14T10:30:04Z</time>
      </trkpt>
      <trkpt lat="45.85557" lon="3.55315">
        <ele>391</ele>
        <time>2021-02-14T10:30:07Z</time>
      </trkpt>
      <trkpt lat="45.85559" lon="3.55315">
        <ele>390</ele>
        <time>2021-02-14T10:30:09Z</time>
      </trkpt>
      <trkpt lat="45.85561" lon="3.55313">
        <ele>390</ele>
        <time>2021-02-14T10:30:11Z</time>
      </trkpt>
      <trkpt lat="45.85563" lon="3.55312">
        <ele>390</ele>
        <time>2021-02-14T10:30:14Z</time>
      </trkpt>
      <trkpt lat="45.85565" lon="3.55311">
        <ele>389</ele>
        <time>2021-02-14T10:30:16Z</time>
      </trkpt>
      <trkpt lat="45.85567" lon="3.55309">
        <ele>389</ele>
        <time>2021-02-14T10:30:18Z</time>
      </trkpt>
      <trkpt lat="45.85569" lon="3.55308">
        <ele>388</ele>
        <time>2021-02-14T10:30:21Z</time>
      </trkpt>
      <trkpt lat="45.85571" lon="3.55307">
        <ele>388</ele>
        <time>2021-02-14T10:30:23Z</time>
      </trkpt>
      <trkpt lat="45.85573" lon="3.55305">
        <ele>387</ele>
        <time>2021-02-14T10:30:26Z</time>
      </trkpt>
      <trkpt lat="45.85575" lon="3.55304">
        <ele>387</ele>
        <time>2021-02-14T10:30:28Z</time>
      </trkpt>
      <trkpt lat="45.85576" lon="3.55302">
        <ele>387</ele>
        <time>2021-02-14T10:30:30Z</time>
      </trkpt>
      <trkpt lat="45.85577" lon="3.55299">
        <ele>386</ele>
        <time>2021-02-14T10:30:32Z</time>
      </trkpt>
      <trkpt lat="45.85579" lon="3.55295">
        <ele>386</ele>
        <time>2021-02-14T10:30:35Z</time>
      </trkpt>
      <trkpt lat="45.85581" lon="3.55293">
        <ele>386</ele>
        <time>2021-02-14T10:30:37Z</time>
      </trkpt>
      <trkpt lat="45.85583" lon="3.55292">
        <ele>386</ele>
        <time>2021-02-14T10:30:39Z</time>
      </trkpt>
      <trkpt lat="45.85586" lon="3.5529">
        <ele>386</ele>
        <time>2021-02-14T10:30:41Z</time>
      </trkpt>
      <trkpt lat="45.85588" lon="3.55289">
        <ele>386</ele>
        <time>2021-02-14T10:30:43Z</time>
      </trkpt>
      <trkpt lat="45.8559" lon="3.55287">
        <ele>386</ele>
        <time>2021-02-14T10:30:45Z</time>
      </trkpt>
      <trkpt lat="45.85591" lon="3.55284">
        <ele>386</ele>
        <time>2021-02-14T10:30:47Z</time>
      </trkpt>
      <trkpt lat="45.85592" lon="3.55281">
        <ele>386</ele>
        <time>2021-02-14T10:30:49Z</time>
      </trkpt>
      <trkpt lat="45.85592" lon="3.55279">
        <ele>386</ele>
        <time>2021-02-14T10:30:51Z</time>
      </trkpt>
      <trkpt lat="45.85594" lon="3.55276">
        <ele>386</ele>
        <time>2021-02-14T10:30:53Z</time>
      </trkpt>
      <trkpt lat="45.85595" lon="3.55274">
        <ele>386</ele>
        <time>2021-02-14T10:30:55Z</time>
      </trkpt>
      <trkpt lat="45.85596" lon="3.55272">
        <ele>386</ele>
        <time>2021-02-14T10:30:57Z</time>
      </trkpt>
      <trkpt lat="45.85597" lon="3.5527">
        <ele>386</ele>
        <time>2021-02-14T10:31:00Z</time>
      </trkpt>
      <trkpt lat="45.85599" lon="3.55271">
        <ele>386</ele>
        <time>2021-02-14T10:31:03Z</time>
      </trkpt>
      <trkpt lat="45.85599" lon="3.55274">
        <ele>386</ele>
        <time>2021-02-14T10:31:05Z</time>
      </trkpt>
      <trkpt lat="45.85599" lon="3.55277">
        <ele>387</ele>
        <time>2021-02-14T10:31:07Z</time>
      </trkpt>
      <trkpt lat="45.85599" lon="3.55281">
        <ele>387</ele>
        <time>2021-02-14T10:31:09Z</time>
      </trkpt>
      <trkpt lat="45.85598" lon="3.55284">
        <ele>387</ele>
        <time>2021-02-14T10:31:11Z</time>
      </trkpt>
      <trkpt lat="45.85598" lon="3.55287">
        <ele>387</ele>
        <time>2021-02-14T10:31:13Z</time>
      </trkpt>
      <trkpt lat="45.85598" lon="3.55291">
        <ele>388</ele>
        <time>2021-02-14T10:31:15Z</time>
      </trkpt>
      <trkpt lat="45.85597" lon="3.55294">
        <ele>388</ele>
        <time>2021-02-14T10:31:17Z</time>
      </trkpt>
      <trkpt lat="45.85599" lon="3.55292">
        <ele>388</ele>
        <time>2021-02-14T10:31:21Z</time>
      </trkpt>
      <trkpt lat="45.85601" lon="3.55289">
        <ele>388</ele>
        <time>2021-02-14T10:31:23Z</time>
      </trkpt>
      <trkpt lat="45.85603" lon="3.55287">
        <ele>388</ele>
        <time>2021-02-14T10:31:25Z</time>
      </trkpt>
      <trkpt lat="45.85606" lon="3.55285">
        <ele>388</ele>
        <time>2021-02-14T10:31:27Z</time>
      </trkpt>
      <trkpt lat="45.85608" lon="3.55284">
        <ele>389</ele>
        <time>2021-02-14T10:31:29Z</time>
      </trkpt>
      <trkpt lat="45.85611" lon="3.55286">
        <ele>389</ele>
        <time>2021-02-14T10:31:32Z</time>
      </trkpt>
      <trkpt lat="45.85612" lon="3.55288">
        <ele>389</ele>
        <time>2021-02-14T10:31:34Z</time>
      </trkpt>
      <trkpt lat="45.85614" lon="3.55291">
        <ele>390</ele>
        <time>2021-02-14T10:31:36Z</time>
      </trkpt>
      <trkpt lat="45.85615" lon="3.55294">
        <ele>390</ele>
        <time>2021-02-14T10:31:38Z</time>
      </trkpt>
      <trkpt lat="45.85616" lon="3.55296">
        <ele>390</ele>
        <time>2021-02-14T10:31:40Z</time>
      </trkpt>
      <trkpt lat="45.85618" lon="3.55299">
        <ele>390</ele>
        <time>2021-02-14T10:31:42Z</time>
      </trkpt>
      <trkpt lat="45.8562" lon="3.55301">
        <ele>390</ele>
        <time>2021-02-14T10:31:44Z</time>
      </trkpt>
      <trkpt lat="45.85621" lon="3.55304">
        <ele>390</ele>
        <time>2021-02-14T10:31:46Z</time>
      </trkpt>
      <trkpt lat="45.85621" lon="3.55307">
        <ele>390</ele>
        <time>2021-02-14T10:31:48Z</time>
      </trkpt>
      <trkpt lat="45.85621" lon="3.55311">
        <ele>391</ele>
        <time>2021-02-14T10:31:54Z</time>
      </trkpt>
      <trkpt lat="45.8562" lon="3.55314">
        <ele>391</ele>
        <time>2021-02-14T10:31:56Z</time>
      </trkpt>
      <trkpt lat="45.85619" lon="3.55317">
        <ele>391</ele>
        <time>2021-02-14T10:31:58Z</time>
      </trkpt>
      <trkpt lat="45.85618" lon="3.5532">
        <ele>392</ele>
        <time>2021-02-14T10:32:00Z</time>
      </trkpt>
      <trkpt lat="45.85618" lon="3.55323">
        <ele>392</ele>
        <time>2021-02-14T10:32:02Z</time>
      </trkpt>
      <trkpt lat="45.85617" lon="3.55325">
        <ele>392</ele>
        <time>2021-02-14T10:32:04Z</time>
      </trkpt>
      <trkpt lat="45.85616" lon="3.55329">
        <ele>392</ele>
        <time>2021-02-14T10:32:06Z</time>
      </trkpt>
      <trkpt lat="45.85616" lon="3.55332">
        <ele>393</ele>
        <time>2021-02-14T10:32:08Z</time>
      </trkpt>
      <trkpt lat="45.85615" lon="3.55334">
        <ele>393</ele>
        <time>2021-02-14T10:32:10Z</time>
      </trkpt>
      <trkpt lat="45.85614" lon="3.55338">
        <ele>394</ele>
        <time>2021-02-14T10:32:12Z</time>
      </trkpt>
      <trkpt lat="45.85613" lon="3.5534">
        <ele>395</ele>
        <time>2021-02-14T10:32:14Z</time>
      </trkpt>
      <trkpt lat="45.85613" lon="3.55343">
        <ele>395</ele>
        <time>2021-02-14T10:32:17Z</time>
      </trkpt>
      <trkpt lat="45.85613" lon="3.55346">
        <ele>396</ele>
        <time>2021-02-14T10:32:20Z</time>
      </trkpt>
      <trkpt lat="45.85614" lon="3.55349">
        <ele>396</ele>
        <time>2021-02-14T10:32:24Z</time>
      </trkpt>
      <trkpt lat="45.85613" lon="3.55352">
        <ele>397</ele>
        <time>2021-02-14T10:32:29Z</time>
      </trkpt>
      <trkpt lat="45.85613" lon="3.55355">
        <ele>398</ele>
        <time>2021-02-14T10:32:32Z</time>
      </trkpt>
      <trkpt lat="45.85613" lon="3.55358">
        <ele>398</ele>
        <time>2021-02-14T10:32:36Z</time>
      </trkpt>
      <trkpt lat="45.85612" lon="3.55361">
        <ele>399</ele>
        <time>2021-02-14T10:32:41Z</time>
      </trkpt>
      <trkpt lat="45.85612" lon="3.55364">
        <ele>400</ele>
        <time>2021-02-14T10:32:44Z</time>
      </trkpt>
      <trkpt lat="45.85611" lon="3.55367">
        <ele>401</ele>
        <time>2021-02-14T10:32:48Z</time>
      </trkpt>
      <trkpt lat="45.85611" lon="3.5537">
        <ele>401</ele>
        <time>2021-02-14T10:32:52Z</time>
      </trkpt>
      <trkpt lat="45.8561" lon="3.55373">
        <ele>402</ele>
        <time>2021-02-14T10:32:55Z</time>
      </trkpt>
      <trkpt lat="45.85609" lon="3.55376">
        <ele>403</ele>
        <time>2021-02-14T10:32:58Z</time>
      </trkpt>
      <trkpt lat="45.85609" lon="3.5538">
        <ele>404</ele>
        <time>2021-02-14T10:33:01Z</time>
      </trkpt>
      <trkpt lat="45.85609" lon="3.55383">
        <ele>404</ele>
        <time>2021-02-14T10:33:04Z</time>
      </trkpt>
      <trkpt lat="45.8561" lon="3.55386">
        <ele>405</ele>
        <time>2021-02-14T10:33:08Z</time>
      </trkpt>
      <trkpt lat="45.85611" lon="3.55389">
        <ele>406</ele>
        <time>2021-02-14T10:33:12Z</time>
      </trkpt>
      <trkpt lat="45.85611" lon="3.55392">
        <ele>406</ele>
        <time>2021-02-14T10:33:14Z</time>
      </trkpt>
      <trkpt lat="45.85613" lon="3.55395">
        <ele>407</ele>
        <time>2021-02-14T10:33:17Z</time>
      </trkpt>
      <trkpt lat="45.85614" lon="3.55396">
        <ele>406</ele>
        <time>2021-02-14T10:33:32Z</time>
      </trkpt>
      <trkpt lat="45.85615" lon="3.554">
        <ele>407</ele>
        <time>2021-02-14T10:33:37Z</time>
      </trkpt>
      <trkpt lat="45.85615" lon="3.55403">
        <ele>408</ele>
        <time>2021-02-14T10:33:39Z</time>
      </trkpt>
      <trkpt lat="45.85615" lon="3.55405">
        <ele>409</ele>
        <time>2021-02-14T10:33:41Z</time>
      </trkpt>
      <trkpt lat="45.85616" lon="3.55408">
        <ele>409</ele>
        <time>2021-02-14T10:33:43Z</time>
      </trkpt>
      <trkpt lat="45.85617" lon="3.5541">
        <ele>410</ele>
        <time>2021-02-14T10:33:45Z</time>
      </trkpt>
      <trkpt lat="45.85617" lon="3.55413">
        <ele>410</ele>
        <time>2021-02-14T10:33:47Z</time>
      </trkpt>
      <trkpt lat="45.85618" lon="3.55416">
        <ele>411</ele>
        <time>2021-02-14T10:33:50Z</time>
      </trkpt>
      <trkpt lat="45.8562" lon="3.55419">
        <ele>411</ele>
        <time>2021-02-14T10:33:53Z</time>
      </trkpt>
      <trkpt lat="45.85621" lon="3.55422">
        <ele>412</ele>
        <time>2021-02-14T10:33:55Z</time>
      </trkpt>
      <trkpt lat="45.85621" lon="3.55425">
        <ele>413</ele>
        <time>2021-02-14T10:33:57Z</time>
      </trkpt>
      <trkpt lat="45.85622" lon="3.55427">
        <ele>414</ele>
        <time>2021-02-14T10:33:59Z</time>
      </trkpt>
      <trkpt lat="45.85623" lon="3.55429">
        <ele>414</ele>
        <time>2021-02-14T10:34:01Z</time>
      </trkpt>
      <trkpt lat="45.85624" lon="3.55433">
        <ele>415</ele>
        <time>2021-02-14T10:34:04Z</time>
      </trkpt>
      <trkpt lat="45.85625" lon="3.55436">
        <ele>417</ele>
        <time>2021-02-14T10:34:07Z</time>
      </trkpt>
      <trkpt lat="45.85626" lon="3.55439">
        <ele>418</ele>
        <time>2021-02-14T10:34:10Z</time>
      </trkpt>
      <trkpt lat="45.85627" lon="3.55442">
        <ele>419</ele>
        <time>2021-02-14T10:34:13Z</time>
      </trkpt>
      <trkpt lat="45.85629" lon="3.55445">
        <ele>419</ele>
        <time>2021-02-14T10:34:16Z</time>
      </trkpt>
      <trkpt lat="45.85631" lon="3.55445">
        <ele>419</ele>
        <time>2021-02-14T10:34:21Z</time>
      </trkpt>
      <trkpt lat="45.85633" lon="3.55447">
        <ele>420</ele>
        <time>2021-02-14T10:34:41Z</time>
      </trkpt>
      <trkpt lat="45.85633" lon="3.55451">
        <ele>421</ele>
        <time>2021-02-14T10:34:44Z</time>
      </trkpt>
      <trkpt lat="45.85635" lon="3.55453">
        <ele>422</ele>
        <time>2021-02-14T10:34:47Z</time>
      </trkpt>
      <trkpt lat="45.85636" lon="3.55456">
        <ele>423</ele>
        <time>2021-02-14T10:34:50Z</time>
      </trkpt>
      <trkpt lat="45.85637" lon="3.5546">
        <ele>424</ele>
        <time>2021-02-14T10:34:53Z</time>
      </trkpt>
      <trkpt lat="45.85637" lon="3.55463">
        <ele>426</ele>
        <time>2021-02-14T10:34:56Z</time>
      </trkpt>
      <trkpt lat="45.85637" lon="3.55466">
        <ele>427</ele>
        <time>2021-02-14T10:34:58Z</time>
      </trkpt>
      <trkpt lat="45.85637" lon="3.55469">
        <ele>428</ele>
        <time>2021-02-14T10:35:00Z</time>
      </trkpt>
      <trkpt lat="45.85637" lon="3.55471">
        <ele>429</ele>
        <time>2021-02-14T10:35:02Z</time>
      </trkpt>
      <trkpt lat="45.85637" lon="3.55474">
        <ele>430</ele>
        <time>2021-02-14T10:35:04Z</time>
      </trkpt>
      <trkpt lat="45.85638" lon="3.55477">
        <ele>430</ele>
        <time>2021-02-14T10:35:06Z</time>
      </trkpt>
      <trkpt lat="45.85638" lon="3.5548">
        <ele>431</ele>
        <time>2021-02-14T10:35:08Z</time>
      </trkpt>
      <trkpt lat="45.85638" lon="3.55483">
        <ele>431</ele>
        <time>2021-02-14T10:35:10Z</time>
      </trkpt>
      <trkpt lat="45.85638" lon="3.55485">
        <ele>432</ele>
        <time>2021-02-14T10:35:12Z</time>
      </trkpt>
      <trkpt lat="45.85638" lon="3.55489">
        <ele>432</ele>
        <time>2021-02-14T10:35:14Z</time>
      </trkpt>
      <trkpt lat="45.85638" lon="3.55491">
        <ele>433</ele>
        <time>2021-02-14T10:35:16Z</time>
      </trkpt>
      <trkpt lat="45.8564" lon="3.55495">
        <ele>433</ele>
        <time>2021-02-14T10:35:19Z</time>
      </trkpt>
      <trkpt lat="45.85641" lon="3.55498">
        <ele>434</ele>
        <time>2021-02-14T10:35:22Z</time>
      </trkpt>
      <trkpt lat="45.85641" lon="3.55502">
        <ele>434</ele>
        <time>2021-02-14T10:35:25Z</time>
      </trkpt>
      <trkpt lat="45.8564" lon="3.55505">
        <ele>435</ele>
        <time>2021-02-14T10:35:28Z</time>
      </trkpt>
      <trkpt lat="45.8564" lon="3.55508">
        <ele>436</ele>
        <time>2021-02-14T10:35:33Z</time>
      </trkpt>
      <trkpt lat="45.8564" lon="3.55511">
        <ele>436</ele>
        <time>2021-02-14T10:35:37Z</time>
      </trkpt>
      <trkpt lat="45.85639" lon="3.55514">
        <ele>437</ele>
        <time>2021-02-14T10:35:40Z</time>
      </trkpt>
      <trkpt lat="45.85638" lon="3.55517">
        <ele>437</ele>
        <time>2021-02-14T10:35:42Z</time>
      </trkpt>
      <trkpt lat="45.85637" lon="3.5552">
        <ele>438</ele>
        <time>2021-02-14T10:35:44Z</time>
      </trkpt>
      <trkpt lat="45.85636" lon="3.55522">
        <ele>438</ele>
        <time>2021-02-14T10:35:46Z</time>
      </trkpt>
      <trkpt lat="45.85634" lon="3.55525">
        <ele>439</ele>
        <time>2021-02-14T10:35:48Z</time>
      </trkpt>
      <trkpt lat="45.85633" lon="3.55527">
        <ele>439</ele>
        <time>2021-02-14T10:35:50Z</time>
      </trkpt>
      <trkpt lat="45.85632" lon="3.5553">
        <ele>440</ele>
        <time>2021-02-14T10:35:52Z</time>
      </trkpt>
      <trkpt lat="45.85631" lon="3.55533">
        <ele>441</ele>
        <time>2021-02-14T10:35:55Z</time>
      </trkpt>
      <trkpt lat="45.85629" lon="3.55536">
        <ele>442</ele>
        <time>2021-02-14T10:35:58Z</time>
      </trkpt>
      <trkpt lat="45.85628" lon="3.55539">
        <ele>442</ele>
        <time>2021-02-14T10:36:00Z</time>
      </trkpt>
      <trkpt lat="45.85627" lon="3.55542">
        <ele>443</ele>
        <time>2021-02-14T10:36:03Z</time>
      </trkpt>
      <trkpt lat="45.85626" lon="3.55545">
        <ele>444</ele>
        <time>2021-02-14T10:36:07Z</time>
      </trkpt>
      <trkpt lat="45.85625" lon="3.55548">
        <ele>445</ele>
        <time>2021-02-14T10:36:10Z</time>
      </trkpt>
      <trkpt lat="45.85624" lon="3.55551">
        <ele>446</ele>
        <time>2021-02-14T10:36:13Z</time>
      </trkpt>
      <trkpt lat="45.85623" lon="3.55554">
        <ele>447</ele>
        <time>2021-02-14T10:36:16Z</time>
      </trkpt>
      <trkpt lat="45.85622" lon="3.55556">
        <ele>447</ele>
        <time>2021-02-14T10:36:18Z</time>
      </trkpt>
      <trkpt lat="45.8562" lon="3.55559">
        <ele>448</ele>
        <time>2021-02-14T10:36:21Z</time>
      </trkpt>
      <trkpt lat="45.85619" lon="3.55561">
        <ele>449</ele>
        <time>2021-02-14T10:36:23Z</time>
      </trkpt>
      <trkpt lat="45.85617" lon="3.55563">
        <ele>450</ele>
        <time>2021-02-14T10:36:26Z</time>
      </trkpt>
      <trkpt lat="45.85615" lon="3.55564">
        <ele>450</ele>
        <time>2021-02-14T10:36:29Z</time>
      </trkpt>
      <trkpt lat="45.85613" lon="3.55564">
        <ele>451</ele>
        <time>2021-02-14T10:36:32Z</time>
      </trkpt>
      <trkpt lat="45.85611" lon="3.55563">
        <ele>451</ele>
        <time>2021-02-14T10:36:35Z</time>
      </trkpt>
      <trkpt lat="45.85609" lon="3.55562">
        <ele>451</ele>
        <time>2021-02-14T10:36:38Z</time>
      </trkpt>
      <trkpt lat="45.85607" lon="3.55562">
        <ele>451</ele>
        <time>2021-02-14T10:36:40Z</time>
      </trkpt>
      <trkpt lat="45.85605" lon="3.55563">
        <ele>451</ele>
        <time>2021-02-14T10:36:42Z</time>
      </trkpt>
      <trkpt lat="45.85602" lon="3.55563">
        <ele>451</ele>
        <time>2021-02-14T10:36:44Z</time>
      </trkpt>
      <trkpt lat="45.85599" lon="3.55564">
        <ele>451</ele>
        <time>2021-02-14T10:36:46Z</time>
      </trkpt>
      <trkpt lat="45.85597" lon="3.55565">
        <ele>451</ele>
        <time>2021-02-14T10:36:49Z</time>
      </trkpt>
      <trkpt lat="45.85596" lon="3.55567">
        <ele>452</ele>
        <time>2021-02-14T10:36:53Z</time>
      </trkpt>
      <trkpt lat="45.85597" lon="3.55568">
        <ele>452</ele>
        <time>2021-02-14T10:36:55Z</time>
      </trkpt>
      <trkpt lat="45.85597" lon="3.55571">
        <ele>452</ele>
        <time>2021-02-14T10:36:58Z</time>
      </trkpt>
      <trkpt lat="45.85597" lon="3.55575">
        <ele>453</ele>
        <time>2021-02-14T10:37:01Z</time>
      </trkpt>
      <trkpt lat="45.85597" lon="3.55578">
        <ele>454</ele>
        <time>2021-02-14T10:37:05Z</time>
      </trkpt>
      <trkpt lat="45.85597" lon="3.55581">
        <ele>454</ele>
        <time>2021-02-14T10:37:08Z</time>
      </trkpt>
      <trkpt lat="45.85597" lon="3.55585">
        <ele>455</ele>
        <time>2021-02-14T10:37:12Z</time>
      </trkpt>
      <trkpt lat="45.85598" lon="3.55588">
        <ele>455</ele>
        <time>2021-02-14T10:37:15Z</time>
      </trkpt>
      <trkpt lat="45.85599" lon="3.55592">
        <ele>456</ele>
        <time>2021-02-14T10:37:17Z</time>
      </trkpt>
      <trkpt lat="45.856" lon="3.55595">
        <ele>457</ele>
        <time>2021-02-14T10:37:19Z</time>
      </trkpt>
      <trkpt lat="45.85601" lon="3.55597">
        <ele>457</ele>
        <time>2021-02-14T10:37:21Z</time>
      </trkpt>
      <trkpt lat="45.85603" lon="3.55599">
        <ele>458</ele>
        <time>2021-02-14T10:37:24Z</time>
      </trkpt>
      <trkpt lat="45.85605" lon="3.556">
        <ele>458</ele>
        <time>2021-02-14T10:37:26Z</time>
      </trkpt>
      <trkpt lat="45.85607" lon="3.55602">
        <ele>458</ele>
        <time>2021-02-14T10:37:28Z</time>
      </trkpt>
      <trkpt lat="45.85609" lon="3.55604">
        <ele>459</ele>
        <time>2021-02-14T10:37:30Z</time>
      </trkpt>
      <trkpt lat="45.8561" lon="3.55608">
        <ele>460</ele>
        <time>2021-02-14T10:37:32Z</time>
      </trkpt>
      <trkpt lat="45.85612" lon="3.55611">
        <ele>460</ele>
        <time>2021-02-14T10:37:34Z</time>
      </trkpt>
      <trkpt lat="45.85614" lon="3.55614">
        <ele>461</ele>
        <time>2021-02-14T10:37:36Z</time>
      </trkpt>
      <trkpt lat="45.85615" lon="3.55617">
        <ele>461</ele>
        <time>2021-02-14T10:37:38Z</time>
      </trkpt>
      <trkpt lat="45.85617" lon="3.55619">
        <ele>461</ele>
        <time>2021-02-14T10:37:40Z</time>
      </trkpt>
      <trkpt lat="45.85618" lon="3.55621">
        <ele>462</ele>
        <time>2021-02-14T10:37:42Z</time>
      </trkpt>
      <trkpt lat="45.85619" lon="3.55625">
        <ele>462</ele>
        <time>2021-02-14T10:37:45Z</time>
      </trkpt>
      <trkpt lat="45.85619" lon="3.55628">
        <ele>463</ele>
        <time>2021-02-14T10:37:47Z</time>
      </trkpt>
      <trkpt lat="45.8562" lon="3.5563">
        <ele>463</ele>
        <time>2021-02-14T10:37:49Z</time>
      </trkpt>
      <trkpt lat="45.85621" lon="3.55633">
        <ele>464</ele>
        <time>2021-02-14T10:37:51Z</time>
      </trkpt>
      <trkpt lat="45.85622" lon="3.55635">
        <ele>464</ele>
        <time>2021-02-14T10:37:53Z</time>
      </trkpt>
      <trkpt lat="45.85622" lon="3.55638">
        <ele>465</ele>
        <time>2021-02-14T10:37:55Z</time>
      </trkpt>
      <trkpt lat="45.85624" lon="3.55641">
        <ele>465</ele>
        <time>2021-02-14T10:37:58Z</time>
      </trkpt>
      <trkpt lat="45.85626" lon="3.55642">
        <ele>465</ele>
        <time>2021-02-14T10:38:00Z</time>
      </trkpt>
      <trkpt lat="45.85628" lon="3.55645">
        <ele>465</ele>
        <time>2021-02-14T10:38:02Z</time>
      </trkpt>
      <trkpt lat="45.85629" lon="3.55647">
        <ele>465</ele>
        <time>2021-02-14T10:38:04Z</time>
      </trkpt>
      <trkpt lat="45.8563" lon="3.55649">
        <ele>465</ele>
        <time>2021-02-14T10:38:06Z</time>
      </trkpt>
      <trkpt lat="45.85632" lon="3.55652">
        <ele>465</ele>
        <time>2021-02-14T10:38:08Z</time>
      </trkpt>
      <trkpt lat="45.85633" lon="3.55654">
        <ele>465</ele>
        <time>2021-02-14T10:38:10Z</time>
      </trkpt>
      <trkpt lat="45.85634" lon="3.55657">
        <ele>465</ele>
        <time>2021-02-14T10:38:12Z</time>
      </trkpt>
      <trkpt lat="45.85636" lon="3.5566">
        <ele>466</ele>
        <time>2021-02-14T10:38:15Z</time>
      </trkpt>
      <trkpt lat="45.85637" lon="3.55662">
        <ele>466</ele>
        <time>2021-02-14T10:38:18Z</time>
      </trkpt>
      <trkpt lat="45.85638" lon="3.55665">
        <ele>466</ele>
        <time>2021-02-14T10:38:20Z</time>
      </trkpt>
      <trkpt lat="45.8564" lon="3.55668">
        <ele>466</ele>
        <time>2021-02-14T10:38:22Z</time>
      </trkpt>
      <trkpt lat="45.8564" lon="3.55671">
        <ele>467</ele>
        <time>2021-02-14T10:38:24Z</time>
      </trkpt>
      <trkpt lat="45.85642" lon="3.55674">
        <ele>467</ele>
        <time>2021-02-14T10:38:26Z</time>
      </trkpt>
      <trkpt lat="45.85642" lon="3.55678">
        <ele>467</ele>
        <time>2021-02-14T10:38:28Z</time>
      </trkpt>
      <trkpt lat="45.85643" lon="3.55681">
        <ele>468</ele>
        <time>2021-02-14T10:38:30Z</time>
      </trkpt>
      <trkpt lat="45.85642" lon="3.55684">
        <ele>468</ele>
        <time>2021-02-14T10:38:32Z</time>
      </trkpt>
      <trkpt lat="45.85643" lon="3.55689">
        <ele>469</ele>
        <time>2021-02-14T10:38:35Z</time>
      </trkpt>
      <trkpt lat="45.85642" lon="3.55693">
        <ele>470</ele>
        <time>2021-02-14T10:38:38Z</time>
      </trkpt>
      <trkpt lat="45.85642" lon="3.55696">
        <ele>471</ele>
        <time>2021-02-14T10:38:40Z</time>
      </trkpt>
      <trkpt lat="45.85645" lon="3.55706">
        <ele>472</ele>
        <time>2021-02-14T10:38:46Z</time>
      </trkpt>
      <trkpt lat="45.85648" lon="3.55711">
        <ele>471</ele>
        <time>2021-02-14T10:38:50Z</time>
      </trkpt>
      <trkpt lat="45.8565" lon="3.55713">
        <ele>470</ele>
        <time>2021-02-14T10:38:52Z</time>
      </trkpt>
      <trkpt lat="45.85658" lon="3.55721">
        <ele>467</ele>
        <time>2021-02-14T10:39:00Z</time>
      </trkpt>
      <trkpt lat="45.85662" lon="3.55728">
        <ele>466</ele>
        <time>2021-02-14T10:39:07Z</time>
      </trkpt>
      <trkpt lat="45.85663" lon="3.55731">
        <ele>467</ele>
        <time>2021-02-14T10:39:09Z</time>
      </trkpt>
      <trkpt lat="45.85664" lon="3.55734">
        <ele>467</ele>
        <time>2021-02-14T10:39:11Z</time>
      </trkpt>
      <trkpt lat="45.85666" lon="3.55736">
        <ele>467</ele>
        <time>2021-02-14T10:39:13Z</time>
      </trkpt>
      <trkpt lat="45.85668" lon="3.55738">
        <ele>467</ele>
        <time>2021-02-14T10:39:15Z</time>
      </trkpt>
      <trkpt lat="45.85669" lon="3.5574">
        <ele>466</ele>
        <time>2021-02-14T10:39:17Z</time>
      </trkpt>
      <trkpt lat="45.85672" lon="3.55742">
        <ele>465</ele>
        <time>2021-02-14T10:39:19Z</time>
      </trkpt>
      <trkpt lat="45.85674" lon="3.55744">
        <ele>464</ele>
        <time>2021-02-14T10:39:21Z</time>
      </trkpt>
      <trkpt lat="45.85675" lon="3.55746">
        <ele>463</ele>
        <time>2021-02-14T10:39:24Z</time>
      </trkpt>
      <trkpt lat="45.85677" lon="3.55748">
        <ele>463</ele>
        <time>2021-02-14T10:39:27Z</time>
      </trkpt>
      <trkpt lat="45.85678" lon="3.55751">
        <ele>463</ele>
        <time>2021-02-14T10:39:32Z</time>
      </trkpt>
      <trkpt lat="45.8568" lon="3.55758">
        <ele>463</ele>
        <time>2021-02-14T10:39:36Z</time>
      </trkpt>
      <trkpt lat="45.8568" lon="3.55762">
        <ele>464</ele>
        <time>2021-02-14T10:39:38Z</time>
      </trkpt>
      <trkpt lat="45.85681" lon="3.55766">
        <ele>464</ele>
        <time>2021-02-14T10:39:40Z</time>
      </trkpt>
      <trkpt lat="45.85682" lon="3.5578">
        <ele>467</ele>
        <time>2021-02-14T10:39:50Z</time>
      </trkpt>
      <trkpt lat="45.85683" lon="3.55794">
        <ele>469</ele>
        <time>2021-02-14T10:39:58Z</time>
      </trkpt>
      <trkpt lat="45.85685" lon="3.55808">
        <ele>471</ele>
        <time>2021-02-14T10:40:06Z</time>
      </trkpt>
      <trkpt lat="45.85688" lon="3.55821">
        <ele>471</ele>
        <time>2021-02-14T10:40:14Z</time>
      </trkpt>
      <trkpt lat="45.85692" lon="3.55834">
        <ele>470</ele>
        <time>2021-02-14T10:40:21Z</time>
      </trkpt>
      <trkpt lat="45.85699" lon="3.55843">
        <ele>467</ele>
        <time>2021-02-14T10:40:29Z</time>
      </trkpt>
      <trkpt lat="45.85702" lon="3.55852">
        <ele>468</ele>
        <time>2021-02-14T10:40:34Z</time>
      </trkpt>
      <trkpt lat="45.85704" lon="3.55855">
        <ele>467</ele>
        <time>2021-02-14T10:40:40Z</time>
      </trkpt>
      <trkpt lat="45.85702" lon="3.55856">
        <ele>469</ele>
        <time>2021-02-14T10:40:43Z</time>
      </trkpt>
      <trkpt lat="45.85702" lon="3.55859">
        <ele>470</ele>
        <time>2021-02-14T10:40:46Z</time>
      </trkpt>
      <trkpt lat="45.85701" lon="3.55867">
        <ele>472</ele>
        <time>2021-02-14T10:40:59Z</time>
      </trkpt>
      <trkpt lat="45.85705" lon="3.55871">
        <ele>471</ele>
        <time>2021-02-14T10:41:06Z</time>
      </trkpt>
      <trkpt lat="45.85707" lon="3.55872">
        <ele>470</ele>
        <time>2021-02-14T10:41:09Z</time>
      </trkpt>
      <trkpt lat="45.85709" lon="3.55871">
        <ele>469</ele>
        <time>2021-02-14T10:41:12Z</time>
      </trkpt>
      <trkpt lat="45.8571" lon="3.55868">
        <ele>467</ele>
        <time>2021-02-14T10:41:15Z</time>
      </trkpt>
      <trkpt lat="45.85712" lon="3.55867">
        <ele>466</ele>
        <time>2021-02-14T10:41:17Z</time>
      </trkpt>
      <trkpt lat="45.85715" lon="3.55868">
        <ele>465</ele>
        <time>2021-02-14T10:41:19Z</time>
      </trkpt>
      <trkpt lat="45.85724" lon="3.55872">
        <ele>462</ele>
        <time>2021-02-14T10:41:27Z</time>
      </trkpt>
      <trkpt lat="45.85726" lon="3.55873">
        <ele>462</ele>
        <time>2021-02-14T10:41:29Z</time>
      </trkpt>
      <trkpt lat="45.85732" lon="3.55879">
        <ele>462</ele>
        <time>2021-02-14T10:41:34Z</time>
      </trkpt>
      <trkpt lat="45.85734" lon="3.55882">
        <ele>462</ele>
        <time>2021-02-14T10:41:36Z</time>
      </trkpt>
      <trkpt lat="45.85743" lon="3.5589">
        <ele>463</ele>
        <time>2021-02-14T10:41:44Z</time>
      </trkpt>
      <trkpt lat="45.85749" lon="3.559">
        <ele>465</ele>
        <time>2021-02-14T10:41:51Z</time>
      </trkpt>
      <trkpt lat="45.85752" lon="3.55904">
        <ele>466</ele>
        <time>2021-02-14T10:41:54Z</time>
      </trkpt>
      <trkpt lat="45.85753" lon="3.55911">
        <ele>469</ele>
        <time>2021-02-14T10:41:58Z</time>
      </trkpt>
      <trkpt lat="45.85755" lon="3.55913">
        <ele>469</ele>
        <time>2021-02-14T10:42:01Z</time>
      </trkpt>
      <trkpt lat="45.85757" lon="3.55912">
        <ele>469</ele>
        <time>2021-02-14T10:42:04Z</time>
      </trkpt>
      <trkpt lat="45.85759" lon="3.55911">
        <ele>468</ele>
        <time>2021-02-14T10:42:07Z</time>
      </trkpt>
      <trkpt lat="45.8576" lon="3.55908">
        <ele>467</ele>
        <time>2021-02-14T10:42:10Z</time>
      </trkpt>
      <trkpt lat="45.85764" lon="3.55896">
        <ele>463</ele>
        <time>2021-02-14T10:42:25Z</time>
      </trkpt>
      <trkpt lat="45.85764" lon="3.55883">
        <ele>459</ele>
        <time>2021-02-14T10:42:39Z</time>
      </trkpt>
      <trkpt lat="45.85765" lon="3.5588">
        <ele>458</ele>
        <time>2021-02-14T10:42:41Z</time>
      </trkpt>
      <trkpt lat="45.85767" lon="3.55878">
        <ele>457</ele>
        <time>2021-02-14T10:42:43Z</time>
      </trkpt>
      <trkpt lat="45.85769" lon="3.55876">
        <ele>456</ele>
        <time>2021-02-14T10:42:45Z</time>
      </trkpt>
      <trkpt lat="45.8577" lon="3.55873">
        <ele>455</ele>
        <time>2021-02-14T10:42:47Z</time>
      </trkpt>
      <trkpt lat="45.85769" lon="3.55869">
        <ele>454</ele>
        <time>2021-02-14T10:42:49Z</time>
      </trkpt>
      <trkpt lat="45.85769" lon="3.55866">
        <ele>453</ele>
        <time>2021-02-14T10:42:51Z</time>
      </trkpt>
      <trkpt lat="45.85769" lon="3.55863">
        <ele>451</ele>
        <time>2021-02-14T10:42:53Z</time>
      </trkpt>
      <trkpt lat="45.85769" lon="3.5586">
        <ele>450</ele>
        <time>2021-02-14T10:42:55Z</time>
      </trkpt>
      <trkpt lat="45.85769" lon="3.55858">
        <ele>450</ele>
        <time>2021-02-14T10:42:57Z</time>
      </trkpt>
      <trkpt lat="45.85769" lon="3.55855">
        <ele>449</ele>
        <time>2021-02-14T10:43:00Z</time>
      </trkpt>
      <trkpt lat="45.8577" lon="3.55853">
        <ele>448</ele>
        <time>2021-02-14T10:43:02Z</time>
      </trkpt>
      <trkpt lat="45.85772" lon="3.55851">
        <ele>447</ele>
        <time>2021-02-14T10:43:04Z</time>
      </trkpt>
      <trkpt lat="45.85775" lon="3.5585">
        <ele>447</ele>
        <time>2021-02-14T10:43:06Z</time>
      </trkpt>
      <trkpt lat="45.85776" lon="3.55847">
        <ele>447</ele>
        <time>2021-02-14T10:43:10Z</time>
      </trkpt>
      <trkpt lat="45.85778" lon="3.55845">
        <ele>446</ele>
        <time>2021-02-14T10:43:13Z</time>
      </trkpt>
      <trkpt lat="45.85781" lon="3.55843">
        <ele>445</ele>
        <time>2021-02-14T10:43:15Z</time>
      </trkpt>
      <trkpt lat="45.85784" lon="3.55843">
        <ele>445</ele>
        <time>2021-02-14T10:43:17Z</time>
      </trkpt>
      <trkpt lat="45.85786" lon="3.55844">
        <ele>445</ele>
        <time>2021-02-14T10:43:19Z</time>
      </trkpt>
      <trkpt lat="45.85789" lon="3.55847">
        <ele>446</ele>
        <time>2021-02-14T10:43:21Z</time>
      </trkpt>
      <trkpt lat="45.85791" lon="3.5585">
        <ele>447</ele>
        <time>2021-02-14T10:43:22Z</time>
      </trkpt>
      <trkpt lat="45.85792" lon="3.55851">
        <ele>447</ele>
        <time>2021-02-14T10:43:23Z</time>
      </trkpt>
      <trkpt lat="45.85795" lon="3.55853">
        <ele>448</ele>
        <time>2021-02-14T10:43:25Z</time>
      </trkpt>
      <trkpt lat="45.85798" lon="3.55855">
        <ele>449</ele>
        <time>2021-02-14T10:43:27Z</time>
      </trkpt>
      <trkpt lat="45.85801" lon="3.55857">
        <ele>449</ele>
        <time>2021-02-14T10:43:29Z</time>
      </trkpt>
      <trkpt lat="45.85804" lon="3.55858">
        <ele>450</ele>
        <time>2021-02-14T10:43:31Z</time>
      </trkpt>
      <trkpt lat="45.85806" lon="3.55861">
        <ele>450</ele>
        <time>2021-02-14T10:43:33Z</time>
      </trkpt>
      <trkpt lat="45.85807" lon="3.55864">
        <ele>451</ele>
        <time>2021-02-14T10:43:34Z</time>
      </trkpt>
      <trkpt lat="45.85809" lon="3.55866">
        <ele>452</ele>
        <time>2021-02-14T10:43:36Z</time>
      </trkpt>
      <trkpt lat="45.85812" lon="3.55867">
        <ele>452</ele>
        <time>2021-02-14T10:43:38Z</time>
      </trkpt>
      <trkpt lat="45.85815" lon="3.55867">
        <ele>451</ele>
        <time>2021-02-14T10:43:40Z</time>
      </trkpt>
      <trkpt lat="45.85818" lon="3.55867">
        <ele>450</ele>
        <time>2021-02-14T10:43:42Z</time>
      </trkpt>
      <trkpt lat="45.8582" lon="3.55867">
        <ele>450</ele>
        <time>2021-02-14T10:43:44Z</time>
      </trkpt>
      <trkpt lat="45.85823" lon="3.55867">
        <ele>449</ele>
        <time>2021-02-14T10:43:46Z</time>
      </trkpt>
      <trkpt lat="45.85826" lon="3.55868">
        <ele>449</ele>
        <time>2021-02-14T10:43:48Z</time>
      </trkpt>
      <trkpt lat="45.85828" lon="3.55869">
        <ele>448</ele>
        <time>2021-02-14T10:43:50Z</time>
      </trkpt>
      <trkpt lat="45.85831" lon="3.55871">
        <ele>449</ele>
        <time>2021-02-14T10:43:52Z</time>
      </trkpt>
      <trkpt lat="45.85834" lon="3.55871">
        <ele>448</ele>
        <time>2021-02-14T10:43:58Z</time>
      </trkpt>
      <trkpt lat="45.85836" lon="3.55872">
        <ele>448</ele>
        <time>2021-02-14T10:44:00Z</time>
      </trkpt>
      <trkpt lat="45.85839" lon="3.55874">
        <ele>448</ele>
        <time>2021-02-14T10:44:02Z</time>
      </trkpt>
      <trkpt lat="45.85841" lon="3.55877">
        <ele>449</ele>
        <time>2021-02-14T10:44:04Z</time>
      </trkpt>
      <trkpt lat="45.85843" lon="3.55878">
        <ele>449</ele>
        <time>2021-02-14T10:44:06Z</time>
      </trkpt>
      <trkpt lat="45.85846" lon="3.55879">
        <ele>448</ele>
        <time>2021-02-14T10:44:08Z</time>
      </trkpt>
      <trkpt lat="45.85848" lon="3.5588">
        <ele>448</ele>
        <time>2021-02-14T10:44:10Z</time>
      </trkpt>
      <trkpt lat="45.8585" lon="3.55882">
        <ele>448</ele>
        <time>2021-02-14T10:44:12Z</time>
      </trkpt>
      <trkpt lat="45.85852" lon="3.55884">
        <ele>448</ele>
        <time>2021-02-14T10:44:14Z</time>
      </trkpt>
      <trkpt lat="45.85854" lon="3.55885">
        <ele>448</ele>
        <time>2021-02-14T10:44:16Z</time>
      </trkpt>
      <trkpt lat="45.85855" lon="3.55887">
        <ele>448</ele>
        <time>2021-02-14T10:44:18Z</time>
      </trkpt>
      <trkpt lat="45.85857" lon="3.55888">
        <ele>448</ele>
        <time>2021-02-14T10:44:20Z</time>
      </trkpt>
      <trkpt lat="45.85859" lon="3.5589">
        <ele>448</ele>
        <time>2021-02-14T10:44:22Z</time>
      </trkpt>
      <trkpt lat="45.85861" lon="3.55892">
        <ele>448</ele>
        <time>2021-02-14T10:44:24Z</time>
      </trkpt>
      <trkpt lat="45.85862" lon="3.55893">
        <ele>449</ele>
        <time>2021-02-14T10:44:26Z</time>
      </trkpt>
      <trkpt lat="45.85865" lon="3.55894">
        <ele>449</ele>
        <time>2021-02-14T10:44:29Z</time>
      </trkpt>
      <trkpt lat="45.85867" lon="3.55895">
        <ele>449</ele>
        <time>2021-02-14T10:44:31Z</time>
      </trkpt>
      <trkpt lat="45.85869" lon="3.55894">
        <ele>448</ele>
        <time>2021-02-14T10:44:33Z</time>
      </trkpt>
      <trkpt lat="45.85871" lon="3.55896">
        <ele>449</ele>
        <time>2021-02-14T10:44:35Z</time>
      </trkpt>
      <trkpt lat="45.85874" lon="3.55896">
        <ele>448</ele>
        <time>2021-02-14T10:44:37Z</time>
      </trkpt>
      <trkpt lat="45.85876" lon="3.55896">
        <ele>448</ele>
        <time>2021-02-14T10:44:39Z</time>
      </trkpt>
      <trkpt lat="45.85879" lon="3.55896">
        <ele>448</ele>
        <time>2021-02-14T10:44:41Z</time>
      </trkpt>
      <trkpt lat="45.85881" lon="3.55896">
        <ele>447</ele>
        <time>2021-02-14T10:44:43Z</time>
      </trkpt>
      <trkpt lat="45.85884" lon="3.55897">
        <ele>447</ele>
        <time>2021-02-14T10:44:45Z</time>
      </trkpt>
      <trkpt lat="45.85886" lon="3.559">
        <ele>448</ele>
        <time>2021-02-14T10:44:47Z</time>
      </trkpt>
      <trkpt lat="45.85888" lon="3.55903">
        <ele>449</ele>
        <time>2021-02-14T10:44:49Z</time>
      </trkpt>
      <trkpt lat="45.8589" lon="3.55906">
        <ele>450</ele>
        <time>2021-02-14T10:44:51Z</time>
      </trkpt>
      <trkpt lat="45.85892" lon="3.55908">
        <ele>450</ele>
        <time>2021-02-14T10:44:53Z</time>
      </trkpt>
      <trkpt lat="45.85894" lon="3.55908">
        <ele>450</ele>
        <time>2021-02-14T10:44:56Z</time>
      </trkpt>
      <trkpt lat="45.85896" lon="3.55908">
        <ele>450</ele>
        <time>2021-02-14T10:44:59Z</time>
      </trkpt>
      <trkpt lat="45.85898" lon="3.55908">
        <ele>450</ele>
        <time>2021-02-14T10:45:02Z</time>
      </trkpt>
      <trkpt lat="45.85899" lon="3.55911">
        <ele>451</ele>
        <time>2021-02-14T10:45:04Z</time>
      </trkpt>
      <trkpt lat="45.85901" lon="3.55914">
        <ele>451</ele>
        <time>2021-02-14T10:45:06Z</time>
      </trkpt>
      <trkpt lat="45.85902" lon="3.55916">
        <ele>452</ele>
        <time>2021-02-14T10:45:08Z</time>
      </trkpt>
      <trkpt lat="45.85904" lon="3.55919">
        <ele>453</ele>
        <time>2021-02-14T10:45:10Z</time>
      </trkpt>
      <trkpt lat="45.85905" lon="3.55922">
        <ele>454</ele>
        <time>2021-02-14T10:45:12Z</time>
      </trkpt>
      <trkpt lat="45.85907" lon="3.55924">
        <ele>454</ele>
        <time>2021-02-14T10:45:14Z</time>
      </trkpt>
      <trkpt lat="45.85909" lon="3.55928">
        <ele>456</ele>
        <time>2021-02-14T10:45:20Z</time>
      </trkpt>
      <trkpt lat="45.85912" lon="3.55932">
        <ele>457</ele>
        <time>2021-02-14T10:45:22Z</time>
      </trkpt>
      <trkpt lat="45.85913" lon="3.55934">
        <ele>458</ele>
        <time>2021-02-14T10:45:24Z</time>
      </trkpt>
      <trkpt lat="45.85914" lon="3.55933">
        <ele>457</ele>
        <time>2021-02-14T10:45:30Z</time>
      </trkpt>
      <trkpt lat="45.85917" lon="3.5593">
        <ele>456</ele>
        <time>2021-02-14T10:45:33Z</time>
      </trkpt>
      <trkpt lat="45.85918" lon="3.55928">
        <ele>455</ele>
        <time>2021-02-14T10:45:36Z</time>
      </trkpt>
      <trkpt lat="45.85919" lon="3.55925">
        <ele>455</ele>
        <time>2021-02-14T10:45:39Z</time>
      </trkpt>
      <trkpt lat="45.8592" lon="3.55923">
        <ele>454</ele>
        <time>2021-02-14T10:45:41Z</time>
      </trkpt>
      <trkpt lat="45.85922" lon="3.5592">
        <ele>453</ele>
        <time>2021-02-14T10:45:43Z</time>
      </trkpt>
      <trkpt lat="45.85923" lon="3.55918">
        <ele>453</ele>
        <time>2021-02-14T10:45:46Z</time>
      </trkpt>
      <trkpt lat="45.85924" lon="3.55915">
        <ele>452</ele>
        <time>2021-02-14T10:45:49Z</time>
      </trkpt>
      <trkpt lat="45.85926" lon="3.55913">
        <ele>452</ele>
        <time>2021-02-14T10:45:52Z</time>
      </trkpt>
      <trkpt lat="45.85928" lon="3.55911">
        <ele>452</ele>
        <time>2021-02-14T10:45:54Z</time>
      </trkpt>
      <trkpt lat="45.8593" lon="3.5591">
        <ele>452</ele>
        <time>2021-02-14T10:45:57Z</time>
      </trkpt>
      <trkpt lat="45.85931" lon="3.55908">
        <ele>452</ele>
        <time>2021-02-14T10:46:02Z</time>
      </trkpt>
      <trkpt lat="45.85933" lon="3.55906">
        <ele>452</ele>
        <time>2021-02-14T10:46:04Z</time>
      </trkpt>
      <trkpt lat="45.85935" lon="3.55905">
        <ele>452</ele>
        <time>2021-02-14T10:46:06Z</time>
      </trkpt>
      <trkpt lat="45.85937" lon="3.55903">
        <ele>451</ele>
        <time>2021-02-14T10:46:09Z</time>
      </trkpt>
      <trkpt lat="45.85938" lon="3.559">
        <ele>451</ele>
        <time>2021-02-14T10:46:11Z</time>
      </trkpt>
      <trkpt lat="45.8594" lon="3.55899">
        <ele>450</ele>
        <time>2021-02-14T10:46:14Z</time>
      </trkpt>
      <trkpt lat="45.85941" lon="3.55901">
        <ele>452</ele>
        <time>2021-02-14T10:46:17Z</time>
      </trkpt>
      <trkpt lat="45.85944" lon="3.55902">
        <ele>453</ele>
        <time>2021-02-14T10:46:19Z</time>
      </trkpt>
      <trkpt lat="45.85946" lon="3.559">
        <ele>452</ele>
        <time>2021-02-14T10:46:23Z</time>
      </trkpt>
      <trkpt lat="45.85948" lon="3.55899">
        <ele>453</ele>
        <time>2021-02-14T10:46:26Z</time>
      </trkpt>
      <trkpt lat="45.8595" lon="3.55899">
        <ele>453</ele>
        <time>2021-02-14T10:46:46Z</time>
      </trkpt>
      <trkpt lat="45.85952" lon="3.55899">
        <ele>454</ele>
        <time>2021-02-14T10:46:49Z</time>
      </trkpt>
      <trkpt lat="45.85954" lon="3.55898">
        <ele>454</ele>
        <time>2021-02-14T10:46:53Z</time>
      </trkpt>
      <trkpt lat="45.85957" lon="3.55897">
        <ele>455</ele>
        <time>2021-02-14T10:46:56Z</time>
      </trkpt>
      <trkpt lat="45.85959" lon="3.55897">
        <ele>455</ele>
        <time>2021-02-14T10:46:58Z</time>
      </trkpt>
      <trkpt lat="45.85961" lon="3.55896">
        <ele>456</ele>
        <time>2021-02-14T10:47:00Z</time>
      </trkpt>
      <trkpt lat="45.85963" lon="3.55895">
        <ele>456</ele>
        <time>2021-02-14T10:47:04Z</time>
      </trkpt>
      <trkpt lat="45.85966" lon="3.55895">
        <ele>457</ele>
        <time>2021-02-14T10:47:07Z</time>
      </trkpt>
      <trkpt lat="45.85968" lon="3.55895">
        <ele>458</ele>
        <time>2021-02-14T10:47:09Z</time>
      </trkpt>
      <trkpt lat="45.8597" lon="3.55896">
        <ele>459</ele>
        <time>2021-02-14T10:47:11Z</time>
      </trkpt>
      <trkpt lat="45.85972" lon="3.55897">
        <ele>460</ele>
        <time>2021-02-14T10:47:13Z</time>
      </trkpt>
      <trkpt lat="45.85974" lon="3.55898">
        <ele>461</ele>
        <time>2021-02-14T10:47:16Z</time>
      </trkpt>
      <trkpt lat="45.85976" lon="3.559">
        <ele>461</ele>
        <time>2021-02-14T10:47:18Z</time>
      </trkpt>
      <trkpt lat="45.85977" lon="3.55902">
        <ele>462</ele>
        <time>2021-02-14T10:47:22Z</time>
      </trkpt>
      <trkpt lat="45.85979" lon="3.55903">
        <ele>462</ele>
        <time>2021-02-14T10:47:30Z</time>
      </trkpt>
      <trkpt lat="45.85981" lon="3.55905">
        <ele>463</ele>
        <time>2021-02-14T10:47:33Z</time>
      </trkpt>
      <trkpt lat="45.85984" lon="3.55906">
        <ele>464</ele>
        <time>2021-02-14T10:47:37Z</time>
      </trkpt>
      <trkpt lat="45.85986" lon="3.55907">
        <ele>464</ele>
        <time>2021-02-14T10:47:42Z</time>
      </trkpt>
      <trkpt lat="45.85989" lon="3.55908">
        <ele>464</ele>
        <time>2021-02-14T10:47:44Z</time>
      </trkpt>
      <trkpt lat="45.85991" lon="3.5591">
        <ele>465</ele>
        <time>2021-02-14T10:47:46Z</time>
      </trkpt>
      <trkpt lat="45.85992" lon="3.55913">
        <ele>466</ele>
        <time>2021-02-14T10:47:50Z</time>
      </trkpt>
      <trkpt lat="45.85993" lon="3.5591">
        <ele>465</ele>
        <time>2021-02-14T10:47:54Z</time>
      </trkpt>
      <trkpt lat="45.85995" lon="3.55909">
        <ele>465</ele>
        <time>2021-02-14T10:47:57Z</time>
      </trkpt>
      <trkpt lat="45.85997" lon="3.5591">
        <ele>466</ele>
        <time>2021-02-14T10:48:05Z</time>
      </trkpt>
      <trkpt lat="45.85998" lon="3.55914">
        <ele>466</ele>
        <time>2021-02-14T10:48:07Z</time>
      </trkpt>
      <trkpt lat="45.85998" lon="3.55917">
        <ele>466</ele>
        <time>2021-02-14T10:48:09Z</time>
      </trkpt>
      <trkpt lat="45.85999" lon="3.5592">
        <ele>467</ele>
        <time>2021-02-14T10:48:11Z</time>
      </trkpt>
      <trkpt lat="45.85999" lon="3.55923">
        <ele>467</ele>
        <time>2021-02-14T10:48:13Z</time>
      </trkpt>
      <trkpt lat="45.86001" lon="3.55926">
        <ele>468</ele>
        <time>2021-02-14T10:48:16Z</time>
      </trkpt>
      <trkpt lat="45.86002" lon="3.55928">
        <ele>468</ele>
        <time>2021-02-14T10:48:18Z</time>
      </trkpt>
      <trkpt lat="45.86003" lon="3.55931">
        <ele>468</ele>
        <time>2021-02-14T10:48:20Z</time>
      </trkpt>
      <trkpt lat="45.86004" lon="3.55933">
        <ele>468</ele>
        <time>2021-02-14T10:48:23Z</time>
      </trkpt>
      <trkpt lat="45.86006" lon="3.55934">
        <ele>468</ele>
        <time>2021-02-14T10:48:27Z</time>
      </trkpt>
      <trkpt lat="45.86008" lon="3.55934">
        <ele>467</ele>
        <time>2021-02-14T10:48:28Z</time>
      </trkpt>
      <trkpt lat="45.8601" lon="3.55936">
        <ele>467</ele>
        <time>2021-02-14T10:48:31Z</time>
      </trkpt>
      <trkpt lat="45.86011" lon="3.55939">
        <ele>467</ele>
        <time>2021-02-14T10:48:33Z</time>
      </trkpt>
      <trkpt lat="45.86011" lon="3.55942">
        <ele>467</ele>
        <time>2021-02-14T10:48:35Z</time>
      </trkpt>
      <trkpt lat="45.86012" lon="3.55945">
        <ele>468</ele>
        <time>2021-02-14T10:48:37Z</time>
      </trkpt>
      <trkpt lat="45.86013" lon="3.55949">
        <ele>468</ele>
        <time>2021-02-14T10:48:39Z</time>
      </trkpt>
      <trkpt lat="45.86014" lon="3.55952">
        <ele>468</ele>
        <time>2021-02-14T10:48:41Z</time>
      </trkpt>
      <trkpt lat="45.86014" lon="3.55956">
        <ele>468</ele>
        <time>2021-02-14T10:48:43Z</time>
      </trkpt>
      <trkpt lat="45.86015" lon="3.5596">
        <ele>469</ele>
        <time>2021-02-14T10:48:45Z</time>
      </trkpt>
      <trkpt lat="45.86015" lon="3.55963">
        <ele>469</ele>
        <time>2021-02-14T10:48:47Z</time>
      </trkpt>
      <trkpt lat="45.86016" lon="3.55967">
        <ele>469</ele>
        <time>2021-02-14T10:48:49Z</time>
      </trkpt>
      <trkpt lat="45.86017" lon="3.5597">
        <ele>469</ele>
        <time>2021-02-14T10:48:51Z</time>
      </trkpt>
      <trkpt lat="45.86018" lon="3.55973">
        <ele>469</ele>
        <time>2021-02-14T10:48:53Z</time>
      </trkpt>
      <trkpt lat="45.86018" lon="3.55976">
        <ele>469</ele>
        <time>2021-02-14T10:48:55Z</time>
      </trkpt>
      <trkpt lat="45.86019" lon="3.5598">
        <ele>470</ele>
        <time>2021-02-14T10:48:57Z</time>
      </trkpt>
      <trkpt lat="45.8602" lon="3.55983">
        <ele>470</ele>
        <time>2021-02-14T10:48:59Z</time>
      </trkpt>
      <trkpt lat="45.86021" lon="3.55986">
        <ele>471</ele>
        <time>2021-02-14T10:49:01Z</time>
      </trkpt>
      <trkpt lat="45.86023" lon="3.55989">
        <ele>471</ele>
        <time>2021-02-14T10:49:03Z</time>
      </trkpt>
      <trkpt lat="45.86024" lon="3.55992">
        <ele>471</ele>
        <time>2021-02-14T10:49:05Z</time>
      </trkpt>
      <trkpt lat="45.86025" lon="3.55995">
        <ele>471</ele>
        <time>2021-02-14T10:49:07Z</time>
      </trkpt>
      <trkpt lat="45.86026" lon="3.55998">
        <ele>472</ele>
        <time>2021-02-14T10:49:09Z</time>
      </trkpt>
      <trkpt lat="45.86029" lon="3.55999">
        <ele>471</ele>
        <time>2021-02-14T10:49:12Z</time>
      </trkpt>
      <trkpt lat="45.8603" lon="3.56002">
        <ele>471</ele>
        <time>2021-02-14T10:49:14Z</time>
      </trkpt>
      <trkpt lat="45.86032" lon="3.56005">
        <ele>471</ele>
        <time>2021-02-14T10:49:16Z</time>
      </trkpt>
      <trkpt lat="45.86035" lon="3.56009">
        <ele>471</ele>
        <time>2021-02-14T10:49:19Z</time>
      </trkpt>
      <trkpt lat="45.86035" lon="3.56012">
        <ele>471</ele>
        <time>2021-02-14T10:49:21Z</time>
      </trkpt>
      <trkpt lat="45.86039" lon="3.56026">
        <ele>474</ele>
        <time>2021-02-14T10:49:29Z</time>
      </trkpt>
      <trkpt lat="45.86037" lon="3.5604">
        <ele>480</ele>
        <time>2021-02-14T10:49:37Z</time>
      </trkpt>
      <trkpt lat="45.86037" lon="3.56053">
        <ele>484</ele>
        <time>2021-02-14T10:49:45Z</time>
      </trkpt>
      <trkpt lat="45.86037" lon="3.56066">
        <ele>486</ele>
        <time>2021-02-14T10:49:54Z</time>
      </trkpt>
      <trkpt lat="45.8604" lon="3.56079">
        <ele>486</ele>
        <time>2021-02-14T10:50:03Z</time>
      </trkpt>
      <trkpt lat="45.86046" lon="3.56089">
        <ele>483</ele>
        <time>2021-02-14T10:50:14Z</time>
      </trkpt>
      <trkpt lat="45.86048" lon="3.5609">
        <ele>482</ele>
        <time>2021-02-14T10:50:16Z</time>
      </trkpt>
      <trkpt lat="45.8605" lon="3.56092">
        <ele>480</ele>
        <time>2021-02-14T10:50:18Z</time>
      </trkpt>
      <trkpt lat="45.86052" lon="3.56097">
        <ele>479</ele>
        <time>2021-02-14T10:50:21Z</time>
      </trkpt>
      <trkpt lat="45.86056" lon="3.56103">
        <ele>477</ele>
        <time>2021-02-14T10:50:25Z</time>
      </trkpt>
      <trkpt lat="45.86059" lon="3.56112">
        <ele>474</ele>
        <time>2021-02-14T10:50:31Z</time>
      </trkpt>
      <trkpt lat="45.8606" lon="3.56115">
        <ele>473</ele>
        <time>2021-02-14T10:50:33Z</time>
      </trkpt>
      <trkpt lat="45.86062" lon="3.56118">
        <ele>473</ele>
        <time>2021-02-14T10:50:35Z</time>
      </trkpt>
      <trkpt lat="45.86063" lon="3.56122">
        <ele>472</ele>
        <time>2021-02-14T10:50:37Z</time>
      </trkpt>
      <trkpt lat="45.86063" lon="3.56126">
        <ele>473</ele>
        <time>2021-02-14T10:50:39Z</time>
      </trkpt>
      <trkpt lat="45.86063" lon="3.56131">
        <ele>474</ele>
        <time>2021-02-14T10:50:42Z</time>
      </trkpt>
      <trkpt lat="45.86062" lon="3.56134">
        <ele>475</ele>
        <time>2021-02-14T10:50:44Z</time>
      </trkpt>
      <trkpt lat="45.8606" lon="3.56136">
        <ele>477</ele>
        <time>2021-02-14T10:50:47Z</time>
      </trkpt>
      <trkpt lat="45.8606" lon="3.56142">
        <ele>478</ele>
        <time>2021-02-14T10:50:52Z</time>
      </trkpt>
      <trkpt lat="45.8606" lon="3.56145">
        <ele>478</ele>
        <time>2021-02-14T10:50:54Z</time>
      </trkpt>
      <trkpt lat="45.86061" lon="3.56148">
        <ele>478</ele>
        <time>2021-02-14T10:50:57Z</time>
      </trkpt>
      <trkpt lat="45.86062" lon="3.56151">
        <ele>478</ele>
        <time>2021-02-14T10:51:01Z</time>
      </trkpt>
      <trkpt lat="45.86063" lon="3.56153">
        <ele>478</ele>
        <time>2021-02-14T10:51:04Z</time>
      </trkpt>
      <trkpt lat="45.86062" lon="3.56157">
        <ele>479</ele>
        <time>2021-02-14T10:51:07Z</time>
      </trkpt>
      <trkpt lat="45.86064" lon="3.56162">
        <ele>479</ele>
        <time>2021-02-14T10:51:10Z</time>
      </trkpt>
      <trkpt lat="45.86069" lon="3.56173">
        <ele>477</ele>
        <time>2021-02-14T10:51:18Z</time>
      </trkpt>
      <trkpt lat="45.86072" lon="3.56187">
        <ele>476</ele>
        <time>2021-02-14T10:51:25Z</time>
      </trkpt>
      <trkpt lat="45.86077" lon="3.56199">
        <ele>473</ele>
        <time>2021-02-14T10:51:32Z</time>
      </trkpt>
      <trkpt lat="45.86079" lon="3.562">
        <ele>472</ele>
        <time>2021-02-14T10:51:34Z</time>
      </trkpt>
      <trkpt lat="45.86084" lon="3.56207">
        <ele>469</ele>
        <time>2021-02-14T10:51:39Z</time>
      </trkpt>
      <trkpt lat="45.86085" lon="3.56209">
        <ele>468</ele>
        <time>2021-02-14T10:51:41Z</time>
      </trkpt>
      <trkpt lat="45.86086" lon="3.56212">
        <ele>467</ele>
        <time>2021-02-14T10:51:43Z</time>
      </trkpt>
      <trkpt lat="45.86088" lon="3.5622">
        <ele>466</ele>
        <time>2021-02-14T10:51:48Z</time>
      </trkpt>
      <trkpt lat="45.8609" lon="3.56223">
        <ele>465</ele>
        <time>2021-02-14T10:51:51Z</time>
      </trkpt>
      <trkpt lat="45.86091" lon="3.56233">
        <ele>466</ele>
        <time>2021-02-14T10:51:58Z</time>
      </trkpt>
      <trkpt lat="45.86092" lon="3.56236">
        <ele>466</ele>
        <time>2021-02-14T10:52:03Z</time>
      </trkpt>
      <trkpt lat="45.86091" lon="3.56239">
        <ele>466</ele>
        <time>2021-02-14T10:52:05Z</time>
      </trkpt>
      <trkpt lat="45.86097" lon="3.56251">
        <ele>465</ele>
        <time>2021-02-14T10:52:13Z</time>
      </trkpt>
      <trkpt lat="45.86101" lon="3.56255">
        <ele>465</ele>
        <time>2021-02-14T10:52:17Z</time>
      </trkpt>
      <trkpt lat="45.86104" lon="3.5626">
        <ele>466</ele>
        <time>2021-02-14T10:52:21Z</time>
      </trkpt>
      <trkpt lat="45.86105" lon="3.56263">
        <ele>466</ele>
        <time>2021-02-14T10:52:24Z</time>
      </trkpt>
      <trkpt lat="45.86106" lon="3.56266">
        <ele>467</ele>
        <time>2021-02-14T10:52:26Z</time>
      </trkpt>
      <trkpt lat="45.86107" lon="3.56271">
        <ele>468</ele>
        <time>2021-02-14T10:52:30Z</time>
      </trkpt>
      <trkpt lat="45.86108" lon="3.56274">
        <ele>468</ele>
        <time>2021-02-14T10:52:32Z</time>
      </trkpt>
      <trkpt lat="45.86111" lon="3.56276">
        <ele>468</ele>
        <time>2021-02-14T10:52:35Z</time>
      </trkpt>
      <trkpt lat="45.86113" lon="3.56276">
        <ele>468</ele>
        <time>2021-02-14T10:52:37Z</time>
      </trkpt>
      <trkpt lat="45.86114" lon="3.56278">
        <ele>467</ele>
        <time>2021-02-14T10:52:39Z</time>
      </trkpt>
      <trkpt lat="45.86117" lon="3.56278">
        <ele>467</ele>
        <time>2021-02-14T10:52:41Z</time>
      </trkpt>
      <trkpt lat="45.86119" lon="3.56279">
        <ele>467</ele>
        <time>2021-02-14T10:52:43Z</time>
      </trkpt>
      <trkpt lat="45.86121" lon="3.5628">
        <ele>466</ele>
        <time>2021-02-14T10:52:45Z</time>
      </trkpt>
      <trkpt lat="45.86123" lon="3.56281">
        <ele>466</ele>
        <time>2021-02-14T10:52:49Z</time>
      </trkpt>
      <trkpt lat="45.86125" lon="3.5628">
        <ele>465</ele>
        <time>2021-02-14T10:52:55Z</time>
      </trkpt>
      <trkpt lat="45.86127" lon="3.56279">
        <ele>464</ele>
        <time>2021-02-14T10:52:57Z</time>
      </trkpt>
      <trkpt lat="45.86129" lon="3.56277">
        <ele>463</ele>
        <time>2021-02-14T10:53:02Z</time>
      </trkpt>
      <trkpt lat="45.86131" lon="3.56278">
        <ele>463</ele>
        <time>2021-02-14T10:53:05Z</time>
      </trkpt>
      <trkpt lat="45.86134" lon="3.5628">
        <ele>463</ele>
        <time>2021-02-14T10:53:17Z</time>
      </trkpt>
      <trkpt lat="45.86136" lon="3.56279">
        <ele>462</ele>
        <time>2021-02-14T10:53:19Z</time>
      </trkpt>
      <trkpt lat="45.86138" lon="3.56278">
        <ele>461</ele>
        <time>2021-02-14T10:53:22Z</time>
      </trkpt>
      <trkpt lat="45.86142" lon="3.56277">
        <ele>460</ele>
        <time>2021-02-14T10:53:24Z</time>
      </trkpt>
      <trkpt lat="45.86146" lon="3.56278">
        <ele>459</ele>
        <time>2021-02-14T10:53:26Z</time>
      </trkpt>
      <trkpt lat="45.86147" lon="3.56279">
        <ele>459</ele>
        <time>2021-02-14T10:53:27Z</time>
      </trkpt>
      <trkpt lat="45.8615" lon="3.56279">
        <ele>459</ele>
        <time>2021-02-14T10:53:29Z</time>
      </trkpt>
      <trkpt lat="45.86154" lon="3.5628">
        <ele>458</ele>
        <time>2021-02-14T10:53:31Z</time>
      </trkpt>
      <trkpt lat="45.86156" lon="3.5628">
        <ele>458</ele>
        <time>2021-02-14T10:53:32Z</time>
      </trkpt>
      <trkpt lat="45.86158" lon="3.56282">
        <ele>458</ele>
        <time>2021-02-14T10:53:34Z</time>
      </trkpt>
      <trkpt lat="45.86161" lon="3.56282">
        <ele>458</ele>
        <time>2021-02-14T10:53:36Z</time>
      </trkpt>
      <trkpt lat="45.86163" lon="3.56284">
        <ele>458</ele>
        <time>2021-02-14T10:53:38Z</time>
      </trkpt>
      <trkpt lat="45.86166" lon="3.56287">
        <ele>458</ele>
        <time>2021-02-14T10:53:40Z</time>
      </trkpt>
      <trkpt lat="45.86168" lon="3.5629">
        <ele>459</ele>
        <time>2021-02-14T10:53:42Z</time>
      </trkpt>
      <trkpt lat="45.86169" lon="3.56293">
        <ele>460</ele>
        <time>2021-02-14T10:53:44Z</time>
      </trkpt>
      <trkpt lat="45.86171" lon="3.56295">
        <ele>461</ele>
        <time>2021-02-14T10:53:46Z</time>
      </trkpt>
      <trkpt lat="45.86174" lon="3.56297">
        <ele>461</ele>
        <time>2021-02-14T10:53:48Z</time>
      </trkpt>
      <trkpt lat="45.86176" lon="3.56299">
        <ele>462</ele>
        <time>2021-02-14T10:53:50Z</time>
      </trkpt>
      <trkpt lat="45.86177" lon="3.56301">
        <ele>462</ele>
        <time>2021-02-14T10:53:52Z</time>
      </trkpt>
      <trkpt lat="45.8618" lon="3.56303">
        <ele>463</ele>
        <time>2021-02-14T10:53:54Z</time>
      </trkpt>
      <trkpt lat="45.86181" lon="3.56305">
        <ele>463</ele>
        <time>2021-02-14T10:53:56Z</time>
      </trkpt>
      <trkpt lat="45.86183" lon="3.56307">
        <ele>464</ele>
        <time>2021-02-14T10:53:58Z</time>
      </trkpt>
      <trkpt lat="45.86186" lon="3.56309">
        <ele>464</ele>
        <time>2021-02-14T10:54:01Z</time>
      </trkpt>
      <trkpt lat="45.86187" lon="3.5631">
        <ele>464</ele>
        <time>2021-02-14T10:54:03Z</time>
      </trkpt>
      <trkpt lat="45.86188" lon="3.56313">
        <ele>465</ele>
        <time>2021-02-14T10:54:06Z</time>
      </trkpt>
      <trkpt lat="45.8619" lon="3.56315">
        <ele>465</ele>
        <time>2021-02-14T10:54:10Z</time>
      </trkpt>
      <trkpt lat="45.86191" lon="3.56317">
        <ele>466</ele>
        <time>2021-02-14T10:54:13Z</time>
      </trkpt>
      <trkpt lat="45.86193" lon="3.5632">
        <ele>466</ele>
        <time>2021-02-14T10:54:17Z</time>
      </trkpt>
      <trkpt lat="45.86194" lon="3.56322">
        <ele>467</ele>
        <time>2021-02-14T10:54:20Z</time>
      </trkpt>
      <trkpt lat="45.86196" lon="3.56323">
        <ele>467</ele>
        <time>2021-02-14T10:54:23Z</time>
      </trkpt>
      <trkpt lat="45.86198" lon="3.56325">
        <ele>467</ele>
        <time>2021-02-14T10:54:26Z</time>
      </trkpt>
      <trkpt lat="45.86199" lon="3.56328">
        <ele>468</ele>
        <time>2021-02-14T10:54:29Z</time>
      </trkpt>
      <trkpt lat="45.86198" lon="3.56331">
        <ele>469</ele>
        <time>2021-02-14T10:54:32Z</time>
      </trkpt>
      <trkpt lat="45.86198" lon="3.56334">
        <ele>470</ele>
        <time>2021-02-14T10:54:38Z</time>
      </trkpt>
      <trkpt lat="45.86199" lon="3.56336">
        <ele>470</ele>
        <time>2021-02-14T10:54:41Z</time>
      </trkpt>
      <trkpt lat="45.862" lon="3.56339">
        <ele>471</ele>
        <time>2021-02-14T10:54:45Z</time>
      </trkpt>
      <trkpt lat="45.86201" lon="3.56342">
        <ele>472</ele>
        <time>2021-02-14T10:54:49Z</time>
      </trkpt>
      <trkpt lat="45.86201" lon="3.56345">
        <ele>473</ele>
        <time>2021-02-14T10:54:53Z</time>
      </trkpt>
      <trkpt lat="45.86202" lon="3.56348">
        <ele>473</ele>
        <time>2021-02-14T10:55:01Z</time>
      </trkpt>
      <trkpt lat="45.86203" lon="3.5635">
        <ele>474</ele>
        <time>2021-02-14T10:55:05Z</time>
      </trkpt>
      <trkpt lat="45.86204" lon="3.56352">
        <ele>474</ele>
        <time>2021-02-14T10:55:09Z</time>
      </trkpt>
      <trkpt lat="45.86204" lon="3.56355">
        <ele>475</ele>
        <time>2021-02-14T10:55:20Z</time>
      </trkpt>
      <trkpt lat="45.86204" lon="3.56357">
        <ele>476</ele>
        <time>2021-02-14T10:55:26Z</time>
      </trkpt>
      <trkpt lat="45.86205" lon="3.56361">
        <ele>476</ele>
        <time>2021-02-14T10:55:29Z</time>
      </trkpt>
      <trkpt lat="45.86206" lon="3.56364">
        <ele>477</ele>
        <time>2021-02-14T10:55:33Z</time>
      </trkpt>
      <trkpt lat="45.86207" lon="3.56367">
        <ele>477</ele>
        <time>2021-02-14T10:55:36Z</time>
      </trkpt>
      <trkpt lat="45.86208" lon="3.5637">
        <ele>477</ele>
        <time>2021-02-14T10:55:39Z</time>
      </trkpt>
      <trkpt lat="45.86209" lon="3.56373">
        <ele>477</ele>
        <time>2021-02-14T10:55:41Z</time>
      </trkpt>
      <trkpt lat="45.8621" lon="3.56377">
        <ele>478</ele>
        <time>2021-02-14T10:55:44Z</time>
      </trkpt>
      <trkpt lat="45.86211" lon="3.5638">
        <ele>478</ele>
        <time>2021-02-14T10:55:46Z</time>
      </trkpt>
      <trkpt lat="45.86212" lon="3.56384">
        <ele>478</ele>
        <time>2021-02-14T10:55:48Z</time>
      </trkpt>
      <trkpt lat="45.86212" lon="3.56386">
        <ele>478</ele>
        <time>2021-02-14T10:55:50Z</time>
      </trkpt>
      <trkpt lat="45.86211" lon="3.5639">
        <ele>479</ele>
        <time>2021-02-14T10:55:53Z</time>
      </trkpt>
      <trkpt lat="45.8621" lon="3.56393">
        <ele>479</ele>
        <time>2021-02-14T10:55:55Z</time>
      </trkpt>
      <trkpt lat="45.8621" lon="3.56396">
        <ele>479</ele>
        <time>2021-02-14T10:55:57Z</time>
      </trkpt>
      <trkpt lat="45.86211" lon="3.564">
        <ele>479</ele>
        <time>2021-02-14T10:55:59Z</time>
      </trkpt>
      <trkpt lat="45.8621" lon="3.56404">
        <ele>479</ele>
        <time>2021-02-14T10:56:02Z</time>
      </trkpt>
      <trkpt lat="45.86208" lon="3.56407">
        <ele>480</ele>
        <time>2021-02-14T10:56:04Z</time>
      </trkpt>
      <trkpt lat="45.86208" lon="3.5641">
        <ele>481</ele>
        <time>2021-02-14T10:56:06Z</time>
      </trkpt>
      <trkpt lat="45.86206" lon="3.56413">
        <ele>481</ele>
        <time>2021-02-14T10:56:08Z</time>
      </trkpt>
      <trkpt lat="45.86204" lon="3.56417">
        <ele>482</ele>
        <time>2021-02-14T10:56:10Z</time>
      </trkpt>
      <trkpt lat="45.86203" lon="3.56421">
        <ele>482</ele>
        <time>2021-02-14T10:56:12Z</time>
      </trkpt>
      <trkpt lat="45.86202" lon="3.56424">
        <ele>483</ele>
        <time>2021-02-14T10:56:14Z</time>
      </trkpt>
      <trkpt lat="45.86201" lon="3.56427">
        <ele>483</ele>
        <time>2021-02-14T10:56:16Z</time>
      </trkpt>
      <trkpt lat="45.86199" lon="3.5643">
        <ele>483</ele>
        <time>2021-02-14T10:56:18Z</time>
      </trkpt>
      <trkpt lat="45.86199" lon="3.56433">
        <ele>483</ele>
        <time>2021-02-14T10:56:21Z</time>
      </trkpt>
      <trkpt lat="45.86198" lon="3.56435">
        <ele>483</ele>
        <time>2021-02-14T10:56:23Z</time>
      </trkpt>
      <trkpt lat="45.86197" lon="3.56438">
        <ele>483</ele>
        <time>2021-02-14T10:56:25Z</time>
      </trkpt>
      <trkpt lat="45.86196" lon="3.56442">
        <ele>483</ele>
        <time>2021-02-14T10:56:27Z</time>
      </trkpt>
      <trkpt lat="45.86193" lon="3.56445">
        <ele>485</ele>
        <time>2021-02-14T10:56:29Z</time>
      </trkpt>
      <trkpt lat="45.86191" lon="3.56447">
        <ele>486</ele>
        <time>2021-02-14T10:56:31Z</time>
      </trkpt>
      <trkpt lat="45.8619" lon="3.56451">
        <ele>487</ele>
        <time>2021-02-14T10:56:33Z</time>
      </trkpt>
      <trkpt lat="45.86189" lon="3.56453">
        <ele>488</ele>
        <time>2021-02-14T10:56:35Z</time>
      </trkpt>
      <trkpt lat="45.86189" lon="3.56457">
        <ele>488</ele>
        <time>2021-02-14T10:56:37Z</time>
      </trkpt>
      <trkpt lat="45.86189" lon="3.5647">
        <ele>487</ele>
        <time>2021-02-14T10:56:45Z</time>
      </trkpt>
      <trkpt lat="45.86189" lon="3.56473">
        <ele>486</ele>
        <time>2021-02-14T10:56:48Z</time>
      </trkpt>
      <trkpt lat="45.86192" lon="3.56486">
        <ele>482</ele>
        <time>2021-02-14T10:56:57Z</time>
      </trkpt>
      <trkpt lat="45.86194" lon="3.56493">
        <ele>479</ele>
        <time>2021-02-14T10:57:02Z</time>
      </trkpt>
      <trkpt lat="45.86195" lon="3.56497">
        <ele>477</ele>
        <time>2021-02-14T10:57:06Z</time>
      </trkpt>
      <trkpt lat="45.86197" lon="3.56501">
        <ele>476</ele>
        <time>2021-02-14T10:57:09Z</time>
      </trkpt>
      <trkpt lat="45.86193" lon="3.56503">
        <ele>478</ele>
        <time>2021-02-14T10:57:12Z</time>
      </trkpt>
      <trkpt lat="45.86192" lon="3.56505">
        <ele>479</ele>
        <time>2021-02-14T10:57:18Z</time>
      </trkpt>
      <trkpt lat="45.8619" lon="3.56506">
        <ele>481</ele>
        <time>2021-02-14T10:57:27Z</time>
      </trkpt>
      <trkpt lat="45.86193" lon="3.56507">
        <ele>478</ele>
        <time>2021-02-14T10:57:35Z</time>
      </trkpt>
      <trkpt lat="45.86191" lon="3.56508">
        <ele>479</ele>
        <time>2021-02-14T10:57:48Z</time>
      </trkpt>
      <trkpt lat="45.86193" lon="3.56506">
        <ele>478</ele>
        <time>2021-02-14T10:57:55Z</time>
      </trkpt>
      <trkpt lat="45.86196" lon="3.56502">
        <ele>476</ele>
        <time>2021-02-14T10:58:18Z</time>
      </trkpt>
      <trkpt lat="45.86192" lon="3.56502">
        <ele>479</ele>
        <time>2021-02-14T10:58:40Z</time>
      </trkpt>
      <trkpt lat="45.86191" lon="3.56505">
        <ele>480</ele>
        <time>2021-02-14T10:59:01Z</time>
      </trkpt>
      <trkpt lat="45.862" lon="3.56509">
        <ele>472</ele>
        <time>2021-02-14T10:59:32Z</time>
      </trkpt>
      <trkpt lat="45.86207" lon="3.56518">
        <ele>465</ele>
        <time>2021-02-14T10:59:45Z</time>
      </trkpt>
      <trkpt lat="45.86212" lon="3.56529">
        <ele>460</ele>
        <time>2021-02-14T10:59:52Z</time>
      </trkpt>
      <trkpt lat="45.86213" lon="3.56531">
        <ele>459</ele>
        <time>2021-02-14T10:59:54Z</time>
      </trkpt>
      <trkpt lat="45.86215" lon="3.56534">
        <ele>457</ele>
        <time>2021-02-14T10:59:56Z</time>
      </trkpt>
      <trkpt lat="45.8622" lon="3.56545">
        <ele>453</ele>
        <time>2021-02-14T11:00:04Z</time>
      </trkpt>
      <trkpt lat="45.86221" lon="3.56552">
        <ele>452</ele>
        <time>2021-02-14T11:00:08Z</time>
      </trkpt>
      <trkpt lat="45.86222" lon="3.56555">
        <ele>452</ele>
        <time>2021-02-14T11:00:10Z</time>
      </trkpt>
      <trkpt lat="45.86222" lon="3.56559">
        <ele>452</ele>
        <time>2021-02-14T11:00:13Z</time>
      </trkpt>
      <trkpt lat="45.86224" lon="3.56561">
        <ele>451</ele>
        <time>2021-02-14T11:00:16Z</time>
      </trkpt>
      <trkpt lat="45.86226" lon="3.56563">
        <ele>450</ele>
        <time>2021-02-14T11:00:18Z</time>
      </trkpt>
      <trkpt lat="45.86227" lon="3.56565">
        <ele>449</ele>
        <time>2021-02-14T11:00:19Z</time>
      </trkpt>
      <trkpt lat="45.86228" lon="3.56567">
        <ele>449</ele>
        <time>2021-02-14T11:00:20Z</time>
      </trkpt>
      <trkpt lat="45.86228" lon="3.56571">
        <ele>449</ele>
        <time>2021-02-14T11:00:22Z</time>
      </trkpt>
      <trkpt lat="45.86228" lon="3.56574">
        <ele>449</ele>
        <time>2021-02-14T11:00:25Z</time>
      </trkpt>
      <trkpt lat="45.8623" lon="3.56576">
        <ele>449</ele>
        <time>2021-02-14T11:00:27Z</time>
      </trkpt>
      <trkpt lat="45.86232" lon="3.56579">
        <ele>448</ele>
        <time>2021-02-14T11:00:29Z</time>
      </trkpt>
      <trkpt lat="45.86232" lon="3.56583">
        <ele>448</ele>
        <time>2021-02-14T11:00:31Z</time>
      </trkpt>
      <trkpt lat="45.86233" lon="3.56586">
        <ele>448</ele>
        <time>2021-02-14T11:00:33Z</time>
      </trkpt>
      <trkpt lat="45.86233" lon="3.5659">
        <ele>448</ele>
        <time>2021-02-14T11:00:35Z</time>
      </trkpt>
      <trkpt lat="45.86232" lon="3.56593">
        <ele>448</ele>
        <time>2021-02-14T11:00:37Z</time>
      </trkpt>
      <trkpt lat="45.86231" lon="3.56597">
        <ele>449</ele>
        <time>2021-02-14T11:00:39Z</time>
      </trkpt>
      <trkpt lat="45.86229" lon="3.56599">
        <ele>450</ele>
        <time>2021-02-14T11:00:41Z</time>
      </trkpt>
      <trkpt lat="45.86228" lon="3.56602">
        <ele>450</ele>
        <time>2021-02-14T11:00:43Z</time>
      </trkpt>
      <trkpt lat="45.86227" lon="3.56606">
        <ele>451</ele>
        <time>2021-02-14T11:00:45Z</time>
      </trkpt>
      <trkpt lat="45.86227" lon="3.56611">
        <ele>451</ele>
        <time>2021-02-14T11:00:48Z</time>
      </trkpt>
      <trkpt lat="45.86228" lon="3.56615">
        <ele>450</ele>
        <time>2021-02-14T11:00:51Z</time>
      </trkpt>
      <trkpt lat="45.86228" lon="3.56618">
        <ele>450</ele>
        <time>2021-02-14T11:00:54Z</time>
      </trkpt>
      <trkpt lat="45.8623" lon="3.56619">
        <ele>449</ele>
        <time>2021-02-14T11:00:58Z</time>
      </trkpt>
      <trkpt lat="45.86232" lon="3.56616">
        <ele>448</ele>
        <time>2021-02-14T11:01:01Z</time>
      </trkpt>
      <trkpt lat="45.86231" lon="3.56612">
        <ele>449</ele>
        <time>2021-02-14T11:01:04Z</time>
      </trkpt>
      <trkpt lat="45.86231" lon="3.56609">
        <ele>449</ele>
        <time>2021-02-14T11:01:06Z</time>
      </trkpt>
      <trkpt lat="45.8623" lon="3.56605">
        <ele>449</ele>
        <time>2021-02-14T11:01:08Z</time>
      </trkpt>
      <trkpt lat="45.8623" lon="3.56602">
        <ele>449</ele>
        <time>2021-02-14T11:01:10Z</time>
      </trkpt>
      <trkpt lat="45.86231" lon="3.566">
        <ele>449</ele>
        <time>2021-02-14T11:01:12Z</time>
      </trkpt>
      <trkpt lat="45.86232" lon="3.56596">
        <ele>448</ele>
        <time>2021-02-14T11:01:15Z</time>
      </trkpt>
      <trkpt lat="45.86233" lon="3.56594">
        <ele>448</ele>
        <time>2021-02-14T11:01:17Z</time>
      </trkpt>
      <trkpt lat="45.86235" lon="3.56592">
        <ele>447</ele>
        <time>2021-02-14T11:01:19Z</time>
      </trkpt>
      <trkpt lat="45.86239" lon="3.56588">
        <ele>445</ele>
        <time>2021-02-14T11:01:24Z</time>
      </trkpt>
      <trkpt lat="45.86242" lon="3.56588">
        <ele>443</ele>
        <time>2021-02-14T11:01:26Z</time>
      </trkpt>
      <trkpt lat="45.86246" lon="3.5659">
        <ele>441</ele>
        <time>2021-02-14T11:01:28Z</time>
      </trkpt>
      <trkpt lat="45.86249" lon="3.56591">
        <ele>439</ele>
        <time>2021-02-14T11:01:30Z</time>
      </trkpt>
      <trkpt lat="45.8625" lon="3.56591">
        <ele>438</ele>
        <time>2021-02-14T11:01:32Z</time>
      </trkpt>
      <trkpt lat="45.86251" lon="3.56588">
        <ele>438</ele>
        <time>2021-02-14T11:01:35Z</time>
      </trkpt>
      <trkpt lat="45.86253" lon="3.56587">
        <ele>437</ele>
        <time>2021-02-14T11:01:38Z</time>
      </trkpt>
      <trkpt lat="45.86255" lon="3.56588">
        <ele>436</ele>
        <time>2021-02-14T11:01:40Z</time>
      </trkpt>
      <trkpt lat="45.86257" lon="3.56585">
        <ele>436</ele>
        <time>2021-02-14T11:01:45Z</time>
      </trkpt>
      <trkpt lat="45.86259" lon="3.56585">
        <ele>435</ele>
        <time>2021-02-14T11:01:47Z</time>
      </trkpt>
      <trkpt lat="45.86261" lon="3.56586">
        <ele>434</ele>
        <time>2021-02-14T11:01:49Z</time>
      </trkpt>
      <trkpt lat="45.86263" lon="3.56585">
        <ele>433</ele>
        <time>2021-02-14T11:01:52Z</time>
      </trkpt>
      <trkpt lat="45.86264" lon="3.56583">
        <ele>432</ele>
        <time>2021-02-14T11:01:55Z</time>
      </trkpt>
      <trkpt lat="45.86266" lon="3.56584">
        <ele>431</ele>
        <time>2021-02-14T11:01:57Z</time>
      </trkpt>
      <trkpt lat="45.86268" lon="3.56588">
        <ele>430</ele>
        <time>2021-02-14T11:01:59Z</time>
      </trkpt>
      <trkpt lat="45.86269" lon="3.56592">
        <ele>430</ele>
        <time>2021-02-14T11:02:01Z</time>
      </trkpt>
      <trkpt lat="45.8627" lon="3.56596">
        <ele>429</ele>
        <time>2021-02-14T11:02:03Z</time>
      </trkpt>
      <trkpt lat="45.86271" lon="3.566">
        <ele>428</ele>
        <time>2021-02-14T11:02:05Z</time>
      </trkpt>
      <trkpt lat="45.86271" lon="3.56603">
        <ele>428</ele>
        <time>2021-02-14T11:02:07Z</time>
      </trkpt>
      <trkpt lat="45.86272" lon="3.56605">
        <ele>427</ele>
        <time>2021-02-14T11:02:10Z</time>
      </trkpt>
      <trkpt lat="45.86274" lon="3.56608">
        <ele>426</ele>
        <time>2021-02-14T11:02:12Z</time>
      </trkpt>
      <trkpt lat="45.86274" lon="3.56611">
        <ele>425</ele>
        <time>2021-02-14T11:02:15Z</time>
      </trkpt>
      <trkpt lat="45.86277" lon="3.56612">
        <ele>424</ele>
        <time>2021-02-14T11:02:22Z</time>
      </trkpt>
      <trkpt lat="45.86279" lon="3.56613">
        <ele>423</ele>
        <time>2021-02-14T11:02:25Z</time>
      </trkpt>
      <trkpt lat="45.8628" lon="3.56611">
        <ele>423</ele>
        <time>2021-02-14T11:02:28Z</time>
      </trkpt>
      <trkpt lat="45.86283" lon="3.56609">
        <ele>423</ele>
        <time>2021-02-14T11:02:30Z</time>
      </trkpt>
      <trkpt lat="45.86285" lon="3.56609">
        <ele>422</ele>
        <time>2021-02-14T11:02:34Z</time>
      </trkpt>
      <trkpt lat="45.86287" lon="3.56609">
        <ele>422</ele>
        <time>2021-02-14T11:02:36Z</time>
      </trkpt>
      <trkpt lat="45.8629" lon="3.5661">
        <ele>421</ele>
        <time>2021-02-14T11:02:38Z</time>
      </trkpt>
      <trkpt lat="45.86292" lon="3.56611">
        <ele>421</ele>
        <time>2021-02-14T11:02:42Z</time>
      </trkpt>
      <trkpt lat="45.86294" lon="3.56611">
        <ele>420</ele>
        <time>2021-02-14T11:02:45Z</time>
      </trkpt>
      <trkpt lat="45.86295" lon="3.56609">
        <ele>420</ele>
        <time>2021-02-14T11:02:55Z</time>
      </trkpt>
      <trkpt lat="45.86298" lon="3.56612">
        <ele>419</ele>
        <time>2021-02-14T11:02:57Z</time>
      </trkpt>
      <trkpt lat="45.86301" lon="3.56614">
        <ele>419</ele>
        <time>2021-02-14T11:03:06Z</time>
      </trkpt>
      <trkpt lat="45.86303" lon="3.56614">
        <ele>418</ele>
        <time>2021-02-14T11:03:08Z</time>
      </trkpt>
      <trkpt lat="45.86305" lon="3.56613">
        <ele>418</ele>
        <time>2021-02-14T11:03:12Z</time>
      </trkpt>
      <trkpt lat="45.86306" lon="3.56611">
        <ele>417</ele>
        <time>2021-02-14T11:03:14Z</time>
      </trkpt>
      <trkpt lat="45.86309" lon="3.56611">
        <ele>417</ele>
        <time>2021-02-14T11:03:16Z</time>
      </trkpt>
      <trkpt lat="45.86311" lon="3.56613">
        <ele>417</ele>
        <time>2021-02-14T11:03:18Z</time>
      </trkpt>
      <trkpt lat="45.86313" lon="3.56615">
        <ele>417</ele>
        <time>2021-02-14T11:03:19Z</time>
      </trkpt>
      <trkpt lat="45.86314" lon="3.56617">
        <ele>417</ele>
        <time>2021-02-14T11:03:21Z</time>
      </trkpt>
      <trkpt lat="45.86315" lon="3.56621">
        <ele>417</ele>
        <time>2021-02-14T11:03:24Z</time>
      </trkpt>
      <trkpt lat="45.86315" lon="3.56624">
        <ele>417</ele>
        <time>2021-02-14T11:03:33Z</time>
      </trkpt>
      <trkpt lat="45.86315" lon="3.56627">
        <ele>417</ele>
        <time>2021-02-14T11:03:39Z</time>
      </trkpt>
      <trkpt lat="45.86314" lon="3.5663">
        <ele>417</ele>
        <time>2021-02-14T11:03:42Z</time>
      </trkpt>
      <trkpt lat="45.86314" lon="3.56633">
        <ele>417</ele>
        <time>2021-02-14T11:03:44Z</time>
      </trkpt>
      <trkpt lat="45.86314" lon="3.56636">
        <ele>417</ele>
        <time>2021-02-14T11:03:47Z</time>
      </trkpt>
      <trkpt lat="45.86314" lon="3.56638">
        <ele>417</ele>
        <time>2021-02-14T11:03:50Z</time>
      </trkpt>
      <trkpt lat="45.86312" lon="3.5664">
        <ele>417</ele>
        <time>2021-02-14T11:03:53Z</time>
      </trkpt>
      <trkpt lat="45.86313" lon="3.56643">
        <ele>417</ele>
        <time>2021-02-14T11:03:56Z</time>
      </trkpt>
      <trkpt lat="45.8631" lon="3.56645">
        <ele>418</ele>
        <time>2021-02-14T11:04:00Z</time>
      </trkpt>
      <trkpt lat="45.86308" lon="3.56646">
        <ele>418</ele>
        <time>2021-02-14T11:04:02Z</time>
      </trkpt>
      <trkpt lat="45.86307" lon="3.56647">
        <ele>418</ele>
        <time>2021-02-14T11:04:04Z</time>
      </trkpt>
      <trkpt lat="45.86305" lon="3.56649">
        <ele>418</ele>
        <time>2021-02-14T11:04:08Z</time>
      </trkpt>
      <trkpt lat="45.86303" lon="3.56648">
        <ele>418</ele>
        <time>2021-02-14T11:04:11Z</time>
      </trkpt>
      <trkpt lat="45.863" lon="3.56649">
        <ele>419</ele>
        <time>2021-02-14T11:04:14Z</time>
      </trkpt>
      <trkpt lat="45.86298" lon="3.56649">
        <ele>419</ele>
        <time>2021-02-14T11:04:15Z</time>
      </trkpt>
      <trkpt lat="45.86296" lon="3.5665">
        <ele>419</ele>
        <time>2021-02-14T11:04:17Z</time>
      </trkpt>
      <trkpt lat="45.86293" lon="3.5665">
        <ele>420</ele>
        <time>2021-02-14T11:04:20Z</time>
      </trkpt>
      <trkpt lat="45.86292" lon="3.56653">
        <ele>420</ele>
        <time>2021-02-14T11:04:23Z</time>
      </trkpt>
      <trkpt lat="45.8629" lon="3.56655">
        <ele>420</ele>
        <time>2021-02-14T11:04:25Z</time>
      </trkpt>
      <trkpt lat="45.86288" lon="3.56658">
        <ele>420</ele>
        <time>2021-02-14T11:04:27Z</time>
      </trkpt>
      <trkpt lat="45.86287" lon="3.5666">
        <ele>421</ele>
        <time>2021-02-14T11:04:29Z</time>
      </trkpt>
      <trkpt lat="45.86286" lon="3.56663">
        <ele>421</ele>
        <time>2021-02-14T11:04:31Z</time>
      </trkpt>
      <trkpt lat="45.86287" lon="3.56665">
        <ele>421</ele>
        <time>2021-02-14T11:04:35Z</time>
      </trkpt>
      <trkpt lat="45.86289" lon="3.56666">
        <ele>420</ele>
        <time>2021-02-14T11:04:38Z</time>
      </trkpt>
      <trkpt lat="45.86291" lon="3.56667">
        <ele>420</ele>
        <time>2021-02-14T11:04:40Z</time>
      </trkpt>
      <trkpt lat="45.86292" lon="3.56671">
        <ele>420</ele>
        <time>2021-02-14T11:04:43Z</time>
      </trkpt>
      <trkpt lat="45.86294" lon="3.56674">
        <ele>420</ele>
        <time>2021-02-14T11:04:46Z</time>
      </trkpt>
      <trkpt lat="45.86296" lon="3.56676">
        <ele>420</ele>
        <time>2021-02-14T11:04:51Z</time>
      </trkpt>
      <trkpt lat="45.86297" lon="3.56679">
        <ele>420</ele>
        <time>2021-02-14T11:04:53Z</time>
      </trkpt>
      <trkpt lat="45.86297" lon="3.56682">
        <ele>420</ele>
        <time>2021-02-14T11:04:55Z</time>
      </trkpt>
      <trkpt lat="45.86298" lon="3.56684">
        <ele>421</ele>
        <time>2021-02-14T11:04:57Z</time>
      </trkpt>
      <trkpt lat="45.863" lon="3.56686">
        <ele>421</ele>
        <time>2021-02-14T11:05:02Z</time>
      </trkpt>
      <trkpt lat="45.863" lon="3.56688">
        <ele>421</ele>
        <time>2021-02-14T11:05:05Z</time>
      </trkpt>
      <trkpt lat="45.86299" lon="3.5669">
        <ele>421</ele>
        <time>2021-02-14T11:05:08Z</time>
      </trkpt>
      <trkpt lat="45.86301" lon="3.56689">
        <ele>421</ele>
        <time>2021-02-14T11:05:12Z</time>
      </trkpt>
      <trkpt lat="45.86303" lon="3.56692">
        <ele>421</ele>
        <time>2021-02-14T11:05:15Z</time>
      </trkpt>
      <trkpt lat="45.86302" lon="3.56695">
        <ele>421</ele>
        <time>2021-02-14T11:05:17Z</time>
      </trkpt>
      <trkpt lat="45.863" lon="3.56698">
        <ele>421</ele>
        <time>2021-02-14T11:05:19Z</time>
      </trkpt>
      <trkpt lat="45.86297" lon="3.56699">
        <ele>421</ele>
        <time>2021-02-14T11:05:21Z</time>
      </trkpt>
      <trkpt lat="45.86295" lon="3.567">
        <ele>421</ele>
        <time>2021-02-14T11:05:23Z</time>
      </trkpt>
      <trkpt lat="45.86293" lon="3.56701">
        <ele>421</ele>
        <time>2021-02-14T11:05:25Z</time>
      </trkpt>
      <trkpt lat="45.86291" lon="3.56703">
        <ele>421</ele>
        <time>2021-02-14T11:05:27Z</time>
      </trkpt>
      <trkpt lat="45.86288" lon="3.56704">
        <ele>421</ele>
        <time>2021-02-14T11:05:29Z</time>
      </trkpt>
      <trkpt lat="45.86285" lon="3.56705">
        <ele>421</ele>
        <time>2021-02-14T11:05:31Z</time>
      </trkpt>
      <trkpt lat="45.86283" lon="3.56707">
        <ele>421</ele>
        <time>2021-02-14T11:05:33Z</time>
      </trkpt>
      <trkpt lat="45.86282" lon="3.56709">
        <ele>421</ele>
        <time>2021-02-14T11:05:35Z</time>
      </trkpt>
      <trkpt lat="45.8628" lon="3.56712">
        <ele>421</ele>
        <time>2021-02-14T11:05:37Z</time>
      </trkpt>
      <trkpt lat="45.8628" lon="3.56715">
        <ele>421</ele>
        <time>2021-02-14T11:05:39Z</time>
      </trkpt>
      <trkpt lat="45.86278" lon="3.56717">
        <ele>421</ele>
        <time>2021-02-14T11:05:42Z</time>
      </trkpt>
      <trkpt lat="45.86277" lon="3.5672">
        <ele>422</ele>
        <time>2021-02-14T11:05:45Z</time>
      </trkpt>
      <trkpt lat="45.86276" lon="3.56722">
        <ele>422</ele>
        <time>2021-02-14T11:05:47Z</time>
      </trkpt>
      <trkpt lat="45.86276" lon="3.56725">
        <ele>422</ele>
        <time>2021-02-14T11:05:49Z</time>
      </trkpt>
      <trkpt lat="45.86277" lon="3.56728">
        <ele>422</ele>
        <time>2021-02-14T11:05:51Z</time>
      </trkpt>
      <trkpt lat="45.86278" lon="3.56731">
        <ele>422</ele>
        <time>2021-02-14T11:05:53Z</time>
      </trkpt>
      <trkpt lat="45.86279" lon="3.56733">
        <ele>422</ele>
        <time>2021-02-14T11:05:55Z</time>
      </trkpt>
      <trkpt lat="45.8628" lon="3.56736">
        <ele>422</ele>
        <time>2021-02-14T11:05:57Z</time>
      </trkpt>
      <trkpt lat="45.86281" lon="3.56739">
        <ele>422</ele>
        <time>2021-02-14T11:05:59Z</time>
      </trkpt>
      <trkpt lat="45.86282" lon="3.56741">
        <ele>422</ele>
        <time>2021-02-14T11:06:01Z</time>
      </trkpt>
      <trkpt lat="45.86283" lon="3.56743">
        <ele>422</ele>
        <time>2021-02-14T11:06:03Z</time>
      </trkpt>
      <trkpt lat="45.86285" lon="3.56745">
        <ele>423</ele>
        <time>2021-02-14T11:06:05Z</time>
      </trkpt>
      <trkpt lat="45.86287" lon="3.56748">
        <ele>423</ele>
        <time>2021-02-14T11:06:08Z</time>
      </trkpt>
      <trkpt lat="45.86288" lon="3.56749">
        <ele>423</ele>
        <time>2021-02-14T11:06:10Z</time>
      </trkpt>
      <trkpt lat="45.86289" lon="3.56751">
        <ele>424</ele>
        <time>2021-02-14T11:06:12Z</time>
      </trkpt>
      <trkpt lat="45.86291" lon="3.56754">
        <ele>424</ele>
        <time>2021-02-14T11:06:15Z</time>
      </trkpt>
      <trkpt lat="45.86292" lon="3.56756">
        <ele>424</ele>
        <time>2021-02-14T11:06:18Z</time>
      </trkpt>
      <trkpt lat="45.86293" lon="3.56759">
        <ele>425</ele>
        <time>2021-02-14T11:06:21Z</time>
      </trkpt>
      <trkpt lat="45.86296" lon="3.56761">
        <ele>426</ele>
        <time>2021-02-14T11:06:23Z</time>
      </trkpt>
      <trkpt lat="45.86297" lon="3.56763">
        <ele>426</ele>
        <time>2021-02-14T11:06:25Z</time>
      </trkpt>
      <trkpt lat="45.86299" lon="3.56765">
        <ele>427</ele>
        <time>2021-02-14T11:06:28Z</time>
      </trkpt>
      <trkpt lat="45.86301" lon="3.56768">
        <ele>427</ele>
        <time>2021-02-14T11:06:31Z</time>
      </trkpt>
      <trkpt lat="45.86302" lon="3.5677">
        <ele>428</ele>
        <time>2021-02-14T11:06:34Z</time>
      </trkpt>
      <trkpt lat="45.86304" lon="3.56772">
        <ele>428</ele>
        <time>2021-02-14T11:06:36Z</time>
      </trkpt>
      <trkpt lat="45.86305" lon="3.56774">
        <ele>429</ele>
        <time>2021-02-14T11:06:38Z</time>
      </trkpt>
      <trkpt lat="45.86307" lon="3.56776">
        <ele>430</ele>
        <time>2021-02-14T11:06:41Z</time>
      </trkpt>
      <trkpt lat="45.86309" lon="3.56777">
        <ele>430</ele>
        <time>2021-02-14T11:06:43Z</time>
      </trkpt>
      <trkpt lat="45.8631" lon="3.5678">
        <ele>431</ele>
        <time>2021-02-14T11:06:46Z</time>
      </trkpt>
      <trkpt lat="45.86312" lon="3.56783">
        <ele>431</ele>
        <time>2021-02-14T11:06:49Z</time>
      </trkpt>
      <trkpt lat="45.86313" lon="3.56786">
        <ele>432</ele>
        <time>2021-02-14T11:06:52Z</time>
      </trkpt>
      <trkpt lat="45.86314" lon="3.56789">
        <ele>432</ele>
        <time>2021-02-14T11:06:54Z</time>
      </trkpt>
      <trkpt lat="45.86315" lon="3.5679">
        <ele>433</ele>
        <time>2021-02-14T11:06:56Z</time>
      </trkpt>
      <trkpt lat="45.86317" lon="3.56793">
        <ele>433</ele>
        <time>2021-02-14T11:06:59Z</time>
      </trkpt>
      <trkpt lat="45.86319" lon="3.56794">
        <ele>434</ele>
        <time>2021-02-14T11:07:02Z</time>
      </trkpt>
      <trkpt lat="45.86322" lon="3.56795">
        <ele>435</ele>
        <time>2021-02-14T11:07:05Z</time>
      </trkpt>
      <trkpt lat="45.86324" lon="3.56797">
        <ele>436</ele>
        <time>2021-02-14T11:07:08Z</time>
      </trkpt>
      <trkpt lat="45.86326" lon="3.56799">
        <ele>436</ele>
        <time>2021-02-14T11:07:11Z</time>
      </trkpt>
      <trkpt lat="45.86328" lon="3.56799">
        <ele>437</ele>
        <time>2021-02-14T11:07:14Z</time>
      </trkpt>
      <trkpt lat="45.8633" lon="3.568">
        <ele>438</ele>
        <time>2021-02-14T11:07:17Z</time>
      </trkpt>
      <trkpt lat="45.86331" lon="3.56803">
        <ele>439</ele>
        <time>2021-02-14T11:07:20Z</time>
      </trkpt>
      <trkpt lat="45.86333" lon="3.56804">
        <ele>439</ele>
        <time>2021-02-14T11:07:25Z</time>
      </trkpt>
      <trkpt lat="45.86335" lon="3.56806">
        <ele>440</ele>
        <time>2021-02-14T11:07:27Z</time>
      </trkpt>
      <trkpt lat="45.86337" lon="3.56807">
        <ele>440</ele>
        <time>2021-02-14T11:07:30Z</time>
      </trkpt>
      <trkpt lat="45.8634" lon="3.56809">
        <ele>440</ele>
        <time>2021-02-14T11:07:34Z</time>
      </trkpt>
      <trkpt lat="45.86341" lon="3.56811">
        <ele>440</ele>
        <time>2021-02-14T11:07:36Z</time>
      </trkpt>
      <trkpt lat="45.86342" lon="3.56813">
        <ele>439</ele>
        <time>2021-02-14T11:07:38Z</time>
      </trkpt>
      <trkpt lat="45.86344" lon="3.56816">
        <ele>439</ele>
        <time>2021-02-14T11:07:40Z</time>
      </trkpt>
      <trkpt lat="45.86345" lon="3.56818">
        <ele>439</ele>
        <time>2021-02-14T11:07:42Z</time>
      </trkpt>
      <trkpt lat="45.86347" lon="3.56819">
        <ele>440</ele>
        <time>2021-02-14T11:07:45Z</time>
      </trkpt>
      <trkpt lat="45.86349" lon="3.5682">
        <ele>440</ele>
        <time>2021-02-14T11:07:48Z</time>
      </trkpt>
      <trkpt lat="45.86351" lon="3.56821">
        <ele>440</ele>
        <time>2021-02-14T11:07:50Z</time>
      </trkpt>
      <trkpt lat="45.86353" lon="3.56823">
        <ele>440</ele>
        <time>2021-02-14T11:07:53Z</time>
      </trkpt>
      <trkpt lat="45.86355" lon="3.56825">
        <ele>440</ele>
        <time>2021-02-14T11:07:56Z</time>
      </trkpt>
      <trkpt lat="45.86356" lon="3.56827">
        <ele>440</ele>
        <time>2021-02-14T11:08:00Z</time>
      </trkpt>
      <trkpt lat="45.8636" lon="3.56828">
        <ele>441</ele>
        <time>2021-02-14T11:08:05Z</time>
      </trkpt>
      <trkpt lat="45.86366" lon="3.56832">
        <ele>443</ele>
        <time>2021-02-14T11:08:13Z</time>
      </trkpt>
      <trkpt lat="45.86368" lon="3.56834">
        <ele>443</ele>
        <time>2021-02-14T11:08:15Z</time>
      </trkpt>
      <trkpt lat="45.8637" lon="3.56836">
        <ele>444</ele>
        <time>2021-02-14T11:08:17Z</time>
      </trkpt>
      <trkpt lat="45.86375" lon="3.5684">
        <ele>446</ele>
        <time>2021-02-14T11:08:21Z</time>
      </trkpt>
      <trkpt lat="45.86376" lon="3.56843">
        <ele>446</ele>
        <time>2021-02-14T11:08:23Z</time>
      </trkpt>
      <trkpt lat="45.86377" lon="3.56845">
        <ele>446</ele>
        <time>2021-02-14T11:08:25Z</time>
      </trkpt>
      <trkpt lat="45.86379" lon="3.56847">
        <ele>446</ele>
        <time>2021-02-14T11:08:27Z</time>
      </trkpt>
      <trkpt lat="45.8638" lon="3.5685">
        <ele>447</ele>
        <time>2021-02-14T11:08:29Z</time>
      </trkpt>
      <trkpt lat="45.86383" lon="3.56853">
        <ele>447</ele>
        <time>2021-02-14T11:08:31Z</time>
      </trkpt>
      <trkpt lat="45.86384" lon="3.56855">
        <ele>447</ele>
        <time>2021-02-14T11:08:34Z</time>
      </trkpt>
      <trkpt lat="45.86386" lon="3.56857">
        <ele>448</ele>
        <time>2021-02-14T11:08:36Z</time>
      </trkpt>
      <trkpt lat="45.86388" lon="3.56858">
        <ele>448</ele>
        <time>2021-02-14T11:08:38Z</time>
      </trkpt>
      <trkpt lat="45.86389" lon="3.5686">
        <ele>449</ele>
        <time>2021-02-14T11:08:40Z</time>
      </trkpt>
      <trkpt lat="45.86391" lon="3.56862">
        <ele>450</ele>
        <time>2021-02-14T11:08:43Z</time>
      </trkpt>
      <trkpt lat="45.86398" lon="3.56872">
        <ele>453</ele>
        <time>2021-02-14T11:08:51Z</time>
      </trkpt>
      <trkpt lat="45.86402" lon="3.56879">
        <ele>455</ele>
        <time>2021-02-14T11:08:56Z</time>
      </trkpt>
      <trkpt lat="45.86404" lon="3.56881">
        <ele>456</ele>
        <time>2021-02-14T11:08:58Z</time>
      </trkpt>
      <trkpt lat="45.86405" lon="3.56884">
        <ele>457</ele>
        <time>2021-02-14T11:09:00Z</time>
      </trkpt>
      <trkpt lat="45.86406" lon="3.56888">
        <ele>457</ele>
        <time>2021-02-14T11:09:02Z</time>
      </trkpt>
      <trkpt lat="45.86406" lon="3.56891">
        <ele>458</ele>
        <time>2021-02-14T11:09:04Z</time>
      </trkpt>
      <trkpt lat="45.86407" lon="3.56894">
        <ele>458</ele>
        <time>2021-02-14T11:09:06Z</time>
      </trkpt>
      <trkpt lat="45.86408" lon="3.56896">
        <ele>459</ele>
        <time>2021-02-14T11:09:08Z</time>
      </trkpt>
      <trkpt lat="45.86408" lon="3.569">
        <ele>460</ele>
        <time>2021-02-14T11:09:11Z</time>
      </trkpt>
      <trkpt lat="45.86408" lon="3.56906">
        <ele>460</ele>
        <time>2021-02-14T11:09:15Z</time>
      </trkpt>
      <trkpt lat="45.86407" lon="3.56909">
        <ele>459</ele>
        <time>2021-02-14T11:09:17Z</time>
      </trkpt>
      <trkpt lat="45.86407" lon="3.56912">
        <ele>459</ele>
        <time>2021-02-14T11:09:19Z</time>
      </trkpt>
      <trkpt lat="45.86406" lon="3.56915">
        <ele>459</ele>
        <time>2021-02-14T11:09:21Z</time>
      </trkpt>
      <trkpt lat="45.86406" lon="3.56918">
        <ele>459</ele>
        <time>2021-02-14T11:09:23Z</time>
      </trkpt>
      <trkpt lat="45.86406" lon="3.5692">
        <ele>459</ele>
        <time>2021-02-14T11:09:25Z</time>
      </trkpt>
      <trkpt lat="45.86405" lon="3.56923">
        <ele>460</ele>
        <time>2021-02-14T11:09:28Z</time>
      </trkpt>
      <trkpt lat="45.86405" lon="3.56926">
        <ele>460</ele>
        <time>2021-02-14T11:09:33Z</time>
      </trkpt>
      <trkpt lat="45.86404" lon="3.56931">
        <ele>460</ele>
        <time>2021-02-14T11:09:35Z</time>
      </trkpt>
      <trkpt lat="45.86404" lon="3.56934">
        <ele>461</ele>
        <time>2021-02-14T11:09:37Z</time>
      </trkpt>
      <trkpt lat="45.86404" lon="3.56937">
        <ele>461</ele>
        <time>2021-02-14T11:09:39Z</time>
      </trkpt>
      <trkpt lat="45.86404" lon="3.5694">
        <ele>461</ele>
        <time>2021-02-14T11:09:41Z</time>
      </trkpt>
      <trkpt lat="45.86403" lon="3.56943">
        <ele>462</ele>
        <time>2021-02-14T11:09:43Z</time>
      </trkpt>
      <trkpt lat="45.86402" lon="3.56947">
        <ele>462</ele>
        <time>2021-02-14T11:09:45Z</time>
      </trkpt>
      <trkpt lat="45.86401" lon="3.56951">
        <ele>461</ele>
        <time>2021-02-14T11:09:47Z</time>
      </trkpt>
      <trkpt lat="45.864" lon="3.56955">
        <ele>461</ele>
        <time>2021-02-14T11:09:49Z</time>
      </trkpt>
      <trkpt lat="45.86398" lon="3.56958">
        <ele>461</ele>
        <time>2021-02-14T11:09:51Z</time>
      </trkpt>
      <trkpt lat="45.86397" lon="3.56962">
        <ele>461</ele>
        <time>2021-02-14T11:09:53Z</time>
      </trkpt>
      <trkpt lat="45.86396" lon="3.56966">
        <ele>460</ele>
        <time>2021-02-14T11:09:55Z</time>
      </trkpt>
      <trkpt lat="45.86394" lon="3.56969">
        <ele>460</ele>
        <time>2021-02-14T11:09:57Z</time>
      </trkpt>
      <trkpt lat="45.86392" lon="3.56972">
        <ele>459</ele>
        <time>2021-02-14T11:09:59Z</time>
      </trkpt>
      <trkpt lat="45.8639" lon="3.56975">
        <ele>458</ele>
        <time>2021-02-14T11:10:01Z</time>
      </trkpt>
      <trkpt lat="45.86388" lon="3.56978">
        <ele>457</ele>
        <time>2021-02-14T11:10:06Z</time>
      </trkpt>
      <trkpt lat="45.86387" lon="3.56979">
        <ele>456</ele>
        <time>2021-02-14T11:10:10Z</time>
      </trkpt>
      <trkpt lat="45.86384" lon="3.56978">
        <ele>455</ele>
        <time>2021-02-14T11:10:18Z</time>
      </trkpt>
      <trkpt lat="45.86381" lon="3.5698">
        <ele>453</ele>
        <time>2021-02-14T11:10:23Z</time>
      </trkpt>
      <trkpt lat="45.86383" lon="3.56981">
        <ele>455</ele>
        <time>2021-02-14T11:10:56Z</time>
      </trkpt>
      <trkpt lat="45.86386" lon="3.56981">
        <ele>456</ele>
        <time>2021-02-14T11:10:58Z</time>
      </trkpt>
      <trkpt lat="45.86386" lon="3.56977">
        <ele>456</ele>
        <time>2021-02-14T11:11:16Z</time>
      </trkpt>
      <trkpt lat="45.86384" lon="3.56977">
        <ele>455</ele>
        <time>2021-02-14T11:11:24Z</time>
      </trkpt>
      <trkpt lat="45.86383" lon="3.56975">
        <ele>454</ele>
        <time>2021-02-14T11:11:31Z</time>
      </trkpt>
      <trkpt lat="45.86382" lon="3.56977">
        <ele>453</ele>
        <time>2021-02-14T11:11:41Z</time>
      </trkpt>
      <trkpt lat="45.86382" lon="3.5698">
        <ele>454</ele>
        <time>2021-02-14T11:11:46Z</time>
      </trkpt>
      <trkpt lat="45.86377" lon="3.56991">
        <ele>453</ele>
        <time>2021-02-14T11:11:54Z</time>
      </trkpt>
      <trkpt lat="45.86374" lon="3.57005">
        <ele>454</ele>
        <time>2021-02-14T11:12:01Z</time>
      </trkpt>
      <trkpt lat="45.86373" lon="3.57018">
        <ele>456</ele>
        <time>2021-02-14T11:12:08Z</time>
      </trkpt>
      <trkpt lat="45.8637" lon="3.57031">
        <ele>458</ele>
        <time>2021-02-14T11:12:16Z</time>
      </trkpt>
      <trkpt lat="45.86359" lon="3.57035">
        <ele>453</ele>
        <time>2021-02-14T11:12:24Z</time>
      </trkpt>
      <trkpt lat="45.86349" lon="3.57038">
        <ele>449</ele>
        <time>2021-02-14T11:12:29Z</time>
      </trkpt>
      <trkpt lat="45.86344" lon="3.57044">
        <ele>448</ele>
        <time>2021-02-14T11:12:33Z</time>
      </trkpt>
      <trkpt lat="45.86343" lon="3.57048">
        <ele>448</ele>
        <time>2021-02-14T11:12:35Z</time>
      </trkpt>
      <trkpt lat="45.86341" lon="3.57052">
        <ele>448</ele>
        <time>2021-02-14T11:12:37Z</time>
      </trkpt>
      <trkpt lat="45.8634" lon="3.57055">
        <ele>448</ele>
        <time>2021-02-14T11:12:39Z</time>
      </trkpt>
      <trkpt lat="45.86339" lon="3.57059">
        <ele>448</ele>
        <time>2021-02-14T11:12:41Z</time>
      </trkpt>
      <trkpt lat="45.86339" lon="3.57064">
        <ele>448</ele>
        <time>2021-02-14T11:12:43Z</time>
      </trkpt>
      <trkpt lat="45.86338" lon="3.57067">
        <ele>448</ele>
        <time>2021-02-14T11:12:45Z</time>
      </trkpt>
      <trkpt lat="45.86338" lon="3.57071">
        <ele>448</ele>
        <time>2021-02-14T11:12:47Z</time>
      </trkpt>
      <trkpt lat="45.86337" lon="3.57076">
        <ele>448</ele>
        <time>2021-02-14T11:12:49Z</time>
      </trkpt>
      <trkpt lat="45.86336" lon="3.5708">
        <ele>448</ele>
        <time>2021-02-14T11:12:51Z</time>
      </trkpt>
      <trkpt lat="45.86333" lon="3.57089">
        <ele>448</ele>
        <time>2021-02-14T11:12:56Z</time>
      </trkpt>
      <trkpt lat="45.86331" lon="3.57095">
        <ele>448</ele>
        <time>2021-02-14T11:12:59Z</time>
      </trkpt>
      <trkpt lat="45.8633" lon="3.57101">
        <ele>448</ele>
        <time>2021-02-14T11:13:02Z</time>
      </trkpt>
      <trkpt lat="45.86328" lon="3.57105">
        <ele>448</ele>
        <time>2021-02-14T11:13:04Z</time>
      </trkpt>
      <trkpt lat="45.86327" lon="3.57109">
        <ele>448</ele>
        <time>2021-02-14T11:13:06Z</time>
      </trkpt>
      <trkpt lat="45.86326" lon="3.57112">
        <ele>447</ele>
        <time>2021-02-14T11:13:08Z</time>
      </trkpt>
      <trkpt lat="45.86325" lon="3.57116">
        <ele>447</ele>
        <time>2021-02-14T11:13:10Z</time>
      </trkpt>
      <trkpt lat="45.86324" lon="3.57119">
        <ele>447</ele>
        <time>2021-02-14T11:13:12Z</time>
      </trkpt>
      <trkpt lat="45.86323" lon="3.57126">
        <ele>447</ele>
        <time>2021-02-14T11:13:16Z</time>
      </trkpt>
      <trkpt lat="45.86322" lon="3.5713">
        <ele>447</ele>
        <time>2021-02-14T11:13:18Z</time>
      </trkpt>
      <trkpt lat="45.8632" lon="3.57133">
        <ele>447</ele>
        <time>2021-02-14T11:13:20Z</time>
      </trkpt>
      <trkpt lat="45.86319" lon="3.57136">
        <ele>446</ele>
        <time>2021-02-14T11:13:22Z</time>
      </trkpt>
      <trkpt lat="45.86317" lon="3.57143">
        <ele>446</ele>
        <time>2021-02-14T11:13:26Z</time>
      </trkpt>
      <trkpt lat="45.86316" lon="3.57148">
        <ele>446</ele>
        <time>2021-02-14T11:13:28Z</time>
      </trkpt>
      <trkpt lat="45.86315" lon="3.57161">
        <ele>445</ele>
        <time>2021-02-14T11:13:36Z</time>
      </trkpt>
      <trkpt lat="45.86316" lon="3.57174">
        <ele>446</ele>
        <time>2021-02-14T11:13:42Z</time>
      </trkpt>
      <trkpt lat="45.86314" lon="3.57187">
        <ele>447</ele>
        <time>2021-02-14T11:13:51Z</time>
      </trkpt>
      <trkpt lat="45.86312" lon="3.57202">
        <ele>447</ele>
        <time>2021-02-14T11:13:57Z</time>
      </trkpt>
      <trkpt lat="45.86309" lon="3.57214">
        <ele>448</ele>
        <time>2021-02-14T11:14:05Z</time>
      </trkpt>
      <trkpt lat="45.86305" lon="3.57226">
        <ele>448</ele>
        <time>2021-02-14T11:14:11Z</time>
      </trkpt>
      <trkpt lat="45.86297" lon="3.57235">
        <ele>448</ele>
        <time>2021-02-14T11:14:18Z</time>
      </trkpt>
      <trkpt lat="45.86292" lon="3.57247">
        <ele>449</ele>
        <time>2021-02-14T11:14:25Z</time>
      </trkpt>
      <trkpt lat="45.86286" lon="3.57258">
        <ele>450</ele>
        <time>2021-02-14T11:14:34Z</time>
      </trkpt>
      <trkpt lat="45.86278" lon="3.57263">
        <ele>448</ele>
        <time>2021-02-14T11:14:39Z</time>
      </trkpt>
      <trkpt lat="45.86268" lon="3.57267">
        <ele>450</ele>
        <time>2021-02-14T11:14:45Z</time>
      </trkpt>
      <trkpt lat="45.8626" lon="3.57273">
        <ele>452</ele>
        <time>2021-02-14T11:14:53Z</time>
      </trkpt>
      <trkpt lat="45.86251" lon="3.57279">
        <ele>453</ele>
        <time>2021-02-14T11:15:01Z</time>
      </trkpt>
      <trkpt lat="45.86249" lon="3.5728">
        <ele>454</ele>
        <time>2021-02-14T11:15:03Z</time>
      </trkpt>
      <trkpt lat="45.86247" lon="3.57282">
        <ele>455</ele>
        <time>2021-02-14T11:15:07Z</time>
      </trkpt>
      <trkpt lat="45.86244" lon="3.57284">
        <ele>456</ele>
        <time>2021-02-14T11:15:09Z</time>
      </trkpt>
      <trkpt lat="45.86244" lon="3.57287">
        <ele>457</ele>
        <time>2021-02-14T11:15:12Z</time>
      </trkpt>
      <trkpt lat="45.86245" lon="3.5729">
        <ele>456</ele>
        <time>2021-02-14T11:15:15Z</time>
      </trkpt>
      <trkpt lat="45.86244" lon="3.57293">
        <ele>456</ele>
        <time>2021-02-14T11:15:19Z</time>
      </trkpt>
      <trkpt lat="45.86243" lon="3.57295">
        <ele>457</ele>
        <time>2021-02-14T11:15:22Z</time>
      </trkpt>
      <trkpt lat="45.86241" lon="3.57297">
        <ele>458</ele>
        <time>2021-02-14T11:15:24Z</time>
      </trkpt>
      <trkpt lat="45.8624" lon="3.57298">
        <ele>458</ele>
        <time>2021-02-14T11:15:27Z</time>
      </trkpt>
      <trkpt lat="45.8624" lon="3.57301">
        <ele>459</ele>
        <time>2021-02-14T11:15:31Z</time>
      </trkpt>
      <trkpt lat="45.86239" lon="3.57305">
        <ele>459</ele>
        <time>2021-02-14T11:15:34Z</time>
      </trkpt>
      <trkpt lat="45.86237" lon="3.57308">
        <ele>460</ele>
        <time>2021-02-14T11:15:36Z</time>
      </trkpt>
      <trkpt lat="45.86236" lon="3.57311">
        <ele>461</ele>
        <time>2021-02-14T11:15:38Z</time>
      </trkpt>
      <trkpt lat="45.86234" lon="3.57313">
        <ele>462</ele>
        <time>2021-02-14T11:15:40Z</time>
      </trkpt>
      <trkpt lat="45.86233" lon="3.57316">
        <ele>463</ele>
        <time>2021-02-14T11:15:43Z</time>
      </trkpt>
      <trkpt lat="45.86231" lon="3.57319">
        <ele>463</ele>
        <time>2021-02-14T11:15:46Z</time>
      </trkpt>
      <trkpt lat="45.86232" lon="3.57321">
        <ele>463</ele>
        <time>2021-02-14T11:15:50Z</time>
      </trkpt>
      <trkpt lat="45.86233" lon="3.57324">
        <ele>463</ele>
        <time>2021-02-14T11:15:52Z</time>
      </trkpt>
      <trkpt lat="45.86234" lon="3.57327">
        <ele>463</ele>
        <time>2021-02-14T11:15:55Z</time>
      </trkpt>
      <trkpt lat="45.86233" lon="3.57332">
        <ele>463</ele>
        <time>2021-02-14T11:15:58Z</time>
      </trkpt>
      <trkpt lat="45.86233" lon="3.57336">
        <ele>463</ele>
        <time>2021-02-14T11:16:00Z</time>
      </trkpt>
      <trkpt lat="45.86232" lon="3.5734">
        <ele>464</ele>
        <time>2021-02-14T11:16:02Z</time>
      </trkpt>
      <trkpt lat="45.86232" lon="3.57343">
        <ele>465</ele>
        <time>2021-02-14T11:16:04Z</time>
      </trkpt>
      <trkpt lat="45.86231" lon="3.57347">
        <ele>465</ele>
        <time>2021-02-14T11:16:06Z</time>
      </trkpt>
      <trkpt lat="45.86231" lon="3.57352">
        <ele>466</ele>
        <time>2021-02-14T11:16:08Z</time>
      </trkpt>
      <trkpt lat="45.86231" lon="3.57355">
        <ele>466</ele>
        <time>2021-02-14T11:16:10Z</time>
      </trkpt>
      <trkpt lat="45.86232" lon="3.57358">
        <ele>466</ele>
        <time>2021-02-14T11:16:13Z</time>
      </trkpt>
      <trkpt lat="45.86233" lon="3.5736">
        <ele>466</ele>
        <time>2021-02-14T11:16:16Z</time>
      </trkpt>
      <trkpt lat="45.86234" lon="3.57363">
        <ele>466</ele>
        <time>2021-02-14T11:16:21Z</time>
      </trkpt>
      <trkpt lat="45.86234" lon="3.57366">
        <ele>466</ele>
        <time>2021-02-14T11:16:24Z</time>
      </trkpt>
      <trkpt lat="45.86235" lon="3.5737">
        <ele>466</ele>
        <time>2021-02-14T11:16:27Z</time>
      </trkpt>
      <trkpt lat="45.86236" lon="3.57373">
        <ele>466</ele>
        <time>2021-02-14T11:16:30Z</time>
      </trkpt>
      <trkpt lat="45.86236" lon="3.57376">
        <ele>467</ele>
        <time>2021-02-14T11:16:32Z</time>
      </trkpt>
      <trkpt lat="45.86236" lon="3.57379">
        <ele>467</ele>
        <time>2021-02-14T11:16:34Z</time>
      </trkpt>
      <trkpt lat="45.86235" lon="3.57382">
        <ele>467</ele>
        <time>2021-02-14T11:16:36Z</time>
      </trkpt>
      <trkpt lat="45.86234" lon="3.57385">
        <ele>468</ele>
        <time>2021-02-14T11:16:39Z</time>
      </trkpt>
      <trkpt lat="45.86233" lon="3.57387">
        <ele>468</ele>
        <time>2021-02-14T11:16:41Z</time>
      </trkpt>
      <trkpt lat="45.86233" lon="3.5739">
        <ele>468</ele>
        <time>2021-02-14T11:16:43Z</time>
      </trkpt>
      <trkpt lat="45.86233" lon="3.57393">
        <ele>468</ele>
        <time>2021-02-14T11:16:46Z</time>
      </trkpt>
      <trkpt lat="45.86232" lon="3.57395">
        <ele>468</ele>
        <time>2021-02-14T11:16:49Z</time>
      </trkpt>
      <trkpt lat="45.8623" lon="3.57396">
        <ele>468</ele>
        <time>2021-02-14T11:16:52Z</time>
      </trkpt>
      <trkpt lat="45.86229" lon="3.57399">
        <ele>468</ele>
        <time>2021-02-14T11:17:01Z</time>
      </trkpt>
      <trkpt lat="45.86229" lon="3.57402">
        <ele>468</ele>
        <time>2021-02-14T11:17:04Z</time>
      </trkpt>
      <trkpt lat="45.86232" lon="3.57403">
        <ele>467</ele>
        <time>2021-02-14T11:17:10Z</time>
      </trkpt>
      <trkpt lat="45.86234" lon="3.57402">
        <ele>467</ele>
        <time>2021-02-14T11:17:13Z</time>
      </trkpt>
      <trkpt lat="45.86236" lon="3.57403">
        <ele>466</ele>
        <time>2021-02-14T11:17:16Z</time>
      </trkpt>
      <trkpt lat="45.86239" lon="3.57405">
        <ele>466</ele>
        <time>2021-02-14T11:17:19Z</time>
      </trkpt>
      <trkpt lat="45.86241" lon="3.57407">
        <ele>465</ele>
        <time>2021-02-14T11:17:21Z</time>
      </trkpt>
      <trkpt lat="45.86243" lon="3.5741">
        <ele>464</ele>
        <time>2021-02-14T11:17:23Z</time>
      </trkpt>
      <trkpt lat="45.86245" lon="3.57412">
        <ele>464</ele>
        <time>2021-02-14T11:17:25Z</time>
      </trkpt>
      <trkpt lat="45.86248" lon="3.57414">
        <ele>463</ele>
        <time>2021-02-14T11:17:27Z</time>
      </trkpt>
      <trkpt lat="45.8625" lon="3.57415">
        <ele>462</ele>
        <time>2021-02-14T11:17:29Z</time>
      </trkpt>
      <trkpt lat="45.86253" lon="3.57418">
        <ele>462</ele>
        <time>2021-02-14T11:17:31Z</time>
      </trkpt>
      <trkpt lat="45.86254" lon="3.5742">
        <ele>461</ele>
        <time>2021-02-14T11:17:33Z</time>
      </trkpt>
      <trkpt lat="45.86256" lon="3.57422">
        <ele>461</ele>
        <time>2021-02-14T11:17:36Z</time>
      </trkpt>
      <trkpt lat="45.86259" lon="3.57423">
        <ele>461</ele>
        <time>2021-02-14T11:17:38Z</time>
      </trkpt>
      <trkpt lat="45.86262" lon="3.57426">
        <ele>461</ele>
        <time>2021-02-14T11:17:40Z</time>
      </trkpt>
      <trkpt lat="45.86264" lon="3.57429">
        <ele>461</ele>
        <time>2021-02-14T11:17:41Z</time>
      </trkpt>
      <trkpt lat="45.86266" lon="3.57432">
        <ele>460</ele>
        <time>2021-02-14T11:17:42Z</time>
      </trkpt>
      <trkpt lat="45.86268" lon="3.57434">
        <ele>460</ele>
        <time>2021-02-14T11:17:43Z</time>
      </trkpt>
      <trkpt lat="45.8627" lon="3.57438">
        <ele>460</ele>
        <time>2021-02-14T11:17:45Z</time>
      </trkpt>
      <trkpt lat="45.86272" lon="3.57439">
        <ele>459</ele>
        <time>2021-02-14T11:17:47Z</time>
      </trkpt>
      <trkpt lat="45.86274" lon="3.57441">
        <ele>459</ele>
        <time>2021-02-14T11:17:49Z</time>
      </trkpt>
      <trkpt lat="45.86276" lon="3.57442">
        <ele>459</ele>
        <time>2021-02-14T11:17:51Z</time>
      </trkpt>
      <trkpt lat="45.8628" lon="3.57445">
        <ele>459</ele>
        <time>2021-02-14T11:17:53Z</time>
      </trkpt>
      <trkpt lat="45.86284" lon="3.57446">
        <ele>459</ele>
        <time>2021-02-14T11:17:56Z</time>
      </trkpt>
      <trkpt lat="45.86283" lon="3.57449">
        <ele>459</ele>
        <time>2021-02-14T11:17:59Z</time>
      </trkpt>
      <trkpt lat="45.86289" lon="3.57457">
        <ele>460</ele>
        <time>2021-02-14T11:18:06Z</time>
      </trkpt>
      <trkpt lat="45.8629" lon="3.57459">
        <ele>460</ele>
        <time>2021-02-14T11:18:13Z</time>
      </trkpt>
      <trkpt lat="45.86292" lon="3.57459">
        <ele>460</ele>
        <time>2021-02-14T11:18:18Z</time>
      </trkpt>
      <trkpt lat="45.86294" lon="3.57459">
        <ele>460</ele>
        <time>2021-02-14T11:18:21Z</time>
      </trkpt>
      <trkpt lat="45.86296" lon="3.57457">
        <ele>461</ele>
        <time>2021-02-14T11:18:23Z</time>
      </trkpt>
      <trkpt lat="45.86299" lon="3.57457">
        <ele>461</ele>
        <time>2021-02-14T11:18:25Z</time>
      </trkpt>
      <trkpt lat="45.86301" lon="3.57457">
        <ele>461</ele>
        <time>2021-02-14T11:18:27Z</time>
      </trkpt>
      <trkpt lat="45.86303" lon="3.57456">
        <ele>461</ele>
        <time>2021-02-14T11:18:29Z</time>
      </trkpt>
      <trkpt lat="45.86305" lon="3.57455">
        <ele>462</ele>
        <time>2021-02-14T11:18:31Z</time>
      </trkpt>
      <trkpt lat="45.86307" lon="3.57453">
        <ele>462</ele>
        <time>2021-02-14T11:18:33Z</time>
      </trkpt>
      <trkpt lat="45.86308" lon="3.5745">
        <ele>463</ele>
        <time>2021-02-14T11:18:36Z</time>
      </trkpt>
      <trkpt lat="45.86309" lon="3.57447">
        <ele>464</ele>
        <time>2021-02-14T11:18:38Z</time>
      </trkpt>
      <trkpt lat="45.86311" lon="3.57444">
        <ele>464</ele>
        <time>2021-02-14T11:18:41Z</time>
      </trkpt>
      <trkpt lat="45.86313" lon="3.57443">
        <ele>465</ele>
        <time>2021-02-14T11:18:44Z</time>
      </trkpt>
      <trkpt lat="45.86315" lon="3.57443">
        <ele>465</ele>
        <time>2021-02-14T11:18:47Z</time>
      </trkpt>
      <trkpt lat="45.86317" lon="3.57443">
        <ele>465</ele>
        <time>2021-02-14T11:18:50Z</time>
      </trkpt>
      <trkpt lat="45.86318" lon="3.57444">
        <ele>465</ele>
        <time>2021-02-14T11:18:53Z</time>
      </trkpt>
      <trkpt lat="45.86321" lon="3.57443">
        <ele>466</ele>
        <time>2021-02-14T11:18:58Z</time>
      </trkpt>
      <trkpt lat="45.86322" lon="3.57445">
        <ele>466</ele>
        <time>2021-02-14T11:19:02Z</time>
      </trkpt>
      <trkpt lat="45.86326" lon="3.5745">
        <ele>466</ele>
        <time>2021-02-14T11:19:06Z</time>
      </trkpt>
      <trkpt lat="45.86328" lon="3.57452">
        <ele>466</ele>
        <time>2021-02-14T11:19:09Z</time>
      </trkpt>
      <trkpt lat="45.86336" lon="3.5746">
        <ele>467</ele>
        <time>2021-02-14T11:19:19Z</time>
      </trkpt>
      <trkpt lat="45.86343" lon="3.57471">
        <ele>470</ele>
        <time>2021-02-14T11:19:30Z</time>
      </trkpt>
      <trkpt lat="45.86346" lon="3.57485">
        <ele>472</ele>
        <time>2021-02-14T11:19:39Z</time>
      </trkpt>
      <trkpt lat="45.86344" lon="3.57486">
        <ele>471</ele>
        <time>2021-02-14T11:19:41Z</time>
      </trkpt>
      <trkpt lat="45.86342" lon="3.57489">
        <ele>470</ele>
        <time>2021-02-14T11:19:43Z</time>
      </trkpt>
      <trkpt lat="45.86341" lon="3.57491">
        <ele>469</ele>
        <time>2021-02-14T11:19:45Z</time>
      </trkpt>
      <trkpt lat="45.86342" lon="3.57494">
        <ele>470</ele>
        <time>2021-02-14T11:19:47Z</time>
      </trkpt>
      <trkpt lat="45.86341" lon="3.57498">
        <ele>469</ele>
        <time>2021-02-14T11:19:49Z</time>
      </trkpt>
      <trkpt lat="45.8634" lon="3.575">
        <ele>469</ele>
        <time>2021-02-14T11:19:51Z</time>
      </trkpt>
      <trkpt lat="45.8634" lon="3.57503">
        <ele>469</ele>
        <time>2021-02-14T11:19:53Z</time>
      </trkpt>
      <trkpt lat="45.86339" lon="3.57506">
        <ele>468</ele>
        <time>2021-02-14T11:19:55Z</time>
      </trkpt>
      <trkpt lat="45.8634" lon="3.57509">
        <ele>469</ele>
        <time>2021-02-14T11:19:58Z</time>
      </trkpt>
      <trkpt lat="45.86341" lon="3.57512">
        <ele>470</ele>
        <time>2021-02-14T11:20:02Z</time>
      </trkpt>
      <trkpt lat="45.86341" lon="3.57515">
        <ele>470</ele>
        <time>2021-02-14T11:20:04Z</time>
      </trkpt>
      <trkpt lat="45.86342" lon="3.57518">
        <ele>471</ele>
        <time>2021-02-14T11:20:06Z</time>
      </trkpt>
      <trkpt lat="45.86343" lon="3.57522">
        <ele>471</ele>
        <time>2021-02-14T11:20:08Z</time>
      </trkpt>
      <trkpt lat="45.86343" lon="3.57525">
        <ele>471</ele>
        <time>2021-02-14T11:20:11Z</time>
      </trkpt>
      <trkpt lat="45.86342" lon="3.57528">
        <ele>471</ele>
        <time>2021-02-14T11:20:17Z</time>
      </trkpt>
      <trkpt lat="45.86343" lon="3.5753">
        <ele>472</ele>
        <time>2021-02-14T11:20:21Z</time>
      </trkpt>
      <trkpt lat="45.86344" lon="3.57532">
        <ele>473</ele>
        <time>2021-02-14T11:20:25Z</time>
      </trkpt>
      <trkpt lat="45.86344" lon="3.57536">
        <ele>474</ele>
        <time>2021-02-14T11:20:28Z</time>
      </trkpt>
      <trkpt lat="45.86343" lon="3.5755">
        <ele>475</ele>
        <time>2021-02-14T11:20:40Z</time>
      </trkpt>
      <trkpt lat="45.86343" lon="3.57563">
        <ele>476</ele>
        <time>2021-02-14T11:20:46Z</time>
      </trkpt>
      <trkpt lat="45.8634" lon="3.57576">
        <ele>475</ele>
        <time>2021-02-14T11:20:53Z</time>
      </trkpt>
      <trkpt lat="45.86338" lon="3.57585">
        <ele>474</ele>
        <time>2021-02-14T11:20:58Z</time>
      </trkpt>
      <trkpt lat="45.86337" lon="3.5759">
        <ele>474</ele>
        <time>2021-02-14T11:21:01Z</time>
      </trkpt>
      <trkpt lat="45.86337" lon="3.57604">
        <ele>474</ele>
        <time>2021-02-14T11:21:08Z</time>
      </trkpt>
      <trkpt lat="45.86338" lon="3.5761">
        <ele>475</ele>
        <time>2021-02-14T11:21:11Z</time>
      </trkpt>
      <trkpt lat="45.86339" lon="3.57619">
        <ele>476</ele>
        <time>2021-02-14T11:21:15Z</time>
      </trkpt>
      <trkpt lat="45.86339" lon="3.57625">
        <ele>476</ele>
        <time>2021-02-14T11:21:18Z</time>
      </trkpt>
      <trkpt lat="45.86339" lon="3.57628">
        <ele>476</ele>
        <time>2021-02-14T11:21:20Z</time>
      </trkpt>
      <trkpt lat="45.86339" lon="3.57631">
        <ele>476</ele>
        <time>2021-02-14T11:21:24Z</time>
      </trkpt>
      <trkpt lat="45.86338" lon="3.57634">
        <ele>476</ele>
        <time>2021-02-14T11:21:28Z</time>
      </trkpt>
      <trkpt lat="45.86339" lon="3.57637">
        <ele>477</ele>
        <time>2021-02-14T11:21:31Z</time>
      </trkpt>
      <trkpt lat="45.86339" lon="3.5764">
        <ele>477</ele>
        <time>2021-02-14T11:21:36Z</time>
      </trkpt>
      <trkpt lat="45.86341" lon="3.57643">
        <ele>478</ele>
        <time>2021-02-14T11:21:39Z</time>
      </trkpt>
      <trkpt lat="45.86342" lon="3.57647">
        <ele>478</ele>
        <time>2021-02-14T11:21:41Z</time>
      </trkpt>
      <trkpt lat="45.86343" lon="3.57652">
        <ele>479</ele>
        <time>2021-02-14T11:21:43Z</time>
      </trkpt>
      <trkpt lat="45.86345" lon="3.57655">
        <ele>479</ele>
        <time>2021-02-14T11:21:45Z</time>
      </trkpt>
      <trkpt lat="45.86342" lon="3.57669">
        <ele>479</ele>
        <time>2021-02-14T11:21:53Z</time>
      </trkpt>
      <trkpt lat="45.86341" lon="3.57672">
        <ele>478</ele>
        <time>2021-02-14T11:21:54Z</time>
      </trkpt>
      <trkpt lat="45.8634" lon="3.57674">
        <ele>478</ele>
        <time>2021-02-14T11:21:55Z</time>
      </trkpt>
      <trkpt lat="45.86339" lon="3.57678">
        <ele>478</ele>
        <time>2021-02-14T11:21:57Z</time>
      </trkpt>
      <trkpt lat="45.86337" lon="3.57682">
        <ele>477</ele>
        <time>2021-02-14T11:21:59Z</time>
      </trkpt>
      <trkpt lat="45.86336" lon="3.57685">
        <ele>476</ele>
        <time>2021-02-14T11:22:01Z</time>
      </trkpt>
      <trkpt lat="45.86336" lon="3.57689">
        <ele>476</ele>
        <time>2021-02-14T11:22:03Z</time>
      </trkpt>
      <trkpt lat="45.86337" lon="3.57702">
        <ele>479</ele>
        <time>2021-02-14T11:22:11Z</time>
      </trkpt>
      <trkpt lat="45.86338" lon="3.5771">
        <ele>481</ele>
        <time>2021-02-14T11:22:16Z</time>
      </trkpt>
      <trkpt lat="45.86338" lon="3.57713">
        <ele>482</ele>
        <time>2021-02-14T11:22:18Z</time>
      </trkpt>
      <trkpt lat="45.86338" lon="3.57716">
        <ele>482</ele>
        <time>2021-02-14T11:22:20Z</time>
      </trkpt>
      <trkpt lat="45.8634" lon="3.57718">
        <ele>483</ele>
        <time>2021-02-14T11:22:21Z</time>
      </trkpt>
      <trkpt lat="45.8634" lon="3.57721">
        <ele>484</ele>
        <time>2021-02-14T11:22:23Z</time>
      </trkpt>
      <trkpt lat="45.86341" lon="3.57723">
        <ele>485</ele>
        <time>2021-02-14T11:22:25Z</time>
      </trkpt>
      <trkpt lat="45.8634" lon="3.57727">
        <ele>485</ele>
        <time>2021-02-14T11:22:27Z</time>
      </trkpt>
      <trkpt lat="45.8634" lon="3.5773">
        <ele>485</ele>
        <time>2021-02-14T11:22:29Z</time>
      </trkpt>
      <trkpt lat="45.8634" lon="3.57733">
        <ele>485</ele>
        <time>2021-02-14T11:22:32Z</time>
      </trkpt>
      <trkpt lat="45.8634" lon="3.57736">
        <ele>485</ele>
        <time>2021-02-14T11:22:34Z</time>
      </trkpt>
      <trkpt lat="45.86337" lon="3.57749">
        <ele>484</ele>
        <time>2021-02-14T11:22:44Z</time>
      </trkpt>
      <trkpt lat="45.86336" lon="3.57758">
        <ele>484</ele>
        <time>2021-02-14T11:22:52Z</time>
      </trkpt>
      <trkpt lat="45.86336" lon="3.57761">
        <ele>483</ele>
        <time>2021-02-14T11:22:54Z</time>
      </trkpt>
      <trkpt lat="45.86335" lon="3.57763">
        <ele>483</ele>
        <time>2021-02-14T11:22:56Z</time>
      </trkpt>
      <trkpt lat="45.86335" lon="3.57766">
        <ele>483</ele>
        <time>2021-02-14T11:22:58Z</time>
      </trkpt>
      <trkpt lat="45.86334" lon="3.57769">
        <ele>482</ele>
        <time>2021-02-14T11:23:00Z</time>
      </trkpt>
      <trkpt lat="45.86334" lon="3.57772">
        <ele>482</ele>
        <time>2021-02-14T11:23:07Z</time>
      </trkpt>
      <trkpt lat="45.86334" lon="3.57775">
        <ele>482</ele>
        <time>2021-02-14T11:23:09Z</time>
      </trkpt>
      <trkpt lat="45.86334" lon="3.57778">
        <ele>482</ele>
        <time>2021-02-14T11:23:11Z</time>
      </trkpt>
      <trkpt lat="45.86334" lon="3.57781">
        <ele>482</ele>
        <time>2021-02-14T11:23:13Z</time>
      </trkpt>
      <trkpt lat="45.86335" lon="3.57784">
        <ele>482</ele>
        <time>2021-02-14T11:23:15Z</time>
      </trkpt>
      <trkpt lat="45.86336" lon="3.57786">
        <ele>483</ele>
        <time>2021-02-14T11:23:17Z</time>
      </trkpt>
      <trkpt lat="45.86337" lon="3.57789">
        <ele>483</ele>
        <time>2021-02-14T11:23:19Z</time>
      </trkpt>
      <trkpt lat="45.86339" lon="3.57791">
        <ele>484</ele>
        <time>2021-02-14T11:23:21Z</time>
      </trkpt>
      <trkpt lat="45.86339" lon="3.57794">
        <ele>484</ele>
        <time>2021-02-14T11:23:23Z</time>
      </trkpt>
      <trkpt lat="45.8634" lon="3.57796">
        <ele>484</ele>
        <time>2021-02-14T11:23:25Z</time>
      </trkpt>
      <trkpt lat="45.86341" lon="3.57801">
        <ele>485</ele>
        <time>2021-02-14T11:23:29Z</time>
      </trkpt>
      <trkpt lat="45.86343" lon="3.57806">
        <ele>486</ele>
        <time>2021-02-14T11:23:33Z</time>
      </trkpt>
      <trkpt lat="45.86343" lon="3.57809">
        <ele>486</ele>
        <time>2021-02-14T11:23:35Z</time>
      </trkpt>
      <trkpt lat="45.86347" lon="3.57815">
        <ele>488</ele>
        <time>2021-02-14T11:23:42Z</time>
      </trkpt>
      <trkpt lat="45.86347" lon="3.5782">
        <ele>488</ele>
        <time>2021-02-14T11:23:46Z</time>
      </trkpt>
      <trkpt lat="45.86347" lon="3.57823">
        <ele>488</ele>
        <time>2021-02-14T11:23:54Z</time>
      </trkpt>
      <trkpt lat="45.8635" lon="3.57836">
        <ele>489</ele>
        <time>2021-02-14T11:24:07Z</time>
      </trkpt>
      <trkpt lat="45.86353" lon="3.57842">
        <ele>491</ele>
        <time>2021-02-14T11:24:12Z</time>
      </trkpt>
      <trkpt lat="45.86354" lon="3.57845">
        <ele>491</ele>
        <time>2021-02-14T11:24:14Z</time>
      </trkpt>
      <trkpt lat="45.86355" lon="3.57847">
        <ele>492</ele>
        <time>2021-02-14T11:24:16Z</time>
      </trkpt>
      <trkpt lat="45.86356" lon="3.5785">
        <ele>492</ele>
        <time>2021-02-14T11:24:18Z</time>
      </trkpt>
      <trkpt lat="45.86356" lon="3.57853">
        <ele>493</ele>
        <time>2021-02-14T11:24:21Z</time>
      </trkpt>
      <trkpt lat="45.86356" lon="3.57856">
        <ele>493</ele>
        <time>2021-02-14T11:24:24Z</time>
      </trkpt>
      <trkpt lat="45.86356" lon="3.57859">
        <ele>494</ele>
        <time>2021-02-14T11:24:27Z</time>
      </trkpt>
      <trkpt lat="45.86356" lon="3.57862">
        <ele>494</ele>
        <time>2021-02-14T11:24:30Z</time>
      </trkpt>
      <trkpt lat="45.86357" lon="3.57865">
        <ele>495</ele>
        <time>2021-02-14T11:24:33Z</time>
      </trkpt>
      <trkpt lat="45.86358" lon="3.57868">
        <ele>496</ele>
        <time>2021-02-14T11:24:37Z</time>
      </trkpt>
      <trkpt lat="45.86358" lon="3.57872">
        <ele>496</ele>
        <time>2021-02-14T11:24:40Z</time>
      </trkpt>
      <trkpt lat="45.86357" lon="3.57879">
        <ele>497</ele>
        <time>2021-02-14T11:24:46Z</time>
      </trkpt>
      <trkpt lat="45.86358" lon="3.57881">
        <ele>497</ele>
        <time>2021-02-14T11:24:48Z</time>
      </trkpt>
      <trkpt lat="45.86358" lon="3.57884">
        <ele>498</ele>
        <time>2021-02-14T11:24:50Z</time>
      </trkpt>
      <trkpt lat="45.86357" lon="3.57897">
        <ele>499</ele>
        <time>2021-02-14T11:24:58Z</time>
      </trkpt>
      <trkpt lat="45.86355" lon="3.57908">
        <ele>499</ele>
        <time>2021-02-14T11:25:07Z</time>
      </trkpt>
      <trkpt lat="45.86355" lon="3.57911">
        <ele>499</ele>
        <time>2021-02-14T11:25:11Z</time>
      </trkpt>
      <trkpt lat="45.86355" lon="3.57914">
        <ele>499</ele>
        <time>2021-02-14T11:25:15Z</time>
      </trkpt>
      <trkpt lat="45.86356" lon="3.57916">
        <ele>499</ele>
        <time>2021-02-14T11:25:17Z</time>
      </trkpt>
      <trkpt lat="45.86355" lon="3.57919">
        <ele>499</ele>
        <time>2021-02-14T11:25:20Z</time>
      </trkpt>
      <trkpt lat="45.86355" lon="3.57922">
        <ele>500</ele>
        <time>2021-02-14T11:25:23Z</time>
      </trkpt>
      <trkpt lat="45.86355" lon="3.57926">
        <ele>500</ele>
        <time>2021-02-14T11:25:25Z</time>
      </trkpt>
      <trkpt lat="45.86355" lon="3.5793">
        <ele>500</ele>
        <time>2021-02-14T11:25:30Z</time>
      </trkpt>
      <trkpt lat="45.8635" lon="3.57941">
        <ele>499</ele>
        <time>2021-02-14T11:25:44Z</time>
      </trkpt>
      <trkpt lat="45.86348" lon="3.57955">
        <ele>502</ele>
        <time>2021-02-14T11:25:54Z</time>
      </trkpt>
      <trkpt lat="45.86347" lon="3.57959">
        <ele>502</ele>
        <time>2021-02-14T11:25:57Z</time>
      </trkpt>
      <trkpt lat="45.86347" lon="3.57962">
        <ele>503</ele>
        <time>2021-02-14T11:25:59Z</time>
      </trkpt>
      <trkpt lat="45.86347" lon="3.57966">
        <ele>505</ele>
        <time>2021-02-14T11:26:02Z</time>
      </trkpt>
      <trkpt lat="45.86347" lon="3.57979">
        <ele>509</ele>
        <time>2021-02-14T11:26:14Z</time>
      </trkpt>
      <trkpt lat="45.86344" lon="3.5798">
        <ele>508</ele>
        <time>2021-02-14T11:26:18Z</time>
      </trkpt>
      <trkpt lat="45.86343" lon="3.57982">
        <ele>509</ele>
        <time>2021-02-14T11:26:21Z</time>
      </trkpt>
      <trkpt lat="45.86341" lon="3.57985">
        <ele>510</ele>
        <time>2021-02-14T11:26:24Z</time>
      </trkpt>
      <trkpt lat="45.8634" lon="3.57989">
        <ele>511</ele>
        <time>2021-02-14T11:26:28Z</time>
      </trkpt>
      <trkpt lat="45.86338" lon="3.57991">
        <ele>512</ele>
        <time>2021-02-14T11:26:31Z</time>
      </trkpt>
      <trkpt lat="45.86337" lon="3.57994">
        <ele>513</ele>
        <time>2021-02-14T11:26:33Z</time>
      </trkpt>
      <trkpt lat="45.86336" lon="3.57996">
        <ele>513</ele>
        <time>2021-02-14T11:26:35Z</time>
      </trkpt>
      <trkpt lat="45.86335" lon="3.57999">
        <ele>514</ele>
        <time>2021-02-14T11:26:38Z</time>
      </trkpt>
      <trkpt lat="45.8633" lon="3.58005">
        <ele>514</ele>
        <time>2021-02-14T11:26:47Z</time>
      </trkpt>
      <trkpt lat="45.86328" lon="3.58007">
        <ele>513</ele>
        <time>2021-02-14T11:26:49Z</time>
      </trkpt>
      <trkpt lat="45.86325" lon="3.58008">
        <ele>512</ele>
        <time>2021-02-14T11:26:51Z</time>
      </trkpt>
      <trkpt lat="45.86323" lon="3.5801">
        <ele>512</ele>
        <time>2021-02-14T11:26:53Z</time>
      </trkpt>
      <trkpt lat="45.86321" lon="3.58012">
        <ele>512</ele>
        <time>2021-02-14T11:26:55Z</time>
      </trkpt>
      <trkpt lat="45.8632" lon="3.58014">
        <ele>512</ele>
        <time>2021-02-14T11:26:57Z</time>
      </trkpt>
      <trkpt lat="45.86318" lon="3.58016">
        <ele>511</ele>
        <time>2021-02-14T11:26:59Z</time>
      </trkpt>
      <trkpt lat="45.86316" lon="3.58017">
        <ele>511</ele>
        <time>2021-02-14T11:27:02Z</time>
      </trkpt>
      <trkpt lat="45.86314" lon="3.58018">
        <ele>511</ele>
        <time>2021-02-14T11:27:05Z</time>
      </trkpt>
      <trkpt lat="45.86312" lon="3.5802">
        <ele>510</ele>
        <time>2021-02-14T11:27:07Z</time>
      </trkpt>
      <trkpt lat="45.86311" lon="3.5802">
        <ele>510</ele>
        <time>2021-02-14T11:27:10Z</time>
      </trkpt>
      <trkpt lat="45.86309" lon="3.5802">
        <ele>509</ele>
        <time>2021-02-14T11:27:12Z</time>
      </trkpt>
      <trkpt lat="45.86305" lon="3.58024">
        <ele>509</ele>
        <time>2021-02-14T11:27:18Z</time>
      </trkpt>
      <trkpt lat="45.86303" lon="3.58026">
        <ele>509</ele>
        <time>2021-02-14T11:27:20Z</time>
      </trkpt>
      <trkpt lat="45.86301" lon="3.58028">
        <ele>509</ele>
        <time>2021-02-14T11:27:22Z</time>
      </trkpt>
      <trkpt lat="45.86299" lon="3.5803">
        <ele>509</ele>
        <time>2021-02-14T11:27:24Z</time>
      </trkpt>
      <trkpt lat="45.86298" lon="3.58033">
        <ele>509</ele>
        <time>2021-02-14T11:27:27Z</time>
      </trkpt>
      <trkpt lat="45.86297" lon="3.58036">
        <ele>509</ele>
        <time>2021-02-14T11:27:30Z</time>
      </trkpt>
      <trkpt lat="45.86296" lon="3.58039">
        <ele>509</ele>
        <time>2021-02-14T11:27:33Z</time>
      </trkpt>
      <trkpt lat="45.86295" lon="3.58042">
        <ele>509</ele>
        <time>2021-02-14T11:27:35Z</time>
      </trkpt>
      <trkpt lat="45.86296" lon="3.58044">
        <ele>509</ele>
        <time>2021-02-14T11:27:37Z</time>
      </trkpt>
      <trkpt lat="45.86296" lon="3.58047">
        <ele>510</ele>
        <time>2021-02-14T11:27:39Z</time>
      </trkpt>
      <trkpt lat="45.86296" lon="3.5805">
        <ele>510</ele>
        <time>2021-02-14T11:27:41Z</time>
      </trkpt>
      <trkpt lat="45.86297" lon="3.58052">
        <ele>511</ele>
        <time>2021-02-14T11:27:43Z</time>
      </trkpt>
      <trkpt lat="45.86297" lon="3.58056">
        <ele>511</ele>
        <time>2021-02-14T11:27:46Z</time>
      </trkpt>
      <trkpt lat="45.86296" lon="3.58058">
        <ele>511</ele>
        <time>2021-02-14T11:27:48Z</time>
      </trkpt>
      <trkpt lat="45.86294" lon="3.5806">
        <ele>510</ele>
        <time>2021-02-14T11:27:54Z</time>
      </trkpt>
      <trkpt lat="45.86294" lon="3.58063">
        <ele>510</ele>
        <time>2021-02-14T11:27:57Z</time>
      </trkpt>
      <trkpt lat="45.86293" lon="3.58066">
        <ele>510</ele>
        <time>2021-02-14T11:28:00Z</time>
      </trkpt>
      <trkpt lat="45.86294" lon="3.58069">
        <ele>510</ele>
        <time>2021-02-14T11:28:02Z</time>
      </trkpt>
      <trkpt lat="45.86295" lon="3.58073">
        <ele>510</ele>
        <time>2021-02-14T11:28:05Z</time>
      </trkpt>
      <trkpt lat="45.86295" lon="3.58076">
        <ele>510</ele>
        <time>2021-02-14T11:28:07Z</time>
      </trkpt>
      <trkpt lat="45.86294" lon="3.58079">
        <ele>510</ele>
        <time>2021-02-14T11:28:09Z</time>
      </trkpt>
      <trkpt lat="45.86293" lon="3.58082">
        <ele>510</ele>
        <time>2021-02-14T11:28:11Z</time>
      </trkpt>
      <trkpt lat="45.86291" lon="3.58084">
        <ele>510</ele>
        <time>2021-02-14T11:28:13Z</time>
      </trkpt>
      <trkpt lat="45.86289" lon="3.58084">
        <ele>509</ele>
        <time>2021-02-14T11:28:16Z</time>
      </trkpt>
      <trkpt lat="45.86286" lon="3.58084">
        <ele>509</ele>
        <time>2021-02-14T11:28:18Z</time>
      </trkpt>
      <trkpt lat="45.86284" lon="3.58082">
        <ele>509</ele>
        <time>2021-02-14T11:28:20Z</time>
      </trkpt>
      <trkpt lat="45.86281" lon="3.58082">
        <ele>508</ele>
        <time>2021-02-14T11:28:22Z</time>
      </trkpt>
      <trkpt lat="45.86279" lon="3.5808">
        <ele>508</ele>
        <time>2021-02-14T11:28:24Z</time>
      </trkpt>
      <trkpt lat="45.86277" lon="3.58078">
        <ele>507</ele>
        <time>2021-02-14T11:28:26Z</time>
      </trkpt>
      <trkpt lat="45.86276" lon="3.58076">
        <ele>507</ele>
        <time>2021-02-14T11:28:28Z</time>
      </trkpt>
      <trkpt lat="45.86273" lon="3.58075">
        <ele>506</ele>
        <time>2021-02-14T11:28:30Z</time>
      </trkpt>
      <trkpt lat="45.86271" lon="3.58073">
        <ele>506</ele>
        <time>2021-02-14T11:28:32Z</time>
      </trkpt>
      <trkpt lat="45.86268" lon="3.58071">
        <ele>505</ele>
        <time>2021-02-14T11:28:34Z</time>
      </trkpt>
      <trkpt lat="45.86265" lon="3.58069">
        <ele>505</ele>
        <time>2021-02-14T11:28:36Z</time>
      </trkpt>
      <trkpt lat="45.86263" lon="3.58067">
        <ele>504</ele>
        <time>2021-02-14T11:28:37Z</time>
      </trkpt>
      <trkpt lat="45.8626" lon="3.58065">
        <ele>504</ele>
        <time>2021-02-14T11:28:39Z</time>
      </trkpt>
      <trkpt lat="45.86257" lon="3.58062">
        <ele>503</ele>
        <time>2021-02-14T11:28:41Z</time>
      </trkpt>
      <trkpt lat="45.86255" lon="3.58061">
        <ele>503</ele>
        <time>2021-02-14T11:28:42Z</time>
      </trkpt>
      <trkpt lat="45.86253" lon="3.58058">
        <ele>503</ele>
        <time>2021-02-14T11:28:44Z</time>
      </trkpt>
      <trkpt lat="45.86251" lon="3.58056">
        <ele>503</ele>
        <time>2021-02-14T11:28:46Z</time>
      </trkpt>
      <trkpt lat="45.86248" lon="3.58053">
        <ele>502</ele>
        <time>2021-02-14T11:28:48Z</time>
      </trkpt>
      <trkpt lat="45.86246" lon="3.58051">
        <ele>502</ele>
        <time>2021-02-14T11:28:50Z</time>
      </trkpt>
      <trkpt lat="45.86244" lon="3.58049">
        <ele>501</ele>
        <time>2021-02-14T11:28:52Z</time>
      </trkpt>
      <trkpt lat="45.86242" lon="3.58046">
        <ele>501</ele>
        <time>2021-02-14T11:28:55Z</time>
      </trkpt>
      <trkpt lat="45.86241" lon="3.58044">
        <ele>500</ele>
        <time>2021-02-14T11:28:57Z</time>
      </trkpt>
      <trkpt lat="45.8624" lon="3.58041">
        <ele>500</ele>
        <time>2021-02-14T11:28:59Z</time>
      </trkpt>
      <trkpt lat="45.86238" lon="3.5804">
        <ele>500</ele>
        <time>2021-02-14T11:29:01Z</time>
      </trkpt>
      <trkpt lat="45.86236" lon="3.58039">
        <ele>499</ele>
        <time>2021-02-14T11:29:03Z</time>
      </trkpt>
      <trkpt lat="45.86234" lon="3.58036">
        <ele>499</ele>
        <time>2021-02-14T11:29:05Z</time>
      </trkpt>
      <trkpt lat="45.86231" lon="3.58034">
        <ele>499</ele>
        <time>2021-02-14T11:29:07Z</time>
      </trkpt>
      <trkpt lat="45.86228" lon="3.58032">
        <ele>498</ele>
        <time>2021-02-14T11:29:09Z</time>
      </trkpt>
      <trkpt lat="45.86226" lon="3.5803">
        <ele>498</ele>
        <time>2021-02-14T11:29:11Z</time>
      </trkpt>
      <trkpt lat="45.86224" lon="3.58028">
        <ele>498</ele>
        <time>2021-02-14T11:29:13Z</time>
      </trkpt>
      <trkpt lat="45.86221" lon="3.58025">
        <ele>497</ele>
        <time>2021-02-14T11:29:15Z</time>
      </trkpt>
      <trkpt lat="45.86219" lon="3.58022">
        <ele>497</ele>
        <time>2021-02-14T11:29:17Z</time>
      </trkpt>
      <trkpt lat="45.86217" lon="3.5802">
        <ele>496</ele>
        <time>2021-02-14T11:29:19Z</time>
      </trkpt>
      <trkpt lat="45.86214" lon="3.58019">
        <ele>496</ele>
        <time>2021-02-14T11:29:21Z</time>
      </trkpt>
      <trkpt lat="45.86211" lon="3.58017">
        <ele>496</ele>
        <time>2021-02-14T11:29:23Z</time>
      </trkpt>
      <trkpt lat="45.86209" lon="3.58016">
        <ele>496</ele>
        <time>2021-02-14T11:29:25Z</time>
      </trkpt>
      <trkpt lat="45.86206" lon="3.58015">
        <ele>496</ele>
        <time>2021-02-14T11:29:27Z</time>
      </trkpt>
      <trkpt lat="45.86204" lon="3.58016">
        <ele>496</ele>
        <time>2021-02-14T11:29:29Z</time>
      </trkpt>
      <trkpt lat="45.86203" lon="3.58018">
        <ele>496</ele>
        <time>2021-02-14T11:29:31Z</time>
      </trkpt>
      <trkpt lat="45.86202" lon="3.5802">
        <ele>496</ele>
        <time>2021-02-14T11:29:33Z</time>
      </trkpt>
      <trkpt lat="45.862" lon="3.58019">
        <ele>496</ele>
        <time>2021-02-14T11:29:36Z</time>
      </trkpt>
      <trkpt lat="45.86199" lon="3.58014">
        <ele>496</ele>
        <time>2021-02-14T11:29:38Z</time>
      </trkpt>
      <trkpt lat="45.862" lon="3.5801">
        <ele>496</ele>
        <time>2021-02-14T11:29:40Z</time>
      </trkpt>
      <trkpt lat="45.86201" lon="3.58006">
        <ele>495</ele>
        <time>2021-02-14T11:29:42Z</time>
      </trkpt>
      <trkpt lat="45.86203" lon="3.58002">
        <ele>495</ele>
        <time>2021-02-14T11:29:44Z</time>
      </trkpt>
      <trkpt lat="45.86205" lon="3.57998">
        <ele>495</ele>
        <time>2021-02-14T11:29:46Z</time>
      </trkpt>
      <trkpt lat="45.86207" lon="3.57995">
        <ele>495</ele>
        <time>2021-02-14T11:29:48Z</time>
      </trkpt>
      <trkpt lat="45.86209" lon="3.57992">
        <ele>495</ele>
        <time>2021-02-14T11:29:50Z</time>
      </trkpt>
      <trkpt lat="45.86211" lon="3.5799">
        <ele>495</ele>
        <time>2021-02-14T11:29:52Z</time>
      </trkpt>
      <trkpt lat="45.86214" lon="3.57988">
        <ele>494</ele>
        <time>2021-02-14T11:29:54Z</time>
      </trkpt>
      <trkpt lat="45.86217" lon="3.57986">
        <ele>494</ele>
        <time>2021-02-14T11:29:56Z</time>
      </trkpt>
      <trkpt lat="45.86219" lon="3.57986">
        <ele>494</ele>
        <time>2021-02-14T11:29:57Z</time>
      </trkpt>
      <trkpt lat="45.86221" lon="3.57985">
        <ele>494</ele>
        <time>2021-02-14T11:29:58Z</time>
      </trkpt>
      <trkpt lat="45.86223" lon="3.57986">
        <ele>494</ele>
        <time>2021-02-14T11:29:59Z</time>
      </trkpt>
      <trkpt lat="45.86225" lon="3.57987">
        <ele>494</ele>
        <time>2021-02-14T11:30:00Z</time>
      </trkpt>
      <trkpt lat="45.86228" lon="3.57989">
        <ele>494</ele>
        <time>2021-02-14T11:30:02Z</time>
      </trkpt>
      <trkpt lat="45.8623" lon="3.57989">
        <ele>494</ele>
        <time>2021-02-14T11:30:03Z</time>
      </trkpt>
      <trkpt lat="45.86233" lon="3.57989">
        <ele>494</ele>
        <time>2021-02-14T11:30:06Z</time>
      </trkpt>
      <trkpt lat="45.86234" lon="3.57987">
        <ele>494</ele>
        <time>2021-02-14T11:30:08Z</time>
      </trkpt>
      <trkpt lat="45.86236" lon="3.57987">
        <ele>494</ele>
        <time>2021-02-14T11:30:10Z</time>
      </trkpt>
      <trkpt lat="45.86238" lon="3.57987">
        <ele>494</ele>
        <time>2021-02-14T11:30:13Z</time>
      </trkpt>
      <trkpt lat="45.8624" lon="3.57986">
        <ele>494</ele>
        <time>2021-02-14T11:30:15Z</time>
      </trkpt>
      <trkpt lat="45.86242" lon="3.57984">
        <ele>494</ele>
        <time>2021-02-14T11:30:17Z</time>
      </trkpt>
      <trkpt lat="45.86245" lon="3.57984">
        <ele>493</ele>
        <time>2021-02-14T11:30:19Z</time>
      </trkpt>
      <trkpt lat="45.86247" lon="3.57984">
        <ele>493</ele>
        <time>2021-02-14T11:30:21Z</time>
      </trkpt>
      <trkpt lat="45.86248" lon="3.57982">
        <ele>493</ele>
        <time>2021-02-14T11:30:23Z</time>
      </trkpt>
      <trkpt lat="45.8625" lon="3.5798">
        <ele>493</ele>
        <time>2021-02-14T11:30:26Z</time>
      </trkpt>
      <trkpt lat="45.86251" lon="3.57978">
        <ele>493</ele>
        <time>2021-02-14T11:30:29Z</time>
      </trkpt>
      <trkpt lat="45.86252" lon="3.57976">
        <ele>493</ele>
        <time>2021-02-14T11:30:33Z</time>
      </trkpt>
      <trkpt lat="45.86254" lon="3.57974">
        <ele>493</ele>
        <time>2021-02-14T11:30:35Z</time>
      </trkpt>
      <trkpt lat="45.86252" lon="3.57976">
        <ele>493</ele>
        <time>2021-02-14T11:30:40Z</time>
      </trkpt>
      <trkpt lat="45.86252" lon="3.5798">
        <ele>493</ele>
        <time>2021-02-14T11:30:42Z</time>
      </trkpt>
      <trkpt lat="45.86251" lon="3.57983">
        <ele>493</ele>
        <time>2021-02-14T11:30:45Z</time>
      </trkpt>
      <trkpt lat="45.86249" lon="3.57986">
        <ele>493</ele>
        <time>2021-02-14T11:30:47Z</time>
      </trkpt>
      <trkpt lat="45.86247" lon="3.57988">
        <ele>494</ele>
        <time>2021-02-14T11:30:49Z</time>
      </trkpt>
      <trkpt lat="45.86244" lon="3.57988">
        <ele>494</ele>
        <time>2021-02-14T11:30:52Z</time>
      </trkpt>
      <trkpt lat="45.86242" lon="3.57989">
        <ele>494</ele>
        <time>2021-02-14T11:30:54Z</time>
      </trkpt>
      <trkpt lat="45.86239" lon="3.57989">
        <ele>494</ele>
        <time>2021-02-14T11:30:56Z</time>
      </trkpt>
      <trkpt lat="45.86237" lon="3.57989">
        <ele>494</ele>
        <time>2021-02-14T11:30:58Z</time>
      </trkpt>
      <trkpt lat="45.86234" lon="3.57987">
        <ele>494</ele>
        <time>2021-02-14T11:31:00Z</time>
      </trkpt>
      <trkpt lat="45.86232" lon="3.57985">
        <ele>494</ele>
        <time>2021-02-14T11:31:02Z</time>
      </trkpt>
      <trkpt lat="45.8623" lon="3.57983">
        <ele>494</ele>
        <time>2021-02-14T11:31:04Z</time>
      </trkpt>
      <trkpt lat="45.86227" lon="3.57982">
        <ele>494</ele>
        <time>2021-02-14T11:31:06Z</time>
      </trkpt>
      <trkpt lat="45.86225" lon="3.5798">
        <ele>494</ele>
        <time>2021-02-14T11:31:07Z</time>
      </trkpt>
      <trkpt lat="45.86223" lon="3.57978">
        <ele>494</ele>
        <time>2021-02-14T11:31:09Z</time>
      </trkpt>
      <trkpt lat="45.86221" lon="3.57977">
        <ele>494</ele>
        <time>2021-02-14T11:31:11Z</time>
      </trkpt>
      <trkpt lat="45.86219" lon="3.57971">
        <ele>494</ele>
        <time>2021-02-14T11:31:16Z</time>
      </trkpt>
      <trkpt lat="45.8622" lon="3.57969">
        <ele>494</ele>
        <time>2021-02-14T11:31:17Z</time>
      </trkpt>
      <trkpt lat="45.86223" lon="3.57967">
        <ele>494</ele>
        <time>2021-02-14T11:31:19Z</time>
      </trkpt>
      <trkpt lat="45.86223" lon="3.57964">
        <ele>494</ele>
        <time>2021-02-14T11:31:21Z</time>
      </trkpt>
      <trkpt lat="45.86221" lon="3.57961">
        <ele>495</ele>
        <time>2021-02-14T11:31:23Z</time>
      </trkpt>
      <trkpt lat="45.8622" lon="3.57962">
        <ele>495</ele>
        <time>2021-02-14T11:31:25Z</time>
      </trkpt>
      <trkpt lat="45.86218" lon="3.57963">
        <ele>495</ele>
        <time>2021-02-14T11:31:28Z</time>
      </trkpt>
      <trkpt lat="45.86215" lon="3.57963">
        <ele>495</ele>
        <time>2021-02-14T11:31:31Z</time>
      </trkpt>
      <trkpt lat="45.86214" lon="3.57963">
        <ele>495</ele>
        <time>2021-02-14T11:31:33Z</time>
      </trkpt>
      <trkpt lat="45.86211" lon="3.57963">
        <ele>495</ele>
        <time>2021-02-14T11:31:36Z</time>
      </trkpt>
      <trkpt lat="45.8621" lon="3.57965">
        <ele>495</ele>
        <time>2021-02-14T11:31:42Z</time>
      </trkpt>
      <trkpt lat="45.86207" lon="3.57967">
        <ele>495</ele>
        <time>2021-02-14T11:31:44Z</time>
      </trkpt>
      <trkpt lat="45.86204" lon="3.57969">
        <ele>494</ele>
        <time>2021-02-14T11:31:46Z</time>
      </trkpt>
      <trkpt lat="45.86201" lon="3.57969">
        <ele>495</ele>
        <time>2021-02-14T11:31:48Z</time>
      </trkpt>
      <trkpt lat="45.86199" lon="3.57969">
        <ele>495</ele>
        <time>2021-02-14T11:31:51Z</time>
      </trkpt>
      <trkpt lat="45.86197" lon="3.57971">
        <ele>495</ele>
        <time>2021-02-14T11:31:57Z</time>
      </trkpt>
      <trkpt lat="45.86196" lon="3.57973">
        <ele>494</ele>
        <time>2021-02-14T11:32:00Z</time>
      </trkpt>
      <trkpt lat="45.86194" lon="3.57975">
        <ele>495</ele>
        <time>2021-02-14T11:32:02Z</time>
      </trkpt>
      <trkpt lat="45.86192" lon="3.57978">
        <ele>495</ele>
        <time>2021-02-14T11:32:04Z</time>
      </trkpt>
      <trkpt lat="45.8619" lon="3.57981">
        <ele>496</ele>
        <time>2021-02-14T11:32:06Z</time>
      </trkpt>
      <trkpt lat="45.86189" lon="3.57984">
        <ele>496</ele>
        <time>2021-02-14T11:32:09Z</time>
      </trkpt>
      <trkpt lat="45.86188" lon="3.57986">
        <ele>496</ele>
        <time>2021-02-14T11:32:11Z</time>
      </trkpt>
      <trkpt lat="45.86187" lon="3.57988">
        <ele>497</ele>
        <time>2021-02-14T11:32:13Z</time>
      </trkpt>
      <trkpt lat="45.86185" lon="3.57991">
        <ele>497</ele>
        <time>2021-02-14T11:32:16Z</time>
      </trkpt>
      <trkpt lat="45.86183" lon="3.57994">
        <ele>497</ele>
        <time>2021-02-14T11:32:18Z</time>
      </trkpt>
      <trkpt lat="45.86182" lon="3.57999">
        <ele>498</ele>
        <time>2021-02-14T11:32:20Z</time>
      </trkpt>
      <trkpt lat="45.86182" lon="3.58003">
        <ele>498</ele>
        <time>2021-02-14T11:32:22Z</time>
      </trkpt>
      <trkpt lat="45.86181" lon="3.58007">
        <ele>498</ele>
        <time>2021-02-14T11:32:24Z</time>
      </trkpt>
      <trkpt lat="45.8618" lon="3.58011">
        <ele>498</ele>
        <time>2021-02-14T11:32:26Z</time>
      </trkpt>
      <trkpt lat="45.8618" lon="3.58015">
        <ele>498</ele>
        <time>2021-02-14T11:32:28Z</time>
      </trkpt>
      <trkpt lat="45.8618" lon="3.58019">
        <ele>497</ele>
        <time>2021-02-14T11:32:30Z</time>
      </trkpt>
      <trkpt lat="45.8618" lon="3.58021">
        <ele>497</ele>
        <time>2021-02-14T11:32:32Z</time>
      </trkpt>
      <trkpt lat="45.8618" lon="3.58025">
        <ele>497</ele>
        <time>2021-02-14T11:32:35Z</time>
      </trkpt>
      <trkpt lat="45.8618" lon="3.58028">
        <ele>497</ele>
        <time>2021-02-14T11:32:37Z</time>
      </trkpt>
      <trkpt lat="45.86181" lon="3.5803">
        <ele>497</ele>
        <time>2021-02-14T11:32:39Z</time>
      </trkpt>
      <trkpt lat="45.86181" lon="3.58033">
        <ele>497</ele>
        <time>2021-02-14T11:32:41Z</time>
      </trkpt>
      <trkpt lat="45.86181" lon="3.58039">
        <ele>497</ele>
        <time>2021-02-14T11:32:43Z</time>
      </trkpt>
      <trkpt lat="45.8618" lon="3.58043">
        <ele>497</ele>
        <time>2021-02-14T11:32:45Z</time>
      </trkpt>
      <trkpt lat="45.86181" lon="3.58047">
        <ele>497</ele>
        <time>2021-02-14T11:32:47Z</time>
      </trkpt>
      <trkpt lat="45.86182" lon="3.5805">
        <ele>497</ele>
        <time>2021-02-14T11:32:49Z</time>
      </trkpt>
      <trkpt lat="45.86183" lon="3.58053">
        <ele>496</ele>
        <time>2021-02-14T11:32:51Z</time>
      </trkpt>
      <trkpt lat="45.86184" lon="3.58056">
        <ele>496</ele>
        <time>2021-02-14T11:32:54Z</time>
      </trkpt>
      <trkpt lat="45.86184" lon="3.58059">
        <ele>496</ele>
        <time>2021-02-14T11:32:56Z</time>
      </trkpt>
      <trkpt lat="45.86184" lon="3.58063">
        <ele>496</ele>
        <time>2021-02-14T11:32:58Z</time>
      </trkpt>
      <trkpt lat="45.86185" lon="3.58065">
        <ele>496</ele>
        <time>2021-02-14T11:33:04Z</time>
      </trkpt>
      <trkpt lat="45.86186" lon="3.58067">
        <ele>496</ele>
        <time>2021-02-14T11:33:07Z</time>
      </trkpt>
      <trkpt lat="45.86189" lon="3.58073">
        <ele>496</ele>
        <time>2021-02-14T11:33:16Z</time>
      </trkpt>
      <trkpt lat="45.86197" lon="3.5808">
        <ele>496</ele>
        <time>2021-02-14T11:33:25Z</time>
      </trkpt>
      <trkpt lat="45.86205" lon="3.58086">
        <ele>497</ele>
        <time>2021-02-14T11:33:32Z</time>
      </trkpt>
      <trkpt lat="45.86208" lon="3.58087">
        <ele>498</ele>
        <time>2021-02-14T11:33:34Z</time>
      </trkpt>
      <trkpt lat="45.8621" lon="3.58088">
        <ele>498</ele>
        <time>2021-02-14T11:33:36Z</time>
      </trkpt>
      <trkpt lat="45.86212" lon="3.58089">
        <ele>498</ele>
        <time>2021-02-14T11:33:38Z</time>
      </trkpt>
      <trkpt lat="45.86213" lon="3.5809">
        <ele>499</ele>
        <time>2021-02-14T11:33:40Z</time>
      </trkpt>
      <trkpt lat="45.86215" lon="3.58091">
        <ele>499</ele>
        <time>2021-02-14T11:33:42Z</time>
      </trkpt>
      <trkpt lat="45.86217" lon="3.58092">
        <ele>499</ele>
        <time>2021-02-14T11:33:45Z</time>
      </trkpt>
      <trkpt lat="45.86219" lon="3.58092">
        <ele>499</ele>
        <time>2021-02-14T11:33:47Z</time>
      </trkpt>
      <trkpt lat="45.86223" lon="3.58094">
        <ele>500</ele>
        <time>2021-02-14T11:33:53Z</time>
      </trkpt>
      <trkpt lat="45.86225" lon="3.58095">
        <ele>500</ele>
        <time>2021-02-14T11:33:55Z</time>
      </trkpt>
      <trkpt lat="45.86228" lon="3.58097">
        <ele>500</ele>
        <time>2021-02-14T11:33:57Z</time>
      </trkpt>
      <trkpt lat="45.8623" lon="3.58097">
        <ele>500</ele>
        <time>2021-02-14T11:33:59Z</time>
      </trkpt>
      <trkpt lat="45.86232" lon="3.58098">
        <ele>500</ele>
        <time>2021-02-14T11:34:01Z</time>
      </trkpt>
      <trkpt lat="45.86234" lon="3.581">
        <ele>501</ele>
        <time>2021-02-14T11:34:03Z</time>
      </trkpt>
      <trkpt lat="45.86237" lon="3.58101">
        <ele>501</ele>
        <time>2021-02-14T11:34:05Z</time>
      </trkpt>
      <trkpt lat="45.86239" lon="3.58104">
        <ele>501</ele>
        <time>2021-02-14T11:34:07Z</time>
      </trkpt>
      <trkpt lat="45.8624" lon="3.58107">
        <ele>501</ele>
        <time>2021-02-14T11:34:09Z</time>
      </trkpt>
      <trkpt lat="45.86242" lon="3.58109">
        <ele>501</ele>
        <time>2021-02-14T11:34:11Z</time>
      </trkpt>
      <trkpt lat="45.86246" lon="3.5811">
        <ele>501</ele>
        <time>2021-02-14T11:34:15Z</time>
      </trkpt>
      <trkpt lat="45.86248" lon="3.58112">
        <ele>501</ele>
        <time>2021-02-14T11:34:17Z</time>
      </trkpt>
      <trkpt lat="45.8625" lon="3.58113">
        <ele>502</ele>
        <time>2021-02-14T11:34:19Z</time>
      </trkpt>
      <trkpt lat="45.86258" lon="3.58121">
        <ele>503</ele>
        <time>2021-02-14T11:34:28Z</time>
      </trkpt>
      <trkpt lat="45.86267" lon="3.58128">
        <ele>503</ele>
        <time>2021-02-14T11:34:35Z</time>
      </trkpt>
      <trkpt lat="45.86276" lon="3.58133">
        <ele>503</ele>
        <time>2021-02-14T11:34:41Z</time>
      </trkpt>
      <trkpt lat="45.86285" lon="3.58137">
        <ele>503</ele>
        <time>2021-02-14T11:34:47Z</time>
      </trkpt>
      <trkpt lat="45.86294" lon="3.58138">
        <ele>503</ele>
        <time>2021-02-14T11:34:54Z</time>
      </trkpt>
      <trkpt lat="45.86297" lon="3.5814">
        <ele>503</ele>
        <time>2021-02-14T11:34:56Z</time>
      </trkpt>
      <trkpt lat="45.863" lon="3.5814">
        <ele>503</ele>
        <time>2021-02-14T11:34:58Z</time>
      </trkpt>
      <trkpt lat="45.86302" lon="3.58141">
        <ele>503</ele>
        <time>2021-02-14T11:34:59Z</time>
      </trkpt>
      <trkpt lat="45.86304" lon="3.58141">
        <ele>503</ele>
        <time>2021-02-14T11:35:00Z</time>
      </trkpt>
      <trkpt lat="45.86307" lon="3.58142">
        <ele>504</ele>
        <time>2021-02-14T11:35:02Z</time>
      </trkpt>
      <trkpt lat="45.86309" lon="3.58143">
        <ele>504</ele>
        <time>2021-02-14T11:35:03Z</time>
      </trkpt>
      <trkpt lat="45.86312" lon="3.58147">
        <ele>503</ele>
        <time>2021-02-14T11:35:04Z</time>
      </trkpt>
      <trkpt lat="45.86312" lon="3.58151">
        <ele>503</ele>
        <time>2021-02-14T11:35:05Z</time>
      </trkpt>
      <trkpt lat="45.86312" lon="3.58154">
        <ele>503</ele>
        <time>2021-02-14T11:35:06Z</time>
      </trkpt>
      <trkpt lat="45.86312" lon="3.58157">
        <ele>503</ele>
        <time>2021-02-14T11:35:07Z</time>
      </trkpt>
      <trkpt lat="45.86312" lon="3.58161">
        <ele>503</ele>
        <time>2021-02-14T11:35:09Z</time>
      </trkpt>
      <trkpt lat="45.86313" lon="3.58163">
        <ele>503</ele>
        <time>2021-02-14T11:35:11Z</time>
      </trkpt>
      <trkpt lat="45.86312" lon="3.58166">
        <ele>503</ele>
        <time>2021-02-14T11:35:16Z</time>
      </trkpt>
      <trkpt lat="45.8631" lon="3.58166">
        <ele>503</ele>
        <time>2021-02-14T11:35:23Z</time>
      </trkpt>
      <trkpt lat="45.86308" lon="3.58168">
        <ele>503</ele>
        <time>2021-02-14T11:35:26Z</time>
      </trkpt>
      <trkpt lat="45.86306" lon="3.58167">
        <ele>504</ele>
        <time>2021-02-14T11:35:29Z</time>
      </trkpt>
      <trkpt lat="45.86304" lon="3.58167">
        <ele>504</ele>
        <time>2021-02-14T11:35:32Z</time>
      </trkpt>
      <trkpt lat="45.86301" lon="3.58166">
        <ele>504</ele>
        <time>2021-02-14T11:35:37Z</time>
      </trkpt>
      <trkpt lat="45.863" lon="3.58165">
        <ele>505</ele>
        <time>2021-02-14T11:35:45Z</time>
      </trkpt>
      <trkpt lat="45.86299" lon="3.58162">
        <ele>504</ele>
        <time>2021-02-14T11:35:49Z</time>
      </trkpt>
      <trkpt lat="45.86298" lon="3.58159">
        <ele>504</ele>
        <time>2021-02-14T11:35:51Z</time>
      </trkpt>
      <trkpt lat="45.86298" lon="3.58155">
        <ele>504</ele>
        <time>2021-02-14T11:36:15Z</time>
      </trkpt>
      <trkpt lat="45.86298" lon="3.58152">
        <ele>504</ele>
        <time>2021-02-14T11:36:18Z</time>
      </trkpt>
      <trkpt lat="45.86299" lon="3.58149">
        <ele>504</ele>
        <time>2021-02-14T11:36:30Z</time>
      </trkpt>
      <trkpt lat="45.86298" lon="3.58146">
        <ele>504</ele>
        <time>2021-02-14T11:36:33Z</time>
      </trkpt>
      <trkpt lat="45.86297" lon="3.58143">
        <ele>503</ele>
        <time>2021-02-14T11:37:00Z</time>
      </trkpt>
      <trkpt lat="45.86296" lon="3.58147">
        <ele>504</ele>
        <time>2021-02-14T11:37:08Z</time>
      </trkpt>
      <trkpt lat="45.86304" lon="3.58156">
        <ele>504</ele>
        <time>2021-02-14T11:37:44Z</time>
      </trkpt>
      <trkpt lat="45.86301" lon="3.58162">
        <ele>504</ele>
        <time>2021-02-14T11:38:25Z</time>
      </trkpt>
      <trkpt lat="45.863" lon="3.5815">
        <ele>504</ele>
        <time>2021-02-14T11:38:49Z</time>
      </trkpt>
      <trkpt lat="45.86308" lon="3.58145">
        <ele>503</ele>
        <time>2021-02-14T11:38:58Z</time>
      </trkpt>
      <trkpt lat="45.86316" lon="3.58144">
        <ele>504</ele>
        <time>2021-02-14T11:39:08Z</time>
      </trkpt>
      <trkpt lat="45.86319" lon="3.58145">
        <ele>503</ele>
        <time>2021-02-14T11:39:10Z</time>
      </trkpt>
      <trkpt lat="45.86321" lon="3.58145">
        <ele>503</ele>
        <time>2021-02-14T11:39:12Z</time>
      </trkpt>
      <trkpt lat="45.86323" lon="3.58146">
        <ele>503</ele>
        <time>2021-02-14T11:39:14Z</time>
      </trkpt>
      <trkpt lat="45.86326" lon="3.58146">
        <ele>503</ele>
        <time>2021-02-14T11:39:16Z</time>
      </trkpt>
      <trkpt lat="45.86329" lon="3.58146">
        <ele>503</ele>
        <time>2021-02-14T11:39:18Z</time>
      </trkpt>
      <trkpt lat="45.86331" lon="3.58146">
        <ele>503</ele>
        <time>2021-02-14T11:39:20Z</time>
      </trkpt>
      <trkpt lat="45.86333" lon="3.58146">
        <ele>503</ele>
        <time>2021-02-14T11:39:23Z</time>
      </trkpt>
      <trkpt lat="45.86335" lon="3.58147">
        <ele>503</ele>
        <time>2021-02-14T11:39:27Z</time>
      </trkpt>
      <trkpt lat="45.86337" lon="3.58147">
        <ele>503</ele>
        <time>2021-02-14T11:39:30Z</time>
      </trkpt>
      <trkpt lat="45.86339" lon="3.58147">
        <ele>503</ele>
        <time>2021-02-14T11:39:34Z</time>
      </trkpt>
      <trkpt lat="45.86339" lon="3.58144">
        <ele>504</ele>
        <time>2021-02-14T11:39:39Z</time>
      </trkpt>
      <trkpt lat="45.86341" lon="3.58143">
        <ele>504</ele>
        <time>2021-02-14T11:39:43Z</time>
      </trkpt>
      <trkpt lat="45.86343" lon="3.58144">
        <ele>504</ele>
        <time>2021-02-14T11:39:45Z</time>
      </trkpt>
      <trkpt lat="45.86345" lon="3.58143">
        <ele>505</ele>
        <time>2021-02-14T11:39:48Z</time>
      </trkpt>
      <trkpt lat="45.86347" lon="3.58143">
        <ele>505</ele>
        <time>2021-02-14T11:39:51Z</time>
      </trkpt>
      <trkpt lat="45.86348" lon="3.58145">
        <ele>505</ele>
        <time>2021-02-14T11:39:53Z</time>
      </trkpt>
      <trkpt lat="45.86351" lon="3.58148">
        <ele>504</ele>
        <time>2021-02-14T11:39:55Z</time>
      </trkpt>
      <trkpt lat="45.86352" lon="3.58152">
        <ele>504</ele>
        <time>2021-02-14T11:39:57Z</time>
      </trkpt>
      <trkpt lat="45.86354" lon="3.58155">
        <ele>504</ele>
        <time>2021-02-14T11:39:59Z</time>
      </trkpt>
      <trkpt lat="45.86356" lon="3.58158">
        <ele>503</ele>
        <time>2021-02-14T11:40:01Z</time>
      </trkpt>
      <trkpt lat="45.86357" lon="3.58161">
        <ele>503</ele>
        <time>2021-02-14T11:40:03Z</time>
      </trkpt>
      <trkpt lat="45.86358" lon="3.58163">
        <ele>503</ele>
        <time>2021-02-14T11:40:04Z</time>
      </trkpt>
      <trkpt lat="45.86359" lon="3.58166">
        <ele>502</ele>
        <time>2021-02-14T11:40:05Z</time>
      </trkpt>
      <trkpt lat="45.86361" lon="3.58169">
        <ele>503</ele>
        <time>2021-02-14T11:40:06Z</time>
      </trkpt>
      <trkpt lat="45.86362" lon="3.58172">
        <ele>503</ele>
        <time>2021-02-14T11:40:07Z</time>
      </trkpt>
      <trkpt lat="45.86363" lon="3.58174">
        <ele>503</ele>
        <time>2021-02-14T11:40:08Z</time>
      </trkpt>
      <trkpt lat="45.86363" lon="3.58177">
        <ele>503</ele>
        <time>2021-02-14T11:40:09Z</time>
      </trkpt>
      <trkpt lat="45.86364" lon="3.5818">
        <ele>503</ele>
        <time>2021-02-14T11:40:10Z</time>
      </trkpt>
      <trkpt lat="45.86364" lon="3.58187">
        <ele>503</ele>
        <time>2021-02-14T11:40:12Z</time>
      </trkpt>
      <trkpt lat="45.86365" lon="3.58189">
        <ele>504</ele>
        <time>2021-02-14T11:40:13Z</time>
      </trkpt>
      <trkpt lat="45.86365" lon="3.58186">
        <ele>504</ele>
        <time>2021-02-14T11:40:19Z</time>
      </trkpt>
      <trkpt lat="45.86365" lon="3.58183">
        <ele>503</ele>
        <time>2021-02-14T11:40:21Z</time>
      </trkpt>
      <trkpt lat="45.86364" lon="3.58181">
        <ele>503</ele>
        <time>2021-02-14T11:40:23Z</time>
      </trkpt>
      <trkpt lat="45.86363" lon="3.58177">
        <ele>503</ele>
        <time>2021-02-14T11:40:26Z</time>
      </trkpt>
      <trkpt lat="45.86364" lon="3.58175">
        <ele>503</ele>
        <time>2021-02-14T11:40:28Z</time>
      </trkpt>
      <trkpt lat="45.86364" lon="3.58171">
        <ele>503</ele>
        <time>2021-02-14T11:40:31Z</time>
      </trkpt>
      <trkpt lat="45.86365" lon="3.58167">
        <ele>503</ele>
        <time>2021-02-14T11:40:34Z</time>
      </trkpt>
      <trkpt lat="45.86365" lon="3.58164">
        <ele>504</ele>
        <time>2021-02-14T11:40:36Z</time>
      </trkpt>
      <trkpt lat="45.86367" lon="3.5816">
        <ele>504</ele>
        <time>2021-02-14T11:40:38Z</time>
      </trkpt>
      <trkpt lat="45.86369" lon="3.58157">
        <ele>505</ele>
        <time>2021-02-14T11:40:40Z</time>
      </trkpt>
      <trkpt lat="45.86371" lon="3.58154">
        <ele>506</ele>
        <time>2021-02-14T11:40:42Z</time>
      </trkpt>
      <trkpt lat="45.86373" lon="3.58153">
        <ele>506</ele>
        <time>2021-02-14T11:40:44Z</time>
      </trkpt>
      <trkpt lat="45.86376" lon="3.58153">
        <ele>507</ele>
        <time>2021-02-14T11:40:47Z</time>
      </trkpt>
      <trkpt lat="45.86379" lon="3.58156">
        <ele>507</ele>
        <time>2021-02-14T11:40:49Z</time>
      </trkpt>
      <trkpt lat="45.8638" lon="3.58158">
        <ele>506</ele>
        <time>2021-02-14T11:40:50Z</time>
      </trkpt>
      <trkpt lat="45.86381" lon="3.58162">
        <ele>506</ele>
        <time>2021-02-14T11:40:52Z</time>
      </trkpt>
      <trkpt lat="45.86383" lon="3.58166">
        <ele>506</ele>
        <time>2021-02-14T11:40:54Z</time>
      </trkpt>
      <trkpt lat="45.86385" lon="3.5817">
        <ele>506</ele>
        <time>2021-02-14T11:40:56Z</time>
      </trkpt>
      <trkpt lat="45.86386" lon="3.58172">
        <ele>506</ele>
        <time>2021-02-14T11:40:57Z</time>
      </trkpt>
      <trkpt lat="45.86387" lon="3.58175">
        <ele>506</ele>
        <time>2021-02-14T11:40:59Z</time>
      </trkpt>
      <trkpt lat="45.86389" lon="3.58178">
        <ele>506</ele>
        <time>2021-02-14T11:41:03Z</time>
      </trkpt>
      <trkpt lat="45.8639" lon="3.58181">
        <ele>506</ele>
        <time>2021-02-14T11:41:05Z</time>
      </trkpt>
      <trkpt lat="45.86391" lon="3.58185">
        <ele>506</ele>
        <time>2021-02-14T11:41:07Z</time>
      </trkpt>
      <trkpt lat="45.86391" lon="3.58188">
        <ele>506</ele>
        <time>2021-02-14T11:41:09Z</time>
      </trkpt>
      <trkpt lat="45.86393" lon="3.5819">
        <ele>507</ele>
        <time>2021-02-14T11:41:12Z</time>
      </trkpt>
      <trkpt lat="45.86392" lon="3.58187">
        <ele>507</ele>
        <time>2021-02-14T11:41:16Z</time>
      </trkpt>
      <trkpt lat="45.86391" lon="3.58184">
        <ele>506</ele>
        <time>2021-02-14T11:41:18Z</time>
      </trkpt>
      <trkpt lat="45.8639" lon="3.58182">
        <ele>506</ele>
        <time>2021-02-14T11:41:20Z</time>
      </trkpt>
      <trkpt lat="45.86388" lon="3.5818">
        <ele>506</ele>
        <time>2021-02-14T11:41:22Z</time>
      </trkpt>
      <trkpt lat="45.86385" lon="3.5818">
        <ele>506</ele>
        <time>2021-02-14T11:41:24Z</time>
      </trkpt>
      <trkpt lat="45.86383" lon="3.58178">
        <ele>505</ele>
        <time>2021-02-14T11:41:26Z</time>
      </trkpt>
      <trkpt lat="45.8638" lon="3.58175">
        <ele>505</ele>
        <time>2021-02-14T11:41:28Z</time>
      </trkpt>
      <trkpt lat="45.86378" lon="3.58172">
        <ele>505</ele>
        <time>2021-02-14T11:41:30Z</time>
      </trkpt>
      <trkpt lat="45.86376" lon="3.5817">
        <ele>505</ele>
        <time>2021-02-14T11:41:32Z</time>
      </trkpt>
      <trkpt lat="45.86375" lon="3.58167">
        <ele>505</ele>
        <time>2021-02-14T11:41:35Z</time>
      </trkpt>
      <trkpt lat="45.86372" lon="3.58166">
        <ele>504</ele>
        <time>2021-02-14T11:41:37Z</time>
      </trkpt>
      <trkpt lat="45.8637" lon="3.58168">
        <ele>504</ele>
        <time>2021-02-14T11:41:39Z</time>
      </trkpt>
      <trkpt lat="45.86368" lon="3.58171">
        <ele>504</ele>
        <time>2021-02-14T11:41:41Z</time>
      </trkpt>
      <trkpt lat="45.86367" lon="3.58173">
        <ele>503</ele>
        <time>2021-02-14T11:41:43Z</time>
      </trkpt>
      <trkpt lat="45.86366" lon="3.58176">
        <ele>503</ele>
        <time>2021-02-14T11:41:45Z</time>
      </trkpt>
      <trkpt lat="45.86365" lon="3.58179">
        <ele>503</ele>
        <time>2021-02-14T11:41:48Z</time>
      </trkpt>
      <trkpt lat="45.86365" lon="3.58181">
        <ele>503</ele>
        <time>2021-02-14T11:41:51Z</time>
      </trkpt>
      <trkpt lat="45.86365" lon="3.58185">
        <ele>504</ele>
        <time>2021-02-14T11:41:54Z</time>
      </trkpt>
      <trkpt lat="45.86366" lon="3.58187">
        <ele>504</ele>
        <time>2021-02-14T11:41:57Z</time>
      </trkpt>
      <trkpt lat="45.86367" lon="3.5819">
        <ele>504</ele>
        <time>2021-02-14T11:42:01Z</time>
      </trkpt>
      <trkpt lat="45.86368" lon="3.58192">
        <ele>504</ele>
        <time>2021-02-14T11:42:04Z</time>
      </trkpt>
      <trkpt lat="45.86369" lon="3.58196">
        <ele>504</ele>
        <time>2021-02-14T11:42:06Z</time>
      </trkpt>
      <trkpt lat="45.86368" lon="3.58199">
        <ele>504</ele>
        <time>2021-02-14T11:42:08Z</time>
      </trkpt>
      <trkpt lat="45.86368" lon="3.58202">
        <ele>505</ele>
        <time>2021-02-14T11:42:10Z</time>
      </trkpt>
      <trkpt lat="45.86369" lon="3.58205">
        <ele>505</ele>
        <time>2021-02-14T11:42:12Z</time>
      </trkpt>
      <trkpt lat="45.86369" lon="3.58208">
        <ele>505</ele>
        <time>2021-02-14T11:42:14Z</time>
      </trkpt>
      <trkpt lat="45.8637" lon="3.5821">
        <ele>506</ele>
        <time>2021-02-14T11:42:15Z</time>
      </trkpt>
      <trkpt lat="45.86371" lon="3.58212">
        <ele>506</ele>
        <time>2021-02-14T11:42:17Z</time>
      </trkpt>
      <trkpt lat="45.86372" lon="3.58215">
        <ele>506</ele>
        <time>2021-02-14T11:42:19Z</time>
      </trkpt>
      <trkpt lat="45.86371" lon="3.58219">
        <ele>506</ele>
        <time>2021-02-14T11:42:22Z</time>
      </trkpt>
      <trkpt lat="45.86369" lon="3.58221">
        <ele>507</ele>
        <time>2021-02-14T11:42:24Z</time>
      </trkpt>
      <trkpt lat="45.86367" lon="3.58224">
        <ele>507</ele>
        <time>2021-02-14T11:42:26Z</time>
      </trkpt>
      <trkpt lat="45.86366" lon="3.58226">
        <ele>508</ele>
        <time>2021-02-14T11:42:29Z</time>
      </trkpt>
      <trkpt lat="45.86364" lon="3.58228">
        <ele>508</ele>
        <time>2021-02-14T11:42:32Z</time>
      </trkpt>
      <trkpt lat="45.86361" lon="3.5823">
        <ele>509</ele>
        <time>2021-02-14T11:42:34Z</time>
      </trkpt>
      <trkpt lat="45.8636" lon="3.58232">
        <ele>509</ele>
        <time>2021-02-14T11:42:37Z</time>
      </trkpt>
      <trkpt lat="45.86362" lon="3.58234">
        <ele>509</ele>
        <time>2021-02-14T11:42:41Z</time>
      </trkpt>
      <trkpt lat="45.86364" lon="3.58235">
        <ele>509</ele>
        <time>2021-02-14T11:42:45Z</time>
      </trkpt>
      <trkpt lat="45.86362" lon="3.58236">
        <ele>509</ele>
        <time>2021-02-14T11:42:48Z</time>
      </trkpt>
      <trkpt lat="45.8636" lon="3.58238">
        <ele>510</ele>
        <time>2021-02-14T11:42:53Z</time>
      </trkpt>
      <trkpt lat="45.86358" lon="3.58238">
        <ele>510</ele>
        <time>2021-02-14T11:42:56Z</time>
      </trkpt>
      <trkpt lat="45.86356" lon="3.58237">
        <ele>510</ele>
        <time>2021-02-14T11:42:59Z</time>
      </trkpt>
      <trkpt lat="45.86354" lon="3.58239">
        <ele>511</ele>
        <time>2021-02-14T11:43:02Z</time>
      </trkpt>
      <trkpt lat="45.86354" lon="3.58242">
        <ele>511</ele>
        <time>2021-02-14T11:43:07Z</time>
      </trkpt>
      <trkpt lat="45.86352" lon="3.58244">
        <ele>512</ele>
        <time>2021-02-14T11:43:11Z</time>
      </trkpt>
      <trkpt lat="45.8635" lon="3.58245">
        <ele>513</ele>
        <time>2021-02-14T11:43:13Z</time>
      </trkpt>
      <trkpt lat="45.86348" lon="3.58246">
        <ele>513</ele>
        <time>2021-02-14T11:43:15Z</time>
      </trkpt>
      <trkpt lat="45.86346" lon="3.58248">
        <ele>514</ele>
        <time>2021-02-14T11:43:18Z</time>
      </trkpt>
      <trkpt lat="45.86344" lon="3.58249">
        <ele>514</ele>
        <time>2021-02-14T11:43:20Z</time>
      </trkpt>
      <trkpt lat="45.86342" lon="3.5825">
        <ele>515</ele>
        <time>2021-02-14T11:43:23Z</time>
      </trkpt>
      <trkpt lat="45.8634" lon="3.58251">
        <ele>515</ele>
        <time>2021-02-14T11:43:27Z</time>
      </trkpt>
      <trkpt lat="45.86338" lon="3.58252">
        <ele>516</ele>
        <time>2021-02-14T11:43:29Z</time>
      </trkpt>
      <trkpt lat="45.86335" lon="3.58253">
        <ele>517</ele>
        <time>2021-02-14T11:43:32Z</time>
      </trkpt>
      <trkpt lat="45.86333" lon="3.58254">
        <ele>517</ele>
        <time>2021-02-14T11:43:34Z</time>
      </trkpt>
      <trkpt lat="45.86331" lon="3.58255">
        <ele>518</ele>
        <time>2021-02-14T11:43:37Z</time>
      </trkpt>
      <trkpt lat="45.86329" lon="3.58257">
        <ele>519</ele>
        <time>2021-02-14T11:43:40Z</time>
      </trkpt>
      <trkpt lat="45.86328" lon="3.58259">
        <ele>520</ele>
        <time>2021-02-14T11:43:44Z</time>
      </trkpt>
      <trkpt lat="45.86328" lon="3.58262">
        <ele>521</ele>
        <time>2021-02-14T11:43:48Z</time>
      </trkpt>
      <trkpt lat="45.86329" lon="3.58265">
        <ele>521</ele>
        <time>2021-02-14T11:43:53Z</time>
      </trkpt>
      <trkpt lat="45.8633" lon="3.58267">
        <ele>521</ele>
        <time>2021-02-14T11:44:00Z</time>
      </trkpt>
      <trkpt lat="45.86332" lon="3.58269">
        <ele>521</ele>
        <time>2021-02-14T11:44:03Z</time>
      </trkpt>
      <trkpt lat="45.86333" lon="3.58271">
        <ele>521</ele>
        <time>2021-02-14T11:44:07Z</time>
      </trkpt>
      <trkpt lat="45.86335" lon="3.58273">
        <ele>520</ele>
        <time>2021-02-14T11:44:12Z</time>
      </trkpt>
      <trkpt lat="45.86336" lon="3.58275">
        <ele>520</ele>
        <time>2021-02-14T11:44:14Z</time>
      </trkpt>
      <trkpt lat="45.86338" lon="3.58278">
        <ele>521</ele>
        <time>2021-02-14T11:44:17Z</time>
      </trkpt>
      <trkpt lat="45.86339" lon="3.58281">
        <ele>521</ele>
        <time>2021-02-14T11:44:20Z</time>
      </trkpt>
      <trkpt lat="45.8634" lon="3.58283">
        <ele>521</ele>
        <time>2021-02-14T11:44:22Z</time>
      </trkpt>
      <trkpt lat="45.86339" lon="3.58286">
        <ele>522</ele>
        <time>2021-02-14T11:44:24Z</time>
      </trkpt>
      <trkpt lat="45.86339" lon="3.5829">
        <ele>523</ele>
        <time>2021-02-14T11:44:27Z</time>
      </trkpt>
      <trkpt lat="45.86339" lon="3.58294">
        <ele>523</ele>
        <time>2021-02-14T11:44:29Z</time>
      </trkpt>
      <trkpt lat="45.86339" lon="3.58297">
        <ele>524</ele>
        <time>2021-02-14T11:44:31Z</time>
      </trkpt>
      <trkpt lat="45.86339" lon="3.58301">
        <ele>524</ele>
        <time>2021-02-14T11:44:33Z</time>
      </trkpt>
      <trkpt lat="45.86338" lon="3.58304">
        <ele>525</ele>
        <time>2021-02-14T11:44:35Z</time>
      </trkpt>
      <trkpt lat="45.86337" lon="3.58307">
        <ele>526</ele>
        <time>2021-02-14T11:44:37Z</time>
      </trkpt>
      <trkpt lat="45.86336" lon="3.5831">
        <ele>526</ele>
        <time>2021-02-14T11:44:39Z</time>
      </trkpt>
      <trkpt lat="45.86335" lon="3.58313">
        <ele>527</ele>
        <time>2021-02-14T11:44:41Z</time>
      </trkpt>
      <trkpt lat="45.86334" lon="3.58316">
        <ele>527</ele>
        <time>2021-02-14T11:44:43Z</time>
      </trkpt>
      <trkpt lat="45.86334" lon="3.5832">
        <ele>527</ele>
        <time>2021-02-14T11:44:46Z</time>
      </trkpt>
      <trkpt lat="45.86334" lon="3.58322">
        <ele>527</ele>
        <time>2021-02-14T11:44:49Z</time>
      </trkpt>
      <trkpt lat="45.86334" lon="3.58326">
        <ele>528</ele>
        <time>2021-02-14T11:44:53Z</time>
      </trkpt>
      <trkpt lat="45.86333" lon="3.58329">
        <ele>528</ele>
        <time>2021-02-14T11:44:55Z</time>
      </trkpt>
      <trkpt lat="45.86333" lon="3.58332">
        <ele>529</ele>
        <time>2021-02-14T11:44:57Z</time>
      </trkpt>
      <trkpt lat="45.86331" lon="3.58335">
        <ele>529</ele>
        <time>2021-02-14T11:44:59Z</time>
      </trkpt>
      <trkpt lat="45.8633" lon="3.58338">
        <ele>530</ele>
        <time>2021-02-14T11:45:01Z</time>
      </trkpt>
      <trkpt lat="45.86328" lon="3.58341">
        <ele>531</ele>
        <time>2021-02-14T11:45:03Z</time>
      </trkpt>
      <trkpt lat="45.86327" lon="3.58343">
        <ele>532</ele>
        <time>2021-02-14T11:45:05Z</time>
      </trkpt>
      <trkpt lat="45.86326" lon="3.58347">
        <ele>533</ele>
        <time>2021-02-14T11:45:08Z</time>
      </trkpt>
      <trkpt lat="45.86325" lon="3.58349">
        <ele>534</ele>
        <time>2021-02-14T11:45:10Z</time>
      </trkpt>
      <trkpt lat="45.86324" lon="3.58353">
        <ele>534</ele>
        <time>2021-02-14T11:45:12Z</time>
      </trkpt>
      <trkpt lat="45.86324" lon="3.58356">
        <ele>535</ele>
        <time>2021-02-14T11:45:15Z</time>
      </trkpt>
      <trkpt lat="45.86323" lon="3.58358">
        <ele>535</ele>
        <time>2021-02-14T11:45:17Z</time>
      </trkpt>
      <trkpt lat="45.86321" lon="3.5836">
        <ele>536</ele>
        <time>2021-02-14T11:45:20Z</time>
      </trkpt>
      <trkpt lat="45.8632" lon="3.58362">
        <ele>537</ele>
        <time>2021-02-14T11:45:22Z</time>
      </trkpt>
      <trkpt lat="45.86318" lon="3.58363">
        <ele>539</ele>
        <time>2021-02-14T11:45:24Z</time>
      </trkpt>
      <trkpt lat="45.86316" lon="3.58365">
        <ele>540</ele>
        <time>2021-02-14T11:45:27Z</time>
      </trkpt>
      <trkpt lat="45.86316" lon="3.58368">
        <ele>540</ele>
        <time>2021-02-14T11:45:30Z</time>
      </trkpt>
      <trkpt lat="45.86315" lon="3.58371">
        <ele>540</ele>
        <time>2021-02-14T11:45:33Z</time>
      </trkpt>
      <trkpt lat="45.86314" lon="3.58374">
        <ele>541</ele>
        <time>2021-02-14T11:45:36Z</time>
      </trkpt>
      <trkpt lat="45.86312" lon="3.58377">
        <ele>543</ele>
        <time>2021-02-14T11:45:39Z</time>
      </trkpt>
      <trkpt lat="45.8631" lon="3.58381">
        <ele>544</ele>
        <time>2021-02-14T11:45:41Z</time>
      </trkpt>
      <trkpt lat="45.86309" lon="3.58383">
        <ele>544</ele>
        <time>2021-02-14T11:45:43Z</time>
      </trkpt>
      <trkpt lat="45.86308" lon="3.58386">
        <ele>545</ele>
        <time>2021-02-14T11:45:45Z</time>
      </trkpt>
      <trkpt lat="45.86306" lon="3.5839">
        <ele>547</ele>
        <time>2021-02-14T11:45:47Z</time>
      </trkpt>
      <trkpt lat="45.86304" lon="3.58392">
        <ele>547</ele>
        <time>2021-02-14T11:45:49Z</time>
      </trkpt>
      <trkpt lat="45.86302" lon="3.58394">
        <ele>548</ele>
        <time>2021-02-14T11:45:51Z</time>
      </trkpt>
      <trkpt lat="45.86301" lon="3.58397">
        <ele>549</ele>
        <time>2021-02-14T11:45:54Z</time>
      </trkpt>
      <trkpt lat="45.86299" lon="3.584">
        <ele>549</ele>
        <time>2021-02-14T11:45:56Z</time>
      </trkpt>
      <trkpt lat="45.86297" lon="3.58403">
        <ele>550</ele>
        <time>2021-02-14T11:45:58Z</time>
      </trkpt>
      <trkpt lat="45.86294" lon="3.58406">
        <ele>551</ele>
        <time>2021-02-14T11:46:00Z</time>
      </trkpt>
      <trkpt lat="45.86293" lon="3.58409">
        <ele>552</ele>
        <time>2021-02-14T11:46:02Z</time>
      </trkpt>
      <trkpt lat="45.86292" lon="3.58412">
        <ele>552</ele>
        <time>2021-02-14T11:46:04Z</time>
      </trkpt>
      <trkpt lat="45.86291" lon="3.58414">
        <ele>553</ele>
        <time>2021-02-14T11:46:06Z</time>
      </trkpt>
      <trkpt lat="45.8629" lon="3.58417">
        <ele>553</ele>
        <time>2021-02-14T11:46:08Z</time>
      </trkpt>
      <trkpt lat="45.86288" lon="3.58419">
        <ele>554</ele>
        <time>2021-02-14T11:46:10Z</time>
      </trkpt>
      <trkpt lat="45.86286" lon="3.58422">
        <ele>554</ele>
        <time>2021-02-14T11:46:12Z</time>
      </trkpt>
      <trkpt lat="45.86284" lon="3.58425">
        <ele>555</ele>
        <time>2021-02-14T11:46:14Z</time>
      </trkpt>
      <trkpt lat="45.86283" lon="3.58427">
        <ele>555</ele>
        <time>2021-02-14T11:46:17Z</time>
      </trkpt>
      <trkpt lat="45.86283" lon="3.5843">
        <ele>555</ele>
        <time>2021-02-14T11:46:25Z</time>
      </trkpt>
      <trkpt lat="45.86283" lon="3.58433">
        <ele>555</ele>
        <time>2021-02-14T11:46:30Z</time>
      </trkpt>
      <trkpt lat="45.86281" lon="3.58435">
        <ele>555</ele>
        <time>2021-02-14T11:46:33Z</time>
      </trkpt>
      <trkpt lat="45.86279" lon="3.58438">
        <ele>556</ele>
        <time>2021-02-14T11:46:36Z</time>
      </trkpt>
      <trkpt lat="45.86278" lon="3.58441">
        <ele>557</ele>
        <time>2021-02-14T11:46:38Z</time>
      </trkpt>
      <trkpt lat="45.86277" lon="3.58444">
        <ele>557</ele>
        <time>2021-02-14T11:46:41Z</time>
      </trkpt>
      <trkpt lat="45.86276" lon="3.58447">
        <ele>557</ele>
        <time>2021-02-14T11:46:44Z</time>
      </trkpt>
      <trkpt lat="45.86276" lon="3.5845">
        <ele>557</ele>
        <time>2021-02-14T11:46:46Z</time>
      </trkpt>
      <trkpt lat="45.86275" lon="3.58453">
        <ele>557</ele>
        <time>2021-02-14T11:46:48Z</time>
      </trkpt>
      <trkpt lat="45.86275" lon="3.58455">
        <ele>557</ele>
        <time>2021-02-14T11:46:51Z</time>
      </trkpt>
      <trkpt lat="45.86274" lon="3.58458">
        <ele>558</ele>
        <time>2021-02-14T11:46:53Z</time>
      </trkpt>
      <trkpt lat="45.86272" lon="3.5846">
        <ele>558</ele>
        <time>2021-02-14T11:46:55Z</time>
      </trkpt>
      <trkpt lat="45.86271" lon="3.58463">
        <ele>558</ele>
        <time>2021-02-14T11:46:57Z</time>
      </trkpt>
      <trkpt lat="45.8627" lon="3.58465">
        <ele>559</ele>
        <time>2021-02-14T11:46:59Z</time>
      </trkpt>
      <trkpt lat="45.86267" lon="3.58468">
        <ele>559</ele>
        <time>2021-02-14T11:47:01Z</time>
      </trkpt>
      <trkpt lat="45.86266" lon="3.58471">
        <ele>560</ele>
        <time>2021-02-14T11:47:03Z</time>
      </trkpt>
      <trkpt lat="45.86265" lon="3.58474">
        <ele>560</ele>
        <time>2021-02-14T11:47:05Z</time>
      </trkpt>
      <trkpt lat="45.86265" lon="3.58477">
        <ele>560</ele>
        <time>2021-02-14T11:47:07Z</time>
      </trkpt>
      <trkpt lat="45.86266" lon="3.5848">
        <ele>559</ele>
        <time>2021-02-14T11:47:09Z</time>
      </trkpt>
      <trkpt lat="45.86265" lon="3.58483">
        <ele>559</ele>
        <time>2021-02-14T11:47:11Z</time>
      </trkpt>
      <trkpt lat="45.86264" lon="3.58486">
        <ele>559</ele>
        <time>2021-02-14T11:47:13Z</time>
      </trkpt>
      <trkpt lat="45.86261" lon="3.58488">
        <ele>560</ele>
        <time>2021-02-14T11:47:15Z</time>
      </trkpt>
      <trkpt lat="45.86259" lon="3.5849">
        <ele>560</ele>
        <time>2021-02-14T11:47:20Z</time>
      </trkpt>
      <trkpt lat="45.86258" lon="3.58492">
        <ele>560</ele>
        <time>2021-02-14T11:47:22Z</time>
      </trkpt>
      <trkpt lat="45.86257" lon="3.58494">
        <ele>561</ele>
        <time>2021-02-14T11:47:24Z</time>
      </trkpt>
      <trkpt lat="45.86255" lon="3.58495">
        <ele>561</ele>
        <time>2021-02-14T11:47:26Z</time>
      </trkpt>
      <trkpt lat="45.86252" lon="3.58497">
        <ele>561</ele>
        <time>2021-02-14T11:47:28Z</time>
      </trkpt>
      <trkpt lat="45.8625" lon="3.58498">
        <ele>562</ele>
        <time>2021-02-14T11:47:30Z</time>
      </trkpt>
      <trkpt lat="45.86248" lon="3.58499">
        <ele>562</ele>
        <time>2021-02-14T11:47:32Z</time>
      </trkpt>
      <trkpt lat="45.86246" lon="3.585">
        <ele>562</ele>
        <time>2021-02-14T11:47:36Z</time>
      </trkpt>
      <trkpt lat="45.86244" lon="3.58501">
        <ele>562</ele>
        <time>2021-02-14T11:47:38Z</time>
      </trkpt>
      <trkpt lat="45.86242" lon="3.58502">
        <ele>562</ele>
        <time>2021-02-14T11:47:40Z</time>
      </trkpt>
      <trkpt lat="45.8624" lon="3.58502">
        <ele>562</ele>
        <time>2021-02-14T11:47:42Z</time>
      </trkpt>
      <trkpt lat="45.86237" lon="3.58505">
        <ele>562</ele>
        <time>2021-02-14T11:47:44Z</time>
      </trkpt>
      <trkpt lat="45.86234" lon="3.58506">
        <ele>563</ele>
        <time>2021-02-14T11:47:46Z</time>
      </trkpt>
      <trkpt lat="45.86232" lon="3.58509">
        <ele>563</ele>
        <time>2021-02-14T11:47:48Z</time>
      </trkpt>
      <trkpt lat="45.8623" lon="3.58512">
        <ele>563</ele>
        <time>2021-02-14T11:47:50Z</time>
      </trkpt>
      <trkpt lat="45.86228" lon="3.58515">
        <ele>563</ele>
        <time>2021-02-14T11:47:52Z</time>
      </trkpt>
      <trkpt lat="45.86225" lon="3.58517">
        <ele>563</ele>
        <time>2021-02-14T11:47:54Z</time>
      </trkpt>
      <trkpt lat="45.86223" lon="3.58519">
        <ele>563</ele>
        <time>2021-02-14T11:47:56Z</time>
      </trkpt>
      <trkpt lat="45.8622" lon="3.58521">
        <ele>563</ele>
        <time>2021-02-14T11:47:58Z</time>
      </trkpt>
      <trkpt lat="45.86218" lon="3.58524">
        <ele>563</ele>
        <time>2021-02-14T11:48:00Z</time>
      </trkpt>
      <trkpt lat="45.86216" lon="3.58527">
        <ele>563</ele>
        <time>2021-02-14T11:48:02Z</time>
      </trkpt>
      <trkpt lat="45.86214" lon="3.58528">
        <ele>562</ele>
        <time>2021-02-14T11:48:04Z</time>
      </trkpt>
      <trkpt lat="45.86211" lon="3.5853">
        <ele>562</ele>
        <time>2021-02-14T11:48:06Z</time>
      </trkpt>
      <trkpt lat="45.86209" lon="3.58532">
        <ele>562</ele>
        <time>2021-02-14T11:48:08Z</time>
      </trkpt>
      <trkpt lat="45.86207" lon="3.58534">
        <ele>562</ele>
        <time>2021-02-14T11:48:10Z</time>
      </trkpt>
      <trkpt lat="45.86205" lon="3.58537">
        <ele>562</ele>
        <time>2021-02-14T11:48:12Z</time>
      </trkpt>
      <trkpt lat="45.86203" lon="3.58539">
        <ele>562</ele>
        <time>2021-02-14T11:48:14Z</time>
      </trkpt>
      <trkpt lat="45.862" lon="3.5854">
        <ele>562</ele>
        <time>2021-02-14T11:48:16Z</time>
      </trkpt>
      <trkpt lat="45.86198" lon="3.58542">
        <ele>562</ele>
        <time>2021-02-14T11:48:18Z</time>
      </trkpt>
      <trkpt lat="45.86196" lon="3.58544">
        <ele>562</ele>
        <time>2021-02-14T11:48:20Z</time>
      </trkpt>
      <trkpt lat="45.86193" lon="3.58547">
        <ele>562</ele>
        <time>2021-02-14T11:48:22Z</time>
      </trkpt>
      <trkpt lat="45.86191" lon="3.58549">
        <ele>562</ele>
        <time>2021-02-14T11:48:24Z</time>
      </trkpt>
      <trkpt lat="45.86188" lon="3.58551">
        <ele>562</ele>
        <time>2021-02-14T11:48:26Z</time>
      </trkpt>
      <trkpt lat="45.86186" lon="3.58553">
        <ele>562</ele>
        <time>2021-02-14T11:48:28Z</time>
      </trkpt>
      <trkpt lat="45.86183" lon="3.58555">
        <ele>562</ele>
        <time>2021-02-14T11:48:30Z</time>
      </trkpt>
      <trkpt lat="45.86181" lon="3.58557">
        <ele>562</ele>
        <time>2021-02-14T11:48:32Z</time>
      </trkpt>
      <trkpt lat="45.86178" lon="3.58559">
        <ele>562</ele>
        <time>2021-02-14T11:48:34Z</time>
      </trkpt>
      <trkpt lat="45.86176" lon="3.5856">
        <ele>562</ele>
        <time>2021-02-14T11:48:36Z</time>
      </trkpt>
      <trkpt lat="45.86173" lon="3.58563">
        <ele>562</ele>
        <time>2021-02-14T11:48:38Z</time>
      </trkpt>
      <trkpt lat="45.8617" lon="3.58565">
        <ele>562</ele>
        <time>2021-02-14T11:48:40Z</time>
      </trkpt>
      <trkpt lat="45.86168" lon="3.58567">
        <ele>562</ele>
        <time>2021-02-14T11:48:42Z</time>
      </trkpt>
      <trkpt lat="45.86165" lon="3.58569">
        <ele>562</ele>
        <time>2021-02-14T11:48:44Z</time>
      </trkpt>
      <trkpt lat="45.86162" lon="3.5857">
        <ele>562</ele>
        <time>2021-02-14T11:48:46Z</time>
      </trkpt>
      <trkpt lat="45.86159" lon="3.58571">
        <ele>562</ele>
        <time>2021-02-14T11:48:48Z</time>
      </trkpt>
      <trkpt lat="45.86157" lon="3.58573">
        <ele>562</ele>
        <time>2021-02-14T11:48:50Z</time>
      </trkpt>
      <trkpt lat="45.86154" lon="3.58574">
        <ele>561</ele>
        <time>2021-02-14T11:48:52Z</time>
      </trkpt>
      <trkpt lat="45.86152" lon="3.58575">
        <ele>561</ele>
        <time>2021-02-14T11:48:54Z</time>
      </trkpt>
      <trkpt lat="45.8615" lon="3.58575">
        <ele>561</ele>
        <time>2021-02-14T11:48:56Z</time>
      </trkpt>
      <trkpt lat="45.86147" lon="3.58576">
        <ele>561</ele>
        <time>2021-02-14T11:48:58Z</time>
      </trkpt>
      <trkpt lat="45.86144" lon="3.58576">
        <ele>561</ele>
        <time>2021-02-14T11:49:00Z</time>
      </trkpt>
      <trkpt lat="45.86142" lon="3.58577">
        <ele>561</ele>
        <time>2021-02-14T11:49:02Z</time>
      </trkpt>
      <trkpt lat="45.86139" lon="3.58577">
        <ele>561</ele>
        <time>2021-02-14T11:49:04Z</time>
      </trkpt>
      <trkpt lat="45.86136" lon="3.58579">
        <ele>561</ele>
        <time>2021-02-14T11:49:06Z</time>
      </trkpt>
      <trkpt lat="45.86133" lon="3.5858">
        <ele>561</ele>
        <time>2021-02-14T11:49:08Z</time>
      </trkpt>
      <trkpt lat="45.86131" lon="3.58582">
        <ele>561</ele>
        <time>2021-02-14T11:49:10Z</time>
      </trkpt>
      <trkpt lat="45.86127" lon="3.58583">
        <ele>561</ele>
        <time>2021-02-14T11:49:12Z</time>
      </trkpt>
      <trkpt lat="45.86124" lon="3.58585">
        <ele>561</ele>
        <time>2021-02-14T11:49:14Z</time>
      </trkpt>
      <trkpt lat="45.86122" lon="3.58587">
        <ele>561</ele>
        <time>2021-02-14T11:49:16Z</time>
      </trkpt>
      <trkpt lat="45.86119" lon="3.58589">
        <ele>561</ele>
        <time>2021-02-14T11:49:18Z</time>
      </trkpt>
      <trkpt lat="45.86117" lon="3.58591">
        <ele>561</ele>
        <time>2021-02-14T11:49:20Z</time>
      </trkpt>
      <trkpt lat="45.86114" lon="3.58593">
        <ele>561</ele>
        <time>2021-02-14T11:49:22Z</time>
      </trkpt>
      <trkpt lat="45.86112" lon="3.58595">
        <ele>561</ele>
        <time>2021-02-14T11:49:24Z</time>
      </trkpt>
      <trkpt lat="45.86109" lon="3.58597">
        <ele>561</ele>
        <time>2021-02-14T11:49:26Z</time>
      </trkpt>
      <trkpt lat="45.86107" lon="3.58599">
        <ele>561</ele>
        <time>2021-02-14T11:49:28Z</time>
      </trkpt>
      <trkpt lat="45.86104" lon="3.58602">
        <ele>561</ele>
        <time>2021-02-14T11:49:30Z</time>
      </trkpt>
      <trkpt lat="45.86102" lon="3.58604">
        <ele>561</ele>
        <time>2021-02-14T11:49:32Z</time>
      </trkpt>
      <trkpt lat="45.86099" lon="3.58606">
        <ele>561</ele>
        <time>2021-02-14T11:49:34Z</time>
      </trkpt>
      <trkpt lat="45.86096" lon="3.58607">
        <ele>562</ele>
        <time>2021-02-14T11:49:36Z</time>
      </trkpt>
      <trkpt lat="45.86094" lon="3.58608">
        <ele>562</ele>
        <time>2021-02-14T11:49:38Z</time>
      </trkpt>
      <trkpt lat="45.86092" lon="3.58609">
        <ele>562</ele>
        <time>2021-02-14T11:49:40Z</time>
      </trkpt>
      <trkpt lat="45.86089" lon="3.58612">
        <ele>562</ele>
        <time>2021-02-14T11:49:42Z</time>
      </trkpt>
      <trkpt lat="45.86087" lon="3.58614">
        <ele>562</ele>
        <time>2021-02-14T11:49:44Z</time>
      </trkpt>
      <trkpt lat="45.86084" lon="3.58616">
        <ele>562</ele>
        <time>2021-02-14T11:49:46Z</time>
      </trkpt>
      <trkpt lat="45.86082" lon="3.58617">
        <ele>562</ele>
        <time>2021-02-14T11:49:48Z</time>
      </trkpt>
      <trkpt lat="45.8608" lon="3.58618">
        <ele>562</ele>
        <time>2021-02-14T11:49:50Z</time>
      </trkpt>
      <trkpt lat="45.86078" lon="3.5862">
        <ele>562</ele>
        <time>2021-02-14T11:49:52Z</time>
      </trkpt>
      <trkpt lat="45.86076" lon="3.58621">
        <ele>562</ele>
        <time>2021-02-14T11:49:54Z</time>
      </trkpt>
      <trkpt lat="45.86074" lon="3.58623">
        <ele>562</ele>
        <time>2021-02-14T11:49:56Z</time>
      </trkpt>
      <trkpt lat="45.86072" lon="3.58625">
        <ele>562</ele>
        <time>2021-02-14T11:49:58Z</time>
      </trkpt>
      <trkpt lat="45.86069" lon="3.58627">
        <ele>562</ele>
        <time>2021-02-14T11:50:00Z</time>
      </trkpt>
      <trkpt lat="45.86067" lon="3.58628">
        <ele>562</ele>
        <time>2021-02-14T11:50:01Z</time>
      </trkpt>
      <trkpt lat="45.86065" lon="3.58629">
        <ele>563</ele>
        <time>2021-02-14T11:50:02Z</time>
      </trkpt>
      <trkpt lat="45.86063" lon="3.5863">
        <ele>563</ele>
        <time>2021-02-14T11:50:03Z</time>
      </trkpt>
      <trkpt lat="45.86061" lon="3.58631">
        <ele>563</ele>
        <time>2021-02-14T11:50:05Z</time>
      </trkpt>
      <trkpt lat="45.86058" lon="3.58633">
        <ele>563</ele>
        <time>2021-02-14T11:50:07Z</time>
      </trkpt>
      <trkpt lat="45.86055" lon="3.58635">
        <ele>563</ele>
        <time>2021-02-14T11:50:09Z</time>
      </trkpt>
      <trkpt lat="45.86052" lon="3.58636">
        <ele>563</ele>
        <time>2021-02-14T11:50:11Z</time>
      </trkpt>
      <trkpt lat="45.86049" lon="3.58638">
        <ele>563</ele>
        <time>2021-02-14T11:50:13Z</time>
      </trkpt>
      <trkpt lat="45.86047" lon="3.58639">
        <ele>563</ele>
        <time>2021-02-14T11:50:15Z</time>
      </trkpt>
      <trkpt lat="45.86044" lon="3.58642">
        <ele>563</ele>
        <time>2021-02-14T11:50:18Z</time>
      </trkpt>
      <trkpt lat="45.86042" lon="3.58644">
        <ele>563</ele>
        <time>2021-02-14T11:50:20Z</time>
      </trkpt>
      <trkpt lat="45.86039" lon="3.58646">
        <ele>563</ele>
        <time>2021-02-14T11:50:22Z</time>
      </trkpt>
      <trkpt lat="45.86037" lon="3.58647">
        <ele>563</ele>
        <time>2021-02-14T11:50:23Z</time>
      </trkpt>
      <trkpt lat="45.86035" lon="3.5865">
        <ele>563</ele>
        <time>2021-02-14T11:50:25Z</time>
      </trkpt>
      <trkpt lat="45.86033" lon="3.58653">
        <ele>563</ele>
        <time>2021-02-14T11:50:27Z</time>
      </trkpt>
      <trkpt lat="45.86031" lon="3.58656">
        <ele>563</ele>
        <time>2021-02-14T11:50:29Z</time>
      </trkpt>
      <trkpt lat="45.86028" lon="3.58659">
        <ele>563</ele>
        <time>2021-02-14T11:50:31Z</time>
      </trkpt>
      <trkpt lat="45.86026" lon="3.58661">
        <ele>563</ele>
        <time>2021-02-14T11:50:33Z</time>
      </trkpt>
      <trkpt lat="45.86023" lon="3.58665">
        <ele>563</ele>
        <time>2021-02-14T11:50:35Z</time>
      </trkpt>
      <trkpt lat="45.86022" lon="3.58668">
        <ele>563</ele>
        <time>2021-02-14T11:50:37Z</time>
      </trkpt>
      <trkpt lat="45.8602" lon="3.58671">
        <ele>563</ele>
        <time>2021-02-14T11:50:39Z</time>
      </trkpt>
      <trkpt lat="45.86017" lon="3.58674">
        <ele>563</ele>
        <time>2021-02-14T11:50:41Z</time>
      </trkpt>
      <trkpt lat="45.86014" lon="3.58676">
        <ele>563</ele>
        <time>2021-02-14T11:50:43Z</time>
      </trkpt>
      <trkpt lat="45.86012" lon="3.58679">
        <ele>563</ele>
        <time>2021-02-14T11:50:45Z</time>
      </trkpt>
      <trkpt lat="45.86009" lon="3.58682">
        <ele>564</ele>
        <time>2021-02-14T11:50:47Z</time>
      </trkpt>
      <trkpt lat="45.86007" lon="3.58684">
        <ele>564</ele>
        <time>2021-02-14T11:50:49Z</time>
      </trkpt>
      <trkpt lat="45.86004" lon="3.58686">
        <ele>564</ele>
        <time>2021-02-14T11:50:51Z</time>
      </trkpt>
      <trkpt lat="45.86002" lon="3.58688">
        <ele>564</ele>
        <time>2021-02-14T11:50:53Z</time>
      </trkpt>
      <trkpt lat="45.85999" lon="3.5869">
        <ele>564</ele>
        <time>2021-02-14T11:50:55Z</time>
      </trkpt>
      <trkpt lat="45.85997" lon="3.58691">
        <ele>564</ele>
        <time>2021-02-14T11:50:57Z</time>
      </trkpt>
      <trkpt lat="45.85994" lon="3.58692">
        <ele>564</ele>
        <time>2021-02-14T11:50:59Z</time>
      </trkpt>
      <trkpt lat="45.85992" lon="3.58693">
        <ele>564</ele>
        <time>2021-02-14T11:51:01Z</time>
      </trkpt>
      <trkpt lat="45.85989" lon="3.58694">
        <ele>564</ele>
        <time>2021-02-14T11:51:03Z</time>
      </trkpt>
      <trkpt lat="45.85986" lon="3.58695">
        <ele>564</ele>
        <time>2021-02-14T11:51:05Z</time>
      </trkpt>
      <trkpt lat="45.85984" lon="3.58695">
        <ele>564</ele>
        <time>2021-02-14T11:51:07Z</time>
      </trkpt>
      <trkpt lat="45.85982" lon="3.58696">
        <ele>564</ele>
        <time>2021-02-14T11:51:09Z</time>
      </trkpt>
      <trkpt lat="45.85979" lon="3.58696">
        <ele>564</ele>
        <time>2021-02-14T11:51:11Z</time>
      </trkpt>
      <trkpt lat="45.85976" lon="3.58696">
        <ele>564</ele>
        <time>2021-02-14T11:51:13Z</time>
      </trkpt>
      <trkpt lat="45.85974" lon="3.58697">
        <ele>564</ele>
        <time>2021-02-14T11:51:15Z</time>
      </trkpt>
      <trkpt lat="45.85971" lon="3.58697">
        <ele>564</ele>
        <time>2021-02-14T11:51:17Z</time>
      </trkpt>
      <trkpt lat="45.85969" lon="3.58698">
        <ele>564</ele>
        <time>2021-02-14T11:51:19Z</time>
      </trkpt>
      <trkpt lat="45.85965" lon="3.58699">
        <ele>564</ele>
        <time>2021-02-14T11:51:21Z</time>
      </trkpt>
      <trkpt lat="45.85963" lon="3.58701">
        <ele>564</ele>
        <time>2021-02-14T11:51:23Z</time>
      </trkpt>
      <trkpt lat="45.8596" lon="3.58703">
        <ele>565</ele>
        <time>2021-02-14T11:51:25Z</time>
      </trkpt>
      <trkpt lat="45.85958" lon="3.58704">
        <ele>565</ele>
        <time>2021-02-14T11:51:27Z</time>
      </trkpt>
      <trkpt lat="45.85955" lon="3.58706">
        <ele>565</ele>
        <time>2021-02-14T11:51:29Z</time>
      </trkpt>
      <trkpt lat="45.85953" lon="3.58707">
        <ele>566</ele>
        <time>2021-02-14T11:51:31Z</time>
      </trkpt>
      <trkpt lat="45.85951" lon="3.58709">
        <ele>566</ele>
        <time>2021-02-14T11:51:33Z</time>
      </trkpt>
      <trkpt lat="45.85949" lon="3.58711">
        <ele>566</ele>
        <time>2021-02-14T11:51:35Z</time>
      </trkpt>
      <trkpt lat="45.85948" lon="3.58713">
        <ele>567</ele>
        <time>2021-02-14T11:51:37Z</time>
      </trkpt>
      <trkpt lat="45.85946" lon="3.58715">
        <ele>567</ele>
        <time>2021-02-14T11:51:39Z</time>
      </trkpt>
      <trkpt lat="45.85944" lon="3.58717">
        <ele>568</ele>
        <time>2021-02-14T11:51:41Z</time>
      </trkpt>
      <trkpt lat="45.85942" lon="3.58719">
        <ele>568</ele>
        <time>2021-02-14T11:51:44Z</time>
      </trkpt>
      <trkpt lat="45.8594" lon="3.5872">
        <ele>569</ele>
        <time>2021-02-14T11:51:46Z</time>
      </trkpt>
      <trkpt lat="45.85938" lon="3.58722">
        <ele>569</ele>
        <time>2021-02-14T11:51:48Z</time>
      </trkpt>
      <trkpt lat="45.85936" lon="3.58725">
        <ele>570</ele>
        <time>2021-02-14T11:51:50Z</time>
      </trkpt>
      <trkpt lat="45.85933" lon="3.58726">
        <ele>571</ele>
        <time>2021-02-14T11:51:52Z</time>
      </trkpt>
      <trkpt lat="45.8593" lon="3.58728">
        <ele>572</ele>
        <time>2021-02-14T11:51:54Z</time>
      </trkpt>
      <trkpt lat="45.85927" lon="3.5873">
        <ele>572</ele>
        <time>2021-02-14T11:51:56Z</time>
      </trkpt>
      <trkpt lat="45.85925" lon="3.58732">
        <ele>573</ele>
        <time>2021-02-14T11:51:58Z</time>
      </trkpt>
      <trkpt lat="45.85923" lon="3.58734">
        <ele>574</ele>
        <time>2021-02-14T11:52:00Z</time>
      </trkpt>
      <trkpt lat="45.85921" lon="3.58735">
        <ele>575</ele>
        <time>2021-02-14T11:52:02Z</time>
      </trkpt>
      <trkpt lat="45.85919" lon="3.58735">
        <ele>575</ele>
        <time>2021-02-14T11:52:04Z</time>
      </trkpt>
      <trkpt lat="45.85916" lon="3.58736">
        <ele>575</ele>
        <time>2021-02-14T11:52:06Z</time>
      </trkpt>
      <trkpt lat="45.85914" lon="3.58738">
        <ele>577</ele>
        <time>2021-02-14T11:52:09Z</time>
      </trkpt>
      <trkpt lat="45.85912" lon="3.58738">
        <ele>577</ele>
        <time>2021-02-14T11:52:11Z</time>
      </trkpt>
      <trkpt lat="45.8591" lon="3.58739">
        <ele>578</ele>
        <time>2021-02-14T11:52:13Z</time>
      </trkpt>
      <trkpt lat="45.85908" lon="3.58739">
        <ele>579</ele>
        <time>2021-02-14T11:52:15Z</time>
      </trkpt>
      <trkpt lat="45.85906" lon="3.5874">
        <ele>579</ele>
        <time>2021-02-14T11:52:17Z</time>
      </trkpt>
      <trkpt lat="45.85904" lon="3.58741">
        <ele>580</ele>
        <time>2021-02-14T11:52:19Z</time>
      </trkpt>
      <trkpt lat="45.85902" lon="3.58743">
        <ele>581</ele>
        <time>2021-02-14T11:52:21Z</time>
      </trkpt>
      <trkpt lat="45.859" lon="3.58743">
        <ele>582</ele>
        <time>2021-02-14T11:52:23Z</time>
      </trkpt>
      <trkpt lat="45.85897" lon="3.58744">
        <ele>583</ele>
        <time>2021-02-14T11:52:25Z</time>
      </trkpt>
      <trkpt lat="45.85895" lon="3.58744">
        <ele>583</ele>
        <time>2021-02-14T11:52:27Z</time>
      </trkpt>
      <trkpt lat="45.85892" lon="3.58745">
        <ele>584</ele>
        <time>2021-02-14T11:52:29Z</time>
      </trkpt>
      <trkpt lat="45.85891" lon="3.58745">
        <ele>585</ele>
        <time>2021-02-14T11:52:31Z</time>
      </trkpt>
      <trkpt lat="45.85889" lon="3.58745">
        <ele>585</ele>
        <time>2021-02-14T11:52:33Z</time>
      </trkpt>
      <trkpt lat="45.85887" lon="3.58746">
        <ele>586</ele>
        <time>2021-02-14T11:52:35Z</time>
      </trkpt>
      <trkpt lat="45.85885" lon="3.58746">
        <ele>586</ele>
        <time>2021-02-14T11:52:37Z</time>
      </trkpt>
      <trkpt lat="45.85882" lon="3.58747">
        <ele>587</ele>
        <time>2021-02-14T11:52:40Z</time>
      </trkpt>
      <trkpt lat="45.8588" lon="3.58749">
        <ele>588</ele>
        <time>2021-02-14T11:52:43Z</time>
      </trkpt>
      <trkpt lat="45.85878" lon="3.58749">
        <ele>588</ele>
        <time>2021-02-14T11:52:46Z</time>
      </trkpt>
      <trkpt lat="45.85875" lon="3.5875">
        <ele>588</ele>
        <time>2021-02-14T11:52:48Z</time>
      </trkpt>
      <trkpt lat="45.85873" lon="3.5875">
        <ele>589</ele>
        <time>2021-02-14T11:52:50Z</time>
      </trkpt>
      <trkpt lat="45.85871" lon="3.58749">
        <ele>589</ele>
        <time>2021-02-14T11:52:52Z</time>
      </trkpt>
      <trkpt lat="45.85868" lon="3.58749">
        <ele>589</ele>
        <time>2021-02-14T11:52:55Z</time>
      </trkpt>
      <trkpt lat="45.85866" lon="3.58749">
        <ele>590</ele>
        <time>2021-02-14T11:52:57Z</time>
      </trkpt>
      <trkpt lat="45.85864" lon="3.58749">
        <ele>590</ele>
        <time>2021-02-14T11:52:59Z</time>
      </trkpt>
      <trkpt lat="45.85862" lon="3.58749">
        <ele>590</ele>
        <time>2021-02-14T11:53:01Z</time>
      </trkpt>
      <trkpt lat="45.85859" lon="3.58749">
        <ele>591</ele>
        <time>2021-02-14T11:53:04Z</time>
      </trkpt>
      <trkpt lat="45.85857" lon="3.58749">
        <ele>591</ele>
        <time>2021-02-14T11:53:07Z</time>
      </trkpt>
      <trkpt lat="45.85855" lon="3.58748">
        <ele>591</ele>
        <time>2021-02-14T11:53:10Z</time>
      </trkpt>
      <trkpt lat="45.85853" lon="3.58748">
        <ele>592</ele>
        <time>2021-02-14T11:53:13Z</time>
      </trkpt>
      <trkpt lat="45.85851" lon="3.58748">
        <ele>592</ele>
        <time>2021-02-14T11:53:15Z</time>
      </trkpt>
      <trkpt lat="45.85848" lon="3.58745">
        <ele>592</ele>
        <time>2021-02-14T11:53:17Z</time>
      </trkpt>
      <trkpt lat="45.85846" lon="3.58744">
        <ele>592</ele>
        <time>2021-02-14T11:53:19Z</time>
      </trkpt>
      <trkpt lat="45.85845" lon="3.58744">
        <ele>592</ele>
        <time>2021-02-14T11:53:21Z</time>
      </trkpt>
      <trkpt lat="45.85843" lon="3.58742">
        <ele>593</ele>
        <time>2021-02-14T11:53:23Z</time>
      </trkpt>
      <trkpt lat="45.8584" lon="3.5874">
        <ele>593</ele>
        <time>2021-02-14T11:53:26Z</time>
      </trkpt>
      <trkpt lat="45.85838" lon="3.58739">
        <ele>593</ele>
        <time>2021-02-14T11:53:29Z</time>
      </trkpt>
      <trkpt lat="45.85837" lon="3.58739">
        <ele>593</ele>
        <time>2021-02-14T11:53:32Z</time>
      </trkpt>
      <trkpt lat="45.85835" lon="3.58739">
        <ele>593</ele>
        <time>2021-02-14T11:53:35Z</time>
      </trkpt>
      <trkpt lat="45.85832" lon="3.58738">
        <ele>594</ele>
        <time>2021-02-14T11:53:40Z</time>
      </trkpt>
      <trkpt lat="45.8583" lon="3.58737">
        <ele>594</ele>
        <time>2021-02-14T11:53:44Z</time>
      </trkpt>
      <trkpt lat="45.85829" lon="3.58736">
        <ele>594</ele>
        <time>2021-02-14T11:53:47Z</time>
      </trkpt>
      <trkpt lat="45.85826" lon="3.58735">
        <ele>594</ele>
        <time>2021-02-14T11:53:50Z</time>
      </trkpt>
      <trkpt lat="45.85823" lon="3.58734">
        <ele>595</ele>
        <time>2021-02-14T11:53:53Z</time>
      </trkpt>
      <trkpt lat="45.85821" lon="3.58734">
        <ele>595</ele>
        <time>2021-02-14T11:53:55Z</time>
      </trkpt>
      <trkpt lat="45.85818" lon="3.58734">
        <ele>596</ele>
        <time>2021-02-14T11:53:58Z</time>
      </trkpt>
      <trkpt lat="45.85816" lon="3.58734">
        <ele>597</ele>
        <time>2021-02-14T11:54:00Z</time>
      </trkpt>
      <trkpt lat="45.85814" lon="3.58735">
        <ele>597</ele>
        <time>2021-02-14T11:54:02Z</time>
      </trkpt>
      <trkpt lat="45.85812" lon="3.58734">
        <ele>597</ele>
        <time>2021-02-14T11:54:05Z</time>
      </trkpt>
      <trkpt lat="45.8581" lon="3.58734">
        <ele>598</ele>
        <time>2021-02-14T11:54:07Z</time>
      </trkpt>
      <trkpt lat="45.85808" lon="3.58734">
        <ele>598</ele>
        <time>2021-02-14T11:54:10Z</time>
      </trkpt>
      <trkpt lat="45.85805" lon="3.58734">
        <ele>599</ele>
        <time>2021-02-14T11:54:13Z</time>
      </trkpt>
      <trkpt lat="45.85803" lon="3.58734">
        <ele>600</ele>
        <time>2021-02-14T11:54:16Z</time>
      </trkpt>
      <trkpt lat="45.85801" lon="3.58735">
        <ele>600</ele>
        <time>2021-02-14T11:54:18Z</time>
      </trkpt>
      <trkpt lat="45.85798" lon="3.58735">
        <ele>601</ele>
        <time>2021-02-14T11:54:21Z</time>
      </trkpt>
      <trkpt lat="45.85796" lon="3.58736">
        <ele>602</ele>
        <time>2021-02-14T11:54:23Z</time>
      </trkpt>
      <trkpt lat="45.85794" lon="3.58736">
        <ele>603</ele>
        <time>2021-02-14T11:54:27Z</time>
      </trkpt>
      <trkpt lat="45.85792" lon="3.58736">
        <ele>603</ele>
        <time>2021-02-14T11:54:29Z</time>
      </trkpt>
      <trkpt lat="45.8579" lon="3.58737">
        <ele>604</ele>
        <time>2021-02-14T11:54:31Z</time>
      </trkpt>
      <trkpt lat="45.85788" lon="3.58737">
        <ele>605</ele>
        <time>2021-02-14T11:54:34Z</time>
      </trkpt>
      <trkpt lat="45.85783" lon="3.58736">
        <ele>606</ele>
        <time>2021-02-14T11:54:40Z</time>
      </trkpt>
      <trkpt lat="45.85781" lon="3.58736">
        <ele>606</ele>
        <time>2021-02-14T11:54:42Z</time>
      </trkpt>
      <trkpt lat="45.85779" lon="3.58736">
        <ele>607</ele>
        <time>2021-02-14T11:54:44Z</time>
      </trkpt>
      <trkpt lat="45.85776" lon="3.58736">
        <ele>607</ele>
        <time>2021-02-14T11:54:47Z</time>
      </trkpt>
      <trkpt lat="45.85773" lon="3.58736">
        <ele>608</ele>
        <time>2021-02-14T11:54:51Z</time>
      </trkpt>
      <trkpt lat="45.85771" lon="3.58736">
        <ele>608</ele>
        <time>2021-02-14T11:54:53Z</time>
      </trkpt>
      <trkpt lat="45.85769" lon="3.58736">
        <ele>609</ele>
        <time>2021-02-14T11:54:55Z</time>
      </trkpt>
      <trkpt lat="45.85767" lon="3.58737">
        <ele>609</ele>
        <time>2021-02-14T11:54:57Z</time>
      </trkpt>
      <trkpt lat="45.85765" lon="3.58737">
        <ele>610</ele>
        <time>2021-02-14T11:54:59Z</time>
      </trkpt>
      <trkpt lat="45.85761" lon="3.58739">
        <ele>611</ele>
        <time>2021-02-14T11:55:07Z</time>
      </trkpt>
      <trkpt lat="45.85752" lon="3.5874">
        <ele>613</ele>
        <time>2021-02-14T11:55:19Z</time>
      </trkpt>
      <trkpt lat="45.85747" lon="3.58742">
        <ele>614</ele>
        <time>2021-02-14T11:55:22Z</time>
      </trkpt>
      <trkpt lat="45.85745" lon="3.58742">
        <ele>614</ele>
        <time>2021-02-14T11:55:24Z</time>
      </trkpt>
      <trkpt lat="45.85742" lon="3.58743">
        <ele>615</ele>
        <time>2021-02-14T11:55:26Z</time>
      </trkpt>
      <trkpt lat="45.85739" lon="3.58743">
        <ele>615</ele>
        <time>2021-02-14T11:55:28Z</time>
      </trkpt>
      <trkpt lat="45.85736" lon="3.58743">
        <ele>616</ele>
        <time>2021-02-14T11:55:30Z</time>
      </trkpt>
      <trkpt lat="45.85735" lon="3.58744">
        <ele>616</ele>
        <time>2021-02-14T11:55:32Z</time>
      </trkpt>
      <trkpt lat="45.8573" lon="3.58744">
        <ele>617</ele>
        <time>2021-02-14T11:55:36Z</time>
      </trkpt>
      <trkpt lat="45.85728" lon="3.58745">
        <ele>617</ele>
        <time>2021-02-14T11:55:39Z</time>
      </trkpt>
      <trkpt lat="45.8572" lon="3.58748">
        <ele>619</ele>
        <time>2021-02-14T11:55:48Z</time>
      </trkpt>
      <trkpt lat="45.85717" lon="3.58749">
        <ele>620</ele>
        <time>2021-02-14T11:55:50Z</time>
      </trkpt>
      <trkpt lat="45.85709" lon="3.58753">
        <ele>623</ele>
        <time>2021-02-14T11:55:55Z</time>
      </trkpt>
      <trkpt lat="45.85707" lon="3.58754">
        <ele>624</ele>
        <time>2021-02-14T11:55:57Z</time>
      </trkpt>
      <trkpt lat="45.85705" lon="3.58755">
        <ele>625</ele>
        <time>2021-02-14T11:55:59Z</time>
      </trkpt>
      <trkpt lat="45.85703" lon="3.58757">
        <ele>626</ele>
        <time>2021-02-14T11:56:01Z</time>
      </trkpt>
      <trkpt lat="45.857" lon="3.58758">
        <ele>627</ele>
        <time>2021-02-14T11:56:03Z</time>
      </trkpt>
      <trkpt lat="45.85698" lon="3.58759">
        <ele>627</ele>
        <time>2021-02-14T11:56:05Z</time>
      </trkpt>
      <trkpt lat="45.85696" lon="3.5876">
        <ele>628</ele>
        <time>2021-02-14T11:56:08Z</time>
      </trkpt>
      <trkpt lat="45.85694" lon="3.58761">
        <ele>629</ele>
        <time>2021-02-14T11:56:10Z</time>
      </trkpt>
      <trkpt lat="45.85692" lon="3.58762">
        <ele>629</ele>
        <time>2021-02-14T11:56:13Z</time>
      </trkpt>
      <trkpt lat="45.8569" lon="3.58763">
        <ele>629</ele>
        <time>2021-02-14T11:56:16Z</time>
      </trkpt>
      <trkpt lat="45.85687" lon="3.58765">
        <ele>629</ele>
        <time>2021-02-14T11:56:20Z</time>
      </trkpt>
      <trkpt lat="45.85685" lon="3.58765">
        <ele>629</ele>
        <time>2021-02-14T11:56:22Z</time>
      </trkpt>
      <trkpt lat="45.85682" lon="3.58767">
        <ele>629</ele>
        <time>2021-02-14T11:56:24Z</time>
      </trkpt>
      <trkpt lat="45.8568" lon="3.58768">
        <ele>629</ele>
        <time>2021-02-14T11:56:26Z</time>
      </trkpt>
      <trkpt lat="45.85678" lon="3.58769">
        <ele>628</ele>
        <time>2021-02-14T11:56:28Z</time>
      </trkpt>
      <trkpt lat="45.85676" lon="3.5877">
        <ele>628</ele>
        <time>2021-02-14T11:56:33Z</time>
      </trkpt>
      <trkpt lat="45.85674" lon="3.58771">
        <ele>628</ele>
        <time>2021-02-14T11:56:35Z</time>
      </trkpt>
      <trkpt lat="45.85672" lon="3.58773">
        <ele>628</ele>
        <time>2021-02-14T11:56:37Z</time>
      </trkpt>
      <trkpt lat="45.8567" lon="3.58774">
        <ele>628</ele>
        <time>2021-02-14T11:56:39Z</time>
      </trkpt>
      <trkpt lat="45.85668" lon="3.58776">
        <ele>628</ele>
        <time>2021-02-14T11:56:41Z</time>
      </trkpt>
      <trkpt lat="45.85667" lon="3.58778">
        <ele>628</ele>
        <time>2021-02-14T11:56:43Z</time>
      </trkpt>
      <trkpt lat="45.85666" lon="3.5878">
        <ele>629</ele>
        <time>2021-02-14T11:56:45Z</time>
      </trkpt>
      <trkpt lat="45.85665" lon="3.58783">
        <ele>629</ele>
        <time>2021-02-14T11:56:47Z</time>
      </trkpt>
      <trkpt lat="45.85663" lon="3.58785">
        <ele>629</ele>
        <time>2021-02-14T11:56:49Z</time>
      </trkpt>
      <trkpt lat="45.85662" lon="3.58787">
        <ele>629</ele>
        <time>2021-02-14T11:56:51Z</time>
      </trkpt>
      <trkpt lat="45.85661" lon="3.58789">
        <ele>630</ele>
        <time>2021-02-14T11:56:53Z</time>
      </trkpt>
      <trkpt lat="45.8566" lon="3.58792">
        <ele>630</ele>
        <time>2021-02-14T11:56:56Z</time>
      </trkpt>
      <trkpt lat="45.85658" lon="3.58794">
        <ele>630</ele>
        <time>2021-02-14T11:56:59Z</time>
      </trkpt>
      <trkpt lat="45.85658" lon="3.58798">
        <ele>630</ele>
        <time>2021-02-14T11:57:08Z</time>
      </trkpt>
      <trkpt lat="45.85656" lon="3.58799">
        <ele>630</ele>
        <time>2021-02-14T11:57:11Z</time>
      </trkpt>
      <trkpt lat="45.85655" lon="3.58801">
        <ele>630</ele>
        <time>2021-02-14T11:57:13Z</time>
      </trkpt>
      <trkpt lat="45.85654" lon="3.58804">
        <ele>630</ele>
        <time>2021-02-14T11:57:15Z</time>
      </trkpt>
      <trkpt lat="45.85653" lon="3.58807">
        <ele>630</ele>
        <time>2021-02-14T11:57:18Z</time>
      </trkpt>
      <trkpt lat="45.85652" lon="3.58809">
        <ele>630</ele>
        <time>2021-02-14T11:57:20Z</time>
      </trkpt>
      <trkpt lat="45.8565" lon="3.58812">
        <ele>630</ele>
        <time>2021-02-14T11:57:22Z</time>
      </trkpt>
      <trkpt lat="45.85648" lon="3.58815">
        <ele>630</ele>
        <time>2021-02-14T11:57:25Z</time>
      </trkpt>
      <trkpt lat="45.85646" lon="3.58817">
        <ele>630</ele>
        <time>2021-02-14T11:57:27Z</time>
      </trkpt>
      <trkpt lat="45.85644" lon="3.58819">
        <ele>629</ele>
        <time>2021-02-14T11:57:30Z</time>
      </trkpt>
      <trkpt lat="45.85643" lon="3.58821">
        <ele>629</ele>
        <time>2021-02-14T11:57:32Z</time>
      </trkpt>
      <trkpt lat="45.85641" lon="3.58823">
        <ele>629</ele>
        <time>2021-02-14T11:57:34Z</time>
      </trkpt>
      <trkpt lat="45.8564" lon="3.58825">
        <ele>629</ele>
        <time>2021-02-14T11:57:37Z</time>
      </trkpt>
      <trkpt lat="45.85639" lon="3.58828">
        <ele>629</ele>
        <time>2021-02-14T11:57:39Z</time>
      </trkpt>
      <trkpt lat="45.85637" lon="3.5883">
        <ele>629</ele>
        <time>2021-02-14T11:57:42Z</time>
      </trkpt>
      <trkpt lat="45.85635" lon="3.58832">
        <ele>629</ele>
        <time>2021-02-14T11:57:43Z</time>
      </trkpt>
      <trkpt lat="45.85634" lon="3.58835">
        <ele>629</ele>
        <time>2021-02-14T11:57:45Z</time>
      </trkpt>
      <trkpt lat="45.85633" lon="3.58838">
        <ele>630</ele>
        <time>2021-02-14T11:57:47Z</time>
      </trkpt>
      <trkpt lat="45.85631" lon="3.58841">
        <ele>630</ele>
        <time>2021-02-14T11:57:49Z</time>
      </trkpt>
      <trkpt lat="45.8563" lon="3.58844">
        <ele>631</ele>
        <time>2021-02-14T11:57:51Z</time>
      </trkpt>
      <trkpt lat="45.85628" lon="3.58847">
        <ele>631</ele>
        <time>2021-02-14T11:57:53Z</time>
      </trkpt>
      <trkpt lat="45.85628" lon="3.5885">
        <ele>632</ele>
        <time>2021-02-14T11:57:55Z</time>
      </trkpt>
      <trkpt lat="45.85626" lon="3.58853">
        <ele>632</ele>
        <time>2021-02-14T11:57:57Z</time>
      </trkpt>
      <trkpt lat="45.85625" lon="3.58856">
        <ele>633</ele>
        <time>2021-02-14T11:58:00Z</time>
      </trkpt>
      <trkpt lat="45.85624" lon="3.58859">
        <ele>633</ele>
        <time>2021-02-14T11:58:02Z</time>
      </trkpt>
      <trkpt lat="45.85623" lon="3.58862">
        <ele>634</ele>
        <time>2021-02-14T11:58:04Z</time>
      </trkpt>
      <trkpt lat="45.85622" lon="3.58865">
        <ele>634</ele>
        <time>2021-02-14T11:58:06Z</time>
      </trkpt>
      <trkpt lat="45.85621" lon="3.58867">
        <ele>635</ele>
        <time>2021-02-14T11:58:08Z</time>
      </trkpt>
      <trkpt lat="45.8562" lon="3.58871">
        <ele>635</ele>
        <time>2021-02-14T11:58:10Z</time>
      </trkpt>
      <trkpt lat="45.85619" lon="3.58874">
        <ele>635</ele>
        <time>2021-02-14T11:58:12Z</time>
      </trkpt>
      <trkpt lat="45.85618" lon="3.58876">
        <ele>636</ele>
        <time>2021-02-14T11:58:14Z</time>
      </trkpt>
      <trkpt lat="45.85616" lon="3.58879">
        <ele>636</ele>
        <time>2021-02-14T11:58:16Z</time>
      </trkpt>
      <trkpt lat="45.85615" lon="3.58882">
        <ele>637</ele>
        <time>2021-02-14T11:58:18Z</time>
      </trkpt>
      <trkpt lat="45.85614" lon="3.58885">
        <ele>637</ele>
        <time>2021-02-14T11:58:21Z</time>
      </trkpt>
      <trkpt lat="45.85613" lon="3.58888">
        <ele>638</ele>
        <time>2021-02-14T11:58:23Z</time>
      </trkpt>
      <trkpt lat="45.85612" lon="3.58891">
        <ele>638</ele>
        <time>2021-02-14T11:58:25Z</time>
      </trkpt>
      <trkpt lat="45.85612" lon="3.58894">
        <ele>639</ele>
        <time>2021-02-14T11:58:27Z</time>
      </trkpt>
      <trkpt lat="45.85609" lon="3.58897">
        <ele>640</ele>
        <time>2021-02-14T11:58:30Z</time>
      </trkpt>
      <trkpt lat="45.85608" lon="3.589">
        <ele>640</ele>
        <time>2021-02-14T11:58:32Z</time>
      </trkpt>
      <trkpt lat="45.85608" lon="3.58902">
        <ele>641</ele>
        <time>2021-02-14T11:58:34Z</time>
      </trkpt>
      <trkpt lat="45.85607" lon="3.58905">
        <ele>642</ele>
        <time>2021-02-14T11:58:37Z</time>
      </trkpt>
      <trkpt lat="45.85603" lon="3.58917">
        <ele>644</ele>
        <time>2021-02-14T11:58:46Z</time>
      </trkpt>
      <trkpt lat="45.85599" lon="3.58922">
        <ele>645</ele>
        <time>2021-02-14T11:58:50Z</time>
      </trkpt>
      <trkpt lat="45.85596" lon="3.58924">
        <ele>645</ele>
        <time>2021-02-14T11:58:53Z</time>
      </trkpt>
      <trkpt lat="45.85588" lon="3.58927">
        <ele>644</ele>
        <time>2021-02-14T11:59:07Z</time>
      </trkpt>
      <trkpt lat="45.85579" lon="3.58929">
        <ele>645</ele>
        <time>2021-02-14T11:59:17Z</time>
      </trkpt>
      <trkpt lat="45.85569" lon="3.58931">
        <ele>646</ele>
        <time>2021-02-14T11:59:23Z</time>
      </trkpt>
      <trkpt lat="45.85559" lon="3.58934">
        <ele>648</ele>
        <time>2021-02-14T11:59:29Z</time>
      </trkpt>
      <trkpt lat="45.8555" lon="3.58937">
        <ele>650</ele>
        <time>2021-02-14T11:59:36Z</time>
      </trkpt>
      <trkpt lat="45.8554" lon="3.58938">
        <ele>652</ele>
        <time>2021-02-14T11:59:44Z</time>
      </trkpt>
      <trkpt lat="45.85531" lon="3.5894">
        <ele>653</ele>
        <time>2021-02-14T11:59:49Z</time>
      </trkpt>
      <trkpt lat="45.85522" lon="3.58939">
        <ele>653</ele>
        <time>2021-02-14T11:59:58Z</time>
      </trkpt>
      <trkpt lat="45.85512" lon="3.58939">
        <ele>651</ele>
        <time>2021-02-14T12:00:06Z</time>
      </trkpt>
      <trkpt lat="45.85503" lon="3.58936">
        <ele>649</ele>
        <time>2021-02-14T12:00:15Z</time>
      </trkpt>
      <trkpt lat="45.85494" lon="3.58937">
        <ele>650</ele>
        <time>2021-02-14T12:00:23Z</time>
      </trkpt>
      <trkpt lat="45.85483" lon="3.58938">
        <ele>651</ele>
        <time>2021-02-14T12:00:28Z</time>
      </trkpt>
      <trkpt lat="45.85473" lon="3.58939">
        <ele>653</ele>
        <time>2021-02-14T12:00:34Z</time>
      </trkpt>
      <trkpt lat="45.85469" lon="3.58937">
        <ele>653</ele>
        <time>2021-02-14T12:00:36Z</time>
      </trkpt>
      <trkpt lat="45.85467" lon="3.58936">
        <ele>653</ele>
        <time>2021-02-14T12:00:37Z</time>
      </trkpt>
      <trkpt lat="45.85464" lon="3.58935">
        <ele>654</ele>
        <time>2021-02-14T12:00:39Z</time>
      </trkpt>
      <trkpt lat="45.85461" lon="3.58935">
        <ele>655</ele>
        <time>2021-02-14T12:00:41Z</time>
      </trkpt>
      <trkpt lat="45.85456" lon="3.58925">
        <ele>655</ele>
        <time>2021-02-14T12:00:48Z</time>
      </trkpt>
      <trkpt lat="45.85448" lon="3.58915">
        <ele>655</ele>
        <time>2021-02-14T12:00:56Z</time>
      </trkpt>
      <trkpt lat="45.85442" lon="3.58904">
        <ele>654</ele>
        <time>2021-02-14T12:01:04Z</time>
      </trkpt>
      <trkpt lat="45.85435" lon="3.58895">
        <ele>655</ele>
        <time>2021-02-14T12:01:13Z</time>
      </trkpt>
      <trkpt lat="45.85433" lon="3.5888">
        <ele>653</ele>
        <time>2021-02-14T12:01:21Z</time>
      </trkpt>
      <trkpt lat="45.8543" lon="3.58867">
        <ele>652</ele>
        <time>2021-02-14T12:01:29Z</time>
      </trkpt>
      <trkpt lat="45.85431" lon="3.58851">
        <ele>648</ele>
        <time>2021-02-14T12:01:35Z</time>
      </trkpt>
      <trkpt lat="45.85429" lon="3.58838">
        <ele>646</ele>
        <time>2021-02-14T12:01:40Z</time>
      </trkpt>
      <trkpt lat="45.85426" lon="3.58824">
        <ele>644</ele>
        <time>2021-02-14T12:01:47Z</time>
      </trkpt>
      <trkpt lat="45.85421" lon="3.58813">
        <ele>644</ele>
        <time>2021-02-14T12:01:53Z</time>
      </trkpt>
      <trkpt lat="45.85414" lon="3.58805">
        <ele>645</ele>
        <time>2021-02-14T12:02:00Z</time>
      </trkpt>
      <trkpt lat="45.85407" lon="3.58797">
        <ele>645</ele>
        <time>2021-02-14T12:02:07Z</time>
      </trkpt>
      <trkpt lat="45.85399" lon="3.58788">
        <ele>646</ele>
        <time>2021-02-14T12:02:15Z</time>
      </trkpt>
      <trkpt lat="45.8539" lon="3.5878">
        <ele>646</ele>
        <time>2021-02-14T12:02:22Z</time>
      </trkpt>
      <trkpt lat="45.85381" lon="3.58774">
        <ele>646</ele>
        <time>2021-02-14T12:02:30Z</time>
      </trkpt>
      <trkpt lat="45.85372" lon="3.58769">
        <ele>646</ele>
        <time>2021-02-14T12:02:39Z</time>
      </trkpt>
      <trkpt lat="45.85362" lon="3.58767">
        <ele>647</ele>
        <time>2021-02-14T12:02:46Z</time>
      </trkpt>
      <trkpt lat="45.85352" lon="3.58765">
        <ele>648</ele>
        <time>2021-02-14T12:02:52Z</time>
      </trkpt>
      <trkpt lat="45.85343" lon="3.5876">
        <ele>647</ele>
        <time>2021-02-14T12:03:00Z</time>
      </trkpt>
      <trkpt lat="45.85334" lon="3.58755">
        <ele>646</ele>
        <time>2021-02-14T12:03:08Z</time>
      </trkpt>
      <trkpt lat="45.85323" lon="3.58751">
        <ele>647</ele>
        <time>2021-02-14T12:03:15Z</time>
      </trkpt>
      <trkpt lat="45.85314" lon="3.58747">
        <ele>648</ele>
        <time>2021-02-14T12:03:23Z</time>
      </trkpt>
      <trkpt lat="45.85305" lon="3.58743">
        <ele>648</ele>
        <time>2021-02-14T12:03:30Z</time>
      </trkpt>
      <trkpt lat="45.85295" lon="3.58741">
        <ele>648</ele>
        <time>2021-02-14T12:03:38Z</time>
      </trkpt>
      <trkpt lat="45.85285" lon="3.58737">
        <ele>647</ele>
        <time>2021-02-14T12:03:49Z</time>
      </trkpt>
      <trkpt lat="45.85276" lon="3.58736">
        <ele>648</ele>
        <time>2021-02-14T12:03:57Z</time>
      </trkpt>
      <trkpt lat="45.85266" lon="3.58731">
        <ele>646</ele>
        <time>2021-02-14T12:04:05Z</time>
      </trkpt>
      <trkpt lat="45.85257" lon="3.58726">
        <ele>645</ele>
        <time>2021-02-14T12:04:12Z</time>
      </trkpt>
      <trkpt lat="45.85247" lon="3.58722">
        <ele>644</ele>
        <time>2021-02-14T12:04:19Z</time>
      </trkpt>
      <trkpt lat="45.85237" lon="3.58718">
        <ele>643</ele>
        <time>2021-02-14T12:04:27Z</time>
      </trkpt>
      <trkpt lat="45.85228" lon="3.58717">
        <ele>643</ele>
        <time>2021-02-14T12:04:33Z</time>
      </trkpt>
      <trkpt lat="45.85224" lon="3.58717">
        <ele>644</ele>
        <time>2021-02-14T12:04:36Z</time>
      </trkpt>
      <trkpt lat="45.85222" lon="3.58716">
        <ele>644</ele>
        <time>2021-02-14T12:04:38Z</time>
      </trkpt>
      <trkpt lat="45.85212" lon="3.58716">
        <ele>644</ele>
        <time>2021-02-14T12:04:45Z</time>
      </trkpt>
      <trkpt lat="45.85203" lon="3.58718">
        <ele>644</ele>
        <time>2021-02-14T12:04:53Z</time>
      </trkpt>
      <trkpt lat="45.85194" lon="3.58716">
        <ele>644</ele>
        <time>2021-02-14T12:05:00Z</time>
      </trkpt>
      <trkpt lat="45.8519" lon="3.58714">
        <ele>643</ele>
        <time>2021-02-14T12:05:02Z</time>
      </trkpt>
      <trkpt lat="45.85188" lon="3.58712">
        <ele>642</ele>
        <time>2021-02-14T12:05:04Z</time>
      </trkpt>
      <trkpt lat="45.85185" lon="3.58708">
        <ele>641</ele>
        <time>2021-02-14T12:05:06Z</time>
      </trkpt>
      <trkpt lat="45.85183" lon="3.58707">
        <ele>640</ele>
        <time>2021-02-14T12:05:07Z</time>
      </trkpt>
      <trkpt lat="45.8518" lon="3.58705">
        <ele>639</ele>
        <time>2021-02-14T12:05:09Z</time>
      </trkpt>
      <trkpt lat="45.85177" lon="3.58703">
        <ele>638</ele>
        <time>2021-02-14T12:05:11Z</time>
      </trkpt>
      <trkpt lat="45.85175" lon="3.58702">
        <ele>638</ele>
        <time>2021-02-14T12:05:13Z</time>
      </trkpt>
      <trkpt lat="45.85173" lon="3.58703">
        <ele>638</ele>
        <time>2021-02-14T12:05:15Z</time>
      </trkpt>
      <trkpt lat="45.85168" lon="3.58705">
        <ele>638</ele>
        <time>2021-02-14T12:05:18Z</time>
      </trkpt>
      <trkpt lat="45.85165" lon="3.58705">
        <ele>638</ele>
        <time>2021-02-14T12:05:20Z</time>
      </trkpt>
      <trkpt lat="45.85163" lon="3.58704">
        <ele>637</ele>
        <time>2021-02-14T12:05:21Z</time>
      </trkpt>
      <trkpt lat="45.85158" lon="3.58703">
        <ele>636</ele>
        <time>2021-02-14T12:05:24Z</time>
      </trkpt>
      <trkpt lat="45.85156" lon="3.58703">
        <ele>636</ele>
        <time>2021-02-14T12:05:25Z</time>
      </trkpt>
      <trkpt lat="45.85155" lon="3.58703">
        <ele>635</ele>
        <time>2021-02-14T12:05:26Z</time>
      </trkpt>
      <trkpt lat="45.85152" lon="3.58702">
        <ele>635</ele>
        <time>2021-02-14T12:05:28Z</time>
      </trkpt>
      <trkpt lat="45.85149" lon="3.58703">
        <ele>635</ele>
        <time>2021-02-14T12:05:30Z</time>
      </trkpt>
      <trkpt lat="45.85145" lon="3.58704">
        <ele>634</ele>
        <time>2021-02-14T12:05:32Z</time>
      </trkpt>
      <trkpt lat="45.85143" lon="3.58703">
        <ele>634</ele>
        <time>2021-02-14T12:05:33Z</time>
      </trkpt>
      <trkpt lat="45.8514" lon="3.58703">
        <ele>633</ele>
        <time>2021-02-14T12:05:35Z</time>
      </trkpt>
      <trkpt lat="45.85136" lon="3.58703">
        <ele>633</ele>
        <time>2021-02-14T12:05:37Z</time>
      </trkpt>
      <trkpt lat="45.85133" lon="3.58703">
        <ele>633</ele>
        <time>2021-02-14T12:05:39Z</time>
      </trkpt>
      <trkpt lat="45.85131" lon="3.58702">
        <ele>632</ele>
        <time>2021-02-14T12:05:41Z</time>
      </trkpt>
      <trkpt lat="45.85128" lon="3.587">
        <ele>631</ele>
        <time>2021-02-14T12:05:44Z</time>
      </trkpt>
      <trkpt lat="45.85125" lon="3.587">
        <ele>631</ele>
        <time>2021-02-14T12:05:46Z</time>
      </trkpt>
      <trkpt lat="45.85123" lon="3.587">
        <ele>630</ele>
        <time>2021-02-14T12:05:48Z</time>
      </trkpt>
      <trkpt lat="45.8512" lon="3.587">
        <ele>630</ele>
        <time>2021-02-14T12:05:50Z</time>
      </trkpt>
      <trkpt lat="45.85118" lon="3.58701">
        <ele>630</ele>
        <time>2021-02-14T12:05:52Z</time>
      </trkpt>
      <trkpt lat="45.85115" lon="3.58701">
        <ele>630</ele>
        <time>2021-02-14T12:05:54Z</time>
      </trkpt>
      <trkpt lat="45.85113" lon="3.587">
        <ele>629</ele>
        <time>2021-02-14T12:05:55Z</time>
      </trkpt>
      <trkpt lat="45.8511" lon="3.587">
        <ele>629</ele>
        <time>2021-02-14T12:05:57Z</time>
      </trkpt>
      <trkpt lat="45.85107" lon="3.58701">
        <ele>629</ele>
        <time>2021-02-14T12:05:59Z</time>
      </trkpt>
      <trkpt lat="45.85104" lon="3.58703">
        <ele>630</ele>
        <time>2021-02-14T12:06:01Z</time>
      </trkpt>
      <trkpt lat="45.85102" lon="3.58704">
        <ele>630</ele>
        <time>2021-02-14T12:06:03Z</time>
      </trkpt>
      <trkpt lat="45.851" lon="3.58705">
        <ele>630</ele>
        <time>2021-02-14T12:06:05Z</time>
      </trkpt>
      <trkpt lat="45.85097" lon="3.58706">
        <ele>631</ele>
        <time>2021-02-14T12:06:07Z</time>
      </trkpt>
      <trkpt lat="45.85094" lon="3.58706">
        <ele>631</ele>
        <time>2021-02-14T12:06:09Z</time>
      </trkpt>
      <trkpt lat="45.85092" lon="3.58707">
        <ele>631</ele>
        <time>2021-02-14T12:06:10Z</time>
      </trkpt>
      <trkpt lat="45.8509" lon="3.58708">
        <ele>631</ele>
        <time>2021-02-14T12:06:11Z</time>
      </trkpt>
      <trkpt lat="45.85088" lon="3.58708">
        <ele>631</ele>
        <time>2021-02-14T12:06:12Z</time>
      </trkpt>
      <trkpt lat="45.85085" lon="3.58706">
        <ele>631</ele>
        <time>2021-02-14T12:06:14Z</time>
      </trkpt>
      <trkpt lat="45.85082" lon="3.58705">
        <ele>630</ele>
        <time>2021-02-14T12:06:16Z</time>
      </trkpt>
      <trkpt lat="45.85079" lon="3.58703">
        <ele>630</ele>
        <time>2021-02-14T12:06:18Z</time>
      </trkpt>
      <trkpt lat="45.85076" lon="3.58701">
        <ele>629</ele>
        <time>2021-02-14T12:06:20Z</time>
      </trkpt>
      <trkpt lat="45.85074" lon="3.587">
        <ele>629</ele>
        <time>2021-02-14T12:06:22Z</time>
      </trkpt>
      <trkpt lat="45.85072" lon="3.58699">
        <ele>629</ele>
        <time>2021-02-14T12:06:24Z</time>
      </trkpt>
      <trkpt lat="45.85069" lon="3.58699">
        <ele>629</ele>
        <time>2021-02-14T12:06:26Z</time>
      </trkpt>
      <trkpt lat="45.85066" lon="3.58699">
        <ele>629</ele>
        <time>2021-02-14T12:06:28Z</time>
      </trkpt>
      <trkpt lat="45.85063" lon="3.58698">
        <ele>628</ele>
        <time>2021-02-14T12:06:30Z</time>
      </trkpt>
      <trkpt lat="45.85061" lon="3.58698">
        <ele>628</ele>
        <time>2021-02-14T12:06:32Z</time>
      </trkpt>
      <trkpt lat="45.85059" lon="3.58698">
        <ele>628</ele>
        <time>2021-02-14T12:06:34Z</time>
      </trkpt>
      <trkpt lat="45.85056" lon="3.58698">
        <ele>628</ele>
        <time>2021-02-14T12:06:36Z</time>
      </trkpt>
      <trkpt lat="45.85054" lon="3.58698">
        <ele>628</ele>
        <time>2021-02-14T12:06:37Z</time>
      </trkpt>
      <trkpt lat="45.8505" lon="3.58697">
        <ele>628</ele>
        <time>2021-02-14T12:06:39Z</time>
      </trkpt>
      <trkpt lat="45.85048" lon="3.58696">
        <ele>628</ele>
        <time>2021-02-14T12:06:40Z</time>
      </trkpt>
      <trkpt lat="45.85047" lon="3.58694">
        <ele>627</ele>
        <time>2021-02-14T12:06:41Z</time>
      </trkpt>
      <trkpt lat="45.85047" lon="3.58688">
        <ele>626</ele>
        <time>2021-02-14T12:06:43Z</time>
      </trkpt>
      <trkpt lat="45.85047" lon="3.58685">
        <ele>626</ele>
        <time>2021-02-14T12:06:44Z</time>
      </trkpt>
      <trkpt lat="45.85048" lon="3.58682">
        <ele>625</ele>
        <time>2021-02-14T12:06:45Z</time>
      </trkpt>
      <trkpt lat="45.85049" lon="3.58679">
        <ele>625</ele>
        <time>2021-02-14T12:06:46Z</time>
      </trkpt>
      <trkpt lat="45.8505" lon="3.58676">
        <ele>624</ele>
        <time>2021-02-14T12:06:48Z</time>
      </trkpt>
      <trkpt lat="45.85053" lon="3.58672">
        <ele>624</ele>
        <time>2021-02-14T12:06:50Z</time>
      </trkpt>
      <trkpt lat="45.85055" lon="3.5867">
        <ele>623</ele>
        <time>2021-02-14T12:06:52Z</time>
      </trkpt>
      <trkpt lat="45.85058" lon="3.58668">
        <ele>623</ele>
        <time>2021-02-14T12:06:54Z</time>
      </trkpt>
      <trkpt lat="45.85061" lon="3.58666">
        <ele>622</ele>
        <time>2021-02-14T12:06:56Z</time>
      </trkpt>
      <trkpt lat="45.85063" lon="3.58666">
        <ele>622</ele>
        <time>2021-02-14T12:06:57Z</time>
      </trkpt>
      <trkpt lat="45.85065" lon="3.58666">
        <ele>622</ele>
        <time>2021-02-14T12:06:58Z</time>
      </trkpt>
      <trkpt lat="45.85067" lon="3.58664">
        <ele>622</ele>
        <time>2021-02-14T12:06:59Z</time>
      </trkpt>
      <trkpt lat="45.8507" lon="3.58663">
        <ele>623</ele>
        <time>2021-02-14T12:07:01Z</time>
      </trkpt>
      <trkpt lat="45.85072" lon="3.58662">
        <ele>623</ele>
        <time>2021-02-14T12:07:03Z</time>
      </trkpt>
      <trkpt lat="45.85075" lon="3.58662">
        <ele>623</ele>
        <time>2021-02-14T12:07:05Z</time>
      </trkpt>
      <trkpt lat="45.85077" lon="3.58663">
        <ele>623</ele>
        <time>2021-02-14T12:07:08Z</time>
      </trkpt>
      <trkpt lat="45.85079" lon="3.58662">
        <ele>623</ele>
        <time>2021-02-14T12:07:10Z</time>
      </trkpt>
      <trkpt lat="45.85081" lon="3.58661">
        <ele>623</ele>
        <time>2021-02-14T12:07:12Z</time>
      </trkpt>
      <trkpt lat="45.85085" lon="3.58661">
        <ele>623</ele>
        <time>2021-02-14T12:07:15Z</time>
      </trkpt>
      <trkpt lat="45.85087" lon="3.58661">
        <ele>623</ele>
        <time>2021-02-14T12:07:17Z</time>
      </trkpt>
      <trkpt lat="45.8509" lon="3.58662">
        <ele>623</ele>
        <time>2021-02-14T12:07:19Z</time>
      </trkpt>
      <trkpt lat="45.85092" lon="3.58663">
        <ele>623</ele>
        <time>2021-02-14T12:07:20Z</time>
      </trkpt>
      <trkpt lat="45.85095" lon="3.58664">
        <ele>623</ele>
        <time>2021-02-14T12:07:22Z</time>
      </trkpt>
      <trkpt lat="45.85098" lon="3.58664">
        <ele>623</ele>
        <time>2021-02-14T12:07:24Z</time>
      </trkpt>
      <trkpt lat="45.851" lon="3.58662">
        <ele>623</ele>
        <time>2021-02-14T12:07:26Z</time>
      </trkpt>
      <trkpt lat="45.85103" lon="3.5866">
        <ele>623</ele>
        <time>2021-02-14T12:07:28Z</time>
      </trkpt>
      <trkpt lat="45.85106" lon="3.58658">
        <ele>623</ele>
        <time>2021-02-14T12:07:30Z</time>
      </trkpt>
      <trkpt lat="45.85108" lon="3.58657">
        <ele>623</ele>
        <time>2021-02-14T12:07:31Z</time>
      </trkpt>
      <trkpt lat="45.85112" lon="3.58655">
        <ele>623</ele>
        <time>2021-02-14T12:07:33Z</time>
      </trkpt>
      <trkpt lat="45.85114" lon="3.58657">
        <ele>623</ele>
        <time>2021-02-14T12:07:35Z</time>
      </trkpt>
      <trkpt lat="45.85117" lon="3.58656">
        <ele>623</ele>
        <time>2021-02-14T12:07:37Z</time>
      </trkpt>
      <trkpt lat="45.8512" lon="3.58655">
        <ele>623</ele>
        <time>2021-02-14T12:07:39Z</time>
      </trkpt>
      <trkpt lat="45.85122" lon="3.58653">
        <ele>623</ele>
        <time>2021-02-14T12:07:41Z</time>
      </trkpt>
      <trkpt lat="45.85123" lon="3.58651">
        <ele>623</ele>
        <time>2021-02-14T12:07:42Z</time>
      </trkpt>
      <trkpt lat="45.85126" lon="3.5865">
        <ele>623</ele>
        <time>2021-02-14T12:07:44Z</time>
      </trkpt>
      <trkpt lat="45.85128" lon="3.58649">
        <ele>623</ele>
        <time>2021-02-14T12:07:46Z</time>
      </trkpt>
      <trkpt lat="45.85127" lon="3.58646">
        <ele>623</ele>
        <time>2021-02-14T12:07:55Z</time>
      </trkpt>
      <trkpt lat="45.85127" lon="3.58643">
        <ele>623</ele>
        <time>2021-02-14T12:07:57Z</time>
      </trkpt>
      <trkpt lat="45.85128" lon="3.5864">
        <ele>623</ele>
        <time>2021-02-14T12:07:59Z</time>
      </trkpt>
      <trkpt lat="45.85129" lon="3.58636">
        <ele>623</ele>
        <time>2021-02-14T12:08:01Z</time>
      </trkpt>
      <trkpt lat="45.8513" lon="3.58633">
        <ele>624</ele>
        <time>2021-02-14T12:08:03Z</time>
      </trkpt>
      <trkpt lat="45.85131" lon="3.5863">
        <ele>625</ele>
        <time>2021-02-14T12:08:05Z</time>
      </trkpt>
      <trkpt lat="45.85133" lon="3.58626">
        <ele>626</ele>
        <time>2021-02-14T12:08:07Z</time>
      </trkpt>
      <trkpt lat="45.85135" lon="3.58624">
        <ele>626</ele>
        <time>2021-02-14T12:08:08Z</time>
      </trkpt>
      <trkpt lat="45.85141" lon="3.58613">
        <ele>629</ele>
        <time>2021-02-14T12:08:17Z</time>
      </trkpt>
      <trkpt lat="45.85143" lon="3.5861">
        <ele>630</ele>
        <time>2021-02-14T12:08:19Z</time>
      </trkpt>
      <trkpt lat="45.85145" lon="3.58608">
        <ele>630</ele>
        <time>2021-02-14T12:08:21Z</time>
      </trkpt>
      <trkpt lat="45.85147" lon="3.58605">
        <ele>631</ele>
        <time>2021-02-14T12:08:23Z</time>
      </trkpt>
      <trkpt lat="45.8515" lon="3.58602">
        <ele>632</ele>
        <time>2021-02-14T12:08:28Z</time>
      </trkpt>
      <trkpt lat="45.85152" lon="3.58603">
        <ele>632</ele>
        <time>2021-02-14T12:08:29Z</time>
      </trkpt>
      <trkpt lat="45.85155" lon="3.58602">
        <ele>632</ele>
        <time>2021-02-14T12:08:31Z</time>
      </trkpt>
      <trkpt lat="45.85158" lon="3.58599">
        <ele>633</ele>
        <time>2021-02-14T12:08:33Z</time>
      </trkpt>
      <trkpt lat="45.8516" lon="3.58597">
        <ele>633</ele>
        <time>2021-02-14T12:08:35Z</time>
      </trkpt>
      <trkpt lat="45.85161" lon="3.58594">
        <ele>634</ele>
        <time>2021-02-14T12:08:39Z</time>
      </trkpt>
      <trkpt lat="45.85163" lon="3.58591">
        <ele>635</ele>
        <time>2021-02-14T12:08:41Z</time>
      </trkpt>
      <trkpt lat="45.85165" lon="3.58589">
        <ele>636</ele>
        <time>2021-02-14T12:08:44Z</time>
      </trkpt>
      <trkpt lat="45.85167" lon="3.58587">
        <ele>636</ele>
        <time>2021-02-14T12:08:48Z</time>
      </trkpt>
      <trkpt lat="45.85169" lon="3.58585">
        <ele>637</ele>
        <time>2021-02-14T12:08:50Z</time>
      </trkpt>
      <trkpt lat="45.85171" lon="3.58583">
        <ele>637</ele>
        <time>2021-02-14T12:08:54Z</time>
      </trkpt>
      <trkpt lat="45.85174" lon="3.58579">
        <ele>637</ele>
        <time>2021-02-14T12:08:56Z</time>
      </trkpt>
      <trkpt lat="45.85175" lon="3.58577">
        <ele>638</ele>
        <time>2021-02-14T12:08:57Z</time>
      </trkpt>
      <trkpt lat="45.85178" lon="3.58574">
        <ele>638</ele>
        <time>2021-02-14T12:08:59Z</time>
      </trkpt>
      <trkpt lat="45.85182" lon="3.5857">
        <ele>638</ele>
        <time>2021-02-14T12:09:01Z</time>
      </trkpt>
      <trkpt lat="45.85183" lon="3.58565">
        <ele>639</ele>
        <time>2021-02-14T12:09:03Z</time>
      </trkpt>
      <trkpt lat="45.85184" lon="3.58561">
        <ele>640</ele>
        <time>2021-02-14T12:09:05Z</time>
      </trkpt>
      <trkpt lat="45.85185" lon="3.58559">
        <ele>640</ele>
        <time>2021-02-14T12:09:07Z</time>
      </trkpt>
      <trkpt lat="45.85185" lon="3.58555">
        <ele>641</ele>
        <time>2021-02-14T12:09:10Z</time>
      </trkpt>
      <trkpt lat="45.85187" lon="3.58554">
        <ele>641</ele>
        <time>2021-02-14T12:09:12Z</time>
      </trkpt>
      <trkpt lat="45.85191" lon="3.58551">
        <ele>641</ele>
        <time>2021-02-14T12:09:14Z</time>
      </trkpt>
      <trkpt lat="45.85193" lon="3.58548">
        <ele>641</ele>
        <time>2021-02-14T12:09:15Z</time>
      </trkpt>
      <trkpt lat="45.85195" lon="3.58547">
        <ele>641</ele>
        <time>2021-02-14T12:09:16Z</time>
      </trkpt>
      <trkpt lat="45.85196" lon="3.58543">
        <ele>641</ele>
        <time>2021-02-14T12:09:18Z</time>
      </trkpt>
      <trkpt lat="45.85197" lon="3.58541">
        <ele>641</ele>
        <time>2021-02-14T12:09:20Z</time>
      </trkpt>
      <trkpt lat="45.85199" lon="3.58539">
        <ele>641</ele>
        <time>2021-02-14T12:09:23Z</time>
      </trkpt>
      <trkpt lat="45.852" lon="3.58537">
        <ele>641</ele>
        <time>2021-02-14T12:09:25Z</time>
      </trkpt>
      <trkpt lat="45.85201" lon="3.58534">
        <ele>641</ele>
        <time>2021-02-14T12:09:27Z</time>
      </trkpt>
      <trkpt lat="45.85202" lon="3.5853">
        <ele>641</ele>
        <time>2021-02-14T12:09:30Z</time>
      </trkpt>
      <trkpt lat="45.85203" lon="3.58527">
        <ele>641</ele>
        <time>2021-02-14T12:09:32Z</time>
      </trkpt>
      <trkpt lat="45.85204" lon="3.58524">
        <ele>641</ele>
        <time>2021-02-14T12:09:34Z</time>
      </trkpt>
      <trkpt lat="45.85206" lon="3.58522">
        <ele>641</ele>
        <time>2021-02-14T12:09:36Z</time>
      </trkpt>
      <trkpt lat="45.85208" lon="3.5852">
        <ele>641</ele>
        <time>2021-02-14T12:09:38Z</time>
      </trkpt>
      <trkpt lat="45.85209" lon="3.58517">
        <ele>641</ele>
        <time>2021-02-14T12:09:41Z</time>
      </trkpt>
      <trkpt lat="45.85209" lon="3.58514">
        <ele>641</ele>
        <time>2021-02-14T12:09:43Z</time>
      </trkpt>
      <trkpt lat="45.85211" lon="3.58511">
        <ele>641</ele>
        <time>2021-02-14T12:09:46Z</time>
      </trkpt>
      <trkpt lat="45.85212" lon="3.58509">
        <ele>641</ele>
        <time>2021-02-14T12:09:48Z</time>
      </trkpt>
      <trkpt lat="45.85214" lon="3.58507">
        <ele>641</ele>
        <time>2021-02-14T12:09:50Z</time>
      </trkpt>
      <trkpt lat="45.85216" lon="3.58505">
        <ele>640</ele>
        <time>2021-02-14T12:09:52Z</time>
      </trkpt>
      <trkpt lat="45.85217" lon="3.58502">
        <ele>640</ele>
        <time>2021-02-14T12:09:54Z</time>
      </trkpt>
      <trkpt lat="45.85219" lon="3.58501">
        <ele>640</ele>
        <time>2021-02-14T12:09:56Z</time>
      </trkpt>
      <trkpt lat="45.85221" lon="3.58499">
        <ele>640</ele>
        <time>2021-02-14T12:09:58Z</time>
      </trkpt>
      <trkpt lat="45.85222" lon="3.58497">
        <ele>639</ele>
        <time>2021-02-14T12:10:00Z</time>
      </trkpt>
      <trkpt lat="45.85224" lon="3.58495">
        <ele>639</ele>
        <time>2021-02-14T12:10:02Z</time>
      </trkpt>
      <trkpt lat="45.85225" lon="3.58493">
        <ele>639</ele>
        <time>2021-02-14T12:10:04Z</time>
      </trkpt>
      <trkpt lat="45.85227" lon="3.58491">
        <ele>638</ele>
        <time>2021-02-14T12:10:07Z</time>
      </trkpt>
      <trkpt lat="45.85227" lon="3.58488">
        <ele>638</ele>
        <time>2021-02-14T12:10:09Z</time>
      </trkpt>
      <trkpt lat="45.85227" lon="3.58485">
        <ele>638</ele>
        <time>2021-02-14T12:10:12Z</time>
      </trkpt>
      <trkpt lat="45.85226" lon="3.58482">
        <ele>638</ele>
        <time>2021-02-14T12:10:14Z</time>
      </trkpt>
      <trkpt lat="45.85225" lon="3.58479">
        <ele>639</ele>
        <time>2021-02-14T12:10:17Z</time>
      </trkpt>
      <trkpt lat="45.85224" lon="3.58477">
        <ele>639</ele>
        <time>2021-02-14T12:10:19Z</time>
      </trkpt>
      <trkpt lat="45.85224" lon="3.58473">
        <ele>639</ele>
        <time>2021-02-14T12:10:28Z</time>
      </trkpt>
      <trkpt lat="45.85223" lon="3.5847">
        <ele>639</ele>
        <time>2021-02-14T12:10:31Z</time>
      </trkpt>
      <trkpt lat="45.85222" lon="3.58467">
        <ele>639</ele>
        <time>2021-02-14T12:10:33Z</time>
      </trkpt>
      <trkpt lat="45.85221" lon="3.58464">
        <ele>639</ele>
        <time>2021-02-14T12:10:35Z</time>
      </trkpt>
      <trkpt lat="45.85219" lon="3.58462">
        <ele>640</ele>
        <time>2021-02-14T12:10:38Z</time>
      </trkpt>
      <trkpt lat="45.85217" lon="3.5846">
        <ele>640</ele>
        <time>2021-02-14T12:10:40Z</time>
      </trkpt>
      <trkpt lat="45.85215" lon="3.5846">
        <ele>640</ele>
        <time>2021-02-14T12:10:43Z</time>
      </trkpt>
      <trkpt lat="45.85213" lon="3.5846">
        <ele>641</ele>
        <time>2021-02-14T12:10:45Z</time>
      </trkpt>
      <trkpt lat="45.85211" lon="3.58459">
        <ele>641</ele>
        <time>2021-02-14T12:10:47Z</time>
      </trkpt>
      <trkpt lat="45.85209" lon="3.5846">
        <ele>642</ele>
        <time>2021-02-14T12:10:49Z</time>
      </trkpt>
      <trkpt lat="45.85209" lon="3.58463">
        <ele>642</ele>
        <time>2021-02-14T12:10:52Z</time>
      </trkpt>
      <trkpt lat="45.85207" lon="3.58465">
        <ele>643</ele>
        <time>2021-02-14T12:10:55Z</time>
      </trkpt>
      <trkpt lat="45.85206" lon="3.58468">
        <ele>643</ele>
        <time>2021-02-14T12:10:58Z</time>
      </trkpt>
      <trkpt lat="45.85206" lon="3.58471">
        <ele>643</ele>
        <time>2021-02-14T12:11:03Z</time>
      </trkpt>
      <trkpt lat="45.85208" lon="3.58469">
        <ele>643</ele>
        <time>2021-02-14T12:11:04Z</time>
      </trkpt>
      <trkpt lat="45.85206" lon="3.5847">
        <ele>643</ele>
        <time>2021-02-14T12:11:12Z</time>
      </trkpt>
      <trkpt lat="45.85204" lon="3.58472">
        <ele>644</ele>
        <time>2021-02-14T12:11:14Z</time>
      </trkpt>
      <trkpt lat="45.85203" lon="3.58474">
        <ele>644</ele>
        <time>2021-02-14T12:11:17Z</time>
      </trkpt>
      <trkpt lat="45.85202" lon="3.58477">
        <ele>644</ele>
        <time>2021-02-14T12:11:20Z</time>
      </trkpt>
      <trkpt lat="45.852" lon="3.58479">
        <ele>645</ele>
        <time>2021-02-14T12:11:23Z</time>
      </trkpt>
      <trkpt lat="45.85199" lon="3.58481">
        <ele>645</ele>
        <time>2021-02-14T12:11:26Z</time>
      </trkpt>
      <trkpt lat="45.85197" lon="3.58482">
        <ele>646</ele>
        <time>2021-02-14T12:11:28Z</time>
      </trkpt>
      <trkpt lat="45.85195" lon="3.58482">
        <ele>646</ele>
        <time>2021-02-14T12:11:32Z</time>
      </trkpt>
      <trkpt lat="45.85193" lon="3.58484">
        <ele>646</ele>
        <time>2021-02-14T12:11:34Z</time>
      </trkpt>
      <trkpt lat="45.8519" lon="3.58486">
        <ele>647</ele>
        <time>2021-02-14T12:11:37Z</time>
      </trkpt>
      <trkpt lat="45.85188" lon="3.58488">
        <ele>647</ele>
        <time>2021-02-14T12:11:40Z</time>
      </trkpt>
      <trkpt lat="45.85186" lon="3.58489">
        <ele>648</ele>
        <time>2021-02-14T12:11:42Z</time>
      </trkpt>
      <trkpt lat="45.85184" lon="3.5849">
        <ele>648</ele>
        <time>2021-02-14T12:11:50Z</time>
      </trkpt>
      <trkpt lat="45.85182" lon="3.58492">
        <ele>648</ele>
        <time>2021-02-14T12:11:52Z</time>
      </trkpt>
      <trkpt lat="45.85181" lon="3.58493">
        <ele>649</ele>
        <time>2021-02-14T12:11:54Z</time>
      </trkpt>
      <trkpt lat="45.85178" lon="3.58495">
        <ele>649</ele>
        <time>2021-02-14T12:11:58Z</time>
      </trkpt>
      <trkpt lat="45.85176" lon="3.58495">
        <ele>650</ele>
        <time>2021-02-14T12:12:00Z</time>
      </trkpt>
      <trkpt lat="45.85174" lon="3.58496">
        <ele>650</ele>
        <time>2021-02-14T12:12:02Z</time>
      </trkpt>
      <trkpt lat="45.85172" lon="3.58498">
        <ele>650</ele>
        <time>2021-02-14T12:12:04Z</time>
      </trkpt>
      <trkpt lat="45.8517" lon="3.58499">
        <ele>651</ele>
        <time>2021-02-14T12:12:06Z</time>
      </trkpt>
      <trkpt lat="45.85168" lon="3.585">
        <ele>651</ele>
        <time>2021-02-14T12:12:08Z</time>
      </trkpt>
      <trkpt lat="45.85166" lon="3.58501">
        <ele>651</ele>
        <time>2021-02-14T12:12:11Z</time>
      </trkpt>
      <trkpt lat="45.85164" lon="3.58501">
        <ele>651</ele>
        <time>2021-02-14T12:12:16Z</time>
      </trkpt>
      <trkpt lat="45.85162" lon="3.58501">
        <ele>651</ele>
        <time>2021-02-14T12:12:18Z</time>
      </trkpt>
      <trkpt lat="45.8516" lon="3.58502">
        <ele>651</ele>
        <time>2021-02-14T12:12:20Z</time>
      </trkpt>
      <trkpt lat="45.85158" lon="3.58503">
        <ele>651</ele>
        <time>2021-02-14T12:12:22Z</time>
      </trkpt>
      <trkpt lat="45.85156" lon="3.58503">
        <ele>651</ele>
        <time>2021-02-14T12:12:24Z</time>
      </trkpt>
      <trkpt lat="45.85154" lon="3.58503">
        <ele>651</ele>
        <time>2021-02-14T12:12:27Z</time>
      </trkpt>
      <trkpt lat="45.85151" lon="3.58503">
        <ele>651</ele>
        <time>2021-02-14T12:12:30Z</time>
      </trkpt>
      <trkpt lat="45.85149" lon="3.58502">
        <ele>651</ele>
        <time>2021-02-14T12:12:32Z</time>
      </trkpt>
      <trkpt lat="45.85146" lon="3.58501">
        <ele>651</ele>
        <time>2021-02-14T12:12:34Z</time>
      </trkpt>
      <trkpt lat="45.85143" lon="3.585">
        <ele>651</ele>
        <time>2021-02-14T12:12:36Z</time>
      </trkpt>
      <trkpt lat="45.8514" lon="3.58499">
        <ele>652</ele>
        <time>2021-02-14T12:12:38Z</time>
      </trkpt>
      <trkpt lat="45.85138" lon="3.58499">
        <ele>652</ele>
        <time>2021-02-14T12:12:40Z</time>
      </trkpt>
      <trkpt lat="45.85136" lon="3.58496">
        <ele>652</ele>
        <time>2021-02-14T12:12:48Z</time>
      </trkpt>
      <trkpt lat="45.85134" lon="3.58494">
        <ele>652</ele>
        <time>2021-02-14T12:12:50Z</time>
      </trkpt>
      <trkpt lat="45.85133" lon="3.58493">
        <ele>652</ele>
        <time>2021-02-14T12:12:52Z</time>
      </trkpt>
      <trkpt lat="45.85131" lon="3.58491">
        <ele>653</ele>
        <time>2021-02-14T12:12:54Z</time>
      </trkpt>
      <trkpt lat="45.85129" lon="3.5849">
        <ele>653</ele>
        <time>2021-02-14T12:12:56Z</time>
      </trkpt>
      <trkpt lat="45.85127" lon="3.58488">
        <ele>653</ele>
        <time>2021-02-14T12:12:58Z</time>
      </trkpt>
      <trkpt lat="45.85126" lon="3.58487">
        <ele>653</ele>
        <time>2021-02-14T12:13:00Z</time>
      </trkpt>
      <trkpt lat="45.85124" lon="3.58486">
        <ele>653</ele>
        <time>2021-02-14T12:13:02Z</time>
      </trkpt>
      <trkpt lat="45.85122" lon="3.58483">
        <ele>654</ele>
        <time>2021-02-14T12:13:04Z</time>
      </trkpt>
      <trkpt lat="45.8512" lon="3.58481">
        <ele>654</ele>
        <time>2021-02-14T12:13:06Z</time>
      </trkpt>
      <trkpt lat="45.85119" lon="3.58479">
        <ele>654</ele>
        <time>2021-02-14T12:13:08Z</time>
      </trkpt>
      <trkpt lat="45.85117" lon="3.58478">
        <ele>654</ele>
        <time>2021-02-14T12:13:10Z</time>
      </trkpt>
      <trkpt lat="45.85115" lon="3.58477">
        <ele>654</ele>
        <time>2021-02-14T12:13:12Z</time>
      </trkpt>
      <trkpt lat="45.85113" lon="3.58475">
        <ele>654</ele>
        <time>2021-02-14T12:13:14Z</time>
      </trkpt>
      <trkpt lat="45.85111" lon="3.58474">
        <ele>654</ele>
        <time>2021-02-14T12:13:16Z</time>
      </trkpt>
      <trkpt lat="45.8511" lon="3.58473">
        <ele>655</ele>
        <time>2021-02-14T12:13:18Z</time>
      </trkpt>
      <trkpt lat="45.85108" lon="3.58471">
        <ele>655</ele>
        <time>2021-02-14T12:13:20Z</time>
      </trkpt>
      <trkpt lat="45.85106" lon="3.5847">
        <ele>655</ele>
        <time>2021-02-14T12:13:22Z</time>
      </trkpt>
      <trkpt lat="45.85104" lon="3.58469">
        <ele>655</ele>
        <time>2021-02-14T12:13:24Z</time>
      </trkpt>
      <trkpt lat="45.85102" lon="3.58467">
        <ele>655</ele>
        <time>2021-02-14T12:13:26Z</time>
      </trkpt>
      <trkpt lat="45.851" lon="3.58465">
        <ele>655</ele>
        <time>2021-02-14T12:13:28Z</time>
      </trkpt>
      <trkpt lat="45.85098" lon="3.58462">
        <ele>656</ele>
        <time>2021-02-14T12:13:30Z</time>
      </trkpt>
      <trkpt lat="45.85096" lon="3.5846">
        <ele>656</ele>
        <time>2021-02-14T12:13:32Z</time>
      </trkpt>
      <trkpt lat="45.85094" lon="3.58458">
        <ele>656</ele>
        <time>2021-02-14T12:13:34Z</time>
      </trkpt>
      <trkpt lat="45.85092" lon="3.58456">
        <ele>656</ele>
        <time>2021-02-14T12:13:36Z</time>
      </trkpt>
      <trkpt lat="45.8509" lon="3.58454">
        <ele>656</ele>
        <time>2021-02-14T12:13:38Z</time>
      </trkpt>
      <trkpt lat="45.85088" lon="3.58452">
        <ele>656</ele>
        <time>2021-02-14T12:13:40Z</time>
      </trkpt>
      <trkpt lat="45.85086" lon="3.5845">
        <ele>656</ele>
        <time>2021-02-14T12:13:42Z</time>
      </trkpt>
      <trkpt lat="45.85084" lon="3.58448">
        <ele>656</ele>
        <time>2021-02-14T12:13:44Z</time>
      </trkpt>
      <trkpt lat="45.85082" lon="3.58446">
        <ele>655</ele>
        <time>2021-02-14T12:13:46Z</time>
      </trkpt>
      <trkpt lat="45.8508" lon="3.58444">
        <ele>656</ele>
        <time>2021-02-14T12:13:48Z</time>
      </trkpt>
      <trkpt lat="45.85078" lon="3.58443">
        <ele>656</ele>
        <time>2021-02-14T12:13:50Z</time>
      </trkpt>
      <trkpt lat="45.85076" lon="3.58441">
        <ele>656</ele>
        <time>2021-02-14T12:13:52Z</time>
      </trkpt>
      <trkpt lat="45.85074" lon="3.58439">
        <ele>656</ele>
        <time>2021-02-14T12:13:54Z</time>
      </trkpt>
      <trkpt lat="45.85072" lon="3.58437">
        <ele>656</ele>
        <time>2021-02-14T12:13:56Z</time>
      </trkpt>
      <trkpt lat="45.85069" lon="3.58436">
        <ele>657</ele>
        <time>2021-02-14T12:13:58Z</time>
      </trkpt>
      <trkpt lat="45.85067" lon="3.58433">
        <ele>657</ele>
        <time>2021-02-14T12:14:00Z</time>
      </trkpt>
      <trkpt lat="45.85065" lon="3.58431">
        <ele>657</ele>
        <time>2021-02-14T12:14:02Z</time>
      </trkpt>
      <trkpt lat="45.85063" lon="3.58429">
        <ele>657</ele>
        <time>2021-02-14T12:14:04Z</time>
      </trkpt>
      <trkpt lat="45.85062" lon="3.58427">
        <ele>658</ele>
        <time>2021-02-14T12:14:06Z</time>
      </trkpt>
      <trkpt lat="45.8506" lon="3.58424">
        <ele>658</ele>
        <time>2021-02-14T12:14:08Z</time>
      </trkpt>
      <trkpt lat="45.85058" lon="3.58422">
        <ele>658</ele>
        <time>2021-02-14T12:14:10Z</time>
      </trkpt>
      <trkpt lat="45.85055" lon="3.5842">
        <ele>658</ele>
        <time>2021-02-14T12:14:12Z</time>
      </trkpt>
      <trkpt lat="45.85053" lon="3.58419">
        <ele>659</ele>
        <time>2021-02-14T12:14:14Z</time>
      </trkpt>
      <trkpt lat="45.85051" lon="3.58417">
        <ele>659</ele>
        <time>2021-02-14T12:14:16Z</time>
      </trkpt>
      <trkpt lat="45.85049" lon="3.58415">
        <ele>660</ele>
        <time>2021-02-14T12:14:18Z</time>
      </trkpt>
      <trkpt lat="45.85047" lon="3.58412">
        <ele>660</ele>
        <time>2021-02-14T12:14:20Z</time>
      </trkpt>
      <trkpt lat="45.85045" lon="3.5841">
        <ele>661</ele>
        <time>2021-02-14T12:14:22Z</time>
      </trkpt>
      <trkpt lat="45.85043" lon="3.58409">
        <ele>662</ele>
        <time>2021-02-14T12:14:24Z</time>
      </trkpt>
      <trkpt lat="45.85041" lon="3.58406">
        <ele>662</ele>
        <time>2021-02-14T12:14:26Z</time>
      </trkpt>
      <trkpt lat="45.85039" lon="3.58404">
        <ele>663</ele>
        <time>2021-02-14T12:14:28Z</time>
      </trkpt>
      <trkpt lat="45.85037" lon="3.58403">
        <ele>663</ele>
        <time>2021-02-14T12:14:30Z</time>
      </trkpt>
      <trkpt lat="45.85036" lon="3.58402">
        <ele>664</ele>
        <time>2021-02-14T12:14:32Z</time>
      </trkpt>
      <trkpt lat="45.85034" lon="3.584">
        <ele>664</ele>
        <time>2021-02-14T12:14:34Z</time>
      </trkpt>
      <trkpt lat="45.85032" lon="3.58398">
        <ele>665</ele>
        <time>2021-02-14T12:14:41Z</time>
      </trkpt>
      <trkpt lat="45.8503" lon="3.58397">
        <ele>665</ele>
        <time>2021-02-14T12:14:43Z</time>
      </trkpt>
      <trkpt lat="45.85028" lon="3.58395">
        <ele>666</ele>
        <time>2021-02-14T12:14:45Z</time>
      </trkpt>
      <trkpt lat="45.85026" lon="3.58394">
        <ele>666</ele>
        <time>2021-02-14T12:14:47Z</time>
      </trkpt>
      <trkpt lat="45.85025" lon="3.58392">
        <ele>667</ele>
        <time>2021-02-14T12:14:49Z</time>
      </trkpt>
      <trkpt lat="45.85023" lon="3.5839">
        <ele>667</ele>
        <time>2021-02-14T12:14:51Z</time>
      </trkpt>
      <trkpt lat="45.85021" lon="3.58389">
        <ele>667</ele>
        <time>2021-02-14T12:14:53Z</time>
      </trkpt>
      <trkpt lat="45.85019" lon="3.58386">
        <ele>668</ele>
        <time>2021-02-14T12:14:55Z</time>
      </trkpt>
      <trkpt lat="45.85018" lon="3.58384">
        <ele>668</ele>
        <time>2021-02-14T12:14:57Z</time>
      </trkpt>
      <trkpt lat="45.85016" lon="3.58382">
        <ele>668</ele>
        <time>2021-02-14T12:14:59Z</time>
      </trkpt>
      <trkpt lat="45.85014" lon="3.5838">
        <ele>669</ele>
        <time>2021-02-14T12:15:01Z</time>
      </trkpt>
      <trkpt lat="45.85012" lon="3.58379">
        <ele>669</ele>
        <time>2021-02-14T12:15:03Z</time>
      </trkpt>
      <trkpt lat="45.8501" lon="3.58377">
        <ele>669</ele>
        <time>2021-02-14T12:15:05Z</time>
      </trkpt>
      <trkpt lat="45.85008" lon="3.58375">
        <ele>670</ele>
        <time>2021-02-14T12:15:07Z</time>
      </trkpt>
      <trkpt lat="45.85007" lon="3.58373">
        <ele>670</ele>
        <time>2021-02-14T12:15:09Z</time>
      </trkpt>
      <trkpt lat="45.85004" lon="3.58372">
        <ele>670</ele>
        <time>2021-02-14T12:15:17Z</time>
      </trkpt>
      <trkpt lat="45.85003" lon="3.58371">
        <ele>670</ele>
        <time>2021-02-14T12:15:19Z</time>
      </trkpt>
      <trkpt lat="45.85" lon="3.58369">
        <ele>671</ele>
        <time>2021-02-14T12:15:21Z</time>
      </trkpt>
      <trkpt lat="45.84999" lon="3.58367">
        <ele>671</ele>
        <time>2021-02-14T12:15:23Z</time>
      </trkpt>
      <trkpt lat="45.84997" lon="3.58366">
        <ele>671</ele>
        <time>2021-02-14T12:15:25Z</time>
      </trkpt>
      <trkpt lat="45.84995" lon="3.58364">
        <ele>672</ele>
        <time>2021-02-14T12:15:27Z</time>
      </trkpt>
      <trkpt lat="45.84994" lon="3.58362">
        <ele>672</ele>
        <time>2021-02-14T12:15:29Z</time>
      </trkpt>
      <trkpt lat="45.84992" lon="3.5836">
        <ele>672</ele>
        <time>2021-02-14T12:15:31Z</time>
      </trkpt>
      <trkpt lat="45.84991" lon="3.58357">
        <ele>673</ele>
        <time>2021-02-14T12:15:33Z</time>
      </trkpt>
      <trkpt lat="45.84989" lon="3.58355">
        <ele>673</ele>
        <time>2021-02-14T12:15:35Z</time>
      </trkpt>
      <trkpt lat="45.84987" lon="3.58354">
        <ele>673</ele>
        <time>2021-02-14T12:15:44Z</time>
      </trkpt>
      <trkpt lat="45.84985" lon="3.58353">
        <ele>673</ele>
        <time>2021-02-14T12:15:46Z</time>
      </trkpt>
      <trkpt lat="45.84983" lon="3.5835">
        <ele>674</ele>
        <time>2021-02-14T12:15:48Z</time>
      </trkpt>
      <trkpt lat="45.84982" lon="3.58348">
        <ele>674</ele>
        <time>2021-02-14T12:15:50Z</time>
      </trkpt>
      <trkpt lat="45.8498" lon="3.58346">
        <ele>675</ele>
        <time>2021-02-14T12:15:52Z</time>
      </trkpt>
      <trkpt lat="45.84978" lon="3.58345">
        <ele>675</ele>
        <time>2021-02-14T12:15:54Z</time>
      </trkpt>
      <trkpt lat="45.84976" lon="3.58342">
        <ele>675</ele>
        <time>2021-02-14T12:15:56Z</time>
      </trkpt>
      <trkpt lat="45.84974" lon="3.5834">
        <ele>676</ele>
        <time>2021-02-14T12:15:58Z</time>
      </trkpt>
      <trkpt lat="45.84972" lon="3.58338">
        <ele>676</ele>
        <time>2021-02-14T12:16:00Z</time>
      </trkpt>
      <trkpt lat="45.84971" lon="3.58335">
        <ele>677</ele>
        <time>2021-02-14T12:16:02Z</time>
      </trkpt>
      <trkpt lat="45.84969" lon="3.58333">
        <ele>677</ele>
        <time>2021-02-14T12:16:04Z</time>
      </trkpt>
      <trkpt lat="45.84967" lon="3.58331">
        <ele>677</ele>
        <time>2021-02-14T12:16:06Z</time>
      </trkpt>
      <trkpt lat="45.84966" lon="3.58328">
        <ele>678</ele>
        <time>2021-02-14T12:16:08Z</time>
      </trkpt>
      <trkpt lat="45.84964" lon="3.58326">
        <ele>678</ele>
        <time>2021-02-14T12:16:10Z</time>
      </trkpt>
      <trkpt lat="45.84961" lon="3.58324">
        <ele>678</ele>
        <time>2021-02-14T12:16:12Z</time>
      </trkpt>
      <trkpt lat="45.84959" lon="3.58322">
        <ele>679</ele>
        <time>2021-02-14T12:16:14Z</time>
      </trkpt>
      <trkpt lat="45.84957" lon="3.5832">
        <ele>679</ele>
        <time>2021-02-14T12:16:16Z</time>
      </trkpt>
      <trkpt lat="45.84956" lon="3.58318">
        <ele>679</ele>
        <time>2021-02-14T12:16:18Z</time>
      </trkpt>
      <trkpt lat="45.84954" lon="3.58317">
        <ele>679</ele>
        <time>2021-02-14T12:16:20Z</time>
      </trkpt>
      <trkpt lat="45.84952" lon="3.58315">
        <ele>679</ele>
        <time>2021-02-14T12:16:22Z</time>
      </trkpt>
      <trkpt lat="45.8495" lon="3.58314">
        <ele>680</ele>
        <time>2021-02-14T12:16:24Z</time>
      </trkpt>
      <trkpt lat="45.84948" lon="3.58313">
        <ele>680</ele>
        <time>2021-02-14T12:16:26Z</time>
      </trkpt>
      <trkpt lat="45.84946" lon="3.58312">
        <ele>680</ele>
        <time>2021-02-14T12:16:28Z</time>
      </trkpt>
      <trkpt lat="45.84944" lon="3.58309">
        <ele>680</ele>
        <time>2021-02-14T12:16:30Z</time>
      </trkpt>
      <trkpt lat="45.84942" lon="3.58307">
        <ele>680</ele>
        <time>2021-02-14T12:16:32Z</time>
      </trkpt>
      <trkpt lat="45.84942" lon="3.58304">
        <ele>681</ele>
        <time>2021-02-14T12:16:35Z</time>
      </trkpt>
      <trkpt lat="45.84942" lon="3.58301">
        <ele>681</ele>
        <time>2021-02-14T12:16:37Z</time>
      </trkpt>
      <trkpt lat="45.84942" lon="3.58297">
        <ele>682</ele>
        <time>2021-02-14T12:16:39Z</time>
      </trkpt>
      <trkpt lat="45.84942" lon="3.58294">
        <ele>682</ele>
        <time>2021-02-14T12:16:41Z</time>
      </trkpt>
      <trkpt lat="45.84942" lon="3.5829">
        <ele>683</ele>
        <time>2021-02-14T12:16:43Z</time>
      </trkpt>
      <trkpt lat="45.84941" lon="3.58286">
        <ele>683</ele>
        <time>2021-02-14T12:16:45Z</time>
      </trkpt>
      <trkpt lat="45.8494" lon="3.58283">
        <ele>683</ele>
        <time>2021-02-14T12:16:47Z</time>
      </trkpt>
      <trkpt lat="45.84939" lon="3.5828">
        <ele>683</ele>
        <time>2021-02-14T12:16:49Z</time>
      </trkpt>
      <trkpt lat="45.84938" lon="3.58278">
        <ele>683</ele>
        <time>2021-02-14T12:16:51Z</time>
      </trkpt>
      <trkpt lat="45.84938" lon="3.58276">
        <ele>684</ele>
        <time>2021-02-14T12:16:53Z</time>
      </trkpt>
      <trkpt lat="45.84937" lon="3.58273">
        <ele>684</ele>
        <time>2021-02-14T12:16:55Z</time>
      </trkpt>
      <trkpt lat="45.84936" lon="3.5827">
        <ele>685</ele>
        <time>2021-02-14T12:16:57Z</time>
      </trkpt>
      <trkpt lat="45.84936" lon="3.58267">
        <ele>685</ele>
        <time>2021-02-14T12:16:59Z</time>
      </trkpt>
      <trkpt lat="45.84935" lon="3.58264">
        <ele>685</ele>
        <time>2021-02-14T12:17:01Z</time>
      </trkpt>
      <trkpt lat="45.84935" lon="3.58261">
        <ele>686</ele>
        <time>2021-02-14T12:17:03Z</time>
      </trkpt>
      <trkpt lat="45.84934" lon="3.58258">
        <ele>686</ele>
        <time>2021-02-14T12:17:05Z</time>
      </trkpt>
      <trkpt lat="45.84932" lon="3.58255">
        <ele>686</ele>
        <time>2021-02-14T12:17:08Z</time>
      </trkpt>
      <trkpt lat="45.8493" lon="3.5825">
        <ele>687</ele>
        <time>2021-02-14T12:17:12Z</time>
      </trkpt>
      <trkpt lat="45.84928" lon="3.58248">
        <ele>687</ele>
        <time>2021-02-14T12:17:14Z</time>
      </trkpt>
      <trkpt lat="45.84927" lon="3.58246">
        <ele>687</ele>
        <time>2021-02-14T12:17:16Z</time>
      </trkpt>
      <trkpt lat="45.84925" lon="3.58243">
        <ele>687</ele>
        <time>2021-02-14T12:17:18Z</time>
      </trkpt>
      <trkpt lat="45.84924" lon="3.5824">
        <ele>688</ele>
        <time>2021-02-14T12:17:20Z</time>
      </trkpt>
      <trkpt lat="45.84922" lon="3.58238">
        <ele>688</ele>
        <time>2021-02-14T12:17:22Z</time>
      </trkpt>
      <trkpt lat="45.84921" lon="3.58235">
        <ele>688</ele>
        <time>2021-02-14T12:17:24Z</time>
      </trkpt>
      <trkpt lat="45.84919" lon="3.58233">
        <ele>689</ele>
        <time>2021-02-14T12:17:26Z</time>
      </trkpt>
      <trkpt lat="45.84918" lon="3.5823">
        <ele>689</ele>
        <time>2021-02-14T12:17:28Z</time>
      </trkpt>
      <trkpt lat="45.84916" lon="3.58228">
        <ele>689</ele>
        <time>2021-02-14T12:17:30Z</time>
      </trkpt>
      <trkpt lat="45.84915" lon="3.58225">
        <ele>689</ele>
        <time>2021-02-14T12:17:32Z</time>
      </trkpt>
      <trkpt lat="45.84914" lon="3.58223">
        <ele>690</ele>
        <time>2021-02-14T12:17:34Z</time>
      </trkpt>
      <trkpt lat="45.84913" lon="3.5822">
        <ele>690</ele>
        <time>2021-02-14T12:17:36Z</time>
      </trkpt>
      <trkpt lat="45.84911" lon="3.58217">
        <ele>690</ele>
        <time>2021-02-14T12:17:38Z</time>
      </trkpt>
      <trkpt lat="45.8491" lon="3.58214">
        <ele>691</ele>
        <time>2021-02-14T12:17:40Z</time>
      </trkpt>
      <trkpt lat="45.84909" lon="3.58212">
        <ele>691</ele>
        <time>2021-02-14T12:17:42Z</time>
      </trkpt>
      <trkpt lat="45.84908" lon="3.58209">
        <ele>691</ele>
        <time>2021-02-14T12:17:44Z</time>
      </trkpt>
      <trkpt lat="45.84906" lon="3.58207">
        <ele>692</ele>
        <time>2021-02-14T12:17:46Z</time>
      </trkpt>
      <trkpt lat="45.84905" lon="3.58204">
        <ele>692</ele>
        <time>2021-02-14T12:17:48Z</time>
      </trkpt>
      <trkpt lat="45.84903" lon="3.58202">
        <ele>692</ele>
        <time>2021-02-14T12:17:50Z</time>
      </trkpt>
      <trkpt lat="45.84902" lon="3.58199">
        <ele>693</ele>
        <time>2021-02-14T12:17:52Z</time>
      </trkpt>
      <trkpt lat="45.84901" lon="3.58197">
        <ele>693</ele>
        <time>2021-02-14T12:17:54Z</time>
      </trkpt>
      <trkpt lat="45.84899" lon="3.58194">
        <ele>693</ele>
        <time>2021-02-14T12:17:56Z</time>
      </trkpt>
      <trkpt lat="45.84898" lon="3.58191">
        <ele>694</ele>
        <time>2021-02-14T12:17:58Z</time>
      </trkpt>
      <trkpt lat="45.84897" lon="3.58189">
        <ele>694</ele>
        <time>2021-02-14T12:18:00Z</time>
      </trkpt>
      <trkpt lat="45.84896" lon="3.58186">
        <ele>695</ele>
        <time>2021-02-14T12:18:02Z</time>
      </trkpt>
      <trkpt lat="45.84894" lon="3.58184">
        <ele>695</ele>
        <time>2021-02-14T12:18:04Z</time>
      </trkpt>
      <trkpt lat="45.84893" lon="3.58182">
        <ele>695</ele>
        <time>2021-02-14T12:18:06Z</time>
      </trkpt>
      <trkpt lat="45.84891" lon="3.58179">
        <ele>696</ele>
        <time>2021-02-14T12:18:08Z</time>
      </trkpt>
      <trkpt lat="45.84889" lon="3.58177">
        <ele>696</ele>
        <time>2021-02-14T12:18:10Z</time>
      </trkpt>
      <trkpt lat="45.84888" lon="3.58174">
        <ele>696</ele>
        <time>2021-02-14T12:18:12Z</time>
      </trkpt>
      <trkpt lat="45.84886" lon="3.58171">
        <ele>697</ele>
        <time>2021-02-14T12:18:14Z</time>
      </trkpt>
      <trkpt lat="45.84885" lon="3.58169">
        <ele>697</ele>
        <time>2021-02-14T12:18:16Z</time>
      </trkpt>
      <trkpt lat="45.84883" lon="3.58167">
        <ele>697</ele>
        <time>2021-02-14T12:18:18Z</time>
      </trkpt>
      <trkpt lat="45.84881" lon="3.58164">
        <ele>697</ele>
        <time>2021-02-14T12:18:20Z</time>
      </trkpt>
      <trkpt lat="45.84879" lon="3.58162">
        <ele>698</ele>
        <time>2021-02-14T12:18:22Z</time>
      </trkpt>
      <trkpt lat="45.84878" lon="3.5816">
        <ele>698</ele>
        <time>2021-02-14T12:18:24Z</time>
      </trkpt>
      <trkpt lat="45.84876" lon="3.58158">
        <ele>698</ele>
        <time>2021-02-14T12:18:26Z</time>
      </trkpt>
      <trkpt lat="45.84875" lon="3.58156">
        <ele>698</ele>
        <time>2021-02-14T12:18:28Z</time>
      </trkpt>
      <trkpt lat="45.84873" lon="3.58153">
        <ele>698</ele>
        <time>2021-02-14T12:18:30Z</time>
      </trkpt>
      <trkpt lat="45.84872" lon="3.58151">
        <ele>698</ele>
        <time>2021-02-14T12:18:32Z</time>
      </trkpt>
      <trkpt lat="45.8487" lon="3.5815">
        <ele>698</ele>
        <time>2021-02-14T12:18:34Z</time>
      </trkpt>
      <trkpt lat="45.84868" lon="3.58148">
        <ele>697</ele>
        <time>2021-02-14T12:18:36Z</time>
      </trkpt>
      <trkpt lat="45.84866" lon="3.58146">
        <ele>698</ele>
        <time>2021-02-14T12:18:38Z</time>
      </trkpt>
      <trkpt lat="45.84864" lon="3.58145">
        <ele>697</ele>
        <time>2021-02-14T12:18:40Z</time>
      </trkpt>
      <trkpt lat="45.84862" lon="3.58143">
        <ele>697</ele>
        <time>2021-02-14T12:18:42Z</time>
      </trkpt>
      <trkpt lat="45.8486" lon="3.58142">
        <ele>697</ele>
        <time>2021-02-14T12:18:44Z</time>
      </trkpt>
      <trkpt lat="45.84858" lon="3.58141">
        <ele>697</ele>
        <time>2021-02-14T12:18:46Z</time>
      </trkpt>
      <trkpt lat="45.84855" lon="3.5814">
        <ele>696</ele>
        <time>2021-02-14T12:18:48Z</time>
      </trkpt>
      <trkpt lat="45.84853" lon="3.58138">
        <ele>696</ele>
        <time>2021-02-14T12:18:50Z</time>
      </trkpt>
      <trkpt lat="45.84851" lon="3.58136">
        <ele>696</ele>
        <time>2021-02-14T12:18:52Z</time>
      </trkpt>
      <trkpt lat="45.84848" lon="3.58135">
        <ele>696</ele>
        <time>2021-02-14T12:18:54Z</time>
      </trkpt>
      <trkpt lat="45.84846" lon="3.58132">
        <ele>696</ele>
        <time>2021-02-14T12:18:56Z</time>
      </trkpt>
      <trkpt lat="45.84843" lon="3.5813">
        <ele>696</ele>
        <time>2021-02-14T12:18:58Z</time>
      </trkpt>
      <trkpt lat="45.84841" lon="3.58127">
        <ele>696</ele>
        <time>2021-02-14T12:19:00Z</time>
      </trkpt>
      <trkpt lat="45.8484" lon="3.58123">
        <ele>696</ele>
        <time>2021-02-14T12:19:02Z</time>
      </trkpt>
      <trkpt lat="45.84838" lon="3.5812">
        <ele>696</ele>
        <time>2021-02-14T12:19:04Z</time>
      </trkpt>
      <trkpt lat="45.84836" lon="3.58117">
        <ele>696</ele>
        <time>2021-02-14T12:19:06Z</time>
      </trkpt>
      <trkpt lat="45.84835" lon="3.58114">
        <ele>696</ele>
        <time>2021-02-14T12:19:08Z</time>
      </trkpt>
      <trkpt lat="45.84833" lon="3.58111">
        <ele>697</ele>
        <time>2021-02-14T12:19:10Z</time>
      </trkpt>
      <trkpt lat="45.84832" lon="3.58108">
        <ele>697</ele>
        <time>2021-02-14T12:19:12Z</time>
      </trkpt>
      <trkpt lat="45.84831" lon="3.58105">
        <ele>697</ele>
        <time>2021-02-14T12:19:14Z</time>
      </trkpt>
      <trkpt lat="45.8483" lon="3.58103">
        <ele>697</ele>
        <time>2021-02-14T12:19:16Z</time>
      </trkpt>
      <trkpt lat="45.84828" lon="3.58099">
        <ele>697</ele>
        <time>2021-02-14T12:19:19Z</time>
      </trkpt>
      <trkpt lat="45.84827" lon="3.58096">
        <ele>697</ele>
        <time>2021-02-14T12:19:21Z</time>
      </trkpt>
      <trkpt lat="45.84826" lon="3.58094">
        <ele>697</ele>
        <time>2021-02-14T12:19:23Z</time>
      </trkpt>
      <trkpt lat="45.84826" lon="3.58092">
        <ele>698</ele>
        <time>2021-02-14T12:19:25Z</time>
      </trkpt>
      <trkpt lat="45.84824" lon="3.58089">
        <ele>698</ele>
        <time>2021-02-14T12:19:27Z</time>
      </trkpt>
      <trkpt lat="45.84823" lon="3.58087">
        <ele>698</ele>
        <time>2021-02-14T12:19:29Z</time>
      </trkpt>
      <trkpt lat="45.84822" lon="3.58085">
        <ele>698</ele>
        <time>2021-02-14T12:19:31Z</time>
      </trkpt>
      <trkpt lat="45.8482" lon="3.58083">
        <ele>698</ele>
        <time>2021-02-14T12:19:33Z</time>
      </trkpt>
      <trkpt lat="45.84819" lon="3.5808">
        <ele>698</ele>
        <time>2021-02-14T12:19:35Z</time>
      </trkpt>
      <trkpt lat="45.84818" lon="3.58076">
        <ele>699</ele>
        <time>2021-02-14T12:19:37Z</time>
      </trkpt>
      <trkpt lat="45.84817" lon="3.58072">
        <ele>699</ele>
        <time>2021-02-14T12:19:39Z</time>
      </trkpt>
      <trkpt lat="45.84816" lon="3.58069">
        <ele>700</ele>
        <time>2021-02-14T12:19:41Z</time>
      </trkpt>
      <trkpt lat="45.84815" lon="3.58066">
        <ele>700</ele>
        <time>2021-02-14T12:19:43Z</time>
      </trkpt>
      <trkpt lat="45.84813" lon="3.58063">
        <ele>700</ele>
        <time>2021-02-14T12:19:45Z</time>
      </trkpt>
      <trkpt lat="45.84812" lon="3.58061">
        <ele>700</ele>
        <time>2021-02-14T12:19:47Z</time>
      </trkpt>
      <trkpt lat="45.8481" lon="3.58058">
        <ele>700</ele>
        <time>2021-02-14T12:19:49Z</time>
      </trkpt>
      <trkpt lat="45.84809" lon="3.58055">
        <ele>700</ele>
        <time>2021-02-14T12:19:51Z</time>
      </trkpt>
      <trkpt lat="45.84807" lon="3.58053">
        <ele>701</ele>
        <time>2021-02-14T12:19:53Z</time>
      </trkpt>
      <trkpt lat="45.84805" lon="3.5805">
        <ele>701</ele>
        <time>2021-02-14T12:19:55Z</time>
      </trkpt>
      <trkpt lat="45.84804" lon="3.58048">
        <ele>701</ele>
        <time>2021-02-14T12:19:57Z</time>
      </trkpt>
      <trkpt lat="45.84802" lon="3.58046">
        <ele>702</ele>
        <time>2021-02-14T12:19:59Z</time>
      </trkpt>
      <trkpt lat="45.84801" lon="3.58043">
        <ele>702</ele>
        <time>2021-02-14T12:20:01Z</time>
      </trkpt>
      <trkpt lat="45.848" lon="3.5804">
        <ele>703</ele>
        <time>2021-02-14T12:20:03Z</time>
      </trkpt>
      <trkpt lat="45.84798" lon="3.58038">
        <ele>703</ele>
        <time>2021-02-14T12:20:05Z</time>
      </trkpt>
      <trkpt lat="45.84796" lon="3.58035">
        <ele>704</ele>
        <time>2021-02-14T12:20:07Z</time>
      </trkpt>
      <trkpt lat="45.84795" lon="3.58032">
        <ele>704</ele>
        <time>2021-02-14T12:20:09Z</time>
      </trkpt>
      <trkpt lat="45.84793" lon="3.5803">
        <ele>705</ele>
        <time>2021-02-14T12:20:11Z</time>
      </trkpt>
      <trkpt lat="45.84792" lon="3.58027">
        <ele>705</ele>
        <time>2021-02-14T12:20:13Z</time>
      </trkpt>
      <trkpt lat="45.8479" lon="3.58025">
        <ele>705</ele>
        <time>2021-02-14T12:20:15Z</time>
      </trkpt>
      <trkpt lat="45.84789" lon="3.58022">
        <ele>706</ele>
        <time>2021-02-14T12:20:17Z</time>
      </trkpt>
      <trkpt lat="45.84788" lon="3.58019">
        <ele>707</ele>
        <time>2021-02-14T12:20:19Z</time>
      </trkpt>
      <trkpt lat="45.84786" lon="3.58016">
        <ele>707</ele>
        <time>2021-02-14T12:20:21Z</time>
      </trkpt>
      <trkpt lat="45.84785" lon="3.58013">
        <ele>708</ele>
        <time>2021-02-14T12:20:23Z</time>
      </trkpt>
      <trkpt lat="45.84783" lon="3.58009">
        <ele>708</ele>
        <time>2021-02-14T12:20:25Z</time>
      </trkpt>
      <trkpt lat="45.84782" lon="3.58006">
        <ele>709</ele>
        <time>2021-02-14T12:20:27Z</time>
      </trkpt>
      <trkpt lat="45.8478" lon="3.58003">
        <ele>709</ele>
        <time>2021-02-14T12:20:29Z</time>
      </trkpt>
      <trkpt lat="45.84779" lon="3.57999">
        <ele>710</ele>
        <time>2021-02-14T12:20:31Z</time>
      </trkpt>
      <trkpt lat="45.84778" lon="3.57996">
        <ele>711</ele>
        <time>2021-02-14T12:20:33Z</time>
      </trkpt>
      <trkpt lat="45.84777" lon="3.57993">
        <ele>711</ele>
        <time>2021-02-14T12:20:35Z</time>
      </trkpt>
      <trkpt lat="45.84776" lon="3.5799">
        <ele>712</ele>
        <time>2021-02-14T12:20:37Z</time>
      </trkpt>
      <trkpt lat="45.84775" lon="3.57987">
        <ele>713</ele>
        <time>2021-02-14T12:20:39Z</time>
      </trkpt>
      <trkpt lat="45.84774" lon="3.57985">
        <ele>714</ele>
        <time>2021-02-14T12:20:41Z</time>
      </trkpt>
      <trkpt lat="45.84773" lon="3.57982">
        <ele>714</ele>
        <time>2021-02-14T12:20:43Z</time>
      </trkpt>
      <trkpt lat="45.84772" lon="3.57979">
        <ele>715</ele>
        <time>2021-02-14T12:20:45Z</time>
      </trkpt>
      <trkpt lat="45.84771" lon="3.57976">
        <ele>716</ele>
        <time>2021-02-14T12:20:47Z</time>
      </trkpt>
      <trkpt lat="45.8477" lon="3.57973">
        <ele>717</ele>
        <time>2021-02-14T12:20:49Z</time>
      </trkpt>
      <trkpt lat="45.84769" lon="3.5797">
        <ele>717</ele>
        <time>2021-02-14T12:20:51Z</time>
      </trkpt>
      <trkpt lat="45.84768" lon="3.57967">
        <ele>718</ele>
        <time>2021-02-14T12:20:53Z</time>
      </trkpt>
      <trkpt lat="45.84767" lon="3.57964">
        <ele>719</ele>
        <time>2021-02-14T12:20:55Z</time>
      </trkpt>
      <trkpt lat="45.84767" lon="3.57961">
        <ele>720</ele>
        <time>2021-02-14T12:21:03Z</time>
      </trkpt>
      <trkpt lat="45.84766" lon="3.57958">
        <ele>721</ele>
        <time>2021-02-14T12:21:05Z</time>
      </trkpt>
      <trkpt lat="45.84766" lon="3.57955">
        <ele>722</ele>
        <time>2021-02-14T12:21:07Z</time>
      </trkpt>
      <trkpt lat="45.84765" lon="3.57952">
        <ele>723</ele>
        <time>2021-02-14T12:21:09Z</time>
      </trkpt>
      <trkpt lat="45.84764" lon="3.5795">
        <ele>724</ele>
        <time>2021-02-14T12:21:11Z</time>
      </trkpt>
      <trkpt lat="45.84764" lon="3.57947">
        <ele>724</ele>
        <time>2021-02-14T12:21:13Z</time>
      </trkpt>
      <trkpt lat="45.84762" lon="3.57945">
        <ele>725</ele>
        <time>2021-02-14T12:21:16Z</time>
      </trkpt>
      <trkpt lat="45.84761" lon="3.57942">
        <ele>726</ele>
        <time>2021-02-14T12:21:19Z</time>
      </trkpt>
      <trkpt lat="45.8476" lon="3.5794">
        <ele>727</ele>
        <time>2021-02-14T12:21:21Z</time>
      </trkpt>
      <trkpt lat="45.84759" lon="3.57937">
        <ele>727</ele>
        <time>2021-02-14T12:21:23Z</time>
      </trkpt>
      <trkpt lat="45.84758" lon="3.57934">
        <ele>728</ele>
        <time>2021-02-14T12:21:25Z</time>
      </trkpt>
      <trkpt lat="45.84756" lon="3.57932">
        <ele>729</ele>
        <time>2021-02-14T12:21:27Z</time>
      </trkpt>
      <trkpt lat="45.84755" lon="3.5793">
        <ele>729</ele>
        <time>2021-02-14T12:21:29Z</time>
      </trkpt>
      <trkpt lat="45.84754" lon="3.57928">
        <ele>730</ele>
        <time>2021-02-14T12:21:31Z</time>
      </trkpt>
      <trkpt lat="45.84752" lon="3.57926">
        <ele>731</ele>
        <time>2021-02-14T12:21:33Z</time>
      </trkpt>
      <trkpt lat="45.84751" lon="3.57924">
        <ele>731</ele>
        <time>2021-02-14T12:21:35Z</time>
      </trkpt>
      <trkpt lat="45.8475" lon="3.57921">
        <ele>732</ele>
        <time>2021-02-14T12:21:37Z</time>
      </trkpt>
      <trkpt lat="45.84749" lon="3.57919">
        <ele>732</ele>
        <time>2021-02-14T12:21:39Z</time>
      </trkpt>
      <trkpt lat="45.84747" lon="3.57918">
        <ele>733</ele>
        <time>2021-02-14T12:21:41Z</time>
      </trkpt>
      <trkpt lat="45.84746" lon="3.57915">
        <ele>734</ele>
        <time>2021-02-14T12:21:43Z</time>
      </trkpt>
      <trkpt lat="45.84745" lon="3.57914">
        <ele>734</ele>
        <time>2021-02-14T12:21:45Z</time>
      </trkpt>
      <trkpt lat="45.84743" lon="3.57911">
        <ele>735</ele>
        <time>2021-02-14T12:21:48Z</time>
      </trkpt>
      <trkpt lat="45.84741" lon="3.57909">
        <ele>735</ele>
        <time>2021-02-14T12:21:58Z</time>
      </trkpt>
      <trkpt lat="45.8474" lon="3.57907">
        <ele>736</ele>
        <time>2021-02-14T12:22:00Z</time>
      </trkpt>
      <trkpt lat="45.84738" lon="3.57905">
        <ele>736</ele>
        <time>2021-02-14T12:22:02Z</time>
      </trkpt>
      <trkpt lat="45.84736" lon="3.57903">
        <ele>736</ele>
        <time>2021-02-14T12:22:04Z</time>
      </trkpt>
      <trkpt lat="45.84734" lon="3.57902">
        <ele>736</ele>
        <time>2021-02-14T12:22:06Z</time>
      </trkpt>
      <trkpt lat="45.84733" lon="3.579">
        <ele>737</ele>
        <time>2021-02-14T12:22:08Z</time>
      </trkpt>
      <trkpt lat="45.84731" lon="3.57898">
        <ele>737</ele>
        <time>2021-02-14T12:22:10Z</time>
      </trkpt>
      <trkpt lat="45.84729" lon="3.57896">
        <ele>737</ele>
        <time>2021-02-14T12:22:12Z</time>
      </trkpt>
      <trkpt lat="45.84728" lon="3.57894">
        <ele>738</ele>
        <time>2021-02-14T12:22:14Z</time>
      </trkpt>
      <trkpt lat="45.84726" lon="3.57893">
        <ele>738</ele>
        <time>2021-02-14T12:22:16Z</time>
      </trkpt>
      <trkpt lat="45.84724" lon="3.57892">
        <ele>738</ele>
        <time>2021-02-14T12:22:18Z</time>
      </trkpt>
      <trkpt lat="45.84722" lon="3.5789">
        <ele>738</ele>
        <time>2021-02-14T12:22:21Z</time>
      </trkpt>
      <trkpt lat="45.8472" lon="3.57888">
        <ele>738</ele>
        <time>2021-02-14T12:22:23Z</time>
      </trkpt>
      <trkpt lat="45.84719" lon="3.57887">
        <ele>738</ele>
        <time>2021-02-14T12:22:25Z</time>
      </trkpt>
      <trkpt lat="45.84718" lon="3.57885">
        <ele>738</ele>
        <time>2021-02-14T12:22:27Z</time>
      </trkpt>
      <trkpt lat="45.84716" lon="3.57882">
        <ele>738</ele>
        <time>2021-02-14T12:22:29Z</time>
      </trkpt>
      <trkpt lat="45.84715" lon="3.5788">
        <ele>738</ele>
        <time>2021-02-14T12:22:31Z</time>
      </trkpt>
      <trkpt lat="45.84713" lon="3.57878">
        <ele>738</ele>
        <time>2021-02-14T12:22:33Z</time>
      </trkpt>
      <trkpt lat="45.84712" lon="3.57876">
        <ele>738</ele>
        <time>2021-02-14T12:22:35Z</time>
      </trkpt>
      <trkpt lat="45.8471" lon="3.57873">
        <ele>738</ele>
        <time>2021-02-14T12:22:37Z</time>
      </trkpt>
      <trkpt lat="45.84708" lon="3.57871">
        <ele>738</ele>
        <time>2021-02-14T12:22:39Z</time>
      </trkpt>
      <trkpt lat="45.84707" lon="3.57868">
        <ele>738</ele>
        <time>2021-02-14T12:22:41Z</time>
      </trkpt>
      <trkpt lat="45.84705" lon="3.57866">
        <ele>738</ele>
        <time>2021-02-14T12:22:43Z</time>
      </trkpt>
      <trkpt lat="45.84704" lon="3.57863">
        <ele>738</ele>
        <time>2021-02-14T12:22:45Z</time>
      </trkpt>
      <trkpt lat="45.84703" lon="3.5786">
        <ele>738</ele>
        <time>2021-02-14T12:22:47Z</time>
      </trkpt>
      <trkpt lat="45.84701" lon="3.57857">
        <ele>738</ele>
        <time>2021-02-14T12:22:49Z</time>
      </trkpt>
      <trkpt lat="45.847" lon="3.57853">
        <ele>738</ele>
        <time>2021-02-14T12:22:51Z</time>
      </trkpt>
      <trkpt lat="45.84699" lon="3.5785">
        <ele>738</ele>
        <time>2021-02-14T12:22:53Z</time>
      </trkpt>
      <trkpt lat="45.84699" lon="3.57846">
        <ele>738</ele>
        <time>2021-02-14T12:22:55Z</time>
      </trkpt>
      <trkpt lat="45.84698" lon="3.57843">
        <ele>738</ele>
        <time>2021-02-14T12:22:57Z</time>
      </trkpt>
      <trkpt lat="45.84696" lon="3.57839">
        <ele>738</ele>
        <time>2021-02-14T12:22:59Z</time>
      </trkpt>
      <trkpt lat="45.84695" lon="3.57835">
        <ele>738</ele>
        <time>2021-02-14T12:23:01Z</time>
      </trkpt>
      <trkpt lat="45.84694" lon="3.57831">
        <ele>737</ele>
        <time>2021-02-14T12:23:03Z</time>
      </trkpt>
      <trkpt lat="45.84693" lon="3.57827">
        <ele>737</ele>
        <time>2021-02-14T12:23:05Z</time>
      </trkpt>
      <trkpt lat="45.84692" lon="3.57823">
        <ele>736</ele>
        <time>2021-02-14T12:23:07Z</time>
      </trkpt>
      <trkpt lat="45.84692" lon="3.57819">
        <ele>736</ele>
        <time>2021-02-14T12:23:09Z</time>
      </trkpt>
      <trkpt lat="45.84692" lon="3.57815">
        <ele>736</ele>
        <time>2021-02-14T12:23:11Z</time>
      </trkpt>
      <trkpt lat="45.84691" lon="3.57811">
        <ele>735</ele>
        <time>2021-02-14T12:23:13Z</time>
      </trkpt>
      <trkpt lat="45.84691" lon="3.57807">
        <ele>735</ele>
        <time>2021-02-14T12:23:15Z</time>
      </trkpt>
      <trkpt lat="45.8469" lon="3.57803">
        <ele>734</ele>
        <time>2021-02-14T12:23:17Z</time>
      </trkpt>
      <trkpt lat="45.84689" lon="3.57799">
        <ele>734</ele>
        <time>2021-02-14T12:23:19Z</time>
      </trkpt>
      <trkpt lat="45.84689" lon="3.57795">
        <ele>733</ele>
        <time>2021-02-14T12:23:21Z</time>
      </trkpt>
      <trkpt lat="45.8469" lon="3.57791">
        <ele>733</ele>
        <time>2021-02-14T12:23:23Z</time>
      </trkpt>
      <trkpt lat="45.8469" lon="3.57786">
        <ele>733</ele>
        <time>2021-02-14T12:23:25Z</time>
      </trkpt>
      <trkpt lat="45.84689" lon="3.57782">
        <ele>732</ele>
        <time>2021-02-14T12:23:27Z</time>
      </trkpt>
      <trkpt lat="45.8469" lon="3.57778">
        <ele>732</ele>
        <time>2021-02-14T12:23:29Z</time>
      </trkpt>
      <trkpt lat="45.8469" lon="3.57774">
        <ele>732</ele>
        <time>2021-02-14T12:23:31Z</time>
      </trkpt>
      <trkpt lat="45.84688" lon="3.5777">
        <ele>731</ele>
        <time>2021-02-14T12:23:33Z</time>
      </trkpt>
      <trkpt lat="45.84687" lon="3.57766">
        <ele>730</ele>
        <time>2021-02-14T12:23:35Z</time>
      </trkpt>
      <trkpt lat="45.84687" lon="3.57762">
        <ele>729</ele>
        <time>2021-02-14T12:23:37Z</time>
      </trkpt>
      <trkpt lat="45.84686" lon="3.57758">
        <ele>729</ele>
        <time>2021-02-14T12:23:39Z</time>
      </trkpt>
      <trkpt lat="45.84686" lon="3.57754">
        <ele>728</ele>
        <time>2021-02-14T12:23:41Z</time>
      </trkpt>
      <trkpt lat="45.84685" lon="3.5775">
        <ele>728</ele>
        <time>2021-02-14T12:23:43Z</time>
      </trkpt>
      <trkpt lat="45.84685" lon="3.57746">
        <ele>727</ele>
        <time>2021-02-14T12:23:45Z</time>
      </trkpt>
      <trkpt lat="45.84684" lon="3.57742">
        <ele>726</ele>
        <time>2021-02-14T12:23:47Z</time>
      </trkpt>
      <trkpt lat="45.84683" lon="3.57738">
        <ele>726</ele>
        <time>2021-02-14T12:23:49Z</time>
      </trkpt>
      <trkpt lat="45.84682" lon="3.57733">
        <ele>725</ele>
        <time>2021-02-14T12:23:51Z</time>
      </trkpt>
      <trkpt lat="45.8468" lon="3.57729">
        <ele>724</ele>
        <time>2021-02-14T12:23:53Z</time>
      </trkpt>
      <trkpt lat="45.84679" lon="3.57725">
        <ele>723</ele>
        <time>2021-02-14T12:23:55Z</time>
      </trkpt>
      <trkpt lat="45.84678" lon="3.57721">
        <ele>723</ele>
        <time>2021-02-14T12:23:57Z</time>
      </trkpt>
      <trkpt lat="45.84677" lon="3.57717">
        <ele>722</ele>
        <time>2021-02-14T12:23:59Z</time>
      </trkpt>
      <trkpt lat="45.84676" lon="3.57713">
        <ele>722</ele>
        <time>2021-02-14T12:24:01Z</time>
      </trkpt>
      <trkpt lat="45.84675" lon="3.57709">
        <ele>721</ele>
        <time>2021-02-14T12:24:03Z</time>
      </trkpt>
      <trkpt lat="45.84674" lon="3.57705">
        <ele>721</ele>
        <time>2021-02-14T12:24:05Z</time>
      </trkpt>
      <trkpt lat="45.84674" lon="3.57701">
        <ele>720</ele>
        <time>2021-02-14T12:24:07Z</time>
      </trkpt>
      <trkpt lat="45.84674" lon="3.57698">
        <ele>720</ele>
        <time>2021-02-14T12:24:09Z</time>
      </trkpt>
      <trkpt lat="45.84673" lon="3.57694">
        <ele>720</ele>
        <time>2021-02-14T12:24:11Z</time>
      </trkpt>
      <trkpt lat="45.84672" lon="3.5769">
        <ele>720</ele>
        <time>2021-02-14T12:24:13Z</time>
      </trkpt>
      <trkpt lat="45.8467" lon="3.57687">
        <ele>719</ele>
        <time>2021-02-14T12:24:15Z</time>
      </trkpt>
      <trkpt lat="45.84669" lon="3.57683">
        <ele>719</ele>
        <time>2021-02-14T12:24:17Z</time>
      </trkpt>
      <trkpt lat="45.84668" lon="3.57679">
        <ele>719</ele>
        <time>2021-02-14T12:24:19Z</time>
      </trkpt>
      <trkpt lat="45.84666" lon="3.57675">
        <ele>718</ele>
        <time>2021-02-14T12:24:21Z</time>
      </trkpt>
      <trkpt lat="45.84666" lon="3.57671">
        <ele>718</ele>
        <time>2021-02-14T12:24:23Z</time>
      </trkpt>
      <trkpt lat="45.84665" lon="3.57668">
        <ele>718</ele>
        <time>2021-02-14T12:24:25Z</time>
      </trkpt>
      <trkpt lat="45.84664" lon="3.57664">
        <ele>718</ele>
        <time>2021-02-14T12:24:27Z</time>
      </trkpt>
      <trkpt lat="45.84663" lon="3.5766">
        <ele>718</ele>
        <time>2021-02-14T12:24:29Z</time>
      </trkpt>
      <trkpt lat="45.84661" lon="3.57657">
        <ele>717</ele>
        <time>2021-02-14T12:24:31Z</time>
      </trkpt>
      <trkpt lat="45.84659" lon="3.57654">
        <ele>717</ele>
        <time>2021-02-14T12:24:33Z</time>
      </trkpt>
      <trkpt lat="45.84657" lon="3.5765">
        <ele>717</ele>
        <time>2021-02-14T12:24:35Z</time>
      </trkpt>
      <trkpt lat="45.84655" lon="3.57646">
        <ele>716</ele>
        <time>2021-02-14T12:24:37Z</time>
      </trkpt>
      <trkpt lat="45.84654" lon="3.57642">
        <ele>716</ele>
        <time>2021-02-14T12:24:39Z</time>
      </trkpt>
      <trkpt lat="45.84653" lon="3.57639">
        <ele>716</ele>
        <time>2021-02-14T12:24:41Z</time>
      </trkpt>
      <trkpt lat="45.84651" lon="3.57635">
        <ele>716</ele>
        <time>2021-02-14T12:24:43Z</time>
      </trkpt>
      <trkpt lat="45.8465" lon="3.57632">
        <ele>716</ele>
        <time>2021-02-14T12:24:45Z</time>
      </trkpt>
      <trkpt lat="45.84648" lon="3.57628">
        <ele>715</ele>
        <time>2021-02-14T12:24:47Z</time>
      </trkpt>
      <trkpt lat="45.84647" lon="3.57625">
        <ele>715</ele>
        <time>2021-02-14T12:24:49Z</time>
      </trkpt>
      <trkpt lat="45.84646" lon="3.57621">
        <ele>715</ele>
        <time>2021-02-14T12:24:51Z</time>
      </trkpt>
      <trkpt lat="45.84645" lon="3.57617">
        <ele>715</ele>
        <time>2021-02-14T12:24:53Z</time>
      </trkpt>
      <trkpt lat="45.84643" lon="3.57613">
        <ele>715</ele>
        <time>2021-02-14T12:24:55Z</time>
      </trkpt>
      <trkpt lat="45.84642" lon="3.5761">
        <ele>715</ele>
        <time>2021-02-14T12:24:57Z</time>
      </trkpt>
      <trkpt lat="45.84641" lon="3.57606">
        <ele>715</ele>
        <time>2021-02-14T12:24:59Z</time>
      </trkpt>
      <trkpt lat="45.8464" lon="3.57603">
        <ele>715</ele>
        <time>2021-02-14T12:25:01Z</time>
      </trkpt>
      <trkpt lat="45.84639" lon="3.57599">
        <ele>715</ele>
        <time>2021-02-14T12:25:03Z</time>
      </trkpt>
      <trkpt lat="45.84638" lon="3.57596">
        <ele>714</ele>
        <time>2021-02-14T12:25:05Z</time>
      </trkpt>
      <trkpt lat="45.84638" lon="3.57593">
        <ele>714</ele>
        <time>2021-02-14T12:25:07Z</time>
      </trkpt>
      <trkpt lat="45.84637" lon="3.5759">
        <ele>714</ele>
        <time>2021-02-14T12:25:09Z</time>
      </trkpt>
      <trkpt lat="45.84636" lon="3.57587">
        <ele>714</ele>
        <time>2021-02-14T12:25:11Z</time>
      </trkpt>
      <trkpt lat="45.84636" lon="3.57584">
        <ele>714</ele>
        <time>2021-02-14T12:25:13Z</time>
      </trkpt>
      <trkpt lat="45.84635" lon="3.5758">
        <ele>714</ele>
        <time>2021-02-14T12:25:15Z</time>
      </trkpt>
      <trkpt lat="45.84635" lon="3.57577">
        <ele>713</ele>
        <time>2021-02-14T12:25:17Z</time>
      </trkpt>
      <trkpt lat="45.84633" lon="3.57579">
        <ele>713</ele>
        <time>2021-02-14T12:25:20Z</time>
      </trkpt>
      <trkpt lat="45.84632" lon="3.57583">
        <ele>714</ele>
        <time>2021-02-14T12:25:22Z</time>
      </trkpt>
      <trkpt lat="45.84632" lon="3.57586">
        <ele>713</ele>
        <time>2021-02-14T12:25:24Z</time>
      </trkpt>
      <trkpt lat="45.84631" lon="3.57589">
        <ele>713</ele>
        <time>2021-02-14T12:25:26Z</time>
      </trkpt>
      <trkpt lat="45.84631" lon="3.57592">
        <ele>713</ele>
        <time>2021-02-14T12:25:28Z</time>
      </trkpt>
      <trkpt lat="45.84631" lon="3.57596">
        <ele>713</ele>
        <time>2021-02-14T12:25:31Z</time>
      </trkpt>
      <trkpt lat="45.84631" lon="3.57599">
        <ele>713</ele>
        <time>2021-02-14T12:25:33Z</time>
      </trkpt>
      <trkpt lat="45.84631" lon="3.57602">
        <ele>713</ele>
        <time>2021-02-14T12:25:35Z</time>
      </trkpt>
      <trkpt lat="45.8463" lon="3.57606">
        <ele>713</ele>
        <time>2021-02-14T12:25:39Z</time>
      </trkpt>
      <trkpt lat="45.8463" lon="3.57609">
        <ele>713</ele>
        <time>2021-02-14T12:25:40Z</time>
      </trkpt>
      <trkpt lat="45.84629" lon="3.57612">
        <ele>713</ele>
        <time>2021-02-14T12:25:42Z</time>
      </trkpt>
      <trkpt lat="45.84629" lon="3.57616">
        <ele>713</ele>
        <time>2021-02-14T12:25:44Z</time>
      </trkpt>
      <trkpt lat="45.84628" lon="3.57619">
        <ele>713</ele>
        <time>2021-02-14T12:25:46Z</time>
      </trkpt>
      <trkpt lat="45.84627" lon="3.57623">
        <ele>713</ele>
        <time>2021-02-14T12:25:48Z</time>
      </trkpt>
      <trkpt lat="45.84626" lon="3.57626">
        <ele>712</ele>
        <time>2021-02-14T12:25:49Z</time>
      </trkpt>
      <trkpt lat="45.84625" lon="3.5763">
        <ele>712</ele>
        <time>2021-02-14T12:25:51Z</time>
      </trkpt>
      <trkpt lat="45.84624" lon="3.57633">
        <ele>712</ele>
        <time>2021-02-14T12:25:53Z</time>
      </trkpt>
      <trkpt lat="45.84623" lon="3.57636">
        <ele>712</ele>
        <time>2021-02-14T12:25:55Z</time>
      </trkpt>
      <trkpt lat="45.84622" lon="3.5764">
        <ele>712</ele>
        <time>2021-02-14T12:25:57Z</time>
      </trkpt>
      <trkpt lat="45.84621" lon="3.57643">
        <ele>712</ele>
        <time>2021-02-14T12:25:59Z</time>
      </trkpt>
      <trkpt lat="45.8462" lon="3.57647">
        <ele>711</ele>
        <time>2021-02-14T12:26:01Z</time>
      </trkpt>
      <trkpt lat="45.84618" lon="3.5765">
        <ele>711</ele>
        <time>2021-02-14T12:26:03Z</time>
      </trkpt>
      <trkpt lat="45.84617" lon="3.57654">
        <ele>711</ele>
        <time>2021-02-14T12:26:05Z</time>
      </trkpt>
      <trkpt lat="45.84616" lon="3.57658">
        <ele>711</ele>
        <time>2021-02-14T12:26:07Z</time>
      </trkpt>
      <trkpt lat="45.84616" lon="3.57662">
        <ele>711</ele>
        <time>2021-02-14T12:26:09Z</time>
      </trkpt>
      <trkpt lat="45.84616" lon="3.57666">
        <ele>711</ele>
        <time>2021-02-14T12:26:11Z</time>
      </trkpt>
      <trkpt lat="45.84615" lon="3.57669">
        <ele>711</ele>
        <time>2021-02-14T12:26:12Z</time>
      </trkpt>
      <trkpt lat="45.84614" lon="3.57673">
        <ele>711</ele>
        <time>2021-02-14T12:26:14Z</time>
      </trkpt>
      <trkpt lat="45.84614" lon="3.57677">
        <ele>711</ele>
        <time>2021-02-14T12:26:16Z</time>
      </trkpt>
      <trkpt lat="45.84613" lon="3.57681">
        <ele>711</ele>
        <time>2021-02-14T12:26:18Z</time>
      </trkpt>
      <trkpt lat="45.84613" lon="3.57685">
        <ele>711</ele>
        <time>2021-02-14T12:26:20Z</time>
      </trkpt>
      <trkpt lat="45.84612" lon="3.57689">
        <ele>711</ele>
        <time>2021-02-14T12:26:22Z</time>
      </trkpt>
      <trkpt lat="45.84611" lon="3.57692">
        <ele>711</ele>
        <time>2021-02-14T12:26:24Z</time>
      </trkpt>
      <trkpt lat="45.84611" lon="3.57696">
        <ele>712</ele>
        <time>2021-02-14T12:26:26Z</time>
      </trkpt>
      <trkpt lat="45.84611" lon="3.57699">
        <ele>712</ele>
        <time>2021-02-14T12:26:28Z</time>
      </trkpt>
      <trkpt lat="45.8461" lon="3.57703">
        <ele>712</ele>
        <time>2021-02-14T12:26:30Z</time>
      </trkpt>
      <trkpt lat="45.84608" lon="3.57706">
        <ele>713</ele>
        <time>2021-02-14T12:26:32Z</time>
      </trkpt>
      <trkpt lat="45.84607" lon="3.5771">
        <ele>713</ele>
        <time>2021-02-14T12:26:34Z</time>
      </trkpt>
      <trkpt lat="45.84605" lon="3.57713">
        <ele>713</ele>
        <time>2021-02-14T12:26:36Z</time>
      </trkpt>
      <trkpt lat="45.84604" lon="3.57716">
        <ele>714</ele>
        <time>2021-02-14T12:26:38Z</time>
      </trkpt>
      <trkpt lat="45.84602" lon="3.57719">
        <ele>714</ele>
        <time>2021-02-14T12:26:40Z</time>
      </trkpt>
      <trkpt lat="45.84601" lon="3.57722">
        <ele>714</ele>
        <time>2021-02-14T12:26:42Z</time>
      </trkpt>
      <trkpt lat="45.84599" lon="3.57724">
        <ele>714</ele>
        <time>2021-02-14T12:26:44Z</time>
      </trkpt>
      <trkpt lat="45.84598" lon="3.57727">
        <ele>714</ele>
        <time>2021-02-14T12:26:46Z</time>
      </trkpt>
      <trkpt lat="45.84597" lon="3.57729">
        <ele>714</ele>
        <time>2021-02-14T12:26:48Z</time>
      </trkpt>
      <trkpt lat="45.84595" lon="3.57732">
        <ele>715</ele>
        <time>2021-02-14T12:26:50Z</time>
      </trkpt>
      <trkpt lat="45.84594" lon="3.57734">
        <ele>715</ele>
        <time>2021-02-14T12:26:52Z</time>
      </trkpt>
      <trkpt lat="45.84593" lon="3.57736">
        <ele>715</ele>
        <time>2021-02-14T12:26:54Z</time>
      </trkpt>
      <trkpt lat="45.84591" lon="3.57739">
        <ele>715</ele>
        <time>2021-02-14T12:26:56Z</time>
      </trkpt>
      <trkpt lat="45.84588" lon="3.57742">
        <ele>715</ele>
        <time>2021-02-14T12:26:58Z</time>
      </trkpt>
      <trkpt lat="45.84586" lon="3.57744">
        <ele>715</ele>
        <time>2021-02-14T12:27:00Z</time>
      </trkpt>
      <trkpt lat="45.84584" lon="3.57746">
        <ele>715</ele>
        <time>2021-02-14T12:27:02Z</time>
      </trkpt>
      <trkpt lat="45.84581" lon="3.57749">
        <ele>715</ele>
        <time>2021-02-14T12:27:04Z</time>
      </trkpt>
      <trkpt lat="45.8458" lon="3.57751">
        <ele>716</ele>
        <time>2021-02-14T12:27:06Z</time>
      </trkpt>
      <trkpt lat="45.84577" lon="3.57753">
        <ele>716</ele>
        <time>2021-02-14T12:27:08Z</time>
      </trkpt>
      <trkpt lat="45.84575" lon="3.57756">
        <ele>716</ele>
        <time>2021-02-14T12:27:10Z</time>
      </trkpt>
      <trkpt lat="45.84573" lon="3.57758">
        <ele>716</ele>
        <time>2021-02-14T12:27:12Z</time>
      </trkpt>
      <trkpt lat="45.84571" lon="3.5776">
        <ele>716</ele>
        <time>2021-02-14T12:27:14Z</time>
      </trkpt>
      <trkpt lat="45.84568" lon="3.57763">
        <ele>716</ele>
        <time>2021-02-14T12:27:16Z</time>
      </trkpt>
      <trkpt lat="45.84566" lon="3.57765">
        <ele>716</ele>
        <time>2021-02-14T12:27:18Z</time>
      </trkpt>
      <trkpt lat="45.84563" lon="3.57767">
        <ele>717</ele>
        <time>2021-02-14T12:27:20Z</time>
      </trkpt>
      <trkpt lat="45.84561" lon="3.57768">
        <ele>717</ele>
        <time>2021-02-14T12:27:23Z</time>
      </trkpt>
      <trkpt lat="45.84559" lon="3.5777">
        <ele>717</ele>
        <time>2021-02-14T12:27:25Z</time>
      </trkpt>
      <trkpt lat="45.84556" lon="3.57772">
        <ele>717</ele>
        <time>2021-02-14T12:27:27Z</time>
      </trkpt>
      <trkpt lat="45.84554" lon="3.57774">
        <ele>717</ele>
        <time>2021-02-14T12:27:29Z</time>
      </trkpt>
      <trkpt lat="45.84552" lon="3.57775">
        <ele>718</ele>
        <time>2021-02-14T12:27:31Z</time>
      </trkpt>
      <trkpt lat="45.8455" lon="3.57777">
        <ele>718</ele>
        <time>2021-02-14T12:27:33Z</time>
      </trkpt>
      <trkpt lat="45.84548" lon="3.57779">
        <ele>718</ele>
        <time>2021-02-14T12:27:35Z</time>
      </trkpt>
      <trkpt lat="45.84547" lon="3.5778">
        <ele>719</ele>
        <time>2021-02-14T12:27:37Z</time>
      </trkpt>
      <trkpt lat="45.84545" lon="3.57782">
        <ele>719</ele>
        <time>2021-02-14T12:27:40Z</time>
      </trkpt>
      <trkpt lat="45.84543" lon="3.57783">
        <ele>719</ele>
        <time>2021-02-14T12:27:42Z</time>
      </trkpt>
      <trkpt lat="45.8454" lon="3.57785">
        <ele>720</ele>
        <time>2021-02-14T12:27:44Z</time>
      </trkpt>
      <trkpt lat="45.84538" lon="3.57787">
        <ele>720</ele>
        <time>2021-02-14T12:27:46Z</time>
      </trkpt>
      <trkpt lat="45.84535" lon="3.57789">
        <ele>720</ele>
        <time>2021-02-14T12:27:48Z</time>
      </trkpt>
      <trkpt lat="45.84533" lon="3.57791">
        <ele>721</ele>
        <time>2021-02-14T12:27:50Z</time>
      </trkpt>
      <trkpt lat="45.84531" lon="3.57792">
        <ele>721</ele>
        <time>2021-02-14T12:27:52Z</time>
      </trkpt>
      <trkpt lat="45.84528" lon="3.57794">
        <ele>722</ele>
        <time>2021-02-14T12:27:54Z</time>
      </trkpt>
      <trkpt lat="45.84526" lon="3.57795">
        <ele>722</ele>
        <time>2021-02-14T12:27:56Z</time>
      </trkpt>
      <trkpt lat="45.84524" lon="3.57797">
        <ele>722</ele>
        <time>2021-02-14T12:27:58Z</time>
      </trkpt>
      <trkpt lat="45.84522" lon="3.57798">
        <ele>722</ele>
        <time>2021-02-14T12:28:00Z</time>
      </trkpt>
      <trkpt lat="45.8452" lon="3.57798">
        <ele>723</ele>
        <time>2021-02-14T12:28:02Z</time>
      </trkpt>
      <trkpt lat="45.84517" lon="3.57799">
        <ele>723</ele>
        <time>2021-02-14T12:28:04Z</time>
      </trkpt>
      <trkpt lat="45.84515" lon="3.578">
        <ele>723</ele>
        <time>2021-02-14T12:28:06Z</time>
      </trkpt>
      <trkpt lat="45.84512" lon="3.57801">
        <ele>724</ele>
        <time>2021-02-14T12:28:08Z</time>
      </trkpt>
      <trkpt lat="45.8451" lon="3.57803">
        <ele>724</ele>
        <time>2021-02-14T12:28:10Z</time>
      </trkpt>
      <trkpt lat="45.84508" lon="3.57804">
        <ele>724</ele>
        <time>2021-02-14T12:28:12Z</time>
      </trkpt>
      <trkpt lat="45.84507" lon="3.57806">
        <ele>725</ele>
        <time>2021-02-14T12:28:14Z</time>
      </trkpt>
      <trkpt lat="45.84505" lon="3.57807">
        <ele>725</ele>
        <time>2021-02-14T12:28:17Z</time>
      </trkpt>
      <trkpt lat="45.84503" lon="3.57808">
        <ele>725</ele>
        <time>2021-02-14T12:28:19Z</time>
      </trkpt>
      <trkpt lat="45.845" lon="3.57809">
        <ele>726</ele>
        <time>2021-02-14T12:28:22Z</time>
      </trkpt>
      <trkpt lat="45.84498" lon="3.5781">
        <ele>726</ele>
        <time>2021-02-14T12:28:24Z</time>
      </trkpt>
      <trkpt lat="45.84495" lon="3.57811">
        <ele>726</ele>
        <time>2021-02-14T12:28:26Z</time>
      </trkpt>
      <trkpt lat="45.84493" lon="3.57812">
        <ele>727</ele>
        <time>2021-02-14T12:28:27Z</time>
      </trkpt>
      <trkpt lat="45.8449" lon="3.57812">
        <ele>727</ele>
        <time>2021-02-14T12:28:29Z</time>
      </trkpt>
      <trkpt lat="45.84489" lon="3.57814">
        <ele>727</ele>
        <time>2021-02-14T12:28:31Z</time>
      </trkpt>
      <trkpt lat="45.84486" lon="3.57815">
        <ele>727</ele>
        <time>2021-02-14T12:28:33Z</time>
      </trkpt>
      <trkpt lat="45.84484" lon="3.57817">
        <ele>728</ele>
        <time>2021-02-14T12:28:35Z</time>
      </trkpt>
      <trkpt lat="45.84482" lon="3.57817">
        <ele>728</ele>
        <time>2021-02-14T12:28:37Z</time>
      </trkpt>
      <trkpt lat="45.84479" lon="3.57819">
        <ele>728</ele>
        <time>2021-02-14T12:28:40Z</time>
      </trkpt>
      <trkpt lat="45.84477" lon="3.57821">
        <ele>729</ele>
        <time>2021-02-14T12:28:42Z</time>
      </trkpt>
      <trkpt lat="45.84475" lon="3.57823">
        <ele>729</ele>
        <time>2021-02-14T12:28:44Z</time>
      </trkpt>
      <trkpt lat="45.84474" lon="3.57824">
        <ele>729</ele>
        <time>2021-02-14T12:28:47Z</time>
      </trkpt>
      <trkpt lat="45.84472" lon="3.57825">
        <ele>729</ele>
        <time>2021-02-14T12:28:49Z</time>
      </trkpt>
      <trkpt lat="45.8447" lon="3.57826">
        <ele>729</ele>
        <time>2021-02-14T12:28:51Z</time>
      </trkpt>
      <trkpt lat="45.84468" lon="3.57828">
        <ele>730</ele>
        <time>2021-02-14T12:28:54Z</time>
      </trkpt>
      <trkpt lat="45.84466" lon="3.57829">
        <ele>730</ele>
        <time>2021-02-14T12:28:56Z</time>
      </trkpt>
      <trkpt lat="45.84463" lon="3.57829">
        <ele>730</ele>
        <time>2021-02-14T12:28:59Z</time>
      </trkpt>
      <trkpt lat="45.84461" lon="3.5783">
        <ele>730</ele>
        <time>2021-02-14T12:29:01Z</time>
      </trkpt>
      <trkpt lat="45.84457" lon="3.57831">
        <ele>731</ele>
        <time>2021-02-14T12:29:03Z</time>
      </trkpt>
      <trkpt lat="45.84455" lon="3.57832">
        <ele>731</ele>
        <time>2021-02-14T12:29:05Z</time>
      </trkpt>
      <trkpt lat="45.84453" lon="3.57834">
        <ele>732</ele>
        <time>2021-02-14T12:29:07Z</time>
      </trkpt>
      <trkpt lat="45.84451" lon="3.57836">
        <ele>732</ele>
        <time>2021-02-14T12:29:09Z</time>
      </trkpt>
      <trkpt lat="45.84449" lon="3.57838">
        <ele>732</ele>
        <time>2021-02-14T12:29:11Z</time>
      </trkpt>
      <trkpt lat="45.84446" lon="3.57839">
        <ele>733</ele>
        <time>2021-02-14T12:29:13Z</time>
      </trkpt>
      <trkpt lat="45.84444" lon="3.5784">
        <ele>733</ele>
        <time>2021-02-14T12:29:15Z</time>
      </trkpt>
      <trkpt lat="45.84441" lon="3.57842">
        <ele>734</ele>
        <time>2021-02-14T12:29:17Z</time>
      </trkpt>
      <trkpt lat="45.84439" lon="3.57843">
        <ele>734</ele>
        <time>2021-02-14T12:29:19Z</time>
      </trkpt>
      <trkpt lat="45.84436" lon="3.57844">
        <ele>734</ele>
        <time>2021-02-14T12:29:21Z</time>
      </trkpt>
      <trkpt lat="45.84433" lon="3.57846">
        <ele>735</ele>
        <time>2021-02-14T12:29:23Z</time>
      </trkpt>
      <trkpt lat="45.84431" lon="3.57847">
        <ele>735</ele>
        <time>2021-02-14T12:29:25Z</time>
      </trkpt>
      <trkpt lat="45.84429" lon="3.57848">
        <ele>735</ele>
        <time>2021-02-14T12:29:28Z</time>
      </trkpt>
      <trkpt lat="45.84426" lon="3.5785">
        <ele>736</ele>
        <time>2021-02-14T12:29:31Z</time>
      </trkpt>
      <trkpt lat="45.84424" lon="3.57852">
        <ele>736</ele>
        <time>2021-02-14T12:29:34Z</time>
      </trkpt>
      <trkpt lat="45.84422" lon="3.57854">
        <ele>737</ele>
        <time>2021-02-14T12:29:36Z</time>
      </trkpt>
      <trkpt lat="45.84419" lon="3.57856">
        <ele>737</ele>
        <time>2021-02-14T12:29:38Z</time>
      </trkpt>
      <trkpt lat="45.84417" lon="3.57857">
        <ele>738</ele>
        <time>2021-02-14T12:29:39Z</time>
      </trkpt>
      <trkpt lat="45.84415" lon="3.57859">
        <ele>738</ele>
        <time>2021-02-14T12:29:41Z</time>
      </trkpt>
      <trkpt lat="45.84414" lon="3.57862">
        <ele>738</ele>
        <time>2021-02-14T12:29:43Z</time>
      </trkpt>
      <trkpt lat="45.84412" lon="3.57865">
        <ele>739</ele>
        <time>2021-02-14T12:29:45Z</time>
      </trkpt>
      <trkpt lat="45.8441" lon="3.57868">
        <ele>739</ele>
        <time>2021-02-14T12:29:47Z</time>
      </trkpt>
      <trkpt lat="45.84407" lon="3.57871">
        <ele>740</ele>
        <time>2021-02-14T12:29:49Z</time>
      </trkpt>
      <trkpt lat="45.84406" lon="3.57873">
        <ele>740</ele>
        <time>2021-02-14T12:29:50Z</time>
      </trkpt>
      <trkpt lat="45.84404" lon="3.57876">
        <ele>741</ele>
        <time>2021-02-14T12:29:52Z</time>
      </trkpt>
      <trkpt lat="45.84403" lon="3.57879">
        <ele>741</ele>
        <time>2021-02-14T12:29:54Z</time>
      </trkpt>
      <trkpt lat="45.84401" lon="3.57881">
        <ele>742</ele>
        <time>2021-02-14T12:29:56Z</time>
      </trkpt>
      <trkpt lat="45.844" lon="3.57884">
        <ele>742</ele>
        <time>2021-02-14T12:29:58Z</time>
      </trkpt>
      <trkpt lat="45.84398" lon="3.57887">
        <ele>743</ele>
        <time>2021-02-14T12:30:00Z</time>
      </trkpt>
      <trkpt lat="45.84396" lon="3.5789">
        <ele>743</ele>
        <time>2021-02-14T12:30:02Z</time>
      </trkpt>
      <trkpt lat="45.84394" lon="3.57894">
        <ele>744</ele>
        <time>2021-02-14T12:30:04Z</time>
      </trkpt>
      <trkpt lat="45.84392" lon="3.57896">
        <ele>744</ele>
        <time>2021-02-14T12:30:06Z</time>
      </trkpt>
      <trkpt lat="45.8439" lon="3.579">
        <ele>745</ele>
        <time>2021-02-14T12:30:08Z</time>
      </trkpt>
      <trkpt lat="45.84388" lon="3.57903">
        <ele>745</ele>
        <time>2021-02-14T12:30:10Z</time>
      </trkpt>
      <trkpt lat="45.84386" lon="3.57906">
        <ele>745</ele>
        <time>2021-02-14T12:30:12Z</time>
      </trkpt>
      <trkpt lat="45.84384" lon="3.57909">
        <ele>745</ele>
        <time>2021-02-14T12:30:14Z</time>
      </trkpt>
      <trkpt lat="45.84383" lon="3.57911">
        <ele>745</ele>
        <time>2021-02-14T12:30:15Z</time>
      </trkpt>
      <trkpt lat="45.84382" lon="3.57914">
        <ele>746</ele>
        <time>2021-02-14T12:30:16Z</time>
      </trkpt>
      <trkpt lat="45.8438" lon="3.57916">
        <ele>746</ele>
        <time>2021-02-14T12:30:17Z</time>
      </trkpt>
      <trkpt lat="45.84379" lon="3.57918">
        <ele>746</ele>
        <time>2021-02-14T12:30:18Z</time>
      </trkpt>
      <trkpt lat="45.84378" lon="3.57922">
        <ele>746</ele>
        <time>2021-02-14T12:30:20Z</time>
      </trkpt>
      <trkpt lat="45.84376" lon="3.57925">
        <ele>746</ele>
        <time>2021-02-14T12:30:22Z</time>
      </trkpt>
      <trkpt lat="45.84373" lon="3.57929">
        <ele>746</ele>
        <time>2021-02-14T12:30:24Z</time>
      </trkpt>
      <trkpt lat="45.84372" lon="3.57931">
        <ele>746</ele>
        <time>2021-02-14T12:30:25Z</time>
      </trkpt>
      <trkpt lat="45.8437" lon="3.57934">
        <ele>747</ele>
        <time>2021-02-14T12:30:27Z</time>
      </trkpt>
      <trkpt lat="45.84369" lon="3.57936">
        <ele>747</ele>
        <time>2021-02-14T12:30:29Z</time>
      </trkpt>
      <trkpt lat="45.84367" lon="3.57938">
        <ele>747</ele>
        <time>2021-02-14T12:30:31Z</time>
      </trkpt>
      <trkpt lat="45.84366" lon="3.5794">
        <ele>747</ele>
        <time>2021-02-14T12:30:32Z</time>
      </trkpt>
      <trkpt lat="45.84363" lon="3.57943">
        <ele>747</ele>
        <time>2021-02-14T12:30:34Z</time>
      </trkpt>
      <trkpt lat="45.84362" lon="3.57946">
        <ele>747</ele>
        <time>2021-02-14T12:30:36Z</time>
      </trkpt>
      <trkpt lat="45.84361" lon="3.57949">
        <ele>747</ele>
        <time>2021-02-14T12:30:38Z</time>
      </trkpt>
      <trkpt lat="45.84359" lon="3.57952">
        <ele>747</ele>
        <time>2021-02-14T12:30:40Z</time>
      </trkpt>
      <trkpt lat="45.84357" lon="3.57954">
        <ele>747</ele>
        <time>2021-02-14T12:30:42Z</time>
      </trkpt>
      <trkpt lat="45.84355" lon="3.57956">
        <ele>747</ele>
        <time>2021-02-14T12:30:45Z</time>
      </trkpt>
      <trkpt lat="45.84354" lon="3.57957">
        <ele>747</ele>
        <time>2021-02-14T12:30:47Z</time>
      </trkpt>
      <trkpt lat="45.84352" lon="3.57959">
        <ele>747</ele>
        <time>2021-02-14T12:30:49Z</time>
      </trkpt>
      <trkpt lat="45.8435" lon="3.57962">
        <ele>747</ele>
        <time>2021-02-14T12:30:51Z</time>
      </trkpt>
      <trkpt lat="45.84348" lon="3.57964">
        <ele>747</ele>
        <time>2021-02-14T12:30:53Z</time>
      </trkpt>
      <trkpt lat="45.84346" lon="3.57967">
        <ele>748</ele>
        <time>2021-02-14T12:30:55Z</time>
      </trkpt>
      <trkpt lat="45.84345" lon="3.5797">
        <ele>748</ele>
        <time>2021-02-14T12:30:57Z</time>
      </trkpt>
      <trkpt lat="45.84343" lon="3.57973">
        <ele>748</ele>
        <time>2021-02-14T12:30:59Z</time>
      </trkpt>
      <trkpt lat="45.84342" lon="3.57976">
        <ele>749</ele>
        <time>2021-02-14T12:31:01Z</time>
      </trkpt>
      <trkpt lat="45.8434" lon="3.57979">
        <ele>749</ele>
        <time>2021-02-14T12:31:03Z</time>
      </trkpt>
      <trkpt lat="45.84338" lon="3.57982">
        <ele>749</ele>
        <time>2021-02-14T12:31:05Z</time>
      </trkpt>
      <trkpt lat="45.84336" lon="3.57985">
        <ele>750</ele>
        <time>2021-02-14T12:31:07Z</time>
      </trkpt>
      <trkpt lat="45.84334" lon="3.57989">
        <ele>750</ele>
        <time>2021-02-14T12:31:09Z</time>
      </trkpt>
      <trkpt lat="45.84332" lon="3.57992">
        <ele>751</ele>
        <time>2021-02-14T12:31:12Z</time>
      </trkpt>
      <trkpt lat="45.8433" lon="3.57995">
        <ele>751</ele>
        <time>2021-02-14T12:31:14Z</time>
      </trkpt>
      <trkpt lat="45.84329" lon="3.57998">
        <ele>751</ele>
        <time>2021-02-14T12:31:16Z</time>
      </trkpt>
      <trkpt lat="45.84328" lon="3.58001">
        <ele>752</ele>
        <time>2021-02-14T12:31:19Z</time>
      </trkpt>
      <trkpt lat="45.84325" lon="3.58003">
        <ele>752</ele>
        <time>2021-02-14T12:31:22Z</time>
      </trkpt>
      <trkpt lat="45.84324" lon="3.58005">
        <ele>752</ele>
        <time>2021-02-14T12:31:24Z</time>
      </trkpt>
      <trkpt lat="45.84322" lon="3.58008">
        <ele>752</ele>
        <time>2021-02-14T12:31:26Z</time>
      </trkpt>
      <trkpt lat="45.8432" lon="3.58011">
        <ele>752</ele>
        <time>2021-02-14T12:31:28Z</time>
      </trkpt>
      <trkpt lat="45.84318" lon="3.58013">
        <ele>752</ele>
        <time>2021-02-14T12:31:30Z</time>
      </trkpt>
      <trkpt lat="45.84316" lon="3.58016">
        <ele>752</ele>
        <time>2021-02-14T12:31:32Z</time>
      </trkpt>
      <trkpt lat="45.84314" lon="3.58019">
        <ele>752</ele>
        <time>2021-02-14T12:31:34Z</time>
      </trkpt>
      <trkpt lat="45.84313" lon="3.58021">
        <ele>752</ele>
        <time>2021-02-14T12:31:36Z</time>
      </trkpt>
      <trkpt lat="45.84311" lon="3.58023">
        <ele>752</ele>
        <time>2021-02-14T12:31:38Z</time>
      </trkpt>
      <trkpt lat="45.84309" lon="3.58025">
        <ele>752</ele>
        <time>2021-02-14T12:31:40Z</time>
      </trkpt>
      <trkpt lat="45.84307" lon="3.58027">
        <ele>752</ele>
        <time>2021-02-14T12:31:42Z</time>
      </trkpt>
      <trkpt lat="45.84306" lon="3.58029">
        <ele>752</ele>
        <time>2021-02-14T12:31:44Z</time>
      </trkpt>
      <trkpt lat="45.84305" lon="3.58031">
        <ele>751</ele>
        <time>2021-02-14T12:31:46Z</time>
      </trkpt>
      <trkpt lat="45.84304" lon="3.58035">
        <ele>752</ele>
        <time>2021-02-14T12:31:49Z</time>
      </trkpt>
      <trkpt lat="45.84303" lon="3.58038">
        <ele>752</ele>
        <time>2021-02-14T12:31:52Z</time>
      </trkpt>
      <trkpt lat="45.84302" lon="3.58041">
        <ele>751</ele>
        <time>2021-02-14T12:31:54Z</time>
      </trkpt>
      <trkpt lat="45.84302" lon="3.58045">
        <ele>752</ele>
        <time>2021-02-14T12:31:57Z</time>
      </trkpt>
      <trkpt lat="45.84301" lon="3.58048">
        <ele>752</ele>
        <time>2021-02-14T12:31:59Z</time>
      </trkpt>
      <trkpt lat="45.843" lon="3.58051">
        <ele>752</ele>
        <time>2021-02-14T12:32:01Z</time>
      </trkpt>
      <trkpt lat="45.843" lon="3.58053">
        <ele>752</ele>
        <time>2021-02-14T12:32:03Z</time>
      </trkpt>
      <trkpt lat="45.84299" lon="3.58056">
        <ele>752</ele>
        <time>2021-02-14T12:32:05Z</time>
      </trkpt>
      <trkpt lat="45.84298" lon="3.58059">
        <ele>751</ele>
        <time>2021-02-14T12:32:07Z</time>
      </trkpt>
      <trkpt lat="45.84296" lon="3.58061">
        <ele>751</ele>
        <time>2021-02-14T12:32:09Z</time>
      </trkpt>
      <trkpt lat="45.84295" lon="3.58064">
        <ele>751</ele>
        <time>2021-02-14T12:32:11Z</time>
      </trkpt>
      <trkpt lat="45.84294" lon="3.58067">
        <ele>751</ele>
        <time>2021-02-14T12:32:13Z</time>
      </trkpt>
      <trkpt lat="45.84291" lon="3.5807">
        <ele>752</ele>
        <time>2021-02-14T12:32:15Z</time>
      </trkpt>
      <trkpt lat="45.84288" lon="3.58073">
        <ele>752</ele>
        <time>2021-02-14T12:32:17Z</time>
      </trkpt>
      <trkpt lat="45.84286" lon="3.58075">
        <ele>752</ele>
        <time>2021-02-14T12:32:18Z</time>
      </trkpt>
      <trkpt lat="45.84285" lon="3.58077">
        <ele>752</ele>
        <time>2021-02-14T12:32:19Z</time>
      </trkpt>
      <trkpt lat="45.84282" lon="3.5808">
        <ele>752</ele>
        <time>2021-02-14T12:32:21Z</time>
      </trkpt>
      <trkpt lat="45.84281" lon="3.58083">
        <ele>752</ele>
        <time>2021-02-14T12:32:22Z</time>
      </trkpt>
      <trkpt lat="45.84279" lon="3.58086">
        <ele>753</ele>
        <time>2021-02-14T12:32:24Z</time>
      </trkpt>
      <trkpt lat="45.84277" lon="3.58088">
        <ele>753</ele>
        <time>2021-02-14T12:32:26Z</time>
      </trkpt>
      <trkpt lat="45.84276" lon="3.58092">
        <ele>753</ele>
        <time>2021-02-14T12:32:29Z</time>
      </trkpt>
      <trkpt lat="45.84275" lon="3.58094">
        <ele>753</ele>
        <time>2021-02-14T12:32:31Z</time>
      </trkpt>
      <trkpt lat="45.84274" lon="3.58097">
        <ele>754</ele>
        <time>2021-02-14T12:32:33Z</time>
      </trkpt>
      <trkpt lat="45.84268" lon="3.58107">
        <ele>754</ele>
        <time>2021-02-14T12:32:39Z</time>
      </trkpt>
      <trkpt lat="45.84264" lon="3.58111">
        <ele>755</ele>
        <time>2021-02-14T12:32:45Z</time>
      </trkpt>
      <trkpt lat="45.84263" lon="3.58114">
        <ele>755</ele>
        <time>2021-02-14T12:32:48Z</time>
      </trkpt>
      <trkpt lat="45.84262" lon="3.58116">
        <ele>756</ele>
        <time>2021-02-14T12:32:51Z</time>
      </trkpt>
      <trkpt lat="45.84261" lon="3.58119">
        <ele>756</ele>
        <time>2021-02-14T12:32:53Z</time>
      </trkpt>
      <trkpt lat="45.84259" lon="3.58122">
        <ele>756</ele>
        <time>2021-02-14T12:32:55Z</time>
      </trkpt>
      <trkpt lat="45.84258" lon="3.58125">
        <ele>757</ele>
        <time>2021-02-14T12:32:58Z</time>
      </trkpt>
      <trkpt lat="45.84256" lon="3.58127">
        <ele>757</ele>
        <time>2021-02-14T12:33:00Z</time>
      </trkpt>
      <trkpt lat="45.84254" lon="3.58129">
        <ele>757</ele>
        <time>2021-02-14T12:33:02Z</time>
      </trkpt>
      <trkpt lat="45.84253" lon="3.58131">
        <ele>757</ele>
        <time>2021-02-14T12:33:04Z</time>
      </trkpt>
      <trkpt lat="45.84251" lon="3.58133">
        <ele>758</ele>
        <time>2021-02-14T12:33:07Z</time>
      </trkpt>
      <trkpt lat="45.8425" lon="3.58135">
        <ele>758</ele>
        <time>2021-02-14T12:33:09Z</time>
      </trkpt>
      <trkpt lat="45.84249" lon="3.58137">
        <ele>758</ele>
        <time>2021-02-14T12:33:12Z</time>
      </trkpt>
      <trkpt lat="45.84247" lon="3.58139">
        <ele>758</ele>
        <time>2021-02-14T12:33:13Z</time>
      </trkpt>
      <trkpt lat="45.84245" lon="3.5814">
        <ele>758</ele>
        <time>2021-02-14T12:33:14Z</time>
      </trkpt>
      <trkpt lat="45.84243" lon="3.58141">
        <ele>758</ele>
        <time>2021-02-14T12:33:15Z</time>
      </trkpt>
      <trkpt lat="45.84235" lon="3.58151">
        <ele>758</ele>
        <time>2021-02-14T12:33:22Z</time>
      </trkpt>
      <trkpt lat="45.84228" lon="3.5816">
        <ele>758</ele>
        <time>2021-02-14T12:33:29Z</time>
      </trkpt>
      <trkpt lat="45.84223" lon="3.58167">
        <ele>758</ele>
        <time>2021-02-14T12:33:35Z</time>
      </trkpt>
      <trkpt lat="45.84221" lon="3.58168">
        <ele>757</ele>
        <time>2021-02-14T12:33:37Z</time>
      </trkpt>
      <trkpt lat="45.84218" lon="3.58171">
        <ele>757</ele>
        <time>2021-02-14T12:33:39Z</time>
      </trkpt>
      <trkpt lat="45.84216" lon="3.58172">
        <ele>757</ele>
        <time>2021-02-14T12:33:40Z</time>
      </trkpt>
      <trkpt lat="45.84215" lon="3.58173">
        <ele>757</ele>
        <time>2021-02-14T12:33:41Z</time>
      </trkpt>
      <trkpt lat="45.84212" lon="3.58175">
        <ele>757</ele>
        <time>2021-02-14T12:33:42Z</time>
      </trkpt>
      <trkpt lat="45.84211" lon="3.58176">
        <ele>756</ele>
        <time>2021-02-14T12:33:43Z</time>
      </trkpt>
      <trkpt lat="45.84208" lon="3.58179">
        <ele>756</ele>
        <time>2021-02-14T12:33:45Z</time>
      </trkpt>
      <trkpt lat="45.84205" lon="3.5818">
        <ele>756</ele>
        <time>2021-02-14T12:33:47Z</time>
      </trkpt>
      <trkpt lat="45.84202" lon="3.58183">
        <ele>755</ele>
        <time>2021-02-14T12:33:49Z</time>
      </trkpt>
      <trkpt lat="45.842" lon="3.58186">
        <ele>755</ele>
        <time>2021-02-14T12:33:51Z</time>
      </trkpt>
      <trkpt lat="45.84198" lon="3.58189">
        <ele>754</ele>
        <time>2021-02-14T12:33:53Z</time>
      </trkpt>
      <trkpt lat="45.84196" lon="3.58191">
        <ele>754</ele>
        <time>2021-02-14T12:33:55Z</time>
      </trkpt>
      <trkpt lat="45.84194" lon="3.58193">
        <ele>754</ele>
        <time>2021-02-14T12:33:57Z</time>
      </trkpt>
      <trkpt lat="45.8419" lon="3.58197">
        <ele>753</ele>
        <time>2021-02-14T12:33:59Z</time>
      </trkpt>
      <trkpt lat="45.84188" lon="3.58199">
        <ele>753</ele>
        <time>2021-02-14T12:34:00Z</time>
      </trkpt>
      <trkpt lat="45.84187" lon="3.58201">
        <ele>753</ele>
        <time>2021-02-14T12:34:01Z</time>
      </trkpt>
      <trkpt lat="45.84184" lon="3.58205">
        <ele>753</ele>
        <time>2021-02-14T12:34:03Z</time>
      </trkpt>
      <trkpt lat="45.84183" lon="3.58207">
        <ele>752</ele>
        <time>2021-02-14T12:34:04Z</time>
      </trkpt>
      <trkpt lat="45.84181" lon="3.58209">
        <ele>752</ele>
        <time>2021-02-14T12:34:05Z</time>
      </trkpt>
      <trkpt lat="45.84178" lon="3.58211">
        <ele>752</ele>
        <time>2021-02-14T12:34:07Z</time>
      </trkpt>
      <trkpt lat="45.84176" lon="3.58212">
        <ele>752</ele>
        <time>2021-02-14T12:34:08Z</time>
      </trkpt>
      <trkpt lat="45.84174" lon="3.58213">
        <ele>752</ele>
        <time>2021-02-14T12:34:09Z</time>
      </trkpt>
      <trkpt lat="45.84172" lon="3.58216">
        <ele>751</ele>
        <time>2021-02-14T12:34:11Z</time>
      </trkpt>
      <trkpt lat="45.84169" lon="3.58218">
        <ele>751</ele>
        <time>2021-02-14T12:34:13Z</time>
      </trkpt>
      <trkpt lat="45.84166" lon="3.5822">
        <ele>751</ele>
        <time>2021-02-14T12:34:15Z</time>
      </trkpt>
      <trkpt lat="45.84163" lon="3.58222">
        <ele>751</ele>
        <time>2021-02-14T12:34:17Z</time>
      </trkpt>
      <trkpt lat="45.8416" lon="3.58224">
        <ele>751</ele>
        <time>2021-02-14T12:34:19Z</time>
      </trkpt>
      <trkpt lat="45.84159" lon="3.58226">
        <ele>750</ele>
        <time>2021-02-14T12:34:20Z</time>
      </trkpt>
      <trkpt lat="45.84156" lon="3.58229">
        <ele>750</ele>
        <time>2021-02-14T12:34:22Z</time>
      </trkpt>
      <trkpt lat="45.84154" lon="3.58232">
        <ele>750</ele>
        <time>2021-02-14T12:34:24Z</time>
      </trkpt>
      <trkpt lat="45.84152" lon="3.58235">
        <ele>749</ele>
        <time>2021-02-14T12:34:26Z</time>
      </trkpt>
      <trkpt lat="45.8415" lon="3.58238">
        <ele>749</ele>
        <time>2021-02-14T12:34:28Z</time>
      </trkpt>
      <trkpt lat="45.84148" lon="3.58242">
        <ele>749</ele>
        <time>2021-02-14T12:34:30Z</time>
      </trkpt>
      <trkpt lat="45.84146" lon="3.58245">
        <ele>749</ele>
        <time>2021-02-14T12:34:32Z</time>
      </trkpt>
      <trkpt lat="45.84143" lon="3.58248">
        <ele>748</ele>
        <time>2021-02-14T12:34:34Z</time>
      </trkpt>
      <trkpt lat="45.84141" lon="3.5825">
        <ele>748</ele>
        <time>2021-02-14T12:34:36Z</time>
      </trkpt>
      <trkpt lat="45.84139" lon="3.58253">
        <ele>748</ele>
        <time>2021-02-14T12:34:38Z</time>
      </trkpt>
      <trkpt lat="45.84137" lon="3.58254">
        <ele>748</ele>
        <time>2021-02-14T12:34:40Z</time>
      </trkpt>
      <trkpt lat="45.84135" lon="3.58256">
        <ele>748</ele>
        <time>2021-02-14T12:34:42Z</time>
      </trkpt>
      <trkpt lat="45.84132" lon="3.5826">
        <ele>748</ele>
        <time>2021-02-14T12:34:44Z</time>
      </trkpt>
      <trkpt lat="45.8413" lon="3.58262">
        <ele>748</ele>
        <time>2021-02-14T12:34:45Z</time>
      </trkpt>
      <trkpt lat="45.84129" lon="3.58264">
        <ele>747</ele>
        <time>2021-02-14T12:34:46Z</time>
      </trkpt>
      <trkpt lat="45.84127" lon="3.58267">
        <ele>747</ele>
        <time>2021-02-14T12:34:48Z</time>
      </trkpt>
      <trkpt lat="45.84124" lon="3.5827">
        <ele>747</ele>
        <time>2021-02-14T12:34:50Z</time>
      </trkpt>
      <trkpt lat="45.84122" lon="3.58273">
        <ele>747</ele>
        <time>2021-02-14T12:34:52Z</time>
      </trkpt>
      <trkpt lat="45.8412" lon="3.58277">
        <ele>747</ele>
        <time>2021-02-14T12:34:54Z</time>
      </trkpt>
      <trkpt lat="45.84118" lon="3.5828">
        <ele>747</ele>
        <time>2021-02-14T12:34:56Z</time>
      </trkpt>
      <trkpt lat="45.84116" lon="3.58282">
        <ele>747</ele>
        <time>2021-02-14T12:34:58Z</time>
      </trkpt>
      <trkpt lat="45.84114" lon="3.58285">
        <ele>747</ele>
        <time>2021-02-14T12:35:00Z</time>
      </trkpt>
      <trkpt lat="45.84113" lon="3.58288">
        <ele>747</ele>
        <time>2021-02-14T12:35:02Z</time>
      </trkpt>
      <trkpt lat="45.84111" lon="3.58291">
        <ele>747</ele>
        <time>2021-02-14T12:35:04Z</time>
      </trkpt>
      <trkpt lat="45.84109" lon="3.58294">
        <ele>747</ele>
        <time>2021-02-14T12:35:06Z</time>
      </trkpt>
      <trkpt lat="45.84107" lon="3.58297">
        <ele>747</ele>
        <time>2021-02-14T12:35:08Z</time>
      </trkpt>
      <trkpt lat="45.84106" lon="3.583">
        <ele>746</ele>
        <time>2021-02-14T12:35:10Z</time>
      </trkpt>
      <trkpt lat="45.84104" lon="3.58303">
        <ele>746</ele>
        <time>2021-02-14T12:35:12Z</time>
      </trkpt>
      <trkpt lat="45.84102" lon="3.58307">
        <ele>746</ele>
        <time>2021-02-14T12:35:14Z</time>
      </trkpt>
      <trkpt lat="45.84101" lon="3.5831">
        <ele>746</ele>
        <time>2021-02-14T12:35:16Z</time>
      </trkpt>
      <trkpt lat="45.841" lon="3.58314">
        <ele>746</ele>
        <time>2021-02-14T12:35:18Z</time>
      </trkpt>
      <trkpt lat="45.84098" lon="3.58317">
        <ele>745</ele>
        <time>2021-02-14T12:35:20Z</time>
      </trkpt>
      <trkpt lat="45.84097" lon="3.5832">
        <ele>745</ele>
        <time>2021-02-14T12:35:22Z</time>
      </trkpt>
      <trkpt lat="45.84096" lon="3.58324">
        <ele>745</ele>
        <time>2021-02-14T12:35:24Z</time>
      </trkpt>
      <trkpt lat="45.84095" lon="3.58328">
        <ele>745</ele>
        <time>2021-02-14T12:35:26Z</time>
      </trkpt>
      <trkpt lat="45.84094" lon="3.58332">
        <ele>745</ele>
        <time>2021-02-14T12:35:28Z</time>
      </trkpt>
      <trkpt lat="45.84093" lon="3.58335">
        <ele>744</ele>
        <time>2021-02-14T12:35:30Z</time>
      </trkpt>
      <trkpt lat="45.84092" lon="3.58339">
        <ele>744</ele>
        <time>2021-02-14T12:35:32Z</time>
      </trkpt>
      <trkpt lat="45.84092" lon="3.58343">
        <ele>743</ele>
        <time>2021-02-14T12:35:34Z</time>
      </trkpt>
      <trkpt lat="45.84091" lon="3.58347">
        <ele>743</ele>
        <time>2021-02-14T12:35:36Z</time>
      </trkpt>
      <trkpt lat="45.8409" lon="3.58351">
        <ele>742</ele>
        <time>2021-02-14T12:35:38Z</time>
      </trkpt>
      <trkpt lat="45.84089" lon="3.58355">
        <ele>742</ele>
        <time>2021-02-14T12:35:40Z</time>
      </trkpt>
      <trkpt lat="45.84088" lon="3.58359">
        <ele>741</ele>
        <time>2021-02-14T12:35:42Z</time>
      </trkpt>
      <trkpt lat="45.84087" lon="3.58362">
        <ele>740</ele>
        <time>2021-02-14T12:35:44Z</time>
      </trkpt>
      <trkpt lat="45.84086" lon="3.58365">
        <ele>740</ele>
        <time>2021-02-14T12:35:46Z</time>
      </trkpt>
      <trkpt lat="45.84085" lon="3.58368">
        <ele>740</ele>
        <time>2021-02-14T12:35:48Z</time>
      </trkpt>
      <trkpt lat="45.84085" lon="3.58371">
        <ele>739</ele>
        <time>2021-02-14T12:35:50Z</time>
      </trkpt>
      <trkpt lat="45.84084" lon="3.58375">
        <ele>739</ele>
        <time>2021-02-14T12:35:53Z</time>
      </trkpt>
      <trkpt lat="45.84082" lon="3.58379">
        <ele>738</ele>
        <time>2021-02-14T12:35:55Z</time>
      </trkpt>
      <trkpt lat="45.84081" lon="3.58383">
        <ele>737</ele>
        <time>2021-02-14T12:35:57Z</time>
      </trkpt>
      <trkpt lat="45.8408" lon="3.58387">
        <ele>737</ele>
        <time>2021-02-14T12:35:59Z</time>
      </trkpt>
      <trkpt lat="45.84078" lon="3.58389">
        <ele>736</ele>
        <time>2021-02-14T12:36:01Z</time>
      </trkpt>
      <trkpt lat="45.84077" lon="3.58392">
        <ele>736</ele>
        <time>2021-02-14T12:36:03Z</time>
      </trkpt>
      <trkpt lat="45.84076" lon="3.58395">
        <ele>736</ele>
        <time>2021-02-14T12:36:05Z</time>
      </trkpt>
      <trkpt lat="45.84075" lon="3.58398">
        <ele>735</ele>
        <time>2021-02-14T12:36:07Z</time>
      </trkpt>
      <trkpt lat="45.84073" lon="3.58401">
        <ele>735</ele>
        <time>2021-02-14T12:36:09Z</time>
      </trkpt>
      <trkpt lat="45.84072" lon="3.58403">
        <ele>735</ele>
        <time>2021-02-14T12:36:11Z</time>
      </trkpt>
      <trkpt lat="45.84072" lon="3.58407">
        <ele>734</ele>
        <time>2021-02-14T12:36:13Z</time>
      </trkpt>
      <trkpt lat="45.84072" lon="3.58409">
        <ele>734</ele>
        <time>2021-02-14T12:36:15Z</time>
      </trkpt>
      <trkpt lat="45.8407" lon="3.58413">
        <ele>733</ele>
        <time>2021-02-14T12:36:17Z</time>
      </trkpt>
      <trkpt lat="45.84069" lon="3.58416">
        <ele>733</ele>
        <time>2021-02-14T12:36:19Z</time>
      </trkpt>
      <trkpt lat="45.84068" lon="3.58419">
        <ele>733</ele>
        <time>2021-02-14T12:36:21Z</time>
      </trkpt>
      <trkpt lat="45.84068" lon="3.58423">
        <ele>733</ele>
        <time>2021-02-14T12:36:23Z</time>
      </trkpt>
      <trkpt lat="45.84069" lon="3.58426">
        <ele>733</ele>
        <time>2021-02-14T12:36:25Z</time>
      </trkpt>
      <trkpt lat="45.84069" lon="3.58429">
        <ele>733</ele>
        <time>2021-02-14T12:36:27Z</time>
      </trkpt>
      <trkpt lat="45.84068" lon="3.58433">
        <ele>733</ele>
        <time>2021-02-14T12:36:29Z</time>
      </trkpt>
      <trkpt lat="45.84067" lon="3.58437">
        <ele>733</ele>
        <time>2021-02-14T12:36:31Z</time>
      </trkpt>
      <trkpt lat="45.84066" lon="3.58439">
        <ele>733</ele>
        <time>2021-02-14T12:36:32Z</time>
      </trkpt>
      <trkpt lat="45.84066" lon="3.58442">
        <ele>733</ele>
        <time>2021-02-14T12:36:33Z</time>
      </trkpt>
      <trkpt lat="45.84065" lon="3.58447">
        <ele>734</ele>
        <time>2021-02-14T12:36:35Z</time>
      </trkpt>
      <trkpt lat="45.84064" lon="3.58451">
        <ele>734</ele>
        <time>2021-02-14T12:36:37Z</time>
      </trkpt>
      <trkpt lat="45.84064" lon="3.58455">
        <ele>734</ele>
        <time>2021-02-14T12:36:39Z</time>
      </trkpt>
      <trkpt lat="45.84063" lon="3.58459">
        <ele>735</ele>
        <time>2021-02-14T12:36:41Z</time>
      </trkpt>
      <trkpt lat="45.84063" lon="3.58462">
        <ele>735</ele>
        <time>2021-02-14T12:36:43Z</time>
      </trkpt>
      <trkpt lat="45.84062" lon="3.58465">
        <ele>735</ele>
        <time>2021-02-14T12:36:45Z</time>
      </trkpt>
      <trkpt lat="45.84061" lon="3.58469">
        <ele>735</ele>
        <time>2021-02-14T12:36:47Z</time>
      </trkpt>
      <trkpt lat="45.8406" lon="3.58472">
        <ele>736</ele>
        <time>2021-02-14T12:36:49Z</time>
      </trkpt>
      <trkpt lat="45.84059" lon="3.58476">
        <ele>736</ele>
        <time>2021-02-14T12:36:51Z</time>
      </trkpt>
      <trkpt lat="45.84059" lon="3.5848">
        <ele>736</ele>
        <time>2021-02-14T12:36:53Z</time>
      </trkpt>
      <trkpt lat="45.84058" lon="3.58483">
        <ele>736</ele>
        <time>2021-02-14T12:36:55Z</time>
      </trkpt>
      <trkpt lat="45.84057" lon="3.58487">
        <ele>736</ele>
        <time>2021-02-14T12:36:57Z</time>
      </trkpt>
      <trkpt lat="45.84056" lon="3.58491">
        <ele>736</ele>
        <time>2021-02-14T12:36:59Z</time>
      </trkpt>
      <trkpt lat="45.84055" lon="3.58495">
        <ele>736</ele>
        <time>2021-02-14T12:37:01Z</time>
      </trkpt>
      <trkpt lat="45.84054" lon="3.58498">
        <ele>736</ele>
        <time>2021-02-14T12:37:03Z</time>
      </trkpt>
      <trkpt lat="45.84054" lon="3.58501">
        <ele>737</ele>
        <time>2021-02-14T12:37:05Z</time>
      </trkpt>
      <trkpt lat="45.84053" lon="3.58505">
        <ele>737</ele>
        <time>2021-02-14T12:37:07Z</time>
      </trkpt>
      <trkpt lat="45.84053" lon="3.58509">
        <ele>737</ele>
        <time>2021-02-14T12:37:09Z</time>
      </trkpt>
      <trkpt lat="45.84052" lon="3.58512">
        <ele>737</ele>
        <time>2021-02-14T12:37:11Z</time>
      </trkpt>
      <trkpt lat="45.84052" lon="3.58515">
        <ele>737</ele>
        <time>2021-02-14T12:37:13Z</time>
      </trkpt>
      <trkpt lat="45.84052" lon="3.58518">
        <ele>738</ele>
        <time>2021-02-14T12:37:16Z</time>
      </trkpt>
      <trkpt lat="45.84051" lon="3.5852">
        <ele>738</ele>
        <time>2021-02-14T12:37:37Z</time>
      </trkpt>
      <trkpt lat="45.84051" lon="3.58523">
        <ele>738</ele>
        <time>2021-02-14T12:37:45Z</time>
      </trkpt>
      <trkpt lat="45.84052" lon="3.58526">
        <ele>738</ele>
        <time>2021-02-14T12:37:48Z</time>
      </trkpt>
      <trkpt lat="45.8405" lon="3.58528">
        <ele>738</ele>
        <time>2021-02-14T12:37:50Z</time>
      </trkpt>
      <trkpt lat="45.84049" lon="3.58529">
        <ele>738</ele>
        <time>2021-02-14T12:37:51Z</time>
      </trkpt>
      <trkpt lat="45.84046" lon="3.5853">
        <ele>738</ele>
        <time>2021-02-14T12:37:53Z</time>
      </trkpt>
      <trkpt lat="45.84045" lon="3.58532">
        <ele>738</ele>
        <time>2021-02-14T12:37:54Z</time>
      </trkpt>
      <trkpt lat="45.84044" lon="3.58534">
        <ele>738</ele>
        <time>2021-02-14T12:37:56Z</time>
      </trkpt>
      <trkpt lat="45.84043" lon="3.58538">
        <ele>739</ele>
        <time>2021-02-14T12:37:58Z</time>
      </trkpt>
      <trkpt lat="45.84042" lon="3.58541">
        <ele>739</ele>
        <time>2021-02-14T12:38:01Z</time>
      </trkpt>
      <trkpt lat="45.84041" lon="3.58545">
        <ele>739</ele>
        <time>2021-02-14T12:38:04Z</time>
      </trkpt>
      <trkpt lat="45.84038" lon="3.58554">
        <ele>739</ele>
        <time>2021-02-14T12:38:09Z</time>
      </trkpt>
      <trkpt lat="45.84037" lon="3.58558">
        <ele>739</ele>
        <time>2021-02-14T12:38:11Z</time>
      </trkpt>
      <trkpt lat="45.84036" lon="3.5856">
        <ele>739</ele>
        <time>2021-02-14T12:38:12Z</time>
      </trkpt>
      <trkpt lat="45.84035" lon="3.58563">
        <ele>739</ele>
        <time>2021-02-14T12:38:14Z</time>
      </trkpt>
      <trkpt lat="45.84033" lon="3.58568">
        <ele>739</ele>
        <time>2021-02-14T12:38:16Z</time>
      </trkpt>
      <trkpt lat="45.84033" lon="3.58573">
        <ele>740</ele>
        <time>2021-02-14T12:38:18Z</time>
      </trkpt>
      <trkpt lat="45.84032" lon="3.58576">
        <ele>740</ele>
        <time>2021-02-14T12:38:21Z</time>
      </trkpt>
      <trkpt lat="45.84031" lon="3.58579">
        <ele>740</ele>
        <time>2021-02-14T12:38:22Z</time>
      </trkpt>
      <trkpt lat="45.84029" lon="3.58581">
        <ele>740</ele>
        <time>2021-02-14T12:38:23Z</time>
      </trkpt>
      <trkpt lat="45.84028" lon="3.58584">
        <ele>740</ele>
        <time>2021-02-14T12:38:24Z</time>
      </trkpt>
      <trkpt lat="45.84027" lon="3.58587">
        <ele>739</ele>
        <time>2021-02-14T12:38:25Z</time>
      </trkpt>
      <trkpt lat="45.84025" lon="3.5859">
        <ele>739</ele>
        <time>2021-02-14T12:38:26Z</time>
      </trkpt>
      <trkpt lat="45.84026" lon="3.58594">
        <ele>740</ele>
        <time>2021-02-14T12:38:31Z</time>
      </trkpt>
      <trkpt lat="45.84027" lon="3.58597">
        <ele>740</ele>
        <time>2021-02-14T12:38:33Z</time>
      </trkpt>
      <trkpt lat="45.84028" lon="3.58599">
        <ele>740</ele>
        <time>2021-02-14T12:38:35Z</time>
      </trkpt>
      <trkpt lat="45.84029" lon="3.58602">
        <ele>740</ele>
        <time>2021-02-14T12:38:37Z</time>
      </trkpt>
      <trkpt lat="45.84028" lon="3.58605">
        <ele>740</ele>
        <time>2021-02-14T12:38:39Z</time>
      </trkpt>
      <trkpt lat="45.84029" lon="3.58608">
        <ele>741</ele>
        <time>2021-02-14T12:38:41Z</time>
      </trkpt>
      <trkpt lat="45.84029" lon="3.58611">
        <ele>741</ele>
        <time>2021-02-14T12:38:43Z</time>
      </trkpt>
      <trkpt lat="45.84029" lon="3.58614">
        <ele>741</ele>
        <time>2021-02-14T12:38:44Z</time>
      </trkpt>
      <trkpt lat="45.84028" lon="3.58616">
        <ele>741</ele>
        <time>2021-02-14T12:38:45Z</time>
      </trkpt>
      <trkpt lat="45.84028" lon="3.58621">
        <ele>741</ele>
        <time>2021-02-14T12:38:47Z</time>
      </trkpt>
      <trkpt lat="45.84027" lon="3.58624">
        <ele>740</ele>
        <time>2021-02-14T12:38:48Z</time>
      </trkpt>
      <trkpt lat="45.84027" lon="3.58626">
        <ele>740</ele>
        <time>2021-02-14T12:38:49Z</time>
      </trkpt>
      <trkpt lat="45.84027" lon="3.58629">
        <ele>740</ele>
        <time>2021-02-14T12:38:50Z</time>
      </trkpt>
      <trkpt lat="45.84027" lon="3.58632">
        <ele>740</ele>
        <time>2021-02-14T12:38:51Z</time>
      </trkpt>
      <trkpt lat="45.84027" lon="3.58635">
        <ele>740</ele>
        <time>2021-02-14T12:38:52Z</time>
      </trkpt>
      <trkpt lat="45.84028" lon="3.58639">
        <ele>741</ele>
        <time>2021-02-14T12:38:54Z</time>
      </trkpt>
      <trkpt lat="45.84029" lon="3.58643">
        <ele>741</ele>
        <time>2021-02-14T12:38:56Z</time>
      </trkpt>
      <trkpt lat="45.84029" lon="3.58647">
        <ele>741</ele>
        <time>2021-02-14T12:38:58Z</time>
      </trkpt>
      <trkpt lat="45.8403" lon="3.58651">
        <ele>741</ele>
        <time>2021-02-14T12:39:00Z</time>
      </trkpt>
      <trkpt lat="45.84031" lon="3.58655">
        <ele>741</ele>
        <time>2021-02-14T12:39:02Z</time>
      </trkpt>
      <trkpt lat="45.84031" lon="3.58658">
        <ele>742</ele>
        <time>2021-02-14T12:39:04Z</time>
      </trkpt>
      <trkpt lat="45.84032" lon="3.58662">
        <ele>742</ele>
        <time>2021-02-14T12:39:06Z</time>
      </trkpt>
      <trkpt lat="45.84033" lon="3.58666">
        <ele>742</ele>
        <time>2021-02-14T12:39:08Z</time>
      </trkpt>
      <trkpt lat="45.84033" lon="3.5867">
        <ele>742</ele>
        <time>2021-02-14T12:39:10Z</time>
      </trkpt>
      <trkpt lat="45.84033" lon="3.58675">
        <ele>742</ele>
        <time>2021-02-14T12:39:12Z</time>
      </trkpt>
      <trkpt lat="45.84033" lon="3.58679">
        <ele>742</ele>
        <time>2021-02-14T12:39:14Z</time>
      </trkpt>
      <trkpt lat="45.84034" lon="3.58682">
        <ele>742</ele>
        <time>2021-02-14T12:39:16Z</time>
      </trkpt>
      <trkpt lat="45.84034" lon="3.58687">
        <ele>742</ele>
        <time>2021-02-14T12:39:18Z</time>
      </trkpt>
      <trkpt lat="45.84035" lon="3.5869">
        <ele>742</ele>
        <time>2021-02-14T12:39:20Z</time>
      </trkpt>
      <trkpt lat="45.84035" lon="3.58695">
        <ele>742</ele>
        <time>2021-02-14T12:39:22Z</time>
      </trkpt>
      <trkpt lat="45.84035" lon="3.58699">
        <ele>742</ele>
        <time>2021-02-14T12:39:24Z</time>
      </trkpt>
      <trkpt lat="45.84035" lon="3.58703">
        <ele>742</ele>
        <time>2021-02-14T12:39:26Z</time>
      </trkpt>
      <trkpt lat="45.84035" lon="3.58707">
        <ele>742</ele>
        <time>2021-02-14T12:39:28Z</time>
      </trkpt>
      <trkpt lat="45.84034" lon="3.58711">
        <ele>742</ele>
        <time>2021-02-14T12:39:30Z</time>
      </trkpt>
      <trkpt lat="45.84034" lon="3.58716">
        <ele>742</ele>
        <time>2021-02-14T12:39:32Z</time>
      </trkpt>
      <trkpt lat="45.84034" lon="3.5872">
        <ele>742</ele>
        <time>2021-02-14T12:39:34Z</time>
      </trkpt>
      <trkpt lat="45.84034" lon="3.58723">
        <ele>742</ele>
        <time>2021-02-14T12:39:35Z</time>
      </trkpt>
      <trkpt lat="45.84034" lon="3.58727">
        <ele>742</ele>
        <time>2021-02-14T12:39:37Z</time>
      </trkpt>
      <trkpt lat="45.84034" lon="3.58731">
        <ele>742</ele>
        <time>2021-02-14T12:39:39Z</time>
      </trkpt>
      <trkpt lat="45.84033" lon="3.58738">
        <ele>743</ele>
        <time>2021-02-14T12:39:42Z</time>
      </trkpt>
      <trkpt lat="45.84032" lon="3.58744">
        <ele>742</ele>
        <time>2021-02-14T12:39:44Z</time>
      </trkpt>
      <trkpt lat="45.84033" lon="3.58747">
        <ele>743</ele>
        <time>2021-02-14T12:39:45Z</time>
      </trkpt>
      <trkpt lat="45.84032" lon="3.58756">
        <ele>743</ele>
        <time>2021-02-14T12:39:48Z</time>
      </trkpt>
      <trkpt lat="45.84032" lon="3.58759">
        <ele>743</ele>
        <time>2021-02-14T12:39:49Z</time>
      </trkpt>
      <trkpt lat="45.84032" lon="3.58762">
        <ele>743</ele>
        <time>2021-02-14T12:39:50Z</time>
      </trkpt>
      <trkpt lat="45.84032" lon="3.58765">
        <ele>743</ele>
        <time>2021-02-14T12:39:51Z</time>
      </trkpt>
      <trkpt lat="45.84032" lon="3.58768">
        <ele>744</ele>
        <time>2021-02-14T12:39:53Z</time>
      </trkpt>
      <trkpt lat="45.84031" lon="3.58772">
        <ele>744</ele>
        <time>2021-02-14T12:39:55Z</time>
      </trkpt>
      <trkpt lat="45.84028" lon="3.58777">
        <ele>743</ele>
        <time>2021-02-14T12:39:58Z</time>
      </trkpt>
      <trkpt lat="45.84021" lon="3.58786">
        <ele>742</ele>
        <time>2021-02-14T12:40:05Z</time>
      </trkpt>
      <trkpt lat="45.84015" lon="3.58798">
        <ele>741</ele>
        <time>2021-02-14T12:40:11Z</time>
      </trkpt>
      <trkpt lat="45.84008" lon="3.58809">
        <ele>741</ele>
        <time>2021-02-14T12:40:18Z</time>
      </trkpt>
      <trkpt lat="45.84004" lon="3.58821">
        <ele>740</ele>
        <time>2021-02-14T12:40:25Z</time>
      </trkpt>
      <trkpt lat="45.83997" lon="3.58831">
        <ele>740</ele>
        <time>2021-02-14T12:40:33Z</time>
      </trkpt>
      <trkpt lat="45.83996" lon="3.58834">
        <ele>740</ele>
        <time>2021-02-14T12:40:35Z</time>
      </trkpt>
      <trkpt lat="45.83991" lon="3.58845">
        <ele>740</ele>
        <time>2021-02-14T12:40:42Z</time>
      </trkpt>
      <trkpt lat="45.83983" lon="3.58852">
        <ele>740</ele>
        <time>2021-02-14T12:40:49Z</time>
      </trkpt>
      <trkpt lat="45.83977" lon="3.58864">
        <ele>740</ele>
        <time>2021-02-14T12:40:58Z</time>
      </trkpt>
      <trkpt lat="45.83969" lon="3.58873">
        <ele>741</ele>
        <time>2021-02-14T12:41:03Z</time>
      </trkpt>
      <trkpt lat="45.83966" lon="3.58878">
        <ele>741</ele>
        <time>2021-02-14T12:41:06Z</time>
      </trkpt>
      <trkpt lat="45.8396" lon="3.58888">
        <ele>742</ele>
        <time>2021-02-14T12:41:13Z</time>
      </trkpt>
      <trkpt lat="45.83958" lon="3.5889">
        <ele>742</ele>
        <time>2021-02-14T12:41:18Z</time>
      </trkpt>
      <trkpt lat="45.8395" lon="3.589">
        <ele>742</ele>
        <time>2021-02-14T12:41:26Z</time>
      </trkpt>
      <trkpt lat="45.83942" lon="3.58908">
        <ele>742</ele>
        <time>2021-02-14T12:41:33Z</time>
      </trkpt>
      <trkpt lat="45.83935" lon="3.58916">
        <ele>742</ele>
        <time>2021-02-14T12:41:42Z</time>
      </trkpt>
      <trkpt lat="45.83927" lon="3.58924">
        <ele>743</ele>
        <time>2021-02-14T12:41:50Z</time>
      </trkpt>
      <trkpt lat="45.8392" lon="3.58935">
        <ele>745</ele>
        <time>2021-02-14T12:41:57Z</time>
      </trkpt>
      <trkpt lat="45.83918" lon="3.58947">
        <ele>746</ele>
        <time>2021-02-14T12:42:04Z</time>
      </trkpt>
      <trkpt lat="45.83912" lon="3.58958">
        <ele>748</ele>
        <time>2021-02-14T12:42:12Z</time>
      </trkpt>
      <trkpt lat="45.83903" lon="3.58965">
        <ele>749</ele>
        <time>2021-02-14T12:42:20Z</time>
      </trkpt>
      <trkpt lat="45.83896" lon="3.58975">
        <ele>751</ele>
        <time>2021-02-14T12:42:25Z</time>
      </trkpt>
      <trkpt lat="45.83888" lon="3.58983">
        <ele>752</ele>
        <time>2021-02-14T12:42:31Z</time>
      </trkpt>
      <trkpt lat="45.83881" lon="3.58992">
        <ele>754</ele>
        <time>2021-02-14T12:42:37Z</time>
      </trkpt>
      <trkpt lat="45.83877" lon="3.58997">
        <ele>755</ele>
        <time>2021-02-14T12:42:41Z</time>
      </trkpt>
      <trkpt lat="45.83875" lon="3.58999">
        <ele>755</ele>
        <time>2021-02-14T12:42:42Z</time>
      </trkpt>
      <trkpt lat="45.83873" lon="3.59">
        <ele>756</ele>
        <time>2021-02-14T12:42:43Z</time>
      </trkpt>
      <trkpt lat="45.83871" lon="3.59002">
        <ele>756</ele>
        <time>2021-02-14T12:42:44Z</time>
      </trkpt>
      <trkpt lat="45.83869" lon="3.59003">
        <ele>757</ele>
        <time>2021-02-14T12:42:45Z</time>
      </trkpt>
      <trkpt lat="45.83866" lon="3.59004">
        <ele>757</ele>
        <time>2021-02-14T12:42:47Z</time>
      </trkpt>
      <trkpt lat="45.83865" lon="3.59005">
        <ele>758</ele>
        <time>2021-02-14T12:42:51Z</time>
      </trkpt>
      <trkpt lat="45.83863" lon="3.59008">
        <ele>758</ele>
        <time>2021-02-14T12:42:54Z</time>
      </trkpt>
      <trkpt lat="45.83862" lon="3.59011">
        <ele>759</ele>
        <time>2021-02-14T12:42:56Z</time>
      </trkpt>
      <trkpt lat="45.8386" lon="3.59014">
        <ele>759</ele>
        <time>2021-02-14T12:42:59Z</time>
      </trkpt>
      <trkpt lat="45.8386" lon="3.59016">
        <ele>760</ele>
        <time>2021-02-14T12:43:02Z</time>
      </trkpt>
      <trkpt lat="45.83854" lon="3.59023">
        <ele>761</ele>
        <time>2021-02-14T12:43:09Z</time>
      </trkpt>
      <trkpt lat="45.83852" lon="3.59025">
        <ele>761</ele>
        <time>2021-02-14T12:43:12Z</time>
      </trkpt>
      <trkpt lat="45.83851" lon="3.59026">
        <ele>761</ele>
        <time>2021-02-14T12:43:15Z</time>
      </trkpt>
      <trkpt lat="45.83849" lon="3.59028">
        <ele>761</ele>
        <time>2021-02-14T12:43:18Z</time>
      </trkpt>
      <trkpt lat="45.83847" lon="3.59032">
        <ele>762</ele>
        <time>2021-02-14T12:43:22Z</time>
      </trkpt>
      <trkpt lat="45.83845" lon="3.59034">
        <ele>762</ele>
        <time>2021-02-14T12:43:25Z</time>
      </trkpt>
      <trkpt lat="45.83844" lon="3.59036">
        <ele>762</ele>
        <time>2021-02-14T12:43:27Z</time>
      </trkpt>
      <trkpt lat="45.83843" lon="3.59039">
        <ele>762</ele>
        <time>2021-02-14T12:43:29Z</time>
      </trkpt>
      <trkpt lat="45.8384" lon="3.59041">
        <ele>763</ele>
        <time>2021-02-14T12:43:32Z</time>
      </trkpt>
      <trkpt lat="45.83838" lon="3.59042">
        <ele>763</ele>
        <time>2021-02-14T12:43:34Z</time>
      </trkpt>
      <trkpt lat="45.83837" lon="3.59045">
        <ele>763</ele>
        <time>2021-02-14T12:43:37Z</time>
      </trkpt>
      <trkpt lat="45.83836" lon="3.59047">
        <ele>763</ele>
        <time>2021-02-14T12:43:39Z</time>
      </trkpt>
      <trkpt lat="45.83834" lon="3.59049">
        <ele>764</ele>
        <time>2021-02-14T12:43:41Z</time>
      </trkpt>
      <trkpt lat="45.83832" lon="3.59051">
        <ele>764</ele>
        <time>2021-02-14T12:43:43Z</time>
      </trkpt>
      <trkpt lat="45.83831" lon="3.59053">
        <ele>764</ele>
        <time>2021-02-14T12:43:45Z</time>
      </trkpt>
      <trkpt lat="45.83829" lon="3.59056">
        <ele>764</ele>
        <time>2021-02-14T12:43:48Z</time>
      </trkpt>
      <trkpt lat="45.83828" lon="3.59058">
        <ele>764</ele>
        <time>2021-02-14T12:43:50Z</time>
      </trkpt>
      <trkpt lat="45.83826" lon="3.5906">
        <ele>764</ele>
        <time>2021-02-14T12:43:52Z</time>
      </trkpt>
      <trkpt lat="45.83824" lon="3.59062">
        <ele>764</ele>
        <time>2021-02-14T12:43:54Z</time>
      </trkpt>
      <trkpt lat="45.83823" lon="3.59063">
        <ele>764</ele>
        <time>2021-02-14T12:43:56Z</time>
      </trkpt>
      <trkpt lat="45.83821" lon="3.59065">
        <ele>764</ele>
        <time>2021-02-14T12:43:58Z</time>
      </trkpt>
      <trkpt lat="45.8382" lon="3.59067">
        <ele>765</ele>
        <time>2021-02-14T12:44:00Z</time>
      </trkpt>
      <trkpt lat="45.83819" lon="3.5907">
        <ele>765</ele>
        <time>2021-02-14T12:44:02Z</time>
      </trkpt>
      <trkpt lat="45.83817" lon="3.59073">
        <ele>765</ele>
        <time>2021-02-14T12:44:04Z</time>
      </trkpt>
      <trkpt lat="45.83816" lon="3.59075">
        <ele>765</ele>
        <time>2021-02-14T12:44:06Z</time>
      </trkpt>
      <trkpt lat="45.83814" lon="3.59077">
        <ele>765</ele>
        <time>2021-02-14T12:44:09Z</time>
      </trkpt>
      <trkpt lat="45.83812" lon="3.5908">
        <ele>766</ele>
        <time>2021-02-14T12:44:13Z</time>
      </trkpt>
      <trkpt lat="45.83811" lon="3.59083">
        <ele>766</ele>
        <time>2021-02-14T12:44:16Z</time>
      </trkpt>
      <trkpt lat="45.83809" lon="3.59086">
        <ele>767</ele>
        <time>2021-02-14T12:44:19Z</time>
      </trkpt>
      <trkpt lat="45.83807" lon="3.59093">
        <ele>768</ele>
        <time>2021-02-14T12:44:25Z</time>
      </trkpt>
      <trkpt lat="45.83806" lon="3.59096">
        <ele>769</ele>
        <time>2021-02-14T12:44:27Z</time>
      </trkpt>
      <trkpt lat="45.83805" lon="3.59098">
        <ele>770</ele>
        <time>2021-02-14T12:44:29Z</time>
      </trkpt>
      <trkpt lat="45.83803" lon="3.59102">
        <ele>770</ele>
        <time>2021-02-14T12:44:31Z</time>
      </trkpt>
      <trkpt lat="45.83802" lon="3.59104">
        <ele>771</ele>
        <time>2021-02-14T12:44:34Z</time>
      </trkpt>
      <trkpt lat="45.83798" lon="3.59116">
        <ele>773</ele>
        <time>2021-02-14T12:44:43Z</time>
      </trkpt>
      <trkpt lat="45.83794" lon="3.59129">
        <ele>775</ele>
        <time>2021-02-14T12:44:53Z</time>
      </trkpt>
      <trkpt lat="45.83789" lon="3.59141">
        <ele>777</ele>
        <time>2021-02-14T12:45:00Z</time>
      </trkpt>
      <trkpt lat="45.83788" lon="3.59153">
        <ele>778</ele>
        <time>2021-02-14T12:45:12Z</time>
      </trkpt>
      <trkpt lat="45.83787" lon="3.59156">
        <ele>779</ele>
        <time>2021-02-14T12:45:14Z</time>
      </trkpt>
      <trkpt lat="45.83787" lon="3.59161">
        <ele>779</ele>
        <time>2021-02-14T12:45:17Z</time>
      </trkpt>
      <trkpt lat="45.83787" lon="3.59164">
        <ele>780</ele>
        <time>2021-02-14T12:45:19Z</time>
      </trkpt>
      <trkpt lat="45.83785" lon="3.59177">
        <ele>781</ele>
        <time>2021-02-14T12:45:29Z</time>
      </trkpt>
      <trkpt lat="45.8378" lon="3.59189">
        <ele>781</ele>
        <time>2021-02-14T12:45:38Z</time>
      </trkpt>
      <trkpt lat="45.83774" lon="3.59202">
        <ele>781</ele>
        <time>2021-02-14T12:45:45Z</time>
      </trkpt>
      <trkpt lat="45.8377" lon="3.59213">
        <ele>780</ele>
        <time>2021-02-14T12:45:53Z</time>
      </trkpt>
      <trkpt lat="45.83767" lon="3.59226">
        <ele>779</ele>
        <time>2021-02-14T12:46:02Z</time>
      </trkpt>
      <trkpt lat="45.83767" lon="3.59232">
        <ele>780</ele>
        <time>2021-02-14T12:46:07Z</time>
      </trkpt>
      <trkpt lat="45.83767" lon="3.59235">
        <ele>780</ele>
        <time>2021-02-14T12:46:09Z</time>
      </trkpt>
      <trkpt lat="45.83766" lon="3.59248">
        <ele>780</ele>
        <time>2021-02-14T12:46:18Z</time>
      </trkpt>
      <trkpt lat="45.83768" lon="3.59261">
        <ele>780</ele>
        <time>2021-02-14T12:46:26Z</time>
      </trkpt>
      <trkpt lat="45.83765" lon="3.59275">
        <ele>779</ele>
        <time>2021-02-14T12:46:36Z</time>
      </trkpt>
      <trkpt lat="45.83767" lon="3.59278">
        <ele>780</ele>
        <time>2021-02-14T12:46:39Z</time>
      </trkpt>
      <trkpt lat="45.83773" lon="3.59286">
        <ele>782</ele>
        <time>2021-02-14T12:46:50Z</time>
      </trkpt>
      <trkpt lat="45.83775" lon="3.5929">
        <ele>783</ele>
        <time>2021-02-14T12:46:52Z</time>
      </trkpt>
      <trkpt lat="45.83781" lon="3.593">
        <ele>785</ele>
        <time>2021-02-14T12:47:01Z</time>
      </trkpt>
      <trkpt lat="45.83782" lon="3.59313">
        <ele>785</ele>
        <time>2021-02-14T12:47:07Z</time>
      </trkpt>
      <trkpt lat="45.83787" lon="3.59326">
        <ele>788</ele>
        <time>2021-02-14T12:47:14Z</time>
      </trkpt>
      <trkpt lat="45.83792" lon="3.59339">
        <ele>789</ele>
        <time>2021-02-14T12:47:22Z</time>
      </trkpt>
      <trkpt lat="45.83794" lon="3.59352">
        <ele>790</ele>
        <time>2021-02-14T12:47:29Z</time>
      </trkpt>
      <trkpt lat="45.83799" lon="3.59365">
        <ele>791</ele>
        <time>2021-02-14T12:47:37Z</time>
      </trkpt>
      <trkpt lat="45.83805" lon="3.59374">
        <ele>792</ele>
        <time>2021-02-14T12:47:46Z</time>
      </trkpt>
      <trkpt lat="45.83809" lon="3.59379">
        <ele>792</ele>
        <time>2021-02-14T12:47:52Z</time>
      </trkpt>
      <trkpt lat="45.83811" lon="3.59382">
        <ele>793</ele>
        <time>2021-02-14T12:48:02Z</time>
      </trkpt>
      <trkpt lat="45.83813" lon="3.59383">
        <ele>793</ele>
        <time>2021-02-14T12:48:05Z</time>
      </trkpt>
      <trkpt lat="45.83815" lon="3.59384">
        <ele>793</ele>
        <time>2021-02-14T12:48:08Z</time>
      </trkpt>
      <trkpt lat="45.83818" lon="3.59384">
        <ele>793</ele>
        <time>2021-02-14T12:48:11Z</time>
      </trkpt>
      <trkpt lat="45.8382" lon="3.59383">
        <ele>794</ele>
        <time>2021-02-14T12:48:13Z</time>
      </trkpt>
      <trkpt lat="45.83823" lon="3.59382">
        <ele>794</ele>
        <time>2021-02-14T12:48:16Z</time>
      </trkpt>
      <trkpt lat="45.83826" lon="3.59381">
        <ele>795</ele>
        <time>2021-02-14T12:48:18Z</time>
      </trkpt>
      <trkpt lat="45.83827" lon="3.59384">
        <ele>795</ele>
        <time>2021-02-14T12:48:20Z</time>
      </trkpt>
      <trkpt lat="45.83829" lon="3.59387">
        <ele>795</ele>
        <time>2021-02-14T12:48:22Z</time>
      </trkpt>
      <trkpt lat="45.8383" lon="3.59388">
        <ele>795</ele>
        <time>2021-02-14T12:48:24Z</time>
      </trkpt>
      <trkpt lat="45.83832" lon="3.59391">
        <ele>795</ele>
        <time>2021-02-14T12:48:27Z</time>
      </trkpt>
      <trkpt lat="45.83835" lon="3.59394">
        <ele>795</ele>
        <time>2021-02-14T12:48:31Z</time>
      </trkpt>
      <trkpt lat="45.83837" lon="3.59394">
        <ele>796</ele>
        <time>2021-02-14T12:48:33Z</time>
      </trkpt>
      <trkpt lat="45.83841" lon="3.59393">
        <ele>796</ele>
        <time>2021-02-14T12:48:36Z</time>
      </trkpt>
      <trkpt lat="45.83846" lon="3.59388">
        <ele>798</ele>
        <time>2021-02-14T12:48:40Z</time>
      </trkpt>
      <trkpt lat="45.83848" lon="3.59386">
        <ele>798</ele>
        <time>2021-02-14T12:48:42Z</time>
      </trkpt>
      <trkpt lat="45.83851" lon="3.59385">
        <ele>799</ele>
        <time>2021-02-14T12:48:44Z</time>
      </trkpt>
      <trkpt lat="45.83857" lon="3.59382">
        <ele>800</ele>
        <time>2021-02-14T12:48:49Z</time>
      </trkpt>
      <trkpt lat="45.83859" lon="3.59382">
        <ele>800</ele>
        <time>2021-02-14T12:48:51Z</time>
      </trkpt>
      <trkpt lat="45.83861" lon="3.59381">
        <ele>801</ele>
        <time>2021-02-14T12:48:53Z</time>
      </trkpt>
      <trkpt lat="45.83869" lon="3.59375">
        <ele>802</ele>
        <time>2021-02-14T12:49:01Z</time>
      </trkpt>
      <trkpt lat="45.83871" lon="3.59373">
        <ele>802</ele>
        <time>2021-02-14T12:49:02Z</time>
      </trkpt>
      <trkpt lat="45.83873" lon="3.59372">
        <ele>803</ele>
        <time>2021-02-14T12:49:08Z</time>
      </trkpt>
      <trkpt lat="45.83876" lon="3.59372">
        <ele>803</ele>
        <time>2021-02-14T12:49:11Z</time>
      </trkpt>
      <trkpt lat="45.83878" lon="3.59373">
        <ele>803</ele>
        <time>2021-02-14T12:49:14Z</time>
      </trkpt>
      <trkpt lat="45.8388" lon="3.59372">
        <ele>804</ele>
        <time>2021-02-14T12:49:17Z</time>
      </trkpt>
      <trkpt lat="45.83882" lon="3.5937">
        <ele>804</ele>
        <time>2021-02-14T12:49:22Z</time>
      </trkpt>
      <trkpt lat="45.83884" lon="3.59369">
        <ele>804</ele>
        <time>2021-02-14T12:49:25Z</time>
      </trkpt>
      <trkpt lat="45.83887" lon="3.59367">
        <ele>805</ele>
        <time>2021-02-14T12:49:27Z</time>
      </trkpt>
      <trkpt lat="45.83889" lon="3.59365">
        <ele>805</ele>
        <time>2021-02-14T12:49:29Z</time>
      </trkpt>
      <trkpt lat="45.8389" lon="3.59363">
        <ele>806</ele>
        <time>2021-02-14T12:49:31Z</time>
      </trkpt>
      <trkpt lat="45.83893" lon="3.59361">
        <ele>806</ele>
        <time>2021-02-14T12:49:33Z</time>
      </trkpt>
      <trkpt lat="45.83895" lon="3.5936">
        <ele>806</ele>
        <time>2021-02-14T12:49:35Z</time>
      </trkpt>
      <trkpt lat="45.83904" lon="3.59356">
        <ele>808</ele>
        <time>2021-02-14T12:49:42Z</time>
      </trkpt>
      <trkpt lat="45.83912" lon="3.59352">
        <ele>809</ele>
        <time>2021-02-14T12:49:50Z</time>
      </trkpt>
      <trkpt lat="45.83922" lon="3.59348">
        <ele>811</ele>
        <time>2021-02-14T12:50:01Z</time>
      </trkpt>
      <trkpt lat="45.8393" lon="3.59341">
        <ele>814</ele>
        <time>2021-02-14T12:50:09Z</time>
      </trkpt>
      <trkpt lat="45.83939" lon="3.59336">
        <ele>816</ele>
        <time>2021-02-14T12:50:15Z</time>
      </trkpt>
      <trkpt lat="45.83948" lon="3.59331">
        <ele>818</ele>
        <time>2021-02-14T12:50:22Z</time>
      </trkpt>
      <trkpt lat="45.83956" lon="3.59329">
        <ele>820</ele>
        <time>2021-02-14T12:50:30Z</time>
      </trkpt>
      <trkpt lat="45.83958" lon="3.5933">
        <ele>821</ele>
        <time>2021-02-14T12:50:32Z</time>
      </trkpt>
      <trkpt lat="45.8396" lon="3.5933">
        <ele>821</ele>
        <time>2021-02-14T12:50:34Z</time>
      </trkpt>
      <trkpt lat="45.83961" lon="3.59332">
        <ele>822</ele>
        <time>2021-02-14T12:50:36Z</time>
      </trkpt>
      <trkpt lat="45.83964" lon="3.59334">
        <ele>822</ele>
        <time>2021-02-14T12:50:38Z</time>
      </trkpt>
      <trkpt lat="45.83966" lon="3.59335">
        <ele>823</ele>
        <time>2021-02-14T12:50:41Z</time>
      </trkpt>
      <trkpt lat="45.83967" lon="3.59338">
        <ele>823</ele>
        <time>2021-02-14T12:50:43Z</time>
      </trkpt>
      <trkpt lat="45.83968" lon="3.59341">
        <ele>823</ele>
        <time>2021-02-14T12:50:45Z</time>
      </trkpt>
      <trkpt lat="45.83969" lon="3.59343">
        <ele>823</ele>
        <time>2021-02-14T12:50:47Z</time>
      </trkpt>
      <trkpt lat="45.83973" lon="3.59347">
        <ele>824</ele>
        <time>2021-02-14T12:50:50Z</time>
      </trkpt>
      <trkpt lat="45.83975" lon="3.59351">
        <ele>824</ele>
        <time>2021-02-14T12:50:52Z</time>
      </trkpt>
      <trkpt lat="45.83976" lon="3.59355">
        <ele>824</ele>
        <time>2021-02-14T12:50:54Z</time>
      </trkpt>
      <trkpt lat="45.83977" lon="3.59359">
        <ele>823</ele>
        <time>2021-02-14T12:50:56Z</time>
      </trkpt>
      <trkpt lat="45.83978" lon="3.59362">
        <ele>823</ele>
        <time>2021-02-14T12:50:58Z</time>
      </trkpt>
      <trkpt lat="45.83978" lon="3.59365">
        <ele>823</ele>
        <time>2021-02-14T12:51:00Z</time>
      </trkpt>
      <trkpt lat="45.8398" lon="3.59367">
        <ele>823</ele>
        <time>2021-02-14T12:51:02Z</time>
      </trkpt>
      <trkpt lat="45.83981" lon="3.59369">
        <ele>822</ele>
        <time>2021-02-14T12:51:04Z</time>
      </trkpt>
      <trkpt lat="45.83983" lon="3.59372">
        <ele>822</ele>
        <time>2021-02-14T12:51:06Z</time>
      </trkpt>
      <trkpt lat="45.83984" lon="3.59374">
        <ele>822</ele>
        <time>2021-02-14T12:51:08Z</time>
      </trkpt>
      <trkpt lat="45.83988" lon="3.59378">
        <ele>822</ele>
        <time>2021-02-14T12:51:11Z</time>
      </trkpt>
      <trkpt lat="45.83991" lon="3.59391">
        <ele>820</ele>
        <time>2021-02-14T12:51:20Z</time>
      </trkpt>
      <trkpt lat="45.83993" lon="3.59398">
        <ele>819</ele>
        <time>2021-02-14T12:51:24Z</time>
      </trkpt>
      <trkpt lat="45.83994" lon="3.59403">
        <ele>819</ele>
        <time>2021-02-14T12:51:27Z</time>
      </trkpt>
      <trkpt lat="45.83996" lon="3.59408">
        <ele>818</ele>
        <time>2021-02-14T12:51:31Z</time>
      </trkpt>
      <trkpt lat="45.83997" lon="3.5941">
        <ele>818</ele>
        <time>2021-02-14T12:51:33Z</time>
      </trkpt>
      <trkpt lat="45.83998" lon="3.59413">
        <ele>818</ele>
        <time>2021-02-14T12:51:36Z</time>
      </trkpt>
      <trkpt lat="45.84" lon="3.59416">
        <ele>818</ele>
        <time>2021-02-14T12:51:38Z</time>
      </trkpt>
      <trkpt lat="45.84002" lon="3.59418">
        <ele>818</ele>
        <time>2021-02-14T12:51:39Z</time>
      </trkpt>
      <trkpt lat="45.84003" lon="3.59421">
        <ele>818</ele>
        <time>2021-02-14T12:51:41Z</time>
      </trkpt>
      <trkpt lat="45.84004" lon="3.59424">
        <ele>817</ele>
        <time>2021-02-14T12:51:43Z</time>
      </trkpt>
      <trkpt lat="45.84006" lon="3.59428">
        <ele>817</ele>
        <time>2021-02-14T12:51:45Z</time>
      </trkpt>
      <trkpt lat="45.84007" lon="3.59431">
        <ele>817</ele>
        <time>2021-02-14T12:51:46Z</time>
      </trkpt>
      <trkpt lat="45.84008" lon="3.59434">
        <ele>817</ele>
        <time>2021-02-14T12:51:48Z</time>
      </trkpt>
      <trkpt lat="45.84008" lon="3.59438">
        <ele>817</ele>
        <time>2021-02-14T12:51:50Z</time>
      </trkpt>
      <trkpt lat="45.84009" lon="3.59442">
        <ele>817</ele>
        <time>2021-02-14T12:51:52Z</time>
      </trkpt>
      <trkpt lat="45.8401" lon="3.59445">
        <ele>817</ele>
        <time>2021-02-14T12:51:54Z</time>
      </trkpt>
      <trkpt lat="45.84011" lon="3.59449">
        <ele>817</ele>
        <time>2021-02-14T12:51:56Z</time>
      </trkpt>
      <trkpt lat="45.84011" lon="3.59453">
        <ele>816</ele>
        <time>2021-02-14T12:51:58Z</time>
      </trkpt>
      <trkpt lat="45.84012" lon="3.59457">
        <ele>816</ele>
        <time>2021-02-14T12:52:00Z</time>
      </trkpt>
      <trkpt lat="45.84013" lon="3.5946">
        <ele>816</ele>
        <time>2021-02-14T12:52:03Z</time>
      </trkpt>
      <trkpt lat="45.84014" lon="3.59464">
        <ele>816</ele>
        <time>2021-02-14T12:52:05Z</time>
      </trkpt>
      <trkpt lat="45.84014" lon="3.59466">
        <ele>816</ele>
        <time>2021-02-14T12:52:07Z</time>
      </trkpt>
      <trkpt lat="45.84015" lon="3.59471">
        <ele>816</ele>
        <time>2021-02-14T12:52:09Z</time>
      </trkpt>
      <trkpt lat="45.84017" lon="3.59474">
        <ele>817</ele>
        <time>2021-02-14T12:52:11Z</time>
      </trkpt>
      <trkpt lat="45.84018" lon="3.59477">
        <ele>817</ele>
        <time>2021-02-14T12:52:13Z</time>
      </trkpt>
      <trkpt lat="45.84019" lon="3.5948">
        <ele>817</ele>
        <time>2021-02-14T12:52:15Z</time>
      </trkpt>
      <trkpt lat="45.84021" lon="3.59483">
        <ele>817</ele>
        <time>2021-02-14T12:52:17Z</time>
      </trkpt>
      <trkpt lat="45.84025" lon="3.5949">
        <ele>817</ele>
        <time>2021-02-14T12:52:22Z</time>
      </trkpt>
      <trkpt lat="45.84026" lon="3.59493">
        <ele>818</ele>
        <time>2021-02-14T12:52:24Z</time>
      </trkpt>
      <trkpt lat="45.84028" lon="3.59502">
        <ele>817</ele>
        <time>2021-02-14T12:52:28Z</time>
      </trkpt>
      <trkpt lat="45.8403" lon="3.59509">
        <ele>817</ele>
        <time>2021-02-14T12:52:31Z</time>
      </trkpt>
      <trkpt lat="45.84032" lon="3.59512">
        <ele>817</ele>
        <time>2021-02-14T12:52:32Z</time>
      </trkpt>
      <trkpt lat="45.84033" lon="3.59516">
        <ele>817</ele>
        <time>2021-02-14T12:52:34Z</time>
      </trkpt>
      <trkpt lat="45.84034" lon="3.59519">
        <ele>818</ele>
        <time>2021-02-14T12:52:36Z</time>
      </trkpt>
      <trkpt lat="45.84035" lon="3.59524">
        <ele>817</ele>
        <time>2021-02-14T12:52:38Z</time>
      </trkpt>
      <trkpt lat="45.84036" lon="3.59528">
        <ele>817</ele>
        <time>2021-02-14T12:52:40Z</time>
      </trkpt>
      <trkpt lat="45.84037" lon="3.59531">
        <ele>817</ele>
        <time>2021-02-14T12:52:42Z</time>
      </trkpt>
      <trkpt lat="45.84037" lon="3.59534">
        <ele>817</ele>
        <time>2021-02-14T12:52:44Z</time>
      </trkpt>
      <trkpt lat="45.84037" lon="3.59537">
        <ele>817</ele>
        <time>2021-02-14T12:52:46Z</time>
      </trkpt>
      <trkpt lat="45.84039" lon="3.59545">
        <ele>816</ele>
        <time>2021-02-14T12:52:50Z</time>
      </trkpt>
      <trkpt lat="45.8404" lon="3.59548">
        <ele>816</ele>
        <time>2021-02-14T12:52:51Z</time>
      </trkpt>
      <trkpt lat="45.8404" lon="3.59552">
        <ele>816</ele>
        <time>2021-02-14T12:52:53Z</time>
      </trkpt>
      <trkpt lat="45.84042" lon="3.59556">
        <ele>816</ele>
        <time>2021-02-14T12:52:55Z</time>
      </trkpt>
      <trkpt lat="45.84042" lon="3.59559">
        <ele>816</ele>
        <time>2021-02-14T12:52:56Z</time>
      </trkpt>
      <trkpt lat="45.84043" lon="3.59564">
        <ele>816</ele>
        <time>2021-02-14T12:52:59Z</time>
      </trkpt>
      <trkpt lat="45.84044" lon="3.59568">
        <ele>816</ele>
        <time>2021-02-14T12:53:02Z</time>
      </trkpt>
      <trkpt lat="45.84045" lon="3.5957">
        <ele>816</ele>
        <time>2021-02-14T12:53:04Z</time>
      </trkpt>
      <trkpt lat="45.84045" lon="3.59573">
        <ele>816</ele>
        <time>2021-02-14T12:53:06Z</time>
      </trkpt>
      <trkpt lat="45.84046" lon="3.59576">
        <ele>816</ele>
        <time>2021-02-14T12:53:08Z</time>
      </trkpt>
      <trkpt lat="45.84047" lon="3.59579">
        <ele>816</ele>
        <time>2021-02-14T12:53:10Z</time>
      </trkpt>
      <trkpt lat="45.84048" lon="3.59582">
        <ele>817</ele>
        <time>2021-02-14T12:53:12Z</time>
      </trkpt>
      <trkpt lat="45.84049" lon="3.59586">
        <ele>817</ele>
        <time>2021-02-14T12:53:14Z</time>
      </trkpt>
      <trkpt lat="45.8405" lon="3.59589">
        <ele>817</ele>
        <time>2021-02-14T12:53:16Z</time>
      </trkpt>
      <trkpt lat="45.84051" lon="3.59593">
        <ele>817</ele>
        <time>2021-02-14T12:53:18Z</time>
      </trkpt>
      <trkpt lat="45.84052" lon="3.59597">
        <ele>817</ele>
        <time>2021-02-14T12:53:20Z</time>
      </trkpt>
      <trkpt lat="45.84054" lon="3.59601">
        <ele>817</ele>
        <time>2021-02-14T12:53:22Z</time>
      </trkpt>
      <trkpt lat="45.84055" lon="3.59604">
        <ele>818</ele>
        <time>2021-02-14T12:53:24Z</time>
      </trkpt>
      <trkpt lat="45.84057" lon="3.59607">
        <ele>818</ele>
        <time>2021-02-14T12:53:26Z</time>
      </trkpt>
      <trkpt lat="45.84058" lon="3.5961">
        <ele>818</ele>
        <time>2021-02-14T12:53:29Z</time>
      </trkpt>
      <trkpt lat="45.84059" lon="3.59614">
        <ele>818</ele>
        <time>2021-02-14T12:53:31Z</time>
      </trkpt>
      <trkpt lat="45.8406" lon="3.59616">
        <ele>818</ele>
        <time>2021-02-14T12:53:33Z</time>
      </trkpt>
      <trkpt lat="45.84062" lon="3.59619">
        <ele>819</ele>
        <time>2021-02-14T12:53:36Z</time>
      </trkpt>
      <trkpt lat="45.84066" lon="3.59623">
        <ele>819</ele>
        <time>2021-02-14T12:53:39Z</time>
      </trkpt>
      <trkpt lat="45.84068" lon="3.59625">
        <ele>820</ele>
        <time>2021-02-14T12:53:40Z</time>
      </trkpt>
      <trkpt lat="45.84069" lon="3.59628">
        <ele>820</ele>
        <time>2021-02-14T12:53:41Z</time>
      </trkpt>
      <trkpt lat="45.84071" lon="3.5963">
        <ele>820</ele>
        <time>2021-02-14T12:53:43Z</time>
      </trkpt>
      <trkpt lat="45.84073" lon="3.59632">
        <ele>821</ele>
        <time>2021-02-14T12:53:45Z</time>
      </trkpt>
      <trkpt lat="45.84074" lon="3.59634">
        <ele>821</ele>
        <time>2021-02-14T12:53:48Z</time>
      </trkpt>
      <trkpt lat="45.84076" lon="3.59637">
        <ele>821</ele>
        <time>2021-02-14T12:53:50Z</time>
      </trkpt>
      <trkpt lat="45.84078" lon="3.5964">
        <ele>822</ele>
        <time>2021-02-14T12:53:52Z</time>
      </trkpt>
      <trkpt lat="45.84079" lon="3.59643">
        <ele>822</ele>
        <time>2021-02-14T12:53:54Z</time>
      </trkpt>
      <trkpt lat="45.84081" lon="3.59646">
        <ele>822</ele>
        <time>2021-02-14T12:53:56Z</time>
      </trkpt>
      <trkpt lat="45.84083" lon="3.59649">
        <ele>823</ele>
        <time>2021-02-14T12:53:58Z</time>
      </trkpt>
      <trkpt lat="45.84084" lon="3.59653">
        <ele>823</ele>
        <time>2021-02-14T12:54:00Z</time>
      </trkpt>
      <trkpt lat="45.84085" lon="3.59655">
        <ele>823</ele>
        <time>2021-02-14T12:54:02Z</time>
      </trkpt>
      <trkpt lat="45.84086" lon="3.59658">
        <ele>823</ele>
        <time>2021-02-14T12:54:04Z</time>
      </trkpt>
      <trkpt lat="45.84088" lon="3.59662">
        <ele>823</ele>
        <time>2021-02-14T12:54:06Z</time>
      </trkpt>
      <trkpt lat="45.84089" lon="3.59666">
        <ele>824</ele>
        <time>2021-02-14T12:54:08Z</time>
      </trkpt>
      <trkpt lat="45.84091" lon="3.59669">
        <ele>824</ele>
        <time>2021-02-14T12:54:10Z</time>
      </trkpt>
      <trkpt lat="45.84093" lon="3.59672">
        <ele>824</ele>
        <time>2021-02-14T12:54:12Z</time>
      </trkpt>
      <trkpt lat="45.84094" lon="3.59676">
        <ele>824</ele>
        <time>2021-02-14T12:54:14Z</time>
      </trkpt>
      <trkpt lat="45.84095" lon="3.5968">
        <ele>824</ele>
        <time>2021-02-14T12:54:16Z</time>
      </trkpt>
      <trkpt lat="45.84096" lon="3.59685">
        <ele>825</ele>
        <time>2021-02-14T12:54:19Z</time>
      </trkpt>
      <trkpt lat="45.84096" lon="3.59689">
        <ele>825</ele>
        <time>2021-02-14T12:54:21Z</time>
      </trkpt>
      <trkpt lat="45.84096" lon="3.59693">
        <ele>825</ele>
        <time>2021-02-14T12:54:23Z</time>
      </trkpt>
      <trkpt lat="45.84097" lon="3.59697">
        <ele>825</ele>
        <time>2021-02-14T12:54:25Z</time>
      </trkpt>
      <trkpt lat="45.84098" lon="3.597">
        <ele>825</ele>
        <time>2021-02-14T12:54:27Z</time>
      </trkpt>
      <trkpt lat="45.84099" lon="3.59703">
        <ele>826</ele>
        <time>2021-02-14T12:54:29Z</time>
      </trkpt>
      <trkpt lat="45.841" lon="3.59706">
        <ele>826</ele>
        <time>2021-02-14T12:54:31Z</time>
      </trkpt>
      <trkpt lat="45.841" lon="3.5971">
        <ele>826</ele>
        <time>2021-02-14T12:54:33Z</time>
      </trkpt>
      <trkpt lat="45.84101" lon="3.59714">
        <ele>826</ele>
        <time>2021-02-14T12:54:35Z</time>
      </trkpt>
      <trkpt lat="45.84103" lon="3.59717">
        <ele>827</ele>
        <time>2021-02-14T12:54:37Z</time>
      </trkpt>
      <trkpt lat="45.84104" lon="3.5972">
        <ele>827</ele>
        <time>2021-02-14T12:54:39Z</time>
      </trkpt>
      <trkpt lat="45.84105" lon="3.59723">
        <ele>827</ele>
        <time>2021-02-14T12:54:44Z</time>
      </trkpt>
      <trkpt lat="45.84106" lon="3.59726">
        <ele>827</ele>
        <time>2021-02-14T12:54:46Z</time>
      </trkpt>
      <trkpt lat="45.84107" lon="3.5973">
        <ele>827</ele>
        <time>2021-02-14T12:54:48Z</time>
      </trkpt>
      <trkpt lat="45.84108" lon="3.59733">
        <ele>827</ele>
        <time>2021-02-14T12:54:50Z</time>
      </trkpt>
      <trkpt lat="45.84109" lon="3.59737">
        <ele>827</ele>
        <time>2021-02-14T12:54:52Z</time>
      </trkpt>
      <trkpt lat="45.8411" lon="3.5974">
        <ele>827</ele>
        <time>2021-02-14T12:54:54Z</time>
      </trkpt>
      <trkpt lat="45.84111" lon="3.59744">
        <ele>827</ele>
        <time>2021-02-14T12:54:56Z</time>
      </trkpt>
      <trkpt lat="45.84111" lon="3.59746">
        <ele>828</ele>
        <time>2021-02-14T12:54:58Z</time>
      </trkpt>
      <trkpt lat="45.84112" lon="3.5975">
        <ele>828</ele>
        <time>2021-02-14T12:55:01Z</time>
      </trkpt>
      <trkpt lat="45.84112" lon="3.59753">
        <ele>828</ele>
        <time>2021-02-14T12:55:03Z</time>
      </trkpt>
      <trkpt lat="45.84113" lon="3.59756">
        <ele>828</ele>
        <time>2021-02-14T12:55:05Z</time>
      </trkpt>
      <trkpt lat="45.84114" lon="3.5976">
        <ele>828</ele>
        <time>2021-02-14T12:55:07Z</time>
      </trkpt>
      <trkpt lat="45.84115" lon="3.59763">
        <ele>828</ele>
        <time>2021-02-14T12:55:09Z</time>
      </trkpt>
      <trkpt lat="45.84116" lon="3.59766">
        <ele>829</ele>
        <time>2021-02-14T12:55:11Z</time>
      </trkpt>
      <trkpt lat="45.84116" lon="3.59769">
        <ele>829</ele>
        <time>2021-02-14T12:55:14Z</time>
      </trkpt>
      <trkpt lat="45.84117" lon="3.59772">
        <ele>829</ele>
        <time>2021-02-14T12:55:16Z</time>
      </trkpt>
      <trkpt lat="45.84118" lon="3.59776">
        <ele>829</ele>
        <time>2021-02-14T12:55:19Z</time>
      </trkpt>
      <trkpt lat="45.84119" lon="3.59779">
        <ele>829</ele>
        <time>2021-02-14T12:55:21Z</time>
      </trkpt>
      <trkpt lat="45.84121" lon="3.59781">
        <ele>830</ele>
        <time>2021-02-14T12:55:23Z</time>
      </trkpt>
      <trkpt lat="45.84122" lon="3.59784">
        <ele>830</ele>
        <time>2021-02-14T12:55:25Z</time>
      </trkpt>
      <trkpt lat="45.84123" lon="3.59787">
        <ele>830</ele>
        <time>2021-02-14T12:55:27Z</time>
      </trkpt>
      <trkpt lat="45.84124" lon="3.59789">
        <ele>830</ele>
        <time>2021-02-14T12:55:29Z</time>
      </trkpt>
      <trkpt lat="45.84124" lon="3.59794">
        <ele>830</ele>
        <time>2021-02-14T12:55:31Z</time>
      </trkpt>
      <trkpt lat="45.84125" lon="3.59798">
        <ele>830</ele>
        <time>2021-02-14T12:55:33Z</time>
      </trkpt>
      <trkpt lat="45.84126" lon="3.59801">
        <ele>830</ele>
        <time>2021-02-14T12:55:35Z</time>
      </trkpt>
      <trkpt lat="45.84127" lon="3.59803">
        <ele>830</ele>
        <time>2021-02-14T12:55:37Z</time>
      </trkpt>
      <trkpt lat="45.84128" lon="3.59806">
        <ele>831</ele>
        <time>2021-02-14T12:55:39Z</time>
      </trkpt>
      <trkpt lat="45.8413" lon="3.59809">
        <ele>831</ele>
        <time>2021-02-14T12:55:41Z</time>
      </trkpt>
      <trkpt lat="45.8413" lon="3.59812">
        <ele>831</ele>
        <time>2021-02-14T12:55:43Z</time>
      </trkpt>
      <trkpt lat="45.84131" lon="3.59814">
        <ele>831</ele>
        <time>2021-02-14T12:55:45Z</time>
      </trkpt>
      <trkpt lat="45.84133" lon="3.59818">
        <ele>831</ele>
        <time>2021-02-14T12:55:48Z</time>
      </trkpt>
      <trkpt lat="45.84134" lon="3.59821">
        <ele>832</ele>
        <time>2021-02-14T12:55:50Z</time>
      </trkpt>
      <trkpt lat="45.84135" lon="3.59824">
        <ele>832</ele>
        <time>2021-02-14T12:55:52Z</time>
      </trkpt>
      <trkpt lat="45.84135" lon="3.59827">
        <ele>832</ele>
        <time>2021-02-14T12:55:54Z</time>
      </trkpt>
      <trkpt lat="45.84136" lon="3.59831">
        <ele>832</ele>
        <time>2021-02-14T12:55:56Z</time>
      </trkpt>
      <trkpt lat="45.84136" lon="3.59834">
        <ele>832</ele>
        <time>2021-02-14T12:55:58Z</time>
      </trkpt>
      <trkpt lat="45.84136" lon="3.59839">
        <ele>832</ele>
        <time>2021-02-14T12:56:01Z</time>
      </trkpt>
      <trkpt lat="45.84137" lon="3.59843">
        <ele>832</ele>
        <time>2021-02-14T12:56:03Z</time>
      </trkpt>
      <trkpt lat="45.84138" lon="3.59846">
        <ele>832</ele>
        <time>2021-02-14T12:56:04Z</time>
      </trkpt>
      <trkpt lat="45.84139" lon="3.59849">
        <ele>833</ele>
        <time>2021-02-14T12:56:05Z</time>
      </trkpt>
      <trkpt lat="45.84141" lon="3.59852">
        <ele>833</ele>
        <time>2021-02-14T12:56:07Z</time>
      </trkpt>
      <trkpt lat="45.84142" lon="3.59856">
        <ele>833</ele>
        <time>2021-02-14T12:56:10Z</time>
      </trkpt>
      <trkpt lat="45.84143" lon="3.5986">
        <ele>833</ele>
        <time>2021-02-14T12:56:12Z</time>
      </trkpt>
      <trkpt lat="45.84144" lon="3.59863">
        <ele>833</ele>
        <time>2021-02-14T12:56:14Z</time>
      </trkpt>
      <trkpt lat="45.84145" lon="3.59866">
        <ele>833</ele>
        <time>2021-02-14T12:56:16Z</time>
      </trkpt>
      <trkpt lat="45.84146" lon="3.5987">
        <ele>833</ele>
        <time>2021-02-14T12:56:18Z</time>
      </trkpt>
      <trkpt lat="45.84146" lon="3.59874">
        <ele>834</ele>
        <time>2021-02-14T12:56:20Z</time>
      </trkpt>
      <trkpt lat="45.84146" lon="3.59877">
        <ele>834</ele>
        <time>2021-02-14T12:56:22Z</time>
      </trkpt>
      <trkpt lat="45.84148" lon="3.5988">
        <ele>834</ele>
        <time>2021-02-14T12:56:24Z</time>
      </trkpt>
      <trkpt lat="45.84148" lon="3.59883">
        <ele>834</ele>
        <time>2021-02-14T12:56:26Z</time>
      </trkpt>
      <trkpt lat="45.84149" lon="3.59886">
        <ele>834</ele>
        <time>2021-02-14T12:56:28Z</time>
      </trkpt>
      <trkpt lat="45.84149" lon="3.5989">
        <ele>834</ele>
        <time>2021-02-14T12:56:31Z</time>
      </trkpt>
      <trkpt lat="45.84149" lon="3.59894">
        <ele>834</ele>
        <time>2021-02-14T12:56:33Z</time>
      </trkpt>
      <trkpt lat="45.84149" lon="3.599">
        <ele>835</ele>
        <time>2021-02-14T12:56:36Z</time>
      </trkpt>
      <trkpt lat="45.8415" lon="3.59905">
        <ele>835</ele>
        <time>2021-02-14T12:56:39Z</time>
      </trkpt>
      <trkpt lat="45.8415" lon="3.59908">
        <ele>835</ele>
        <time>2021-02-14T12:56:41Z</time>
      </trkpt>
      <trkpt lat="45.84151" lon="3.59911">
        <ele>835</ele>
        <time>2021-02-14T12:56:43Z</time>
      </trkpt>
      <trkpt lat="45.84152" lon="3.59914">
        <ele>835</ele>
        <time>2021-02-14T12:56:45Z</time>
      </trkpt>
      <trkpt lat="45.84153" lon="3.59917">
        <ele>836</ele>
        <time>2021-02-14T12:56:47Z</time>
      </trkpt>
      <trkpt lat="45.84153" lon="3.5992">
        <ele>836</ele>
        <time>2021-02-14T12:56:49Z</time>
      </trkpt>
      <trkpt lat="45.84155" lon="3.59934">
        <ele>836</ele>
        <time>2021-02-14T12:56:54Z</time>
      </trkpt>
      <trkpt lat="45.84155" lon="3.59948">
        <ele>837</ele>
        <time>2021-02-14T12:57:01Z</time>
      </trkpt>
      <trkpt lat="45.84155" lon="3.59963">
        <ele>836</ele>
        <time>2021-02-14T12:57:09Z</time>
      </trkpt>
      <trkpt lat="45.84155" lon="3.5997">
        <ele>836</ele>
        <time>2021-02-14T12:57:13Z</time>
      </trkpt>
      <trkpt lat="45.84159" lon="3.59983">
        <ele>836</ele>
        <time>2021-02-14T12:57:24Z</time>
      </trkpt>
      <trkpt lat="45.84161" lon="3.59987">
        <ele>837</ele>
        <time>2021-02-14T12:57:27Z</time>
      </trkpt>
      <trkpt lat="45.84162" lon="3.5999">
        <ele>837</ele>
        <time>2021-02-14T12:57:29Z</time>
      </trkpt>
      <trkpt lat="45.84166" lon="3.59993">
        <ele>837</ele>
        <time>2021-02-14T12:57:31Z</time>
      </trkpt>
      <trkpt lat="45.84167" lon="3.59998">
        <ele>838</ele>
        <time>2021-02-14T12:57:34Z</time>
      </trkpt>
      <trkpt lat="45.84168" lon="3.60001">
        <ele>838</ele>
        <time>2021-02-14T12:57:37Z</time>
      </trkpt>
      <trkpt lat="45.84169" lon="3.60005">
        <ele>838</ele>
        <time>2021-02-14T12:57:39Z</time>
      </trkpt>
      <trkpt lat="45.84171" lon="3.60007">
        <ele>837</ele>
        <time>2021-02-14T12:57:40Z</time>
      </trkpt>
      <trkpt lat="45.84172" lon="3.60009">
        <ele>837</ele>
        <time>2021-02-14T12:57:41Z</time>
      </trkpt>
      <trkpt lat="45.84173" lon="3.60011">
        <ele>837</ele>
        <time>2021-02-14T12:57:42Z</time>
      </trkpt>
      <trkpt lat="45.84175" lon="3.60015">
        <ele>837</ele>
        <time>2021-02-14T12:57:44Z</time>
      </trkpt>
      <trkpt lat="45.84176" lon="3.60019">
        <ele>837</ele>
        <time>2021-02-14T12:57:46Z</time>
      </trkpt>
      <trkpt lat="45.84178" lon="3.60021">
        <ele>837</ele>
        <time>2021-02-14T12:57:47Z</time>
      </trkpt>
      <trkpt lat="45.84179" lon="3.60022">
        <ele>837</ele>
        <time>2021-02-14T12:57:48Z</time>
      </trkpt>
      <trkpt lat="45.84181" lon="3.60025">
        <ele>837</ele>
        <time>2021-02-14T12:57:50Z</time>
      </trkpt>
      <trkpt lat="45.84182" lon="3.60029">
        <ele>837</ele>
        <time>2021-02-14T12:57:52Z</time>
      </trkpt>
      <trkpt lat="45.84184" lon="3.60032">
        <ele>837</ele>
        <time>2021-02-14T12:57:54Z</time>
      </trkpt>
      <trkpt lat="45.84186" lon="3.60035">
        <ele>837</ele>
        <time>2021-02-14T12:57:56Z</time>
      </trkpt>
      <trkpt lat="45.84188" lon="3.60038">
        <ele>837</ele>
        <time>2021-02-14T12:57:58Z</time>
      </trkpt>
      <trkpt lat="45.8419" lon="3.6004">
        <ele>836</ele>
        <time>2021-02-14T12:58:00Z</time>
      </trkpt>
      <trkpt lat="45.84192" lon="3.60043">
        <ele>836</ele>
        <time>2021-02-14T12:58:02Z</time>
      </trkpt>
      <trkpt lat="45.84194" lon="3.60045">
        <ele>836</ele>
        <time>2021-02-14T12:58:04Z</time>
      </trkpt>
      <trkpt lat="45.84196" lon="3.60047">
        <ele>836</ele>
        <time>2021-02-14T12:58:06Z</time>
      </trkpt>
      <trkpt lat="45.84197" lon="3.60049">
        <ele>836</ele>
        <time>2021-02-14T12:58:08Z</time>
      </trkpt>
      <trkpt lat="45.842" lon="3.60052">
        <ele>835</ele>
        <time>2021-02-14T12:58:10Z</time>
      </trkpt>
      <trkpt lat="45.84201" lon="3.60055">
        <ele>835</ele>
        <time>2021-02-14T12:58:12Z</time>
      </trkpt>
      <trkpt lat="45.84202" lon="3.60057">
        <ele>834</ele>
        <time>2021-02-14T12:58:14Z</time>
      </trkpt>
      <trkpt lat="45.842" lon="3.6006">
        <ele>834</ele>
        <time>2021-02-14T12:58:16Z</time>
      </trkpt>
      <trkpt lat="45.84198" lon="3.60059">
        <ele>835</ele>
        <time>2021-02-14T12:58:23Z</time>
      </trkpt>
      <trkpt lat="45.84196" lon="3.60059">
        <ele>835</ele>
        <time>2021-02-14T12:58:25Z</time>
      </trkpt>
      <trkpt lat="45.84193" lon="3.60058">
        <ele>835</ele>
        <time>2021-02-14T12:58:27Z</time>
      </trkpt>
      <trkpt lat="45.84191" lon="3.60058">
        <ele>835</ele>
        <time>2021-02-14T12:58:28Z</time>
      </trkpt>
      <trkpt lat="45.84188" lon="3.60059">
        <ele>835</ele>
        <time>2021-02-14T12:58:30Z</time>
      </trkpt>
      <trkpt lat="45.84186" lon="3.60061">
        <ele>835</ele>
        <time>2021-02-14T12:58:32Z</time>
      </trkpt>
      <trkpt lat="45.84184" lon="3.60061">
        <ele>834</ele>
        <time>2021-02-14T12:58:38Z</time>
      </trkpt>
      <trkpt lat="45.84182" lon="3.60062">
        <ele>834</ele>
        <time>2021-02-14T12:58:44Z</time>
      </trkpt>
      <trkpt lat="45.8418" lon="3.60064">
        <ele>834</ele>
        <time>2021-02-14T12:58:50Z</time>
      </trkpt>
      <trkpt lat="45.84179" lon="3.60066">
        <ele>834</ele>
        <time>2021-02-14T12:58:55Z</time>
      </trkpt>
      <trkpt lat="45.84178" lon="3.60068">
        <ele>833</ele>
        <time>2021-02-14T12:59:08Z</time>
      </trkpt>
      <trkpt lat="45.84176" lon="3.6007">
        <ele>833</ele>
        <time>2021-02-14T12:59:12Z</time>
      </trkpt>
      <trkpt lat="45.84175" lon="3.60072">
        <ele>833</ele>
        <time>2021-02-14T12:59:17Z</time>
      </trkpt>
      <trkpt lat="45.84174" lon="3.60075">
        <ele>833</ele>
        <time>2021-02-14T12:59:19Z</time>
      </trkpt>
      <trkpt lat="45.84175" lon="3.60077">
        <ele>832</ele>
        <time>2021-02-14T13:00:15Z</time>
      </trkpt>
      <trkpt lat="45.84175" lon="3.6008">
        <ele>832</ele>
        <time>2021-02-14T13:00:18Z</time>
      </trkpt>
      <trkpt lat="45.84173" lon="3.6008">
        <ele>832</ele>
        <time>2021-02-14T13:00:23Z</time>
      </trkpt>
      <trkpt lat="45.84171" lon="3.60079">
        <ele>832</ele>
        <time>2021-02-14T13:00:26Z</time>
      </trkpt>
      <trkpt lat="45.84169" lon="3.60078">
        <ele>832</ele>
        <time>2021-02-14T13:00:30Z</time>
      </trkpt>
      <trkpt lat="45.84167" lon="3.60077">
        <ele>832</ele>
        <time>2021-02-14T13:00:33Z</time>
      </trkpt>
      <trkpt lat="45.84164" lon="3.60078">
        <ele>832</ele>
        <time>2021-02-14T13:00:35Z</time>
      </trkpt>
      <trkpt lat="45.84162" lon="3.60079">
        <ele>832</ele>
        <time>2021-02-14T13:00:37Z</time>
      </trkpt>
      <trkpt lat="45.8416" lon="3.6008">
        <ele>832</ele>
        <time>2021-02-14T13:00:38Z</time>
      </trkpt>
      <trkpt lat="45.84158" lon="3.6008">
        <ele>832</ele>
        <time>2021-02-14T13:00:40Z</time>
      </trkpt>
      <trkpt lat="45.84155" lon="3.6008">
        <ele>832</ele>
        <time>2021-02-14T13:00:42Z</time>
      </trkpt>
      <trkpt lat="45.84154" lon="3.60081">
        <ele>832</ele>
        <time>2021-02-14T13:00:44Z</time>
      </trkpt>
      <trkpt lat="45.84144" lon="3.60082">
        <ele>832</ele>
        <time>2021-02-14T13:01:01Z</time>
      </trkpt>
      <trkpt lat="45.84134" lon="3.60084">
        <ele>833</ele>
        <time>2021-02-14T13:01:11Z</time>
      </trkpt>
      <trkpt lat="45.84125" lon="3.60082">
        <ele>832</ele>
        <time>2021-02-14T13:01:22Z</time>
      </trkpt>
      <trkpt lat="45.84123" lon="3.60083">
        <ele>832</ele>
        <time>2021-02-14T13:01:25Z</time>
      </trkpt>
      <trkpt lat="45.84119" lon="3.60083">
        <ele>833</ele>
        <time>2021-02-14T13:01:27Z</time>
      </trkpt>
      <trkpt lat="45.84116" lon="3.60084">
        <ele>833</ele>
        <time>2021-02-14T13:01:29Z</time>
      </trkpt>
      <trkpt lat="45.84113" lon="3.60083">
        <ele>832</ele>
        <time>2021-02-14T13:01:32Z</time>
      </trkpt>
      <trkpt lat="45.84105" lon="3.60083">
        <ele>832</ele>
        <time>2021-02-14T13:01:36Z</time>
      </trkpt>
      <trkpt lat="45.84096" lon="3.60081">
        <ele>831</ele>
        <time>2021-02-14T13:01:42Z</time>
      </trkpt>
      <trkpt lat="45.84086" lon="3.60082">
        <ele>830</ele>
        <time>2021-02-14T13:01:47Z</time>
      </trkpt>
      <trkpt lat="45.84085" lon="3.60082">
        <ele>829</ele>
        <time>2021-02-14T13:01:49Z</time>
      </trkpt>
      <trkpt lat="45.84082" lon="3.6008">
        <ele>829</ele>
        <time>2021-02-14T13:01:52Z</time>
      </trkpt>
      <trkpt lat="45.8408" lon="3.60079">
        <ele>829</ele>
        <time>2021-02-14T13:01:58Z</time>
      </trkpt>
      <trkpt lat="45.84079" lon="3.60078">
        <ele>829</ele>
        <time>2021-02-14T13:02:11Z</time>
      </trkpt>
      <trkpt lat="45.84076" lon="3.6008">
        <ele>829</ele>
        <time>2021-02-14T13:02:12Z</time>
      </trkpt>
      <trkpt lat="45.84074" lon="3.6008">
        <ele>829</ele>
        <time>2021-02-14T13:02:14Z</time>
      </trkpt>
      <trkpt lat="45.84063" lon="3.60076">
        <ele>829</ele>
        <time>2021-02-14T13:02:27Z</time>
      </trkpt>
      <trkpt lat="45.84055" lon="3.6007">
        <ele>828</ele>
        <time>2021-02-14T13:02:34Z</time>
      </trkpt>
      <trkpt lat="45.84046" lon="3.60064">
        <ele>827</ele>
        <time>2021-02-14T13:02:41Z</time>
      </trkpt>
      <trkpt lat="45.84038" lon="3.60059">
        <ele>827</ele>
        <time>2021-02-14T13:02:49Z</time>
      </trkpt>
      <trkpt lat="45.8403" lon="3.60051">
        <ele>826</ele>
        <time>2021-02-14T13:02:56Z</time>
      </trkpt>
      <trkpt lat="45.84022" lon="3.60043">
        <ele>825</ele>
        <time>2021-02-14T13:03:02Z</time>
      </trkpt>
      <trkpt lat="45.84018" lon="3.6003">
        <ele>824</ele>
        <time>2021-02-14T13:03:10Z</time>
      </trkpt>
      <trkpt lat="45.84009" lon="3.60026">
        <ele>824</ele>
        <time>2021-02-14T13:03:17Z</time>
      </trkpt>
      <trkpt lat="45.84001" lon="3.60018">
        <ele>824</ele>
        <time>2021-02-14T13:03:26Z</time>
      </trkpt>
      <trkpt lat="45.83995" lon="3.60008">
        <ele>823</ele>
        <time>2021-02-14T13:03:32Z</time>
      </trkpt>
      <trkpt lat="45.83986" lon="3.6">
        <ele>823</ele>
        <time>2021-02-14T13:03:39Z</time>
      </trkpt>
      <trkpt lat="45.83979" lon="3.59991">
        <ele>823</ele>
        <time>2021-02-14T13:03:47Z</time>
      </trkpt>
      <trkpt lat="45.8397" lon="3.59985">
        <ele>823</ele>
        <time>2021-02-14T13:03:50Z</time>
      </trkpt>
      <trkpt lat="45.83964" lon="3.5998">
        <ele>823</ele>
        <time>2021-02-14T13:03:54Z</time>
      </trkpt>
      <trkpt lat="45.83962" lon="3.59977">
        <ele>823</ele>
        <time>2021-02-14T13:03:56Z</time>
      </trkpt>
      <trkpt lat="45.8396" lon="3.59974">
        <ele>823</ele>
        <time>2021-02-14T13:03:58Z</time>
      </trkpt>
      <trkpt lat="45.83958" lon="3.59971">
        <ele>824</ele>
        <time>2021-02-14T13:04:01Z</time>
      </trkpt>
      <trkpt lat="45.83954" lon="3.5997">
        <ele>824</ele>
        <time>2021-02-14T13:04:03Z</time>
      </trkpt>
      <trkpt lat="45.83951" lon="3.59969">
        <ele>824</ele>
        <time>2021-02-14T13:04:05Z</time>
      </trkpt>
      <trkpt lat="45.8395" lon="3.59968">
        <ele>824</ele>
        <time>2021-02-14T13:04:07Z</time>
      </trkpt>
      <trkpt lat="45.83948" lon="3.59967">
        <ele>824</ele>
        <time>2021-02-14T13:04:09Z</time>
      </trkpt>
      <trkpt lat="45.83946" lon="3.59965">
        <ele>825</ele>
        <time>2021-02-14T13:04:11Z</time>
      </trkpt>
      <trkpt lat="45.83943" lon="3.59963">
        <ele>825</ele>
        <time>2021-02-14T13:04:14Z</time>
      </trkpt>
      <trkpt lat="45.83941" lon="3.59962">
        <ele>825</ele>
        <time>2021-02-14T13:04:17Z</time>
      </trkpt>
      <trkpt lat="45.83939" lon="3.59959">
        <ele>825</ele>
        <time>2021-02-14T13:04:19Z</time>
      </trkpt>
      <trkpt lat="45.83936" lon="3.59955">
        <ele>825</ele>
        <time>2021-02-14T13:04:21Z</time>
      </trkpt>
      <trkpt lat="45.83934" lon="3.59954">
        <ele>825</ele>
        <time>2021-02-14T13:04:23Z</time>
      </trkpt>
      <trkpt lat="45.83932" lon="3.59955">
        <ele>825</ele>
        <time>2021-02-14T13:04:25Z</time>
      </trkpt>
      <trkpt lat="45.8393" lon="3.59959">
        <ele>825</ele>
        <time>2021-02-14T13:04:28Z</time>
      </trkpt>
      <trkpt lat="45.83929" lon="3.59961">
        <ele>825</ele>
        <time>2021-02-14T13:04:30Z</time>
      </trkpt>
      <trkpt lat="45.83928" lon="3.59964">
        <ele>825</ele>
        <time>2021-02-14T13:04:32Z</time>
      </trkpt>
      <trkpt lat="45.83927" lon="3.59967">
        <ele>825</ele>
        <time>2021-02-14T13:04:34Z</time>
      </trkpt>
      <trkpt lat="45.83926" lon="3.59969">
        <ele>825</ele>
        <time>2021-02-14T13:04:36Z</time>
      </trkpt>
      <trkpt lat="45.83926" lon="3.59972">
        <ele>824</ele>
        <time>2021-02-14T13:04:39Z</time>
      </trkpt>
      <trkpt lat="45.83926" lon="3.59976">
        <ele>824</ele>
        <time>2021-02-14T13:04:43Z</time>
      </trkpt>
      <trkpt lat="45.83926" lon="3.5998">
        <ele>824</ele>
        <time>2021-02-14T13:04:45Z</time>
      </trkpt>
      <trkpt lat="45.83926" lon="3.59983">
        <ele>824</ele>
        <time>2021-02-14T13:04:47Z</time>
      </trkpt>
      <trkpt lat="45.83927" lon="3.59986">
        <ele>824</ele>
        <time>2021-02-14T13:04:49Z</time>
      </trkpt>
      <trkpt lat="45.83926" lon="3.5999">
        <ele>824</ele>
        <time>2021-02-14T13:04:51Z</time>
      </trkpt>
      <trkpt lat="45.83926" lon="3.59993">
        <ele>824</ele>
        <time>2021-02-14T13:04:53Z</time>
      </trkpt>
      <trkpt lat="45.83925" lon="3.59997">
        <ele>824</ele>
        <time>2021-02-14T13:04:55Z</time>
      </trkpt>
      <trkpt lat="45.83925" lon="3.60001">
        <ele>824</ele>
        <time>2021-02-14T13:04:57Z</time>
      </trkpt>
      <trkpt lat="45.83925" lon="3.60005">
        <ele>823</ele>
        <time>2021-02-14T13:04:59Z</time>
      </trkpt>
      <trkpt lat="45.83925" lon="3.6001">
        <ele>823</ele>
        <time>2021-02-14T13:05:01Z</time>
      </trkpt>
      <trkpt lat="45.83924" lon="3.60014">
        <ele>823</ele>
        <time>2021-02-14T13:05:03Z</time>
      </trkpt>
      <trkpt lat="45.83923" lon="3.60018">
        <ele>822</ele>
        <time>2021-02-14T13:05:05Z</time>
      </trkpt>
      <trkpt lat="45.83923" lon="3.60022">
        <ele>822</ele>
        <time>2021-02-14T13:05:07Z</time>
      </trkpt>
      <trkpt lat="45.83922" lon="3.60026">
        <ele>821</ele>
        <time>2021-02-14T13:05:09Z</time>
      </trkpt>
      <trkpt lat="45.83921" lon="3.6003">
        <ele>821</ele>
        <time>2021-02-14T13:05:11Z</time>
      </trkpt>
      <trkpt lat="45.8392" lon="3.60035">
        <ele>820</ele>
        <time>2021-02-14T13:05:13Z</time>
      </trkpt>
      <trkpt lat="45.83919" lon="3.60038">
        <ele>820</ele>
        <time>2021-02-14T13:05:14Z</time>
      </trkpt>
      <trkpt lat="45.83918" lon="3.60041">
        <ele>819</ele>
        <time>2021-02-14T13:05:16Z</time>
      </trkpt>
      <trkpt lat="45.83918" lon="3.60045">
        <ele>818</ele>
        <time>2021-02-14T13:05:18Z</time>
      </trkpt>
      <trkpt lat="45.83917" lon="3.60048">
        <ele>818</ele>
        <time>2021-02-14T13:05:20Z</time>
      </trkpt>
      <trkpt lat="45.83917" lon="3.60052">
        <ele>817</ele>
        <time>2021-02-14T13:05:22Z</time>
      </trkpt>
      <trkpt lat="45.83917" lon="3.60056">
        <ele>817</ele>
        <time>2021-02-14T13:05:24Z</time>
      </trkpt>
      <trkpt lat="45.83917" lon="3.6006">
        <ele>816</ele>
        <time>2021-02-14T13:05:26Z</time>
      </trkpt>
      <trkpt lat="45.83917" lon="3.60063">
        <ele>815</ele>
        <time>2021-02-14T13:05:28Z</time>
      </trkpt>
      <trkpt lat="45.83917" lon="3.60066">
        <ele>815</ele>
        <time>2021-02-14T13:05:30Z</time>
      </trkpt>
      <trkpt lat="45.83917" lon="3.6007">
        <ele>814</ele>
        <time>2021-02-14T13:05:32Z</time>
      </trkpt>
      <trkpt lat="45.83917" lon="3.60074">
        <ele>813</ele>
        <time>2021-02-14T13:05:34Z</time>
      </trkpt>
      <trkpt lat="45.83917" lon="3.60077">
        <ele>813</ele>
        <time>2021-02-14T13:05:36Z</time>
      </trkpt>
      <trkpt lat="45.83916" lon="3.60081">
        <ele>812</ele>
        <time>2021-02-14T13:05:39Z</time>
      </trkpt>
      <trkpt lat="45.83916" lon="3.60084">
        <ele>811</ele>
        <time>2021-02-14T13:05:41Z</time>
      </trkpt>
      <trkpt lat="45.83916" lon="3.60087">
        <ele>811</ele>
        <time>2021-02-14T13:05:43Z</time>
      </trkpt>
      <trkpt lat="45.83917" lon="3.60091">
        <ele>810</ele>
        <time>2021-02-14T13:05:45Z</time>
      </trkpt>
      <trkpt lat="45.83917" lon="3.60093">
        <ele>809</ele>
        <time>2021-02-14T13:05:47Z</time>
      </trkpt>
      <trkpt lat="45.83917" lon="3.60096">
        <ele>809</ele>
        <time>2021-02-14T13:05:49Z</time>
      </trkpt>
      <trkpt lat="45.83917" lon="3.60099">
        <ele>808</ele>
        <time>2021-02-14T13:05:51Z</time>
      </trkpt>
      <trkpt lat="45.83917" lon="3.60103">
        <ele>807</ele>
        <time>2021-02-14T13:05:54Z</time>
      </trkpt>
      <trkpt lat="45.83915" lon="3.60105">
        <ele>806</ele>
        <time>2021-02-14T13:05:56Z</time>
      </trkpt>
      <trkpt lat="45.83914" lon="3.60108">
        <ele>805</ele>
        <time>2021-02-14T13:06:00Z</time>
      </trkpt>
      <trkpt lat="45.83913" lon="3.6011">
        <ele>804</ele>
        <time>2021-02-14T13:06:05Z</time>
      </trkpt>
      <trkpt lat="45.83912" lon="3.60114">
        <ele>803</ele>
        <time>2021-02-14T13:06:08Z</time>
      </trkpt>
      <trkpt lat="45.83912" lon="3.60117">
        <ele>802</ele>
        <time>2021-02-14T13:06:11Z</time>
      </trkpt>
      <trkpt lat="45.83912" lon="3.6012">
        <ele>802</ele>
        <time>2021-02-14T13:06:14Z</time>
      </trkpt>
      <trkpt lat="45.83911" lon="3.60123">
        <ele>800</ele>
        <time>2021-02-14T13:06:18Z</time>
      </trkpt>
      <trkpt lat="45.83911" lon="3.60126">
        <ele>800</ele>
        <time>2021-02-14T13:06:22Z</time>
      </trkpt>
      <trkpt lat="45.8391" lon="3.60129">
        <ele>798</ele>
        <time>2021-02-14T13:06:25Z</time>
      </trkpt>
      <trkpt lat="45.8391" lon="3.60133">
        <ele>797</ele>
        <time>2021-02-14T13:06:28Z</time>
      </trkpt>
      <trkpt lat="45.83909" lon="3.60136">
        <ele>796</ele>
        <time>2021-02-14T13:06:30Z</time>
      </trkpt>
      <trkpt lat="45.83909" lon="3.60139">
        <ele>795</ele>
        <time>2021-02-14T13:06:32Z</time>
      </trkpt>
      <trkpt lat="45.8391" lon="3.60142">
        <ele>795</ele>
        <time>2021-02-14T13:06:34Z</time>
      </trkpt>
      <trkpt lat="45.83909" lon="3.60146">
        <ele>795</ele>
        <time>2021-02-14T13:06:36Z</time>
      </trkpt>
      <trkpt lat="45.83908" lon="3.60148">
        <ele>794</ele>
        <time>2021-02-14T13:06:38Z</time>
      </trkpt>
      <trkpt lat="45.83907" lon="3.6015">
        <ele>793</ele>
        <time>2021-02-14T13:06:42Z</time>
      </trkpt>
      <trkpt lat="45.83905" lon="3.60152">
        <ele>792</ele>
        <time>2021-02-14T13:06:44Z</time>
      </trkpt>
      <trkpt lat="45.83905" lon="3.60155">
        <ele>792</ele>
        <time>2021-02-14T13:06:47Z</time>
      </trkpt>
      <trkpt lat="45.83905" lon="3.60159">
        <ele>791</ele>
        <time>2021-02-14T13:06:49Z</time>
      </trkpt>
      <trkpt lat="45.83906" lon="3.60163">
        <ele>791</ele>
        <time>2021-02-14T13:06:51Z</time>
      </trkpt>
      <trkpt lat="45.83906" lon="3.6017">
        <ele>791</ele>
        <time>2021-02-14T13:06:54Z</time>
      </trkpt>
      <trkpt lat="45.83905" lon="3.60176">
        <ele>790</ele>
        <time>2021-02-14T13:06:57Z</time>
      </trkpt>
      <trkpt lat="45.83902" lon="3.60177">
        <ele>788</ele>
        <time>2021-02-14T13:06:59Z</time>
      </trkpt>
      <trkpt lat="45.839" lon="3.60176">
        <ele>788</ele>
        <time>2021-02-14T13:07:00Z</time>
      </trkpt>
      <trkpt lat="45.83898" lon="3.60175">
        <ele>787</ele>
        <time>2021-02-14T13:07:01Z</time>
      </trkpt>
      <trkpt lat="45.83896" lon="3.60171">
        <ele>786</ele>
        <time>2021-02-14T13:07:03Z</time>
      </trkpt>
      <trkpt lat="45.83894" lon="3.60169">
        <ele>786</ele>
        <time>2021-02-14T13:07:04Z</time>
      </trkpt>
      <trkpt lat="45.83893" lon="3.60167">
        <ele>785</ele>
        <time>2021-02-14T13:07:05Z</time>
      </trkpt>
      <trkpt lat="45.83891" lon="3.60165">
        <ele>785</ele>
        <time>2021-02-14T13:07:06Z</time>
      </trkpt>
      <trkpt lat="45.83889" lon="3.60164">
        <ele>784</ele>
        <time>2021-02-14T13:07:07Z</time>
      </trkpt>
      <trkpt lat="45.83886" lon="3.60162">
        <ele>783</ele>
        <time>2021-02-14T13:07:09Z</time>
      </trkpt>
      <trkpt lat="45.83885" lon="3.6016">
        <ele>783</ele>
        <time>2021-02-14T13:07:11Z</time>
      </trkpt>
      <trkpt lat="45.83883" lon="3.60158">
        <ele>782</ele>
        <time>2021-02-14T13:07:14Z</time>
      </trkpt>
      <trkpt lat="45.83881" lon="3.60155">
        <ele>782</ele>
        <time>2021-02-14T13:07:17Z</time>
      </trkpt>
      <trkpt lat="45.83879" lon="3.60153">
        <ele>782</ele>
        <time>2021-02-14T13:07:19Z</time>
      </trkpt>
      <trkpt lat="45.83878" lon="3.60151">
        <ele>782</ele>
        <time>2021-02-14T13:07:21Z</time>
      </trkpt>
      <trkpt lat="45.83876" lon="3.60148">
        <ele>781</ele>
        <time>2021-02-14T13:07:23Z</time>
      </trkpt>
      <trkpt lat="45.83875" lon="3.60146">
        <ele>781</ele>
        <time>2021-02-14T13:07:25Z</time>
      </trkpt>
      <trkpt lat="45.83874" lon="3.60143">
        <ele>781</ele>
        <time>2021-02-14T13:07:27Z</time>
      </trkpt>
      <trkpt lat="45.83873" lon="3.6014">
        <ele>781</ele>
        <time>2021-02-14T13:07:29Z</time>
      </trkpt>
      <trkpt lat="45.83872" lon="3.60138">
        <ele>781</ele>
        <time>2021-02-14T13:07:30Z</time>
      </trkpt>
      <trkpt lat="45.83871" lon="3.60133">
        <ele>781</ele>
        <time>2021-02-14T13:07:32Z</time>
      </trkpt>
      <trkpt lat="45.8387" lon="3.6013">
        <ele>781</ele>
        <time>2021-02-14T13:07:34Z</time>
      </trkpt>
      <trkpt lat="45.83869" lon="3.60126">
        <ele>782</ele>
        <time>2021-02-14T13:07:37Z</time>
      </trkpt>
      <trkpt lat="45.83868" lon="3.60123">
        <ele>782</ele>
        <time>2021-02-14T13:07:39Z</time>
      </trkpt>
      <trkpt lat="45.83866" lon="3.6012">
        <ele>782</ele>
        <time>2021-02-14T13:07:41Z</time>
      </trkpt>
      <trkpt lat="45.83863" lon="3.60114">
        <ele>782</ele>
        <time>2021-02-14T13:07:47Z</time>
      </trkpt>
      <trkpt lat="45.8386" lon="3.60112">
        <ele>781</ele>
        <time>2021-02-14T13:07:53Z</time>
      </trkpt>
      <trkpt lat="45.83858" lon="3.60109">
        <ele>781</ele>
        <time>2021-02-14T13:07:55Z</time>
      </trkpt>
      <trkpt lat="45.83857" lon="3.60106">
        <ele>782</ele>
        <time>2021-02-14T13:07:57Z</time>
      </trkpt>
      <trkpt lat="45.83856" lon="3.60102">
        <ele>783</ele>
        <time>2021-02-14T13:07:59Z</time>
      </trkpt>
      <trkpt lat="45.83856" lon="3.60099">
        <ele>784</ele>
        <time>2021-02-14T13:08:00Z</time>
      </trkpt>
      <trkpt lat="45.83856" lon="3.60096">
        <ele>785</ele>
        <time>2021-02-14T13:08:02Z</time>
      </trkpt>
      <trkpt lat="45.83856" lon="3.60093">
        <ele>786</ele>
        <time>2021-02-14T13:08:04Z</time>
      </trkpt>
      <trkpt lat="45.83855" lon="3.6009">
        <ele>787</ele>
        <time>2021-02-14T13:08:06Z</time>
      </trkpt>
      <trkpt lat="45.83853" lon="3.60087">
        <ele>787</ele>
        <time>2021-02-14T13:08:09Z</time>
      </trkpt>
      <trkpt lat="45.83851" lon="3.60084">
        <ele>788</ele>
        <time>2021-02-14T13:08:11Z</time>
      </trkpt>
      <trkpt lat="45.8385" lon="3.60081">
        <ele>788</ele>
        <time>2021-02-14T13:08:13Z</time>
      </trkpt>
      <trkpt lat="45.83849" lon="3.60079">
        <ele>788</ele>
        <time>2021-02-14T13:08:15Z</time>
      </trkpt>
      <trkpt lat="45.83848" lon="3.60077">
        <ele>789</ele>
        <time>2021-02-14T13:08:18Z</time>
      </trkpt>
      <trkpt lat="45.83848" lon="3.60074">
        <ele>789</ele>
        <time>2021-02-14T13:08:21Z</time>
      </trkpt>
      <trkpt lat="45.83846" lon="3.60072">
        <ele>789</ele>
        <time>2021-02-14T13:08:24Z</time>
      </trkpt>
      <trkpt lat="45.83844" lon="3.60071">
        <ele>789</ele>
        <time>2021-02-14T13:08:26Z</time>
      </trkpt>
      <trkpt lat="45.83842" lon="3.60069">
        <ele>789</ele>
        <time>2021-02-14T13:08:28Z</time>
      </trkpt>
      <trkpt lat="45.83841" lon="3.60065">
        <ele>789</ele>
        <time>2021-02-14T13:08:31Z</time>
      </trkpt>
      <trkpt lat="45.83839" lon="3.60058">
        <ele>790</ele>
        <time>2021-02-14T13:08:35Z</time>
      </trkpt>
      <trkpt lat="45.83838" lon="3.60055">
        <ele>791</ele>
        <time>2021-02-14T13:08:39Z</time>
      </trkpt>
      <trkpt lat="45.83837" lon="3.60051">
        <ele>791</ele>
        <time>2021-02-14T13:08:41Z</time>
      </trkpt>
      <trkpt lat="45.83836" lon="3.60043">
        <ele>793</ele>
        <time>2021-02-14T13:08:45Z</time>
      </trkpt>
      <trkpt lat="45.83834" lon="3.60042">
        <ele>793</ele>
        <time>2021-02-14T13:08:47Z</time>
      </trkpt>
      <trkpt lat="45.83832" lon="3.60041">
        <ele>792</ele>
        <time>2021-02-14T13:08:48Z</time>
      </trkpt>
      <trkpt lat="45.83829" lon="3.6004">
        <ele>792</ele>
        <time>2021-02-14T13:08:50Z</time>
      </trkpt>
      <trkpt lat="45.83827" lon="3.60039">
        <ele>791</ele>
        <time>2021-02-14T13:08:52Z</time>
      </trkpt>
      <trkpt lat="45.83825" lon="3.60037">
        <ele>791</ele>
        <time>2021-02-14T13:08:54Z</time>
      </trkpt>
      <trkpt lat="45.83823" lon="3.60035">
        <ele>791</ele>
        <time>2021-02-14T13:08:56Z</time>
      </trkpt>
      <trkpt lat="45.83821" lon="3.60033">
        <ele>791</ele>
        <time>2021-02-14T13:08:58Z</time>
      </trkpt>
      <trkpt lat="45.8382" lon="3.60031">
        <ele>791</ele>
        <time>2021-02-14T13:09:00Z</time>
      </trkpt>
      <trkpt lat="45.83818" lon="3.60029">
        <ele>791</ele>
        <time>2021-02-14T13:09:02Z</time>
      </trkpt>
      <trkpt lat="45.83815" lon="3.60024">
        <ele>792</ele>
        <time>2021-02-14T13:09:06Z</time>
      </trkpt>
      <trkpt lat="45.83814" lon="3.60021">
        <ele>792</ele>
        <time>2021-02-14T13:09:08Z</time>
      </trkpt>
      <trkpt lat="45.83814" lon="3.60017">
        <ele>792</ele>
        <time>2021-02-14T13:09:10Z</time>
      </trkpt>
      <trkpt lat="45.83814" lon="3.60014">
        <ele>793</ele>
        <time>2021-02-14T13:09:11Z</time>
      </trkpt>
      <trkpt lat="45.83813" lon="3.60012">
        <ele>793</ele>
        <time>2021-02-14T13:09:12Z</time>
      </trkpt>
      <trkpt lat="45.83813" lon="3.60007">
        <ele>793</ele>
        <time>2021-02-14T13:09:14Z</time>
      </trkpt>
      <trkpt lat="45.83812" lon="3.60004">
        <ele>794</ele>
        <time>2021-02-14T13:09:15Z</time>
      </trkpt>
      <trkpt lat="45.83811" lon="3.60001">
        <ele>794</ele>
        <time>2021-02-14T13:09:17Z</time>
      </trkpt>
      <trkpt lat="45.83811" lon="3.59996">
        <ele>794</ele>
        <time>2021-02-14T13:09:19Z</time>
      </trkpt>
      <trkpt lat="45.8381" lon="3.59993">
        <ele>795</ele>
        <time>2021-02-14T13:09:20Z</time>
      </trkpt>
      <trkpt lat="45.83809" lon="3.59991">
        <ele>794</ele>
        <time>2021-02-14T13:09:22Z</time>
      </trkpt>
      <trkpt lat="45.83807" lon="3.59989">
        <ele>794</ele>
        <time>2021-02-14T13:09:24Z</time>
      </trkpt>
      <trkpt lat="45.83805" lon="3.59986">
        <ele>794</ele>
        <time>2021-02-14T13:09:26Z</time>
      </trkpt>
      <trkpt lat="45.83802" lon="3.59984">
        <ele>793</ele>
        <time>2021-02-14T13:09:28Z</time>
      </trkpt>
      <trkpt lat="45.838" lon="3.59982">
        <ele>793</ele>
        <time>2021-02-14T13:09:30Z</time>
      </trkpt>
      <trkpt lat="45.83798" lon="3.5998">
        <ele>793</ele>
        <time>2021-02-14T13:09:32Z</time>
      </trkpt>
      <trkpt lat="45.83796" lon="3.59977">
        <ele>792</ele>
        <time>2021-02-14T13:09:34Z</time>
      </trkpt>
      <trkpt lat="45.83794" lon="3.59975">
        <ele>792</ele>
        <time>2021-02-14T13:09:35Z</time>
      </trkpt>
      <trkpt lat="45.83792" lon="3.59974">
        <ele>792</ele>
        <time>2021-02-14T13:09:36Z</time>
      </trkpt>
      <trkpt lat="45.8379" lon="3.59972">
        <ele>791</ele>
        <time>2021-02-14T13:09:38Z</time>
      </trkpt>
      <trkpt lat="45.83788" lon="3.5997">
        <ele>791</ele>
        <time>2021-02-14T13:09:40Z</time>
      </trkpt>
      <trkpt lat="45.83785" lon="3.59968">
        <ele>790</ele>
        <time>2021-02-14T13:09:42Z</time>
      </trkpt>
      <trkpt lat="45.83784" lon="3.59965">
        <ele>790</ele>
        <time>2021-02-14T13:09:44Z</time>
      </trkpt>
      <trkpt lat="45.83782" lon="3.59962">
        <ele>790</ele>
        <time>2021-02-14T13:09:46Z</time>
      </trkpt>
      <trkpt lat="45.83781" lon="3.59959">
        <ele>790</ele>
        <time>2021-02-14T13:09:47Z</time>
      </trkpt>
      <trkpt lat="45.8378" lon="3.59956">
        <ele>791</ele>
        <time>2021-02-14T13:09:48Z</time>
      </trkpt>
      <trkpt lat="45.83779" lon="3.59954">
        <ele>791</ele>
        <time>2021-02-14T13:09:49Z</time>
      </trkpt>
      <trkpt lat="45.83779" lon="3.5995">
        <ele>791</ele>
        <time>2021-02-14T13:09:51Z</time>
      </trkpt>
      <trkpt lat="45.83779" lon="3.59947">
        <ele>791</ele>
        <time>2021-02-14T13:09:53Z</time>
      </trkpt>
      <trkpt lat="45.83778" lon="3.59944">
        <ele>792</ele>
        <time>2021-02-14T13:09:56Z</time>
      </trkpt>
      <trkpt lat="45.83778" lon="3.5994">
        <ele>792</ele>
        <time>2021-02-14T13:09:58Z</time>
      </trkpt>
      <trkpt lat="45.83777" lon="3.59936">
        <ele>792</ele>
        <time>2021-02-14T13:10:00Z</time>
      </trkpt>
      <trkpt lat="45.83777" lon="3.59933">
        <ele>792</ele>
        <time>2021-02-14T13:10:02Z</time>
      </trkpt>
      <trkpt lat="45.83775" lon="3.59931">
        <ele>792</ele>
        <time>2021-02-14T13:10:04Z</time>
      </trkpt>
      <trkpt lat="45.83774" lon="3.59927">
        <ele>792</ele>
        <time>2021-02-14T13:10:06Z</time>
      </trkpt>
      <trkpt lat="45.83773" lon="3.59925">
        <ele>792</ele>
        <time>2021-02-14T13:10:08Z</time>
      </trkpt>
      <trkpt lat="45.83771" lon="3.59923">
        <ele>792</ele>
        <time>2021-02-14T13:10:10Z</time>
      </trkpt>
      <trkpt lat="45.8377" lon="3.59919">
        <ele>792</ele>
        <time>2021-02-14T13:10:13Z</time>
      </trkpt>
      <trkpt lat="45.83768" lon="3.59917">
        <ele>791</ele>
        <time>2021-02-14T13:10:15Z</time>
      </trkpt>
      <trkpt lat="45.83768" lon="3.59914">
        <ele>791</ele>
        <time>2021-02-14T13:10:17Z</time>
      </trkpt>
      <trkpt lat="45.83767" lon="3.59911">
        <ele>791</ele>
        <time>2021-02-14T13:10:19Z</time>
      </trkpt>
      <trkpt lat="45.83766" lon="3.59906">
        <ele>791</ele>
        <time>2021-02-14T13:10:21Z</time>
      </trkpt>
      <trkpt lat="45.83765" lon="3.59903">
        <ele>791</ele>
        <time>2021-02-14T13:10:22Z</time>
      </trkpt>
      <trkpt lat="45.83765" lon="3.599">
        <ele>792</ele>
        <time>2021-02-14T13:10:23Z</time>
      </trkpt>
      <trkpt lat="45.83765" lon="3.59897">
        <ele>792</ele>
        <time>2021-02-14T13:10:24Z</time>
      </trkpt>
      <trkpt lat="45.83764" lon="3.59894">
        <ele>792</ele>
        <time>2021-02-14T13:10:25Z</time>
      </trkpt>
      <trkpt lat="45.83763" lon="3.59891">
        <ele>792</ele>
        <time>2021-02-14T13:10:28Z</time>
      </trkpt>
      <trkpt lat="45.83762" lon="3.59887">
        <ele>791</ele>
        <time>2021-02-14T13:10:30Z</time>
      </trkpt>
      <trkpt lat="45.83762" lon="3.59884">
        <ele>792</ele>
        <time>2021-02-14T13:10:31Z</time>
      </trkpt>
      <trkpt lat="45.83761" lon="3.5988">
        <ele>791</ele>
        <time>2021-02-14T13:10:33Z</time>
      </trkpt>
      <trkpt lat="45.8376" lon="3.59876">
        <ele>791</ele>
        <time>2021-02-14T13:10:35Z</time>
      </trkpt>
      <trkpt lat="45.83759" lon="3.59872">
        <ele>791</ele>
        <time>2021-02-14T13:10:37Z</time>
      </trkpt>
      <trkpt lat="45.83759" lon="3.59868">
        <ele>791</ele>
        <time>2021-02-14T13:10:39Z</time>
      </trkpt>
      <trkpt lat="45.83758" lon="3.59865">
        <ele>791</ele>
        <time>2021-02-14T13:10:41Z</time>
      </trkpt>
      <trkpt lat="45.83758" lon="3.59861">
        <ele>791</ele>
        <time>2021-02-14T13:10:43Z</time>
      </trkpt>
      <trkpt lat="45.83758" lon="3.59858">
        <ele>791</ele>
        <time>2021-02-14T13:10:45Z</time>
      </trkpt>
      <trkpt lat="45.83758" lon="3.59853">
        <ele>791</ele>
        <time>2021-02-14T13:10:47Z</time>
      </trkpt>
      <trkpt lat="45.83759" lon="3.5985">
        <ele>792</ele>
        <time>2021-02-14T13:10:48Z</time>
      </trkpt>
      <trkpt lat="45.8376" lon="3.59846">
        <ele>792</ele>
        <time>2021-02-14T13:10:50Z</time>
      </trkpt>
      <trkpt lat="45.83762" lon="3.59842">
        <ele>792</ele>
        <time>2021-02-14T13:10:52Z</time>
      </trkpt>
      <trkpt lat="45.83763" lon="3.59838">
        <ele>793</ele>
        <time>2021-02-14T13:10:54Z</time>
      </trkpt>
      <trkpt lat="45.83765" lon="3.59836">
        <ele>793</ele>
        <time>2021-02-14T13:10:56Z</time>
      </trkpt>
      <trkpt lat="45.83766" lon="3.59832">
        <ele>794</ele>
        <time>2021-02-14T13:10:58Z</time>
      </trkpt>
      <trkpt lat="45.83766" lon="3.59829">
        <ele>793</ele>
        <time>2021-02-14T13:11:00Z</time>
      </trkpt>
      <trkpt lat="45.83766" lon="3.59826">
        <ele>793</ele>
        <time>2021-02-14T13:11:01Z</time>
      </trkpt>
      <trkpt lat="45.83766" lon="3.59823">
        <ele>793</ele>
        <time>2021-02-14T13:11:03Z</time>
      </trkpt>
      <trkpt lat="45.83766" lon="3.59818">
        <ele>792</ele>
        <time>2021-02-14T13:11:05Z</time>
      </trkpt>
      <trkpt lat="45.83767" lon="3.59815">
        <ele>792</ele>
        <time>2021-02-14T13:11:07Z</time>
      </trkpt>
      <trkpt lat="45.83769" lon="3.59811">
        <ele>793</ele>
        <time>2021-02-14T13:11:09Z</time>
      </trkpt>
      <trkpt lat="45.8377" lon="3.59807">
        <ele>793</ele>
        <time>2021-02-14T13:11:11Z</time>
      </trkpt>
      <trkpt lat="45.8377" lon="3.59805">
        <ele>793</ele>
        <time>2021-02-14T13:11:13Z</time>
      </trkpt>
      <trkpt lat="45.83771" lon="3.59801">
        <ele>793</ele>
        <time>2021-02-14T13:11:15Z</time>
      </trkpt>
      <trkpt lat="45.83772" lon="3.59797">
        <ele>793</ele>
        <time>2021-02-14T13:11:17Z</time>
      </trkpt>
      <trkpt lat="45.83774" lon="3.59795">
        <ele>793</ele>
        <time>2021-02-14T13:11:18Z</time>
      </trkpt>
      <trkpt lat="45.83775" lon="3.59793">
        <ele>793</ele>
        <time>2021-02-14T13:11:19Z</time>
      </trkpt>
      <trkpt lat="45.83776" lon="3.5979">
        <ele>793</ele>
        <time>2021-02-14T13:11:20Z</time>
      </trkpt>
      <trkpt lat="45.83777" lon="3.59786">
        <ele>793</ele>
        <time>2021-02-14T13:11:22Z</time>
      </trkpt>
      <trkpt lat="45.83777" lon="3.59783">
        <ele>793</ele>
        <time>2021-02-14T13:11:23Z</time>
      </trkpt>
      <trkpt lat="45.83777" lon="3.59778">
        <ele>792</ele>
        <time>2021-02-14T13:11:25Z</time>
      </trkpt>
      <trkpt lat="45.83779" lon="3.59775">
        <ele>793</ele>
        <time>2021-02-14T13:11:26Z</time>
      </trkpt>
      <trkpt lat="45.83781" lon="3.59772">
        <ele>793</ele>
        <time>2021-02-14T13:11:28Z</time>
      </trkpt>
      <trkpt lat="45.83782" lon="3.59768">
        <ele>793</ele>
        <time>2021-02-14T13:11:30Z</time>
      </trkpt>
      <trkpt lat="45.83784" lon="3.59766">
        <ele>794</ele>
        <time>2021-02-14T13:11:32Z</time>
      </trkpt>
      <trkpt lat="45.83785" lon="3.59763">
        <ele>794</ele>
        <time>2021-02-14T13:11:35Z</time>
      </trkpt>
      <trkpt lat="45.83787" lon="3.59761">
        <ele>794</ele>
        <time>2021-02-14T13:11:41Z</time>
      </trkpt>
      <trkpt lat="45.83786" lon="3.59759">
        <ele>794</ele>
        <time>2021-02-14T13:11:45Z</time>
      </trkpt>
      <trkpt lat="45.83784" lon="3.59757">
        <ele>793</ele>
        <time>2021-02-14T13:11:47Z</time>
      </trkpt>
      <trkpt lat="45.83783" lon="3.59754">
        <ele>793</ele>
        <time>2021-02-14T13:11:50Z</time>
      </trkpt>
      <trkpt lat="45.83781" lon="3.59752">
        <ele>792</ele>
        <time>2021-02-14T13:11:52Z</time>
      </trkpt>
      <trkpt lat="45.83779" lon="3.5975">
        <ele>792</ele>
        <time>2021-02-14T13:11:54Z</time>
      </trkpt>
      <trkpt lat="45.83777" lon="3.59748">
        <ele>791</ele>
        <time>2021-02-14T13:11:55Z</time>
      </trkpt>
      <trkpt lat="45.83776" lon="3.59746">
        <ele>791</ele>
        <time>2021-02-14T13:11:56Z</time>
      </trkpt>
      <trkpt lat="45.83774" lon="3.59743">
        <ele>791</ele>
        <time>2021-02-14T13:11:58Z</time>
      </trkpt>
      <trkpt lat="45.83772" lon="3.59741">
        <ele>790</ele>
        <time>2021-02-14T13:12:00Z</time>
      </trkpt>
      <trkpt lat="45.8377" lon="3.5974">
        <ele>790</ele>
        <time>2021-02-14T13:12:01Z</time>
      </trkpt>
      <trkpt lat="45.83767" lon="3.59738">
        <ele>789</ele>
        <time>2021-02-14T13:12:03Z</time>
      </trkpt>
      <trkpt lat="45.83763" lon="3.59736">
        <ele>788</ele>
        <time>2021-02-14T13:12:05Z</time>
      </trkpt>
      <trkpt lat="45.83761" lon="3.59734">
        <ele>788</ele>
        <time>2021-02-14T13:12:07Z</time>
      </trkpt>
      <trkpt lat="45.8376" lon="3.59731">
        <ele>788</ele>
        <time>2021-02-14T13:12:09Z</time>
      </trkpt>
      <trkpt lat="45.83759" lon="3.59727">
        <ele>787</ele>
        <time>2021-02-14T13:12:11Z</time>
      </trkpt>
      <trkpt lat="45.83758" lon="3.59725">
        <ele>787</ele>
        <time>2021-02-14T13:12:13Z</time>
      </trkpt>
      <trkpt lat="45.83756" lon="3.59723">
        <ele>787</ele>
        <time>2021-02-14T13:12:15Z</time>
      </trkpt>
      <trkpt lat="45.83754" lon="3.5972">
        <ele>786</ele>
        <time>2021-02-14T13:12:17Z</time>
      </trkpt>
      <trkpt lat="45.83752" lon="3.59717">
        <ele>786</ele>
        <time>2021-02-14T13:12:19Z</time>
      </trkpt>
      <trkpt lat="45.83751" lon="3.59715">
        <ele>786</ele>
        <time>2021-02-14T13:12:20Z</time>
      </trkpt>
      <trkpt lat="45.8375" lon="3.59713">
        <ele>786</ele>
        <time>2021-02-14T13:12:21Z</time>
      </trkpt>
      <trkpt lat="45.83748" lon="3.59709">
        <ele>786</ele>
        <time>2021-02-14T13:12:23Z</time>
      </trkpt>
      <trkpt lat="45.83747" lon="3.59705">
        <ele>786</ele>
        <time>2021-02-14T13:12:25Z</time>
      </trkpt>
      <trkpt lat="45.83745" lon="3.597">
        <ele>786</ele>
        <time>2021-02-14T13:12:27Z</time>
      </trkpt>
      <trkpt lat="45.83743" lon="3.59698">
        <ele>786</ele>
        <time>2021-02-14T13:12:29Z</time>
      </trkpt>
      <trkpt lat="45.83742" lon="3.59695">
        <ele>786</ele>
        <time>2021-02-14T13:12:30Z</time>
      </trkpt>
      <trkpt lat="45.8374" lon="3.59693">
        <ele>786</ele>
        <time>2021-02-14T13:12:32Z</time>
      </trkpt>
      <trkpt lat="45.83737" lon="3.59692">
        <ele>786</ele>
        <time>2021-02-14T13:12:34Z</time>
      </trkpt>
      <trkpt lat="45.83735" lon="3.59689">
        <ele>786</ele>
        <time>2021-02-14T13:12:36Z</time>
      </trkpt>
      <trkpt lat="45.83734" lon="3.59685">
        <ele>786</ele>
        <time>2021-02-14T13:12:38Z</time>
      </trkpt>
      <trkpt lat="45.83733" lon="3.59683">
        <ele>786</ele>
        <time>2021-02-14T13:12:40Z</time>
      </trkpt>
      <trkpt lat="45.83733" lon="3.59678">
        <ele>786</ele>
        <time>2021-02-14T13:12:42Z</time>
      </trkpt>
      <trkpt lat="45.83733" lon="3.59674">
        <ele>786</ele>
        <time>2021-02-14T13:12:43Z</time>
      </trkpt>
      <trkpt lat="45.83732" lon="3.59671">
        <ele>786</ele>
        <time>2021-02-14T13:12:44Z</time>
      </trkpt>
      <trkpt lat="45.83731" lon="3.59669">
        <ele>785</ele>
        <time>2021-02-14T13:12:45Z</time>
      </trkpt>
      <trkpt lat="45.8373" lon="3.59666">
        <ele>785</ele>
        <time>2021-02-14T13:12:46Z</time>
      </trkpt>
      <trkpt lat="45.83728" lon="3.59662">
        <ele>785</ele>
        <time>2021-02-14T13:12:48Z</time>
      </trkpt>
      <trkpt lat="45.83727" lon="3.59659">
        <ele>784</ele>
        <time>2021-02-14T13:12:50Z</time>
      </trkpt>
      <trkpt lat="45.83727" lon="3.59656">
        <ele>784</ele>
        <time>2021-02-14T13:12:52Z</time>
      </trkpt>
      <trkpt lat="45.83724" lon="3.59652">
        <ele>784</ele>
        <time>2021-02-14T13:12:54Z</time>
      </trkpt>
      <trkpt lat="45.83723" lon="3.5965">
        <ele>783</ele>
        <time>2021-02-14T13:12:56Z</time>
      </trkpt>
      <trkpt lat="45.83723" lon="3.59647">
        <ele>783</ele>
        <time>2021-02-14T13:12:59Z</time>
      </trkpt>
      <trkpt lat="45.83717" lon="3.59638">
        <ele>781</ele>
        <time>2021-02-14T13:13:04Z</time>
      </trkpt>
      <trkpt lat="45.83715" lon="3.59635">
        <ele>781</ele>
        <time>2021-02-14T13:13:06Z</time>
      </trkpt>
      <trkpt lat="45.83714" lon="3.59632">
        <ele>780</ele>
        <time>2021-02-14T13:13:08Z</time>
      </trkpt>
      <trkpt lat="45.83713" lon="3.5963">
        <ele>780</ele>
        <time>2021-02-14T13:13:10Z</time>
      </trkpt>
      <trkpt lat="45.83712" lon="3.59626">
        <ele>779</ele>
        <time>2021-02-14T13:13:13Z</time>
      </trkpt>
      <trkpt lat="45.83711" lon="3.59621">
        <ele>779</ele>
        <time>2021-02-14T13:13:15Z</time>
      </trkpt>
      <trkpt lat="45.8371" lon="3.59618">
        <ele>778</ele>
        <time>2021-02-14T13:13:16Z</time>
      </trkpt>
      <trkpt lat="45.8371" lon="3.59615">
        <ele>778</ele>
        <time>2021-02-14T13:13:18Z</time>
      </trkpt>
      <trkpt lat="45.83709" lon="3.59612">
        <ele>778</ele>
        <time>2021-02-14T13:13:21Z</time>
      </trkpt>
      <trkpt lat="45.83706" lon="3.59609">
        <ele>777</ele>
        <time>2021-02-14T13:13:24Z</time>
      </trkpt>
      <trkpt lat="45.83704" lon="3.59606">
        <ele>776</ele>
        <time>2021-02-14T13:13:26Z</time>
      </trkpt>
      <trkpt lat="45.83702" lon="3.59601">
        <ele>776</ele>
        <time>2021-02-14T13:13:29Z</time>
      </trkpt>
      <trkpt lat="45.83696" lon="3.59589">
        <ele>773</ele>
        <time>2021-02-14T13:13:38Z</time>
      </trkpt>
      <trkpt lat="45.83691" lon="3.59578">
        <ele>772</ele>
        <time>2021-02-14T13:13:45Z</time>
      </trkpt>
      <trkpt lat="45.83683" lon="3.59571">
        <ele>770</ele>
        <time>2021-02-14T13:13:53Z</time>
      </trkpt>
      <trkpt lat="45.83676" lon="3.59561">
        <ele>768</ele>
        <time>2021-02-14T13:14:00Z</time>
      </trkpt>
      <trkpt lat="45.8367" lon="3.5955">
        <ele>767</ele>
        <time>2021-02-14T13:14:06Z</time>
      </trkpt>
      <trkpt lat="45.83666" lon="3.59538">
        <ele>766</ele>
        <time>2021-02-14T13:14:14Z</time>
      </trkpt>
      <trkpt lat="45.83659" lon="3.59527">
        <ele>766</ele>
        <time>2021-02-14T13:14:21Z</time>
      </trkpt>
      <trkpt lat="45.83658" lon="3.59513">
        <ele>766</ele>
        <time>2021-02-14T13:14:28Z</time>
      </trkpt>
      <trkpt lat="45.83655" lon="3.59499">
        <ele>766</ele>
        <time>2021-02-14T13:14:34Z</time>
      </trkpt>
      <trkpt lat="45.83646" lon="3.59494">
        <ele>765</ele>
        <time>2021-02-14T13:14:47Z</time>
      </trkpt>
      <trkpt lat="45.83636" lon="3.59487">
        <ele>765</ele>
        <time>2021-02-14T13:14:55Z</time>
      </trkpt>
      <trkpt lat="45.83631" lon="3.59475">
        <ele>765</ele>
        <time>2021-02-14T13:15:05Z</time>
      </trkpt>
      <trkpt lat="45.83625" lon="3.59463">
        <ele>765</ele>
        <time>2021-02-14T13:15:11Z</time>
      </trkpt>
      <trkpt lat="45.83619" lon="3.59451">
        <ele>765</ele>
        <time>2021-02-14T13:15:21Z</time>
      </trkpt>
      <trkpt lat="45.83616" lon="3.59439">
        <ele>765</ele>
        <time>2021-02-14T13:15:31Z</time>
      </trkpt>
      <trkpt lat="45.83612" lon="3.59427">
        <ele>765</ele>
        <time>2021-02-14T13:15:39Z</time>
      </trkpt>
      <trkpt lat="45.83609" lon="3.59414">
        <ele>764</ele>
        <time>2021-02-14T13:15:46Z</time>
      </trkpt>
      <trkpt lat="45.83603" lon="3.59404">
        <ele>764</ele>
        <time>2021-02-14T13:15:53Z</time>
      </trkpt>
      <trkpt lat="45.83597" lon="3.59394">
        <ele>763</ele>
        <time>2021-02-14T13:15:59Z</time>
      </trkpt>
      <trkpt lat="45.83588" lon="3.59384">
        <ele>762</ele>
        <time>2021-02-14T13:16:07Z</time>
      </trkpt>
      <trkpt lat="45.83581" lon="3.59375">
        <ele>761</ele>
        <time>2021-02-14T13:16:12Z</time>
      </trkpt>
      <trkpt lat="45.83574" lon="3.59365">
        <ele>760</ele>
        <time>2021-02-14T13:16:17Z</time>
      </trkpt>
      <trkpt lat="45.83568" lon="3.59356">
        <ele>759</ele>
        <time>2021-02-14T13:16:23Z</time>
      </trkpt>
      <trkpt lat="45.83561" lon="3.59346">
        <ele>758</ele>
        <time>2021-02-14T13:16:30Z</time>
      </trkpt>
      <trkpt lat="45.83553" lon="3.59341">
        <ele>757</ele>
        <time>2021-02-14T13:16:38Z</time>
      </trkpt>
      <trkpt lat="45.83543" lon="3.59339">
        <ele>756</ele>
        <time>2021-02-14T13:16:45Z</time>
      </trkpt>
      <trkpt lat="45.83534" lon="3.59335">
        <ele>754</ele>
        <time>2021-02-14T13:16:52Z</time>
      </trkpt>
      <trkpt lat="45.83524" lon="3.59334">
        <ele>753</ele>
        <time>2021-02-14T13:16:58Z</time>
      </trkpt>
      <trkpt lat="45.83514" lon="3.59333">
        <ele>752</ele>
        <time>2021-02-14T13:17:06Z</time>
      </trkpt>
      <trkpt lat="45.83504" lon="3.59329">
        <ele>751</ele>
        <time>2021-02-14T13:17:13Z</time>
      </trkpt>
      <trkpt lat="45.83501" lon="3.59326">
        <ele>750</ele>
        <time>2021-02-14T13:17:16Z</time>
      </trkpt>
      <trkpt lat="45.83493" lon="3.59319">
        <ele>749</ele>
        <time>2021-02-14T13:17:27Z</time>
      </trkpt>
      <trkpt lat="45.83484" lon="3.59312">
        <ele>747</ele>
        <time>2021-02-14T13:17:35Z</time>
      </trkpt>
      <trkpt lat="45.83475" lon="3.59306">
        <ele>745</ele>
        <time>2021-02-14T13:17:40Z</time>
      </trkpt>
      <trkpt lat="45.83472" lon="3.59305">
        <ele>744</ele>
        <time>2021-02-14T13:17:42Z</time>
      </trkpt>
      <trkpt lat="45.8347" lon="3.59303">
        <ele>744</ele>
        <time>2021-02-14T13:17:43Z</time>
      </trkpt>
      <trkpt lat="45.83461" lon="3.59303">
        <ele>743</ele>
        <time>2021-02-14T13:17:53Z</time>
      </trkpt>
      <trkpt lat="45.83451" lon="3.593">
        <ele>742</ele>
        <time>2021-02-14T13:18:01Z</time>
      </trkpt>
      <trkpt lat="45.83444" lon="3.593">
        <ele>742</ele>
        <time>2021-02-14T13:18:08Z</time>
      </trkpt>
      <trkpt lat="45.83442" lon="3.59299">
        <ele>742</ele>
        <time>2021-02-14T13:18:10Z</time>
      </trkpt>
      <trkpt lat="45.8344" lon="3.59299">
        <ele>741</ele>
        <time>2021-02-14T13:18:11Z</time>
      </trkpt>
      <trkpt lat="45.83438" lon="3.59299">
        <ele>741</ele>
        <time>2021-02-14T13:18:12Z</time>
      </trkpt>
      <trkpt lat="45.83435" lon="3.593">
        <ele>741</ele>
        <time>2021-02-14T13:18:14Z</time>
      </trkpt>
      <trkpt lat="45.83433" lon="3.59299">
        <ele>741</ele>
        <time>2021-02-14T13:18:16Z</time>
      </trkpt>
      <trkpt lat="45.8343" lon="3.59297">
        <ele>740</ele>
        <time>2021-02-14T13:18:18Z</time>
      </trkpt>
      <trkpt lat="45.83427" lon="3.59296">
        <ele>740</ele>
        <time>2021-02-14T13:18:20Z</time>
      </trkpt>
      <trkpt lat="45.83425" lon="3.59294">
        <ele>740</ele>
        <time>2021-02-14T13:18:22Z</time>
      </trkpt>
      <trkpt lat="45.83422" lon="3.59292">
        <ele>739</ele>
        <time>2021-02-14T13:18:24Z</time>
      </trkpt>
      <trkpt lat="45.8342" lon="3.59291">
        <ele>739</ele>
        <time>2021-02-14T13:18:26Z</time>
      </trkpt>
      <trkpt lat="45.83417" lon="3.59291">
        <ele>739</ele>
        <time>2021-02-14T13:18:29Z</time>
      </trkpt>
      <trkpt lat="45.83416" lon="3.59289">
        <ele>739</ele>
        <time>2021-02-14T13:18:31Z</time>
      </trkpt>
      <trkpt lat="45.83413" lon="3.59286">
        <ele>738</ele>
        <time>2021-02-14T13:18:33Z</time>
      </trkpt>
      <trkpt lat="45.83412" lon="3.59283">
        <ele>738</ele>
        <time>2021-02-14T13:18:35Z</time>
      </trkpt>
      <trkpt lat="45.83411" lon="3.59281">
        <ele>738</ele>
        <time>2021-02-14T13:18:37Z</time>
      </trkpt>
      <trkpt lat="45.83409" lon="3.59279">
        <ele>738</ele>
        <time>2021-02-14T13:18:41Z</time>
      </trkpt>
      <trkpt lat="45.83407" lon="3.59278">
        <ele>737</ele>
        <time>2021-02-14T13:18:42Z</time>
      </trkpt>
      <trkpt lat="45.83405" lon="3.59276">
        <ele>737</ele>
        <time>2021-02-14T13:18:44Z</time>
      </trkpt>
      <trkpt lat="45.83402" lon="3.59275">
        <ele>737</ele>
        <time>2021-02-14T13:18:46Z</time>
      </trkpt>
      <trkpt lat="45.834" lon="3.59275">
        <ele>737</ele>
        <time>2021-02-14T13:18:48Z</time>
      </trkpt>
      <trkpt lat="45.83398" lon="3.59274">
        <ele>737</ele>
        <time>2021-02-14T13:18:50Z</time>
      </trkpt>
      <trkpt lat="45.83396" lon="3.59272">
        <ele>736</ele>
        <time>2021-02-14T13:18:52Z</time>
      </trkpt>
      <trkpt lat="45.83394" lon="3.59273">
        <ele>736</ele>
        <time>2021-02-14T13:18:54Z</time>
      </trkpt>
      <trkpt lat="45.83392" lon="3.59273">
        <ele>736</ele>
        <time>2021-02-14T13:18:55Z</time>
      </trkpt>
      <trkpt lat="45.8339" lon="3.59272">
        <ele>736</ele>
        <time>2021-02-14T13:18:57Z</time>
      </trkpt>
      <trkpt lat="45.83385" lon="3.59269">
        <ele>735</ele>
        <time>2021-02-14T13:18:59Z</time>
      </trkpt>
      <trkpt lat="45.83383" lon="3.59267">
        <ele>735</ele>
        <time>2021-02-14T13:19:00Z</time>
      </trkpt>
      <trkpt lat="45.8338" lon="3.59266">
        <ele>734</ele>
        <time>2021-02-14T13:19:02Z</time>
      </trkpt>
      <trkpt lat="45.83378" lon="3.59265">
        <ele>734</ele>
        <time>2021-02-14T13:19:04Z</time>
      </trkpt>
      <trkpt lat="45.83376" lon="3.59264">
        <ele>734</ele>
        <time>2021-02-14T13:19:06Z</time>
      </trkpt>
      <trkpt lat="45.83374" lon="3.59264">
        <ele>733</ele>
        <time>2021-02-14T13:19:09Z</time>
      </trkpt>
      <trkpt lat="45.83371" lon="3.59262">
        <ele>733</ele>
        <time>2021-02-14T13:19:12Z</time>
      </trkpt>
      <trkpt lat="45.83369" lon="3.5926">
        <ele>733</ele>
        <time>2021-02-14T13:19:15Z</time>
      </trkpt>
      <trkpt lat="45.83367" lon="3.59259">
        <ele>732</ele>
        <time>2021-02-14T13:19:16Z</time>
      </trkpt>
      <trkpt lat="45.83365" lon="3.59257">
        <ele>732</ele>
        <time>2021-02-14T13:19:18Z</time>
      </trkpt>
      <trkpt lat="45.83363" lon="3.59255">
        <ele>732</ele>
        <time>2021-02-14T13:19:20Z</time>
      </trkpt>
      <trkpt lat="45.83361" lon="3.59253">
        <ele>732</ele>
        <time>2021-02-14T13:19:22Z</time>
      </trkpt>
      <trkpt lat="45.8336" lon="3.5925">
        <ele>732</ele>
        <time>2021-02-14T13:19:24Z</time>
      </trkpt>
      <trkpt lat="45.83357" lon="3.59249">
        <ele>732</ele>
        <time>2021-02-14T13:19:26Z</time>
      </trkpt>
      <trkpt lat="45.83354" lon="3.59246">
        <ele>732</ele>
        <time>2021-02-14T13:19:28Z</time>
      </trkpt>
      <trkpt lat="45.83351" lon="3.59244">
        <ele>732</ele>
        <time>2021-02-14T13:19:30Z</time>
      </trkpt>
      <trkpt lat="45.83349" lon="3.59241">
        <ele>732</ele>
        <time>2021-02-14T13:19:32Z</time>
      </trkpt>
      <trkpt lat="45.83347" lon="3.5924">
        <ele>732</ele>
        <time>2021-02-14T13:19:34Z</time>
      </trkpt>
      <trkpt lat="45.83344" lon="3.59238">
        <ele>733</ele>
        <time>2021-02-14T13:19:36Z</time>
      </trkpt>
      <trkpt lat="45.83342" lon="3.59238">
        <ele>732</ele>
        <time>2021-02-14T13:19:38Z</time>
      </trkpt>
      <trkpt lat="45.8334" lon="3.59238">
        <ele>732</ele>
        <time>2021-02-14T13:19:40Z</time>
      </trkpt>
      <trkpt lat="45.83337" lon="3.59238">
        <ele>732</ele>
        <time>2021-02-14T13:19:42Z</time>
      </trkpt>
      <trkpt lat="45.83335" lon="3.59238">
        <ele>732</ele>
        <time>2021-02-14T13:19:44Z</time>
      </trkpt>
      <trkpt lat="45.83333" lon="3.59239">
        <ele>732</ele>
        <time>2021-02-14T13:19:46Z</time>
      </trkpt>
      <trkpt lat="45.8333" lon="3.59239">
        <ele>732</ele>
        <time>2021-02-14T13:19:48Z</time>
      </trkpt>
      <trkpt lat="45.83327" lon="3.59238">
        <ele>732</ele>
        <time>2021-02-14T13:19:50Z</time>
      </trkpt>
      <trkpt lat="45.83325" lon="3.59238">
        <ele>732</ele>
        <time>2021-02-14T13:19:52Z</time>
      </trkpt>
      <trkpt lat="45.83323" lon="3.59238">
        <ele>731</ele>
        <time>2021-02-14T13:19:54Z</time>
      </trkpt>
      <trkpt lat="45.8332" lon="3.59238">
        <ele>731</ele>
        <time>2021-02-14T13:19:56Z</time>
      </trkpt>
      <trkpt lat="45.83318" lon="3.59238">
        <ele>731</ele>
        <time>2021-02-14T13:19:58Z</time>
      </trkpt>
      <trkpt lat="45.83315" lon="3.59238">
        <ele>731</ele>
        <time>2021-02-14T13:20:00Z</time>
      </trkpt>
      <trkpt lat="45.83313" lon="3.59238">
        <ele>731</ele>
        <time>2021-02-14T13:20:02Z</time>
      </trkpt>
      <trkpt lat="45.8331" lon="3.59238">
        <ele>731</ele>
        <time>2021-02-14T13:20:05Z</time>
      </trkpt>
      <trkpt lat="45.83308" lon="3.59236">
        <ele>731</ele>
        <time>2021-02-14T13:20:08Z</time>
      </trkpt>
      <trkpt lat="45.83306" lon="3.59235">
        <ele>731</ele>
        <time>2021-02-14T13:20:10Z</time>
      </trkpt>
      <trkpt lat="45.83304" lon="3.59235">
        <ele>731</ele>
        <time>2021-02-14T13:20:12Z</time>
      </trkpt>
      <trkpt lat="45.83301" lon="3.59235">
        <ele>731</ele>
        <time>2021-02-14T13:20:14Z</time>
      </trkpt>
      <trkpt lat="45.833" lon="3.59235">
        <ele>730</ele>
        <time>2021-02-14T13:20:16Z</time>
      </trkpt>
      <trkpt lat="45.83297" lon="3.59235">
        <ele>730</ele>
        <time>2021-02-14T13:20:18Z</time>
      </trkpt>
      <trkpt lat="45.83294" lon="3.59234">
        <ele>729</ele>
        <time>2021-02-14T13:20:20Z</time>
      </trkpt>
      <trkpt lat="45.83292" lon="3.59234">
        <ele>729</ele>
        <time>2021-02-14T13:20:22Z</time>
      </trkpt>
      <trkpt lat="45.8329" lon="3.59234">
        <ele>729</ele>
        <time>2021-02-14T13:20:24Z</time>
      </trkpt>
      <trkpt lat="45.83287" lon="3.59234">
        <ele>728</ele>
        <time>2021-02-14T13:20:26Z</time>
      </trkpt>
      <trkpt lat="45.83285" lon="3.59233">
        <ele>728</ele>
        <time>2021-02-14T13:20:28Z</time>
      </trkpt>
      <trkpt lat="45.83282" lon="3.59231">
        <ele>728</ele>
        <time>2021-02-14T13:20:30Z</time>
      </trkpt>
      <trkpt lat="45.8328" lon="3.59231">
        <ele>728</ele>
        <time>2021-02-14T13:20:32Z</time>
      </trkpt>
      <trkpt lat="45.83277" lon="3.59229">
        <ele>728</ele>
        <time>2021-02-14T13:20:34Z</time>
      </trkpt>
      <trkpt lat="45.83274" lon="3.59228">
        <ele>729</ele>
        <time>2021-02-14T13:20:36Z</time>
      </trkpt>
      <trkpt lat="45.83271" lon="3.59226">
        <ele>729</ele>
        <time>2021-02-14T13:20:38Z</time>
      </trkpt>
      <trkpt lat="45.83267" lon="3.59224">
        <ele>729</ele>
        <time>2021-02-14T13:20:41Z</time>
      </trkpt>
      <trkpt lat="45.83265" lon="3.59222">
        <ele>730</ele>
        <time>2021-02-14T13:20:43Z</time>
      </trkpt>
      <trkpt lat="45.83263" lon="3.59221">
        <ele>730</ele>
        <time>2021-02-14T13:20:45Z</time>
      </trkpt>
      <trkpt lat="45.83261" lon="3.59221">
        <ele>730</ele>
        <time>2021-02-14T13:20:46Z</time>
      </trkpt>
      <trkpt lat="45.83258" lon="3.59219">
        <ele>730</ele>
        <time>2021-02-14T13:20:48Z</time>
      </trkpt>
      <trkpt lat="45.83255" lon="3.59218">
        <ele>730</ele>
        <time>2021-02-14T13:20:50Z</time>
      </trkpt>
      <trkpt lat="45.83252" lon="3.59216">
        <ele>730</ele>
        <time>2021-02-14T13:20:52Z</time>
      </trkpt>
      <trkpt lat="45.8325" lon="3.59215">
        <ele>731</ele>
        <time>2021-02-14T13:20:54Z</time>
      </trkpt>
      <trkpt lat="45.83247" lon="3.59213">
        <ele>731</ele>
        <time>2021-02-14T13:20:56Z</time>
      </trkpt>
      <trkpt lat="45.83246" lon="3.59211">
        <ele>731</ele>
        <time>2021-02-14T13:20:57Z</time>
      </trkpt>
      <trkpt lat="45.83243" lon="3.5921">
        <ele>732</ele>
        <time>2021-02-14T13:20:59Z</time>
      </trkpt>
      <trkpt lat="45.83241" lon="3.59208">
        <ele>732</ele>
        <time>2021-02-14T13:21:01Z</time>
      </trkpt>
      <trkpt lat="45.83239" lon="3.59206">
        <ele>733</ele>
        <time>2021-02-14T13:21:03Z</time>
      </trkpt>
      <trkpt lat="45.83238" lon="3.59205">
        <ele>733</ele>
        <time>2021-02-14T13:21:05Z</time>
      </trkpt>
      <trkpt lat="45.83236" lon="3.59203">
        <ele>733</ele>
        <time>2021-02-14T13:21:07Z</time>
      </trkpt>
      <trkpt lat="45.83233" lon="3.59202">
        <ele>734</ele>
        <time>2021-02-14T13:21:09Z</time>
      </trkpt>
      <trkpt lat="45.83231" lon="3.59201">
        <ele>734</ele>
        <time>2021-02-14T13:21:11Z</time>
      </trkpt>
      <trkpt lat="45.83229" lon="3.59199">
        <ele>734</ele>
        <time>2021-02-14T13:21:13Z</time>
      </trkpt>
      <trkpt lat="45.83225" lon="3.59197">
        <ele>734</ele>
        <time>2021-02-14T13:21:15Z</time>
      </trkpt>
      <trkpt lat="45.83222" lon="3.59197">
        <ele>735</ele>
        <time>2021-02-14T13:21:16Z</time>
      </trkpt>
      <trkpt lat="45.83219" lon="3.59195">
        <ele>734</ele>
        <time>2021-02-14T13:21:18Z</time>
      </trkpt>
      <trkpt lat="45.83217" lon="3.59195">
        <ele>734</ele>
        <time>2021-02-14T13:21:20Z</time>
      </trkpt>
      <trkpt lat="45.83215" lon="3.59194">
        <ele>734</ele>
        <time>2021-02-14T13:21:22Z</time>
      </trkpt>
      <trkpt lat="45.83212" lon="3.59192">
        <ele>733</ele>
        <time>2021-02-14T13:21:24Z</time>
      </trkpt>
      <trkpt lat="45.8321" lon="3.59192">
        <ele>733</ele>
        <time>2021-02-14T13:21:25Z</time>
      </trkpt>
      <trkpt lat="45.83208" lon="3.59192">
        <ele>733</ele>
        <time>2021-02-14T13:21:26Z</time>
      </trkpt>
      <trkpt lat="45.83205" lon="3.5919">
        <ele>732</ele>
        <time>2021-02-14T13:21:28Z</time>
      </trkpt>
      <trkpt lat="45.83202" lon="3.59189">
        <ele>732</ele>
        <time>2021-02-14T13:21:30Z</time>
      </trkpt>
      <trkpt lat="45.832" lon="3.59188">
        <ele>732</ele>
        <time>2021-02-14T13:21:32Z</time>
      </trkpt>
      <trkpt lat="45.83197" lon="3.59188">
        <ele>732</ele>
        <time>2021-02-14T13:21:34Z</time>
      </trkpt>
      <trkpt lat="45.83195" lon="3.59186">
        <ele>732</ele>
        <time>2021-02-14T13:21:35Z</time>
      </trkpt>
      <trkpt lat="45.83194" lon="3.59185">
        <ele>732</ele>
        <time>2021-02-14T13:21:36Z</time>
      </trkpt>
      <trkpt lat="45.8319" lon="3.59184">
        <ele>731</ele>
        <time>2021-02-14T13:21:38Z</time>
      </trkpt>
      <trkpt lat="45.83188" lon="3.59183">
        <ele>731</ele>
        <time>2021-02-14T13:21:40Z</time>
      </trkpt>
      <trkpt lat="45.83185" lon="3.59181">
        <ele>731</ele>
        <time>2021-02-14T13:21:42Z</time>
      </trkpt>
      <trkpt lat="45.83182" lon="3.5918">
        <ele>731</ele>
        <time>2021-02-14T13:21:44Z</time>
      </trkpt>
      <trkpt lat="45.8318" lon="3.59179">
        <ele>730</ele>
        <time>2021-02-14T13:21:46Z</time>
      </trkpt>
      <trkpt lat="45.83178" lon="3.59178">
        <ele>730</ele>
        <time>2021-02-14T13:21:48Z</time>
      </trkpt>
      <trkpt lat="45.83175" lon="3.59176">
        <ele>730</ele>
        <time>2021-02-14T13:21:51Z</time>
      </trkpt>
      <trkpt lat="45.83173" lon="3.59175">
        <ele>730</ele>
        <time>2021-02-14T13:21:53Z</time>
      </trkpt>
      <trkpt lat="45.83172" lon="3.59173">
        <ele>730</ele>
        <time>2021-02-14T13:21:55Z</time>
      </trkpt>
      <trkpt lat="45.83169" lon="3.59172">
        <ele>730</ele>
        <time>2021-02-14T13:21:58Z</time>
      </trkpt>
      <trkpt lat="45.83167" lon="3.5917">
        <ele>729</ele>
        <time>2021-02-14T13:22:00Z</time>
      </trkpt>
      <trkpt lat="45.83164" lon="3.59169">
        <ele>729</ele>
        <time>2021-02-14T13:22:01Z</time>
      </trkpt>
      <trkpt lat="45.83162" lon="3.59168">
        <ele>729</ele>
        <time>2021-02-14T13:22:02Z</time>
      </trkpt>
      <trkpt lat="45.8316" lon="3.59167">
        <ele>729</ele>
        <time>2021-02-14T13:22:03Z</time>
      </trkpt>
      <trkpt lat="45.83157" lon="3.59166">
        <ele>728</ele>
        <time>2021-02-14T13:22:05Z</time>
      </trkpt>
      <trkpt lat="45.83154" lon="3.59165">
        <ele>728</ele>
        <time>2021-02-14T13:22:07Z</time>
      </trkpt>
      <trkpt lat="45.83152" lon="3.59164">
        <ele>728</ele>
        <time>2021-02-14T13:22:09Z</time>
      </trkpt>
      <trkpt lat="45.83148" lon="3.59162">
        <ele>727</ele>
        <time>2021-02-14T13:22:11Z</time>
      </trkpt>
      <trkpt lat="45.83146" lon="3.59161">
        <ele>727</ele>
        <time>2021-02-14T13:22:12Z</time>
      </trkpt>
      <trkpt lat="45.83143" lon="3.59159">
        <ele>727</ele>
        <time>2021-02-14T13:22:14Z</time>
      </trkpt>
      <trkpt lat="45.83141" lon="3.59158">
        <ele>726</ele>
        <time>2021-02-14T13:22:16Z</time>
      </trkpt>
      <trkpt lat="45.83138" lon="3.59158">
        <ele>726</ele>
        <time>2021-02-14T13:22:18Z</time>
      </trkpt>
      <trkpt lat="45.83135" lon="3.59158">
        <ele>725</ele>
        <time>2021-02-14T13:22:20Z</time>
      </trkpt>
      <trkpt lat="45.83132" lon="3.59157">
        <ele>725</ele>
        <time>2021-02-14T13:22:22Z</time>
      </trkpt>
      <trkpt lat="45.8313" lon="3.59155">
        <ele>725</ele>
        <time>2021-02-14T13:22:24Z</time>
      </trkpt>
      <trkpt lat="45.83128" lon="3.59154">
        <ele>725</ele>
        <time>2021-02-14T13:22:25Z</time>
      </trkpt>
      <trkpt lat="45.83125" lon="3.59152">
        <ele>725</ele>
        <time>2021-02-14T13:22:27Z</time>
      </trkpt>
      <trkpt lat="45.83124" lon="3.59151">
        <ele>725</ele>
        <time>2021-02-14T13:22:28Z</time>
      </trkpt>
      <trkpt lat="45.8312" lon="3.59149">
        <ele>724</ele>
        <time>2021-02-14T13:22:30Z</time>
      </trkpt>
      <trkpt lat="45.83118" lon="3.59149">
        <ele>724</ele>
        <time>2021-02-14T13:22:31Z</time>
      </trkpt>
      <trkpt lat="45.83115" lon="3.59147">
        <ele>724</ele>
        <time>2021-02-14T13:22:33Z</time>
      </trkpt>
      <trkpt lat="45.83113" lon="3.59145">
        <ele>724</ele>
        <time>2021-02-14T13:22:35Z</time>
      </trkpt>
      <trkpt lat="45.8311" lon="3.59144">
        <ele>724</ele>
        <time>2021-02-14T13:22:37Z</time>
      </trkpt>
      <trkpt lat="45.83108" lon="3.59142">
        <ele>724</ele>
        <time>2021-02-14T13:22:39Z</time>
      </trkpt>
      <trkpt lat="45.83106" lon="3.59141">
        <ele>724</ele>
        <time>2021-02-14T13:22:41Z</time>
      </trkpt>
      <trkpt lat="45.83104" lon="3.59139">
        <ele>724</ele>
        <time>2021-02-14T13:22:43Z</time>
      </trkpt>
      <trkpt lat="45.83101" lon="3.59138">
        <ele>724</ele>
        <time>2021-02-14T13:22:45Z</time>
      </trkpt>
      <trkpt lat="45.83099" lon="3.59136">
        <ele>724</ele>
        <time>2021-02-14T13:22:48Z</time>
      </trkpt>
      <trkpt lat="45.83097" lon="3.59133">
        <ele>725</ele>
        <time>2021-02-14T13:22:50Z</time>
      </trkpt>
      <trkpt lat="45.83095" lon="3.59131">
        <ele>725</ele>
        <time>2021-02-14T13:22:52Z</time>
      </trkpt>
      <trkpt lat="45.83093" lon="3.5913">
        <ele>725</ele>
        <time>2021-02-14T13:22:54Z</time>
      </trkpt>
      <trkpt lat="45.83091" lon="3.59128">
        <ele>725</ele>
        <time>2021-02-14T13:22:56Z</time>
      </trkpt>
      <trkpt lat="45.83088" lon="3.59126">
        <ele>725</ele>
        <time>2021-02-14T13:22:58Z</time>
      </trkpt>
      <trkpt lat="45.83086" lon="3.59124">
        <ele>725</ele>
        <time>2021-02-14T13:23:00Z</time>
      </trkpt>
      <trkpt lat="45.83084" lon="3.59122">
        <ele>725</ele>
        <time>2021-02-14T13:23:02Z</time>
      </trkpt>
      <trkpt lat="45.83082" lon="3.59119">
        <ele>725</ele>
        <time>2021-02-14T13:23:04Z</time>
      </trkpt>
      <trkpt lat="45.8308" lon="3.59117">
        <ele>725</ele>
        <time>2021-02-14T13:23:06Z</time>
      </trkpt>
      <trkpt lat="45.83079" lon="3.59112">
        <ele>726</ele>
        <time>2021-02-14T13:23:08Z</time>
      </trkpt>
      <trkpt lat="45.83077" lon="3.59109">
        <ele>726</ele>
        <time>2021-02-14T13:23:10Z</time>
      </trkpt>
      <trkpt lat="45.83075" lon="3.59107">
        <ele>726</ele>
        <time>2021-02-14T13:23:12Z</time>
      </trkpt>
      <trkpt lat="45.83073" lon="3.59103">
        <ele>727</ele>
        <time>2021-02-14T13:23:14Z</time>
      </trkpt>
      <trkpt lat="45.83071" lon="3.59102">
        <ele>727</ele>
        <time>2021-02-14T13:23:15Z</time>
      </trkpt>
      <trkpt lat="45.83069" lon="3.59101">
        <ele>727</ele>
        <time>2021-02-14T13:23:16Z</time>
      </trkpt>
      <trkpt lat="45.83066" lon="3.59098">
        <ele>727</ele>
        <time>2021-02-14T13:23:18Z</time>
      </trkpt>
      <trkpt lat="45.83065" lon="3.59095">
        <ele>727</ele>
        <time>2021-02-14T13:23:19Z</time>
      </trkpt>
      <trkpt lat="45.83064" lon="3.59093">
        <ele>727</ele>
        <time>2021-02-14T13:23:20Z</time>
      </trkpt>
      <trkpt lat="45.83063" lon="3.59091">
        <ele>727</ele>
        <time>2021-02-14T13:23:21Z</time>
      </trkpt>
      <trkpt lat="45.83062" lon="3.59088">
        <ele>728</ele>
        <time>2021-02-14T13:23:22Z</time>
      </trkpt>
      <trkpt lat="45.83063" lon="3.59085">
        <ele>728</ele>
        <time>2021-02-14T13:23:23Z</time>
      </trkpt>
      <trkpt lat="45.83062" lon="3.59083">
        <ele>728</ele>
        <time>2021-02-14T13:23:24Z</time>
      </trkpt>
      <trkpt lat="45.83061" lon="3.59078">
        <ele>728</ele>
        <time>2021-02-14T13:23:26Z</time>
      </trkpt>
      <trkpt lat="45.83061" lon="3.59073">
        <ele>729</ele>
        <time>2021-02-14T13:23:28Z</time>
      </trkpt>
      <trkpt lat="45.8306" lon="3.59069">
        <ele>729</ele>
        <time>2021-02-14T13:23:30Z</time>
      </trkpt>
      <trkpt lat="45.8306" lon="3.59065">
        <ele>729</ele>
        <time>2021-02-14T13:23:32Z</time>
      </trkpt>
      <trkpt lat="45.83059" lon="3.59061">
        <ele>729</ele>
        <time>2021-02-14T13:23:34Z</time>
      </trkpt>
      <trkpt lat="45.83058" lon="3.59057">
        <ele>729</ele>
        <time>2021-02-14T13:23:36Z</time>
      </trkpt>
      <trkpt lat="45.83058" lon="3.59053">
        <ele>729</ele>
        <time>2021-02-14T13:23:38Z</time>
      </trkpt>
      <trkpt lat="45.83057" lon="3.59049">
        <ele>728</ele>
        <time>2021-02-14T13:23:40Z</time>
      </trkpt>
      <trkpt lat="45.83056" lon="3.59045">
        <ele>728</ele>
        <time>2021-02-14T13:23:42Z</time>
      </trkpt>
      <trkpt lat="45.83056" lon="3.59042">
        <ele>728</ele>
        <time>2021-02-14T13:23:44Z</time>
      </trkpt>
      <trkpt lat="45.83055" lon="3.59039">
        <ele>727</ele>
        <time>2021-02-14T13:23:46Z</time>
      </trkpt>
      <trkpt lat="45.83054" lon="3.59036">
        <ele>727</ele>
        <time>2021-02-14T13:23:48Z</time>
      </trkpt>
      <trkpt lat="45.83053" lon="3.59033">
        <ele>727</ele>
        <time>2021-02-14T13:23:50Z</time>
      </trkpt>
      <trkpt lat="45.83051" lon="3.5903">
        <ele>726</ele>
        <time>2021-02-14T13:23:52Z</time>
      </trkpt>
      <trkpt lat="45.83049" lon="3.59028">
        <ele>726</ele>
        <time>2021-02-14T13:23:54Z</time>
      </trkpt>
      <trkpt lat="45.83047" lon="3.59026">
        <ele>726</ele>
        <time>2021-02-14T13:23:56Z</time>
      </trkpt>
      <trkpt lat="45.83045" lon="3.59024">
        <ele>726</ele>
        <time>2021-02-14T13:23:58Z</time>
      </trkpt>
      <trkpt lat="45.83043" lon="3.59022">
        <ele>725</ele>
        <time>2021-02-14T13:24:00Z</time>
      </trkpt>
      <trkpt lat="45.83041" lon="3.5902">
        <ele>725</ele>
        <time>2021-02-14T13:24:02Z</time>
      </trkpt>
      <trkpt lat="45.83039" lon="3.5902">
        <ele>725</ele>
        <time>2021-02-14T13:24:04Z</time>
      </trkpt>
      <trkpt lat="45.83037" lon="3.59019">
        <ele>725</ele>
        <time>2021-02-14T13:24:06Z</time>
      </trkpt>
      <trkpt lat="45.83035" lon="3.59018">
        <ele>724</ele>
        <time>2021-02-14T13:24:08Z</time>
      </trkpt>
      <trkpt lat="45.83032" lon="3.59017">
        <ele>724</ele>
        <time>2021-02-14T13:24:10Z</time>
      </trkpt>
      <trkpt lat="45.8303" lon="3.59016">
        <ele>724</ele>
        <time>2021-02-14T13:24:12Z</time>
      </trkpt>
      <trkpt lat="45.83027" lon="3.59016">
        <ele>724</ele>
        <time>2021-02-14T13:24:14Z</time>
      </trkpt>
      <trkpt lat="45.83024" lon="3.59015">
        <ele>723</ele>
        <time>2021-02-14T13:24:16Z</time>
      </trkpt>
      <trkpt lat="45.83021" lon="3.59015">
        <ele>723</ele>
        <time>2021-02-14T13:24:18Z</time>
      </trkpt>
      <trkpt lat="45.83018" lon="3.59013">
        <ele>723</ele>
        <time>2021-02-14T13:24:20Z</time>
      </trkpt>
      <trkpt lat="45.83015" lon="3.59013">
        <ele>723</ele>
        <time>2021-02-14T13:24:22Z</time>
      </trkpt>
      <trkpt lat="45.83012" lon="3.59013">
        <ele>723</ele>
        <time>2021-02-14T13:24:24Z</time>
      </trkpt>
      <trkpt lat="45.8301" lon="3.59013">
        <ele>722</ele>
        <time>2021-02-14T13:24:26Z</time>
      </trkpt>
      <trkpt lat="45.83008" lon="3.59012">
        <ele>722</ele>
        <time>2021-02-14T13:24:28Z</time>
      </trkpt>
      <trkpt lat="45.83004" lon="3.59012">
        <ele>722</ele>
        <time>2021-02-14T13:24:30Z</time>
      </trkpt>
      <trkpt lat="45.83003" lon="3.59012">
        <ele>722</ele>
        <time>2021-02-14T13:24:31Z</time>
      </trkpt>
      <trkpt lat="45.83" lon="3.59012">
        <ele>722</ele>
        <time>2021-02-14T13:24:33Z</time>
      </trkpt>
      <trkpt lat="45.82997" lon="3.5901">
        <ele>721</ele>
        <time>2021-02-14T13:24:35Z</time>
      </trkpt>
      <trkpt lat="45.82994" lon="3.59009">
        <ele>721</ele>
        <time>2021-02-14T13:24:37Z</time>
      </trkpt>
      <trkpt lat="45.82991" lon="3.59008">
        <ele>721</ele>
        <time>2021-02-14T13:24:39Z</time>
      </trkpt>
      <trkpt lat="45.82989" lon="3.59007">
        <ele>721</ele>
        <time>2021-02-14T13:24:41Z</time>
      </trkpt>
      <trkpt lat="45.82986" lon="3.59006">
        <ele>720</ele>
        <time>2021-02-14T13:24:43Z</time>
      </trkpt>
      <trkpt lat="45.82983" lon="3.59005">
        <ele>720</ele>
        <time>2021-02-14T13:24:45Z</time>
      </trkpt>
      <trkpt lat="45.82981" lon="3.59003">
        <ele>720</ele>
        <time>2021-02-14T13:24:47Z</time>
      </trkpt>
      <trkpt lat="45.82978" lon="3.59002">
        <ele>720</ele>
        <time>2021-02-14T13:24:49Z</time>
      </trkpt>
      <trkpt lat="45.82975" lon="3.59">
        <ele>720</ele>
        <time>2021-02-14T13:24:51Z</time>
      </trkpt>
      <trkpt lat="45.82973" lon="3.58999">
        <ele>720</ele>
        <time>2021-02-14T13:24:53Z</time>
      </trkpt>
      <trkpt lat="45.8297" lon="3.58996">
        <ele>720</ele>
        <time>2021-02-14T13:24:55Z</time>
      </trkpt>
      <trkpt lat="45.82969" lon="3.58992">
        <ele>720</ele>
        <time>2021-02-14T13:24:57Z</time>
      </trkpt>
      <trkpt lat="45.82969" lon="3.58988">
        <ele>720</ele>
        <time>2021-02-14T13:24:59Z</time>
      </trkpt>
      <trkpt lat="45.82969" lon="3.58985">
        <ele>720</ele>
        <time>2021-02-14T13:25:01Z</time>
      </trkpt>
      <trkpt lat="45.82969" lon="3.58982">
        <ele>720</ele>
        <time>2021-02-14T13:25:03Z</time>
      </trkpt>
      <trkpt lat="45.82968" lon="3.58979">
        <ele>720</ele>
        <time>2021-02-14T13:25:05Z</time>
      </trkpt>
      <trkpt lat="45.82969" lon="3.58976">
        <ele>720</ele>
        <time>2021-02-14T13:25:07Z</time>
      </trkpt>
      <trkpt lat="45.8297" lon="3.58972">
        <ele>721</ele>
        <time>2021-02-14T13:25:09Z</time>
      </trkpt>
      <trkpt lat="45.82971" lon="3.58968">
        <ele>721</ele>
        <time>2021-02-14T13:25:11Z</time>
      </trkpt>
      <trkpt lat="45.82972" lon="3.58965">
        <ele>721</ele>
        <time>2021-02-14T13:25:13Z</time>
      </trkpt>
      <trkpt lat="45.82974" lon="3.58962">
        <ele>721</ele>
        <time>2021-02-14T13:25:15Z</time>
      </trkpt>
      <trkpt lat="45.82975" lon="3.58958">
        <ele>721</ele>
        <time>2021-02-14T13:25:17Z</time>
      </trkpt>
      <trkpt lat="45.82975" lon="3.58955">
        <ele>721</ele>
        <time>2021-02-14T13:25:20Z</time>
      </trkpt>
      <trkpt lat="45.82977" lon="3.58951">
        <ele>721</ele>
        <time>2021-02-14T13:25:22Z</time>
      </trkpt>
      <trkpt lat="45.82978" lon="3.58947">
        <ele>721</ele>
        <time>2021-02-14T13:25:24Z</time>
      </trkpt>
      <trkpt lat="45.8298" lon="3.58944">
        <ele>721</ele>
        <time>2021-02-14T13:25:26Z</time>
      </trkpt>
      <trkpt lat="45.82981" lon="3.5894">
        <ele>721</ele>
        <time>2021-02-14T13:25:28Z</time>
      </trkpt>
      <trkpt lat="45.82983" lon="3.58936">
        <ele>721</ele>
        <time>2021-02-14T13:25:30Z</time>
      </trkpt>
      <trkpt lat="45.82984" lon="3.58932">
        <ele>722</ele>
        <time>2021-02-14T13:25:32Z</time>
      </trkpt>
      <trkpt lat="45.82986" lon="3.58928">
        <ele>722</ele>
        <time>2021-02-14T13:25:34Z</time>
      </trkpt>
      <trkpt lat="45.82987" lon="3.58924">
        <ele>722</ele>
        <time>2021-02-14T13:25:36Z</time>
      </trkpt>
      <trkpt lat="45.82988" lon="3.58922">
        <ele>722</ele>
        <time>2021-02-14T13:25:37Z</time>
      </trkpt>
      <trkpt lat="45.8299" lon="3.58918">
        <ele>722</ele>
        <time>2021-02-14T13:25:39Z</time>
      </trkpt>
      <trkpt lat="45.82992" lon="3.58914">
        <ele>722</ele>
        <time>2021-02-14T13:25:41Z</time>
      </trkpt>
      <trkpt lat="45.82994" lon="3.5891">
        <ele>722</ele>
        <time>2021-02-14T13:25:43Z</time>
      </trkpt>
      <trkpt lat="45.82995" lon="3.58907">
        <ele>722</ele>
        <time>2021-02-14T13:25:45Z</time>
      </trkpt>
      <trkpt lat="45.82997" lon="3.58905">
        <ele>722</ele>
        <time>2021-02-14T13:25:47Z</time>
      </trkpt>
      <trkpt lat="45.83" lon="3.58902">
        <ele>722</ele>
        <time>2021-02-14T13:25:49Z</time>
      </trkpt>
      <trkpt lat="45.83002" lon="3.58899">
        <ele>722</ele>
        <time>2021-02-14T13:25:51Z</time>
      </trkpt>
      <trkpt lat="45.83004" lon="3.58896">
        <ele>721</ele>
        <time>2021-02-14T13:25:53Z</time>
      </trkpt>
      <trkpt lat="45.83006" lon="3.58894">
        <ele>721</ele>
        <time>2021-02-14T13:25:55Z</time>
      </trkpt>
      <trkpt lat="45.83008" lon="3.58891">
        <ele>720</ele>
        <time>2021-02-14T13:25:57Z</time>
      </trkpt>
      <trkpt lat="45.83011" lon="3.58889">
        <ele>719</ele>
        <time>2021-02-14T13:25:59Z</time>
      </trkpt>
      <trkpt lat="45.83013" lon="3.58886">
        <ele>718</ele>
        <time>2021-02-14T13:26:01Z</time>
      </trkpt>
      <trkpt lat="45.83016" lon="3.58883">
        <ele>717</ele>
        <time>2021-02-14T13:26:03Z</time>
      </trkpt>
      <trkpt lat="45.83018" lon="3.58881">
        <ele>716</ele>
        <time>2021-02-14T13:26:05Z</time>
      </trkpt>
      <trkpt lat="45.8302" lon="3.5888">
        <ele>716</ele>
        <time>2021-02-14T13:26:07Z</time>
      </trkpt>
      <trkpt lat="45.83023" lon="3.58878">
        <ele>715</ele>
        <time>2021-02-14T13:26:09Z</time>
      </trkpt>
      <trkpt lat="45.83026" lon="3.58876">
        <ele>714</ele>
        <time>2021-02-14T13:26:11Z</time>
      </trkpt>
      <trkpt lat="45.83028" lon="3.58875">
        <ele>713</ele>
        <time>2021-02-14T13:26:13Z</time>
      </trkpt>
      <trkpt lat="45.8303" lon="3.58873">
        <ele>712</ele>
        <time>2021-02-14T13:26:15Z</time>
      </trkpt>
      <trkpt lat="45.83033" lon="3.58872">
        <ele>712</ele>
        <time>2021-02-14T13:26:17Z</time>
      </trkpt>
      <trkpt lat="45.83035" lon="3.5887">
        <ele>711</ele>
        <time>2021-02-14T13:26:19Z</time>
      </trkpt>
      <trkpt lat="45.83037" lon="3.58868">
        <ele>711</ele>
        <time>2021-02-14T13:26:21Z</time>
      </trkpt>
      <trkpt lat="45.8304" lon="3.58867">
        <ele>710</ele>
        <time>2021-02-14T13:26:23Z</time>
      </trkpt>
      <trkpt lat="45.83042" lon="3.58865">
        <ele>709</ele>
        <time>2021-02-14T13:26:25Z</time>
      </trkpt>
      <trkpt lat="45.83045" lon="3.58863">
        <ele>709</ele>
        <time>2021-02-14T13:26:27Z</time>
      </trkpt>
      <trkpt lat="45.83047" lon="3.58862">
        <ele>708</ele>
        <time>2021-02-14T13:26:29Z</time>
      </trkpt>
      <trkpt lat="45.8305" lon="3.5886">
        <ele>707</ele>
        <time>2021-02-14T13:26:31Z</time>
      </trkpt>
      <trkpt lat="45.83052" lon="3.58858">
        <ele>706</ele>
        <time>2021-02-14T13:26:33Z</time>
      </trkpt>
      <trkpt lat="45.83054" lon="3.58856">
        <ele>706</ele>
        <time>2021-02-14T13:26:35Z</time>
      </trkpt>
      <trkpt lat="45.83057" lon="3.58854">
        <ele>705</ele>
        <time>2021-02-14T13:26:37Z</time>
      </trkpt>
      <trkpt lat="45.83059" lon="3.58853">
        <ele>705</ele>
        <time>2021-02-14T13:26:39Z</time>
      </trkpt>
      <trkpt lat="45.83062" lon="3.58851">
        <ele>705</ele>
        <time>2021-02-14T13:26:41Z</time>
      </trkpt>
      <trkpt lat="45.83064" lon="3.58849">
        <ele>705</ele>
        <time>2021-02-14T13:26:43Z</time>
      </trkpt>
      <trkpt lat="45.83065" lon="3.58846">
        <ele>705</ele>
        <time>2021-02-14T13:26:45Z</time>
      </trkpt>
      <trkpt lat="45.83068" lon="3.58844">
        <ele>705</ele>
        <time>2021-02-14T13:26:47Z</time>
      </trkpt>
      <trkpt lat="45.8307" lon="3.58841">
        <ele>705</ele>
        <time>2021-02-14T13:26:49Z</time>
      </trkpt>
      <trkpt lat="45.83072" lon="3.58839">
        <ele>704</ele>
        <time>2021-02-14T13:26:51Z</time>
      </trkpt>
      <trkpt lat="45.83074" lon="3.58836">
        <ele>704</ele>
        <time>2021-02-14T13:26:53Z</time>
      </trkpt>
      <trkpt lat="45.83077" lon="3.58834">
        <ele>704</ele>
        <time>2021-02-14T13:26:55Z</time>
      </trkpt>
      <trkpt lat="45.83079" lon="3.58833">
        <ele>704</ele>
        <time>2021-02-14T13:26:57Z</time>
      </trkpt>
      <trkpt lat="45.83082" lon="3.58831">
        <ele>703</ele>
        <time>2021-02-14T13:26:59Z</time>
      </trkpt>
      <trkpt lat="45.83084" lon="3.5883">
        <ele>703</ele>
        <time>2021-02-14T13:27:01Z</time>
      </trkpt>
      <trkpt lat="45.83086" lon="3.58828">
        <ele>703</ele>
        <time>2021-02-14T13:27:03Z</time>
      </trkpt>
      <trkpt lat="45.83089" lon="3.58827">
        <ele>703</ele>
        <time>2021-02-14T13:27:05Z</time>
      </trkpt>
      <trkpt lat="45.83091" lon="3.58825">
        <ele>703</ele>
        <time>2021-02-14T13:27:07Z</time>
      </trkpt>
      <trkpt lat="45.83094" lon="3.58823">
        <ele>703</ele>
        <time>2021-02-14T13:27:09Z</time>
      </trkpt>
      <trkpt lat="45.83097" lon="3.58822">
        <ele>703</ele>
        <time>2021-02-14T13:27:11Z</time>
      </trkpt>
      <trkpt lat="45.831" lon="3.58821">
        <ele>703</ele>
        <time>2021-02-14T13:27:13Z</time>
      </trkpt>
      <trkpt lat="45.83103" lon="3.5882">
        <ele>703</ele>
        <time>2021-02-14T13:27:15Z</time>
      </trkpt>
      <trkpt lat="45.83106" lon="3.5882">
        <ele>703</ele>
        <time>2021-02-14T13:27:17Z</time>
      </trkpt>
      <trkpt lat="45.83109" lon="3.58819">
        <ele>703</ele>
        <time>2021-02-14T13:27:19Z</time>
      </trkpt>
      <trkpt lat="45.83111" lon="3.58819">
        <ele>703</ele>
        <time>2021-02-14T13:27:21Z</time>
      </trkpt>
      <trkpt lat="45.83114" lon="3.58818">
        <ele>704</ele>
        <time>2021-02-14T13:27:23Z</time>
      </trkpt>
      <trkpt lat="45.83117" lon="3.58818">
        <ele>704</ele>
        <time>2021-02-14T13:27:25Z</time>
      </trkpt>
      <trkpt lat="45.8312" lon="3.58818">
        <ele>704</ele>
        <time>2021-02-14T13:27:27Z</time>
      </trkpt>
      <trkpt lat="45.83123" lon="3.58818">
        <ele>704</ele>
        <time>2021-02-14T13:27:29Z</time>
      </trkpt>
      <trkpt lat="45.83126" lon="3.58817">
        <ele>704</ele>
        <time>2021-02-14T13:27:31Z</time>
      </trkpt>
      <trkpt lat="45.83129" lon="3.58817">
        <ele>704</ele>
        <time>2021-02-14T13:27:33Z</time>
      </trkpt>
      <trkpt lat="45.83131" lon="3.58817">
        <ele>704</ele>
        <time>2021-02-14T13:27:35Z</time>
      </trkpt>
      <trkpt lat="45.83134" lon="3.58817">
        <ele>704</ele>
        <time>2021-02-14T13:27:37Z</time>
      </trkpt>
      <trkpt lat="45.83137" lon="3.58817">
        <ele>705</ele>
        <time>2021-02-14T13:27:39Z</time>
      </trkpt>
      <trkpt lat="45.8314" lon="3.58816">
        <ele>705</ele>
        <time>2021-02-14T13:27:41Z</time>
      </trkpt>
      <trkpt lat="45.83142" lon="3.58815">
        <ele>705</ele>
        <time>2021-02-14T13:27:43Z</time>
      </trkpt>
      <trkpt lat="45.83144" lon="3.58813">
        <ele>705</ele>
        <time>2021-02-14T13:27:45Z</time>
      </trkpt>
      <trkpt lat="45.83147" lon="3.58812">
        <ele>705</ele>
        <time>2021-02-14T13:27:47Z</time>
      </trkpt>
      <trkpt lat="45.83149" lon="3.58812">
        <ele>705</ele>
        <time>2021-02-14T13:27:49Z</time>
      </trkpt>
      <trkpt lat="45.83152" lon="3.58812">
        <ele>705</ele>
        <time>2021-02-14T13:27:51Z</time>
      </trkpt>
      <trkpt lat="45.83155" lon="3.58812">
        <ele>705</ele>
        <time>2021-02-14T13:27:53Z</time>
      </trkpt>
      <trkpt lat="45.83157" lon="3.58811">
        <ele>706</ele>
        <time>2021-02-14T13:27:55Z</time>
      </trkpt>
      <trkpt lat="45.83159" lon="3.5881">
        <ele>706</ele>
        <time>2021-02-14T13:27:57Z</time>
      </trkpt>
      <trkpt lat="45.83161" lon="3.5881">
        <ele>706</ele>
        <time>2021-02-14T13:27:59Z</time>
      </trkpt>
      <trkpt lat="45.83164" lon="3.58808">
        <ele>706</ele>
        <time>2021-02-14T13:28:03Z</time>
      </trkpt>
      <trkpt lat="45.83166" lon="3.58806">
        <ele>706</ele>
        <time>2021-02-14T13:28:05Z</time>
      </trkpt>
      <trkpt lat="45.83168" lon="3.58804">
        <ele>705</ele>
        <time>2021-02-14T13:28:07Z</time>
      </trkpt>
      <trkpt lat="45.83169" lon="3.58803">
        <ele>705</ele>
        <time>2021-02-14T13:28:08Z</time>
      </trkpt>
      <trkpt lat="45.83171" lon="3.58802">
        <ele>705</ele>
        <time>2021-02-14T13:28:09Z</time>
      </trkpt>
      <trkpt lat="45.83173" lon="3.58801">
        <ele>705</ele>
        <time>2021-02-14T13:28:10Z</time>
      </trkpt>
      <trkpt lat="45.83177" lon="3.58799">
        <ele>705</ele>
        <time>2021-02-14T13:28:12Z</time>
      </trkpt>
      <trkpt lat="45.8318" lon="3.58797">
        <ele>704</ele>
        <time>2021-02-14T13:28:14Z</time>
      </trkpt>
      <trkpt lat="45.83182" lon="3.58796">
        <ele>704</ele>
        <time>2021-02-14T13:28:16Z</time>
      </trkpt>
      <trkpt lat="45.83185" lon="3.58795">
        <ele>704</ele>
        <time>2021-02-14T13:28:18Z</time>
      </trkpt>
      <trkpt lat="45.83188" lon="3.58793">
        <ele>704</ele>
        <time>2021-02-14T13:28:20Z</time>
      </trkpt>
      <trkpt lat="45.83191" lon="3.58792">
        <ele>703</ele>
        <time>2021-02-14T13:28:22Z</time>
      </trkpt>
      <trkpt lat="45.83193" lon="3.5879">
        <ele>703</ele>
        <time>2021-02-14T13:28:24Z</time>
      </trkpt>
      <trkpt lat="45.83195" lon="3.58789">
        <ele>703</ele>
        <time>2021-02-14T13:28:26Z</time>
      </trkpt>
      <trkpt lat="45.83203" lon="3.58781">
        <ele>701</ele>
        <time>2021-02-14T13:28:33Z</time>
      </trkpt>
      <trkpt lat="45.83206" lon="3.58779">
        <ele>700</ele>
        <time>2021-02-14T13:28:35Z</time>
      </trkpt>
      <trkpt lat="45.83209" lon="3.58777">
        <ele>700</ele>
        <time>2021-02-14T13:28:37Z</time>
      </trkpt>
      <trkpt lat="45.83212" lon="3.58774">
        <ele>699</ele>
        <time>2021-02-14T13:28:39Z</time>
      </trkpt>
      <trkpt lat="45.83215" lon="3.58772">
        <ele>699</ele>
        <time>2021-02-14T13:28:41Z</time>
      </trkpt>
      <trkpt lat="45.83217" lon="3.5877">
        <ele>699</ele>
        <time>2021-02-14T13:28:43Z</time>
      </trkpt>
      <trkpt lat="45.83219" lon="3.58769">
        <ele>699</ele>
        <time>2021-02-14T13:28:45Z</time>
      </trkpt>
      <trkpt lat="45.83222" lon="3.58766">
        <ele>698</ele>
        <time>2021-02-14T13:28:47Z</time>
      </trkpt>
      <trkpt lat="45.83224" lon="3.58764">
        <ele>698</ele>
        <time>2021-02-14T13:28:49Z</time>
      </trkpt>
      <trkpt lat="45.83226" lon="3.58761">
        <ele>698</ele>
        <time>2021-02-14T13:28:51Z</time>
      </trkpt>
      <trkpt lat="45.83228" lon="3.58759">
        <ele>698</ele>
        <time>2021-02-14T13:28:53Z</time>
      </trkpt>
      <trkpt lat="45.8323" lon="3.58755">
        <ele>698</ele>
        <time>2021-02-14T13:28:55Z</time>
      </trkpt>
      <trkpt lat="45.83232" lon="3.58754">
        <ele>698</ele>
        <time>2021-02-14T13:28:57Z</time>
      </trkpt>
      <trkpt lat="45.83234" lon="3.58751">
        <ele>697</ele>
        <time>2021-02-14T13:28:59Z</time>
      </trkpt>
      <trkpt lat="45.83236" lon="3.58749">
        <ele>697</ele>
        <time>2021-02-14T13:29:01Z</time>
      </trkpt>
      <trkpt lat="45.83238" lon="3.58747">
        <ele>697</ele>
        <time>2021-02-14T13:29:03Z</time>
      </trkpt>
      <trkpt lat="45.8324" lon="3.58744">
        <ele>697</ele>
        <time>2021-02-14T13:29:05Z</time>
      </trkpt>
      <trkpt lat="45.83242" lon="3.58743">
        <ele>697</ele>
        <time>2021-02-14T13:29:06Z</time>
      </trkpt>
      <trkpt lat="45.83244" lon="3.5874">
        <ele>697</ele>
        <time>2021-02-14T13:29:08Z</time>
      </trkpt>
      <trkpt lat="45.83247" lon="3.58738">
        <ele>697</ele>
        <time>2021-02-14T13:29:10Z</time>
      </trkpt>
      <trkpt lat="45.83249" lon="3.58735">
        <ele>697</ele>
        <time>2021-02-14T13:29:12Z</time>
      </trkpt>
      <trkpt lat="45.83251" lon="3.58733">
        <ele>697</ele>
        <time>2021-02-14T13:29:14Z</time>
      </trkpt>
      <trkpt lat="45.83254" lon="3.58732">
        <ele>696</ele>
        <time>2021-02-14T13:29:16Z</time>
      </trkpt>
      <trkpt lat="45.83257" lon="3.58731">
        <ele>696</ele>
        <time>2021-02-14T13:29:18Z</time>
      </trkpt>
      <trkpt lat="45.83259" lon="3.5873">
        <ele>696</ele>
        <time>2021-02-14T13:29:20Z</time>
      </trkpt>
      <trkpt lat="45.83261" lon="3.58728">
        <ele>696</ele>
        <time>2021-02-14T13:29:22Z</time>
      </trkpt>
      <trkpt lat="45.83262" lon="3.58726">
        <ele>696</ele>
        <time>2021-02-14T13:29:24Z</time>
      </trkpt>
      <trkpt lat="45.83265" lon="3.58724">
        <ele>696</ele>
        <time>2021-02-14T13:29:26Z</time>
      </trkpt>
      <trkpt lat="45.83268" lon="3.58721">
        <ele>695</ele>
        <time>2021-02-14T13:29:28Z</time>
      </trkpt>
      <trkpt lat="45.8327" lon="3.58719">
        <ele>695</ele>
        <time>2021-02-14T13:29:30Z</time>
      </trkpt>
      <trkpt lat="45.83272" lon="3.58717">
        <ele>695</ele>
        <time>2021-02-14T13:29:32Z</time>
      </trkpt>
      <trkpt lat="45.83275" lon="3.58715">
        <ele>695</ele>
        <time>2021-02-14T13:29:34Z</time>
      </trkpt>
      <trkpt lat="45.83277" lon="3.58712">
        <ele>694</ele>
        <time>2021-02-14T13:29:36Z</time>
      </trkpt>
      <trkpt lat="45.83279" lon="3.5871">
        <ele>694</ele>
        <time>2021-02-14T13:29:38Z</time>
      </trkpt>
      <trkpt lat="45.83282" lon="3.58708">
        <ele>694</ele>
        <time>2021-02-14T13:29:40Z</time>
      </trkpt>
      <trkpt lat="45.83285" lon="3.58707">
        <ele>694</ele>
        <time>2021-02-14T13:29:42Z</time>
      </trkpt>
      <trkpt lat="45.83288" lon="3.58706">
        <ele>694</ele>
        <time>2021-02-14T13:29:44Z</time>
      </trkpt>
      <trkpt lat="45.8329" lon="3.58704">
        <ele>693</ele>
        <time>2021-02-14T13:29:46Z</time>
      </trkpt>
      <trkpt lat="45.83292" lon="3.58703">
        <ele>693</ele>
        <time>2021-02-14T13:29:48Z</time>
      </trkpt>
      <trkpt lat="45.83295" lon="3.58702">
        <ele>693</ele>
        <time>2021-02-14T13:29:50Z</time>
      </trkpt>
      <trkpt lat="45.83296" lon="3.58699">
        <ele>693</ele>
        <time>2021-02-14T13:29:55Z</time>
      </trkpt>
      <trkpt lat="45.83297" lon="3.58697">
        <ele>693</ele>
        <time>2021-02-14T13:29:58Z</time>
      </trkpt>
      <trkpt lat="45.83299" lon="3.58695">
        <ele>693</ele>
        <time>2021-02-14T13:30:00Z</time>
      </trkpt>
      <trkpt lat="45.833" lon="3.58692">
        <ele>692</ele>
        <time>2021-02-14T13:30:02Z</time>
      </trkpt>
      <trkpt lat="45.83302" lon="3.5869">
        <ele>692</ele>
        <time>2021-02-14T13:30:04Z</time>
      </trkpt>
      <trkpt lat="45.83303" lon="3.58688">
        <ele>692</ele>
        <time>2021-02-14T13:30:06Z</time>
      </trkpt>
      <trkpt lat="45.83304" lon="3.58685">
        <ele>692</ele>
        <time>2021-02-14T13:30:08Z</time>
      </trkpt>
      <trkpt lat="45.83305" lon="3.58681">
        <ele>692</ele>
        <time>2021-02-14T13:30:10Z</time>
      </trkpt>
      <trkpt lat="45.83306" lon="3.58679">
        <ele>692</ele>
        <time>2021-02-14T13:30:11Z</time>
      </trkpt>
      <trkpt lat="45.83307" lon="3.58676">
        <ele>692</ele>
        <time>2021-02-14T13:30:12Z</time>
      </trkpt>
      <trkpt lat="45.83307" lon="3.58673">
        <ele>692</ele>
        <time>2021-02-14T13:30:14Z</time>
      </trkpt>
      <trkpt lat="45.83307" lon="3.5867">
        <ele>692</ele>
        <time>2021-02-14T13:30:16Z</time>
      </trkpt>
      <trkpt lat="45.83307" lon="3.58666">
        <ele>691</ele>
        <time>2021-02-14T13:30:18Z</time>
      </trkpt>
      <trkpt lat="45.83307" lon="3.58661">
        <ele>691</ele>
        <time>2021-02-14T13:30:20Z</time>
      </trkpt>
      <trkpt lat="45.83306" lon="3.58658">
        <ele>691</ele>
        <time>2021-02-14T13:30:22Z</time>
      </trkpt>
      <trkpt lat="45.83306" lon="3.58654">
        <ele>690</ele>
        <time>2021-02-14T13:30:24Z</time>
      </trkpt>
      <trkpt lat="45.83307" lon="3.5865">
        <ele>690</ele>
        <time>2021-02-14T13:30:26Z</time>
      </trkpt>
      <trkpt lat="45.83309" lon="3.58646">
        <ele>689</ele>
        <time>2021-02-14T13:30:28Z</time>
      </trkpt>
      <trkpt lat="45.8331" lon="3.58643">
        <ele>689</ele>
        <time>2021-02-14T13:30:30Z</time>
      </trkpt>
      <trkpt lat="45.83313" lon="3.58641">
        <ele>689</ele>
        <time>2021-02-14T13:30:32Z</time>
      </trkpt>
      <trkpt lat="45.83315" lon="3.58638">
        <ele>689</ele>
        <time>2021-02-14T13:30:34Z</time>
      </trkpt>
      <trkpt lat="45.83318" lon="3.58636">
        <ele>689</ele>
        <time>2021-02-14T13:30:36Z</time>
      </trkpt>
      <trkpt lat="45.8332" lon="3.58633">
        <ele>689</ele>
        <time>2021-02-14T13:30:38Z</time>
      </trkpt>
      <trkpt lat="45.83323" lon="3.58631">
        <ele>689</ele>
        <time>2021-02-14T13:30:40Z</time>
      </trkpt>
      <trkpt lat="45.83324" lon="3.58628">
        <ele>689</ele>
        <time>2021-02-14T13:30:42Z</time>
      </trkpt>
      <trkpt lat="45.83326" lon="3.58625">
        <ele>689</ele>
        <time>2021-02-14T13:30:44Z</time>
      </trkpt>
      <trkpt lat="45.83328" lon="3.58624">
        <ele>688</ele>
        <time>2021-02-14T13:30:46Z</time>
      </trkpt>
      <trkpt lat="45.83331" lon="3.58621">
        <ele>688</ele>
        <time>2021-02-14T13:30:48Z</time>
      </trkpt>
      <trkpt lat="45.83333" lon="3.58618">
        <ele>688</ele>
        <time>2021-02-14T13:30:50Z</time>
      </trkpt>
      <trkpt lat="45.83334" lon="3.58616">
        <ele>688</ele>
        <time>2021-02-14T13:30:51Z</time>
      </trkpt>
      <trkpt lat="45.83337" lon="3.58614">
        <ele>687</ele>
        <time>2021-02-14T13:30:53Z</time>
      </trkpt>
      <trkpt lat="45.8334" lon="3.58611">
        <ele>687</ele>
        <time>2021-02-14T13:30:55Z</time>
      </trkpt>
      <trkpt lat="45.83342" lon="3.58609">
        <ele>687</ele>
        <time>2021-02-14T13:30:57Z</time>
      </trkpt>
      <trkpt lat="45.83344" lon="3.58606">
        <ele>686</ele>
        <time>2021-02-14T13:30:59Z</time>
      </trkpt>
      <trkpt lat="45.83346" lon="3.58602">
        <ele>686</ele>
        <time>2021-02-14T13:31:01Z</time>
      </trkpt>
      <trkpt lat="45.83348" lon="3.586">
        <ele>686</ele>
        <time>2021-02-14T13:31:03Z</time>
      </trkpt>
      <trkpt lat="45.83351" lon="3.58598">
        <ele>685</ele>
        <time>2021-02-14T13:31:05Z</time>
      </trkpt>
      <trkpt lat="45.83353" lon="3.58596">
        <ele>685</ele>
        <time>2021-02-14T13:31:07Z</time>
      </trkpt>
      <trkpt lat="45.83355" lon="3.58593">
        <ele>685</ele>
        <time>2021-02-14T13:31:09Z</time>
      </trkpt>
      <trkpt lat="45.83358" lon="3.58591">
        <ele>685</ele>
        <time>2021-02-14T13:31:11Z</time>
      </trkpt>
      <trkpt lat="45.8336" lon="3.58588">
        <ele>685</ele>
        <time>2021-02-14T13:31:13Z</time>
      </trkpt>
      <trkpt lat="45.83363" lon="3.58587">
        <ele>684</ele>
        <time>2021-02-14T13:31:15Z</time>
      </trkpt>
      <trkpt lat="45.83366" lon="3.58585">
        <ele>684</ele>
        <time>2021-02-14T13:31:17Z</time>
      </trkpt>
      <trkpt lat="45.83369" lon="3.58584">
        <ele>684</ele>
        <time>2021-02-14T13:31:19Z</time>
      </trkpt>
      <trkpt lat="45.83372" lon="3.58582">
        <ele>684</ele>
        <time>2021-02-14T13:31:21Z</time>
      </trkpt>
      <trkpt lat="45.83374" lon="3.5858">
        <ele>683</ele>
        <time>2021-02-14T13:31:23Z</time>
      </trkpt>
      <trkpt lat="45.83376" lon="3.58579">
        <ele>683</ele>
        <time>2021-02-14T13:31:25Z</time>
      </trkpt>
      <trkpt lat="45.83378" lon="3.58577">
        <ele>683</ele>
        <time>2021-02-14T13:31:28Z</time>
      </trkpt>
      <trkpt lat="45.83381" lon="3.58575">
        <ele>683</ele>
        <time>2021-02-14T13:31:30Z</time>
      </trkpt>
      <trkpt lat="45.83383" lon="3.58573">
        <ele>682</ele>
        <time>2021-02-14T13:31:32Z</time>
      </trkpt>
      <trkpt lat="45.83385" lon="3.58571">
        <ele>682</ele>
        <time>2021-02-14T13:31:34Z</time>
      </trkpt>
      <trkpt lat="45.83388" lon="3.5857">
        <ele>682</ele>
        <time>2021-02-14T13:31:36Z</time>
      </trkpt>
      <trkpt lat="45.8339" lon="3.58568">
        <ele>682</ele>
        <time>2021-02-14T13:31:41Z</time>
      </trkpt>
      <trkpt lat="45.83393" lon="3.58566">
        <ele>682</ele>
        <time>2021-02-14T13:31:43Z</time>
      </trkpt>
      <trkpt lat="45.83395" lon="3.58564">
        <ele>682</ele>
        <time>2021-02-14T13:31:44Z</time>
      </trkpt>
      <trkpt lat="45.83396" lon="3.58563">
        <ele>682</ele>
        <time>2021-02-14T13:31:45Z</time>
      </trkpt>
      <trkpt lat="45.83399" lon="3.58561">
        <ele>682</ele>
        <time>2021-02-14T13:31:47Z</time>
      </trkpt>
      <trkpt lat="45.83401" lon="3.58558">
        <ele>682</ele>
        <time>2021-02-14T13:31:49Z</time>
      </trkpt>
      <trkpt lat="45.83403" lon="3.58556">
        <ele>682</ele>
        <time>2021-02-14T13:31:51Z</time>
      </trkpt>
      <trkpt lat="45.83404" lon="3.58554">
        <ele>682</ele>
        <time>2021-02-14T13:31:53Z</time>
      </trkpt>
      <trkpt lat="45.83407" lon="3.58552">
        <ele>682</ele>
        <time>2021-02-14T13:31:55Z</time>
      </trkpt>
      <trkpt lat="45.8341" lon="3.58551">
        <ele>682</ele>
        <time>2021-02-14T13:31:57Z</time>
      </trkpt>
      <trkpt lat="45.83411" lon="3.58548">
        <ele>682</ele>
        <time>2021-02-14T13:31:59Z</time>
      </trkpt>
      <trkpt lat="45.83411" lon="3.58545">
        <ele>682</ele>
        <time>2021-02-14T13:32:01Z</time>
      </trkpt>
      <trkpt lat="45.83412" lon="3.58542">
        <ele>681</ele>
        <time>2021-02-14T13:32:04Z</time>
      </trkpt>
      <trkpt lat="45.83414" lon="3.58539">
        <ele>681</ele>
        <time>2021-02-14T13:32:06Z</time>
      </trkpt>
      <trkpt lat="45.83415" lon="3.58535">
        <ele>681</ele>
        <time>2021-02-14T13:32:08Z</time>
      </trkpt>
      <trkpt lat="45.83417" lon="3.58532">
        <ele>681</ele>
        <time>2021-02-14T13:32:10Z</time>
      </trkpt>
      <trkpt lat="45.83419" lon="3.5853">
        <ele>681</ele>
        <time>2021-02-14T13:32:12Z</time>
      </trkpt>
      <trkpt lat="45.83421" lon="3.58528">
        <ele>681</ele>
        <time>2021-02-14T13:32:13Z</time>
      </trkpt>
      <trkpt lat="45.83423" lon="3.58526">
        <ele>681</ele>
        <time>2021-02-14T13:32:14Z</time>
      </trkpt>
      <trkpt lat="45.83426" lon="3.58524">
        <ele>681</ele>
        <time>2021-02-14T13:32:16Z</time>
      </trkpt>
      <trkpt lat="45.83428" lon="3.58523">
        <ele>681</ele>
        <time>2021-02-14T13:32:17Z</time>
      </trkpt>
      <trkpt lat="45.83431" lon="3.58521">
        <ele>681</ele>
        <time>2021-02-14T13:32:19Z</time>
      </trkpt>
      <trkpt lat="45.83433" lon="3.58519">
        <ele>681</ele>
        <time>2021-02-14T13:32:20Z</time>
      </trkpt>
      <trkpt lat="45.83435" lon="3.58516">
        <ele>681</ele>
        <time>2021-02-14T13:32:22Z</time>
      </trkpt>
      <trkpt lat="45.83438" lon="3.58514">
        <ele>681</ele>
        <time>2021-02-14T13:32:24Z</time>
      </trkpt>
      <trkpt lat="45.8344" lon="3.58511">
        <ele>681</ele>
        <time>2021-02-14T13:32:26Z</time>
      </trkpt>
      <trkpt lat="45.83444" lon="3.5851">
        <ele>681</ele>
        <time>2021-02-14T13:32:28Z</time>
      </trkpt>
      <trkpt lat="45.83447" lon="3.58509">
        <ele>682</ele>
        <time>2021-02-14T13:32:30Z</time>
      </trkpt>
      <trkpt lat="45.8345" lon="3.58507">
        <ele>682</ele>
        <time>2021-02-14T13:32:32Z</time>
      </trkpt>
      <trkpt lat="45.83453" lon="3.58506">
        <ele>682</ele>
        <time>2021-02-14T13:32:34Z</time>
      </trkpt>
      <trkpt lat="45.83456" lon="3.58505">
        <ele>682</ele>
        <time>2021-02-14T13:32:36Z</time>
      </trkpt>
      <trkpt lat="45.83459" lon="3.58504">
        <ele>682</ele>
        <time>2021-02-14T13:32:38Z</time>
      </trkpt>
      <trkpt lat="45.83461" lon="3.58503">
        <ele>682</ele>
        <time>2021-02-14T13:32:39Z</time>
      </trkpt>
      <trkpt lat="45.83464" lon="3.58502">
        <ele>682</ele>
        <time>2021-02-14T13:32:41Z</time>
      </trkpt>
      <trkpt lat="45.83468" lon="3.58502">
        <ele>682</ele>
        <time>2021-02-14T13:32:43Z</time>
      </trkpt>
      <trkpt lat="45.83471" lon="3.58502">
        <ele>683</ele>
        <time>2021-02-14T13:32:45Z</time>
      </trkpt>
      <trkpt lat="45.83474" lon="3.58502">
        <ele>683</ele>
        <time>2021-02-14T13:32:47Z</time>
      </trkpt>
      <trkpt lat="45.83478" lon="3.58502">
        <ele>683</ele>
        <time>2021-02-14T13:32:49Z</time>
      </trkpt>
      <trkpt lat="45.83481" lon="3.58503">
        <ele>683</ele>
        <time>2021-02-14T13:32:51Z</time>
      </trkpt>
      <trkpt lat="45.83483" lon="3.58503">
        <ele>683</ele>
        <time>2021-02-14T13:32:53Z</time>
      </trkpt>
      <trkpt lat="45.83486" lon="3.58503">
        <ele>684</ele>
        <time>2021-02-14T13:32:55Z</time>
      </trkpt>
      <trkpt lat="45.83489" lon="3.58505">
        <ele>684</ele>
        <time>2021-02-14T13:32:57Z</time>
      </trkpt>
      <trkpt lat="45.83492" lon="3.58507">
        <ele>684</ele>
        <time>2021-02-14T13:32:59Z</time>
      </trkpt>
      <trkpt lat="45.83495" lon="3.58507">
        <ele>684</ele>
        <time>2021-02-14T13:33:01Z</time>
      </trkpt>
      <trkpt lat="45.83498" lon="3.58507">
        <ele>684</ele>
        <time>2021-02-14T13:33:03Z</time>
      </trkpt>
      <trkpt lat="45.83501" lon="3.58509">
        <ele>685</ele>
        <time>2021-02-14T13:33:05Z</time>
      </trkpt>
      <trkpt lat="45.83504" lon="3.5851">
        <ele>685</ele>
        <time>2021-02-14T13:33:07Z</time>
      </trkpt>
      <trkpt lat="45.83506" lon="3.58512">
        <ele>685</ele>
        <time>2021-02-14T13:33:09Z</time>
      </trkpt>
      <trkpt lat="45.83509" lon="3.58514">
        <ele>685</ele>
        <time>2021-02-14T13:33:11Z</time>
      </trkpt>
      <trkpt lat="45.83512" lon="3.58516">
        <ele>685</ele>
        <time>2021-02-14T13:33:13Z</time>
      </trkpt>
      <trkpt lat="45.83514" lon="3.58517">
        <ele>685</ele>
        <time>2021-02-14T13:33:15Z</time>
      </trkpt>
      <trkpt lat="45.83516" lon="3.58519">
        <ele>686</ele>
        <time>2021-02-14T13:33:17Z</time>
      </trkpt>
      <trkpt lat="45.83519" lon="3.5852">
        <ele>686</ele>
        <time>2021-02-14T13:33:19Z</time>
      </trkpt>
      <trkpt lat="45.83522" lon="3.5852">
        <ele>686</ele>
        <time>2021-02-14T13:33:21Z</time>
      </trkpt>
      <trkpt lat="45.83524" lon="3.58519">
        <ele>686</ele>
        <time>2021-02-14T13:33:23Z</time>
      </trkpt>
      <trkpt lat="45.83526" lon="3.58518">
        <ele>686</ele>
        <time>2021-02-14T13:33:25Z</time>
      </trkpt>
      <trkpt lat="45.83527" lon="3.58515">
        <ele>686</ele>
        <time>2021-02-14T13:33:27Z</time>
      </trkpt>
      <trkpt lat="45.83527" lon="3.58513">
        <ele>686</ele>
        <time>2021-02-14T13:33:29Z</time>
      </trkpt>
      <trkpt lat="45.83528" lon="3.58509">
        <ele>687</ele>
        <time>2021-02-14T13:33:32Z</time>
      </trkpt>
      <trkpt lat="45.83528" lon="3.58506">
        <ele>686</ele>
        <time>2021-02-14T13:33:34Z</time>
      </trkpt>
      <trkpt lat="45.83526" lon="3.58504">
        <ele>686</ele>
        <time>2021-02-14T13:33:36Z</time>
      </trkpt>
      <trkpt lat="45.83526" lon="3.58501">
        <ele>686</ele>
        <time>2021-02-14T13:33:38Z</time>
      </trkpt>
      <trkpt lat="45.83527" lon="3.58498">
        <ele>686</ele>
        <time>2021-02-14T13:33:40Z</time>
      </trkpt>
      <trkpt lat="45.83528" lon="3.58495">
        <ele>687</ele>
        <time>2021-02-14T13:33:42Z</time>
      </trkpt>
      <trkpt lat="45.83529" lon="3.58493">
        <ele>687</ele>
        <time>2021-02-14T13:33:44Z</time>
      </trkpt>
      <trkpt lat="45.83531" lon="3.58489">
        <ele>687</ele>
        <time>2021-02-14T13:33:46Z</time>
      </trkpt>
      <trkpt lat="45.83532" lon="3.58487">
        <ele>687</ele>
        <time>2021-02-14T13:33:48Z</time>
      </trkpt>
      <trkpt lat="45.83534" lon="3.58484">
        <ele>687</ele>
        <time>2021-02-14T13:33:50Z</time>
      </trkpt>
      <trkpt lat="45.83535" lon="3.58483">
        <ele>687</ele>
        <time>2021-02-14T13:33:52Z</time>
      </trkpt>
      <trkpt lat="45.83538" lon="3.58481">
        <ele>688</ele>
        <time>2021-02-14T13:33:55Z</time>
      </trkpt>
      <trkpt lat="45.8354" lon="3.5848">
        <ele>688</ele>
        <time>2021-02-14T13:33:57Z</time>
      </trkpt>
      <trkpt lat="45.83542" lon="3.58477">
        <ele>688</ele>
        <time>2021-02-14T13:33:59Z</time>
      </trkpt>
      <trkpt lat="45.83543" lon="3.58475">
        <ele>688</ele>
        <time>2021-02-14T13:34:01Z</time>
      </trkpt>
      <trkpt lat="45.83545" lon="3.58472">
        <ele>688</ele>
        <time>2021-02-14T13:34:03Z</time>
      </trkpt>
      <trkpt lat="45.83547" lon="3.5847">
        <ele>688</ele>
        <time>2021-02-14T13:34:05Z</time>
      </trkpt>
      <trkpt lat="45.83549" lon="3.58468">
        <ele>688</ele>
        <time>2021-02-14T13:34:07Z</time>
      </trkpt>
      <trkpt lat="45.83551" lon="3.58467">
        <ele>688</ele>
        <time>2021-02-14T13:34:09Z</time>
      </trkpt>
      <trkpt lat="45.83552" lon="3.58464">
        <ele>688</ele>
        <time>2021-02-14T13:34:11Z</time>
      </trkpt>
      <trkpt lat="45.83554" lon="3.58462">
        <ele>688</ele>
        <time>2021-02-14T13:34:13Z</time>
      </trkpt>
      <trkpt lat="45.83555" lon="3.58459">
        <ele>688</ele>
        <time>2021-02-14T13:34:15Z</time>
      </trkpt>
      <trkpt lat="45.83557" lon="3.58456">
        <ele>689</ele>
        <time>2021-02-14T13:34:17Z</time>
      </trkpt>
      <trkpt lat="45.83558" lon="3.58453">
        <ele>689</ele>
        <time>2021-02-14T13:34:19Z</time>
      </trkpt>
      <trkpt lat="45.8356" lon="3.58451">
        <ele>689</ele>
        <time>2021-02-14T13:34:21Z</time>
      </trkpt>
      <trkpt lat="45.83561" lon="3.58448">
        <ele>689</ele>
        <time>2021-02-14T13:34:23Z</time>
      </trkpt>
      <trkpt lat="45.83562" lon="3.58445">
        <ele>689</ele>
        <time>2021-02-14T13:34:25Z</time>
      </trkpt>
      <trkpt lat="45.83562" lon="3.58443">
        <ele>689</ele>
        <time>2021-02-14T13:34:27Z</time>
      </trkpt>
      <trkpt lat="45.83564" lon="3.5844">
        <ele>690</ele>
        <time>2021-02-14T13:34:29Z</time>
      </trkpt>
      <trkpt lat="45.83566" lon="3.58438">
        <ele>690</ele>
        <time>2021-02-14T13:34:31Z</time>
      </trkpt>
      <trkpt lat="45.83567" lon="3.58435">
        <ele>690</ele>
        <time>2021-02-14T13:34:33Z</time>
      </trkpt>
      <trkpt lat="45.83568" lon="3.58433">
        <ele>690</ele>
        <time>2021-02-14T13:34:35Z</time>
      </trkpt>
      <trkpt lat="45.83569" lon="3.58431">
        <ele>690</ele>
        <time>2021-02-14T13:34:37Z</time>
      </trkpt>
      <trkpt lat="45.83571" lon="3.58428">
        <ele>690</ele>
        <time>2021-02-14T13:34:39Z</time>
      </trkpt>
      <trkpt lat="45.83572" lon="3.58426">
        <ele>690</ele>
        <time>2021-02-14T13:34:41Z</time>
      </trkpt>
      <trkpt lat="45.83573" lon="3.58424">
        <ele>691</ele>
        <time>2021-02-14T13:34:43Z</time>
      </trkpt>
      <trkpt lat="45.83574" lon="3.58422">
        <ele>691</ele>
        <time>2021-02-14T13:34:45Z</time>
      </trkpt>
      <trkpt lat="45.83575" lon="3.58418">
        <ele>691</ele>
        <time>2021-02-14T13:34:47Z</time>
      </trkpt>
      <trkpt lat="45.83575" lon="3.58414">
        <ele>690</ele>
        <time>2021-02-14T13:34:50Z</time>
      </trkpt>
      <trkpt lat="45.83576" lon="3.58411">
        <ele>690</ele>
        <time>2021-02-14T13:34:52Z</time>
      </trkpt>
      <trkpt lat="45.83577" lon="3.58408">
        <ele>690</ele>
        <time>2021-02-14T13:34:54Z</time>
      </trkpt>
      <trkpt lat="45.83578" lon="3.58404">
        <ele>690</ele>
        <time>2021-02-14T13:34:56Z</time>
      </trkpt>
      <trkpt lat="45.83578" lon="3.58401">
        <ele>690</ele>
        <time>2021-02-14T13:34:58Z</time>
      </trkpt>
      <trkpt lat="45.83578" lon="3.58397">
        <ele>690</ele>
        <time>2021-02-14T13:35:00Z</time>
      </trkpt>
      <trkpt lat="45.83579" lon="3.58393">
        <ele>690</ele>
        <time>2021-02-14T13:35:02Z</time>
      </trkpt>
      <trkpt lat="45.83579" lon="3.58389">
        <ele>690</ele>
        <time>2021-02-14T13:35:04Z</time>
      </trkpt>
      <trkpt lat="45.83579" lon="3.58386">
        <ele>689</ele>
        <time>2021-02-14T13:35:06Z</time>
      </trkpt>
      <trkpt lat="45.83579" lon="3.58383">
        <ele>689</ele>
        <time>2021-02-14T13:35:08Z</time>
      </trkpt>
      <trkpt lat="45.8358" lon="3.58379">
        <ele>689</ele>
        <time>2021-02-14T13:35:10Z</time>
      </trkpt>
      <trkpt lat="45.83581" lon="3.58375">
        <ele>689</ele>
        <time>2021-02-14T13:35:12Z</time>
      </trkpt>
      <trkpt lat="45.83582" lon="3.58371">
        <ele>689</ele>
        <time>2021-02-14T13:35:14Z</time>
      </trkpt>
      <trkpt lat="45.83583" lon="3.58367">
        <ele>689</ele>
        <time>2021-02-14T13:35:16Z</time>
      </trkpt>
      <trkpt lat="45.83584" lon="3.58363">
        <ele>689</ele>
        <time>2021-02-14T13:35:18Z</time>
      </trkpt>
      <trkpt lat="45.83586" lon="3.5836">
        <ele>689</ele>
        <time>2021-02-14T13:35:20Z</time>
      </trkpt>
      <trkpt lat="45.83588" lon="3.58357">
        <ele>689</ele>
        <time>2021-02-14T13:35:22Z</time>
      </trkpt>
      <trkpt lat="45.8359" lon="3.58355">
        <ele>689</ele>
        <time>2021-02-14T13:35:24Z</time>
      </trkpt>
      <trkpt lat="45.83592" lon="3.58353">
        <ele>689</ele>
        <time>2021-02-14T13:35:26Z</time>
      </trkpt>
      <trkpt lat="45.83594" lon="3.58351">
        <ele>690</ele>
        <time>2021-02-14T13:35:28Z</time>
      </trkpt>
      <trkpt lat="45.83596" lon="3.5835">
        <ele>690</ele>
        <time>2021-02-14T13:35:30Z</time>
      </trkpt>
      <trkpt lat="45.83598" lon="3.58348">
        <ele>690</ele>
        <time>2021-02-14T13:35:32Z</time>
      </trkpt>
      <trkpt lat="45.83601" lon="3.58346">
        <ele>690</ele>
        <time>2021-02-14T13:35:34Z</time>
      </trkpt>
      <trkpt lat="45.83603" lon="3.58345">
        <ele>690</ele>
        <time>2021-02-14T13:35:36Z</time>
      </trkpt>
      <trkpt lat="45.83606" lon="3.58344">
        <ele>691</ele>
        <time>2021-02-14T13:35:38Z</time>
      </trkpt>
      <trkpt lat="45.83609" lon="3.58343">
        <ele>691</ele>
        <time>2021-02-14T13:35:40Z</time>
      </trkpt>
      <trkpt lat="45.83611" lon="3.58343">
        <ele>691</ele>
        <time>2021-02-14T13:35:42Z</time>
      </trkpt>
      <trkpt lat="45.83613" lon="3.58342">
        <ele>692</ele>
        <time>2021-02-14T13:35:44Z</time>
      </trkpt>
      <trkpt lat="45.83616" lon="3.58341">
        <ele>692</ele>
        <time>2021-02-14T13:35:47Z</time>
      </trkpt>
      <trkpt lat="45.83618" lon="3.5834">
        <ele>692</ele>
        <time>2021-02-14T13:35:49Z</time>
      </trkpt>
      <trkpt lat="45.8362" lon="3.58338">
        <ele>692</ele>
        <time>2021-02-14T13:35:51Z</time>
      </trkpt>
      <trkpt lat="45.83621" lon="3.58335">
        <ele>692</ele>
        <time>2021-02-14T13:35:53Z</time>
      </trkpt>
      <trkpt lat="45.83622" lon="3.58332">
        <ele>692</ele>
        <time>2021-02-14T13:35:55Z</time>
      </trkpt>
      <trkpt lat="45.83623" lon="3.58329">
        <ele>692</ele>
        <time>2021-02-14T13:35:57Z</time>
      </trkpt>
      <trkpt lat="45.83624" lon="3.58325">
        <ele>691</ele>
        <time>2021-02-14T13:35:59Z</time>
      </trkpt>
      <trkpt lat="45.83625" lon="3.58321">
        <ele>691</ele>
        <time>2021-02-14T13:36:01Z</time>
      </trkpt>
      <trkpt lat="45.83626" lon="3.58317">
        <ele>691</ele>
        <time>2021-02-14T13:36:03Z</time>
      </trkpt>
      <trkpt lat="45.83627" lon="3.58314">
        <ele>690</ele>
        <time>2021-02-14T13:36:11Z</time>
      </trkpt>
      <trkpt lat="45.83628" lon="3.58311">
        <ele>690</ele>
        <time>2021-02-14T13:36:13Z</time>
      </trkpt>
      <trkpt lat="45.83629" lon="3.58308">
        <ele>690</ele>
        <time>2021-02-14T13:36:15Z</time>
      </trkpt>
      <trkpt lat="45.83631" lon="3.58304">
        <ele>689</ele>
        <time>2021-02-14T13:36:17Z</time>
      </trkpt>
      <trkpt lat="45.83632" lon="3.58301">
        <ele>689</ele>
        <time>2021-02-14T13:36:19Z</time>
      </trkpt>
      <trkpt lat="45.83634" lon="3.58298">
        <ele>689</ele>
        <time>2021-02-14T13:36:21Z</time>
      </trkpt>
      <trkpt lat="45.83636" lon="3.58295">
        <ele>689</ele>
        <time>2021-02-14T13:36:23Z</time>
      </trkpt>
      <trkpt lat="45.83637" lon="3.58291">
        <ele>688</ele>
        <time>2021-02-14T13:36:25Z</time>
      </trkpt>
      <trkpt lat="45.83639" lon="3.58289">
        <ele>688</ele>
        <time>2021-02-14T13:36:27Z</time>
      </trkpt>
      <trkpt lat="45.83642" lon="3.58287">
        <ele>688</ele>
        <time>2021-02-14T13:36:29Z</time>
      </trkpt>
      <trkpt lat="45.83644" lon="3.58286">
        <ele>689</ele>
        <time>2021-02-14T13:36:31Z</time>
      </trkpt>
      <trkpt lat="45.83646" lon="3.58283">
        <ele>688</ele>
        <time>2021-02-14T13:36:33Z</time>
      </trkpt>
      <trkpt lat="45.83648" lon="3.58279">
        <ele>688</ele>
        <time>2021-02-14T13:36:35Z</time>
      </trkpt>
      <trkpt lat="45.8365" lon="3.58276">
        <ele>688</ele>
        <time>2021-02-14T13:36:37Z</time>
      </trkpt>
      <trkpt lat="45.83652" lon="3.58274">
        <ele>688</ele>
        <time>2021-02-14T13:36:39Z</time>
      </trkpt>
      <trkpt lat="45.83655" lon="3.58272">
        <ele>689</ele>
        <time>2021-02-14T13:36:41Z</time>
      </trkpt>
      <trkpt lat="45.83657" lon="3.58271">
        <ele>689</ele>
        <time>2021-02-14T13:36:43Z</time>
      </trkpt>
      <trkpt lat="45.83659" lon="3.58269">
        <ele>689</ele>
        <time>2021-02-14T13:36:45Z</time>
      </trkpt>
      <trkpt lat="45.83661" lon="3.58267">
        <ele>689</ele>
        <time>2021-02-14T13:36:47Z</time>
      </trkpt>
      <trkpt lat="45.83663" lon="3.58265">
        <ele>689</ele>
        <time>2021-02-14T13:36:49Z</time>
      </trkpt>
      <trkpt lat="45.83664" lon="3.58262">
        <ele>689</ele>
        <time>2021-02-14T13:36:51Z</time>
      </trkpt>
      <trkpt lat="45.83666" lon="3.5826">
        <ele>689</ele>
        <time>2021-02-14T13:36:53Z</time>
      </trkpt>
      <trkpt lat="45.83667" lon="3.58258">
        <ele>689</ele>
        <time>2021-02-14T13:36:55Z</time>
      </trkpt>
      <trkpt lat="45.83669" lon="3.58255">
        <ele>689</ele>
        <time>2021-02-14T13:36:57Z</time>
      </trkpt>
      <trkpt lat="45.83671" lon="3.58252">
        <ele>689</ele>
        <time>2021-02-14T13:36:59Z</time>
      </trkpt>
      <trkpt lat="45.83672" lon="3.58248">
        <ele>689</ele>
        <time>2021-02-14T13:37:01Z</time>
      </trkpt>
      <trkpt lat="45.83674" lon="3.58245">
        <ele>689</ele>
        <time>2021-02-14T13:37:03Z</time>
      </trkpt>
      <trkpt lat="45.83675" lon="3.58242">
        <ele>689</ele>
        <time>2021-02-14T13:37:04Z</time>
      </trkpt>
      <trkpt lat="45.83677" lon="3.58239">
        <ele>690</ele>
        <time>2021-02-14T13:37:06Z</time>
      </trkpt>
      <trkpt lat="45.83679" lon="3.58235">
        <ele>690</ele>
        <time>2021-02-14T13:37:08Z</time>
      </trkpt>
      <trkpt lat="45.83681" lon="3.58232">
        <ele>690</ele>
        <time>2021-02-14T13:37:10Z</time>
      </trkpt>
      <trkpt lat="45.83683" lon="3.58229">
        <ele>690</ele>
        <time>2021-02-14T13:37:12Z</time>
      </trkpt>
      <trkpt lat="45.83684" lon="3.58226">
        <ele>691</ele>
        <time>2021-02-14T13:37:14Z</time>
      </trkpt>
      <trkpt lat="45.83685" lon="3.58223">
        <ele>691</ele>
        <time>2021-02-14T13:37:16Z</time>
      </trkpt>
      <trkpt lat="45.83687" lon="3.58219">
        <ele>691</ele>
        <time>2021-02-14T13:37:18Z</time>
      </trkpt>
      <trkpt lat="45.83688" lon="3.58216">
        <ele>691</ele>
        <time>2021-02-14T13:37:20Z</time>
      </trkpt>
      <trkpt lat="45.8369" lon="3.58212">
        <ele>691</ele>
        <time>2021-02-14T13:37:22Z</time>
      </trkpt>
      <trkpt lat="45.83691" lon="3.5821">
        <ele>691</ele>
        <time>2021-02-14T13:37:24Z</time>
      </trkpt>
      <trkpt lat="45.83693" lon="3.58206">
        <ele>691</ele>
        <time>2021-02-14T13:37:26Z</time>
      </trkpt>
      <trkpt lat="45.83694" lon="3.58202">
        <ele>691</ele>
        <time>2021-02-14T13:37:28Z</time>
      </trkpt>
      <trkpt lat="45.83695" lon="3.58198">
        <ele>691</ele>
        <time>2021-02-14T13:37:30Z</time>
      </trkpt>
      <trkpt lat="45.83697" lon="3.58195">
        <ele>691</ele>
        <time>2021-02-14T13:37:32Z</time>
      </trkpt>
      <trkpt lat="45.837" lon="3.58192">
        <ele>691</ele>
        <time>2021-02-14T13:37:34Z</time>
      </trkpt>
      <trkpt lat="45.83702" lon="3.58189">
        <ele>691</ele>
        <time>2021-02-14T13:37:36Z</time>
      </trkpt>
      <trkpt lat="45.83704" lon="3.58186">
        <ele>691</ele>
        <time>2021-02-14T13:37:38Z</time>
      </trkpt>
      <trkpt lat="45.83706" lon="3.58184">
        <ele>691</ele>
        <time>2021-02-14T13:37:40Z</time>
      </trkpt>
      <trkpt lat="45.83707" lon="3.58182">
        <ele>691</ele>
        <time>2021-02-14T13:37:42Z</time>
      </trkpt>
      <trkpt lat="45.83709" lon="3.58179">
        <ele>691</ele>
        <time>2021-02-14T13:37:44Z</time>
      </trkpt>
      <trkpt lat="45.83713" lon="3.58165">
        <ele>689</ele>
        <time>2021-02-14T13:37:49Z</time>
      </trkpt>
      <trkpt lat="45.83719" lon="3.58154">
        <ele>689</ele>
        <time>2021-02-14T13:37:55Z</time>
      </trkpt>
      <trkpt lat="45.83722" lon="3.58152">
        <ele>689</ele>
        <time>2021-02-14T13:37:57Z</time>
      </trkpt>
      <trkpt lat="45.83724" lon="3.58146">
        <ele>688</ele>
        <time>2021-02-14T13:38:01Z</time>
      </trkpt>
      <trkpt lat="45.83728" lon="3.58133">
        <ele>688</ele>
        <time>2021-02-14T13:38:10Z</time>
      </trkpt>
      <trkpt lat="45.83732" lon="3.58128">
        <ele>689</ele>
        <time>2021-02-14T13:38:18Z</time>
      </trkpt>
      <trkpt lat="45.83734" lon="3.58125">
        <ele>689</ele>
        <time>2021-02-14T13:38:31Z</time>
      </trkpt>
      <trkpt lat="45.83733" lon="3.58112">
        <ele>689</ele>
        <time>2021-02-14T13:38:40Z</time>
      </trkpt>
      <trkpt lat="45.83733" lon="3.58106">
        <ele>689</ele>
        <time>2021-02-14T13:38:43Z</time>
      </trkpt>
      <trkpt lat="45.83734" lon="3.58101">
        <ele>690</ele>
        <time>2021-02-14T13:38:46Z</time>
      </trkpt>
      <trkpt lat="45.83736" lon="3.58087">
        <ele>691</ele>
        <time>2021-02-14T13:38:56Z</time>
      </trkpt>
      <trkpt lat="45.83735" lon="3.58073">
        <ele>693</ele>
        <time>2021-02-14T13:39:02Z</time>
      </trkpt>
      <trkpt lat="45.83734" lon="3.5806">
        <ele>694</ele>
        <time>2021-02-14T13:39:09Z</time>
      </trkpt>
      <trkpt lat="45.83735" lon="3.58046">
        <ele>697</ele>
        <time>2021-02-14T13:39:16Z</time>
      </trkpt>
      <trkpt lat="45.83737" lon="3.58033">
        <ele>699</ele>
        <time>2021-02-14T13:39:28Z</time>
      </trkpt>
      <trkpt lat="45.83739" lon="3.58019">
        <ele>700</ele>
        <time>2021-02-14T13:39:42Z</time>
      </trkpt>
      <trkpt lat="45.8374" lon="3.58006">
        <ele>701</ele>
        <time>2021-02-14T13:39:50Z</time>
      </trkpt>
      <trkpt lat="45.8374" lon="3.58002">
        <ele>701</ele>
        <time>2021-02-14T13:39:52Z</time>
      </trkpt>
      <trkpt lat="45.83738" lon="3.57988">
        <ele>701</ele>
        <time>2021-02-14T13:39:59Z</time>
      </trkpt>
      <trkpt lat="45.83736" lon="3.57983">
        <ele>701</ele>
        <time>2021-02-14T13:40:02Z</time>
      </trkpt>
      <trkpt lat="45.83735" lon="3.5798">
        <ele>701</ele>
        <time>2021-02-14T13:40:04Z</time>
      </trkpt>
      <trkpt lat="45.83735" lon="3.57976">
        <ele>701</ele>
        <time>2021-02-14T13:40:06Z</time>
      </trkpt>
      <trkpt lat="45.83735" lon="3.57973">
        <ele>701</ele>
        <time>2021-02-14T13:40:08Z</time>
      </trkpt>
      <trkpt lat="45.83733" lon="3.5797">
        <ele>701</ele>
        <time>2021-02-14T13:40:10Z</time>
      </trkpt>
      <trkpt lat="45.83733" lon="3.57966">
        <ele>701</ele>
        <time>2021-02-14T13:40:12Z</time>
      </trkpt>
      <trkpt lat="45.83731" lon="3.57963">
        <ele>701</ele>
        <time>2021-02-14T13:40:14Z</time>
      </trkpt>
      <trkpt lat="45.8373" lon="3.5796">
        <ele>701</ele>
        <time>2021-02-14T13:40:16Z</time>
      </trkpt>
      <trkpt lat="45.83729" lon="3.57958">
        <ele>701</ele>
        <time>2021-02-14T13:40:18Z</time>
      </trkpt>
      <trkpt lat="45.83729" lon="3.57955">
        <ele>701</ele>
        <time>2021-02-14T13:40:21Z</time>
      </trkpt>
      <trkpt lat="45.83728" lon="3.57951">
        <ele>701</ele>
        <time>2021-02-14T13:40:24Z</time>
      </trkpt>
      <trkpt lat="45.83727" lon="3.57948">
        <ele>701</ele>
        <time>2021-02-14T13:40:28Z</time>
      </trkpt>
      <trkpt lat="45.83727" lon="3.57944">
        <ele>701</ele>
        <time>2021-02-14T13:40:31Z</time>
      </trkpt>
      <trkpt lat="45.83726" lon="3.57943">
        <ele>701</ele>
        <time>2021-02-14T13:40:32Z</time>
      </trkpt>
      <trkpt lat="45.83726" lon="3.5794">
        <ele>701</ele>
        <time>2021-02-14T13:40:34Z</time>
      </trkpt>
      <trkpt lat="45.83725" lon="3.57936">
        <ele>701</ele>
        <time>2021-02-14T13:40:36Z</time>
      </trkpt>
      <trkpt lat="45.83723" lon="3.57933">
        <ele>701</ele>
        <time>2021-02-14T13:40:38Z</time>
      </trkpt>
      <trkpt lat="45.83722" lon="3.5793">
        <ele>700</ele>
        <time>2021-02-14T13:40:41Z</time>
      </trkpt>
      <trkpt lat="45.83721" lon="3.57927">
        <ele>700</ele>
        <time>2021-02-14T13:40:44Z</time>
      </trkpt>
      <trkpt lat="45.8372" lon="3.57925">
        <ele>700</ele>
        <time>2021-02-14T13:40:48Z</time>
      </trkpt>
      <trkpt lat="45.8372" lon="3.57922">
        <ele>700</ele>
        <time>2021-02-14T13:40:51Z</time>
      </trkpt>
      <trkpt lat="45.8372" lon="3.57919">
        <ele>700</ele>
        <time>2021-02-14T13:40:53Z</time>
      </trkpt>
      <trkpt lat="45.8372" lon="3.57916">
        <ele>700</ele>
        <time>2021-02-14T13:40:59Z</time>
      </trkpt>
      <trkpt lat="45.83719" lon="3.57911">
        <ele>700</ele>
        <time>2021-02-14T13:41:05Z</time>
      </trkpt>
      <trkpt lat="45.83717" lon="3.57908">
        <ele>700</ele>
        <time>2021-02-14T13:41:07Z</time>
      </trkpt>
      <trkpt lat="45.83716" lon="3.57904">
        <ele>700</ele>
        <time>2021-02-14T13:41:09Z</time>
      </trkpt>
      <trkpt lat="45.83716" lon="3.57901">
        <ele>701</ele>
        <time>2021-02-14T13:41:11Z</time>
      </trkpt>
      <trkpt lat="45.83716" lon="3.57897">
        <ele>701</ele>
        <time>2021-02-14T13:41:13Z</time>
      </trkpt>
      <trkpt lat="45.83716" lon="3.57893">
        <ele>701</ele>
        <time>2021-02-14T13:41:15Z</time>
      </trkpt>
      <trkpt lat="45.83716" lon="3.5789">
        <ele>702</ele>
        <time>2021-02-14T13:41:17Z</time>
      </trkpt>
      <trkpt lat="45.83715" lon="3.57887">
        <ele>702</ele>
        <time>2021-02-14T13:41:19Z</time>
      </trkpt>
      <trkpt lat="45.83715" lon="3.57883">
        <ele>703</ele>
        <time>2021-02-14T13:41:21Z</time>
      </trkpt>
      <trkpt lat="45.83714" lon="3.57879">
        <ele>703</ele>
        <time>2021-02-14T13:41:24Z</time>
      </trkpt>
      <trkpt lat="45.83714" lon="3.57876">
        <ele>704</ele>
        <time>2021-02-14T13:41:26Z</time>
      </trkpt>
      <trkpt lat="45.83714" lon="3.57872">
        <ele>705</ele>
        <time>2021-02-14T13:41:28Z</time>
      </trkpt>
      <trkpt lat="45.83714" lon="3.57868">
        <ele>706</ele>
        <time>2021-02-14T13:41:30Z</time>
      </trkpt>
      <trkpt lat="45.83714" lon="3.57865">
        <ele>707</ele>
        <time>2021-02-14T13:41:32Z</time>
      </trkpt>
      <trkpt lat="45.83714" lon="3.57862">
        <ele>707</ele>
        <time>2021-02-14T13:41:34Z</time>
      </trkpt>
      <trkpt lat="45.83713" lon="3.57858">
        <ele>708</ele>
        <time>2021-02-14T13:41:36Z</time>
      </trkpt>
      <trkpt lat="45.83712" lon="3.57854">
        <ele>709</ele>
        <time>2021-02-14T13:41:38Z</time>
      </trkpt>
      <trkpt lat="45.83711" lon="3.57851">
        <ele>709</ele>
        <time>2021-02-14T13:41:40Z</time>
      </trkpt>
      <trkpt lat="45.8371" lon="3.57848">
        <ele>710</ele>
        <time>2021-02-14T13:41:42Z</time>
      </trkpt>
      <trkpt lat="45.8371" lon="3.57844">
        <ele>711</ele>
        <time>2021-02-14T13:41:44Z</time>
      </trkpt>
      <trkpt lat="45.83709" lon="3.57841">
        <ele>711</ele>
        <time>2021-02-14T13:41:46Z</time>
      </trkpt>
      <trkpt lat="45.83709" lon="3.57837">
        <ele>712</ele>
        <time>2021-02-14T13:41:49Z</time>
      </trkpt>
      <trkpt lat="45.83708" lon="3.57834">
        <ele>712</ele>
        <time>2021-02-14T13:41:51Z</time>
      </trkpt>
      <trkpt lat="45.83707" lon="3.57831">
        <ele>713</ele>
        <time>2021-02-14T13:41:53Z</time>
      </trkpt>
      <trkpt lat="45.83707" lon="3.57828">
        <ele>713</ele>
        <time>2021-02-14T13:41:55Z</time>
      </trkpt>
      <trkpt lat="45.83707" lon="3.57825">
        <ele>714</ele>
        <time>2021-02-14T13:41:57Z</time>
      </trkpt>
      <trkpt lat="45.83706" lon="3.57822">
        <ele>714</ele>
        <time>2021-02-14T13:41:59Z</time>
      </trkpt>
      <trkpt lat="45.83704" lon="3.57819">
        <ele>714</ele>
        <time>2021-02-14T13:42:01Z</time>
      </trkpt>
      <trkpt lat="45.83703" lon="3.57816">
        <ele>714</ele>
        <time>2021-02-14T13:42:02Z</time>
      </trkpt>
      <trkpt lat="45.83702" lon="3.57814">
        <ele>715</ele>
        <time>2021-02-14T13:42:03Z</time>
      </trkpt>
      <trkpt lat="45.83701" lon="3.57811">
        <ele>715</ele>
        <time>2021-02-14T13:42:04Z</time>
      </trkpt>
      <trkpt lat="45.83699" lon="3.57807">
        <ele>715</ele>
        <time>2021-02-14T13:42:06Z</time>
      </trkpt>
      <trkpt lat="45.83698" lon="3.57804">
        <ele>715</ele>
        <time>2021-02-14T13:42:08Z</time>
      </trkpt>
      <trkpt lat="45.83696" lon="3.57801">
        <ele>715</ele>
        <time>2021-02-14T13:42:10Z</time>
      </trkpt>
      <trkpt lat="45.83695" lon="3.57798">
        <ele>715</ele>
        <time>2021-02-14T13:42:12Z</time>
      </trkpt>
      <trkpt lat="45.83694" lon="3.57795">
        <ele>715</ele>
        <time>2021-02-14T13:42:14Z</time>
      </trkpt>
      <trkpt lat="45.83693" lon="3.57792">
        <ele>715</ele>
        <time>2021-02-14T13:42:16Z</time>
      </trkpt>
      <trkpt lat="45.83692" lon="3.57789">
        <ele>715</ele>
        <time>2021-02-14T13:42:18Z</time>
      </trkpt>
      <trkpt lat="45.83691" lon="3.57786">
        <ele>715</ele>
        <time>2021-02-14T13:42:20Z</time>
      </trkpt>
      <trkpt lat="45.83689" lon="3.57783">
        <ele>714</ele>
        <time>2021-02-14T13:42:22Z</time>
      </trkpt>
      <trkpt lat="45.83688" lon="3.57779">
        <ele>714</ele>
        <time>2021-02-14T13:42:24Z</time>
      </trkpt>
      <trkpt lat="45.83687" lon="3.57776">
        <ele>714</ele>
        <time>2021-02-14T13:42:26Z</time>
      </trkpt>
      <trkpt lat="45.83686" lon="3.57772">
        <ele>714</ele>
        <time>2021-02-14T13:42:28Z</time>
      </trkpt>
      <trkpt lat="45.83684" lon="3.57768">
        <ele>714</ele>
        <time>2021-02-14T13:42:30Z</time>
      </trkpt>
      <trkpt lat="45.83684" lon="3.57764">
        <ele>714</ele>
        <time>2021-02-14T13:42:32Z</time>
      </trkpt>
      <trkpt lat="45.83684" lon="3.57761">
        <ele>714</ele>
        <time>2021-02-14T13:42:34Z</time>
      </trkpt>
      <trkpt lat="45.83684" lon="3.57758">
        <ele>714</ele>
        <time>2021-02-14T13:42:36Z</time>
      </trkpt>
      <trkpt lat="45.83684" lon="3.57755">
        <ele>714</ele>
        <time>2021-02-14T13:42:38Z</time>
      </trkpt>
      <trkpt lat="45.83684" lon="3.57751">
        <ele>714</ele>
        <time>2021-02-14T13:42:41Z</time>
      </trkpt>
      <trkpt lat="45.83685" lon="3.57747">
        <ele>715</ele>
        <time>2021-02-14T13:42:43Z</time>
      </trkpt>
      <trkpt lat="45.83686" lon="3.57743">
        <ele>715</ele>
        <time>2021-02-14T13:42:45Z</time>
      </trkpt>
      <trkpt lat="45.83688" lon="3.5774">
        <ele>716</ele>
        <time>2021-02-14T13:42:47Z</time>
      </trkpt>
      <trkpt lat="45.83688" lon="3.57737">
        <ele>716</ele>
        <time>2021-02-14T13:42:49Z</time>
      </trkpt>
      <trkpt lat="45.83689" lon="3.57733">
        <ele>716</ele>
        <time>2021-02-14T13:42:52Z</time>
      </trkpt>
      <trkpt lat="45.8369" lon="3.57729">
        <ele>717</ele>
        <time>2021-02-14T13:42:54Z</time>
      </trkpt>
      <trkpt lat="45.8369" lon="3.57727">
        <ele>717</ele>
        <time>2021-02-14T13:42:55Z</time>
      </trkpt>
      <trkpt lat="45.8369" lon="3.57722">
        <ele>717</ele>
        <time>2021-02-14T13:42:57Z</time>
      </trkpt>
      <trkpt lat="45.83691" lon="3.5772">
        <ele>717</ele>
        <time>2021-02-14T13:42:59Z</time>
      </trkpt>
      <trkpt lat="45.83692" lon="3.57717">
        <ele>717</ele>
        <time>2021-02-14T13:43:01Z</time>
      </trkpt>
      <trkpt lat="45.83692" lon="3.57714">
        <ele>717</ele>
        <time>2021-02-14T13:43:04Z</time>
      </trkpt>
      <trkpt lat="45.83693" lon="3.57711">
        <ele>717</ele>
        <time>2021-02-14T13:43:06Z</time>
      </trkpt>
      <trkpt lat="45.83694" lon="3.57708">
        <ele>717</ele>
        <time>2021-02-14T13:43:08Z</time>
      </trkpt>
      <trkpt lat="45.83695" lon="3.57705">
        <ele>718</ele>
        <time>2021-02-14T13:43:10Z</time>
      </trkpt>
      <trkpt lat="45.83696" lon="3.57702">
        <ele>718</ele>
        <time>2021-02-14T13:43:12Z</time>
      </trkpt>
      <trkpt lat="45.83698" lon="3.57699">
        <ele>718</ele>
        <time>2021-02-14T13:43:14Z</time>
      </trkpt>
      <trkpt lat="45.837" lon="3.57696">
        <ele>719</ele>
        <time>2021-02-14T13:43:16Z</time>
      </trkpt>
      <trkpt lat="45.83702" lon="3.57693">
        <ele>719</ele>
        <time>2021-02-14T13:43:18Z</time>
      </trkpt>
      <trkpt lat="45.83704" lon="3.57691">
        <ele>720</ele>
        <time>2021-02-14T13:43:20Z</time>
      </trkpt>
      <trkpt lat="45.83706" lon="3.57688">
        <ele>720</ele>
        <time>2021-02-14T13:43:22Z</time>
      </trkpt>
      <trkpt lat="45.83707" lon="3.57685">
        <ele>721</ele>
        <time>2021-02-14T13:43:24Z</time>
      </trkpt>
      <trkpt lat="45.83708" lon="3.57682">
        <ele>721</ele>
        <time>2021-02-14T13:43:26Z</time>
      </trkpt>
      <trkpt lat="45.83707" lon="3.57676">
        <ele>720</ele>
        <time>2021-02-14T13:43:34Z</time>
      </trkpt>
      <trkpt lat="45.83707" lon="3.57673">
        <ele>720</ele>
        <time>2021-02-14T13:43:36Z</time>
      </trkpt>
      <trkpt lat="45.83708" lon="3.5767">
        <ele>720</ele>
        <time>2021-02-14T13:43:38Z</time>
      </trkpt>
      <trkpt lat="45.83709" lon="3.57667">
        <ele>721</ele>
        <time>2021-02-14T13:43:40Z</time>
      </trkpt>
      <trkpt lat="45.83712" lon="3.57665">
        <ele>721</ele>
        <time>2021-02-14T13:43:42Z</time>
      </trkpt>
      <trkpt lat="45.83713" lon="3.57662">
        <ele>721</ele>
        <time>2021-02-14T13:43:44Z</time>
      </trkpt>
      <trkpt lat="45.83715" lon="3.57658">
        <ele>721</ele>
        <time>2021-02-14T13:43:46Z</time>
      </trkpt>
      <trkpt lat="45.83719" lon="3.57646">
        <ele>721</ele>
        <time>2021-02-14T13:43:53Z</time>
      </trkpt>
      <trkpt lat="45.83719" lon="3.57643">
        <ele>720</ele>
        <time>2021-02-14T13:43:55Z</time>
      </trkpt>
      <trkpt lat="45.83719" lon="3.5764">
        <ele>720</ele>
        <time>2021-02-14T13:43:57Z</time>
      </trkpt>
      <trkpt lat="45.83721" lon="3.57629">
        <ele>719</ele>
        <time>2021-02-14T13:44:03Z</time>
      </trkpt>
      <trkpt lat="45.83722" lon="3.57617">
        <ele>718</ele>
        <time>2021-02-14T13:44:10Z</time>
      </trkpt>
      <trkpt lat="45.83723" lon="3.57615">
        <ele>718</ele>
        <time>2021-02-14T13:44:12Z</time>
      </trkpt>
      <trkpt lat="45.83724" lon="3.57612">
        <ele>718</ele>
        <time>2021-02-14T13:44:15Z</time>
      </trkpt>
      <trkpt lat="45.83725" lon="3.5761">
        <ele>718</ele>
        <time>2021-02-14T13:44:17Z</time>
      </trkpt>
      <trkpt lat="45.83725" lon="3.57607">
        <ele>718</ele>
        <time>2021-02-14T13:44:20Z</time>
      </trkpt>
      <trkpt lat="45.83725" lon="3.57604">
        <ele>717</ele>
        <time>2021-02-14T13:44:22Z</time>
      </trkpt>
      <trkpt lat="45.83726" lon="3.57601">
        <ele>717</ele>
        <time>2021-02-14T13:44:24Z</time>
      </trkpt>
      <trkpt lat="45.83728" lon="3.57599">
        <ele>717</ele>
        <time>2021-02-14T13:44:26Z</time>
      </trkpt>
      <trkpt lat="45.83729" lon="3.57595">
        <ele>717</ele>
        <time>2021-02-14T13:44:28Z</time>
      </trkpt>
      <trkpt lat="45.8373" lon="3.57592">
        <ele>717</ele>
        <time>2021-02-14T13:44:30Z</time>
      </trkpt>
      <trkpt lat="45.8373" lon="3.5759">
        <ele>717</ele>
        <time>2021-02-14T13:44:32Z</time>
      </trkpt>
      <trkpt lat="45.8373" lon="3.57586">
        <ele>717</ele>
        <time>2021-02-14T13:44:34Z</time>
      </trkpt>
      <trkpt lat="45.8373" lon="3.57582">
        <ele>716</ele>
        <time>2021-02-14T13:44:36Z</time>
      </trkpt>
      <trkpt lat="45.8373" lon="3.57579">
        <ele>716</ele>
        <time>2021-02-14T13:44:38Z</time>
      </trkpt>
      <trkpt lat="45.83731" lon="3.57577">
        <ele>717</ele>
        <time>2021-02-14T13:44:40Z</time>
      </trkpt>
      <trkpt lat="45.83732" lon="3.57574">
        <ele>717</ele>
        <time>2021-02-14T13:44:42Z</time>
      </trkpt>
      <trkpt lat="45.83733" lon="3.57571">
        <ele>717</ele>
        <time>2021-02-14T13:44:44Z</time>
      </trkpt>
      <trkpt lat="45.83733" lon="3.57568">
        <ele>717</ele>
        <time>2021-02-14T13:44:46Z</time>
      </trkpt>
      <trkpt lat="45.83734" lon="3.57565">
        <ele>717</ele>
        <time>2021-02-14T13:44:48Z</time>
      </trkpt>
      <trkpt lat="45.83735" lon="3.57562">
        <ele>717</ele>
        <time>2021-02-14T13:44:50Z</time>
      </trkpt>
      <trkpt lat="45.83737" lon="3.57558">
        <ele>718</ele>
        <time>2021-02-14T13:44:52Z</time>
      </trkpt>
      <trkpt lat="45.83738" lon="3.57555">
        <ele>718</ele>
        <time>2021-02-14T13:44:53Z</time>
      </trkpt>
      <trkpt lat="45.83738" lon="3.5755">
        <ele>718</ele>
        <time>2021-02-14T13:44:55Z</time>
      </trkpt>
      <trkpt lat="45.83739" lon="3.57548">
        <ele>719</ele>
        <time>2021-02-14T13:44:56Z</time>
      </trkpt>
      <trkpt lat="45.8374" lon="3.57545">
        <ele>719</ele>
        <time>2021-02-14T13:44:57Z</time>
      </trkpt>
      <trkpt lat="45.8374" lon="3.57542">
        <ele>719</ele>
        <time>2021-02-14T13:44:59Z</time>
      </trkpt>
      <trkpt lat="45.83741" lon="3.5754">
        <ele>720</ele>
        <time>2021-02-14T13:45:03Z</time>
      </trkpt>
      <trkpt lat="45.83743" lon="3.57537">
        <ele>720</ele>
        <time>2021-02-14T13:45:06Z</time>
      </trkpt>
      <trkpt lat="45.83744" lon="3.57534">
        <ele>721</ele>
        <time>2021-02-14T13:45:08Z</time>
      </trkpt>
      <trkpt lat="45.83745" lon="3.57529">
        <ele>721</ele>
        <time>2021-02-14T13:45:10Z</time>
      </trkpt>
      <trkpt lat="45.83746" lon="3.57525">
        <ele>721</ele>
        <time>2021-02-14T13:45:12Z</time>
      </trkpt>
      <trkpt lat="45.83747" lon="3.57521">
        <ele>721</ele>
        <time>2021-02-14T13:45:14Z</time>
      </trkpt>
      <trkpt lat="45.83748" lon="3.57517">
        <ele>721</ele>
        <time>2021-02-14T13:45:16Z</time>
      </trkpt>
      <trkpt lat="45.83749" lon="3.57513">
        <ele>722</ele>
        <time>2021-02-14T13:45:18Z</time>
      </trkpt>
      <trkpt lat="45.83749" lon="3.57508">
        <ele>722</ele>
        <time>2021-02-14T13:45:20Z</time>
      </trkpt>
      <trkpt lat="45.83751" lon="3.57505">
        <ele>722</ele>
        <time>2021-02-14T13:45:22Z</time>
      </trkpt>
      <trkpt lat="45.83751" lon="3.57502">
        <ele>722</ele>
        <time>2021-02-14T13:45:24Z</time>
      </trkpt>
      <trkpt lat="45.83751" lon="3.57498">
        <ele>722</ele>
        <time>2021-02-14T13:45:26Z</time>
      </trkpt>
      <trkpt lat="45.83752" lon="3.57495">
        <ele>721</ele>
        <time>2021-02-14T13:45:28Z</time>
      </trkpt>
      <trkpt lat="45.83752" lon="3.57492">
        <ele>721</ele>
        <time>2021-02-14T13:45:30Z</time>
      </trkpt>
      <trkpt lat="45.83753" lon="3.57489">
        <ele>721</ele>
        <time>2021-02-14T13:45:33Z</time>
      </trkpt>
      <trkpt lat="45.83754" lon="3.57486">
        <ele>721</ele>
        <time>2021-02-14T13:45:41Z</time>
      </trkpt>
      <trkpt lat="45.83755" lon="3.57483">
        <ele>721</ele>
        <time>2021-02-14T13:45:43Z</time>
      </trkpt>
      <trkpt lat="45.83756" lon="3.57481">
        <ele>721</ele>
        <time>2021-02-14T13:45:45Z</time>
      </trkpt>
      <trkpt lat="45.83757" lon="3.57478">
        <ele>721</ele>
        <time>2021-02-14T13:45:47Z</time>
      </trkpt>
      <trkpt lat="45.83757" lon="3.57474">
        <ele>721</ele>
        <time>2021-02-14T13:45:49Z</time>
      </trkpt>
      <trkpt lat="45.83758" lon="3.5747">
        <ele>721</ele>
        <time>2021-02-14T13:45:51Z</time>
      </trkpt>
      <trkpt lat="45.83759" lon="3.57467">
        <ele>721</ele>
        <time>2021-02-14T13:45:53Z</time>
      </trkpt>
      <trkpt lat="45.83759" lon="3.57464">
        <ele>721</ele>
        <time>2021-02-14T13:45:55Z</time>
      </trkpt>
      <trkpt lat="45.8376" lon="3.57461">
        <ele>721</ele>
        <time>2021-02-14T13:45:57Z</time>
      </trkpt>
      <trkpt lat="45.83761" lon="3.57458">
        <ele>721</ele>
        <time>2021-02-14T13:45:59Z</time>
      </trkpt>
      <trkpt lat="45.83762" lon="3.57454">
        <ele>721</ele>
        <time>2021-02-14T13:46:01Z</time>
      </trkpt>
      <trkpt lat="45.83762" lon="3.57451">
        <ele>721</ele>
        <time>2021-02-14T13:46:03Z</time>
      </trkpt>
      <trkpt lat="45.83763" lon="3.57447">
        <ele>720</ele>
        <time>2021-02-14T13:46:05Z</time>
      </trkpt>
      <trkpt lat="45.83763" lon="3.57443">
        <ele>720</ele>
        <time>2021-02-14T13:46:07Z</time>
      </trkpt>
      <trkpt lat="45.83763" lon="3.5744">
        <ele>720</ele>
        <time>2021-02-14T13:46:09Z</time>
      </trkpt>
      <trkpt lat="45.83764" lon="3.57436">
        <ele>720</ele>
        <time>2021-02-14T13:46:11Z</time>
      </trkpt>
      <trkpt lat="45.83764" lon="3.57433">
        <ele>721</ele>
        <time>2021-02-14T13:46:13Z</time>
      </trkpt>
      <trkpt lat="45.83766" lon="3.57429">
        <ele>721</ele>
        <time>2021-02-14T13:46:15Z</time>
      </trkpt>
      <trkpt lat="45.83767" lon="3.57426">
        <ele>721</ele>
        <time>2021-02-14T13:46:17Z</time>
      </trkpt>
      <trkpt lat="45.83768" lon="3.57423">
        <ele>721</ele>
        <time>2021-02-14T13:46:19Z</time>
      </trkpt>
      <trkpt lat="45.8377" lon="3.5742">
        <ele>721</ele>
        <time>2021-02-14T13:46:21Z</time>
      </trkpt>
      <trkpt lat="45.83772" lon="3.57418">
        <ele>722</ele>
        <time>2021-02-14T13:46:23Z</time>
      </trkpt>
      <trkpt lat="45.83774" lon="3.57416">
        <ele>722</ele>
        <time>2021-02-14T13:46:25Z</time>
      </trkpt>
      <trkpt lat="45.83776" lon="3.57413">
        <ele>722</ele>
        <time>2021-02-14T13:46:27Z</time>
      </trkpt>
      <trkpt lat="45.83778" lon="3.5741">
        <ele>722</ele>
        <time>2021-02-14T13:46:29Z</time>
      </trkpt>
      <trkpt lat="45.8378" lon="3.57408">
        <ele>722</ele>
        <time>2021-02-14T13:46:31Z</time>
      </trkpt>
      <trkpt lat="45.83782" lon="3.57407">
        <ele>722</ele>
        <time>2021-02-14T13:46:33Z</time>
      </trkpt>
      <trkpt lat="45.83783" lon="3.57405">
        <ele>721</ele>
        <time>2021-02-14T13:46:35Z</time>
      </trkpt>
      <trkpt lat="45.83785" lon="3.57402">
        <ele>721</ele>
        <time>2021-02-14T13:46:37Z</time>
      </trkpt>
      <trkpt lat="45.83787" lon="3.574">
        <ele>721</ele>
        <time>2021-02-14T13:46:38Z</time>
      </trkpt>
      <trkpt lat="45.83789" lon="3.57399">
        <ele>721</ele>
        <time>2021-02-14T13:46:40Z</time>
      </trkpt>
      <trkpt lat="45.83792" lon="3.57396">
        <ele>720</ele>
        <time>2021-02-14T13:46:43Z</time>
      </trkpt>
      <trkpt lat="45.83794" lon="3.57394">
        <ele>719</ele>
        <time>2021-02-14T13:46:45Z</time>
      </trkpt>
      <trkpt lat="45.83797" lon="3.57389">
        <ele>719</ele>
        <time>2021-02-14T13:46:48Z</time>
      </trkpt>
      <trkpt lat="45.83799" lon="3.57386">
        <ele>718</ele>
        <time>2021-02-14T13:46:50Z</time>
      </trkpt>
      <trkpt lat="45.83801" lon="3.57385">
        <ele>718</ele>
        <time>2021-02-14T13:46:52Z</time>
      </trkpt>
      <trkpt lat="45.83803" lon="3.57383">
        <ele>717</ele>
        <time>2021-02-14T13:46:54Z</time>
      </trkpt>
      <trkpt lat="45.83805" lon="3.57382">
        <ele>717</ele>
        <time>2021-02-14T13:46:56Z</time>
      </trkpt>
      <trkpt lat="45.83807" lon="3.57382">
        <ele>716</ele>
        <time>2021-02-14T13:46:58Z</time>
      </trkpt>
      <trkpt lat="45.8381" lon="3.57382">
        <ele>715</ele>
        <time>2021-02-14T13:47:00Z</time>
      </trkpt>
      <trkpt lat="45.83812" lon="3.57381">
        <ele>715</ele>
        <time>2021-02-14T13:47:02Z</time>
      </trkpt>
      <trkpt lat="45.83815" lon="3.5738">
        <ele>714</ele>
        <time>2021-02-14T13:47:04Z</time>
      </trkpt>
      <trkpt lat="45.83818" lon="3.5738">
        <ele>713</ele>
        <time>2021-02-14T13:47:06Z</time>
      </trkpt>
      <trkpt lat="45.83821" lon="3.5738">
        <ele>712</ele>
        <time>2021-02-14T13:47:08Z</time>
      </trkpt>
      <trkpt lat="45.83823" lon="3.5738">
        <ele>711</ele>
        <time>2021-02-14T13:47:09Z</time>
      </trkpt>
      <trkpt lat="45.83826" lon="3.5738">
        <ele>710</ele>
        <time>2021-02-14T13:47:11Z</time>
      </trkpt>
      <trkpt lat="45.83828" lon="3.57382">
        <ele>710</ele>
        <time>2021-02-14T13:47:13Z</time>
      </trkpt>
      <trkpt lat="45.83831" lon="3.57383">
        <ele>709</ele>
        <time>2021-02-14T13:47:15Z</time>
      </trkpt>
      <trkpt lat="45.83833" lon="3.57383">
        <ele>709</ele>
        <time>2021-02-14T13:47:16Z</time>
      </trkpt>
      <trkpt lat="45.83836" lon="3.57384">
        <ele>707</ele>
        <time>2021-02-14T13:47:17Z</time>
      </trkpt>
      <trkpt lat="45.83838" lon="3.57384">
        <ele>706</ele>
        <time>2021-02-14T13:47:18Z</time>
      </trkpt>
      <trkpt lat="45.8384" lon="3.57384">
        <ele>705</ele>
        <time>2021-02-14T13:47:20Z</time>
      </trkpt>
      <trkpt lat="45.8384" lon="3.57381">
        <ele>705</ele>
        <time>2021-02-14T13:47:24Z</time>
      </trkpt>
      <trkpt lat="45.8384" lon="3.57378">
        <ele>704</ele>
        <time>2021-02-14T13:47:27Z</time>
      </trkpt>
      <trkpt lat="45.8384" lon="3.57375">
        <ele>704</ele>
        <time>2021-02-14T13:47:30Z</time>
      </trkpt>
      <trkpt lat="45.8384" lon="3.57372">
        <ele>703</ele>
        <time>2021-02-14T13:47:33Z</time>
      </trkpt>
      <trkpt lat="45.83841" lon="3.57359">
        <ele>701</ele>
        <time>2021-02-14T13:47:43Z</time>
      </trkpt>
      <trkpt lat="45.8384" lon="3.57351">
        <ele>699</ele>
        <time>2021-02-14T13:47:48Z</time>
      </trkpt>
      <trkpt lat="45.8384" lon="3.57338">
        <ele>697</ele>
        <time>2021-02-14T13:47:56Z</time>
      </trkpt>
      <trkpt lat="45.83836" lon="3.57325">
        <ele>695</ele>
        <time>2021-02-14T13:48:04Z</time>
      </trkpt>
      <trkpt lat="45.83834" lon="3.57317">
        <ele>695</ele>
        <time>2021-02-14T13:48:08Z</time>
      </trkpt>
      <trkpt lat="45.83832" lon="3.57314">
        <ele>695</ele>
        <time>2021-02-14T13:48:10Z</time>
      </trkpt>
      <trkpt lat="45.83831" lon="3.57312">
        <ele>695</ele>
        <time>2021-02-14T13:48:12Z</time>
      </trkpt>
      <trkpt lat="45.8383" lon="3.57309">
        <ele>695</ele>
        <time>2021-02-14T13:48:14Z</time>
      </trkpt>
      <trkpt lat="45.83829" lon="3.57306">
        <ele>694</ele>
        <time>2021-02-14T13:48:16Z</time>
      </trkpt>
      <trkpt lat="45.8383" lon="3.57303">
        <ele>694</ele>
        <time>2021-02-14T13:48:18Z</time>
      </trkpt>
      <trkpt lat="45.8383" lon="3.573">
        <ele>693</ele>
        <time>2021-02-14T13:48:20Z</time>
      </trkpt>
      <trkpt lat="45.8383" lon="3.57286">
        <ele>692</ele>
        <time>2021-02-14T13:48:29Z</time>
      </trkpt>
      <trkpt lat="45.83832" lon="3.57273">
        <ele>690</ele>
        <time>2021-02-14T13:48:37Z</time>
      </trkpt>
      <trkpt lat="45.83831" lon="3.57259">
        <ele>691</ele>
        <time>2021-02-14T13:48:46Z</time>
      </trkpt>
      <trkpt lat="45.83832" lon="3.57246">
        <ele>691</ele>
        <time>2021-02-14T13:48:52Z</time>
      </trkpt>
      <trkpt lat="45.83832" lon="3.57231">
        <ele>690</ele>
        <time>2021-02-14T13:48:59Z</time>
      </trkpt>
      <trkpt lat="45.83825" lon="3.5722">
        <ele>692</ele>
        <time>2021-02-14T13:49:07Z</time>
      </trkpt>
      <trkpt lat="45.83824" lon="3.57206">
        <ele>691</ele>
        <time>2021-02-14T13:49:15Z</time>
      </trkpt>
      <trkpt lat="45.83824" lon="3.57192">
        <ele>690</ele>
        <time>2021-02-14T13:49:20Z</time>
      </trkpt>
      <trkpt lat="45.83821" lon="3.57178">
        <ele>691</ele>
        <time>2021-02-14T13:49:26Z</time>
      </trkpt>
      <trkpt lat="45.83821" lon="3.57173">
        <ele>691</ele>
        <time>2021-02-14T13:49:29Z</time>
      </trkpt>
      <trkpt lat="45.83821" lon="3.5717">
        <ele>691</ele>
        <time>2021-02-14T13:49:31Z</time>
      </trkpt>
      <trkpt lat="45.83822" lon="3.57166">
        <ele>691</ele>
        <time>2021-02-14T13:49:33Z</time>
      </trkpt>
      <trkpt lat="45.83823" lon="3.57164">
        <ele>690</ele>
        <time>2021-02-14T13:49:35Z</time>
      </trkpt>
      <trkpt lat="45.83824" lon="3.57161">
        <ele>690</ele>
        <time>2021-02-14T13:49:37Z</time>
      </trkpt>
      <trkpt lat="45.83825" lon="3.57157">
        <ele>690</ele>
        <time>2021-02-14T13:49:39Z</time>
      </trkpt>
      <trkpt lat="45.83827" lon="3.57153">
        <ele>689</ele>
        <time>2021-02-14T13:49:41Z</time>
      </trkpt>
      <trkpt lat="45.83829" lon="3.57151">
        <ele>689</ele>
        <time>2021-02-14T13:49:43Z</time>
      </trkpt>
      <trkpt lat="45.83832" lon="3.57148">
        <ele>688</ele>
        <time>2021-02-14T13:49:45Z</time>
      </trkpt>
      <trkpt lat="45.83833" lon="3.57147">
        <ele>688</ele>
        <time>2021-02-14T13:49:47Z</time>
      </trkpt>
      <trkpt lat="45.83835" lon="3.57145">
        <ele>687</ele>
        <time>2021-02-14T13:49:49Z</time>
      </trkpt>
      <trkpt lat="45.83838" lon="3.57142">
        <ele>687</ele>
        <time>2021-02-14T13:49:51Z</time>
      </trkpt>
      <trkpt lat="45.83841" lon="3.57139">
        <ele>686</ele>
        <time>2021-02-14T13:49:53Z</time>
      </trkpt>
      <trkpt lat="45.83843" lon="3.57138">
        <ele>686</ele>
        <time>2021-02-14T13:49:54Z</time>
      </trkpt>
      <trkpt lat="45.83846" lon="3.57135">
        <ele>686</ele>
        <time>2021-02-14T13:49:56Z</time>
      </trkpt>
      <trkpt lat="45.83848" lon="3.57131">
        <ele>686</ele>
        <time>2021-02-14T13:49:58Z</time>
      </trkpt>
      <trkpt lat="45.83849" lon="3.57128">
        <ele>686</ele>
        <time>2021-02-14T13:50:00Z</time>
      </trkpt>
      <trkpt lat="45.8385" lon="3.57124">
        <ele>686</ele>
        <time>2021-02-14T13:50:02Z</time>
      </trkpt>
      <trkpt lat="45.83851" lon="3.57122">
        <ele>686</ele>
        <time>2021-02-14T13:50:04Z</time>
      </trkpt>
      <trkpt lat="45.83852" lon="3.57119">
        <ele>687</ele>
        <time>2021-02-14T13:50:06Z</time>
      </trkpt>
      <trkpt lat="45.83852" lon="3.57116">
        <ele>687</ele>
        <time>2021-02-14T13:50:11Z</time>
      </trkpt>
      <trkpt lat="45.83853" lon="3.57113">
        <ele>687</ele>
        <time>2021-02-14T13:50:13Z</time>
      </trkpt>
      <trkpt lat="45.83854" lon="3.5711">
        <ele>687</ele>
        <time>2021-02-14T13:50:15Z</time>
      </trkpt>
      <trkpt lat="45.83855" lon="3.57106">
        <ele>688</ele>
        <time>2021-02-14T13:50:17Z</time>
      </trkpt>
      <trkpt lat="45.83856" lon="3.57103">
        <ele>688</ele>
        <time>2021-02-14T13:50:19Z</time>
      </trkpt>
      <trkpt lat="45.83857" lon="3.571">
        <ele>689</ele>
        <time>2021-02-14T13:50:21Z</time>
      </trkpt>
      <trkpt lat="45.83858" lon="3.57097">
        <ele>689</ele>
        <time>2021-02-14T13:50:23Z</time>
      </trkpt>
      <trkpt lat="45.83858" lon="3.57094">
        <ele>690</ele>
        <time>2021-02-14T13:50:25Z</time>
      </trkpt>
      <trkpt lat="45.83859" lon="3.5709">
        <ele>690</ele>
        <time>2021-02-14T13:50:27Z</time>
      </trkpt>
      <trkpt lat="45.83859" lon="3.57086">
        <ele>691</ele>
        <time>2021-02-14T13:50:29Z</time>
      </trkpt>
      <trkpt lat="45.8386" lon="3.57082">
        <ele>692</ele>
        <time>2021-02-14T13:50:31Z</time>
      </trkpt>
      <trkpt lat="45.83861" lon="3.57079">
        <ele>693</ele>
        <time>2021-02-14T13:50:33Z</time>
      </trkpt>
      <trkpt lat="45.83862" lon="3.57075">
        <ele>693</ele>
        <time>2021-02-14T13:50:35Z</time>
      </trkpt>
      <trkpt lat="45.83862" lon="3.57072">
        <ele>694</ele>
        <time>2021-02-14T13:50:37Z</time>
      </trkpt>
      <trkpt lat="45.83862" lon="3.57068">
        <ele>695</ele>
        <time>2021-02-14T13:50:39Z</time>
      </trkpt>
      <trkpt lat="45.83863" lon="3.57065">
        <ele>696</ele>
        <time>2021-02-14T13:50:41Z</time>
      </trkpt>
      <trkpt lat="45.83864" lon="3.57061">
        <ele>697</ele>
        <time>2021-02-14T13:50:43Z</time>
      </trkpt>
      <trkpt lat="45.83866" lon="3.57058">
        <ele>697</ele>
        <time>2021-02-14T13:50:45Z</time>
      </trkpt>
      <trkpt lat="45.83867" lon="3.57054">
        <ele>698</ele>
        <time>2021-02-14T13:50:47Z</time>
      </trkpt>
      <trkpt lat="45.83867" lon="3.57051">
        <ele>698</ele>
        <time>2021-02-14T13:50:49Z</time>
      </trkpt>
      <trkpt lat="45.83868" lon="3.57047">
        <ele>698</ele>
        <time>2021-02-14T13:50:51Z</time>
      </trkpt>
      <trkpt lat="45.83868" lon="3.57044">
        <ele>698</ele>
        <time>2021-02-14T13:50:53Z</time>
      </trkpt>
      <trkpt lat="45.83869" lon="3.5704">
        <ele>699</ele>
        <time>2021-02-14T13:50:55Z</time>
      </trkpt>
      <trkpt lat="45.8387" lon="3.57037">
        <ele>699</ele>
        <time>2021-02-14T13:50:57Z</time>
      </trkpt>
      <trkpt lat="45.83871" lon="3.57034">
        <ele>699</ele>
        <time>2021-02-14T13:50:59Z</time>
      </trkpt>
      <trkpt lat="45.83872" lon="3.5703">
        <ele>699</ele>
        <time>2021-02-14T13:51:01Z</time>
      </trkpt>
      <trkpt lat="45.83873" lon="3.57027">
        <ele>699</ele>
        <time>2021-02-14T13:51:03Z</time>
      </trkpt>
      <trkpt lat="45.83873" lon="3.57024">
        <ele>699</ele>
        <time>2021-02-14T13:51:05Z</time>
      </trkpt>
      <trkpt lat="45.83873" lon="3.5702">
        <ele>698</ele>
        <time>2021-02-14T13:51:07Z</time>
      </trkpt>
      <trkpt lat="45.83874" lon="3.57017">
        <ele>698</ele>
        <time>2021-02-14T13:51:09Z</time>
      </trkpt>
      <trkpt lat="45.83875" lon="3.57013">
        <ele>698</ele>
        <time>2021-02-14T13:51:11Z</time>
      </trkpt>
      <trkpt lat="45.83876" lon="3.5701">
        <ele>697</ele>
        <time>2021-02-14T13:51:13Z</time>
      </trkpt>
      <trkpt lat="45.83876" lon="3.57006">
        <ele>697</ele>
        <time>2021-02-14T13:51:15Z</time>
      </trkpt>
      <trkpt lat="45.83877" lon="3.57002">
        <ele>697</ele>
        <time>2021-02-14T13:51:17Z</time>
      </trkpt>
      <trkpt lat="45.83877" lon="3.56999">
        <ele>696</ele>
        <time>2021-02-14T13:51:19Z</time>
      </trkpt>
      <trkpt lat="45.83877" lon="3.56996">
        <ele>696</ele>
        <time>2021-02-14T13:51:21Z</time>
      </trkpt>
      <trkpt lat="45.83876" lon="3.56992">
        <ele>696</ele>
        <time>2021-02-14T13:51:23Z</time>
      </trkpt>
      <trkpt lat="45.83875" lon="3.56987">
        <ele>696</ele>
        <time>2021-02-14T13:51:25Z</time>
      </trkpt>
      <trkpt lat="45.83874" lon="3.56985">
        <ele>695</ele>
        <time>2021-02-14T13:51:26Z</time>
      </trkpt>
      <trkpt lat="45.83873" lon="3.56981">
        <ele>695</ele>
        <time>2021-02-14T13:51:28Z</time>
      </trkpt>
      <trkpt lat="45.83872" lon="3.56978">
        <ele>695</ele>
        <time>2021-02-14T13:51:30Z</time>
      </trkpt>
      <trkpt lat="45.8387" lon="3.56972">
        <ele>694</ele>
        <time>2021-02-14T13:51:33Z</time>
      </trkpt>
      <trkpt lat="45.83869" lon="3.56969">
        <ele>694</ele>
        <time>2021-02-14T13:51:35Z</time>
      </trkpt>
      <trkpt lat="45.83867" lon="3.56966">
        <ele>694</ele>
        <time>2021-02-14T13:51:38Z</time>
      </trkpt>
      <trkpt lat="45.83866" lon="3.56964">
        <ele>694</ele>
        <time>2021-02-14T13:51:40Z</time>
      </trkpt>
      <trkpt lat="45.83864" lon="3.56962">
        <ele>694</ele>
        <time>2021-02-14T13:51:42Z</time>
      </trkpt>
      <trkpt lat="45.83863" lon="3.5696">
        <ele>694</ele>
        <time>2021-02-14T13:51:44Z</time>
      </trkpt>
      <trkpt lat="45.83857" lon="3.56953">
        <ele>693</ele>
        <time>2021-02-14T13:51:49Z</time>
      </trkpt>
      <trkpt lat="45.83851" lon="3.56944">
        <ele>691</ele>
        <time>2021-02-14T13:51:56Z</time>
      </trkpt>
      <trkpt lat="45.83845" lon="3.56933">
        <ele>690</ele>
        <time>2021-02-14T13:52:04Z</time>
      </trkpt>
      <trkpt lat="45.83841" lon="3.5692">
        <ele>688</ele>
        <time>2021-02-14T13:52:13Z</time>
      </trkpt>
      <trkpt lat="45.8384" lon="3.56918">
        <ele>688</ele>
        <time>2021-02-14T13:52:15Z</time>
      </trkpt>
      <trkpt lat="45.83838" lon="3.56913">
        <ele>687</ele>
        <time>2021-02-14T13:52:18Z</time>
      </trkpt>
      <trkpt lat="45.83831" lon="3.56904">
        <ele>684</ele>
        <time>2021-02-14T13:52:27Z</time>
      </trkpt>
      <trkpt lat="45.83829" lon="3.56902">
        <ele>684</ele>
        <time>2021-02-14T13:52:29Z</time>
      </trkpt>
      <trkpt lat="45.83827" lon="3.569">
        <ele>683</ele>
        <time>2021-02-14T13:52:31Z</time>
      </trkpt>
      <trkpt lat="45.83826" lon="3.56895">
        <ele>682</ele>
        <time>2021-02-14T13:52:36Z</time>
      </trkpt>
      <trkpt lat="45.83821" lon="3.56883">
        <ele>679</ele>
        <time>2021-02-14T13:52:46Z</time>
      </trkpt>
      <trkpt lat="45.83813" lon="3.56875">
        <ele>676</ele>
        <time>2021-02-14T13:52:55Z</time>
      </trkpt>
      <trkpt lat="45.83805" lon="3.5687">
        <ele>672</ele>
        <time>2021-02-14T13:53:01Z</time>
      </trkpt>
      <trkpt lat="45.83795" lon="3.56866">
        <ele>670</ele>
        <time>2021-02-14T13:53:05Z</time>
      </trkpt>
      <trkpt lat="45.83786" lon="3.56862">
        <ele>667</ele>
        <time>2021-02-14T13:53:09Z</time>
      </trkpt>
      <trkpt lat="45.83784" lon="3.56862">
        <ele>667</ele>
        <time>2021-02-14T13:53:11Z</time>
      </trkpt>
      <trkpt lat="45.83782" lon="3.56861">
        <ele>666</ele>
        <time>2021-02-14T13:53:12Z</time>
      </trkpt>
      <trkpt lat="45.8378" lon="3.5686">
        <ele>666</ele>
        <time>2021-02-14T13:53:13Z</time>
      </trkpt>
      <trkpt lat="45.83778" lon="3.5686">
        <ele>665</ele>
        <time>2021-02-14T13:53:14Z</time>
      </trkpt>
      <trkpt lat="45.83776" lon="3.56859">
        <ele>665</ele>
        <time>2021-02-14T13:53:16Z</time>
      </trkpt>
      <trkpt lat="45.83773" lon="3.56858">
        <ele>664</ele>
        <time>2021-02-14T13:53:18Z</time>
      </trkpt>
      <trkpt lat="45.83765" lon="3.56852">
        <ele>662</ele>
        <time>2021-02-14T13:53:26Z</time>
      </trkpt>
      <trkpt lat="45.83754" lon="3.56849">
        <ele>659</ele>
        <time>2021-02-14T13:53:32Z</time>
      </trkpt>
      <trkpt lat="45.83747" lon="3.56846">
        <ele>658</ele>
        <time>2021-02-14T13:53:36Z</time>
      </trkpt>
      <trkpt lat="45.83745" lon="3.56844">
        <ele>657</ele>
        <time>2021-02-14T13:53:38Z</time>
      </trkpt>
      <trkpt lat="45.83741" lon="3.56842">
        <ele>657</ele>
        <time>2021-02-14T13:53:42Z</time>
      </trkpt>
      <trkpt lat="45.83738" lon="3.56842">
        <ele>656</ele>
        <time>2021-02-14T13:53:44Z</time>
      </trkpt>
      <trkpt lat="45.83735" lon="3.56841">
        <ele>656</ele>
        <time>2021-02-14T13:53:46Z</time>
      </trkpt>
      <trkpt lat="45.83733" lon="3.5684">
        <ele>656</ele>
        <time>2021-02-14T13:53:48Z</time>
      </trkpt>
      <trkpt lat="45.8373" lon="3.56838">
        <ele>655</ele>
        <time>2021-02-14T13:53:51Z</time>
      </trkpt>
      <trkpt lat="45.83728" lon="3.56837">
        <ele>655</ele>
        <time>2021-02-14T13:53:54Z</time>
      </trkpt>
      <trkpt lat="45.83725" lon="3.56837">
        <ele>654</ele>
        <time>2021-02-14T13:53:56Z</time>
      </trkpt>
      <trkpt lat="45.83723" lon="3.56836">
        <ele>654</ele>
        <time>2021-02-14T13:53:58Z</time>
      </trkpt>
      <trkpt lat="45.8372" lon="3.56837">
        <ele>654</ele>
        <time>2021-02-14T13:54:00Z</time>
      </trkpt>
      <trkpt lat="45.83717" lon="3.56836">
        <ele>654</ele>
        <time>2021-02-14T13:54:03Z</time>
      </trkpt>
      <trkpt lat="45.83715" lon="3.56836">
        <ele>654</ele>
        <time>2021-02-14T13:54:05Z</time>
      </trkpt>
      <trkpt lat="45.83713" lon="3.56834">
        <ele>654</ele>
        <time>2021-02-14T13:54:07Z</time>
      </trkpt>
      <trkpt lat="45.8371" lon="3.56833">
        <ele>654</ele>
        <time>2021-02-14T13:54:09Z</time>
      </trkpt>
      <trkpt lat="45.83708" lon="3.56832">
        <ele>654</ele>
        <time>2021-02-14T13:54:11Z</time>
      </trkpt>
      <trkpt lat="45.83705" lon="3.5683">
        <ele>653</ele>
        <time>2021-02-14T13:54:13Z</time>
      </trkpt>
      <trkpt lat="45.83705" lon="3.56826">
        <ele>653</ele>
        <time>2021-02-14T13:54:16Z</time>
      </trkpt>
      <trkpt lat="45.83705" lon="3.56823">
        <ele>652</ele>
        <time>2021-02-14T13:54:20Z</time>
      </trkpt>
      <trkpt lat="45.83706" lon="3.5682">
        <ele>652</ele>
        <time>2021-02-14T13:54:23Z</time>
      </trkpt>
      <trkpt lat="45.83706" lon="3.56817">
        <ele>651</ele>
        <time>2021-02-14T13:54:25Z</time>
      </trkpt>
      <trkpt lat="45.83705" lon="3.56814">
        <ele>651</ele>
        <time>2021-02-14T13:54:28Z</time>
      </trkpt>
      <trkpt lat="45.83703" lon="3.56812">
        <ele>650</ele>
        <time>2021-02-14T13:54:30Z</time>
      </trkpt>
      <trkpt lat="45.83701" lon="3.5681">
        <ele>650</ele>
        <time>2021-02-14T13:54:33Z</time>
      </trkpt>
      <trkpt lat="45.83699" lon="3.56809">
        <ele>650</ele>
        <time>2021-02-14T13:54:37Z</time>
      </trkpt>
      <trkpt lat="45.83697" lon="3.56807">
        <ele>650</ele>
        <time>2021-02-14T13:54:40Z</time>
      </trkpt>
      <trkpt lat="45.83697" lon="3.56804">
        <ele>649</ele>
        <time>2021-02-14T13:54:42Z</time>
      </trkpt>
      <trkpt lat="45.83698" lon="3.56801">
        <ele>649</ele>
        <time>2021-02-14T13:54:44Z</time>
      </trkpt>
      <trkpt lat="45.83698" lon="3.56798">
        <ele>649</ele>
        <time>2021-02-14T13:54:50Z</time>
      </trkpt>
      <trkpt lat="45.83699" lon="3.56795">
        <ele>648</ele>
        <time>2021-02-14T13:54:53Z</time>
      </trkpt>
      <trkpt lat="45.83698" lon="3.56791">
        <ele>648</ele>
        <time>2021-02-14T13:55:00Z</time>
      </trkpt>
      <trkpt lat="45.83697" lon="3.56787">
        <ele>647</ele>
        <time>2021-02-14T13:55:02Z</time>
      </trkpt>
      <trkpt lat="45.83696" lon="3.56784">
        <ele>647</ele>
        <time>2021-02-14T13:55:04Z</time>
      </trkpt>
      <trkpt lat="45.83695" lon="3.5678">
        <ele>647</ele>
        <time>2021-02-14T13:55:06Z</time>
      </trkpt>
      <trkpt lat="45.83695" lon="3.56778">
        <ele>646</ele>
        <time>2021-02-14T13:55:08Z</time>
      </trkpt>
      <trkpt lat="45.83694" lon="3.56775">
        <ele>646</ele>
        <time>2021-02-14T13:55:10Z</time>
      </trkpt>
      <trkpt lat="45.83694" lon="3.56772">
        <ele>646</ele>
        <time>2021-02-14T13:55:12Z</time>
      </trkpt>
      <trkpt lat="45.83694" lon="3.56768">
        <ele>646</ele>
        <time>2021-02-14T13:55:14Z</time>
      </trkpt>
      <trkpt lat="45.83695" lon="3.56765">
        <ele>645</ele>
        <time>2021-02-14T13:55:16Z</time>
      </trkpt>
      <trkpt lat="45.83695" lon="3.56761">
        <ele>645</ele>
        <time>2021-02-14T13:55:19Z</time>
      </trkpt>
      <trkpt lat="45.83695" lon="3.56759">
        <ele>644</ele>
        <time>2021-02-14T13:55:21Z</time>
      </trkpt>
      <trkpt lat="45.83694" lon="3.56756">
        <ele>644</ele>
        <time>2021-02-14T13:55:23Z</time>
      </trkpt>
      <trkpt lat="45.83693" lon="3.56753">
        <ele>644</ele>
        <time>2021-02-14T13:55:25Z</time>
      </trkpt>
      <trkpt lat="45.83692" lon="3.5675">
        <ele>644</ele>
        <time>2021-02-14T13:55:27Z</time>
      </trkpt>
      <trkpt lat="45.83691" lon="3.56747">
        <ele>644</ele>
        <time>2021-02-14T13:55:29Z</time>
      </trkpt>
      <trkpt lat="45.83691" lon="3.56744">
        <ele>643</ele>
        <time>2021-02-14T13:55:32Z</time>
      </trkpt>
      <trkpt lat="45.83688" lon="3.56741">
        <ele>643</ele>
        <time>2021-02-14T13:55:34Z</time>
      </trkpt>
      <trkpt lat="45.83687" lon="3.56739">
        <ele>643</ele>
        <time>2021-02-14T13:55:36Z</time>
      </trkpt>
      <trkpt lat="45.83686" lon="3.56737">
        <ele>642</ele>
        <time>2021-02-14T13:55:38Z</time>
      </trkpt>
      <trkpt lat="45.83684" lon="3.56733">
        <ele>642</ele>
        <time>2021-02-14T13:55:41Z</time>
      </trkpt>
      <trkpt lat="45.83683" lon="3.56732">
        <ele>642</ele>
        <time>2021-02-14T13:55:43Z</time>
      </trkpt>
      <trkpt lat="45.83681" lon="3.5673">
        <ele>642</ele>
        <time>2021-02-14T13:55:45Z</time>
      </trkpt>
      <trkpt lat="45.83679" lon="3.56728">
        <ele>642</ele>
        <time>2021-02-14T13:55:47Z</time>
      </trkpt>
      <trkpt lat="45.83675" lon="3.56725">
        <ele>641</ele>
        <time>2021-02-14T13:55:50Z</time>
      </trkpt>
      <trkpt lat="45.83673" lon="3.56723">
        <ele>641</ele>
        <time>2021-02-14T13:55:53Z</time>
      </trkpt>
      <trkpt lat="45.83669" lon="3.5672">
        <ele>641</ele>
        <time>2021-02-14T13:55:55Z</time>
      </trkpt>
      <trkpt lat="45.83667" lon="3.56718">
        <ele>641</ele>
        <time>2021-02-14T13:55:57Z</time>
      </trkpt>
      <trkpt lat="45.83664" lon="3.56716">
        <ele>640</ele>
        <time>2021-02-14T13:55:59Z</time>
      </trkpt>
      <trkpt lat="45.83662" lon="3.56714">
        <ele>640</ele>
        <time>2021-02-14T13:56:00Z</time>
      </trkpt>
      <trkpt lat="45.83659" lon="3.56712">
        <ele>640</ele>
        <time>2021-02-14T13:56:02Z</time>
      </trkpt>
      <trkpt lat="45.83658" lon="3.5671">
        <ele>640</ele>
        <time>2021-02-14T13:56:03Z</time>
      </trkpt>
      <trkpt lat="45.83655" lon="3.56709">
        <ele>639</ele>
        <time>2021-02-14T13:56:05Z</time>
      </trkpt>
      <trkpt lat="45.83653" lon="3.56708">
        <ele>639</ele>
        <time>2021-02-14T13:56:07Z</time>
      </trkpt>
      <trkpt lat="45.83651" lon="3.56707">
        <ele>639</ele>
        <time>2021-02-14T13:56:09Z</time>
      </trkpt>
      <trkpt lat="45.83649" lon="3.56707">
        <ele>639</ele>
        <time>2021-02-14T13:56:11Z</time>
      </trkpt>
      <trkpt lat="45.83647" lon="3.56707">
        <ele>639</ele>
        <time>2021-02-14T13:56:15Z</time>
      </trkpt>
      <trkpt lat="45.83645" lon="3.56706">
        <ele>639</ele>
        <time>2021-02-14T13:56:18Z</time>
      </trkpt>
      <trkpt lat="45.83642" lon="3.56705">
        <ele>639</ele>
        <time>2021-02-14T13:56:20Z</time>
      </trkpt>
      <trkpt lat="45.83641" lon="3.56703">
        <ele>639</ele>
        <time>2021-02-14T13:56:22Z</time>
      </trkpt>
      <trkpt lat="45.8364" lon="3.567">
        <ele>639</ele>
        <time>2021-02-14T13:56:24Z</time>
      </trkpt>
      <trkpt lat="45.83639" lon="3.56696">
        <ele>638</ele>
        <time>2021-02-14T13:56:26Z</time>
      </trkpt>
      <trkpt lat="45.83638" lon="3.56692">
        <ele>637</ele>
        <time>2021-02-14T13:56:28Z</time>
      </trkpt>
      <trkpt lat="45.83638" lon="3.56688">
        <ele>637</ele>
        <time>2021-02-14T13:56:30Z</time>
      </trkpt>
      <trkpt lat="45.83638" lon="3.56684">
        <ele>636</ele>
        <time>2021-02-14T13:56:32Z</time>
      </trkpt>
      <trkpt lat="45.83638" lon="3.56681">
        <ele>636</ele>
        <time>2021-02-14T13:56:34Z</time>
      </trkpt>
      <trkpt lat="45.83638" lon="3.56677">
        <ele>635</ele>
        <time>2021-02-14T13:56:36Z</time>
      </trkpt>
      <trkpt lat="45.83637" lon="3.56674">
        <ele>635</ele>
        <time>2021-02-14T13:56:38Z</time>
      </trkpt>
      <trkpt lat="45.83637" lon="3.5667">
        <ele>634</ele>
        <time>2021-02-14T13:56:40Z</time>
      </trkpt>
      <trkpt lat="45.83637" lon="3.56666">
        <ele>633</ele>
        <time>2021-02-14T13:56:42Z</time>
      </trkpt>
      <trkpt lat="45.83637" lon="3.56663">
        <ele>633</ele>
        <time>2021-02-14T13:56:44Z</time>
      </trkpt>
      <trkpt lat="45.83637" lon="3.5666">
        <ele>633</ele>
        <time>2021-02-14T13:56:46Z</time>
      </trkpt>
      <trkpt lat="45.83637" lon="3.56657">
        <ele>632</ele>
        <time>2021-02-14T13:56:48Z</time>
      </trkpt>
      <trkpt lat="45.83637" lon="3.56653">
        <ele>632</ele>
        <time>2021-02-14T13:56:50Z</time>
      </trkpt>
      <trkpt lat="45.83636" lon="3.56649">
        <ele>631</ele>
        <time>2021-02-14T13:56:52Z</time>
      </trkpt>
      <trkpt lat="45.83635" lon="3.56646">
        <ele>631</ele>
        <time>2021-02-14T13:56:54Z</time>
      </trkpt>
      <trkpt lat="45.83634" lon="3.56643">
        <ele>630</ele>
        <time>2021-02-14T13:56:56Z</time>
      </trkpt>
      <trkpt lat="45.83633" lon="3.56641">
        <ele>630</ele>
        <time>2021-02-14T13:56:58Z</time>
      </trkpt>
      <trkpt lat="45.83631" lon="3.56638">
        <ele>629</ele>
        <time>2021-02-14T13:57:00Z</time>
      </trkpt>
      <trkpt lat="45.83629" lon="3.56635">
        <ele>629</ele>
        <time>2021-02-14T13:57:02Z</time>
      </trkpt>
      <trkpt lat="45.83627" lon="3.56632">
        <ele>628</ele>
        <time>2021-02-14T13:57:04Z</time>
      </trkpt>
      <trkpt lat="45.83625" lon="3.56628">
        <ele>627</ele>
        <time>2021-02-14T13:57:06Z</time>
      </trkpt>
      <trkpt lat="45.83623" lon="3.56624">
        <ele>627</ele>
        <time>2021-02-14T13:57:08Z</time>
      </trkpt>
      <trkpt lat="45.83622" lon="3.56621">
        <ele>626</ele>
        <time>2021-02-14T13:57:10Z</time>
      </trkpt>
      <trkpt lat="45.8362" lon="3.56618">
        <ele>625</ele>
        <time>2021-02-14T13:57:12Z</time>
      </trkpt>
      <trkpt lat="45.83619" lon="3.56615">
        <ele>625</ele>
        <time>2021-02-14T13:57:14Z</time>
      </trkpt>
      <trkpt lat="45.83617" lon="3.5661">
        <ele>624</ele>
        <time>2021-02-14T13:57:16Z</time>
      </trkpt>
      <trkpt lat="45.83617" lon="3.56606">
        <ele>624</ele>
        <time>2021-02-14T13:57:18Z</time>
      </trkpt>
      <trkpt lat="45.83616" lon="3.56603">
        <ele>624</ele>
        <time>2021-02-14T13:57:20Z</time>
      </trkpt>
      <trkpt lat="45.83615" lon="3.566">
        <ele>624</ele>
        <time>2021-02-14T13:57:22Z</time>
      </trkpt>
      <trkpt lat="45.83613" lon="3.56596">
        <ele>624</ele>
        <time>2021-02-14T13:57:24Z</time>
      </trkpt>
      <trkpt lat="45.83611" lon="3.56594">
        <ele>624</ele>
        <time>2021-02-14T13:57:26Z</time>
      </trkpt>
      <trkpt lat="45.8361" lon="3.56591">
        <ele>624</ele>
        <time>2021-02-14T13:57:28Z</time>
      </trkpt>
      <trkpt lat="45.83609" lon="3.56588">
        <ele>624</ele>
        <time>2021-02-14T13:57:30Z</time>
      </trkpt>
      <trkpt lat="45.83608" lon="3.56585">
        <ele>624</ele>
        <time>2021-02-14T13:57:32Z</time>
      </trkpt>
      <trkpt lat="45.83606" lon="3.56582">
        <ele>624</ele>
        <time>2021-02-14T13:57:34Z</time>
      </trkpt>
      <trkpt lat="45.83605" lon="3.56579">
        <ele>623</ele>
        <time>2021-02-14T13:57:35Z</time>
      </trkpt>
      <trkpt lat="45.83604" lon="3.56577">
        <ele>623</ele>
        <time>2021-02-14T13:57:36Z</time>
      </trkpt>
      <trkpt lat="45.83603" lon="3.56573">
        <ele>623</ele>
        <time>2021-02-14T13:57:38Z</time>
      </trkpt>
      <trkpt lat="45.83601" lon="3.5657">
        <ele>623</ele>
        <time>2021-02-14T13:57:40Z</time>
      </trkpt>
      <trkpt lat="45.836" lon="3.56567">
        <ele>623</ele>
        <time>2021-02-14T13:57:42Z</time>
      </trkpt>
      <trkpt lat="45.83599" lon="3.56564">
        <ele>623</ele>
        <time>2021-02-14T13:57:44Z</time>
      </trkpt>
      <trkpt lat="45.83598" lon="3.5656">
        <ele>623</ele>
        <time>2021-02-14T13:57:46Z</time>
      </trkpt>
      <trkpt lat="45.83597" lon="3.56556">
        <ele>623</ele>
        <time>2021-02-14T13:57:48Z</time>
      </trkpt>
      <trkpt lat="45.83596" lon="3.56553">
        <ele>622</ele>
        <time>2021-02-14T13:57:50Z</time>
      </trkpt>
      <trkpt lat="45.83595" lon="3.56549">
        <ele>622</ele>
        <time>2021-02-14T13:57:52Z</time>
      </trkpt>
      <trkpt lat="45.83594" lon="3.56547">
        <ele>622</ele>
        <time>2021-02-14T13:57:54Z</time>
      </trkpt>
      <trkpt lat="45.83592" lon="3.56543">
        <ele>622</ele>
        <time>2021-02-14T13:57:56Z</time>
      </trkpt>
      <trkpt lat="45.83592" lon="3.56539">
        <ele>622</ele>
        <time>2021-02-14T13:57:58Z</time>
      </trkpt>
      <trkpt lat="45.83592" lon="3.56535">
        <ele>622</ele>
        <time>2021-02-14T13:58:00Z</time>
      </trkpt>
      <trkpt lat="45.83592" lon="3.56532">
        <ele>622</ele>
        <time>2021-02-14T13:58:01Z</time>
      </trkpt>
      <trkpt lat="45.83593" lon="3.56528">
        <ele>621</ele>
        <time>2021-02-14T13:58:03Z</time>
      </trkpt>
      <trkpt lat="45.83594" lon="3.56524">
        <ele>621</ele>
        <time>2021-02-14T13:58:05Z</time>
      </trkpt>
      <trkpt lat="45.83594" lon="3.5652">
        <ele>620</ele>
        <time>2021-02-14T13:58:07Z</time>
      </trkpt>
      <trkpt lat="45.83595" lon="3.56517">
        <ele>620</ele>
        <time>2021-02-14T13:58:09Z</time>
      </trkpt>
      <trkpt lat="45.83595" lon="3.56514">
        <ele>619</ele>
        <time>2021-02-14T13:58:11Z</time>
      </trkpt>
      <trkpt lat="45.83595" lon="3.5651">
        <ele>619</ele>
        <time>2021-02-14T13:58:13Z</time>
      </trkpt>
      <trkpt lat="45.83594" lon="3.56507">
        <ele>619</ele>
        <time>2021-02-14T13:58:15Z</time>
      </trkpt>
      <trkpt lat="45.83594" lon="3.56504">
        <ele>618</ele>
        <time>2021-02-14T13:58:17Z</time>
      </trkpt>
      <trkpt lat="45.83596" lon="3.565">
        <ele>618</ele>
        <time>2021-02-14T13:58:19Z</time>
      </trkpt>
      <trkpt lat="45.83596" lon="3.56497">
        <ele>617</ele>
        <time>2021-02-14T13:58:21Z</time>
      </trkpt>
      <trkpt lat="45.83596" lon="3.565">
        <ele>618</ele>
        <time>2021-02-14T13:58:24Z</time>
      </trkpt>
      <trkpt lat="45.83596" lon="3.56503">
        <ele>618</ele>
        <time>2021-02-14T13:58:26Z</time>
      </trkpt>
      <trkpt lat="45.83596" lon="3.56508">
        <ele>619</ele>
        <time>2021-02-14T13:58:28Z</time>
      </trkpt>
      <trkpt lat="45.83596" lon="3.56512">
        <ele>619</ele>
        <time>2021-02-14T13:58:30Z</time>
      </trkpt>
      <trkpt lat="45.83596" lon="3.56516">
        <ele>620</ele>
        <time>2021-02-14T13:58:32Z</time>
      </trkpt>
      <trkpt lat="45.83596" lon="3.5652">
        <ele>620</ele>
        <time>2021-02-14T13:58:34Z</time>
      </trkpt>
      <trkpt lat="45.83596" lon="3.56523">
        <ele>621</ele>
        <time>2021-02-14T13:58:36Z</time>
      </trkpt>
      <trkpt lat="45.83596" lon="3.56526">
        <ele>621</ele>
        <time>2021-02-14T13:58:38Z</time>
      </trkpt>
      <trkpt lat="45.83596" lon="3.5653">
        <ele>621</ele>
        <time>2021-02-14T13:58:40Z</time>
      </trkpt>
      <trkpt lat="45.83595" lon="3.56533">
        <ele>621</ele>
        <time>2021-02-14T13:58:42Z</time>
      </trkpt>
      <trkpt lat="45.83594" lon="3.56536">
        <ele>622</ele>
        <time>2021-02-14T13:58:44Z</time>
      </trkpt>
      <trkpt lat="45.83593" lon="3.56538">
        <ele>622</ele>
        <time>2021-02-14T13:58:46Z</time>
      </trkpt>
      <trkpt lat="45.8359" lon="3.5654">
        <ele>622</ele>
        <time>2021-02-14T13:58:48Z</time>
      </trkpt>
      <trkpt lat="45.83587" lon="3.5654">
        <ele>623</ele>
        <time>2021-02-14T13:58:50Z</time>
      </trkpt>
      <trkpt lat="45.83585" lon="3.5654">
        <ele>623</ele>
        <time>2021-02-14T13:58:52Z</time>
      </trkpt>
      <trkpt lat="45.83582" lon="3.56538">
        <ele>623</ele>
        <time>2021-02-14T13:58:54Z</time>
      </trkpt>
      <trkpt lat="45.83579" lon="3.56535">
        <ele>623</ele>
        <time>2021-02-14T13:58:56Z</time>
      </trkpt>
      <trkpt lat="45.83577" lon="3.56533">
        <ele>623</ele>
        <time>2021-02-14T13:58:58Z</time>
      </trkpt>
      <trkpt lat="45.83575" lon="3.56531">
        <ele>623</ele>
        <time>2021-02-14T13:59:00Z</time>
      </trkpt>
      <trkpt lat="45.83572" lon="3.56529">
        <ele>623</ele>
        <time>2021-02-14T13:59:02Z</time>
      </trkpt>
      <trkpt lat="45.8357" lon="3.56526">
        <ele>622</ele>
        <time>2021-02-14T13:59:04Z</time>
      </trkpt>
      <trkpt lat="45.83568" lon="3.56524">
        <ele>622</ele>
        <time>2021-02-14T13:59:06Z</time>
      </trkpt>
      <trkpt lat="45.83567" lon="3.56522">
        <ele>622</ele>
        <time>2021-02-14T13:59:08Z</time>
      </trkpt>
      <trkpt lat="45.83565" lon="3.56519">
        <ele>622</ele>
        <time>2021-02-14T13:59:10Z</time>
      </trkpt>
      <trkpt lat="45.83563" lon="3.56517">
        <ele>622</ele>
        <time>2021-02-14T13:59:12Z</time>
      </trkpt>
      <trkpt lat="45.83561" lon="3.56515">
        <ele>621</ele>
        <time>2021-02-14T13:59:14Z</time>
      </trkpt>
      <trkpt lat="45.8356" lon="3.56513">
        <ele>621</ele>
        <time>2021-02-14T13:59:15Z</time>
      </trkpt>
      <trkpt lat="45.83557" lon="3.56509">
        <ele>621</ele>
        <time>2021-02-14T13:59:17Z</time>
      </trkpt>
      <trkpt lat="45.83555" lon="3.56506">
        <ele>621</ele>
        <time>2021-02-14T13:59:19Z</time>
      </trkpt>
      <trkpt lat="45.83554" lon="3.56504">
        <ele>621</ele>
        <time>2021-02-14T13:59:21Z</time>
      </trkpt>
      <trkpt lat="45.83553" lon="3.56501">
        <ele>621</ele>
        <time>2021-02-14T13:59:23Z</time>
      </trkpt>
      <trkpt lat="45.83551" lon="3.56498">
        <ele>621</ele>
        <time>2021-02-14T13:59:25Z</time>
      </trkpt>
      <trkpt lat="45.83549" lon="3.56495">
        <ele>620</ele>
        <time>2021-02-14T13:59:27Z</time>
      </trkpt>
      <trkpt lat="45.83548" lon="3.56491">
        <ele>620</ele>
        <time>2021-02-14T13:59:29Z</time>
      </trkpt>
      <trkpt lat="45.83546" lon="3.56488">
        <ele>620</ele>
        <time>2021-02-14T13:59:31Z</time>
      </trkpt>
      <trkpt lat="45.83545" lon="3.56484">
        <ele>620</ele>
        <time>2021-02-14T13:59:33Z</time>
      </trkpt>
      <trkpt lat="45.83543" lon="3.56481">
        <ele>620</ele>
        <time>2021-02-14T13:59:35Z</time>
      </trkpt>
      <trkpt lat="45.83542" lon="3.56477">
        <ele>619</ele>
        <time>2021-02-14T13:59:37Z</time>
      </trkpt>
      <trkpt lat="45.8354" lon="3.56474">
        <ele>619</ele>
        <time>2021-02-14T13:59:39Z</time>
      </trkpt>
      <trkpt lat="45.83539" lon="3.56471">
        <ele>619</ele>
        <time>2021-02-14T13:59:41Z</time>
      </trkpt>
      <trkpt lat="45.83538" lon="3.56468">
        <ele>619</ele>
        <time>2021-02-14T13:59:43Z</time>
      </trkpt>
      <trkpt lat="45.83536" lon="3.56465">
        <ele>619</ele>
        <time>2021-02-14T13:59:45Z</time>
      </trkpt>
      <trkpt lat="45.83535" lon="3.56461">
        <ele>619</ele>
        <time>2021-02-14T13:59:47Z</time>
      </trkpt>
      <trkpt lat="45.83533" lon="3.56457">
        <ele>619</ele>
        <time>2021-02-14T13:59:49Z</time>
      </trkpt>
      <trkpt lat="45.83531" lon="3.56454">
        <ele>619</ele>
        <time>2021-02-14T13:59:51Z</time>
      </trkpt>
      <trkpt lat="45.83529" lon="3.56451">
        <ele>620</ele>
        <time>2021-02-14T13:59:53Z</time>
      </trkpt>
      <trkpt lat="45.83528" lon="3.56448">
        <ele>620</ele>
        <time>2021-02-14T13:59:55Z</time>
      </trkpt>
      <trkpt lat="45.83526" lon="3.56445">
        <ele>620</ele>
        <time>2021-02-14T13:59:57Z</time>
      </trkpt>
      <trkpt lat="45.83525" lon="3.56442">
        <ele>619</ele>
        <time>2021-02-14T13:59:59Z</time>
      </trkpt>
      <trkpt lat="45.83523" lon="3.56439">
        <ele>619</ele>
        <time>2021-02-14T14:00:01Z</time>
      </trkpt>
      <trkpt lat="45.83521" lon="3.56437">
        <ele>619</ele>
        <time>2021-02-14T14:00:03Z</time>
      </trkpt>
      <trkpt lat="45.83519" lon="3.56434">
        <ele>619</ele>
        <time>2021-02-14T14:00:05Z</time>
      </trkpt>
      <trkpt lat="45.83517" lon="3.56432">
        <ele>619</ele>
        <time>2021-02-14T14:00:07Z</time>
      </trkpt>
      <trkpt lat="45.83515" lon="3.56429">
        <ele>618</ele>
        <time>2021-02-14T14:00:09Z</time>
      </trkpt>
      <trkpt lat="45.83513" lon="3.56426">
        <ele>618</ele>
        <time>2021-02-14T14:00:11Z</time>
      </trkpt>
      <trkpt lat="45.83511" lon="3.56424">
        <ele>618</ele>
        <time>2021-02-14T14:00:13Z</time>
      </trkpt>
      <trkpt lat="45.83509" lon="3.56422">
        <ele>618</ele>
        <time>2021-02-14T14:00:15Z</time>
      </trkpt>
      <trkpt lat="45.83507" lon="3.5642">
        <ele>618</ele>
        <time>2021-02-14T14:00:17Z</time>
      </trkpt>
      <trkpt lat="45.83505" lon="3.56417">
        <ele>617</ele>
        <time>2021-02-14T14:00:19Z</time>
      </trkpt>
      <trkpt lat="45.83503" lon="3.56415">
        <ele>617</ele>
        <time>2021-02-14T14:00:21Z</time>
      </trkpt>
      <trkpt lat="45.83502" lon="3.56412">
        <ele>617</ele>
        <time>2021-02-14T14:00:23Z</time>
      </trkpt>
      <trkpt lat="45.835" lon="3.5641">
        <ele>617</ele>
        <time>2021-02-14T14:00:25Z</time>
      </trkpt>
      <trkpt lat="45.83498" lon="3.56407">
        <ele>617</ele>
        <time>2021-02-14T14:00:27Z</time>
      </trkpt>
      <trkpt lat="45.83496" lon="3.56405">
        <ele>617</ele>
        <time>2021-02-14T14:00:29Z</time>
      </trkpt>
      <trkpt lat="45.83494" lon="3.56403">
        <ele>617</ele>
        <time>2021-02-14T14:00:31Z</time>
      </trkpt>
      <trkpt lat="45.83492" lon="3.56402">
        <ele>617</ele>
        <time>2021-02-14T14:00:33Z</time>
      </trkpt>
      <trkpt lat="45.8349" lon="3.564">
        <ele>617</ele>
        <time>2021-02-14T14:00:35Z</time>
      </trkpt>
      <trkpt lat="45.83487" lon="3.56399">
        <ele>617</ele>
        <time>2021-02-14T14:00:37Z</time>
      </trkpt>
      <trkpt lat="45.83484" lon="3.56399">
        <ele>617</ele>
        <time>2021-02-14T14:00:39Z</time>
      </trkpt>
      <trkpt lat="45.83482" lon="3.56398">
        <ele>617</ele>
        <time>2021-02-14T14:00:41Z</time>
      </trkpt>
      <trkpt lat="45.83479" lon="3.56398">
        <ele>618</ele>
        <time>2021-02-14T14:00:43Z</time>
      </trkpt>
      <trkpt lat="45.83476" lon="3.56399">
        <ele>618</ele>
        <time>2021-02-14T14:00:45Z</time>
      </trkpt>
      <trkpt lat="45.83473" lon="3.56398">
        <ele>618</ele>
        <time>2021-02-14T14:00:47Z</time>
      </trkpt>
      <trkpt lat="45.83471" lon="3.56398">
        <ele>618</ele>
        <time>2021-02-14T14:00:49Z</time>
      </trkpt>
      <trkpt lat="45.83468" lon="3.56398">
        <ele>619</ele>
        <time>2021-02-14T14:00:51Z</time>
      </trkpt>
      <trkpt lat="45.83466" lon="3.56397">
        <ele>619</ele>
        <time>2021-02-14T14:00:53Z</time>
      </trkpt>
      <trkpt lat="45.83463" lon="3.56396">
        <ele>619</ele>
        <time>2021-02-14T14:00:55Z</time>
      </trkpt>
      <trkpt lat="45.8346" lon="3.56395">
        <ele>619</ele>
        <time>2021-02-14T14:00:57Z</time>
      </trkpt>
      <trkpt lat="45.83458" lon="3.56394">
        <ele>619</ele>
        <time>2021-02-14T14:00:59Z</time>
      </trkpt>
      <trkpt lat="45.83455" lon="3.56393">
        <ele>620</ele>
        <time>2021-02-14T14:01:01Z</time>
      </trkpt>
      <trkpt lat="45.83453" lon="3.56392">
        <ele>620</ele>
        <time>2021-02-14T14:01:03Z</time>
      </trkpt>
      <trkpt lat="45.8345" lon="3.5639">
        <ele>620</ele>
        <time>2021-02-14T14:01:05Z</time>
      </trkpt>
      <trkpt lat="45.83447" lon="3.56389">
        <ele>620</ele>
        <time>2021-02-14T14:01:07Z</time>
      </trkpt>
      <trkpt lat="45.83445" lon="3.56387">
        <ele>620</ele>
        <time>2021-02-14T14:01:09Z</time>
      </trkpt>
      <trkpt lat="45.83442" lon="3.56386">
        <ele>621</ele>
        <time>2021-02-14T14:01:11Z</time>
      </trkpt>
      <trkpt lat="45.8344" lon="3.56384">
        <ele>621</ele>
        <time>2021-02-14T14:01:13Z</time>
      </trkpt>
      <trkpt lat="45.83437" lon="3.56383">
        <ele>621</ele>
        <time>2021-02-14T14:01:15Z</time>
      </trkpt>
      <trkpt lat="45.83435" lon="3.56381">
        <ele>621</ele>
        <time>2021-02-14T14:01:17Z</time>
      </trkpt>
      <trkpt lat="45.83432" lon="3.5638">
        <ele>621</ele>
        <time>2021-02-14T14:01:19Z</time>
      </trkpt>
      <trkpt lat="45.8343" lon="3.56379">
        <ele>621</ele>
        <time>2021-02-14T14:01:21Z</time>
      </trkpt>
      <trkpt lat="45.83427" lon="3.56378">
        <ele>621</ele>
        <time>2021-02-14T14:01:23Z</time>
      </trkpt>
      <trkpt lat="45.83425" lon="3.56377">
        <ele>622</ele>
        <time>2021-02-14T14:01:25Z</time>
      </trkpt>
      <trkpt lat="45.83422" lon="3.56376">
        <ele>622</ele>
        <time>2021-02-14T14:01:27Z</time>
      </trkpt>
      <trkpt lat="45.8342" lon="3.56375">
        <ele>622</ele>
        <time>2021-02-14T14:01:29Z</time>
      </trkpt>
      <trkpt lat="45.83418" lon="3.56374">
        <ele>622</ele>
        <time>2021-02-14T14:01:31Z</time>
      </trkpt>
      <trkpt lat="45.83415" lon="3.56374">
        <ele>622</ele>
        <time>2021-02-14T14:01:33Z</time>
      </trkpt>
      <trkpt lat="45.83413" lon="3.56373">
        <ele>622</ele>
        <time>2021-02-14T14:01:35Z</time>
      </trkpt>
      <trkpt lat="45.83411" lon="3.56373">
        <ele>622</ele>
        <time>2021-02-14T14:01:37Z</time>
      </trkpt>
      <trkpt lat="45.83409" lon="3.56372">
        <ele>622</ele>
        <time>2021-02-14T14:01:39Z</time>
      </trkpt>
      <trkpt lat="45.83407" lon="3.56371">
        <ele>622</ele>
        <time>2021-02-14T14:01:41Z</time>
      </trkpt>
      <trkpt lat="45.83405" lon="3.5637">
        <ele>622</ele>
        <time>2021-02-14T14:01:43Z</time>
      </trkpt>
      <trkpt lat="45.83402" lon="3.56369">
        <ele>622</ele>
        <time>2021-02-14T14:01:45Z</time>
      </trkpt>
      <trkpt lat="45.834" lon="3.56367">
        <ele>622</ele>
        <time>2021-02-14T14:01:47Z</time>
      </trkpt>
      <trkpt lat="45.83398" lon="3.56365">
        <ele>622</ele>
        <time>2021-02-14T14:01:49Z</time>
      </trkpt>
      <trkpt lat="45.83396" lon="3.56364">
        <ele>622</ele>
        <time>2021-02-14T14:01:51Z</time>
      </trkpt>
      <trkpt lat="45.83394" lon="3.56364">
        <ele>622</ele>
        <time>2021-02-14T14:01:55Z</time>
      </trkpt>
      <trkpt lat="45.83393" lon="3.56363">
        <ele>622</ele>
        <time>2021-02-14T14:01:57Z</time>
      </trkpt>
      <trkpt lat="45.83387" lon="3.56361">
        <ele>623</ele>
        <time>2021-02-14T14:02:00Z</time>
      </trkpt>
      <trkpt lat="45.83385" lon="3.5636">
        <ele>623</ele>
        <time>2021-02-14T14:02:02Z</time>
      </trkpt>
      <trkpt lat="45.83383" lon="3.56359">
        <ele>623</ele>
        <time>2021-02-14T14:02:04Z</time>
      </trkpt>
      <trkpt lat="45.83381" lon="3.56359">
        <ele>623</ele>
        <time>2021-02-14T14:02:06Z</time>
      </trkpt>
      <trkpt lat="45.83379" lon="3.56358">
        <ele>623</ele>
        <time>2021-02-14T14:02:08Z</time>
      </trkpt>
      <trkpt lat="45.83377" lon="3.56358">
        <ele>623</ele>
        <time>2021-02-14T14:02:10Z</time>
      </trkpt>
      <trkpt lat="45.8337" lon="3.56356">
        <ele>623</ele>
        <time>2021-02-14T14:02:15Z</time>
      </trkpt>
      <trkpt lat="45.83367" lon="3.56354">
        <ele>623</ele>
        <time>2021-02-14T14:02:17Z</time>
      </trkpt>
      <trkpt lat="45.83362" lon="3.56353">
        <ele>624</ele>
        <time>2021-02-14T14:02:21Z</time>
      </trkpt>
      <trkpt lat="45.83359" lon="3.56352">
        <ele>624</ele>
        <time>2021-02-14T14:02:23Z</time>
      </trkpt>
      <trkpt lat="45.83357" lon="3.56352">
        <ele>624</ele>
        <time>2021-02-14T14:02:24Z</time>
      </trkpt>
      <trkpt lat="45.83354" lon="3.56352">
        <ele>624</ele>
        <time>2021-02-14T14:02:26Z</time>
      </trkpt>
      <trkpt lat="45.8335" lon="3.56353">
        <ele>624</ele>
        <time>2021-02-14T14:02:29Z</time>
      </trkpt>
      <trkpt lat="45.83347" lon="3.56354">
        <ele>624</ele>
        <time>2021-02-14T14:02:31Z</time>
      </trkpt>
      <trkpt lat="45.83345" lon="3.56354">
        <ele>625</ele>
        <time>2021-02-14T14:02:33Z</time>
      </trkpt>
      <trkpt lat="45.83342" lon="3.56354">
        <ele>625</ele>
        <time>2021-02-14T14:02:35Z</time>
      </trkpt>
      <trkpt lat="45.8334" lon="3.56357">
        <ele>625</ele>
        <time>2021-02-14T14:02:37Z</time>
      </trkpt>
      <trkpt lat="45.83338" lon="3.56359">
        <ele>625</ele>
        <time>2021-02-14T14:02:39Z</time>
      </trkpt>
      <trkpt lat="45.83336" lon="3.56362">
        <ele>625</ele>
        <time>2021-02-14T14:02:41Z</time>
      </trkpt>
      <trkpt lat="45.83333" lon="3.56365">
        <ele>626</ele>
        <time>2021-02-14T14:02:43Z</time>
      </trkpt>
      <trkpt lat="45.83332" lon="3.56367">
        <ele>626</ele>
        <time>2021-02-14T14:02:45Z</time>
      </trkpt>
      <trkpt lat="45.8333" lon="3.56369">
        <ele>626</ele>
        <time>2021-02-14T14:02:47Z</time>
      </trkpt>
      <trkpt lat="45.83327" lon="3.5637">
        <ele>626</ele>
        <time>2021-02-14T14:02:49Z</time>
      </trkpt>
      <trkpt lat="45.83325" lon="3.56372">
        <ele>626</ele>
        <time>2021-02-14T14:02:51Z</time>
      </trkpt>
      <trkpt lat="45.83323" lon="3.56373">
        <ele>626</ele>
        <time>2021-02-14T14:02:53Z</time>
      </trkpt>
      <trkpt lat="45.83321" lon="3.56375">
        <ele>626</ele>
        <time>2021-02-14T14:02:55Z</time>
      </trkpt>
      <trkpt lat="45.8332" lon="3.56377">
        <ele>626</ele>
        <time>2021-02-14T14:02:57Z</time>
      </trkpt>
      <trkpt lat="45.83318" lon="3.56379">
        <ele>626</ele>
        <time>2021-02-14T14:02:59Z</time>
      </trkpt>
      <trkpt lat="45.83316" lon="3.56381">
        <ele>626</ele>
        <time>2021-02-14T14:03:01Z</time>
      </trkpt>
      <trkpt lat="45.83315" lon="3.56384">
        <ele>626</ele>
        <time>2021-02-14T14:03:03Z</time>
      </trkpt>
      <trkpt lat="45.83314" lon="3.56386">
        <ele>626</ele>
        <time>2021-02-14T14:03:05Z</time>
      </trkpt>
      <trkpt lat="45.83311" lon="3.56388">
        <ele>626</ele>
        <time>2021-02-14T14:03:08Z</time>
      </trkpt>
      <trkpt lat="45.83309" lon="3.56389">
        <ele>626</ele>
        <time>2021-02-14T14:03:10Z</time>
      </trkpt>
      <trkpt lat="45.83308" lon="3.56391">
        <ele>626</ele>
        <time>2021-02-14T14:03:11Z</time>
      </trkpt>
      <trkpt lat="45.83306" lon="3.56394">
        <ele>626</ele>
        <time>2021-02-14T14:03:12Z</time>
      </trkpt>
      <trkpt lat="45.83305" lon="3.56396">
        <ele>626</ele>
        <time>2021-02-14T14:03:13Z</time>
      </trkpt>
      <trkpt lat="45.83305" lon="3.56401">
        <ele>626</ele>
        <time>2021-02-14T14:03:15Z</time>
      </trkpt>
      <trkpt lat="45.83306" lon="3.56406">
        <ele>626</ele>
        <time>2021-02-14T14:03:17Z</time>
      </trkpt>
      <trkpt lat="45.83305" lon="3.56408">
        <ele>626</ele>
        <time>2021-02-14T14:03:18Z</time>
      </trkpt>
      <trkpt lat="45.83303" lon="3.56411">
        <ele>626</ele>
        <time>2021-02-14T14:03:20Z</time>
      </trkpt>
      <trkpt lat="45.83301" lon="3.56413">
        <ele>626</ele>
        <time>2021-02-14T14:03:22Z</time>
      </trkpt>
      <trkpt lat="45.83298" lon="3.56414">
        <ele>626</ele>
        <time>2021-02-14T14:03:24Z</time>
      </trkpt>
      <trkpt lat="45.83296" lon="3.56413">
        <ele>625</ele>
        <time>2021-02-14T14:03:25Z</time>
      </trkpt>
      <trkpt lat="45.83294" lon="3.56412">
        <ele>625</ele>
        <time>2021-02-14T14:03:26Z</time>
      </trkpt>
      <trkpt lat="45.83292" lon="3.56409">
        <ele>625</ele>
        <time>2021-02-14T14:03:28Z</time>
      </trkpt>
      <trkpt lat="45.83292" lon="3.56405">
        <ele>624</ele>
        <time>2021-02-14T14:03:30Z</time>
      </trkpt>
      <trkpt lat="45.83291" lon="3.56401">
        <ele>624</ele>
        <time>2021-02-14T14:03:32Z</time>
      </trkpt>
      <trkpt lat="45.83291" lon="3.56398">
        <ele>624</ele>
        <time>2021-02-14T14:03:34Z</time>
      </trkpt>
      <trkpt lat="45.83292" lon="3.56394">
        <ele>624</ele>
        <time>2021-02-14T14:03:36Z</time>
      </trkpt>
      <trkpt lat="45.83292" lon="3.56391">
        <ele>624</ele>
        <time>2021-02-14T14:03:38Z</time>
      </trkpt>
      <trkpt lat="45.8329" lon="3.56387">
        <ele>623</ele>
        <time>2021-02-14T14:03:40Z</time>
      </trkpt>
      <trkpt lat="45.83289" lon="3.56385">
        <ele>623</ele>
        <time>2021-02-14T14:03:42Z</time>
      </trkpt>
      <trkpt lat="45.83287" lon="3.56381">
        <ele>623</ele>
        <time>2021-02-14T14:03:44Z</time>
      </trkpt>
      <trkpt lat="45.83286" lon="3.56378">
        <ele>622</ele>
        <time>2021-02-14T14:03:46Z</time>
      </trkpt>
      <trkpt lat="45.83286" lon="3.56375">
        <ele>622</ele>
        <time>2021-02-14T14:03:48Z</time>
      </trkpt>
      <trkpt lat="45.83285" lon="3.56371">
        <ele>622</ele>
        <time>2021-02-14T14:03:50Z</time>
      </trkpt>
      <trkpt lat="45.83284" lon="3.56367">
        <ele>621</ele>
        <time>2021-02-14T14:03:53Z</time>
      </trkpt>
      <trkpt lat="45.83283" lon="3.56365">
        <ele>621</ele>
        <time>2021-02-14T14:03:57Z</time>
      </trkpt>
      <trkpt lat="45.83282" lon="3.56362">
        <ele>621</ele>
        <time>2021-02-14T14:03:59Z</time>
      </trkpt>
      <trkpt lat="45.83281" lon="3.56358">
        <ele>621</ele>
        <time>2021-02-14T14:04:01Z</time>
      </trkpt>
      <trkpt lat="45.83281" lon="3.56354">
        <ele>621</ele>
        <time>2021-02-14T14:04:03Z</time>
      </trkpt>
      <trkpt lat="45.83281" lon="3.56351">
        <ele>620</ele>
        <time>2021-02-14T14:04:04Z</time>
      </trkpt>
      <trkpt lat="45.83281" lon="3.56346">
        <ele>620</ele>
        <time>2021-02-14T14:04:06Z</time>
      </trkpt>
      <trkpt lat="45.83282" lon="3.56343">
        <ele>620</ele>
        <time>2021-02-14T14:04:07Z</time>
      </trkpt>
      <trkpt lat="45.83284" lon="3.56339">
        <ele>620</ele>
        <time>2021-02-14T14:04:09Z</time>
      </trkpt>
      <trkpt lat="45.83285" lon="3.56334">
        <ele>620</ele>
        <time>2021-02-14T14:04:11Z</time>
      </trkpt>
      <trkpt lat="45.83285" lon="3.56332">
        <ele>620</ele>
        <time>2021-02-14T14:04:12Z</time>
      </trkpt>
      <trkpt lat="45.83286" lon="3.56326">
        <ele>620</ele>
        <time>2021-02-14T14:04:14Z</time>
      </trkpt>
      <trkpt lat="45.83286" lon="3.56324">
        <ele>620</ele>
        <time>2021-02-14T14:04:15Z</time>
      </trkpt>
      <trkpt lat="45.83287" lon="3.56319">
        <ele>619</ele>
        <time>2021-02-14T14:04:17Z</time>
      </trkpt>
      <trkpt lat="45.83287" lon="3.56315">
        <ele>619</ele>
        <time>2021-02-14T14:04:19Z</time>
      </trkpt>
      <trkpt lat="45.83287" lon="3.5631">
        <ele>619</ele>
        <time>2021-02-14T14:04:21Z</time>
      </trkpt>
      <trkpt lat="45.83288" lon="3.56306">
        <ele>619</ele>
        <time>2021-02-14T14:04:23Z</time>
      </trkpt>
      <trkpt lat="45.83289" lon="3.56303">
        <ele>619</ele>
        <time>2021-02-14T14:04:25Z</time>
      </trkpt>
      <trkpt lat="45.8329" lon="3.563">
        <ele>619</ele>
        <time>2021-02-14T14:04:27Z</time>
      </trkpt>
      <trkpt lat="45.83291" lon="3.56297">
        <ele>619</ele>
        <time>2021-02-14T14:04:30Z</time>
      </trkpt>
      <trkpt lat="45.83292" lon="3.56293">
        <ele>619</ele>
        <time>2021-02-14T14:04:33Z</time>
      </trkpt>
      <trkpt lat="45.83293" lon="3.5629">
        <ele>619</ele>
        <time>2021-02-14T14:04:35Z</time>
      </trkpt>
      <trkpt lat="45.83293" lon="3.56286">
        <ele>618</ele>
        <time>2021-02-14T14:04:37Z</time>
      </trkpt>
      <trkpt lat="45.83294" lon="3.56282">
        <ele>618</ele>
        <time>2021-02-14T14:04:39Z</time>
      </trkpt>
      <trkpt lat="45.83295" lon="3.56278">
        <ele>618</ele>
        <time>2021-02-14T14:04:41Z</time>
      </trkpt>
      <trkpt lat="45.83295" lon="3.56274">
        <ele>618</ele>
        <time>2021-02-14T14:04:43Z</time>
      </trkpt>
      <trkpt lat="45.83295" lon="3.56271">
        <ele>618</ele>
        <time>2021-02-14T14:04:45Z</time>
      </trkpt>
      <trkpt lat="45.83296" lon="3.56267">
        <ele>617</ele>
        <time>2021-02-14T14:04:47Z</time>
      </trkpt>
      <trkpt lat="45.83297" lon="3.56262">
        <ele>617</ele>
        <time>2021-02-14T14:04:49Z</time>
      </trkpt>
      <trkpt lat="45.83298" lon="3.56257">
        <ele>617</ele>
        <time>2021-02-14T14:04:51Z</time>
      </trkpt>
      <trkpt lat="45.83299" lon="3.56254">
        <ele>616</ele>
        <time>2021-02-14T14:04:53Z</time>
      </trkpt>
      <trkpt lat="45.83301" lon="3.5625">
        <ele>616</ele>
        <time>2021-02-14T14:04:55Z</time>
      </trkpt>
      <trkpt lat="45.83302" lon="3.56246">
        <ele>616</ele>
        <time>2021-02-14T14:04:57Z</time>
      </trkpt>
      <trkpt lat="45.83304" lon="3.56244">
        <ele>615</ele>
        <time>2021-02-14T14:04:59Z</time>
      </trkpt>
      <trkpt lat="45.83307" lon="3.56242">
        <ele>615</ele>
        <time>2021-02-14T14:05:02Z</time>
      </trkpt>
      <trkpt lat="45.83309" lon="3.5624">
        <ele>615</ele>
        <time>2021-02-14T14:05:04Z</time>
      </trkpt>
      <trkpt lat="45.83312" lon="3.56238">
        <ele>615</ele>
        <time>2021-02-14T14:05:06Z</time>
      </trkpt>
      <trkpt lat="45.83315" lon="3.56237">
        <ele>615</ele>
        <time>2021-02-14T14:05:08Z</time>
      </trkpt>
      <trkpt lat="45.83317" lon="3.56235">
        <ele>615</ele>
        <time>2021-02-14T14:05:10Z</time>
      </trkpt>
      <trkpt lat="45.8332" lon="3.56234">
        <ele>615</ele>
        <time>2021-02-14T14:05:12Z</time>
      </trkpt>
      <trkpt lat="45.83323" lon="3.56233">
        <ele>615</ele>
        <time>2021-02-14T14:05:14Z</time>
      </trkpt>
      <trkpt lat="45.83325" lon="3.56231">
        <ele>615</ele>
        <time>2021-02-14T14:05:16Z</time>
      </trkpt>
      <trkpt lat="45.83328" lon="3.5623">
        <ele>614</ele>
        <time>2021-02-14T14:05:18Z</time>
      </trkpt>
      <trkpt lat="45.83329" lon="3.56228">
        <ele>614</ele>
        <time>2021-02-14T14:05:21Z</time>
      </trkpt>
      <trkpt lat="45.83331" lon="3.56228">
        <ele>614</ele>
        <time>2021-02-14T14:05:23Z</time>
      </trkpt>
      <trkpt lat="45.83334" lon="3.56227">
        <ele>614</ele>
        <time>2021-02-14T14:05:25Z</time>
      </trkpt>
      <trkpt lat="45.83344" lon="3.56228">
        <ele>614</ele>
        <time>2021-02-14T14:05:34Z</time>
      </trkpt>
      <trkpt lat="45.83353" lon="3.56232">
        <ele>614</ele>
        <time>2021-02-14T14:05:40Z</time>
      </trkpt>
      <trkpt lat="45.83362" lon="3.56234">
        <ele>614</ele>
        <time>2021-02-14T14:05:46Z</time>
      </trkpt>
      <trkpt lat="45.8337" lon="3.56231">
        <ele>613</ele>
        <time>2021-02-14T14:05:53Z</time>
      </trkpt>
      <trkpt lat="45.83372" lon="3.56231">
        <ele>613</ele>
        <time>2021-02-14T14:05:55Z</time>
      </trkpt>
      <trkpt lat="45.83376" lon="3.5623">
        <ele>612</ele>
        <time>2021-02-14T14:05:57Z</time>
      </trkpt>
      <trkpt lat="45.83379" lon="3.5623">
        <ele>612</ele>
        <time>2021-02-14T14:05:59Z</time>
      </trkpt>
      <trkpt lat="45.83381" lon="3.56229">
        <ele>612</ele>
        <time>2021-02-14T14:06:01Z</time>
      </trkpt>
      <trkpt lat="45.83383" lon="3.5623">
        <ele>611</ele>
        <time>2021-02-14T14:06:03Z</time>
      </trkpt>
      <trkpt lat="45.83386" lon="3.56229">
        <ele>611</ele>
        <time>2021-02-14T14:06:05Z</time>
      </trkpt>
      <trkpt lat="45.83388" lon="3.56228">
        <ele>611</ele>
        <time>2021-02-14T14:06:07Z</time>
      </trkpt>
      <trkpt lat="45.8339" lon="3.56227">
        <ele>611</ele>
        <time>2021-02-14T14:06:09Z</time>
      </trkpt>
      <trkpt lat="45.83396" lon="3.56225">
        <ele>610</ele>
        <time>2021-02-14T14:06:12Z</time>
      </trkpt>
      <trkpt lat="45.83399" lon="3.56226">
        <ele>610</ele>
        <time>2021-02-14T14:06:14Z</time>
      </trkpt>
      <trkpt lat="45.83406" lon="3.56227">
        <ele>610</ele>
        <time>2021-02-14T14:06:18Z</time>
      </trkpt>
      <trkpt lat="45.83408" lon="3.56227">
        <ele>610</ele>
        <time>2021-02-14T14:06:20Z</time>
      </trkpt>
      <trkpt lat="45.8341" lon="3.56228">
        <ele>610</ele>
        <time>2021-02-14T14:06:22Z</time>
      </trkpt>
      <trkpt lat="45.83421" lon="3.56226">
        <ele>609</ele>
        <time>2021-02-14T14:06:29Z</time>
      </trkpt>
      <trkpt lat="45.8343" lon="3.56224">
        <ele>607</ele>
        <time>2021-02-14T14:06:36Z</time>
      </trkpt>
      <trkpt lat="45.83438" lon="3.56218">
        <ele>605</ele>
        <time>2021-02-14T14:06:43Z</time>
      </trkpt>
      <trkpt lat="45.83442" lon="3.56215">
        <ele>604</ele>
        <time>2021-02-14T14:06:46Z</time>
      </trkpt>
      <trkpt lat="45.83445" lon="3.56212">
        <ele>604</ele>
        <time>2021-02-14T14:06:49Z</time>
      </trkpt>
      <trkpt lat="45.83448" lon="3.56209">
        <ele>603</ele>
        <time>2021-02-14T14:06:51Z</time>
      </trkpt>
      <trkpt lat="45.83451" lon="3.56206">
        <ele>602</ele>
        <time>2021-02-14T14:06:53Z</time>
      </trkpt>
      <trkpt lat="45.83452" lon="3.56205">
        <ele>602</ele>
        <time>2021-02-14T14:06:54Z</time>
      </trkpt>
      <trkpt lat="45.83454" lon="3.56202">
        <ele>601</ele>
        <time>2021-02-14T14:06:56Z</time>
      </trkpt>
      <trkpt lat="45.83461" lon="3.5619">
        <ele>599</ele>
        <time>2021-02-14T14:07:05Z</time>
      </trkpt>
      <trkpt lat="45.83463" lon="3.56187">
        <ele>599</ele>
        <time>2021-02-14T14:07:07Z</time>
      </trkpt>
      <trkpt lat="45.83465" lon="3.5618">
        <ele>598</ele>
        <time>2021-02-14T14:07:12Z</time>
      </trkpt>
      <trkpt lat="45.83466" lon="3.56177">
        <ele>598</ele>
        <time>2021-02-14T14:07:14Z</time>
      </trkpt>
      <trkpt lat="45.83468" lon="3.56175">
        <ele>597</ele>
        <time>2021-02-14T14:07:15Z</time>
      </trkpt>
      <trkpt lat="45.83469" lon="3.56171">
        <ele>597</ele>
        <time>2021-02-14T14:07:17Z</time>
      </trkpt>
      <trkpt lat="45.8347" lon="3.56169">
        <ele>597</ele>
        <time>2021-02-14T14:07:19Z</time>
      </trkpt>
      <trkpt lat="45.83472" lon="3.56167">
        <ele>597</ele>
        <time>2021-02-14T14:07:21Z</time>
      </trkpt>
      <trkpt lat="45.83474" lon="3.56164">
        <ele>596</ele>
        <time>2021-02-14T14:07:23Z</time>
      </trkpt>
      <trkpt lat="45.83475" lon="3.56162">
        <ele>596</ele>
        <time>2021-02-14T14:07:25Z</time>
      </trkpt>
      <trkpt lat="45.83476" lon="3.56159">
        <ele>596</ele>
        <time>2021-02-14T14:07:27Z</time>
      </trkpt>
      <trkpt lat="45.83477" lon="3.56157">
        <ele>596</ele>
        <time>2021-02-14T14:07:29Z</time>
      </trkpt>
      <trkpt lat="45.83478" lon="3.56154">
        <ele>596</ele>
        <time>2021-02-14T14:07:31Z</time>
      </trkpt>
      <trkpt lat="45.83479" lon="3.56152">
        <ele>596</ele>
        <time>2021-02-14T14:07:33Z</time>
      </trkpt>
      <trkpt lat="45.8348" lon="3.5615">
        <ele>596</ele>
        <time>2021-02-14T14:07:35Z</time>
      </trkpt>
      <trkpt lat="45.83482" lon="3.56147">
        <ele>596</ele>
        <time>2021-02-14T14:07:38Z</time>
      </trkpt>
      <trkpt lat="45.83482" lon="3.56145">
        <ele>596</ele>
        <time>2021-02-14T14:07:40Z</time>
      </trkpt>
      <trkpt lat="45.83483" lon="3.56142">
        <ele>596</ele>
        <time>2021-02-14T14:07:42Z</time>
      </trkpt>
      <trkpt lat="45.83484" lon="3.56139">
        <ele>596</ele>
        <time>2021-02-14T14:07:44Z</time>
      </trkpt>
      <trkpt lat="45.83485" lon="3.56137">
        <ele>596</ele>
        <time>2021-02-14T14:07:46Z</time>
      </trkpt>
      <trkpt lat="45.83487" lon="3.56134">
        <ele>595</ele>
        <time>2021-02-14T14:07:48Z</time>
      </trkpt>
      <trkpt lat="45.83488" lon="3.56131">
        <ele>595</ele>
        <time>2021-02-14T14:07:50Z</time>
      </trkpt>
      <trkpt lat="45.83489" lon="3.56129">
        <ele>595</ele>
        <time>2021-02-14T14:07:52Z</time>
      </trkpt>
      <trkpt lat="45.83489" lon="3.56126">
        <ele>595</ele>
        <time>2021-02-14T14:07:54Z</time>
      </trkpt>
      <trkpt lat="45.8349" lon="3.56123">
        <ele>595</ele>
        <time>2021-02-14T14:07:56Z</time>
      </trkpt>
      <trkpt lat="45.8349" lon="3.5612">
        <ele>594</ele>
        <time>2021-02-14T14:07:59Z</time>
      </trkpt>
      <trkpt lat="45.8349" lon="3.56117">
        <ele>594</ele>
        <time>2021-02-14T14:08:03Z</time>
      </trkpt>
      <trkpt lat="45.8349" lon="3.56114">
        <ele>594</ele>
        <time>2021-02-14T14:08:05Z</time>
      </trkpt>
      <trkpt lat="45.8349" lon="3.5611">
        <ele>593</ele>
        <time>2021-02-14T14:08:07Z</time>
      </trkpt>
      <trkpt lat="45.83491" lon="3.56107">
        <ele>593</ele>
        <time>2021-02-14T14:08:09Z</time>
      </trkpt>
      <trkpt lat="45.83492" lon="3.56104">
        <ele>593</ele>
        <time>2021-02-14T14:08:11Z</time>
      </trkpt>
      <trkpt lat="45.83493" lon="3.56102">
        <ele>593</ele>
        <time>2021-02-14T14:08:13Z</time>
      </trkpt>
      <trkpt lat="45.83495" lon="3.56099">
        <ele>593</ele>
        <time>2021-02-14T14:08:15Z</time>
      </trkpt>
      <trkpt lat="45.83496" lon="3.56095">
        <ele>592</ele>
        <time>2021-02-14T14:08:17Z</time>
      </trkpt>
      <trkpt lat="45.83498" lon="3.56093">
        <ele>592</ele>
        <time>2021-02-14T14:08:19Z</time>
      </trkpt>
      <trkpt lat="45.83498" lon="3.5609">
        <ele>592</ele>
        <time>2021-02-14T14:08:21Z</time>
      </trkpt>
      <trkpt lat="45.83499" lon="3.56087">
        <ele>592</ele>
        <time>2021-02-14T14:08:23Z</time>
      </trkpt>
      <trkpt lat="45.83499" lon="3.56084">
        <ele>591</ele>
        <time>2021-02-14T14:08:25Z</time>
      </trkpt>
      <trkpt lat="45.835" lon="3.56081">
        <ele>591</ele>
        <time>2021-02-14T14:08:27Z</time>
      </trkpt>
      <trkpt lat="45.83502" lon="3.56079">
        <ele>591</ele>
        <time>2021-02-14T14:08:29Z</time>
      </trkpt>
      <trkpt lat="45.83504" lon="3.56073">
        <ele>591</ele>
        <time>2021-02-14T14:08:33Z</time>
      </trkpt>
      <trkpt lat="45.83504" lon="3.56069">
        <ele>590</ele>
        <time>2021-02-14T14:08:35Z</time>
      </trkpt>
      <trkpt lat="45.83506" lon="3.56065">
        <ele>590</ele>
        <time>2021-02-14T14:08:37Z</time>
      </trkpt>
      <trkpt lat="45.83508" lon="3.56057">
        <ele>589</ele>
        <time>2021-02-14T14:08:40Z</time>
      </trkpt>
      <trkpt lat="45.83514" lon="3.56045">
        <ele>588</ele>
        <time>2021-02-14T14:08:48Z</time>
      </trkpt>
      <trkpt lat="45.83518" lon="3.56034">
        <ele>586</ele>
        <time>2021-02-14T14:08:55Z</time>
      </trkpt>
      <trkpt lat="45.83525" lon="3.56026">
        <ele>586</ele>
        <time>2021-02-14T14:09:02Z</time>
      </trkpt>
      <trkpt lat="45.83534" lon="3.56019">
        <ele>586</ele>
        <time>2021-02-14T14:09:09Z</time>
      </trkpt>
      <trkpt lat="45.83539" lon="3.56014">
        <ele>587</ele>
        <time>2021-02-14T14:09:15Z</time>
      </trkpt>
      <trkpt lat="45.83538" lon="3.56011">
        <ele>586</ele>
        <time>2021-02-14T14:09:18Z</time>
      </trkpt>
      <trkpt lat="45.83536" lon="3.56009">
        <ele>586</ele>
        <time>2021-02-14T14:09:20Z</time>
      </trkpt>
      <trkpt lat="45.83535" lon="3.56008">
        <ele>585</ele>
        <time>2021-02-14T14:09:22Z</time>
      </trkpt>
      <trkpt lat="45.83533" lon="3.56006">
        <ele>585</ele>
        <time>2021-02-14T14:09:24Z</time>
      </trkpt>
      <trkpt lat="45.83531" lon="3.56004">
        <ele>584</ele>
        <time>2021-02-14T14:09:26Z</time>
      </trkpt>
      <trkpt lat="45.83529" lon="3.56003">
        <ele>584</ele>
        <time>2021-02-14T14:09:28Z</time>
      </trkpt>
      <trkpt lat="45.83527" lon="3.56001">
        <ele>583</ele>
        <time>2021-02-14T14:09:30Z</time>
      </trkpt>
      <trkpt lat="45.83525" lon="3.55998">
        <ele>583</ele>
        <time>2021-02-14T14:09:32Z</time>
      </trkpt>
      <trkpt lat="45.83523" lon="3.55997">
        <ele>582</ele>
        <time>2021-02-14T14:09:34Z</time>
      </trkpt>
      <trkpt lat="45.83521" lon="3.55996">
        <ele>582</ele>
        <time>2021-02-14T14:09:36Z</time>
      </trkpt>
      <trkpt lat="45.83518" lon="3.55995">
        <ele>581</ele>
        <time>2021-02-14T14:09:38Z</time>
      </trkpt>
      <trkpt lat="45.83515" lon="3.55994">
        <ele>581</ele>
        <time>2021-02-14T14:09:40Z</time>
      </trkpt>
      <trkpt lat="45.83513" lon="3.55992">
        <ele>580</ele>
        <time>2021-02-14T14:09:42Z</time>
      </trkpt>
      <trkpt lat="45.83514" lon="3.55988">
        <ele>580</ele>
        <time>2021-02-14T14:09:51Z</time>
      </trkpt>
      <trkpt lat="45.83516" lon="3.55986">
        <ele>580</ele>
        <time>2021-02-14T14:09:54Z</time>
      </trkpt>
      <trkpt lat="45.83516" lon="3.55983">
        <ele>580</ele>
        <time>2021-02-14T14:09:58Z</time>
      </trkpt>
      <trkpt lat="45.83513" lon="3.55985">
        <ele>580</ele>
        <time>2021-02-14T14:10:02Z</time>
      </trkpt>
      <trkpt lat="45.83515" lon="3.55987">
        <ele>580</ele>
        <time>2021-02-14T14:10:07Z</time>
      </trkpt>
      <trkpt lat="45.83515" lon="3.55989">
        <ele>580</ele>
        <time>2021-02-14T14:10:10Z</time>
      </trkpt>
      <trkpt lat="45.83513" lon="3.55992">
        <ele>580</ele>
        <time>2021-02-14T14:10:20Z</time>
      </trkpt>
      <trkpt lat="45.83513" lon="3.55995">
        <ele>581</ele>
        <time>2021-02-14T14:10:28Z</time>
      </trkpt>
      <trkpt lat="45.83512" lon="3.55993">
        <ele>580</ele>
        <time>2021-02-14T14:10:39Z</time>
      </trkpt>
      <trkpt lat="45.8351" lon="3.55992">
        <ele>580</ele>
        <time>2021-02-14T14:10:41Z</time>
      </trkpt>
      <trkpt lat="45.83512" lon="3.55994">
        <ele>580</ele>
        <time>2021-02-14T14:10:48Z</time>
      </trkpt>
      <trkpt lat="45.83511" lon="3.55996">
        <ele>580</ele>
        <time>2021-02-14T14:10:55Z</time>
      </trkpt>
      <trkpt lat="45.83508" lon="3.55996">
        <ele>580</ele>
        <time>2021-02-14T14:10:57Z</time>
      </trkpt>
      <trkpt lat="45.83509" lon="3.56">
        <ele>580</ele>
        <time>2021-02-14T14:11:06Z</time>
      </trkpt>
      <trkpt lat="45.83507" lon="3.55999">
        <ele>580</ele>
        <time>2021-02-14T14:11:45Z</time>
      </trkpt>
      <trkpt lat="45.83506" lon="3.55997">
        <ele>579</ele>
        <time>2021-02-14T14:12:01Z</time>
      </trkpt>
      <trkpt lat="45.83504" lon="3.55998">
        <ele>579</ele>
        <time>2021-02-14T14:12:13Z</time>
      </trkpt>
      <trkpt lat="45.83496" lon="3.55999">
        <ele>578</ele>
        <time>2021-02-14T14:12:23Z</time>
      </trkpt>
      <trkpt lat="45.83493" lon="3.56">
        <ele>577</ele>
        <time>2021-02-14T14:12:26Z</time>
      </trkpt>
      <trkpt lat="45.83491" lon="3.56001">
        <ele>577</ele>
        <time>2021-02-14T14:12:30Z</time>
      </trkpt>
      <trkpt lat="45.8349" lon="3.56002">
        <ele>577</ele>
        <time>2021-02-14T14:12:33Z</time>
      </trkpt>
      <trkpt lat="45.83488" lon="3.56002">
        <ele>577</ele>
        <time>2021-02-14T14:12:36Z</time>
      </trkpt>
      <trkpt lat="45.83485" lon="3.56">
        <ele>576</ele>
        <time>2021-02-14T14:12:39Z</time>
      </trkpt>
      <trkpt lat="45.83484" lon="3.55994">
        <ele>575</ele>
        <time>2021-02-14T14:12:40Z</time>
      </trkpt>
      <trkpt lat="45.83482" lon="3.55991">
        <ele>574</ele>
        <time>2021-02-14T14:12:42Z</time>
      </trkpt>
      <trkpt lat="45.8348" lon="3.5599">
        <ele>574</ele>
        <time>2021-02-14T14:12:44Z</time>
      </trkpt>
      <trkpt lat="45.83477" lon="3.55989">
        <ele>573</ele>
        <time>2021-02-14T14:12:46Z</time>
      </trkpt>
      <trkpt lat="45.83475" lon="3.55989">
        <ele>573</ele>
        <time>2021-02-14T14:12:48Z</time>
      </trkpt>
      <trkpt lat="45.83473" lon="3.55988">
        <ele>572</ele>
        <time>2021-02-14T14:12:50Z</time>
      </trkpt>
      <trkpt lat="45.8347" lon="3.55989">
        <ele>572</ele>
        <time>2021-02-14T14:12:52Z</time>
      </trkpt>
      <trkpt lat="45.83467" lon="3.55988">
        <ele>571</ele>
        <time>2021-02-14T14:12:57Z</time>
      </trkpt>
      <trkpt lat="45.83464" lon="3.55987">
        <ele>571</ele>
        <time>2021-02-14T14:13:01Z</time>
      </trkpt>
      <trkpt lat="45.83463" lon="3.55974">
        <ele>569</ele>
        <time>2021-02-14T14:13:08Z</time>
      </trkpt>
      <trkpt lat="45.83455" lon="3.55966">
        <ele>566</ele>
        <time>2021-02-14T14:13:16Z</time>
      </trkpt>
      <trkpt lat="45.83446" lon="3.55958">
        <ele>564</ele>
        <time>2021-02-14T14:13:23Z</time>
      </trkpt>
      <trkpt lat="45.83441" lon="3.55954">
        <ele>563</ele>
        <time>2021-02-14T14:13:25Z</time>
      </trkpt>
      <trkpt lat="45.83432" lon="3.55957">
        <ele>562</ele>
        <time>2021-02-14T14:13:34Z</time>
      </trkpt>
      <trkpt lat="45.83427" lon="3.55956">
        <ele>561</ele>
        <time>2021-02-14T14:13:44Z</time>
      </trkpt>
      <trkpt lat="45.83417" lon="3.55953">
        <ele>560</ele>
        <time>2021-02-14T14:13:53Z</time>
      </trkpt>
      <trkpt lat="45.83411" lon="3.55942">
        <ele>558</ele>
        <time>2021-02-14T14:14:05Z</time>
      </trkpt>
      <trkpt lat="45.83408" lon="3.55929">
        <ele>557</ele>
        <time>2021-02-14T14:14:12Z</time>
      </trkpt>
      <trkpt lat="45.83406" lon="3.55927">
        <ele>557</ele>
        <time>2021-02-14T14:14:14Z</time>
      </trkpt>
      <trkpt lat="45.83398" lon="3.55921">
        <ele>555</ele>
        <time>2021-02-14T14:14:23Z</time>
      </trkpt>
      <trkpt lat="45.83391" lon="3.55927">
        <ele>555</ele>
        <time>2021-02-14T14:14:32Z</time>
      </trkpt>
      <trkpt lat="45.83388" lon="3.55928">
        <ele>555</ele>
        <time>2021-02-14T14:14:35Z</time>
      </trkpt>
      <trkpt lat="45.83386" lon="3.55927">
        <ele>554</ele>
        <time>2021-02-14T14:14:37Z</time>
      </trkpt>
      <trkpt lat="45.83384" lon="3.55927">
        <ele>554</ele>
        <time>2021-02-14T14:14:38Z</time>
      </trkpt>
      <trkpt lat="45.83382" lon="3.55926">
        <ele>554</ele>
        <time>2021-02-14T14:14:39Z</time>
      </trkpt>
      <trkpt lat="45.83379" lon="3.55928">
        <ele>554</ele>
        <time>2021-02-14T14:14:41Z</time>
      </trkpt>
      <trkpt lat="45.83377" lon="3.5593">
        <ele>554</ele>
        <time>2021-02-14T14:14:43Z</time>
      </trkpt>
      <trkpt lat="45.83375" lon="3.55931">
        <ele>554</ele>
        <time>2021-02-14T14:14:45Z</time>
      </trkpt>
      <trkpt lat="45.83373" lon="3.55932">
        <ele>554</ele>
        <time>2021-02-14T14:14:48Z</time>
      </trkpt>
      <trkpt lat="45.83365" lon="3.55925">
        <ele>553</ele>
        <time>2021-02-14T14:14:52Z</time>
      </trkpt>
      <trkpt lat="45.83361" lon="3.55919">
        <ele>552</ele>
        <time>2021-02-14T14:14:54Z</time>
      </trkpt>
      <trkpt lat="45.83359" lon="3.55917">
        <ele>551</ele>
        <time>2021-02-14T14:14:55Z</time>
      </trkpt>
      <trkpt lat="45.83358" lon="3.55916">
        <ele>551</ele>
        <time>2021-02-14T14:14:56Z</time>
      </trkpt>
      <trkpt lat="45.83355" lon="3.55912">
        <ele>550</ele>
        <time>2021-02-14T14:14:58Z</time>
      </trkpt>
      <trkpt lat="45.83354" lon="3.5591">
        <ele>550</ele>
        <time>2021-02-14T14:14:59Z</time>
      </trkpt>
      <trkpt lat="45.83352" lon="3.55907">
        <ele>549</ele>
        <time>2021-02-14T14:15:01Z</time>
      </trkpt>
      <trkpt lat="45.8335" lon="3.55904">
        <ele>549</ele>
        <time>2021-02-14T14:15:03Z</time>
      </trkpt>
      <trkpt lat="45.83348" lon="3.55902">
        <ele>548</ele>
        <time>2021-02-14T14:15:05Z</time>
      </trkpt>
      <trkpt lat="45.83346" lon="3.55899">
        <ele>547</ele>
        <time>2021-02-14T14:15:07Z</time>
      </trkpt>
      <trkpt lat="45.83345" lon="3.55895">
        <ele>547</ele>
        <time>2021-02-14T14:15:09Z</time>
      </trkpt>
      <trkpt lat="45.83343" lon="3.55893">
        <ele>546</ele>
        <time>2021-02-14T14:15:11Z</time>
      </trkpt>
      <trkpt lat="45.83342" lon="3.55891">
        <ele>546</ele>
        <time>2021-02-14T14:15:13Z</time>
      </trkpt>
      <trkpt lat="45.8334" lon="3.55888">
        <ele>545</ele>
        <time>2021-02-14T14:15:15Z</time>
      </trkpt>
      <trkpt lat="45.83338" lon="3.55886">
        <ele>544</ele>
        <time>2021-02-14T14:15:17Z</time>
      </trkpt>
      <trkpt lat="45.83336" lon="3.55883">
        <ele>544</ele>
        <time>2021-02-14T14:15:19Z</time>
      </trkpt>
      <trkpt lat="45.83337" lon="3.55877">
        <ele>542</ele>
        <time>2021-02-14T14:15:21Z</time>
      </trkpt>
      <trkpt lat="45.83337" lon="3.55875">
        <ele>542</ele>
        <time>2021-02-14T14:15:22Z</time>
      </trkpt>
      <trkpt lat="45.83337" lon="3.55872">
        <ele>542</ele>
        <time>2021-02-14T14:15:23Z</time>
      </trkpt>
      <trkpt lat="45.83338" lon="3.55867">
        <ele>541</ele>
        <time>2021-02-14T14:15:25Z</time>
      </trkpt>
      <trkpt lat="45.83339" lon="3.55863">
        <ele>540</ele>
        <time>2021-02-14T14:15:27Z</time>
      </trkpt>
      <trkpt lat="45.8334" lon="3.55859">
        <ele>539</ele>
        <time>2021-02-14T14:15:29Z</time>
      </trkpt>
      <trkpt lat="45.83341" lon="3.55854">
        <ele>539</ele>
        <time>2021-02-14T14:15:31Z</time>
      </trkpt>
      <trkpt lat="45.83342" lon="3.55846">
        <ele>538</ele>
        <time>2021-02-14T14:15:34Z</time>
      </trkpt>
      <trkpt lat="45.83343" lon="3.55843">
        <ele>538</ele>
        <time>2021-02-14T14:15:35Z</time>
      </trkpt>
      <trkpt lat="45.83344" lon="3.5584">
        <ele>537</ele>
        <time>2021-02-14T14:15:37Z</time>
      </trkpt>
      <trkpt lat="45.83344" lon="3.55837">
        <ele>537</ele>
        <time>2021-02-14T14:15:39Z</time>
      </trkpt>
      <trkpt lat="45.83345" lon="3.55835">
        <ele>537</ele>
        <time>2021-02-14T14:15:41Z</time>
      </trkpt>
      <trkpt lat="45.83346" lon="3.55832">
        <ele>537</ele>
        <time>2021-02-14T14:15:43Z</time>
      </trkpt>
      <trkpt lat="45.83347" lon="3.55829">
        <ele>537</ele>
        <time>2021-02-14T14:15:45Z</time>
      </trkpt>
      <trkpt lat="45.83348" lon="3.55825">
        <ele>536</ele>
        <time>2021-02-14T14:15:47Z</time>
      </trkpt>
      <trkpt lat="45.83347" lon="3.55821">
        <ele>536</ele>
        <time>2021-02-14T14:15:49Z</time>
      </trkpt>
      <trkpt lat="45.83347" lon="3.55818">
        <ele>536</ele>
        <time>2021-02-14T14:15:51Z</time>
      </trkpt>
      <trkpt lat="45.83346" lon="3.55814">
        <ele>535</ele>
        <time>2021-02-14T14:15:53Z</time>
      </trkpt>
      <trkpt lat="45.83346" lon="3.5581">
        <ele>535</ele>
        <time>2021-02-14T14:15:55Z</time>
      </trkpt>
      <trkpt lat="45.83345" lon="3.55807">
        <ele>534</ele>
        <time>2021-02-14T14:15:57Z</time>
      </trkpt>
      <trkpt lat="45.83343" lon="3.558">
        <ele>533</ele>
        <time>2021-02-14T14:16:02Z</time>
      </trkpt>
      <trkpt lat="45.83343" lon="3.55794">
        <ele>533</ele>
        <time>2021-02-14T14:16:04Z</time>
      </trkpt>
      <trkpt lat="45.83343" lon="3.55792">
        <ele>533</ele>
        <time>2021-02-14T14:16:05Z</time>
      </trkpt>
      <trkpt lat="45.83343" lon="3.55788">
        <ele>532</ele>
        <time>2021-02-14T14:16:07Z</time>
      </trkpt>
      <trkpt lat="45.83341" lon="3.55785">
        <ele>532</ele>
        <time>2021-02-14T14:16:11Z</time>
      </trkpt>
      <trkpt lat="45.83339" lon="3.55782">
        <ele>531</ele>
        <time>2021-02-14T14:16:13Z</time>
      </trkpt>
      <trkpt lat="45.83338" lon="3.55778">
        <ele>531</ele>
        <time>2021-02-14T14:16:15Z</time>
      </trkpt>
      <trkpt lat="45.83337" lon="3.55776">
        <ele>530</ele>
        <time>2021-02-14T14:16:17Z</time>
      </trkpt>
      <trkpt lat="45.83336" lon="3.55772">
        <ele>530</ele>
        <time>2021-02-14T14:16:19Z</time>
      </trkpt>
      <trkpt lat="45.83337" lon="3.5577">
        <ele>529</ele>
        <time>2021-02-14T14:16:20Z</time>
      </trkpt>
      <trkpt lat="45.83337" lon="3.55765">
        <ele>529</ele>
        <time>2021-02-14T14:16:22Z</time>
      </trkpt>
      <trkpt lat="45.83337" lon="3.55762">
        <ele>528</ele>
        <time>2021-02-14T14:16:24Z</time>
      </trkpt>
      <trkpt lat="45.83336" lon="3.55759">
        <ele>528</ele>
        <time>2021-02-14T14:16:26Z</time>
      </trkpt>
      <trkpt lat="45.83335" lon="3.55755">
        <ele>527</ele>
        <time>2021-02-14T14:16:29Z</time>
      </trkpt>
      <trkpt lat="45.83334" lon="3.55749">
        <ele>526</ele>
        <time>2021-02-14T14:16:32Z</time>
      </trkpt>
      <trkpt lat="45.83332" lon="3.55738">
        <ele>525</ele>
        <time>2021-02-14T14:16:38Z</time>
      </trkpt>
      <trkpt lat="45.83331" lon="3.55734">
        <ele>524</ele>
        <time>2021-02-14T14:16:41Z</time>
      </trkpt>
      <trkpt lat="45.8333" lon="3.55731">
        <ele>524</ele>
        <time>2021-02-14T14:16:43Z</time>
      </trkpt>
      <trkpt lat="45.83328" lon="3.55729">
        <ele>523</ele>
        <time>2021-02-14T14:16:45Z</time>
      </trkpt>
      <trkpt lat="45.83326" lon="3.55725">
        <ele>522</ele>
        <time>2021-02-14T14:16:48Z</time>
      </trkpt>
      <trkpt lat="45.83325" lon="3.5572">
        <ele>522</ele>
        <time>2021-02-14T14:16:51Z</time>
      </trkpt>
      <trkpt lat="45.83326" lon="3.55705">
        <ele>520</ele>
        <time>2021-02-14T14:16:57Z</time>
      </trkpt>
      <trkpt lat="45.83326" lon="3.55701">
        <ele>520</ele>
        <time>2021-02-14T14:16:59Z</time>
      </trkpt>
      <trkpt lat="45.83327" lon="3.55698">
        <ele>520</ele>
        <time>2021-02-14T14:17:01Z</time>
      </trkpt>
      <trkpt lat="45.83327" lon="3.55694">
        <ele>519</ele>
        <time>2021-02-14T14:17:03Z</time>
      </trkpt>
      <trkpt lat="45.83326" lon="3.55692">
        <ele>519</ele>
        <time>2021-02-14T14:17:04Z</time>
      </trkpt>
      <trkpt lat="45.83326" lon="3.55688">
        <ele>518</ele>
        <time>2021-02-14T14:17:06Z</time>
      </trkpt>
      <trkpt lat="45.83326" lon="3.55684">
        <ele>518</ele>
        <time>2021-02-14T14:17:08Z</time>
      </trkpt>
      <trkpt lat="45.83327" lon="3.5568">
        <ele>518</ele>
        <time>2021-02-14T14:17:10Z</time>
      </trkpt>
      <trkpt lat="45.83327" lon="3.55677">
        <ele>517</ele>
        <time>2021-02-14T14:17:12Z</time>
      </trkpt>
      <trkpt lat="45.83327" lon="3.55673">
        <ele>517</ele>
        <time>2021-02-14T14:17:14Z</time>
      </trkpt>
      <trkpt lat="45.83328" lon="3.55669">
        <ele>517</ele>
        <time>2021-02-14T14:17:16Z</time>
      </trkpt>
      <trkpt lat="45.83328" lon="3.55666">
        <ele>516</ele>
        <time>2021-02-14T14:17:18Z</time>
      </trkpt>
      <trkpt lat="45.83328" lon="3.55662">
        <ele>516</ele>
        <time>2021-02-14T14:17:20Z</time>
      </trkpt>
      <trkpt lat="45.83328" lon="3.55659">
        <ele>515</ele>
        <time>2021-02-14T14:17:23Z</time>
      </trkpt>
      <trkpt lat="45.83328" lon="3.55656">
        <ele>515</ele>
        <time>2021-02-14T14:17:25Z</time>
      </trkpt>
      <trkpt lat="45.83328" lon="3.55653">
        <ele>514</ele>
        <time>2021-02-14T14:17:27Z</time>
      </trkpt>
      <trkpt lat="45.83328" lon="3.5565">
        <ele>514</ele>
        <time>2021-02-14T14:17:29Z</time>
      </trkpt>
      <trkpt lat="45.83328" lon="3.55646">
        <ele>514</ele>
        <time>2021-02-14T14:17:31Z</time>
      </trkpt>
      <trkpt lat="45.83328" lon="3.55644">
        <ele>513</ele>
        <time>2021-02-14T14:17:33Z</time>
      </trkpt>
      <trkpt lat="45.83329" lon="3.5564">
        <ele>513</ele>
        <time>2021-02-14T14:17:35Z</time>
      </trkpt>
      <trkpt lat="45.83329" lon="3.55636">
        <ele>512</ele>
        <time>2021-02-14T14:17:37Z</time>
      </trkpt>
      <trkpt lat="45.8333" lon="3.55633">
        <ele>512</ele>
        <time>2021-02-14T14:17:38Z</time>
      </trkpt>
      <trkpt lat="45.83331" lon="3.55629">
        <ele>512</ele>
        <time>2021-02-14T14:17:40Z</time>
      </trkpt>
      <trkpt lat="45.83333" lon="3.5562">
        <ele>511</ele>
        <time>2021-02-14T14:17:44Z</time>
      </trkpt>
      <trkpt lat="45.83335" lon="3.55616">
        <ele>511</ele>
        <time>2021-02-14T14:17:46Z</time>
      </trkpt>
      <trkpt lat="45.83337" lon="3.55614">
        <ele>511</ele>
        <time>2021-02-14T14:17:48Z</time>
      </trkpt>
      <trkpt lat="45.83344" lon="3.55602">
        <ele>510</ele>
        <time>2021-02-14T14:17:53Z</time>
      </trkpt>
      <trkpt lat="45.83347" lon="3.55595">
        <ele>510</ele>
        <time>2021-02-14T14:17:56Z</time>
      </trkpt>
      <trkpt lat="45.83348" lon="3.55593">
        <ele>509</ele>
        <time>2021-02-14T14:17:57Z</time>
      </trkpt>
      <trkpt lat="45.83349" lon="3.55591">
        <ele>509</ele>
        <time>2021-02-14T14:17:58Z</time>
      </trkpt>
      <trkpt lat="45.8335" lon="3.55587">
        <ele>509</ele>
        <time>2021-02-14T14:18:00Z</time>
      </trkpt>
      <trkpt lat="45.83355" lon="3.55583">
        <ele>508</ele>
        <time>2021-02-14T14:18:04Z</time>
      </trkpt>
      <trkpt lat="45.83357" lon="3.5558">
        <ele>508</ele>
        <time>2021-02-14T14:18:06Z</time>
      </trkpt>
      <trkpt lat="45.83358" lon="3.55578">
        <ele>507</ele>
        <time>2021-02-14T14:18:08Z</time>
      </trkpt>
      <trkpt lat="45.8336" lon="3.55575">
        <ele>507</ele>
        <time>2021-02-14T14:18:10Z</time>
      </trkpt>
      <trkpt lat="45.83361" lon="3.55572">
        <ele>506</ele>
        <time>2021-02-14T14:18:12Z</time>
      </trkpt>
      <trkpt lat="45.83362" lon="3.55568">
        <ele>505</ele>
        <time>2021-02-14T14:18:14Z</time>
      </trkpt>
      <trkpt lat="45.83364" lon="3.55564">
        <ele>504</ele>
        <time>2021-02-14T14:18:16Z</time>
      </trkpt>
      <trkpt lat="45.83364" lon="3.55561">
        <ele>503</ele>
        <time>2021-02-14T14:18:17Z</time>
      </trkpt>
      <trkpt lat="45.83366" lon="3.55557">
        <ele>502</ele>
        <time>2021-02-14T14:18:19Z</time>
      </trkpt>
      <trkpt lat="45.83366" lon="3.55554">
        <ele>501</ele>
        <time>2021-02-14T14:18:22Z</time>
      </trkpt>
      <trkpt lat="45.83367" lon="3.55551">
        <ele>501</ele>
        <time>2021-02-14T14:18:24Z</time>
      </trkpt>
      <trkpt lat="45.83375" lon="3.55541">
        <ele>500</ele>
        <time>2021-02-14T14:18:33Z</time>
      </trkpt>
      <trkpt lat="45.83377" lon="3.55539">
        <ele>500</ele>
        <time>2021-02-14T14:18:35Z</time>
      </trkpt>
      <trkpt lat="45.83378" lon="3.55537">
        <ele>500</ele>
        <time>2021-02-14T14:18:37Z</time>
      </trkpt>
      <trkpt lat="45.8338" lon="3.55533">
        <ele>499</ele>
        <time>2021-02-14T14:18:39Z</time>
      </trkpt>
      <trkpt lat="45.83382" lon="3.55531">
        <ele>499</ele>
        <time>2021-02-14T14:18:41Z</time>
      </trkpt>
      <trkpt lat="45.83384" lon="3.55528">
        <ele>499</ele>
        <time>2021-02-14T14:18:43Z</time>
      </trkpt>
      <trkpt lat="45.83388" lon="3.55525">
        <ele>499</ele>
        <time>2021-02-14T14:18:46Z</time>
      </trkpt>
      <trkpt lat="45.83391" lon="3.55523">
        <ele>500</ele>
        <time>2021-02-14T14:18:48Z</time>
      </trkpt>
      <trkpt lat="45.83393" lon="3.55522">
        <ele>500</ele>
        <time>2021-02-14T14:18:50Z</time>
      </trkpt>
      <trkpt lat="45.83396" lon="3.55521">
        <ele>500</ele>
        <time>2021-02-14T14:18:52Z</time>
      </trkpt>
      <trkpt lat="45.83397" lon="3.5552">
        <ele>500</ele>
        <time>2021-02-14T14:18:54Z</time>
      </trkpt>
      <trkpt lat="45.834" lon="3.55519">
        <ele>501</ele>
        <time>2021-02-14T14:18:56Z</time>
      </trkpt>
      <trkpt lat="45.83403" lon="3.55518">
        <ele>501</ele>
        <time>2021-02-14T14:18:58Z</time>
      </trkpt>
      <trkpt lat="45.83405" lon="3.55517">
        <ele>501</ele>
        <time>2021-02-14T14:19:00Z</time>
      </trkpt>
      <trkpt lat="45.83414" lon="3.55511">
        <ele>502</ele>
        <time>2021-02-14T14:19:06Z</time>
      </trkpt>
      <trkpt lat="45.83422" lon="3.55502">
        <ele>501</ele>
        <time>2021-02-14T14:19:15Z</time>
      </trkpt>
      <trkpt lat="45.83428" lon="3.55491">
        <ele>499</ele>
        <time>2021-02-14T14:19:24Z</time>
      </trkpt>
      <trkpt lat="45.83435" lon="3.55481">
        <ele>497</ele>
        <time>2021-02-14T14:19:31Z</time>
      </trkpt>
      <trkpt lat="45.83441" lon="3.5547">
        <ele>494</ele>
        <time>2021-02-14T14:19:38Z</time>
      </trkpt>
      <trkpt lat="45.83447" lon="3.55461">
        <ele>494</ele>
        <time>2021-02-14T14:19:46Z</time>
      </trkpt>
      <trkpt lat="45.83449" lon="3.55459">
        <ele>494</ele>
        <time>2021-02-14T14:19:48Z</time>
      </trkpt>
      <trkpt lat="45.8345" lon="3.55456">
        <ele>494</ele>
        <time>2021-02-14T14:19:50Z</time>
      </trkpt>
      <trkpt lat="45.83452" lon="3.55454">
        <ele>494</ele>
        <time>2021-02-14T14:19:52Z</time>
      </trkpt>
      <trkpt lat="45.83455" lon="3.5545">
        <ele>494</ele>
        <time>2021-02-14T14:19:55Z</time>
      </trkpt>
      <trkpt lat="45.83457" lon="3.55448">
        <ele>494</ele>
        <time>2021-02-14T14:19:57Z</time>
      </trkpt>
      <trkpt lat="45.83458" lon="3.55445">
        <ele>494</ele>
        <time>2021-02-14T14:19:59Z</time>
      </trkpt>
      <trkpt lat="45.8346" lon="3.55443">
        <ele>493</ele>
        <time>2021-02-14T14:20:01Z</time>
      </trkpt>
      <trkpt lat="45.83462" lon="3.55441">
        <ele>494</ele>
        <time>2021-02-14T14:20:03Z</time>
      </trkpt>
      <trkpt lat="45.83464" lon="3.5544">
        <ele>494</ele>
        <time>2021-02-14T14:20:05Z</time>
      </trkpt>
      <trkpt lat="45.83466" lon="3.55437">
        <ele>494</ele>
        <time>2021-02-14T14:20:07Z</time>
      </trkpt>
      <trkpt lat="45.83469" lon="3.55435">
        <ele>494</ele>
        <time>2021-02-14T14:20:09Z</time>
      </trkpt>
      <trkpt lat="45.83471" lon="3.55434">
        <ele>494</ele>
        <time>2021-02-14T14:20:11Z</time>
      </trkpt>
      <trkpt lat="45.83472" lon="3.55433">
        <ele>495</ele>
        <time>2021-02-14T14:20:13Z</time>
      </trkpt>
      <trkpt lat="45.83476" lon="3.5543">
        <ele>495</ele>
        <time>2021-02-14T14:20:16Z</time>
      </trkpt>
      <trkpt lat="45.83481" lon="3.55427">
        <ele>495</ele>
        <time>2021-02-14T14:20:21Z</time>
      </trkpt>
      <trkpt lat="45.83485" lon="3.55424">
        <ele>495</ele>
        <time>2021-02-14T14:20:25Z</time>
      </trkpt>
      <trkpt lat="45.83487" lon="3.55422">
        <ele>496</ele>
        <time>2021-02-14T14:20:27Z</time>
      </trkpt>
      <trkpt lat="45.83489" lon="3.55419">
        <ele>495</ele>
        <time>2021-02-14T14:20:30Z</time>
      </trkpt>
      <trkpt lat="45.83493" lon="3.55415">
        <ele>495</ele>
        <time>2021-02-14T14:20:34Z</time>
      </trkpt>
      <trkpt lat="45.83495" lon="3.55413">
        <ele>495</ele>
        <time>2021-02-14T14:20:36Z</time>
      </trkpt>
      <trkpt lat="45.83496" lon="3.55411">
        <ele>495</ele>
        <time>2021-02-14T14:20:38Z</time>
      </trkpt>
      <trkpt lat="45.83498" lon="3.55408">
        <ele>494</ele>
        <time>2021-02-14T14:20:40Z</time>
      </trkpt>
      <trkpt lat="45.835" lon="3.55406">
        <ele>494</ele>
        <time>2021-02-14T14:20:42Z</time>
      </trkpt>
      <trkpt lat="45.83502" lon="3.55405">
        <ele>494</ele>
        <time>2021-02-14T14:20:44Z</time>
      </trkpt>
      <trkpt lat="45.83504" lon="3.55402">
        <ele>494</ele>
        <time>2021-02-14T14:20:47Z</time>
      </trkpt>
      <trkpt lat="45.83505" lon="3.554">
        <ele>494</ele>
        <time>2021-02-14T14:20:49Z</time>
      </trkpt>
      <trkpt lat="45.83512" lon="3.55389">
        <ele>491</ele>
        <time>2021-02-14T14:20:58Z</time>
      </trkpt>
      <trkpt lat="45.83518" lon="3.55385">
        <ele>490</ele>
        <time>2021-02-14T14:21:03Z</time>
      </trkpt>
      <trkpt lat="45.83527" lon="3.55383">
        <ele>490</ele>
        <time>2021-02-14T14:21:12Z</time>
      </trkpt>
      <trkpt lat="45.83535" lon="3.55378">
        <ele>488</ele>
        <time>2021-02-14T14:21:19Z</time>
      </trkpt>
      <trkpt lat="45.83545" lon="3.55373">
        <ele>487</ele>
        <time>2021-02-14T14:21:25Z</time>
      </trkpt>
      <trkpt lat="45.83554" lon="3.55368">
        <ele>485</ele>
        <time>2021-02-14T14:21:32Z</time>
      </trkpt>
      <trkpt lat="45.83563" lon="3.55364">
        <ele>483</ele>
        <time>2021-02-14T14:21:40Z</time>
      </trkpt>
      <trkpt lat="45.83573" lon="3.55362">
        <ele>482</ele>
        <time>2021-02-14T14:21:46Z</time>
      </trkpt>
      <trkpt lat="45.83584" lon="3.55362">
        <ele>481</ele>
        <time>2021-02-14T14:21:55Z</time>
      </trkpt>
      <trkpt lat="45.83588" lon="3.55362">
        <ele>480</ele>
        <time>2021-02-14T14:21:57Z</time>
      </trkpt>
      <trkpt lat="45.83591" lon="3.55362">
        <ele>480</ele>
        <time>2021-02-14T14:21:59Z</time>
      </trkpt>
      <trkpt lat="45.83593" lon="3.55362">
        <ele>479</ele>
        <time>2021-02-14T14:22:01Z</time>
      </trkpt>
      <trkpt lat="45.83596" lon="3.55361">
        <ele>479</ele>
        <time>2021-02-14T14:22:03Z</time>
      </trkpt>
      <trkpt lat="45.83606" lon="3.55361">
        <ele>477</ele>
        <time>2021-02-14T14:22:11Z</time>
      </trkpt>
      <trkpt lat="45.83611" lon="3.55361">
        <ele>477</ele>
        <time>2021-02-14T14:22:15Z</time>
      </trkpt>
      <trkpt lat="45.83619" lon="3.55363">
        <ele>476</ele>
        <time>2021-02-14T14:22:21Z</time>
      </trkpt>
      <trkpt lat="45.83621" lon="3.55364">
        <ele>475</ele>
        <time>2021-02-14T14:22:24Z</time>
      </trkpt>
      <trkpt lat="45.83624" lon="3.55365">
        <ele>475</ele>
        <time>2021-02-14T14:22:26Z</time>
      </trkpt>
      <trkpt lat="45.83627" lon="3.55367">
        <ele>475</ele>
        <time>2021-02-14T14:22:29Z</time>
      </trkpt>
      <trkpt lat="45.83629" lon="3.55368">
        <ele>475</ele>
        <time>2021-02-14T14:22:31Z</time>
      </trkpt>
      <trkpt lat="45.83632" lon="3.55371">
        <ele>475</ele>
        <time>2021-02-14T14:22:33Z</time>
      </trkpt>
      <trkpt lat="45.83634" lon="3.55374">
        <ele>475</ele>
        <time>2021-02-14T14:22:35Z</time>
      </trkpt>
      <trkpt lat="45.83637" lon="3.55375">
        <ele>474</ele>
        <time>2021-02-14T14:22:37Z</time>
      </trkpt>
      <trkpt lat="45.83639" lon="3.55376">
        <ele>474</ele>
        <time>2021-02-14T14:22:38Z</time>
      </trkpt>
      <trkpt lat="45.83641" lon="3.55378">
        <ele>474</ele>
        <time>2021-02-14T14:22:40Z</time>
      </trkpt>
      <trkpt lat="45.83644" lon="3.55379">
        <ele>474</ele>
        <time>2021-02-14T14:22:42Z</time>
      </trkpt>
      <trkpt lat="45.83645" lon="3.5538">
        <ele>474</ele>
        <time>2021-02-14T14:22:43Z</time>
      </trkpt>
      <trkpt lat="45.83647" lon="3.55382">
        <ele>474</ele>
        <time>2021-02-14T14:22:44Z</time>
      </trkpt>
      <trkpt lat="45.83649" lon="3.55383">
        <ele>474</ele>
        <time>2021-02-14T14:22:46Z</time>
      </trkpt>
      <trkpt lat="45.83651" lon="3.55385">
        <ele>474</ele>
        <time>2021-02-14T14:22:48Z</time>
      </trkpt>
      <trkpt lat="45.83654" lon="3.5539">
        <ele>474</ele>
        <time>2021-02-14T14:22:51Z</time>
      </trkpt>
      <trkpt lat="45.83656" lon="3.55391">
        <ele>474</ele>
        <time>2021-02-14T14:22:52Z</time>
      </trkpt>
      <trkpt lat="45.83657" lon="3.55392">
        <ele>474</ele>
        <time>2021-02-14T14:22:53Z</time>
      </trkpt>
      <trkpt lat="45.83666" lon="3.554">
        <ele>473</ele>
        <time>2021-02-14T14:22:59Z</time>
      </trkpt>
      <trkpt lat="45.83668" lon="3.55402">
        <ele>473</ele>
        <time>2021-02-14T14:23:01Z</time>
      </trkpt>
      <trkpt lat="45.8367" lon="3.55404">
        <ele>474</ele>
        <time>2021-02-14T14:23:02Z</time>
      </trkpt>
      <trkpt lat="45.83671" lon="3.55406">
        <ele>474</ele>
        <time>2021-02-14T14:23:04Z</time>
      </trkpt>
      <trkpt lat="45.83674" lon="3.5541">
        <ele>474</ele>
        <time>2021-02-14T14:23:07Z</time>
      </trkpt>
      <trkpt lat="45.83676" lon="3.55413">
        <ele>475</ele>
        <time>2021-02-14T14:23:09Z</time>
      </trkpt>
      <trkpt lat="45.83677" lon="3.55415">
        <ele>475</ele>
        <time>2021-02-14T14:23:10Z</time>
      </trkpt>
      <trkpt lat="45.83678" lon="3.55417">
        <ele>475</ele>
        <time>2021-02-14T14:23:11Z</time>
      </trkpt>
      <trkpt lat="45.83682" lon="3.55422">
        <ele>475</ele>
        <time>2021-02-14T14:23:14Z</time>
      </trkpt>
      <trkpt lat="45.83684" lon="3.55426">
        <ele>476</ele>
        <time>2021-02-14T14:23:16Z</time>
      </trkpt>
      <trkpt lat="45.83687" lon="3.55429">
        <ele>476</ele>
        <time>2021-02-14T14:23:18Z</time>
      </trkpt>
      <trkpt lat="45.8369" lon="3.55431">
        <ele>476</ele>
        <time>2021-02-14T14:23:20Z</time>
      </trkpt>
      <trkpt lat="45.83692" lon="3.55434">
        <ele>476</ele>
        <time>2021-02-14T14:23:22Z</time>
      </trkpt>
      <trkpt lat="45.83693" lon="3.55436">
        <ele>476</ele>
        <time>2021-02-14T14:23:24Z</time>
      </trkpt>
      <trkpt lat="45.83701" lon="3.55444">
        <ele>477</ele>
        <time>2021-02-14T14:23:31Z</time>
      </trkpt>
      <trkpt lat="45.83704" lon="3.55438">
        <ele>477</ele>
        <time>2021-02-14T14:23:50Z</time>
      </trkpt>
      <trkpt lat="45.83705" lon="3.55436">
        <ele>476</ele>
        <time>2021-02-14T14:23:52Z</time>
      </trkpt>
      <trkpt lat="45.83707" lon="3.55435">
        <ele>476</ele>
        <time>2021-02-14T14:23:54Z</time>
      </trkpt>
      <trkpt lat="45.83709" lon="3.55434">
        <ele>476</ele>
        <time>2021-02-14T14:23:56Z</time>
      </trkpt>
      <trkpt lat="45.83711" lon="3.55432">
        <ele>476</ele>
        <time>2021-02-14T14:23:58Z</time>
      </trkpt>
      <trkpt lat="45.83714" lon="3.55426">
        <ele>476</ele>
        <time>2021-02-14T14:24:03Z</time>
      </trkpt>
      <trkpt lat="45.83719" lon="3.55419">
        <ele>476</ele>
        <time>2021-02-14T14:24:08Z</time>
      </trkpt>
      <trkpt lat="45.83721" lon="3.55415">
        <ele>475</ele>
        <time>2021-02-14T14:24:10Z</time>
      </trkpt>
      <trkpt lat="45.83722" lon="3.55414">
        <ele>475</ele>
        <time>2021-02-14T14:24:12Z</time>
      </trkpt>
      <trkpt lat="45.83723" lon="3.55411">
        <ele>475</ele>
        <time>2021-02-14T14:24:14Z</time>
      </trkpt>
      <trkpt lat="45.83724" lon="3.55409">
        <ele>474</ele>
        <time>2021-02-14T14:24:16Z</time>
      </trkpt>
      <trkpt lat="45.83726" lon="3.55406">
        <ele>474</ele>
        <time>2021-02-14T14:24:18Z</time>
      </trkpt>
      <trkpt lat="45.83727" lon="3.55403">
        <ele>474</ele>
        <time>2021-02-14T14:24:20Z</time>
      </trkpt>
      <trkpt lat="45.83728" lon="3.554">
        <ele>473</ele>
        <time>2021-02-14T14:24:22Z</time>
      </trkpt>
      <trkpt lat="45.8373" lon="3.55397">
        <ele>473</ele>
        <time>2021-02-14T14:24:24Z</time>
      </trkpt>
      <trkpt lat="45.83731" lon="3.55393">
        <ele>473</ele>
        <time>2021-02-14T14:24:26Z</time>
      </trkpt>
      <trkpt lat="45.83732" lon="3.5539">
        <ele>472</ele>
        <time>2021-02-14T14:24:28Z</time>
      </trkpt>
      <trkpt lat="45.83733" lon="3.55387">
        <ele>472</ele>
        <time>2021-02-14T14:24:30Z</time>
      </trkpt>
      <trkpt lat="45.83733" lon="3.55383">
        <ele>471</ele>
        <time>2021-02-14T14:24:32Z</time>
      </trkpt>
      <trkpt lat="45.83734" lon="3.5538">
        <ele>470</ele>
        <time>2021-02-14T14:24:34Z</time>
      </trkpt>
      <trkpt lat="45.83735" lon="3.55376">
        <ele>469</ele>
        <time>2021-02-14T14:24:36Z</time>
      </trkpt>
      <trkpt lat="45.83736" lon="3.55372">
        <ele>469</ele>
        <time>2021-02-14T14:24:38Z</time>
      </trkpt>
      <trkpt lat="45.83737" lon="3.55368">
        <ele>468</ele>
        <time>2021-02-14T14:24:40Z</time>
      </trkpt>
      <trkpt lat="45.83738" lon="3.55364">
        <ele>467</ele>
        <time>2021-02-14T14:24:42Z</time>
      </trkpt>
      <trkpt lat="45.8374" lon="3.5536">
        <ele>466</ele>
        <time>2021-02-14T14:24:44Z</time>
      </trkpt>
      <trkpt lat="45.83742" lon="3.55357">
        <ele>465</ele>
        <time>2021-02-14T14:24:46Z</time>
      </trkpt>
      <trkpt lat="45.83743" lon="3.55353">
        <ele>465</ele>
        <time>2021-02-14T14:24:48Z</time>
      </trkpt>
      <trkpt lat="45.83744" lon="3.5535">
        <ele>464</ele>
        <time>2021-02-14T14:24:50Z</time>
      </trkpt>
      <trkpt lat="45.83746" lon="3.55348">
        <ele>463</ele>
        <time>2021-02-14T14:24:52Z</time>
      </trkpt>
      <trkpt lat="45.83747" lon="3.55345">
        <ele>463</ele>
        <time>2021-02-14T14:24:54Z</time>
      </trkpt>
      <trkpt lat="45.83749" lon="3.55342">
        <ele>462</ele>
        <time>2021-02-14T14:24:56Z</time>
      </trkpt>
      <trkpt lat="45.8375" lon="3.55338">
        <ele>462</ele>
        <time>2021-02-14T14:24:58Z</time>
      </trkpt>
      <trkpt lat="45.83751" lon="3.55335">
        <ele>461</ele>
        <time>2021-02-14T14:25:00Z</time>
      </trkpt>
      <trkpt lat="45.83753" lon="3.55332">
        <ele>461</ele>
        <time>2021-02-14T14:25:02Z</time>
      </trkpt>
      <trkpt lat="45.83754" lon="3.55328">
        <ele>460</ele>
        <time>2021-02-14T14:25:04Z</time>
      </trkpt>
      <trkpt lat="45.83756" lon="3.55325">
        <ele>460</ele>
        <time>2021-02-14T14:25:06Z</time>
      </trkpt>
      <trkpt lat="45.83758" lon="3.55322">
        <ele>460</ele>
        <time>2021-02-14T14:25:08Z</time>
      </trkpt>
      <trkpt lat="45.83759" lon="3.55319">
        <ele>459</ele>
        <time>2021-02-14T14:25:10Z</time>
      </trkpt>
      <trkpt lat="45.83761" lon="3.55317">
        <ele>459</ele>
        <time>2021-02-14T14:25:12Z</time>
      </trkpt>
      <trkpt lat="45.83763" lon="3.55314">
        <ele>459</ele>
        <time>2021-02-14T14:25:14Z</time>
      </trkpt>
      <trkpt lat="45.83765" lon="3.55311">
        <ele>459</ele>
        <time>2021-02-14T14:25:16Z</time>
      </trkpt>
      <trkpt lat="45.83767" lon="3.55309">
        <ele>459</ele>
        <time>2021-02-14T14:25:18Z</time>
      </trkpt>
      <trkpt lat="45.83769" lon="3.55307">
        <ele>459</ele>
        <time>2021-02-14T14:25:20Z</time>
      </trkpt>
      <trkpt lat="45.83771" lon="3.55305">
        <ele>458</ele>
        <time>2021-02-14T14:25:22Z</time>
      </trkpt>
      <trkpt lat="45.83773" lon="3.55302">
        <ele>458</ele>
        <time>2021-02-14T14:25:24Z</time>
      </trkpt>
      <trkpt lat="45.83775" lon="3.55299">
        <ele>458</ele>
        <time>2021-02-14T14:25:26Z</time>
      </trkpt>
      <trkpt lat="45.83778" lon="3.55298">
        <ele>458</ele>
        <time>2021-02-14T14:25:28Z</time>
      </trkpt>
      <trkpt lat="45.8378" lon="3.55296">
        <ele>458</ele>
        <time>2021-02-14T14:25:30Z</time>
      </trkpt>
      <trkpt lat="45.83782" lon="3.55293">
        <ele>458</ele>
        <time>2021-02-14T14:25:32Z</time>
      </trkpt>
      <trkpt lat="45.83784" lon="3.55291">
        <ele>457</ele>
        <time>2021-02-14T14:25:34Z</time>
      </trkpt>
      <trkpt lat="45.83786" lon="3.55289">
        <ele>458</ele>
        <time>2021-02-14T14:25:36Z</time>
      </trkpt>
      <trkpt lat="45.83788" lon="3.55287">
        <ele>457</ele>
        <time>2021-02-14T14:25:38Z</time>
      </trkpt>
      <trkpt lat="45.8379" lon="3.55285">
        <ele>457</ele>
        <time>2021-02-14T14:25:40Z</time>
      </trkpt>
      <trkpt lat="45.83793" lon="3.55284">
        <ele>457</ele>
        <time>2021-02-14T14:25:42Z</time>
      </trkpt>
      <trkpt lat="45.83795" lon="3.55282">
        <ele>458</ele>
        <time>2021-02-14T14:25:44Z</time>
      </trkpt>
      <trkpt lat="45.83797" lon="3.55281">
        <ele>458</ele>
        <time>2021-02-14T14:25:46Z</time>
      </trkpt>
      <trkpt lat="45.83799" lon="3.5528">
        <ele>458</ele>
        <time>2021-02-14T14:25:48Z</time>
      </trkpt>
      <trkpt lat="45.83801" lon="3.55279">
        <ele>458</ele>
        <time>2021-02-14T14:25:50Z</time>
      </trkpt>
      <trkpt lat="45.83803" lon="3.55279">
        <ele>458</ele>
        <time>2021-02-14T14:25:52Z</time>
      </trkpt>
      <trkpt lat="45.83804" lon="3.55277">
        <ele>458</ele>
        <time>2021-02-14T14:25:54Z</time>
      </trkpt>
      <trkpt lat="45.83806" lon="3.55275">
        <ele>458</ele>
        <time>2021-02-14T14:25:58Z</time>
      </trkpt>
      <trkpt lat="45.83809" lon="3.55274">
        <ele>458</ele>
        <time>2021-02-14T14:26:00Z</time>
      </trkpt>
      <trkpt lat="45.83811" lon="3.55271">
        <ele>457</ele>
        <time>2021-02-14T14:26:02Z</time>
      </trkpt>
      <trkpt lat="45.83814" lon="3.55269">
        <ele>457</ele>
        <time>2021-02-14T14:26:04Z</time>
      </trkpt>
      <trkpt lat="45.83816" lon="3.55267">
        <ele>457</ele>
        <time>2021-02-14T14:26:07Z</time>
      </trkpt>
      <trkpt lat="45.83817" lon="3.55264">
        <ele>456</ele>
        <time>2021-02-14T14:26:09Z</time>
      </trkpt>
      <trkpt lat="45.83818" lon="3.55261">
        <ele>455</ele>
        <time>2021-02-14T14:26:11Z</time>
      </trkpt>
      <trkpt lat="45.8382" lon="3.55258">
        <ele>455</ele>
        <time>2021-02-14T14:26:13Z</time>
      </trkpt>
      <trkpt lat="45.83821" lon="3.55256">
        <ele>454</ele>
        <time>2021-02-14T14:26:15Z</time>
      </trkpt>
      <trkpt lat="45.83822" lon="3.55253">
        <ele>453</ele>
        <time>2021-02-14T14:26:17Z</time>
      </trkpt>
      <trkpt lat="45.83823" lon="3.5525">
        <ele>452</ele>
        <time>2021-02-14T14:26:19Z</time>
      </trkpt>
      <trkpt lat="45.83824" lon="3.55247">
        <ele>452</ele>
        <time>2021-02-14T14:26:21Z</time>
      </trkpt>
      <trkpt lat="45.83825" lon="3.55244">
        <ele>451</ele>
        <time>2021-02-14T14:26:23Z</time>
      </trkpt>
      <trkpt lat="45.83826" lon="3.55241">
        <ele>451</ele>
        <time>2021-02-14T14:26:25Z</time>
      </trkpt>
      <trkpt lat="45.83827" lon="3.55238">
        <ele>450</ele>
        <time>2021-02-14T14:26:27Z</time>
      </trkpt>
      <trkpt lat="45.83828" lon="3.55235">
        <ele>450</ele>
        <time>2021-02-14T14:26:29Z</time>
      </trkpt>
      <trkpt lat="45.83829" lon="3.55232">
        <ele>449</ele>
        <time>2021-02-14T14:26:31Z</time>
      </trkpt>
      <trkpt lat="45.8383" lon="3.55228">
        <ele>449</ele>
        <time>2021-02-14T14:26:33Z</time>
      </trkpt>
      <trkpt lat="45.83832" lon="3.55226">
        <ele>448</ele>
        <time>2021-02-14T14:26:35Z</time>
      </trkpt>
      <trkpt lat="45.83833" lon="3.55222">
        <ele>448</ele>
        <time>2021-02-14T14:26:37Z</time>
      </trkpt>
      <trkpt lat="45.83834" lon="3.55219">
        <ele>447</ele>
        <time>2021-02-14T14:26:39Z</time>
      </trkpt>
      <trkpt lat="45.83835" lon="3.55217">
        <ele>447</ele>
        <time>2021-02-14T14:26:41Z</time>
      </trkpt>
      <trkpt lat="45.83837" lon="3.55214">
        <ele>446</ele>
        <time>2021-02-14T14:26:43Z</time>
      </trkpt>
      <trkpt lat="45.83838" lon="3.55212">
        <ele>446</ele>
        <time>2021-02-14T14:26:45Z</time>
      </trkpt>
      <trkpt lat="45.83839" lon="3.55209">
        <ele>445</ele>
        <time>2021-02-14T14:26:47Z</time>
      </trkpt>
      <trkpt lat="45.8384" lon="3.55206">
        <ele>445</ele>
        <time>2021-02-14T14:26:49Z</time>
      </trkpt>
      <trkpt lat="45.83842" lon="3.55202">
        <ele>444</ele>
        <time>2021-02-14T14:26:51Z</time>
      </trkpt>
      <trkpt lat="45.83843" lon="3.552">
        <ele>443</ele>
        <time>2021-02-14T14:26:53Z</time>
      </trkpt>
      <trkpt lat="45.83844" lon="3.55196">
        <ele>442</ele>
        <time>2021-02-14T14:26:55Z</time>
      </trkpt>
      <trkpt lat="45.83845" lon="3.55194">
        <ele>442</ele>
        <time>2021-02-14T14:26:57Z</time>
      </trkpt>
      <trkpt lat="45.83845" lon="3.55191">
        <ele>441</ele>
        <time>2021-02-14T14:26:59Z</time>
      </trkpt>
      <trkpt lat="45.83846" lon="3.55188">
        <ele>440</ele>
        <time>2021-02-14T14:27:01Z</time>
      </trkpt>
      <trkpt lat="45.83849" lon="3.55187">
        <ele>440</ele>
        <time>2021-02-14T14:27:04Z</time>
      </trkpt>
      <trkpt lat="45.83851" lon="3.55187">
        <ele>439</ele>
        <time>2021-02-14T14:27:06Z</time>
      </trkpt>
      <trkpt lat="45.83854" lon="3.55189">
        <ele>439</ele>
        <time>2021-02-14T14:27:08Z</time>
      </trkpt>
      <trkpt lat="45.83856" lon="3.5519">
        <ele>439</ele>
        <time>2021-02-14T14:27:10Z</time>
      </trkpt>
      <trkpt lat="45.83858" lon="3.55191">
        <ele>439</ele>
        <time>2021-02-14T14:27:12Z</time>
      </trkpt>
      <trkpt lat="45.8386" lon="3.55194">
        <ele>439</ele>
        <time>2021-02-14T14:27:17Z</time>
      </trkpt>
      <trkpt lat="45.83861" lon="3.55195">
        <ele>439</ele>
        <time>2021-02-14T14:27:19Z</time>
      </trkpt>
      <trkpt lat="45.83864" lon="3.55196">
        <ele>439</ele>
        <time>2021-02-14T14:27:21Z</time>
      </trkpt>
      <trkpt lat="45.83866" lon="3.55197">
        <ele>439</ele>
        <time>2021-02-14T14:27:23Z</time>
      </trkpt>
      <trkpt lat="45.83869" lon="3.55198">
        <ele>438</ele>
        <time>2021-02-14T14:27:25Z</time>
      </trkpt>
      <trkpt lat="45.83871" lon="3.55199">
        <ele>438</ele>
        <time>2021-02-14T14:27:26Z</time>
      </trkpt>
      <trkpt lat="45.83873" lon="3.55199">
        <ele>438</ele>
        <time>2021-02-14T14:27:27Z</time>
      </trkpt>
      <trkpt lat="45.83876" lon="3.55201">
        <ele>438</ele>
        <time>2021-02-14T14:27:29Z</time>
      </trkpt>
      <trkpt lat="45.83878" lon="3.55202">
        <ele>438</ele>
        <time>2021-02-14T14:27:31Z</time>
      </trkpt>
      <trkpt lat="45.8388" lon="3.55204">
        <ele>438</ele>
        <time>2021-02-14T14:27:33Z</time>
      </trkpt>
      <trkpt lat="45.83883" lon="3.55207">
        <ele>438</ele>
        <time>2021-02-14T14:27:35Z</time>
      </trkpt>
      <trkpt lat="45.83885" lon="3.55208">
        <ele>438</ele>
        <time>2021-02-14T14:27:37Z</time>
      </trkpt>
      <trkpt lat="45.83887" lon="3.5521">
        <ele>439</ele>
        <time>2021-02-14T14:27:39Z</time>
      </trkpt>
      <trkpt lat="45.83889" lon="3.55212">
        <ele>439</ele>
        <time>2021-02-14T14:27:41Z</time>
      </trkpt>
      <trkpt lat="45.83892" lon="3.55214">
        <ele>439</ele>
        <time>2021-02-14T14:27:44Z</time>
      </trkpt>
      <trkpt lat="45.83894" lon="3.55215">
        <ele>438</ele>
        <time>2021-02-14T14:27:47Z</time>
      </trkpt>
      <trkpt lat="45.83896" lon="3.55216">
        <ele>438</ele>
        <time>2021-02-14T14:27:50Z</time>
      </trkpt>
      <trkpt lat="45.83898" lon="3.55219">
        <ele>439</ele>
        <time>2021-02-14T14:27:52Z</time>
      </trkpt>
      <trkpt lat="45.839" lon="3.55221">
        <ele>439</ele>
        <time>2021-02-14T14:27:54Z</time>
      </trkpt>
      <trkpt lat="45.83902" lon="3.55223">
        <ele>439</ele>
        <time>2021-02-14T14:27:56Z</time>
      </trkpt>
      <trkpt lat="45.83903" lon="3.55226">
        <ele>439</ele>
        <time>2021-02-14T14:28:01Z</time>
      </trkpt>
      <trkpt lat="45.83904" lon="3.55229">
        <ele>440</ele>
        <time>2021-02-14T14:28:03Z</time>
      </trkpt>
      <trkpt lat="45.83905" lon="3.55232">
        <ele>440</ele>
        <time>2021-02-14T14:28:05Z</time>
      </trkpt>
      <trkpt lat="45.83912" lon="3.55241">
        <ele>441</ele>
        <time>2021-02-14T14:28:11Z</time>
      </trkpt>
      <trkpt lat="45.83919" lon="3.55254">
        <ele>443</ele>
        <time>2021-02-14T14:28:15Z</time>
      </trkpt>
      <trkpt lat="45.83925" lon="3.55262">
        <ele>443</ele>
        <time>2021-02-14T14:28:20Z</time>
      </trkpt>
      <trkpt lat="45.83927" lon="3.55265">
        <ele>443</ele>
        <time>2021-02-14T14:28:24Z</time>
      </trkpt>
      <trkpt lat="45.83928" lon="3.55268">
        <ele>443</ele>
        <time>2021-02-14T14:28:26Z</time>
      </trkpt>
      <trkpt lat="45.8393" lon="3.55271">
        <ele>444</ele>
        <time>2021-02-14T14:28:28Z</time>
      </trkpt>
      <trkpt lat="45.83931" lon="3.55275">
        <ele>444</ele>
        <time>2021-02-14T14:28:30Z</time>
      </trkpt>
      <trkpt lat="45.83933" lon="3.55277">
        <ele>444</ele>
        <time>2021-02-14T14:28:32Z</time>
      </trkpt>
      <trkpt lat="45.83936" lon="3.55284">
        <ele>445</ele>
        <time>2021-02-14T14:28:36Z</time>
      </trkpt>
      <trkpt lat="45.83938" lon="3.55287">
        <ele>446</ele>
        <time>2021-02-14T14:28:38Z</time>
      </trkpt>
      <trkpt lat="45.8394" lon="3.55289">
        <ele>446</ele>
        <time>2021-02-14T14:28:39Z</time>
      </trkpt>
      <trkpt lat="45.83942" lon="3.55291">
        <ele>446</ele>
        <time>2021-02-14T14:28:40Z</time>
      </trkpt>
      <trkpt lat="45.83944" lon="3.55294">
        <ele>446</ele>
        <time>2021-02-14T14:28:42Z</time>
      </trkpt>
      <trkpt lat="45.83944" lon="3.55298">
        <ele>447</ele>
        <time>2021-02-14T14:28:44Z</time>
      </trkpt>
      <trkpt lat="45.83945" lon="3.55301">
        <ele>448</ele>
        <time>2021-02-14T14:28:46Z</time>
      </trkpt>
      <trkpt lat="45.83946" lon="3.55304">
        <ele>448</ele>
        <time>2021-02-14T14:28:48Z</time>
      </trkpt>
      <trkpt lat="45.83947" lon="3.55308">
        <ele>449</ele>
        <time>2021-02-14T14:28:52Z</time>
      </trkpt>
      <trkpt lat="45.83948" lon="3.55311">
        <ele>449</ele>
        <time>2021-02-14T14:28:54Z</time>
      </trkpt>
      <trkpt lat="45.83949" lon="3.55314">
        <ele>449</ele>
        <time>2021-02-14T14:28:56Z</time>
      </trkpt>
      <trkpt lat="45.8395" lon="3.55317">
        <ele>450</ele>
        <time>2021-02-14T14:28:58Z</time>
      </trkpt>
      <trkpt lat="45.83951" lon="3.5532">
        <ele>450</ele>
        <time>2021-02-14T14:29:00Z</time>
      </trkpt>
      <trkpt lat="45.83953" lon="3.55324">
        <ele>450</ele>
        <time>2021-02-14T14:29:02Z</time>
      </trkpt>
      <trkpt lat="45.83954" lon="3.55327">
        <ele>450</ele>
        <time>2021-02-14T14:29:04Z</time>
      </trkpt>
      <trkpt lat="45.83955" lon="3.5533">
        <ele>450</ele>
        <time>2021-02-14T14:29:06Z</time>
      </trkpt>
      <trkpt lat="45.83955" lon="3.55333">
        <ele>450</ele>
        <time>2021-02-14T14:29:07Z</time>
      </trkpt>
      <trkpt lat="45.83957" lon="3.55338">
        <ele>451</ele>
        <time>2021-02-14T14:29:09Z</time>
      </trkpt>
      <trkpt lat="45.83958" lon="3.5534">
        <ele>451</ele>
        <time>2021-02-14T14:29:10Z</time>
      </trkpt>
      <trkpt lat="45.83959" lon="3.55344">
        <ele>451</ele>
        <time>2021-02-14T14:29:12Z</time>
      </trkpt>
      <trkpt lat="45.83967" lon="3.55355">
        <ele>449</ele>
        <time>2021-02-14T14:29:18Z</time>
      </trkpt>
      <trkpt lat="45.83974" lon="3.55364">
        <ele>448</ele>
        <time>2021-02-14T14:29:22Z</time>
      </trkpt>
      <trkpt lat="45.83982" lon="3.55375">
        <ele>448</ele>
        <time>2021-02-14T14:29:27Z</time>
      </trkpt>
      <trkpt lat="45.83985" lon="3.55387">
        <ele>450</ele>
        <time>2021-02-14T14:29:34Z</time>
      </trkpt>
      <trkpt lat="45.83988" lon="3.554">
        <ele>451</ele>
        <time>2021-02-14T14:29:47Z</time>
      </trkpt>
      <trkpt lat="45.83997" lon="3.55409">
        <ele>450</ele>
        <time>2021-02-14T14:29:54Z</time>
      </trkpt>
      <trkpt lat="45.84004" lon="3.55417">
        <ele>451</ele>
        <time>2021-02-14T14:29:58Z</time>
      </trkpt>
      <trkpt lat="45.84009" lon="3.55429">
        <ele>452</ele>
        <time>2021-02-14T14:30:06Z</time>
      </trkpt>
      <trkpt lat="45.84015" lon="3.55442">
        <ele>452</ele>
        <time>2021-02-14T14:30:11Z</time>
      </trkpt>
      <trkpt lat="45.84018" lon="3.55455">
        <ele>453</ele>
        <time>2021-02-14T14:30:17Z</time>
      </trkpt>
      <trkpt lat="45.84012" lon="3.55444">
        <ele>452</ele>
        <time>2021-02-14T14:30:33Z</time>
      </trkpt>
      <trkpt lat="45.84005" lon="3.55435">
        <ele>451</ele>
        <time>2021-02-14T14:30:39Z</time>
      </trkpt>
      <trkpt lat="45.84" lon="3.55424">
        <ele>451</ele>
        <time>2021-02-14T14:30:50Z</time>
      </trkpt>
      <trkpt lat="45.83999" lon="3.55411">
        <ele>450</ele>
        <time>2021-02-14T14:31:00Z</time>
      </trkpt>
      <trkpt lat="45.84004" lon="3.55398">
        <ele>449</ele>
        <time>2021-02-14T14:31:07Z</time>
      </trkpt>
      <trkpt lat="45.84008" lon="3.55386">
        <ele>448</ele>
        <time>2021-02-14T14:31:12Z</time>
      </trkpt>
      <trkpt lat="45.84011" lon="3.55373">
        <ele>447</ele>
        <time>2021-02-14T14:31:18Z</time>
      </trkpt>
      <trkpt lat="45.84013" lon="3.55368">
        <ele>446</ele>
        <time>2021-02-14T14:31:21Z</time>
      </trkpt>
      <trkpt lat="45.84015" lon="3.5536">
        <ele>445</ele>
        <time>2021-02-14T14:31:25Z</time>
      </trkpt>
      <trkpt lat="45.84016" lon="3.55357">
        <ele>445</ele>
        <time>2021-02-14T14:31:27Z</time>
      </trkpt>
      <trkpt lat="45.84021" lon="3.55344">
        <ele>443</ele>
        <time>2021-02-14T14:31:33Z</time>
      </trkpt>
      <trkpt lat="45.84024" lon="3.55334">
        <ele>443</ele>
        <time>2021-02-14T14:31:37Z</time>
      </trkpt>
      <trkpt lat="45.84025" lon="3.55321">
        <ele>442</ele>
        <time>2021-02-14T14:31:44Z</time>
      </trkpt>
      <trkpt lat="45.84027" lon="3.55308">
        <ele>441</ele>
        <time>2021-02-14T14:31:50Z</time>
      </trkpt>
      <trkpt lat="45.84029" lon="3.55298">
        <ele>441</ele>
        <time>2021-02-14T14:31:57Z</time>
      </trkpt>
      <trkpt lat="45.84031" lon="3.55296">
        <ele>441</ele>
        <time>2021-02-14T14:31:59Z</time>
      </trkpt>
      <trkpt lat="45.84033" lon="3.55295">
        <ele>441</ele>
        <time>2021-02-14T14:32:01Z</time>
      </trkpt>
      <trkpt lat="45.84035" lon="3.55294">
        <ele>441</ele>
        <time>2021-02-14T14:32:04Z</time>
      </trkpt>
      <trkpt lat="45.84037" lon="3.55292">
        <ele>442</ele>
        <time>2021-02-14T14:32:08Z</time>
      </trkpt>
      <trkpt lat="45.84038" lon="3.55289">
        <ele>442</ele>
        <time>2021-02-14T14:32:10Z</time>
      </trkpt>
      <trkpt lat="45.8404" lon="3.55286">
        <ele>442</ele>
        <time>2021-02-14T14:32:12Z</time>
      </trkpt>
      <trkpt lat="45.84042" lon="3.55282">
        <ele>442</ele>
        <time>2021-02-14T14:32:14Z</time>
      </trkpt>
      <trkpt lat="45.84044" lon="3.55278">
        <ele>442</ele>
        <time>2021-02-14T14:32:16Z</time>
      </trkpt>
      <trkpt lat="45.84046" lon="3.55276">
        <ele>442</ele>
        <time>2021-02-14T14:32:18Z</time>
      </trkpt>
      <trkpt lat="45.84048" lon="3.55273">
        <ele>442</ele>
        <time>2021-02-14T14:32:20Z</time>
      </trkpt>
      <trkpt lat="45.8405" lon="3.55271">
        <ele>441</ele>
        <time>2021-02-14T14:32:22Z</time>
      </trkpt>
      <trkpt lat="45.84052" lon="3.55269">
        <ele>441</ele>
        <time>2021-02-14T14:32:24Z</time>
      </trkpt>
      <trkpt lat="45.84053" lon="3.55267">
        <ele>441</ele>
        <time>2021-02-14T14:32:26Z</time>
      </trkpt>
      <trkpt lat="45.84055" lon="3.55265">
        <ele>441</ele>
        <time>2021-02-14T14:32:29Z</time>
      </trkpt>
      <trkpt lat="45.84057" lon="3.55263">
        <ele>441</ele>
        <time>2021-02-14T14:32:32Z</time>
      </trkpt>
      <trkpt lat="45.84058" lon="3.55262">
        <ele>442</ele>
        <time>2021-02-14T14:32:35Z</time>
      </trkpt>
      <trkpt lat="45.8406" lon="3.5526">
        <ele>442</ele>
        <time>2021-02-14T14:32:38Z</time>
      </trkpt>
      <trkpt lat="45.84062" lon="3.55259">
        <ele>443</ele>
        <time>2021-02-14T14:32:41Z</time>
      </trkpt>
      <trkpt lat="45.84064" lon="3.55258">
        <ele>443</ele>
        <time>2021-02-14T14:32:45Z</time>
      </trkpt>
      <trkpt lat="45.84065" lon="3.55255">
        <ele>443</ele>
        <time>2021-02-14T14:32:49Z</time>
      </trkpt>
      <trkpt lat="45.84067" lon="3.55254">
        <ele>443</ele>
        <time>2021-02-14T14:32:53Z</time>
      </trkpt>
      <trkpt lat="45.84069" lon="3.55254">
        <ele>444</ele>
        <time>2021-02-14T14:32:55Z</time>
      </trkpt>
      <trkpt lat="45.84071" lon="3.55253">
        <ele>445</ele>
        <time>2021-02-14T14:32:59Z</time>
      </trkpt>
      <trkpt lat="45.84075" lon="3.55251">
        <ele>446</ele>
        <time>2021-02-14T14:33:08Z</time>
      </trkpt>
      <trkpt lat="45.84077" lon="3.55249">
        <ele>446</ele>
        <time>2021-02-14T14:33:11Z</time>
      </trkpt>
      <trkpt lat="45.84078" lon="3.55247">
        <ele>446</ele>
        <time>2021-02-14T14:33:14Z</time>
      </trkpt>
      <trkpt lat="45.8408" lon="3.55245">
        <ele>446</ele>
        <time>2021-02-14T14:33:17Z</time>
      </trkpt>
      <trkpt lat="45.84086" lon="3.55233">
        <ele>445</ele>
        <time>2021-02-14T14:33:27Z</time>
      </trkpt>
      <trkpt lat="45.84088" lon="3.5523">
        <ele>445</ele>
        <time>2021-02-14T14:33:30Z</time>
      </trkpt>
      <trkpt lat="45.84093" lon="3.55224">
        <ele>445</ele>
        <time>2021-02-14T14:33:37Z</time>
      </trkpt>
      <trkpt lat="45.84094" lon="3.55222">
        <ele>444</ele>
        <time>2021-02-14T14:33:40Z</time>
      </trkpt>
      <trkpt lat="45.84096" lon="3.55219">
        <ele>444</ele>
        <time>2021-02-14T14:33:42Z</time>
      </trkpt>
      <trkpt lat="45.84097" lon="3.55217">
        <ele>445</ele>
        <time>2021-02-14T14:33:44Z</time>
      </trkpt>
      <trkpt lat="45.841" lon="3.55216">
        <ele>445</ele>
        <time>2021-02-14T14:33:47Z</time>
      </trkpt>
      <trkpt lat="45.84102" lon="3.55214">
        <ele>446</ele>
        <time>2021-02-14T14:33:49Z</time>
      </trkpt>
      <trkpt lat="45.84104" lon="3.55212">
        <ele>446</ele>
        <time>2021-02-14T14:33:51Z</time>
      </trkpt>
      <trkpt lat="45.84106" lon="3.5521">
        <ele>446</ele>
        <time>2021-02-14T14:33:53Z</time>
      </trkpt>
      <trkpt lat="45.84107" lon="3.55209">
        <ele>446</ele>
        <time>2021-02-14T14:33:55Z</time>
      </trkpt>
      <trkpt lat="45.84109" lon="3.55206">
        <ele>446</ele>
        <time>2021-02-14T14:34:00Z</time>
      </trkpt>
      <trkpt lat="45.84109" lon="3.55202">
        <ele>445</ele>
        <time>2021-02-14T14:34:02Z</time>
      </trkpt>
      <trkpt lat="45.8411" lon="3.552">
        <ele>444</ele>
        <time>2021-02-14T14:34:04Z</time>
      </trkpt>
      <trkpt lat="45.84112" lon="3.55199">
        <ele>444</ele>
        <time>2021-02-14T14:34:06Z</time>
      </trkpt>
      <trkpt lat="45.84114" lon="3.55199">
        <ele>445</ele>
        <time>2021-02-14T14:34:08Z</time>
      </trkpt>
      <trkpt lat="45.84114" lon="3.55195">
        <ele>444</ele>
        <time>2021-02-14T14:34:10Z</time>
      </trkpt>
      <trkpt lat="45.84117" lon="3.55192">
        <ele>444</ele>
        <time>2021-02-14T14:34:12Z</time>
      </trkpt>
      <trkpt lat="45.84119" lon="3.55189">
        <ele>443</ele>
        <time>2021-02-14T14:34:14Z</time>
      </trkpt>
      <trkpt lat="45.84121" lon="3.55186">
        <ele>443</ele>
        <time>2021-02-14T14:34:16Z</time>
      </trkpt>
      <trkpt lat="45.84123" lon="3.55185">
        <ele>443</ele>
        <time>2021-02-14T14:34:18Z</time>
      </trkpt>
      <trkpt lat="45.84125" lon="3.55183">
        <ele>443</ele>
        <time>2021-02-14T14:34:20Z</time>
      </trkpt>
      <trkpt lat="45.84126" lon="3.55181">
        <ele>443</ele>
        <time>2021-02-14T14:34:22Z</time>
      </trkpt>
      <trkpt lat="45.84133" lon="3.55174">
        <ele>444</ele>
        <time>2021-02-14T14:34:28Z</time>
      </trkpt>
      <trkpt lat="45.84136" lon="3.55175">
        <ele>445</ele>
        <time>2021-02-14T14:34:30Z</time>
      </trkpt>
      <trkpt lat="45.84137" lon="3.55173">
        <ele>445</ele>
        <time>2021-02-14T14:34:32Z</time>
      </trkpt>
      <trkpt lat="45.84139" lon="3.5517">
        <ele>444</ele>
        <time>2021-02-14T14:34:34Z</time>
      </trkpt>
      <trkpt lat="45.84141" lon="3.55167">
        <ele>444</ele>
        <time>2021-02-14T14:34:36Z</time>
      </trkpt>
      <trkpt lat="45.84142" lon="3.55164">
        <ele>444</ele>
        <time>2021-02-14T14:34:38Z</time>
      </trkpt>
      <trkpt lat="45.84144" lon="3.5516">
        <ele>443</ele>
        <time>2021-02-14T14:34:41Z</time>
      </trkpt>
      <trkpt lat="45.84145" lon="3.55157">
        <ele>443</ele>
        <time>2021-02-14T14:34:43Z</time>
      </trkpt>
      <trkpt lat="45.84145" lon="3.55154">
        <ele>442</ele>
        <time>2021-02-14T14:34:47Z</time>
      </trkpt>
      <trkpt lat="45.84147" lon="3.55152">
        <ele>442</ele>
        <time>2021-02-14T14:34:49Z</time>
      </trkpt>
      <trkpt lat="45.84148" lon="3.55148">
        <ele>441</ele>
        <time>2021-02-14T14:34:52Z</time>
      </trkpt>
      <trkpt lat="45.84149" lon="3.55144">
        <ele>440</ele>
        <time>2021-02-14T14:34:54Z</time>
      </trkpt>
      <trkpt lat="45.84151" lon="3.55142">
        <ele>440</ele>
        <time>2021-02-14T14:34:56Z</time>
      </trkpt>
      <trkpt lat="45.84153" lon="3.55139">
        <ele>440</ele>
        <time>2021-02-14T14:34:59Z</time>
      </trkpt>
      <trkpt lat="45.84155" lon="3.55136">
        <ele>439</ele>
        <time>2021-02-14T14:35:01Z</time>
      </trkpt>
      <trkpt lat="45.84157" lon="3.55134">
        <ele>438</ele>
        <time>2021-02-14T14:35:03Z</time>
      </trkpt>
      <trkpt lat="45.84159" lon="3.55134">
        <ele>438</ele>
        <time>2021-02-14T14:35:05Z</time>
      </trkpt>
      <trkpt lat="45.84168" lon="3.55127">
        <ele>437</ele>
        <time>2021-02-14T14:35:23Z</time>
      </trkpt>
      <trkpt lat="45.84177" lon="3.5512">
        <ele>436</ele>
        <time>2021-02-14T14:35:30Z</time>
      </trkpt>
      <trkpt lat="45.84182" lon="3.55117">
        <ele>436</ele>
        <time>2021-02-14T14:35:34Z</time>
      </trkpt>
      <trkpt lat="45.84186" lon="3.55117">
        <ele>436</ele>
        <time>2021-02-14T14:35:37Z</time>
      </trkpt>
      <trkpt lat="45.8419" lon="3.55114">
        <ele>435</ele>
        <time>2021-02-14T14:35:41Z</time>
      </trkpt>
      <trkpt lat="45.84193" lon="3.55113">
        <ele>435</ele>
        <time>2021-02-14T14:35:43Z</time>
      </trkpt>
      <trkpt lat="45.84195" lon="3.55114">
        <ele>436</ele>
        <time>2021-02-14T14:35:45Z</time>
      </trkpt>
      <trkpt lat="45.84198" lon="3.55113">
        <ele>436</ele>
        <time>2021-02-14T14:35:48Z</time>
      </trkpt>
      <trkpt lat="45.842" lon="3.55111">
        <ele>435</ele>
        <time>2021-02-14T14:35:51Z</time>
      </trkpt>
      <trkpt lat="45.84202" lon="3.55109">
        <ele>435</ele>
        <time>2021-02-14T14:35:53Z</time>
      </trkpt>
      <trkpt lat="45.84205" lon="3.55108">
        <ele>435</ele>
        <time>2021-02-14T14:35:55Z</time>
      </trkpt>
      <trkpt lat="45.84208" lon="3.55107">
        <ele>435</ele>
        <time>2021-02-14T14:35:57Z</time>
      </trkpt>
      <trkpt lat="45.8421" lon="3.55106">
        <ele>435</ele>
        <time>2021-02-14T14:35:59Z</time>
      </trkpt>
      <trkpt lat="45.84212" lon="3.55105">
        <ele>435</ele>
        <time>2021-02-14T14:36:01Z</time>
      </trkpt>
      <trkpt lat="45.84214" lon="3.55103">
        <ele>435</ele>
        <time>2021-02-14T14:36:04Z</time>
      </trkpt>
      <trkpt lat="45.84216" lon="3.55103">
        <ele>435</ele>
        <time>2021-02-14T14:36:06Z</time>
      </trkpt>
      <trkpt lat="45.84219" lon="3.55104">
        <ele>436</ele>
        <time>2021-02-14T14:36:09Z</time>
      </trkpt>
      <trkpt lat="45.84222" lon="3.55104">
        <ele>436</ele>
        <time>2021-02-14T14:36:11Z</time>
      </trkpt>
      <trkpt lat="45.84224" lon="3.55104">
        <ele>436</ele>
        <time>2021-02-14T14:36:13Z</time>
      </trkpt>
      <trkpt lat="45.84226" lon="3.55106">
        <ele>437</ele>
        <time>2021-02-14T14:36:17Z</time>
      </trkpt>
      <trkpt lat="45.84228" lon="3.55105">
        <ele>437</ele>
        <time>2021-02-14T14:36:20Z</time>
      </trkpt>
      <trkpt lat="45.8423" lon="3.55105">
        <ele>437</ele>
        <time>2021-02-14T14:36:23Z</time>
      </trkpt>
      <trkpt lat="45.84233" lon="3.55105">
        <ele>438</ele>
        <time>2021-02-14T14:36:25Z</time>
      </trkpt>
      <trkpt lat="45.84235" lon="3.55106">
        <ele>438</ele>
        <time>2021-02-14T14:36:27Z</time>
      </trkpt>
      <trkpt lat="45.84237" lon="3.55106">
        <ele>438</ele>
        <time>2021-02-14T14:36:29Z</time>
      </trkpt>
      <trkpt lat="45.84239" lon="3.55107">
        <ele>439</ele>
        <time>2021-02-14T14:36:32Z</time>
      </trkpt>
      <trkpt lat="45.84241" lon="3.55109">
        <ele>440</ele>
        <time>2021-02-14T14:36:34Z</time>
      </trkpt>
      <trkpt lat="45.84244" lon="3.55109">
        <ele>440</ele>
        <time>2021-02-14T14:36:36Z</time>
      </trkpt>
      <trkpt lat="45.84246" lon="3.5511">
        <ele>441</ele>
        <time>2021-02-14T14:36:38Z</time>
      </trkpt>
      <trkpt lat="45.84248" lon="3.55111">
        <ele>441</ele>
        <time>2021-02-14T14:36:40Z</time>
      </trkpt>
      <trkpt lat="45.8425" lon="3.55111">
        <ele>441</ele>
        <time>2021-02-14T14:36:42Z</time>
      </trkpt>
      <trkpt lat="45.84252" lon="3.55111">
        <ele>442</ele>
        <time>2021-02-14T14:36:44Z</time>
      </trkpt>
      <trkpt lat="45.84254" lon="3.55111">
        <ele>442</ele>
        <time>2021-02-14T14:36:47Z</time>
      </trkpt>
      <trkpt lat="45.84256" lon="3.55111">
        <ele>442</ele>
        <time>2021-02-14T14:36:49Z</time>
      </trkpt>
      <trkpt lat="45.84258" lon="3.55112">
        <ele>442</ele>
        <time>2021-02-14T14:36:52Z</time>
      </trkpt>
      <trkpt lat="45.8426" lon="3.55112">
        <ele>443</ele>
        <time>2021-02-14T14:36:55Z</time>
      </trkpt>
      <trkpt lat="45.84262" lon="3.55112">
        <ele>443</ele>
        <time>2021-02-14T14:36:57Z</time>
      </trkpt>
      <trkpt lat="45.84264" lon="3.55112">
        <ele>443</ele>
        <time>2021-02-14T14:36:59Z</time>
      </trkpt>
      <trkpt lat="45.84267" lon="3.55112">
        <ele>443</ele>
        <time>2021-02-14T14:37:01Z</time>
      </trkpt>
      <trkpt lat="45.84269" lon="3.55113">
        <ele>444</ele>
        <time>2021-02-14T14:37:03Z</time>
      </trkpt>
      <trkpt lat="45.84271" lon="3.55113">
        <ele>444</ele>
        <time>2021-02-14T14:37:05Z</time>
      </trkpt>
      <trkpt lat="45.84273" lon="3.55113">
        <ele>444</ele>
        <time>2021-02-14T14:37:07Z</time>
      </trkpt>
      <trkpt lat="45.84275" lon="3.55114">
        <ele>445</ele>
        <time>2021-02-14T14:37:09Z</time>
      </trkpt>
      <trkpt lat="45.84277" lon="3.55114">
        <ele>445</ele>
        <time>2021-02-14T14:37:11Z</time>
      </trkpt>
      <trkpt lat="45.84279" lon="3.55114">
        <ele>445</ele>
        <time>2021-02-14T14:37:13Z</time>
      </trkpt>
      <trkpt lat="45.84281" lon="3.55113">
        <ele>445</ele>
        <time>2021-02-14T14:37:15Z</time>
      </trkpt>
      <trkpt lat="45.84283" lon="3.55113">
        <ele>445</ele>
        <time>2021-02-14T14:37:17Z</time>
      </trkpt>
      <trkpt lat="45.84285" lon="3.55114">
        <ele>445</ele>
        <time>2021-02-14T14:37:19Z</time>
      </trkpt>
      <trkpt lat="45.84287" lon="3.55114">
        <ele>445</ele>
        <time>2021-02-14T14:37:21Z</time>
      </trkpt>
      <trkpt lat="45.84289" lon="3.55114">
        <ele>445</ele>
        <time>2021-02-14T14:37:23Z</time>
      </trkpt>
      <trkpt lat="45.84291" lon="3.55114">
        <ele>445</ele>
        <time>2021-02-14T14:37:25Z</time>
      </trkpt>
      <trkpt lat="45.84293" lon="3.55114">
        <ele>446</ele>
        <time>2021-02-14T14:37:27Z</time>
      </trkpt>
      <trkpt lat="45.84296" lon="3.55114">
        <ele>446</ele>
        <time>2021-02-14T14:37:29Z</time>
      </trkpt>
      <trkpt lat="45.84298" lon="3.55115">
        <ele>446</ele>
        <time>2021-02-14T14:37:31Z</time>
      </trkpt>
      <trkpt lat="45.843" lon="3.55116">
        <ele>447</ele>
        <time>2021-02-14T14:37:33Z</time>
      </trkpt>
      <trkpt lat="45.84302" lon="3.55116">
        <ele>447</ele>
        <time>2021-02-14T14:37:35Z</time>
      </trkpt>
      <trkpt lat="45.84304" lon="3.55116">
        <ele>447</ele>
        <time>2021-02-14T14:37:37Z</time>
      </trkpt>
      <trkpt lat="45.84306" lon="3.55117">
        <ele>448</ele>
        <time>2021-02-14T14:37:39Z</time>
      </trkpt>
      <trkpt lat="45.84308" lon="3.55118">
        <ele>448</ele>
        <time>2021-02-14T14:37:41Z</time>
      </trkpt>
      <trkpt lat="45.8431" lon="3.55119">
        <ele>448</ele>
        <time>2021-02-14T14:37:43Z</time>
      </trkpt>
      <trkpt lat="45.84313" lon="3.55119">
        <ele>448</ele>
        <time>2021-02-14T14:37:45Z</time>
      </trkpt>
      <trkpt lat="45.84315" lon="3.5512">
        <ele>448</ele>
        <time>2021-02-14T14:37:47Z</time>
      </trkpt>
      <trkpt lat="45.84318" lon="3.55121">
        <ele>448</ele>
        <time>2021-02-14T14:37:49Z</time>
      </trkpt>
      <trkpt lat="45.84321" lon="3.55121">
        <ele>448</ele>
        <time>2021-02-14T14:37:51Z</time>
      </trkpt>
      <trkpt lat="45.84325" lon="3.55121">
        <ele>448</ele>
        <time>2021-02-14T14:37:54Z</time>
      </trkpt>
      <trkpt lat="45.84327" lon="3.5512">
        <ele>447</ele>
        <time>2021-02-14T14:37:56Z</time>
      </trkpt>
      <trkpt lat="45.8433" lon="3.55121">
        <ele>448</ele>
        <time>2021-02-14T14:37:58Z</time>
      </trkpt>
      <trkpt lat="45.84333" lon="3.55122">
        <ele>448</ele>
        <time>2021-02-14T14:38:00Z</time>
      </trkpt>
      <trkpt lat="45.84335" lon="3.55123">
        <ele>448</ele>
        <time>2021-02-14T14:38:02Z</time>
      </trkpt>
      <trkpt lat="45.84337" lon="3.55123">
        <ele>448</ele>
        <time>2021-02-14T14:38:04Z</time>
      </trkpt>
      <trkpt lat="45.8434" lon="3.55124">
        <ele>448</ele>
        <time>2021-02-14T14:38:06Z</time>
      </trkpt>
      <trkpt lat="45.84342" lon="3.55125">
        <ele>448</ele>
        <time>2021-02-14T14:38:08Z</time>
      </trkpt>
      <trkpt lat="45.84345" lon="3.55126">
        <ele>449</ele>
        <time>2021-02-14T14:38:10Z</time>
      </trkpt>
      <trkpt lat="45.84347" lon="3.55128">
        <ele>449</ele>
        <time>2021-02-14T14:38:12Z</time>
      </trkpt>
      <trkpt lat="45.84349" lon="3.55129">
        <ele>449</ele>
        <time>2021-02-14T14:38:14Z</time>
      </trkpt>
      <trkpt lat="45.84351" lon="3.5513">
        <ele>450</ele>
        <time>2021-02-14T14:38:16Z</time>
      </trkpt>
      <trkpt lat="45.84354" lon="3.55131">
        <ele>450</ele>
        <time>2021-02-14T14:38:18Z</time>
      </trkpt>
      <trkpt lat="45.84356" lon="3.5513">
        <ele>449</ele>
        <time>2021-02-14T14:38:21Z</time>
      </trkpt>
      <trkpt lat="45.84359" lon="3.55132">
        <ele>450</ele>
        <time>2021-02-14T14:38:24Z</time>
      </trkpt>
      <trkpt lat="45.84361" lon="3.55133">
        <ele>450</ele>
        <time>2021-02-14T14:38:26Z</time>
      </trkpt>
      <trkpt lat="45.84364" lon="3.55136">
        <ele>450</ele>
        <time>2021-02-14T14:38:28Z</time>
      </trkpt>
      <trkpt lat="45.84366" lon="3.55138">
        <ele>451</ele>
        <time>2021-02-14T14:38:30Z</time>
      </trkpt>
      <trkpt lat="45.84369" lon="3.55139">
        <ele>451</ele>
        <time>2021-02-14T14:38:32Z</time>
      </trkpt>
      <trkpt lat="45.84371" lon="3.55141">
        <ele>451</ele>
        <time>2021-02-14T14:38:35Z</time>
      </trkpt>
      <trkpt lat="45.84373" lon="3.55143">
        <ele>451</ele>
        <time>2021-02-14T14:38:37Z</time>
      </trkpt>
      <trkpt lat="45.84375" lon="3.55145">
        <ele>452</ele>
        <time>2021-02-14T14:38:39Z</time>
      </trkpt>
      <trkpt lat="45.84377" lon="3.55146">
        <ele>452</ele>
        <time>2021-02-14T14:38:41Z</time>
      </trkpt>
      <trkpt lat="45.84379" lon="3.55147">
        <ele>452</ele>
        <time>2021-02-14T14:38:43Z</time>
      </trkpt>
      <trkpt lat="45.84381" lon="3.55149">
        <ele>452</ele>
        <time>2021-02-14T14:38:45Z</time>
      </trkpt>
      <trkpt lat="45.84383" lon="3.5515">
        <ele>452</ele>
        <time>2021-02-14T14:38:47Z</time>
      </trkpt>
      <trkpt lat="45.84385" lon="3.55151">
        <ele>452</ele>
        <time>2021-02-14T14:38:49Z</time>
      </trkpt>
      <trkpt lat="45.84387" lon="3.55152">
        <ele>452</ele>
        <time>2021-02-14T14:38:51Z</time>
      </trkpt>
      <trkpt lat="45.8439" lon="3.55152">
        <ele>452</ele>
        <time>2021-02-14T14:38:53Z</time>
      </trkpt>
      <trkpt lat="45.84393" lon="3.55152">
        <ele>452</ele>
        <time>2021-02-14T14:38:56Z</time>
      </trkpt>
      <trkpt lat="45.84396" lon="3.55153">
        <ele>452</ele>
        <time>2021-02-14T14:38:58Z</time>
      </trkpt>
      <trkpt lat="45.84398" lon="3.55155">
        <ele>452</ele>
        <time>2021-02-14T14:39:00Z</time>
      </trkpt>
      <trkpt lat="45.84401" lon="3.55156">
        <ele>452</ele>
        <time>2021-02-14T14:39:02Z</time>
      </trkpt>
      <trkpt lat="45.84403" lon="3.55157">
        <ele>452</ele>
        <time>2021-02-14T14:39:03Z</time>
      </trkpt>
      <trkpt lat="45.84405" lon="3.55158">
        <ele>452</ele>
        <time>2021-02-14T14:39:05Z</time>
      </trkpt>
      <trkpt lat="45.84408" lon="3.5516">
        <ele>452</ele>
        <time>2021-02-14T14:39:07Z</time>
      </trkpt>
      <trkpt lat="45.8441" lon="3.55162">
        <ele>452</ele>
        <time>2021-02-14T14:39:09Z</time>
      </trkpt>
      <trkpt lat="45.84412" lon="3.55164">
        <ele>453</ele>
        <time>2021-02-14T14:39:11Z</time>
      </trkpt>
      <trkpt lat="45.84414" lon="3.55166">
        <ele>453</ele>
        <time>2021-02-14T14:39:13Z</time>
      </trkpt>
      <trkpt lat="45.84416" lon="3.55168">
        <ele>453</ele>
        <time>2021-02-14T14:39:15Z</time>
      </trkpt>
      <trkpt lat="45.84418" lon="3.55169">
        <ele>453</ele>
        <time>2021-02-14T14:39:18Z</time>
      </trkpt>
      <trkpt lat="45.8442" lon="3.55172">
        <ele>454</ele>
        <time>2021-02-14T14:39:20Z</time>
      </trkpt>
      <trkpt lat="45.84422" lon="3.55175">
        <ele>454</ele>
        <time>2021-02-14T14:39:22Z</time>
      </trkpt>
      <trkpt lat="45.84425" lon="3.55178">
        <ele>454</ele>
        <time>2021-02-14T14:39:24Z</time>
      </trkpt>
      <trkpt lat="45.84426" lon="3.55181">
        <ele>455</ele>
        <time>2021-02-14T14:39:26Z</time>
      </trkpt>
      <trkpt lat="45.84433" lon="3.5519">
        <ele>455</ele>
        <time>2021-02-14T14:39:32Z</time>
      </trkpt>
      <trkpt lat="45.84434" lon="3.55194">
        <ele>456</ele>
        <time>2021-02-14T14:39:34Z</time>
      </trkpt>
      <trkpt lat="45.84437" lon="3.55197">
        <ele>456</ele>
        <time>2021-02-14T14:39:37Z</time>
      </trkpt>
      <trkpt lat="45.84438" lon="3.552">
        <ele>457</ele>
        <time>2021-02-14T14:39:39Z</time>
      </trkpt>
      <trkpt lat="45.8444" lon="3.55203">
        <ele>457</ele>
        <time>2021-02-14T14:39:41Z</time>
      </trkpt>
      <trkpt lat="45.84441" lon="3.55206">
        <ele>457</ele>
        <time>2021-02-14T14:39:43Z</time>
      </trkpt>
      <trkpt lat="45.84442" lon="3.5521">
        <ele>458</ele>
        <time>2021-02-14T14:39:45Z</time>
      </trkpt>
      <trkpt lat="45.84444" lon="3.55213">
        <ele>458</ele>
        <time>2021-02-14T14:39:47Z</time>
      </trkpt>
      <trkpt lat="45.84445" lon="3.55215">
        <ele>459</ele>
        <time>2021-02-14T14:39:49Z</time>
      </trkpt>
      <trkpt lat="45.84448" lon="3.55216">
        <ele>458</ele>
        <time>2021-02-14T14:39:52Z</time>
      </trkpt>
      <trkpt lat="45.8445" lon="3.55215">
        <ele>458</ele>
        <time>2021-02-14T14:39:54Z</time>
      </trkpt>
      <trkpt lat="45.84453" lon="3.55213">
        <ele>457</ele>
        <time>2021-02-14T14:39:56Z</time>
      </trkpt>
      <trkpt lat="45.84455" lon="3.55212">
        <ele>457</ele>
        <time>2021-02-14T14:39:57Z</time>
      </trkpt>
      <trkpt lat="45.84459" lon="3.5521">
        <ele>456</ele>
        <time>2021-02-14T14:39:59Z</time>
      </trkpt>
      <trkpt lat="45.84461" lon="3.55208">
        <ele>455</ele>
        <time>2021-02-14T14:40:01Z</time>
      </trkpt>
      <trkpt lat="45.84463" lon="3.55207">
        <ele>454</ele>
        <time>2021-02-14T14:40:03Z</time>
      </trkpt>
      <trkpt lat="45.84466" lon="3.55205">
        <ele>453</ele>
        <time>2021-02-14T14:40:05Z</time>
      </trkpt>
      <trkpt lat="45.84468" lon="3.55203">
        <ele>453</ele>
        <time>2021-02-14T14:40:07Z</time>
      </trkpt>
      <trkpt lat="45.8447" lon="3.55201">
        <ele>452</ele>
        <time>2021-02-14T14:40:09Z</time>
      </trkpt>
      <trkpt lat="45.84473" lon="3.55199">
        <ele>451</ele>
        <time>2021-02-14T14:40:11Z</time>
      </trkpt>
      <trkpt lat="45.84476" lon="3.55197">
        <ele>450</ele>
        <time>2021-02-14T14:40:13Z</time>
      </trkpt>
      <trkpt lat="45.84478" lon="3.55195">
        <ele>449</ele>
        <time>2021-02-14T14:40:15Z</time>
      </trkpt>
      <trkpt lat="45.84481" lon="3.55195">
        <ele>449</ele>
        <time>2021-02-14T14:40:17Z</time>
      </trkpt>
      <trkpt lat="45.84483" lon="3.55194">
        <ele>449</ele>
        <time>2021-02-14T14:40:19Z</time>
      </trkpt>
      <trkpt lat="45.84485" lon="3.55193">
        <ele>449</ele>
        <time>2021-02-14T14:40:21Z</time>
      </trkpt>
      <trkpt lat="45.84487" lon="3.55192">
        <ele>448</ele>
        <time>2021-02-14T14:40:23Z</time>
      </trkpt>
      <trkpt lat="45.8449" lon="3.55191">
        <ele>448</ele>
        <time>2021-02-14T14:40:25Z</time>
      </trkpt>
      <trkpt lat="45.84492" lon="3.55191">
        <ele>448</ele>
        <time>2021-02-14T14:40:27Z</time>
      </trkpt>
      <trkpt lat="45.84495" lon="3.55194">
        <ele>449</ele>
        <time>2021-02-14T14:40:29Z</time>
      </trkpt>
      <trkpt lat="45.84497" lon="3.55194">
        <ele>449</ele>
        <time>2021-02-14T14:40:31Z</time>
      </trkpt>
      <trkpt lat="45.84499" lon="3.55194">
        <ele>448</ele>
        <time>2021-02-14T14:40:33Z</time>
      </trkpt>
      <trkpt lat="45.84502" lon="3.55195">
        <ele>449</ele>
        <time>2021-02-14T14:40:35Z</time>
      </trkpt>
      <trkpt lat="45.84505" lon="3.55197">
        <ele>449</ele>
        <time>2021-02-14T14:40:37Z</time>
      </trkpt>
      <trkpt lat="45.84507" lon="3.55199">
        <ele>449</ele>
        <time>2021-02-14T14:40:39Z</time>
      </trkpt>
      <trkpt lat="45.84509" lon="3.55199">
        <ele>449</ele>
        <time>2021-02-14T14:40:41Z</time>
      </trkpt>
      <trkpt lat="45.84511" lon="3.552">
        <ele>449</ele>
        <time>2021-02-14T14:40:43Z</time>
      </trkpt>
      <trkpt lat="45.84513" lon="3.55202">
        <ele>449</ele>
        <time>2021-02-14T14:40:45Z</time>
      </trkpt>
      <trkpt lat="45.84516" lon="3.55203">
        <ele>449</ele>
        <time>2021-02-14T14:40:47Z</time>
      </trkpt>
      <trkpt lat="45.84519" lon="3.55203">
        <ele>449</ele>
        <time>2021-02-14T14:40:49Z</time>
      </trkpt>
      <trkpt lat="45.84522" lon="3.55204">
        <ele>449</ele>
        <time>2021-02-14T14:40:51Z</time>
      </trkpt>
      <trkpt lat="45.84525" lon="3.55205">
        <ele>449</ele>
        <time>2021-02-14T14:40:53Z</time>
      </trkpt>
      <trkpt lat="45.84528" lon="3.55206">
        <ele>449</ele>
        <time>2021-02-14T14:40:55Z</time>
      </trkpt>
      <trkpt lat="45.84531" lon="3.55206">
        <ele>449</ele>
        <time>2021-02-14T14:40:57Z</time>
      </trkpt>
      <trkpt lat="45.84534" lon="3.55206">
        <ele>449</ele>
        <time>2021-02-14T14:40:59Z</time>
      </trkpt>
      <trkpt lat="45.84537" lon="3.55206">
        <ele>449</ele>
        <time>2021-02-14T14:41:01Z</time>
      </trkpt>
      <trkpt lat="45.84539" lon="3.55204">
        <ele>448</ele>
        <time>2021-02-14T14:41:03Z</time>
      </trkpt>
      <trkpt lat="45.84541" lon="3.55202">
        <ele>448</ele>
        <time>2021-02-14T14:41:05Z</time>
      </trkpt>
      <trkpt lat="45.84543" lon="3.55199">
        <ele>447</ele>
        <time>2021-02-14T14:41:07Z</time>
      </trkpt>
      <trkpt lat="45.84545" lon="3.55197">
        <ele>447</ele>
        <time>2021-02-14T14:41:09Z</time>
      </trkpt>
      <trkpt lat="45.84546" lon="3.55195">
        <ele>447</ele>
        <time>2021-02-14T14:41:11Z</time>
      </trkpt>
      <trkpt lat="45.84547" lon="3.55191">
        <ele>446</ele>
        <time>2021-02-14T14:41:13Z</time>
      </trkpt>
      <trkpt lat="45.84548" lon="3.55188">
        <ele>445</ele>
        <time>2021-02-14T14:41:15Z</time>
      </trkpt>
      <trkpt lat="45.8455" lon="3.55184">
        <ele>445</ele>
        <time>2021-02-14T14:41:17Z</time>
      </trkpt>
      <trkpt lat="45.84551" lon="3.55181">
        <ele>444</ele>
        <time>2021-02-14T14:41:19Z</time>
      </trkpt>
      <trkpt lat="45.84552" lon="3.55178">
        <ele>444</ele>
        <time>2021-02-14T14:41:21Z</time>
      </trkpt>
      <trkpt lat="45.84552" lon="3.55175">
        <ele>444</ele>
        <time>2021-02-14T14:41:23Z</time>
      </trkpt>
      <trkpt lat="45.84553" lon="3.55172">
        <ele>443</ele>
        <time>2021-02-14T14:41:30Z</time>
      </trkpt>
      <trkpt lat="45.84553" lon="3.55168">
        <ele>443</ele>
        <time>2021-02-14T14:41:32Z</time>
      </trkpt>
      <trkpt lat="45.84554" lon="3.55165">
        <ele>442</ele>
        <time>2021-02-14T14:41:34Z</time>
      </trkpt>
      <trkpt lat="45.84554" lon="3.55161">
        <ele>442</ele>
        <time>2021-02-14T14:41:36Z</time>
      </trkpt>
      <trkpt lat="45.84555" lon="3.55158">
        <ele>441</ele>
        <time>2021-02-14T14:41:38Z</time>
      </trkpt>
      <trkpt lat="45.84556" lon="3.55154">
        <ele>441</ele>
        <time>2021-02-14T14:41:40Z</time>
      </trkpt>
      <trkpt lat="45.84557" lon="3.55149">
        <ele>440</ele>
        <time>2021-02-14T14:41:42Z</time>
      </trkpt>
      <trkpt lat="45.84558" lon="3.55146">
        <ele>440</ele>
        <time>2021-02-14T14:41:44Z</time>
      </trkpt>
      <trkpt lat="45.84559" lon="3.55142">
        <ele>439</ele>
        <time>2021-02-14T14:41:46Z</time>
      </trkpt>
      <trkpt lat="45.8456" lon="3.55139">
        <ele>439</ele>
        <time>2021-02-14T14:41:48Z</time>
      </trkpt>
      <trkpt lat="45.84561" lon="3.55135">
        <ele>438</ele>
        <time>2021-02-14T14:41:50Z</time>
      </trkpt>
      <trkpt lat="45.84562" lon="3.55131">
        <ele>438</ele>
        <time>2021-02-14T14:41:52Z</time>
      </trkpt>
      <trkpt lat="45.84563" lon="3.55127">
        <ele>437</ele>
        <time>2021-02-14T14:41:54Z</time>
      </trkpt>
      <trkpt lat="45.84564" lon="3.55123">
        <ele>437</ele>
        <time>2021-02-14T14:41:56Z</time>
      </trkpt>
      <trkpt lat="45.84565" lon="3.5512">
        <ele>437</ele>
        <time>2021-02-14T14:41:58Z</time>
      </trkpt>
      <trkpt lat="45.84566" lon="3.55116">
        <ele>436</ele>
        <time>2021-02-14T14:42:00Z</time>
      </trkpt>
      <trkpt lat="45.84567" lon="3.55113">
        <ele>436</ele>
        <time>2021-02-14T14:42:02Z</time>
      </trkpt>
      <trkpt lat="45.84567" lon="3.5511">
        <ele>436</ele>
        <time>2021-02-14T14:42:04Z</time>
      </trkpt>
      <trkpt lat="45.84568" lon="3.55106">
        <ele>436</ele>
        <time>2021-02-14T14:42:06Z</time>
      </trkpt>
      <trkpt lat="45.8457" lon="3.55103">
        <ele>435</ele>
        <time>2021-02-14T14:42:08Z</time>
      </trkpt>
      <trkpt lat="45.84571" lon="3.55099">
        <ele>435</ele>
        <time>2021-02-14T14:42:10Z</time>
      </trkpt>
      <trkpt lat="45.84571" lon="3.55095">
        <ele>435</ele>
        <time>2021-02-14T14:42:12Z</time>
      </trkpt>
      <trkpt lat="45.84572" lon="3.55091">
        <ele>435</ele>
        <time>2021-02-14T14:42:14Z</time>
      </trkpt>
      <trkpt lat="45.84573" lon="3.55088">
        <ele>434</ele>
        <time>2021-02-14T14:42:16Z</time>
      </trkpt>
      <trkpt lat="45.84573" lon="3.55084">
        <ele>434</ele>
        <time>2021-02-14T14:42:18Z</time>
      </trkpt>
      <trkpt lat="45.84573" lon="3.5508">
        <ele>434</ele>
        <time>2021-02-14T14:42:20Z</time>
      </trkpt>
      <trkpt lat="45.84573" lon="3.55077">
        <ele>434</ele>
        <time>2021-02-14T14:42:22Z</time>
      </trkpt>
      <trkpt lat="45.84573" lon="3.55073">
        <ele>434</ele>
        <time>2021-02-14T14:42:24Z</time>
      </trkpt>
      <trkpt lat="45.84574" lon="3.5507">
        <ele>433</ele>
        <time>2021-02-14T14:42:26Z</time>
      </trkpt>
      <trkpt lat="45.84574" lon="3.55066">
        <ele>433</ele>
        <time>2021-02-14T14:42:28Z</time>
      </trkpt>
      <trkpt lat="45.84574" lon="3.55063">
        <ele>433</ele>
        <time>2021-02-14T14:42:30Z</time>
      </trkpt>
      <trkpt lat="45.84574" lon="3.55059">
        <ele>433</ele>
        <time>2021-02-14T14:42:32Z</time>
      </trkpt>
      <trkpt lat="45.84573" lon="3.55055">
        <ele>432</ele>
        <time>2021-02-14T14:42:34Z</time>
      </trkpt>
      <trkpt lat="45.84574" lon="3.55052">
        <ele>432</ele>
        <time>2021-02-14T14:42:36Z</time>
      </trkpt>
      <trkpt lat="45.84574" lon="3.55048">
        <ele>432</ele>
        <time>2021-02-14T14:42:38Z</time>
      </trkpt>
      <trkpt lat="45.84575" lon="3.55045">
        <ele>432</ele>
        <time>2021-02-14T14:42:40Z</time>
      </trkpt>
      <trkpt lat="45.84576" lon="3.55041">
        <ele>431</ele>
        <time>2021-02-14T14:42:42Z</time>
      </trkpt>
      <trkpt lat="45.84577" lon="3.55037">
        <ele>431</ele>
        <time>2021-02-14T14:42:44Z</time>
      </trkpt>
      <trkpt lat="45.84578" lon="3.55033">
        <ele>431</ele>
        <time>2021-02-14T14:42:46Z</time>
      </trkpt>
      <trkpt lat="45.84579" lon="3.5503">
        <ele>431</ele>
        <time>2021-02-14T14:42:48Z</time>
      </trkpt>
      <trkpt lat="45.84581" lon="3.55026">
        <ele>430</ele>
        <time>2021-02-14T14:42:50Z</time>
      </trkpt>
      <trkpt lat="45.84582" lon="3.55023">
        <ele>430</ele>
        <time>2021-02-14T14:42:52Z</time>
      </trkpt>
      <trkpt lat="45.84583" lon="3.55019">
        <ele>430</ele>
        <time>2021-02-14T14:42:54Z</time>
      </trkpt>
      <trkpt lat="45.84584" lon="3.55016">
        <ele>430</ele>
        <time>2021-02-14T14:42:56Z</time>
      </trkpt>
      <trkpt lat="45.84585" lon="3.55013">
        <ele>430</ele>
        <time>2021-02-14T14:42:58Z</time>
      </trkpt>
      <trkpt lat="45.84586" lon="3.5501">
        <ele>429</ele>
        <time>2021-02-14T14:43:00Z</time>
      </trkpt>
      <trkpt lat="45.84588" lon="3.55007">
        <ele>429</ele>
        <time>2021-02-14T14:43:02Z</time>
      </trkpt>
      <trkpt lat="45.84589" lon="3.55003">
        <ele>429</ele>
        <time>2021-02-14T14:43:04Z</time>
      </trkpt>
      <trkpt lat="45.8459" lon="3.55">
        <ele>429</ele>
        <time>2021-02-14T14:43:06Z</time>
      </trkpt>
      <trkpt lat="45.84591" lon="3.54996">
        <ele>429</ele>
        <time>2021-02-14T14:43:08Z</time>
      </trkpt>
      <trkpt lat="45.84592" lon="3.54993">
        <ele>429</ele>
        <time>2021-02-14T14:43:10Z</time>
      </trkpt>
      <trkpt lat="45.84593" lon="3.54989">
        <ele>428</ele>
        <time>2021-02-14T14:43:12Z</time>
      </trkpt>
      <trkpt lat="45.84594" lon="3.54986">
        <ele>428</ele>
        <time>2021-02-14T14:43:14Z</time>
      </trkpt>
      <trkpt lat="45.84595" lon="3.54982">
        <ele>428</ele>
        <time>2021-02-14T14:43:16Z</time>
      </trkpt>
      <trkpt lat="45.84596" lon="3.54978">
        <ele>428</ele>
        <time>2021-02-14T14:43:18Z</time>
      </trkpt>
      <trkpt lat="45.84598" lon="3.54974">
        <ele>428</ele>
        <time>2021-02-14T14:43:20Z</time>
      </trkpt>
      <trkpt lat="45.846" lon="3.5497">
        <ele>428</ele>
        <time>2021-02-14T14:43:22Z</time>
      </trkpt>
      <trkpt lat="45.84602" lon="3.54968">
        <ele>428</ele>
        <time>2021-02-14T14:43:24Z</time>
      </trkpt>
      <trkpt lat="45.84603" lon="3.54964">
        <ele>428</ele>
        <time>2021-02-14T14:43:26Z</time>
      </trkpt>
      <trkpt lat="45.84605" lon="3.54961">
        <ele>428</ele>
        <time>2021-02-14T14:43:28Z</time>
      </trkpt>
      <trkpt lat="45.84606" lon="3.54958">
        <ele>428</ele>
        <time>2021-02-14T14:43:30Z</time>
      </trkpt>
      <trkpt lat="45.84607" lon="3.54955">
        <ele>428</ele>
        <time>2021-02-14T14:43:32Z</time>
      </trkpt>
      <trkpt lat="45.84608" lon="3.54952">
        <ele>428</ele>
        <time>2021-02-14T14:43:34Z</time>
      </trkpt>
      <trkpt lat="45.84609" lon="3.54949">
        <ele>427</ele>
        <time>2021-02-14T14:43:36Z</time>
      </trkpt>
      <trkpt lat="45.84608" lon="3.54946">
        <ele>427</ele>
        <time>2021-02-14T14:43:39Z</time>
      </trkpt>
      <trkpt lat="45.84606" lon="3.54945">
        <ele>427</ele>
        <time>2021-02-14T14:43:41Z</time>
      </trkpt>
      <trkpt lat="45.84604" lon="3.54943">
        <ele>427</ele>
        <time>2021-02-14T14:43:43Z</time>
      </trkpt>
      <trkpt lat="45.84602" lon="3.54939">
        <ele>427</ele>
        <time>2021-02-14T14:43:45Z</time>
      </trkpt>
      <trkpt lat="45.84605" lon="3.5494">
        <ele>427</ele>
        <time>2021-02-14T14:43:56Z</time>
      </trkpt>
      <trkpt lat="45.84606" lon="3.54942">
        <ele>427</ele>
        <time>2021-02-14T14:43:58Z</time>
      </trkpt>
      <trkpt lat="45.84609" lon="3.54944">
        <ele>427</ele>
        <time>2021-02-14T14:44:00Z</time>
      </trkpt>
      <trkpt lat="45.84611" lon="3.54945">
        <ele>428</ele>
        <time>2021-02-14T14:44:02Z</time>
      </trkpt>
      <trkpt lat="45.84613" lon="3.5495">
        <ele>428</ele>
        <time>2021-02-14T14:44:04Z</time>
      </trkpt>
      <trkpt lat="45.84614" lon="3.54954">
        <ele>428</ele>
        <time>2021-02-14T14:44:06Z</time>
        <extensions>
          <visugpx:TrkExtension xmlns:visugpx="https://www.visugpx.com/editgpx/">
            <visugpx:node>1</visugpx:node>
            </visugpx:TrkExtension>
        </extensions>
      </trkpt>
      <trkpt lat="45.84617" lon="3.54964">
        <ele>427.5</ele>
      </trkpt>
      <trkpt lat="45.84631" lon="3.54976">
        <ele>428.3</ele>
      </trkpt>
      <trkpt lat="45.84642" lon="3.54981">
        <ele>428.9</ele>
      </trkpt>
      <trkpt lat="45.84653" lon="3.5498">
        <ele>429</ele>
      </trkpt>
      <trkpt lat="45.84656" lon="3.5498">
        <ele>429.1</ele>
      </trkpt>
      <trkpt lat="45.84667" lon="3.54979">
        <ele>429.2</ele>
      </trkpt>
      <trkpt lat="45.84708" lon="3.54981">
        <ele>428.8</ele>
      </trkpt>
      <trkpt lat="45.8474" lon="3.54979">
        <ele>428.1</ele>
      </trkpt>
      <trkpt lat="45.84756" lon="3.54976">
        <ele>427.5</ele>
      </trkpt>
      <trkpt lat="45.84781" lon="3.54976">
        <ele>427.1</ele>
      </trkpt>
      <trkpt lat="45.84801" lon="3.54977">
        <ele>427</ele>
      </trkpt>
      <trkpt lat="45.84809" lon="3.54982">
        <ele>427.5</ele>
      </trkpt>
      <trkpt lat="45.84819" lon="3.54982">
        <ele>427.3</ele>
      </trkpt>
      <trkpt lat="45.84846" lon="3.55003">
        <ele>427.4</ele>
      </trkpt>
      <trkpt lat="45.8487" lon="3.55015">
        <ele>425.7</ele>
      </trkpt>
      <trkpt lat="45.84895" lon="3.55033">
        <ele>424.5</ele>
      </trkpt>
      <trkpt lat="45.84904" lon="3.5504">
        <ele>423.9</ele>
      </trkpt>
      <trkpt lat="45.84908" lon="3.55034">
        <ele>421.9</ele>
      </trkpt>
      <trkpt lat="45.84905" lon="3.5503">
        <ele>421.8</ele>
      </trkpt>
      <trkpt lat="45.84905" lon="3.5503">
        <ele>421.8</ele>
        <extensions>
          <visugpx:TrkExtension xmlns:visugpx="https://www.visugpx.com/editgpx/">
            <visugpx:node>2</visugpx:node>
            </visugpx:TrkExtension>
        </extensions>
      </trkpt>
      <trkpt lat="45.84905" lon="3.5503">
        <ele>421.8</ele>
      </trkpt>
      <trkpt lat="45.84908" lon="3.55034">
        <ele>421.9</ele>
      </trkpt>
      <trkpt lat="45.84915" lon="3.5504">
        <ele>421.6</ele>
      </trkpt>
      <trkpt lat="45.84931" lon="3.55046">
        <ele>415.1</ele>
      </trkpt>
      <trkpt lat="45.84938" lon="3.55064">
        <ele>415.3</ele>
      </trkpt>
      <trkpt lat="45.84948" lon="3.55076">
        <ele>413.1</ele>
      </trkpt>
      <trkpt lat="45.84961" lon="3.55084">
        <ele>408.9</ele>
      </trkpt>
      <trkpt lat="45.84985" lon="3.55118">
        <ele>405.7</ele>
      </trkpt>
      <trkpt lat="45.84996" lon="3.55129">
        <ele>403.2</ele>
      </trkpt>
      <trkpt lat="45.85002" lon="3.55154">
        <ele>406.2</ele>
      </trkpt>
      <trkpt lat="45.85006" lon="3.55158">
        <ele>405.2</ele>
        <extensions>
          <visugpx:TrkExtension xmlns:visugpx="https://www.visugpx.com/editgpx/">
            <visugpx:node>3</visugpx:node>
            </visugpx:TrkExtension>
        </extensions>
      </trkpt>
      <trkpt lat="45.85014" lon="3.55165">
        <ele>402.9</ele>
      </trkpt>
      <trkpt lat="45.85033" lon="3.5517">
        <ele>395</ele>
      </trkpt>
      <trkpt lat="45.85042" lon="3.55166">
        <ele>389.7</ele>
      </trkpt>
      <trkpt lat="45.85044" lon="3.55163">
        <ele>388.1</ele>
      </trkpt>
      <trkpt lat="45.85043" lon="3.55155">
        <ele>386.9</ele>
      </trkpt>
      <trkpt lat="45.85044" lon="3.55148">
        <ele>385</ele>
      </trkpt>
      <trkpt lat="45.85046" lon="3.55145">
        <ele>383.4</ele>
      </trkpt>
      <trkpt lat="45.85055" lon="3.55148">
        <ele>379.8</ele>
      </trkpt>
      <trkpt lat="45.85052" lon="3.55181">
        <ele>389.3</ele>
      </trkpt>
      <trkpt lat="45.85054" lon="3.55186">
        <ele>390</ele>
      </trkpt>
      <trkpt lat="45.85054" lon="3.55197">
        <ele>393.3</ele>
      </trkpt>
      <trkpt lat="45.85059" lon="3.55206">
        <ele>394.1</ele>
      </trkpt>
      <trkpt lat="45.85067" lon="3.55213">
        <ele>393.3</ele>
      </trkpt>
      <trkpt lat="45.85069" lon="3.55213">
        <ele>392.6</ele>
      </trkpt>
      <trkpt lat="45.85085" lon="3.55193">
        <ele>379.6</ele>
      </trkpt>
      <trkpt lat="45.851" lon="3.55188">
        <ele>376</ele>
      </trkpt>
      <trkpt lat="45.85124" lon="3.55178">
        <ele>369.5</ele>
      </trkpt>
      <trkpt lat="45.85128" lon="3.55171">
        <ele>366.3</ele>
      </trkpt>
      <trkpt lat="45.85131" lon="3.55162">
        <ele>363.6</ele>
      </trkpt>
      <trkpt lat="45.8515" lon="3.55152">
        <ele>360</ele>
      </trkpt>
      <trkpt lat="45.85168" lon="3.55137">
        <ele>356.6</ele>
        <extensions>
          <visugpx:TrkExtension xmlns:visugpx="https://www.visugpx.com/editgpx/">
            <visugpx:node>4</visugpx:node>
            </visugpx:TrkExtension>
        </extensions>
      </trkpt>
      <trkpt lat="45.8517" lon="3.55135">
        <ele>356.6</ele>
      </trkpt>
      <trkpt lat="45.8517" lon="3.55132">
        <ele>356.3</ele>
      </trkpt>
      <trkpt lat="45.85182" lon="3.55117">
        <ele>355.7</ele>
      </trkpt>
      <trkpt lat="45.85191" lon="3.551">
        <ele>354.2</ele>
      </trkpt>
      <trkpt lat="45.85194" lon="3.55093">
        <ele>353.4</ele>
      </trkpt>
      <trkpt lat="45.85186" lon="3.55086">
        <ele>351.8</ele>
      </trkpt>
      <trkpt lat="45.85174" lon="3.55071">
        <ele>351.3</ele>
      </trkpt>
      <trkpt lat="45.85164" lon="3.55075">
        <ele>350.7</ele>
      </trkpt>
      <trkpt lat="45.85159" lon="3.55076">
        <ele>350.9</ele>
      </trkpt>
      <trkpt lat="45.85139" lon="3.55078">
        <ele>351.6</ele>
      </trkpt>
      <trkpt lat="45.85137" lon="3.55077">
        <ele>351.7</ele>
      </trkpt>
      <trkpt lat="45.8514" lon="3.55044">
        <ele>353.4</ele>
      </trkpt>
      <trkpt lat="45.85142" lon="3.55038">
        <ele>353.6</ele>
        <extensions>
          <visugpx:TrkExtension xmlns:visugpx="https://www.visugpx.com/editgpx/">
            <visugpx:node>6</visugpx:node>
            </visugpx:TrkExtension>
        </extensions>
      </trkpt>
      <trkpt lat="45.85146" lon="3.5502">
        <ele>354.6</ele>
      </trkpt>
      <trkpt lat="45.85153" lon="3.55006">
        <ele>355.5</ele>
      </trkpt>
      <trkpt lat="45.85172" lon="3.54989">
        <ele>358</ele>
      </trkpt>
      <trkpt lat="45.8519" lon="3.54985">
        <ele>359.1</ele>
        <extensions>
          <visugpx:TrkExtension xmlns:visugpx="https://www.visugpx.com/editgpx/">
            <visugpx:node>7</visugpx:node>
            </visugpx:TrkExtension>
        </extensions>
      </trkpt>
      <trkpt lat="45.85201" lon="3.54983">
        <ele>359.8</ele>
      </trkpt>
      <trkpt lat="45.85228" lon="3.54989">
        <ele>358.6</ele>
      </trkpt>
      <trkpt lat="45.85253" lon="3.55003">
        <ele>355.3</ele>
      </trkpt>
      <trkpt lat="45.8526" lon="3.55005">
        <ele>355.9</ele>
        <extensions>
          <visugpx:TrkExtension xmlns:visugpx="https://www.visugpx.com/editgpx/">
            <visugpx:node>9</visugpx:node>
            </visugpx:TrkExtension>
        </extensions>
      </trkpt>
      <trkpt lat="45.85278" lon="3.55014">
        <ele>355</ele>
        <time>2021-02-14T10:24:17Z</time>
      </trkpt>
      <trkpt lat="45.85281" lon="3.55014">
        <ele>355</ele>
        <time>2021-02-14T10:24:19Z</time>
      </trkpt>
      <trkpt lat="45.85283" lon="3.55014">
        <ele>355</ele>
        <time>2021-02-14T10:24:21Z</time>
      </trkpt>
      <trkpt lat="45.85286" lon="3.55014">
        <ele>356</ele>
        <time>2021-02-14T10:24:23Z</time>
      </trkpt>
      <trkpt lat="45.85289" lon="3.55015">
        <ele>356</ele>
        <time>2021-02-14T10:24:25Z</time>
      </trkpt>
      <trkpt lat="45.85292" lon="3.55014">
        <ele>356</ele>
        <time>2021-02-14T10:24:27Z</time>
      </trkpt>
      <trkpt lat="45.85295" lon="3.55014">
        <ele>357</ele>
        <time>2021-02-14T10:24:29Z</time>
      </trkpt>
      <trkpt lat="45.85297" lon="3.55014">
        <ele>357</ele>
        <time>2021-02-14T10:24:32Z</time>
      </trkpt>
      <trkpt lat="45.85299" lon="3.55013">
        <ele>358</ele>
        <time>2021-02-14T10:24:34Z</time>
      </trkpt>
      <trkpt lat="45.85301" lon="3.55012">
        <ele>358</ele>
        <time>2021-02-14T10:24:36Z</time>
      </trkpt>
      <trkpt lat="45.85303" lon="3.55012">
        <ele>358</ele>
        <time>2021-02-14T10:24:38Z</time>
      </trkpt>
      <trkpt lat="45.85306" lon="3.55012">
        <ele>359</ele>
        <time>2021-02-14T10:24:40Z</time>
      </trkpt>
      <trkpt lat="45.85309" lon="3.5501">
        <ele>359</ele>
        <time>2021-02-14T10:24:42Z</time>
      </trkpt>
      <trkpt lat="45.85313" lon="3.55009">
        <ele>359</ele>
        <time>2021-02-14T10:24:44Z</time>
      </trkpt>
      <trkpt lat="45.85315" lon="3.55009">
        <ele>359</ele>
        <time>2021-02-14T10:24:46Z</time>
      </trkpt>
      <trkpt lat="45.85318" lon="3.55008">
        <ele>360</ele>
        <time>2021-02-14T10:24:48Z</time>
      </trkpt>
      <trkpt lat="45.8532" lon="3.55007">
        <ele>360</ele>
        <time>2021-02-14T10:24:50Z</time>
      </trkpt>
      <trkpt lat="45.85321" lon="3.55005">
        <ele>360</ele>
        <time>2021-02-14T10:24:52Z</time>
      </trkpt>
      <trkpt lat="45.85324" lon="3.55004">
        <ele>361</ele>
        <time>2021-02-14T10:24:55Z</time>
      </trkpt>
      <trkpt lat="45.85326" lon="3.55003">
        <ele>361</ele>
        <time>2021-02-14T10:24:58Z</time>
      </trkpt>
      <trkpt lat="45.85329" lon="3.55003">
        <ele>361</ele>
        <time>2021-02-14T10:25:00Z</time>
      </trkpt>
      <trkpt lat="45.85331" lon="3.55001">
        <ele>361</ele>
        <time>2021-02-14T10:25:02Z</time>
      </trkpt>
      <trkpt lat="45.85333" lon="3.55001">
        <ele>361</ele>
        <time>2021-02-14T10:25:04Z</time>
      </trkpt>
      <trkpt lat="45.85336" lon="3.55">
        <ele>362</ele>
        <time>2021-02-14T10:25:06Z</time>
      </trkpt>
      <trkpt lat="45.85339" lon="3.55">
        <ele>362</ele>
        <time>2021-02-14T10:25:08Z</time>
      </trkpt>
      <trkpt lat="45.85342" lon="3.54999">
        <ele>362</ele>
        <time>2021-02-14T10:25:10Z</time>
      </trkpt>
      <trkpt lat="45.85345" lon="3.54999">
        <ele>362</ele>
        <time>2021-02-14T10:25:12Z</time>
      </trkpt>
      <trkpt lat="45.85349" lon="3.54999">
        <ele>362</ele>
        <time>2021-02-14T10:25:14Z</time>
      </trkpt>
      <trkpt lat="45.85352" lon="3.55">
        <ele>362</ele>
        <time>2021-02-14T10:25:16Z</time>
      </trkpt>
      <trkpt lat="45.85355" lon="3.55002">
        <ele>362</ele>
        <time>2021-02-14T10:25:18Z</time>
      </trkpt>
      <trkpt lat="45.85358" lon="3.55003">
        <ele>362</ele>
        <time>2021-02-14T10:25:20Z</time>
      </trkpt>
      <trkpt lat="45.8536" lon="3.55004">
        <ele>362</ele>
        <time>2021-02-14T10:25:22Z</time>
      </trkpt>
      <trkpt lat="45.85363" lon="3.55005">
        <ele>361</ele>
        <time>2021-02-14T10:25:24Z</time>
      </trkpt>
      <trkpt lat="45.85366" lon="3.55006">
        <ele>361</ele>
        <time>2021-02-14T10:25:26Z</time>
      </trkpt>
      <trkpt lat="45.85368" lon="3.55008">
        <ele>361</ele>
        <time>2021-02-14T10:25:27Z</time>
      </trkpt>
      <trkpt lat="45.85369" lon="3.55009">
        <ele>360</ele>
        <time>2021-02-14T10:25:28Z</time>
      </trkpt>
      <trkpt lat="45.85371" lon="3.5501">
        <ele>360</ele>
        <time>2021-02-14T10:25:29Z</time>
      </trkpt>
      <trkpt lat="45.85373" lon="3.5501">
        <ele>360</ele>
        <time>2021-02-14T10:25:31Z</time>
      </trkpt>
      <trkpt lat="45.85375" lon="3.55008">
        <ele>360</ele>
        <time>2021-02-14T10:25:33Z</time>
      </trkpt>
      <trkpt lat="45.85377" lon="3.55007">
        <ele>360</ele>
        <time>2021-02-14T10:25:35Z</time>
      </trkpt>
      <trkpt lat="45.85379" lon="3.55005">
        <ele>361</ele>
        <time>2021-02-14T10:25:37Z</time>
      </trkpt>
      <trkpt lat="45.8539" lon="3.55007">
        <ele>360</ele>
        <time>2021-02-14T10:25:46Z</time>
      </trkpt>
      <trkpt lat="45.85392" lon="3.55008">
        <ele>360</ele>
        <time>2021-02-14T10:25:47Z</time>
      </trkpt>
      <trkpt lat="45.85395" lon="3.55008">
        <ele>361</ele>
        <time>2021-02-14T10:25:49Z</time>
      </trkpt>
      <trkpt lat="45.85398" lon="3.55007">
        <ele>361</ele>
        <time>2021-02-14T10:25:51Z</time>
      </trkpt>
      <trkpt lat="45.85408" lon="3.55006">
        <ele>363</ele>
        <time>2021-02-14T10:26:00Z</time>
      </trkpt>
      <trkpt lat="45.85417" lon="3.55009">
        <ele>363</ele>
        <time>2021-02-14T10:26:06Z</time>
      </trkpt>
      <trkpt lat="45.85426" lon="3.55017">
        <ele>363</ele>
        <time>2021-02-14T10:26:14Z</time>
      </trkpt>
      <trkpt lat="45.85436" lon="3.55022">
        <ele>364</ele>
        <time>2021-02-14T10:26:19Z</time>
      </trkpt>
      <trkpt lat="45.85438" lon="3.55024">
        <ele>364</ele>
        <time>2021-02-14T10:26:21Z</time>
      </trkpt>
      <trkpt lat="45.85444" lon="3.5503">
        <ele>364</ele>
        <time>2021-02-14T10:26:26Z</time>
      </trkpt>
      <trkpt lat="45.85446" lon="3.55032">
        <ele>364</ele>
        <time>2021-02-14T10:26:28Z</time>
      </trkpt>
      <trkpt lat="45.85449" lon="3.55035">
        <ele>364</ele>
        <time>2021-02-14T10:26:30Z</time>
      </trkpt>
      <trkpt lat="45.85451" lon="3.55038">
        <ele>364</ele>
        <time>2021-02-14T10:26:32Z</time>
      </trkpt>
      <trkpt lat="45.85454" lon="3.55041">
        <ele>364</ele>
        <time>2021-02-14T10:26:34Z</time>
      </trkpt>
      <trkpt lat="45.85456" lon="3.55044">
        <ele>364</ele>
        <time>2021-02-14T10:26:36Z</time>
      </trkpt>
      <trkpt lat="45.85458" lon="3.55046">
        <ele>364</ele>
        <time>2021-02-14T10:26:38Z</time>
      </trkpt>
      <trkpt lat="45.8546" lon="3.55049">
        <ele>364</ele>
        <time>2021-02-14T10:26:40Z</time>
      </trkpt>
      <trkpt lat="45.85462" lon="3.55051">
        <ele>364</ele>
        <time>2021-02-14T10:26:42Z</time>
      </trkpt>
      <trkpt lat="45.85464" lon="3.55052">
        <ele>364</ele>
        <time>2021-02-14T10:26:43Z</time>
      </trkpt>
      <trkpt lat="45.85467" lon="3.55055">
        <ele>364</ele>
        <time>2021-02-14T10:26:45Z</time>
      </trkpt>
      <trkpt lat="45.85469" lon="3.55056">
        <ele>364</ele>
        <time>2021-02-14T10:26:46Z</time>
      </trkpt>
      <trkpt lat="45.85472" lon="3.55058">
        <ele>364</ele>
        <time>2021-02-14T10:26:48Z</time>
      </trkpt>
      <trkpt lat="45.85475" lon="3.55061">
        <ele>364</ele>
        <time>2021-02-14T10:26:50Z</time>
      </trkpt>
      <trkpt lat="45.85477" lon="3.55064">
        <ele>364</ele>
        <time>2021-02-14T10:26:52Z</time>
      </trkpt>
      <trkpt lat="45.8548" lon="3.55067">
        <ele>364</ele>
        <time>2021-02-14T10:26:54Z</time>
      </trkpt>
      <trkpt lat="45.85482" lon="3.5507">
        <ele>363</ele>
        <time>2021-02-14T10:26:56Z</time>
      </trkpt>
      <trkpt lat="45.85483" lon="3.55073">
        <ele>363</ele>
        <time>2021-02-14T10:26:58Z</time>
      </trkpt>
      <trkpt lat="45.85484" lon="3.55076">
        <ele>362</ele>
        <time>2021-02-14T10:27:00Z</time>
      </trkpt>
      <trkpt lat="45.85485" lon="3.55079">
        <ele>362</ele>
        <time>2021-02-14T10:27:02Z</time>
      </trkpt>
      <trkpt lat="45.85486" lon="3.55081">
        <ele>361</ele>
        <time>2021-02-14T10:27:05Z</time>
      </trkpt>
      <trkpt lat="45.85487" lon="3.55084">
        <ele>361</ele>
        <time>2021-02-14T10:27:07Z</time>
      </trkpt>
      <trkpt lat="45.85489" lon="3.55087">
        <ele>360</ele>
        <time>2021-02-14T10:27:09Z</time>
      </trkpt>
      <trkpt lat="45.85491" lon="3.5509">
        <ele>360</ele>
        <time>2021-02-14T10:27:11Z</time>
      </trkpt>
      <trkpt lat="45.85492" lon="3.55093">
        <ele>360</ele>
        <time>2021-02-14T10:27:13Z</time>
      </trkpt>
      <trkpt lat="45.85501" lon="3.551">
        <ele>359</ele>
        <time>2021-02-14T10:27:20Z</time>
      </trkpt>
      <trkpt lat="45.85505" lon="3.55102">
        <ele>359</ele>
        <time>2021-02-14T10:27:23Z</time>
      </trkpt>
      <trkpt lat="45.85507" lon="3.55103">
        <ele>359</ele>
        <time>2021-02-14T10:27:24Z</time>
      </trkpt>
      <trkpt lat="45.8551" lon="3.55104">
        <ele>360</ele>
        <time>2021-02-14T10:27:26Z</time>
      </trkpt>
      <trkpt lat="45.85521" lon="3.55107">
        <ele>360</ele>
        <time>2021-02-14T10:27:42Z</time>
      </trkpt>
      <trkpt lat="45.85523" lon="3.55105">
        <ele>360</ele>
        <time>2021-02-14T10:27:44Z</time>
      </trkpt>
      <trkpt lat="45.85524" lon="3.55103">
        <ele>361</ele>
        <time>2021-02-14T10:27:47Z</time>
      </trkpt>
      <trkpt lat="45.85526" lon="3.55102">
        <ele>361</ele>
        <time>2021-02-14T10:27:50Z</time>
      </trkpt>
      <trkpt lat="45.85529" lon="3.55101">
        <ele>362</ele>
        <time>2021-02-14T10:27:52Z</time>
      </trkpt>
      <trkpt lat="45.85532" lon="3.55102">
        <ele>362</ele>
        <time>2021-02-14T10:27:54Z</time>
      </trkpt>
      <trkpt lat="45.85535" lon="3.55106">
        <ele>361</ele>
        <time>2021-02-14T10:27:56Z</time>
      </trkpt>
      <trkpt lat="45.85536" lon="3.55108">
        <ele>361</ele>
        <time>2021-02-14T10:27:57Z</time>
      </trkpt>
      <trkpt lat="45.85539" lon="3.55111">
        <ele>361</ele>
        <time>2021-02-14T10:27:59Z</time>
      </trkpt>
      <trkpt lat="45.85541" lon="3.55115">
        <ele>361</ele>
        <time>2021-02-14T10:28:01Z</time>
      </trkpt>
      <trkpt lat="45.85542" lon="3.55118">
        <ele>361</ele>
        <time>2021-02-14T10:28:03Z</time>
      </trkpt>
      <trkpt lat="45.85543" lon="3.55121">
        <ele>361</ele>
        <time>2021-02-14T10:28:05Z</time>
      </trkpt>
      <trkpt lat="45.85544" lon="3.55125">
        <ele>360</ele>
        <time>2021-02-14T10:28:07Z</time>
      </trkpt>
      <trkpt lat="45.85544" lon="3.5513">
        <ele>360</ele>
        <time>2021-02-14T10:28:09Z</time>
      </trkpt>
      <trkpt lat="45.85545" lon="3.55135">
        <ele>360</ele>
        <time>2021-02-14T10:28:11Z</time>
      </trkpt>
      <trkpt lat="45.85545" lon="3.5514">
        <ele>360</ele>
        <time>2021-02-14T10:28:13Z</time>
      </trkpt>
      <trkpt lat="45.85546" lon="3.55144">
        <ele>360</ele>
        <time>2021-02-14T10:28:15Z</time>
      </trkpt>
      <trkpt lat="45.85547" lon="3.5515">
        <ele>360</ele>
        <time>2021-02-14T10:28:18Z</time>
      </trkpt>
      <trkpt lat="45.85547" lon="3.55155">
        <ele>361</ele>
        <time>2021-02-14T10:28:20Z</time>
      </trkpt>
      <trkpt lat="45.85548" lon="3.55159">
        <ele>361</ele>
        <time>2021-02-14T10:28:22Z</time>
      </trkpt>
      <trkpt lat="45.85548" lon="3.55163">
        <ele>361</ele>
        <time>2021-02-14T10:28:24Z</time>
      </trkpt>
      <trkpt lat="45.85549" lon="3.55167">
        <ele>361</ele>
        <time>2021-02-14T10:28:26Z</time>
      </trkpt>
      <trkpt lat="45.8555" lon="3.55171">
        <ele>362</ele>
        <time>2021-02-14T10:28:28Z</time>
      </trkpt>
      <trkpt lat="45.85551" lon="3.55174">
        <ele>362</ele>
        <time>2021-02-14T10:28:30Z</time>
      </trkpt>
      <trkpt lat="45.85553" lon="3.55177">
        <ele>363</ele>
        <time>2021-02-14T10:28:32Z</time>
      </trkpt>
      <trkpt lat="45.85553" lon="3.55181">
        <ele>363</ele>
        <time>2021-02-14T10:28:43Z</time>
      </trkpt>
      <trkpt lat="45.85555" lon="3.55184">
        <ele>363</ele>
        <time>2021-02-14T10:28:45Z</time>
      </trkpt>
      <trkpt lat="45.85557" lon="3.55186">
        <ele>364</ele>
        <time>2021-02-14T10:28:46Z</time>
      </trkpt>
      <trkpt lat="45.85558" lon="3.55187">
        <ele>364</ele>
        <time>2021-02-14T10:28:47Z</time>
      </trkpt>
      <trkpt lat="45.8556" lon="3.55191">
        <ele>365</ele>
        <time>2021-02-14T10:28:49Z</time>
      </trkpt>
      <trkpt lat="45.85561" lon="3.55195">
        <ele>366</ele>
        <time>2021-02-14T10:28:51Z</time>
      </trkpt>
      <trkpt lat="45.85562" lon="3.55199">
        <ele>367</ele>
        <time>2021-02-14T10:28:53Z</time>
        <extensions>
          <visugpx:TrkExtension xmlns:visugpx="https://www.visugpx.com/editgpx/">
            <visugpx:node>10</visugpx:node>
            </visugpx:TrkExtension>
        </extensions>
      </trkpt>
    </trkseg>
  </trk>
</gpx>